<?xml version="1.0" encoding="UTF-8" standalone="no" ?>
<gpx xmlns="http://www.topografix.com/GPX/1/1" xmlns:xsi="http://www.w3.org/2001/XMLSchema-instance" xsi:schemaLocation="http://www.topografix.com/GPX/1/1 http://www.topografix.com/GPX/1/1/gpx.xsd" version="1.1" creator="VisuGPX - https://www.visugpx.com">
  <metadata>
    <name>suite voyage</name>
  </metadata>
  <trk>
    <name><![CDATA[T18]]></name>
    <trkseg>
      <trkpt lat="50.51669" lon="1.5844">
        <ele>12.3</ele>
        <time>2020-06-22T07:27:21Z</time>
      </trkpt>
      <trkpt lat="50.51669" lon="1.5844">
        <ele>12.3</ele>
        <time>2020-06-22T07:27:22Z</time>
      </trkpt>
      <trkpt lat="50.51668" lon="1.5844">
        <ele>12.3</ele>
        <time>2020-06-22T07:27:23Z</time>
      </trkpt>
      <trkpt lat="50.51668" lon="1.5844">
        <ele>12.3</ele>
        <time>2020-06-22T07:27:24Z</time>
      </trkpt>
      <trkpt lat="50.51667" lon="1.58441">
        <ele>12.3</ele>
        <time>2020-06-22T07:27:25Z</time>
      </trkpt>
      <trkpt lat="50.51665" lon="1.58442">
        <ele>12.2</ele>
        <time>2020-06-22T07:27:26Z</time>
      </trkpt>
      <trkpt lat="50.51664" lon="1.58445">
        <ele>12.2</ele>
        <time>2020-06-22T07:27:27Z</time>
      </trkpt>
      <trkpt lat="50.51663" lon="1.58447">
        <ele>12.2</ele>
        <time>2020-06-22T07:27:28Z</time>
      </trkpt>
      <trkpt lat="50.51663" lon="1.58451">
        <ele>12.2</ele>
        <time>2020-06-22T07:27:29Z</time>
      </trkpt>
      <trkpt lat="50.51662" lon="1.58454">
        <ele>12.1</ele>
        <time>2020-06-22T07:27:31Z</time>
      </trkpt>
      <trkpt lat="50.51661" lon="1.5846">
        <ele>12.1</ele>
        <time>2020-06-22T07:27:32Z</time>
      </trkpt>
      <trkpt lat="50.5166" lon="1.58463">
        <ele>12.1</ele>
        <time>2020-06-22T07:27:33Z</time>
      </trkpt>
      <trkpt lat="50.5166" lon="1.58468">
        <ele>12.1</ele>
        <time>2020-06-22T07:27:34Z</time>
      </trkpt>
      <trkpt lat="50.51659" lon="1.58472">
        <ele>12</ele>
        <time>2020-06-22T07:27:35Z</time>
      </trkpt>
      <trkpt lat="50.51659" lon="1.58478">
        <ele>12</ele>
        <time>2020-06-22T07:27:36Z</time>
      </trkpt>
      <trkpt lat="50.51658" lon="1.58483">
        <ele>12</ele>
        <time>2020-06-22T07:27:37Z</time>
      </trkpt>
      <trkpt lat="50.51657" lon="1.5849">
        <ele>12</ele>
        <time>2020-06-22T07:27:38Z</time>
      </trkpt>
      <trkpt lat="50.51657" lon="1.58496">
        <ele>12</ele>
        <time>2020-06-22T07:27:39Z</time>
      </trkpt>
      <trkpt lat="50.51655" lon="1.585">
        <ele>12</ele>
        <time>2020-06-22T07:27:40Z</time>
      </trkpt>
      <trkpt lat="50.51653" lon="1.58505">
        <ele>12</ele>
        <time>2020-06-22T07:27:41Z</time>
      </trkpt>
      <trkpt lat="50.51646" lon="1.58512">
        <ele>12.3</ele>
        <time>2020-06-22T07:27:42Z</time>
      </trkpt>
      <trkpt lat="50.51643" lon="1.58517">
        <ele>12.4</ele>
        <time>2020-06-22T07:27:43Z</time>
      </trkpt>
      <trkpt lat="50.5164" lon="1.58523">
        <ele>12.5</ele>
        <time>2020-06-22T07:27:44Z</time>
      </trkpt>
      <trkpt lat="50.51638" lon="1.5853">
        <ele>12.6</ele>
        <time>2020-06-22T07:27:45Z</time>
      </trkpt>
      <trkpt lat="50.51636" lon="1.58535">
        <ele>12.6</ele>
        <time>2020-06-22T07:27:46Z</time>
      </trkpt>
      <trkpt lat="50.51635" lon="1.58542">
        <ele>12</ele>
        <time>2020-06-22T07:27:47Z</time>
      </trkpt>
      <trkpt lat="50.51633" lon="1.58548">
        <ele>12</ele>
        <time>2020-06-22T07:27:48Z</time>
      </trkpt>
      <trkpt lat="50.51629" lon="1.58553">
        <ele>11.9</ele>
        <time>2020-06-22T07:27:49Z</time>
      </trkpt>
      <trkpt lat="50.51625" lon="1.58556">
        <ele>11.8</ele>
        <time>2020-06-22T07:27:50Z</time>
      </trkpt>
      <trkpt lat="50.51621" lon="1.5856">
        <ele>11.8</ele>
        <time>2020-06-22T07:27:51Z</time>
      </trkpt>
      <trkpt lat="50.51617" lon="1.58565">
        <ele>11.7</ele>
        <time>2020-06-22T07:27:52Z</time>
      </trkpt>
      <trkpt lat="50.51612" lon="1.58569">
        <ele>11.7</ele>
        <time>2020-06-22T07:27:53Z</time>
      </trkpt>
      <trkpt lat="50.51608" lon="1.58573">
        <ele>11.7</ele>
        <time>2020-06-22T07:27:54Z</time>
      </trkpt>
      <trkpt lat="50.51603" lon="1.58577">
        <ele>11.6</ele>
        <time>2020-06-22T07:27:55Z</time>
      </trkpt>
      <trkpt lat="50.51598" lon="1.58581">
        <ele>11.6</ele>
        <time>2020-06-22T07:27:56Z</time>
      </trkpt>
      <trkpt lat="50.51594" lon="1.58587">
        <ele>11.6</ele>
        <time>2020-06-22T07:27:57Z</time>
      </trkpt>
      <trkpt lat="50.51589" lon="1.58591">
        <ele>11.6</ele>
        <time>2020-06-22T07:27:58Z</time>
      </trkpt>
      <trkpt lat="50.51584" lon="1.58596">
        <ele>11.5</ele>
        <time>2020-06-22T07:27:59Z</time>
      </trkpt>
      <trkpt lat="50.51579" lon="1.586">
        <ele>11.5</ele>
        <time>2020-06-22T07:28:00Z</time>
      </trkpt>
      <trkpt lat="50.51573" lon="1.58605">
        <ele>11.5</ele>
        <time>2020-06-22T07:28:01Z</time>
      </trkpt>
      <trkpt lat="50.51568" lon="1.5861">
        <ele>11.5</ele>
        <time>2020-06-22T07:28:02Z</time>
      </trkpt>
      <trkpt lat="50.51563" lon="1.58614">
        <ele>11.5</ele>
        <time>2020-06-22T07:28:03Z</time>
      </trkpt>
      <trkpt lat="50.51557" lon="1.58618">
        <ele>11.5</ele>
        <time>2020-06-22T07:28:04Z</time>
      </trkpt>
      <trkpt lat="50.51552" lon="1.58623">
        <ele>11.5</ele>
        <time>2020-06-22T07:28:05Z</time>
      </trkpt>
      <trkpt lat="50.51546" lon="1.58627">
        <ele>11.5</ele>
        <time>2020-06-22T07:28:06Z</time>
      </trkpt>
      <trkpt lat="50.5154" lon="1.58631">
        <ele>11.5</ele>
        <time>2020-06-22T07:28:07Z</time>
      </trkpt>
      <trkpt lat="50.51535" lon="1.58634">
        <ele>11.6</ele>
        <time>2020-06-22T07:28:08Z</time>
      </trkpt>
      <trkpt lat="50.51529" lon="1.58637">
        <ele>11.6</ele>
        <time>2020-06-22T07:28:09Z</time>
      </trkpt>
      <trkpt lat="50.51523" lon="1.5864">
        <ele>11.7</ele>
        <time>2020-06-22T07:28:10Z</time>
      </trkpt>
      <trkpt lat="50.51518" lon="1.58643">
        <ele>11.7</ele>
        <time>2020-06-22T07:28:11Z</time>
      </trkpt>
      <trkpt lat="50.51511" lon="1.58646">
        <ele>11.8</ele>
        <time>2020-06-22T07:28:12Z</time>
      </trkpt>
      <trkpt lat="50.51504" lon="1.58648">
        <ele>11.9</ele>
        <time>2020-06-22T07:28:13Z</time>
      </trkpt>
      <trkpt lat="50.51499" lon="1.58651">
        <ele>11.9</ele>
        <time>2020-06-22T07:28:14Z</time>
      </trkpt>
      <trkpt lat="50.51492" lon="1.58654">
        <ele>12</ele>
        <time>2020-06-22T07:28:15Z</time>
      </trkpt>
      <trkpt lat="50.51487" lon="1.58657">
        <ele>12</ele>
        <time>2020-06-22T07:28:16Z</time>
      </trkpt>
      <trkpt lat="50.5148" lon="1.5866">
        <ele>12.1</ele>
        <time>2020-06-22T07:28:17Z</time>
      </trkpt>
      <trkpt lat="50.51473" lon="1.58661">
        <ele>12.1</ele>
        <time>2020-06-22T07:28:18Z</time>
      </trkpt>
      <trkpt lat="50.51468" lon="1.58663">
        <ele>12.2</ele>
        <time>2020-06-22T07:28:19Z</time>
      </trkpt>
      <trkpt lat="50.51462" lon="1.58665">
        <ele>12.2</ele>
        <time>2020-06-22T07:28:20Z</time>
      </trkpt>
      <trkpt lat="50.51456" lon="1.58667">
        <ele>12.3</ele>
        <time>2020-06-22T07:28:21Z</time>
      </trkpt>
      <trkpt lat="50.51451" lon="1.58669">
        <ele>12.4</ele>
        <time>2020-06-22T07:28:22Z</time>
      </trkpt>
      <trkpt lat="50.51445" lon="1.5867">
        <ele>12.4</ele>
        <time>2020-06-22T07:28:23Z</time>
      </trkpt>
      <trkpt lat="50.51438" lon="1.58671">
        <ele>12.5</ele>
        <time>2020-06-22T07:28:24Z</time>
      </trkpt>
      <trkpt lat="50.51432" lon="1.58671">
        <ele>12.5</ele>
        <time>2020-06-22T07:28:25Z</time>
      </trkpt>
      <trkpt lat="50.51427" lon="1.58673">
        <ele>12.6</ele>
        <time>2020-06-22T07:28:26Z</time>
      </trkpt>
      <trkpt lat="50.51421" lon="1.58673">
        <ele>12.6</ele>
        <time>2020-06-22T07:28:27Z</time>
      </trkpt>
      <trkpt lat="50.51416" lon="1.58675">
        <ele>12.7</ele>
        <time>2020-06-22T07:28:28Z</time>
      </trkpt>
      <trkpt lat="50.5141" lon="1.58676">
        <ele>12.7</ele>
        <time>2020-06-22T07:28:29Z</time>
      </trkpt>
      <trkpt lat="50.51404" lon="1.58676">
        <ele>12.8</ele>
        <time>2020-06-22T07:28:30Z</time>
      </trkpt>
      <trkpt lat="50.51399" lon="1.58677">
        <ele>12.8</ele>
        <time>2020-06-22T07:28:31Z</time>
      </trkpt>
      <trkpt lat="50.51394" lon="1.58677">
        <ele>12.9</ele>
        <time>2020-06-22T07:28:32Z</time>
      </trkpt>
      <trkpt lat="50.51388" lon="1.58678">
        <ele>13</ele>
        <time>2020-06-22T07:28:33Z</time>
      </trkpt>
      <trkpt lat="50.51383" lon="1.5868">
        <ele>13</ele>
        <time>2020-06-22T07:28:34Z</time>
      </trkpt>
      <trkpt lat="50.51377" lon="1.58682">
        <ele>13.1</ele>
        <time>2020-06-22T07:28:35Z</time>
      </trkpt>
      <trkpt lat="50.51371" lon="1.58683">
        <ele>13.2</ele>
        <time>2020-06-22T07:28:36Z</time>
      </trkpt>
      <trkpt lat="50.51366" lon="1.58684">
        <ele>13.3</ele>
        <time>2020-06-22T07:28:37Z</time>
      </trkpt>
      <trkpt lat="50.51361" lon="1.58685">
        <ele>13.3</ele>
        <time>2020-06-22T07:28:38Z</time>
      </trkpt>
      <trkpt lat="50.51356" lon="1.58686">
        <ele>13.3</ele>
        <time>2020-06-22T07:28:39Z</time>
      </trkpt>
      <trkpt lat="50.51351" lon="1.58688">
        <ele>13.2</ele>
        <time>2020-06-22T07:28:40Z</time>
      </trkpt>
      <trkpt lat="50.51346" lon="1.58689">
        <ele>13.2</ele>
        <time>2020-06-22T07:28:41Z</time>
      </trkpt>
      <trkpt lat="50.5134" lon="1.58691">
        <ele>13.1</ele>
        <time>2020-06-22T07:28:42Z</time>
      </trkpt>
      <trkpt lat="50.51336" lon="1.58692">
        <ele>13.1</ele>
        <time>2020-06-22T07:28:43Z</time>
      </trkpt>
      <trkpt lat="50.5133" lon="1.58693">
        <ele>13.1</ele>
        <time>2020-06-22T07:28:44Z</time>
      </trkpt>
      <trkpt lat="50.51325" lon="1.58694">
        <ele>13.2</ele>
        <time>2020-06-22T07:28:45Z</time>
      </trkpt>
      <trkpt lat="50.51321" lon="1.58697">
        <ele>13.3</ele>
        <time>2020-06-22T07:28:46Z</time>
      </trkpt>
      <trkpt lat="50.51318" lon="1.58703">
        <ele>13.3</ele>
        <time>2020-06-22T07:28:47Z</time>
      </trkpt>
      <trkpt lat="50.51316" lon="1.58708">
        <ele>13.5</ele>
        <time>2020-06-22T07:28:48Z</time>
      </trkpt>
      <trkpt lat="50.51316" lon="1.58715">
        <ele>13.6</ele>
        <time>2020-06-22T07:28:49Z</time>
      </trkpt>
      <trkpt lat="50.51315" lon="1.58723">
        <ele>13.7</ele>
        <time>2020-06-22T07:28:50Z</time>
      </trkpt>
      <trkpt lat="50.51314" lon="1.58733">
        <ele>13.6</ele>
        <time>2020-06-22T07:28:51Z</time>
      </trkpt>
      <trkpt lat="50.51313" lon="1.5874">
        <ele>13.5</ele>
        <time>2020-06-22T07:28:52Z</time>
      </trkpt>
      <trkpt lat="50.51311" lon="1.58749">
        <ele>13.4</ele>
        <time>2020-06-22T07:28:53Z</time>
      </trkpt>
      <trkpt lat="50.5131" lon="1.58756">
        <ele>13.3</ele>
        <time>2020-06-22T07:28:54Z</time>
      </trkpt>
      <trkpt lat="50.51309" lon="1.58762">
        <ele>13.2</ele>
        <time>2020-06-22T07:28:55Z</time>
      </trkpt>
      <trkpt lat="50.51308" lon="1.5877">
        <ele>13.1</ele>
        <time>2020-06-22T07:28:56Z</time>
      </trkpt>
      <trkpt lat="50.51307" lon="1.58778">
        <ele>13</ele>
        <time>2020-06-22T07:28:57Z</time>
      </trkpt>
      <trkpt lat="50.51306" lon="1.58787">
        <ele>12.9</ele>
        <time>2020-06-22T07:28:58Z</time>
      </trkpt>
      <trkpt lat="50.51305" lon="1.58796">
        <ele>12.9</ele>
        <time>2020-06-22T07:28:59Z</time>
      </trkpt>
      <trkpt lat="50.51303" lon="1.58806">
        <ele>12.7</ele>
        <time>2020-06-22T07:29:00Z</time>
      </trkpt>
      <trkpt lat="50.51302" lon="1.58814">
        <ele>12.6</ele>
        <time>2020-06-22T07:29:01Z</time>
      </trkpt>
      <trkpt lat="50.51301" lon="1.58821">
        <ele>12.5</ele>
        <time>2020-06-22T07:29:02Z</time>
      </trkpt>
      <trkpt lat="50.513" lon="1.5883">
        <ele>12.3</ele>
        <time>2020-06-22T07:29:03Z</time>
      </trkpt>
      <trkpt lat="50.51299" lon="1.5884">
        <ele>12.1</ele>
        <time>2020-06-22T07:29:04Z</time>
      </trkpt>
      <trkpt lat="50.51299" lon="1.5885">
        <ele>11.9</ele>
        <time>2020-06-22T07:29:05Z</time>
      </trkpt>
      <trkpt lat="50.51297" lon="1.58861">
        <ele>11.6</ele>
        <time>2020-06-22T07:29:06Z</time>
      </trkpt>
      <trkpt lat="50.51296" lon="1.58872">
        <ele>11.4</ele>
        <time>2020-06-22T07:29:07Z</time>
      </trkpt>
      <trkpt lat="50.51293" lon="1.58883">
        <ele>11.1</ele>
        <time>2020-06-22T07:29:08Z</time>
      </trkpt>
      <trkpt lat="50.5129" lon="1.58892">
        <ele>10.9</ele>
        <time>2020-06-22T07:29:09Z</time>
      </trkpt>
      <trkpt lat="50.51288" lon="1.58903">
        <ele>10.7</ele>
        <time>2020-06-22T07:29:10Z</time>
      </trkpt>
      <trkpt lat="50.51287" lon="1.58914">
        <ele>10.5</ele>
        <time>2020-06-22T07:29:11Z</time>
      </trkpt>
      <trkpt lat="50.51286" lon="1.58923">
        <ele>10.3</ele>
        <time>2020-06-22T07:29:12Z</time>
      </trkpt>
      <trkpt lat="50.51287" lon="1.58933">
        <ele>10.2</ele>
        <time>2020-06-22T07:29:13Z</time>
      </trkpt>
      <trkpt lat="50.51287" lon="1.58941">
        <ele>10</ele>
        <time>2020-06-22T07:29:14Z</time>
      </trkpt>
      <trkpt lat="50.51287" lon="1.58951">
        <ele>9.9</ele>
        <time>2020-06-22T07:29:15Z</time>
      </trkpt>
      <trkpt lat="50.51286" lon="1.58963">
        <ele>9.8</ele>
        <time>2020-06-22T07:29:16Z</time>
      </trkpt>
      <trkpt lat="50.51285" lon="1.58973">
        <ele>9.8</ele>
        <time>2020-06-22T07:29:17Z</time>
      </trkpt>
      <trkpt lat="50.51285" lon="1.58982">
        <ele>9.7</ele>
        <time>2020-06-22T07:29:18Z</time>
      </trkpt>
      <trkpt lat="50.51284" lon="1.58991">
        <ele>9.6</ele>
        <time>2020-06-22T07:29:19Z</time>
      </trkpt>
      <trkpt lat="50.51284" lon="1.58999">
        <ele>9.6</ele>
        <time>2020-06-22T07:29:20Z</time>
      </trkpt>
      <trkpt lat="50.51283" lon="1.59009">
        <ele>9.6</ele>
        <time>2020-06-22T07:29:21Z</time>
      </trkpt>
      <trkpt lat="50.51283" lon="1.59018">
        <ele>9.5</ele>
        <time>2020-06-22T07:29:22Z</time>
      </trkpt>
      <trkpt lat="50.51283" lon="1.59029">
        <ele>9.5</ele>
        <time>2020-06-22T07:29:23Z</time>
      </trkpt>
      <trkpt lat="50.51284" lon="1.59039">
        <ele>9.5</ele>
        <time>2020-06-22T07:29:24Z</time>
      </trkpt>
      <trkpt lat="50.51284" lon="1.59049">
        <ele>9.4</ele>
        <time>2020-06-22T07:29:25Z</time>
      </trkpt>
      <trkpt lat="50.51285" lon="1.5906">
        <ele>9.4</ele>
        <time>2020-06-22T07:29:26Z</time>
      </trkpt>
      <trkpt lat="50.51286" lon="1.59073">
        <ele>9.4</ele>
        <time>2020-06-22T07:29:27Z</time>
      </trkpt>
      <trkpt lat="50.51286" lon="1.59085">
        <ele>9.3</ele>
        <time>2020-06-22T07:29:28Z</time>
      </trkpt>
      <trkpt lat="50.51286" lon="1.59097">
        <ele>9.3</ele>
        <time>2020-06-22T07:29:29Z</time>
      </trkpt>
      <trkpt lat="50.51286" lon="1.59109">
        <ele>9.2</ele>
        <time>2020-06-22T07:29:30Z</time>
      </trkpt>
      <trkpt lat="50.51287" lon="1.5912">
        <ele>9.2</ele>
        <time>2020-06-22T07:29:31Z</time>
      </trkpt>
      <trkpt lat="50.51286" lon="1.59129">
        <ele>9.1</ele>
        <time>2020-06-22T07:29:32Z</time>
      </trkpt>
      <trkpt lat="50.51287" lon="1.59139">
        <ele>9.1</ele>
        <time>2020-06-22T07:29:33Z</time>
      </trkpt>
      <trkpt lat="50.51287" lon="1.59149">
        <ele>9.1</ele>
        <time>2020-06-22T07:29:34Z</time>
      </trkpt>
      <trkpt lat="50.51287" lon="1.59159">
        <ele>9.1</ele>
        <time>2020-06-22T07:29:35Z</time>
      </trkpt>
      <trkpt lat="50.51287" lon="1.59169">
        <ele>9.1</ele>
        <time>2020-06-22T07:29:36Z</time>
      </trkpt>
      <trkpt lat="50.51288" lon="1.59179">
        <ele>9.1</ele>
        <time>2020-06-22T07:29:37Z</time>
      </trkpt>
      <trkpt lat="50.51288" lon="1.5919">
        <ele>9.1</ele>
        <time>2020-06-22T07:29:38Z</time>
      </trkpt>
      <trkpt lat="50.51289" lon="1.592">
        <ele>9.1</ele>
        <time>2020-06-22T07:29:39Z</time>
      </trkpt>
      <trkpt lat="50.51289" lon="1.59211">
        <ele>9.1</ele>
        <time>2020-06-22T07:29:40Z</time>
      </trkpt>
      <trkpt lat="50.51289" lon="1.5922">
        <ele>9.1</ele>
        <time>2020-06-22T07:29:41Z</time>
      </trkpt>
      <trkpt lat="50.51289" lon="1.59229">
        <ele>9.1</ele>
        <time>2020-06-22T07:29:42Z</time>
      </trkpt>
      <trkpt lat="50.5129" lon="1.59236">
        <ele>9.1</ele>
        <time>2020-06-22T07:29:43Z</time>
      </trkpt>
      <trkpt lat="50.5129" lon="1.59245">
        <ele>9.1</ele>
        <time>2020-06-22T07:29:44Z</time>
      </trkpt>
      <trkpt lat="50.51291" lon="1.59253">
        <ele>9.1</ele>
        <time>2020-06-22T07:29:45Z</time>
      </trkpt>
      <trkpt lat="50.51292" lon="1.5926">
        <ele>9.1</ele>
        <time>2020-06-22T07:29:46Z</time>
      </trkpt>
      <trkpt lat="50.51293" lon="1.59271">
        <ele>9.1</ele>
        <time>2020-06-22T07:29:47Z</time>
      </trkpt>
      <trkpt lat="50.51294" lon="1.5928">
        <ele>9.1</ele>
        <time>2020-06-22T07:29:48Z</time>
      </trkpt>
      <trkpt lat="50.51296" lon="1.59291">
        <ele>9.1</ele>
        <time>2020-06-22T07:29:49Z</time>
      </trkpt>
      <trkpt lat="50.51295" lon="1.59299">
        <ele>9.1</ele>
        <time>2020-06-22T07:29:50Z</time>
      </trkpt>
      <trkpt lat="50.51295" lon="1.59304">
        <ele>9.1</ele>
        <time>2020-06-22T07:29:51Z</time>
      </trkpt>
      <trkpt lat="50.51296" lon="1.59311">
        <ele>9.1</ele>
        <time>2020-06-22T07:29:52Z</time>
      </trkpt>
      <trkpt lat="50.51297" lon="1.59319">
        <ele>9.1</ele>
        <time>2020-06-22T07:29:53Z</time>
      </trkpt>
      <trkpt lat="50.51299" lon="1.59329">
        <ele>9.2</ele>
        <time>2020-06-22T07:29:54Z</time>
      </trkpt>
      <trkpt lat="50.51301" lon="1.59338">
        <ele>9.2</ele>
        <time>2020-06-22T07:29:55Z</time>
      </trkpt>
      <trkpt lat="50.51302" lon="1.59347">
        <ele>9.2</ele>
        <time>2020-06-22T07:29:56Z</time>
      </trkpt>
      <trkpt lat="50.51303" lon="1.59356">
        <ele>9.2</ele>
        <time>2020-06-22T07:29:57Z</time>
      </trkpt>
      <trkpt lat="50.51305" lon="1.59366">
        <ele>9.2</ele>
        <time>2020-06-22T07:29:58Z</time>
      </trkpt>
      <trkpt lat="50.51307" lon="1.59374">
        <ele>9.2</ele>
        <time>2020-06-22T07:29:59Z</time>
      </trkpt>
      <trkpt lat="50.51308" lon="1.5938">
        <ele>9.3</ele>
        <time>2020-06-22T07:30:00Z</time>
      </trkpt>
      <trkpt lat="50.5131" lon="1.59388">
        <ele>9.3</ele>
        <time>2020-06-22T07:30:01Z</time>
      </trkpt>
      <trkpt lat="50.51311" lon="1.59396">
        <ele>9.3</ele>
        <time>2020-06-22T07:30:02Z</time>
      </trkpt>
      <trkpt lat="50.51312" lon="1.59404">
        <ele>9.3</ele>
        <time>2020-06-22T07:30:03Z</time>
      </trkpt>
      <trkpt lat="50.51313" lon="1.59413">
        <ele>9.4</ele>
        <time>2020-06-22T07:30:04Z</time>
      </trkpt>
      <trkpt lat="50.51314" lon="1.59421">
        <ele>9.4</ele>
        <time>2020-06-22T07:30:05Z</time>
      </trkpt>
      <trkpt lat="50.51316" lon="1.59429">
        <ele>9.5</ele>
        <time>2020-06-22T07:30:06Z</time>
      </trkpt>
      <trkpt lat="50.51316" lon="1.59435">
        <ele>9.5</ele>
        <time>2020-06-22T07:30:07Z</time>
      </trkpt>
      <trkpt lat="50.51317" lon="1.59442">
        <ele>9.5</ele>
        <time>2020-06-22T07:30:08Z</time>
      </trkpt>
      <trkpt lat="50.51314" lon="1.59445">
        <ele>9.4</ele>
        <time>2020-06-22T07:30:09Z</time>
      </trkpt>
      <trkpt lat="50.51311" lon="1.59446">
        <ele>9.4</ele>
        <time>2020-06-22T07:30:10Z</time>
      </trkpt>
      <trkpt lat="50.51304" lon="1.59447">
        <ele>9.4</ele>
        <time>2020-06-22T07:30:11Z</time>
      </trkpt>
      <trkpt lat="50.51298" lon="1.59449">
        <ele>9.3</ele>
        <time>2020-06-22T07:30:12Z</time>
      </trkpt>
      <trkpt lat="50.51293" lon="1.5945">
        <ele>9.3</ele>
        <time>2020-06-22T07:30:13Z</time>
      </trkpt>
      <trkpt lat="50.51288" lon="1.5945">
        <ele>9.3</ele>
        <time>2020-06-22T07:30:14Z</time>
      </trkpt>
      <trkpt lat="50.51283" lon="1.59451">
        <ele>9.3</ele>
        <time>2020-06-22T07:30:15Z</time>
      </trkpt>
      <trkpt lat="50.51278" lon="1.59452">
        <ele>9.2</ele>
        <time>2020-06-22T07:30:16Z</time>
      </trkpt>
      <trkpt lat="50.51273" lon="1.59452">
        <ele>9.3</ele>
        <time>2020-06-22T07:30:17Z</time>
      </trkpt>
      <trkpt lat="50.51267" lon="1.59454">
        <ele>9.3</ele>
        <time>2020-06-22T07:30:18Z</time>
      </trkpt>
      <trkpt lat="50.51263" lon="1.59456">
        <ele>9.3</ele>
        <time>2020-06-22T07:30:19Z</time>
      </trkpt>
      <trkpt lat="50.51257" lon="1.59459">
        <ele>9.3</ele>
        <time>2020-06-22T07:30:20Z</time>
      </trkpt>
      <trkpt lat="50.51249" lon="1.59461">
        <ele>9.3</ele>
        <time>2020-06-22T07:30:21Z</time>
      </trkpt>
      <trkpt lat="50.51244" lon="1.59463">
        <ele>9.4</ele>
        <time>2020-06-22T07:30:22Z</time>
      </trkpt>
      <trkpt lat="50.51239" lon="1.59464">
        <ele>9.4</ele>
        <time>2020-06-22T07:30:23Z</time>
      </trkpt>
      <trkpt lat="50.51234" lon="1.59465">
        <ele>9.4</ele>
        <time>2020-06-22T07:30:24Z</time>
      </trkpt>
      <trkpt lat="50.51229" lon="1.59466">
        <ele>9.5</ele>
        <time>2020-06-22T07:30:25Z</time>
      </trkpt>
      <trkpt lat="50.51223" lon="1.59467">
        <ele>9.5</ele>
        <time>2020-06-22T07:30:26Z</time>
      </trkpt>
      <trkpt lat="50.51217" lon="1.59469">
        <ele>9.5</ele>
        <time>2020-06-22T07:30:27Z</time>
      </trkpt>
      <trkpt lat="50.51212" lon="1.5947">
        <ele>9.5</ele>
        <time>2020-06-22T07:30:28Z</time>
      </trkpt>
      <trkpt lat="50.51206" lon="1.59472">
        <ele>9.6</ele>
        <time>2020-06-22T07:30:29Z</time>
      </trkpt>
      <trkpt lat="50.51201" lon="1.59474">
        <ele>9.6</ele>
        <time>2020-06-22T07:30:30Z</time>
      </trkpt>
      <trkpt lat="50.51196" lon="1.59476">
        <ele>9.6</ele>
        <time>2020-06-22T07:30:31Z</time>
      </trkpt>
      <trkpt lat="50.51191" lon="1.59479">
        <ele>9.7</ele>
        <time>2020-06-22T07:30:32Z</time>
      </trkpt>
      <trkpt lat="50.51185" lon="1.59482">
        <ele>9.8</ele>
        <time>2020-06-22T07:30:33Z</time>
      </trkpt>
      <trkpt lat="50.51179" lon="1.59485">
        <ele>9.9</ele>
        <time>2020-06-22T07:30:34Z</time>
      </trkpt>
      <trkpt lat="50.51174" lon="1.59488">
        <ele>9.9</ele>
        <time>2020-06-22T07:30:35Z</time>
      </trkpt>
      <trkpt lat="50.51167" lon="1.59492">
        <ele>10</ele>
        <time>2020-06-22T07:30:36Z</time>
      </trkpt>
      <trkpt lat="50.51162" lon="1.59494">
        <ele>10.1</ele>
        <time>2020-06-22T07:30:37Z</time>
      </trkpt>
      <trkpt lat="50.51157" lon="1.59497">
        <ele>10.1</ele>
        <time>2020-06-22T07:30:38Z</time>
      </trkpt>
      <trkpt lat="50.51152" lon="1.59499">
        <ele>10.2</ele>
        <time>2020-06-22T07:30:39Z</time>
      </trkpt>
      <trkpt lat="50.51145" lon="1.59504">
        <ele>10.2</ele>
        <time>2020-06-22T07:30:40Z</time>
      </trkpt>
      <trkpt lat="50.51139" lon="1.59509">
        <ele>10.2</ele>
        <time>2020-06-22T07:30:41Z</time>
      </trkpt>
      <trkpt lat="50.51132" lon="1.59514">
        <ele>10.2</ele>
        <time>2020-06-22T07:30:42Z</time>
      </trkpt>
      <trkpt lat="50.51127" lon="1.59518">
        <ele>10.2</ele>
        <time>2020-06-22T07:30:43Z</time>
      </trkpt>
      <trkpt lat="50.51122" lon="1.59523">
        <ele>10.2</ele>
        <time>2020-06-22T07:30:44Z</time>
      </trkpt>
      <trkpt lat="50.51118" lon="1.59526">
        <ele>10.3</ele>
        <time>2020-06-22T07:30:45Z</time>
      </trkpt>
      <trkpt lat="50.51114" lon="1.59529">
        <ele>10.3</ele>
        <time>2020-06-22T07:30:46Z</time>
      </trkpt>
      <trkpt lat="50.51109" lon="1.59533">
        <ele>10.3</ele>
        <time>2020-06-22T07:30:47Z</time>
      </trkpt>
      <trkpt lat="50.51105" lon="1.59537">
        <ele>10.4</ele>
        <time>2020-06-22T07:30:48Z</time>
      </trkpt>
      <trkpt lat="50.511" lon="1.59541">
        <ele>10.4</ele>
        <time>2020-06-22T07:30:49Z</time>
      </trkpt>
      <trkpt lat="50.51095" lon="1.59546">
        <ele>10.4</ele>
        <time>2020-06-22T07:30:50Z</time>
      </trkpt>
      <trkpt lat="50.5109" lon="1.59552">
        <ele>10.4</ele>
        <time>2020-06-22T07:30:51Z</time>
      </trkpt>
      <trkpt lat="50.51086" lon="1.59558">
        <ele>10.5</ele>
        <time>2020-06-22T07:30:52Z</time>
      </trkpt>
      <trkpt lat="50.5108" lon="1.59562">
        <ele>10.5</ele>
        <time>2020-06-22T07:30:53Z</time>
      </trkpt>
      <trkpt lat="50.51075" lon="1.59567">
        <ele>10.5</ele>
        <time>2020-06-22T07:30:54Z</time>
      </trkpt>
      <trkpt lat="50.51071" lon="1.59571">
        <ele>10.5</ele>
        <time>2020-06-22T07:30:55Z</time>
      </trkpt>
      <trkpt lat="50.51067" lon="1.59573">
        <ele>10.5</ele>
        <time>2020-06-22T07:30:56Z</time>
      </trkpt>
      <trkpt lat="50.51063" lon="1.5958">
        <ele>10.5</ele>
        <time>2020-06-22T07:30:57Z</time>
      </trkpt>
      <trkpt lat="50.51059" lon="1.59585">
        <ele>10.5</ele>
        <time>2020-06-22T07:30:58Z</time>
      </trkpt>
      <trkpt lat="50.51056" lon="1.59592">
        <ele>10.5</ele>
        <time>2020-06-22T07:30:59Z</time>
      </trkpt>
      <trkpt lat="50.51053" lon="1.59597">
        <ele>10.5</ele>
        <time>2020-06-22T07:31:00Z</time>
      </trkpt>
      <trkpt lat="50.5105" lon="1.59601">
        <ele>10.5</ele>
        <time>2020-06-22T07:31:01Z</time>
      </trkpt>
      <trkpt lat="50.51046" lon="1.59607">
        <ele>10.6</ele>
        <time>2020-06-22T07:31:02Z</time>
      </trkpt>
      <trkpt lat="50.51043" lon="1.59611">
        <ele>10.6</ele>
        <time>2020-06-22T07:31:03Z</time>
      </trkpt>
      <trkpt lat="50.5104" lon="1.59615">
        <ele>10.6</ele>
        <time>2020-06-22T07:31:04Z</time>
      </trkpt>
      <trkpt lat="50.51036" lon="1.59622">
        <ele>10.6</ele>
        <time>2020-06-22T07:31:05Z</time>
      </trkpt>
      <trkpt lat="50.51032" lon="1.59628">
        <ele>10.7</ele>
        <time>2020-06-22T07:31:06Z</time>
      </trkpt>
      <trkpt lat="50.51029" lon="1.59634">
        <ele>10.7</ele>
        <time>2020-06-22T07:31:07Z</time>
      </trkpt>
      <trkpt lat="50.51024" lon="1.5964">
        <ele>10.7</ele>
        <time>2020-06-22T07:31:08Z</time>
      </trkpt>
      <trkpt lat="50.5102" lon="1.59646">
        <ele>10.7</ele>
        <time>2020-06-22T07:31:09Z</time>
      </trkpt>
      <trkpt lat="50.51015" lon="1.59653">
        <ele>10.7</ele>
        <time>2020-06-22T07:31:10Z</time>
      </trkpt>
      <trkpt lat="50.51009" lon="1.5966">
        <ele>10.7</ele>
        <time>2020-06-22T07:31:11Z</time>
      </trkpt>
      <trkpt lat="50.51006" lon="1.59667">
        <ele>10.7</ele>
        <time>2020-06-22T07:31:12Z</time>
      </trkpt>
      <trkpt lat="50.51001" lon="1.59674">
        <ele>10.7</ele>
        <time>2020-06-22T07:31:13Z</time>
      </trkpt>
      <trkpt lat="50.50995" lon="1.59685">
        <ele>10.8</ele>
        <time>2020-06-22T07:31:14Z</time>
      </trkpt>
      <trkpt lat="50.50991" lon="1.59692">
        <ele>10.8</ele>
        <time>2020-06-22T07:31:15Z</time>
      </trkpt>
      <trkpt lat="50.50985" lon="1.59702">
        <ele>10.8</ele>
        <time>2020-06-22T07:31:16Z</time>
      </trkpt>
      <trkpt lat="50.5098" lon="1.59713">
        <ele>10.8</ele>
        <time>2020-06-22T07:31:17Z</time>
      </trkpt>
      <trkpt lat="50.50975" lon="1.59721">
        <ele>10.9</ele>
        <time>2020-06-22T07:31:18Z</time>
      </trkpt>
      <trkpt lat="50.50972" lon="1.59728">
        <ele>10.9</ele>
        <time>2020-06-22T07:31:19Z</time>
      </trkpt>
      <trkpt lat="50.50968" lon="1.59736">
        <ele>10.9</ele>
        <time>2020-06-22T07:31:20Z</time>
      </trkpt>
      <trkpt lat="50.50964" lon="1.59745">
        <ele>11</ele>
        <time>2020-06-22T07:31:21Z</time>
      </trkpt>
      <trkpt lat="50.5096" lon="1.59755">
        <ele>11</ele>
        <time>2020-06-22T07:31:22Z</time>
      </trkpt>
      <trkpt lat="50.50957" lon="1.59764">
        <ele>11.1</ele>
        <time>2020-06-22T07:31:23Z</time>
      </trkpt>
      <trkpt lat="50.50954" lon="1.59773">
        <ele>11.1</ele>
        <time>2020-06-22T07:31:24Z</time>
      </trkpt>
      <trkpt lat="50.5095" lon="1.59781">
        <ele>11.1</ele>
        <time>2020-06-22T07:31:25Z</time>
      </trkpt>
      <trkpt lat="50.50945" lon="1.59792">
        <ele>11.1</ele>
        <time>2020-06-22T07:31:26Z</time>
      </trkpt>
      <trkpt lat="50.50942" lon="1.598">
        <ele>11.1</ele>
        <time>2020-06-22T07:31:27Z</time>
      </trkpt>
      <trkpt lat="50.50938" lon="1.5981">
        <ele>11.1</ele>
        <time>2020-06-22T07:31:28Z</time>
      </trkpt>
      <trkpt lat="50.50935" lon="1.5982">
        <ele>11.1</ele>
        <time>2020-06-22T07:31:29Z</time>
      </trkpt>
      <trkpt lat="50.50931" lon="1.59829">
        <ele>11.2</ele>
        <time>2020-06-22T07:31:30Z</time>
      </trkpt>
      <trkpt lat="50.50928" lon="1.59837">
        <ele>11.2</ele>
        <time>2020-06-22T07:31:31Z</time>
      </trkpt>
      <trkpt lat="50.50924" lon="1.59845">
        <ele>11.2</ele>
        <time>2020-06-22T07:31:32Z</time>
      </trkpt>
      <trkpt lat="50.50921" lon="1.59852">
        <ele>11.3</ele>
        <time>2020-06-22T07:31:33Z</time>
      </trkpt>
      <trkpt lat="50.50918" lon="1.59861">
        <ele>11.3</ele>
        <time>2020-06-22T07:31:34Z</time>
      </trkpt>
      <trkpt lat="50.50915" lon="1.5987">
        <ele>11.3</ele>
        <time>2020-06-22T07:31:35Z</time>
      </trkpt>
      <trkpt lat="50.50913" lon="1.59877">
        <ele>11.3</ele>
        <time>2020-06-22T07:31:36Z</time>
      </trkpt>
      <trkpt lat="50.5091" lon="1.59883">
        <ele>11.3</ele>
        <time>2020-06-22T07:31:37Z</time>
      </trkpt>
      <trkpt lat="50.50908" lon="1.59892">
        <ele>11.3</ele>
        <time>2020-06-22T07:31:38Z</time>
      </trkpt>
      <trkpt lat="50.50905" lon="1.59899">
        <ele>11.3</ele>
        <time>2020-06-22T07:31:39Z</time>
      </trkpt>
      <trkpt lat="50.50903" lon="1.59904">
        <ele>11.3</ele>
        <time>2020-06-22T07:31:40Z</time>
      </trkpt>
      <trkpt lat="50.50901" lon="1.5991">
        <ele>11.3</ele>
        <time>2020-06-22T07:31:41Z</time>
      </trkpt>
      <trkpt lat="50.50899" lon="1.59917">
        <ele>11.3</ele>
        <time>2020-06-22T07:31:42Z</time>
      </trkpt>
      <trkpt lat="50.50897" lon="1.59925">
        <ele>11.3</ele>
        <time>2020-06-22T07:31:43Z</time>
      </trkpt>
      <trkpt lat="50.50895" lon="1.59932">
        <ele>11.3</ele>
        <time>2020-06-22T07:31:44Z</time>
      </trkpt>
      <trkpt lat="50.50893" lon="1.59939">
        <ele>11.3</ele>
        <time>2020-06-22T07:31:45Z</time>
      </trkpt>
      <trkpt lat="50.50891" lon="1.59947">
        <ele>11.3</ele>
        <time>2020-06-22T07:31:46Z</time>
      </trkpt>
      <trkpt lat="50.50889" lon="1.59955">
        <ele>11.3</ele>
        <time>2020-06-22T07:31:47Z</time>
      </trkpt>
      <trkpt lat="50.50888" lon="1.59962">
        <ele>11.3</ele>
        <time>2020-06-22T07:31:48Z</time>
      </trkpt>
      <trkpt lat="50.50886" lon="1.59972">
        <ele>11.3</ele>
        <time>2020-06-22T07:31:49Z</time>
      </trkpt>
      <trkpt lat="50.50884" lon="1.5998">
        <ele>11.3</ele>
        <time>2020-06-22T07:31:50Z</time>
      </trkpt>
      <trkpt lat="50.50883" lon="1.59988">
        <ele>11.3</ele>
        <time>2020-06-22T07:31:51Z</time>
      </trkpt>
      <trkpt lat="50.50882" lon="1.59996">
        <ele>11.3</ele>
        <time>2020-06-22T07:31:52Z</time>
      </trkpt>
      <trkpt lat="50.5088" lon="1.60004">
        <ele>11.3</ele>
        <time>2020-06-22T07:31:53Z</time>
      </trkpt>
      <trkpt lat="50.50878" lon="1.60012">
        <ele>11.3</ele>
        <time>2020-06-22T07:31:54Z</time>
      </trkpt>
      <trkpt lat="50.50875" lon="1.60018">
        <ele>11.3</ele>
        <time>2020-06-22T07:31:55Z</time>
      </trkpt>
      <trkpt lat="50.50873" lon="1.60026">
        <ele>11.3</ele>
        <time>2020-06-22T07:31:56Z</time>
      </trkpt>
      <trkpt lat="50.5087" lon="1.60035">
        <ele>11.3</ele>
        <time>2020-06-22T07:31:57Z</time>
      </trkpt>
      <trkpt lat="50.50868" lon="1.60042">
        <ele>11.2</ele>
        <time>2020-06-22T07:31:58Z</time>
      </trkpt>
      <trkpt lat="50.50865" lon="1.60049">
        <ele>11.2</ele>
        <time>2020-06-22T07:31:59Z</time>
      </trkpt>
      <trkpt lat="50.50861" lon="1.60059">
        <ele>11.2</ele>
        <time>2020-06-22T07:32:00Z</time>
      </trkpt>
      <trkpt lat="50.50859" lon="1.60067">
        <ele>11.1</ele>
        <time>2020-06-22T07:32:01Z</time>
      </trkpt>
      <trkpt lat="50.50857" lon="1.60075">
        <ele>11.1</ele>
        <time>2020-06-22T07:32:02Z</time>
      </trkpt>
      <trkpt lat="50.50856" lon="1.60083">
        <ele>11</ele>
        <time>2020-06-22T07:32:03Z</time>
      </trkpt>
      <trkpt lat="50.50855" lon="1.60089">
        <ele>11</ele>
        <time>2020-06-22T07:32:04Z</time>
      </trkpt>
      <trkpt lat="50.50853" lon="1.60096">
        <ele>11</ele>
        <time>2020-06-22T07:32:05Z</time>
      </trkpt>
      <trkpt lat="50.50851" lon="1.60104">
        <ele>10.9</ele>
        <time>2020-06-22T07:32:06Z</time>
      </trkpt>
      <trkpt lat="50.5085" lon="1.60111">
        <ele>10.9</ele>
        <time>2020-06-22T07:32:07Z</time>
      </trkpt>
      <trkpt lat="50.50849" lon="1.60116">
        <ele>10.9</ele>
        <time>2020-06-22T07:32:08Z</time>
      </trkpt>
      <trkpt lat="50.50848" lon="1.60124">
        <ele>10.9</ele>
        <time>2020-06-22T07:32:09Z</time>
      </trkpt>
      <trkpt lat="50.50846" lon="1.60134">
        <ele>10.9</ele>
        <time>2020-06-22T07:32:10Z</time>
      </trkpt>
      <trkpt lat="50.50845" lon="1.60143">
        <ele>10.9</ele>
        <time>2020-06-22T07:32:11Z</time>
      </trkpt>
      <trkpt lat="50.50844" lon="1.60151">
        <ele>10.9</ele>
        <time>2020-06-22T07:32:12Z</time>
      </trkpt>
      <trkpt lat="50.50844" lon="1.60158">
        <ele>10.9</ele>
        <time>2020-06-22T07:32:13Z</time>
      </trkpt>
      <trkpt lat="50.50843" lon="1.60164">
        <ele>10.9</ele>
        <time>2020-06-22T07:32:14Z</time>
      </trkpt>
      <trkpt lat="50.50841" lon="1.6017">
        <ele>10.9</ele>
        <time>2020-06-22T07:32:15Z</time>
      </trkpt>
      <trkpt lat="50.5084" lon="1.60176">
        <ele>10.9</ele>
        <time>2020-06-22T07:32:16Z</time>
      </trkpt>
      <trkpt lat="50.50838" lon="1.60183">
        <ele>10.9</ele>
        <time>2020-06-22T07:32:17Z</time>
      </trkpt>
      <trkpt lat="50.50837" lon="1.6019">
        <ele>10.8</ele>
        <time>2020-06-22T07:32:18Z</time>
      </trkpt>
      <trkpt lat="50.50836" lon="1.60196">
        <ele>10.8</ele>
        <time>2020-06-22T07:32:19Z</time>
      </trkpt>
      <trkpt lat="50.50835" lon="1.60202">
        <ele>10.8</ele>
        <time>2020-06-22T07:32:20Z</time>
      </trkpt>
      <trkpt lat="50.50833" lon="1.60208">
        <ele>10.8</ele>
        <time>2020-06-22T07:32:21Z</time>
      </trkpt>
      <trkpt lat="50.50832" lon="1.60215">
        <ele>10.8</ele>
        <time>2020-06-22T07:32:22Z</time>
      </trkpt>
      <trkpt lat="50.5083" lon="1.60222">
        <ele>10.8</ele>
        <time>2020-06-22T07:32:23Z</time>
      </trkpt>
      <trkpt lat="50.50829" lon="1.6023">
        <ele>10.8</ele>
        <time>2020-06-22T07:32:24Z</time>
      </trkpt>
      <trkpt lat="50.50828" lon="1.60239">
        <ele>10.7</ele>
        <time>2020-06-22T07:32:25Z</time>
      </trkpt>
      <trkpt lat="50.50828" lon="1.60248">
        <ele>10.7</ele>
        <time>2020-06-22T07:32:26Z</time>
      </trkpt>
      <trkpt lat="50.50828" lon="1.60257">
        <ele>10.7</ele>
        <time>2020-06-22T07:32:27Z</time>
      </trkpt>
      <trkpt lat="50.50827" lon="1.60265">
        <ele>10.7</ele>
        <time>2020-06-22T07:32:28Z</time>
      </trkpt>
      <trkpt lat="50.50827" lon="1.60273">
        <ele>10.7</ele>
        <time>2020-06-22T07:32:29Z</time>
      </trkpt>
      <trkpt lat="50.50826" lon="1.60282">
        <ele>10.7</ele>
        <time>2020-06-22T07:32:30Z</time>
      </trkpt>
      <trkpt lat="50.50826" lon="1.6029">
        <ele>10.7</ele>
        <time>2020-06-22T07:32:31Z</time>
      </trkpt>
      <trkpt lat="50.50825" lon="1.603">
        <ele>10.7</ele>
        <time>2020-06-22T07:32:32Z</time>
      </trkpt>
      <trkpt lat="50.50825" lon="1.60307">
        <ele>10.7</ele>
        <time>2020-06-22T07:32:33Z</time>
      </trkpt>
      <trkpt lat="50.50824" lon="1.60314">
        <ele>10.7</ele>
        <time>2020-06-22T07:32:34Z</time>
      </trkpt>
      <trkpt lat="50.50823" lon="1.60322">
        <ele>10.7</ele>
        <time>2020-06-22T07:32:35Z</time>
      </trkpt>
      <trkpt lat="50.50822" lon="1.6033">
        <ele>10.7</ele>
        <time>2020-06-22T07:32:36Z</time>
      </trkpt>
      <trkpt lat="50.5082" lon="1.60339">
        <ele>10.7</ele>
        <time>2020-06-22T07:32:37Z</time>
      </trkpt>
      <trkpt lat="50.50819" lon="1.60349">
        <ele>10.7</ele>
        <time>2020-06-22T07:32:38Z</time>
      </trkpt>
      <trkpt lat="50.50815" lon="1.60357">
        <ele>10.7</ele>
        <time>2020-06-22T07:32:39Z</time>
      </trkpt>
      <trkpt lat="50.50813" lon="1.60364">
        <ele>10.7</ele>
        <time>2020-06-22T07:32:40Z</time>
      </trkpt>
      <trkpt lat="50.50812" lon="1.60372">
        <ele>10.7</ele>
        <time>2020-06-22T07:32:41Z</time>
      </trkpt>
      <trkpt lat="50.50809" lon="1.60375">
        <ele>10.6</ele>
        <time>2020-06-22T07:32:42Z</time>
      </trkpt>
      <trkpt lat="50.50806" lon="1.60379">
        <ele>10.6</ele>
        <time>2020-06-22T07:32:43Z</time>
      </trkpt>
      <trkpt lat="50.50805" lon="1.60384">
        <ele>10.6</ele>
        <time>2020-06-22T07:32:44Z</time>
      </trkpt>
      <trkpt lat="50.50805" lon="1.60389">
        <ele>10.5</ele>
        <time>2020-06-22T07:32:45Z</time>
      </trkpt>
      <trkpt lat="50.50806" lon="1.60395">
        <ele>10.5</ele>
        <time>2020-06-22T07:32:46Z</time>
      </trkpt>
      <trkpt lat="50.50807" lon="1.60401">
        <ele>10.5</ele>
        <time>2020-06-22T07:32:47Z</time>
      </trkpt>
      <trkpt lat="50.50807" lon="1.60407">
        <ele>10.4</ele>
        <time>2020-06-22T07:32:48Z</time>
      </trkpt>
      <trkpt lat="50.50807" lon="1.60417">
        <ele>10.4</ele>
        <time>2020-06-22T07:32:49Z</time>
      </trkpt>
      <trkpt lat="50.50808" lon="1.60425">
        <ele>10.4</ele>
        <time>2020-06-22T07:32:50Z</time>
      </trkpt>
      <trkpt lat="50.50808" lon="1.60433">
        <ele>10.4</ele>
        <time>2020-06-22T07:32:51Z</time>
      </trkpt>
      <trkpt lat="50.50807" lon="1.60442">
        <ele>10.3</ele>
        <time>2020-06-22T07:32:52Z</time>
      </trkpt>
      <trkpt lat="50.50807" lon="1.60451">
        <ele>10.3</ele>
        <time>2020-06-22T07:32:53Z</time>
      </trkpt>
      <trkpt lat="50.50807" lon="1.60459">
        <ele>10.3</ele>
        <time>2020-06-22T07:32:54Z</time>
      </trkpt>
      <trkpt lat="50.50807" lon="1.60467">
        <ele>10.3</ele>
        <time>2020-06-22T07:32:55Z</time>
      </trkpt>
      <trkpt lat="50.50807" lon="1.60475">
        <ele>10.3</ele>
        <time>2020-06-22T07:32:56Z</time>
      </trkpt>
      <trkpt lat="50.50809" lon="1.60482">
        <ele>10.3</ele>
        <time>2020-06-22T07:32:57Z</time>
      </trkpt>
      <trkpt lat="50.50808" lon="1.6049">
        <ele>10.3</ele>
        <time>2020-06-22T07:32:58Z</time>
      </trkpt>
      <trkpt lat="50.50808" lon="1.60499">
        <ele>10.3</ele>
        <time>2020-06-22T07:32:59Z</time>
      </trkpt>
      <trkpt lat="50.50808" lon="1.6051">
        <ele>10.3</ele>
        <time>2020-06-22T07:33:00Z</time>
      </trkpt>
      <trkpt lat="50.50808" lon="1.60518">
        <ele>10.3</ele>
        <time>2020-06-22T07:33:01Z</time>
      </trkpt>
      <trkpt lat="50.50809" lon="1.60527">
        <ele>10.3</ele>
        <time>2020-06-22T07:33:02Z</time>
      </trkpt>
      <trkpt lat="50.50809" lon="1.60537">
        <ele>10.4</ele>
        <time>2020-06-22T07:33:03Z</time>
      </trkpt>
      <trkpt lat="50.50809" lon="1.60546">
        <ele>10.4</ele>
        <time>2020-06-22T07:33:04Z</time>
      </trkpt>
      <trkpt lat="50.50808" lon="1.60556">
        <ele>10.4</ele>
        <time>2020-06-22T07:33:05Z</time>
      </trkpt>
      <trkpt lat="50.50807" lon="1.60568">
        <ele>10.4</ele>
        <time>2020-06-22T07:33:06Z</time>
      </trkpt>
      <trkpt lat="50.50806" lon="1.60578">
        <ele>10.4</ele>
        <time>2020-06-22T07:33:07Z</time>
      </trkpt>
      <trkpt lat="50.50805" lon="1.60588">
        <ele>10.4</ele>
        <time>2020-06-22T07:33:08Z</time>
      </trkpt>
      <trkpt lat="50.50803" lon="1.60597">
        <ele>10.5</ele>
        <time>2020-06-22T07:33:09Z</time>
      </trkpt>
      <trkpt lat="50.50801" lon="1.60606">
        <ele>10.5</ele>
        <time>2020-06-22T07:33:10Z</time>
      </trkpt>
      <trkpt lat="50.508" lon="1.60616">
        <ele>10.5</ele>
        <time>2020-06-22T07:33:11Z</time>
      </trkpt>
      <trkpt lat="50.50799" lon="1.60625">
        <ele>10.5</ele>
        <time>2020-06-22T07:33:12Z</time>
      </trkpt>
      <trkpt lat="50.50799" lon="1.60635">
        <ele>10.5</ele>
        <time>2020-06-22T07:33:13Z</time>
      </trkpt>
      <trkpt lat="50.50801" lon="1.60645">
        <ele>10.5</ele>
        <time>2020-06-22T07:33:14Z</time>
      </trkpt>
      <trkpt lat="50.50801" lon="1.60653">
        <ele>10.6</ele>
        <time>2020-06-22T07:33:15Z</time>
      </trkpt>
      <trkpt lat="50.50801" lon="1.6066">
        <ele>10.6</ele>
        <time>2020-06-22T07:33:16Z</time>
      </trkpt>
      <trkpt lat="50.50801" lon="1.6067">
        <ele>10.5</ele>
        <time>2020-06-22T07:33:17Z</time>
      </trkpt>
      <trkpt lat="50.50801" lon="1.6068">
        <ele>10.5</ele>
        <time>2020-06-22T07:33:18Z</time>
      </trkpt>
      <trkpt lat="50.50802" lon="1.60689">
        <ele>10.5</ele>
        <time>2020-06-22T07:33:19Z</time>
      </trkpt>
      <trkpt lat="50.50802" lon="1.60696">
        <ele>10.5</ele>
        <time>2020-06-22T07:33:20Z</time>
      </trkpt>
      <trkpt lat="50.50803" lon="1.60702">
        <ele>10.5</ele>
        <time>2020-06-22T07:33:21Z</time>
      </trkpt>
      <trkpt lat="50.50803" lon="1.60711">
        <ele>10.6</ele>
        <time>2020-06-22T07:33:22Z</time>
      </trkpt>
      <trkpt lat="50.50805" lon="1.6072">
        <ele>10.6</ele>
        <time>2020-06-22T07:33:23Z</time>
      </trkpt>
      <trkpt lat="50.50806" lon="1.60726">
        <ele>10.6</ele>
        <time>2020-06-22T07:33:24Z</time>
      </trkpt>
      <trkpt lat="50.50807" lon="1.60733">
        <ele>10.5</ele>
        <time>2020-06-22T07:33:25Z</time>
      </trkpt>
      <trkpt lat="50.50807" lon="1.60739">
        <ele>10.5</ele>
        <time>2020-06-22T07:33:26Z</time>
      </trkpt>
      <trkpt lat="50.50808" lon="1.60747">
        <ele>10.5</ele>
        <time>2020-06-22T07:33:27Z</time>
      </trkpt>
      <trkpt lat="50.50808" lon="1.60755">
        <ele>10.5</ele>
        <time>2020-06-22T07:33:28Z</time>
      </trkpt>
      <trkpt lat="50.50808" lon="1.60763">
        <ele>10.5</ele>
        <time>2020-06-22T07:33:29Z</time>
      </trkpt>
      <trkpt lat="50.50808" lon="1.60771">
        <ele>10.5</ele>
        <time>2020-06-22T07:33:30Z</time>
      </trkpt>
      <trkpt lat="50.50809" lon="1.60778">
        <ele>10.5</ele>
        <time>2020-06-22T07:33:31Z</time>
      </trkpt>
      <trkpt lat="50.5081" lon="1.60785">
        <ele>10.5</ele>
        <time>2020-06-22T07:33:32Z</time>
      </trkpt>
      <trkpt lat="50.50809" lon="1.60793">
        <ele>10.5</ele>
        <time>2020-06-22T07:33:33Z</time>
      </trkpt>
      <trkpt lat="50.5081" lon="1.60801">
        <ele>10.5</ele>
        <time>2020-06-22T07:33:34Z</time>
      </trkpt>
      <trkpt lat="50.50809" lon="1.6081">
        <ele>10.5</ele>
        <time>2020-06-22T07:33:35Z</time>
      </trkpt>
      <trkpt lat="50.50808" lon="1.60819">
        <ele>10.5</ele>
        <time>2020-06-22T07:33:36Z</time>
      </trkpt>
      <trkpt lat="50.50808" lon="1.60827">
        <ele>10.6</ele>
        <time>2020-06-22T07:33:37Z</time>
      </trkpt>
      <trkpt lat="50.50808" lon="1.60835">
        <ele>10.6</ele>
        <time>2020-06-22T07:33:38Z</time>
      </trkpt>
      <trkpt lat="50.50808" lon="1.60844">
        <ele>10.6</ele>
        <time>2020-06-22T07:33:39Z</time>
      </trkpt>
      <trkpt lat="50.50808" lon="1.60853">
        <ele>10.6</ele>
        <time>2020-06-22T07:33:40Z</time>
      </trkpt>
      <trkpt lat="50.50808" lon="1.60861">
        <ele>10.6</ele>
        <time>2020-06-22T07:33:41Z</time>
      </trkpt>
      <trkpt lat="50.50808" lon="1.60867">
        <ele>10.7</ele>
        <time>2020-06-22T07:33:42Z</time>
      </trkpt>
      <trkpt lat="50.50808" lon="1.60874">
        <ele>10.7</ele>
        <time>2020-06-22T07:33:43Z</time>
      </trkpt>
      <trkpt lat="50.50809" lon="1.60882">
        <ele>10.7</ele>
        <time>2020-06-22T07:33:44Z</time>
      </trkpt>
      <trkpt lat="50.50809" lon="1.60889">
        <ele>10.7</ele>
        <time>2020-06-22T07:33:45Z</time>
      </trkpt>
      <trkpt lat="50.5081" lon="1.60896">
        <ele>10.7</ele>
        <time>2020-06-22T07:33:46Z</time>
      </trkpt>
      <trkpt lat="50.5081" lon="1.60903">
        <ele>10.8</ele>
        <time>2020-06-22T07:33:47Z</time>
      </trkpt>
      <trkpt lat="50.5081" lon="1.60911">
        <ele>10.8</ele>
        <time>2020-06-22T07:33:48Z</time>
      </trkpt>
      <trkpt lat="50.5081" lon="1.60919">
        <ele>10.8</ele>
        <time>2020-06-22T07:33:49Z</time>
      </trkpt>
      <trkpt lat="50.50809" lon="1.60927">
        <ele>10.7</ele>
        <time>2020-06-22T07:33:50Z</time>
      </trkpt>
      <trkpt lat="50.50808" lon="1.60934">
        <ele>10.7</ele>
        <time>2020-06-22T07:33:51Z</time>
      </trkpt>
      <trkpt lat="50.50808" lon="1.60943">
        <ele>10.7</ele>
        <time>2020-06-22T07:33:52Z</time>
      </trkpt>
      <trkpt lat="50.50809" lon="1.60951">
        <ele>10.7</ele>
        <time>2020-06-22T07:33:53Z</time>
      </trkpt>
      <trkpt lat="50.50811" lon="1.60959">
        <ele>10.7</ele>
        <time>2020-06-22T07:33:54Z</time>
      </trkpt>
      <trkpt lat="50.50811" lon="1.60968">
        <ele>10.8</ele>
        <time>2020-06-22T07:33:55Z</time>
      </trkpt>
      <trkpt lat="50.50812" lon="1.60976">
        <ele>10.8</ele>
        <time>2020-06-22T07:33:56Z</time>
      </trkpt>
      <trkpt lat="50.50812" lon="1.60983">
        <ele>10.8</ele>
        <time>2020-06-22T07:33:57Z</time>
      </trkpt>
      <trkpt lat="50.50812" lon="1.60991">
        <ele>10.9</ele>
        <time>2020-06-22T07:33:58Z</time>
      </trkpt>
      <trkpt lat="50.50813" lon="1.60998">
        <ele>10.9</ele>
        <time>2020-06-22T07:33:59Z</time>
      </trkpt>
      <trkpt lat="50.50814" lon="1.61006">
        <ele>10.9</ele>
        <time>2020-06-22T07:34:00Z</time>
      </trkpt>
      <trkpt lat="50.50814" lon="1.61013">
        <ele>11</ele>
        <time>2020-06-22T07:34:01Z</time>
      </trkpt>
      <trkpt lat="50.50814" lon="1.61019">
        <ele>11</ele>
        <time>2020-06-22T07:34:02Z</time>
      </trkpt>
      <trkpt lat="50.50814" lon="1.61026">
        <ele>11.1</ele>
        <time>2020-06-22T07:34:03Z</time>
      </trkpt>
      <trkpt lat="50.50813" lon="1.61032">
        <ele>11.1</ele>
        <time>2020-06-22T07:34:04Z</time>
      </trkpt>
      <trkpt lat="50.50813" lon="1.61039">
        <ele>11.2</ele>
        <time>2020-06-22T07:34:05Z</time>
      </trkpt>
      <trkpt lat="50.50811" lon="1.61047">
        <ele>11.2</ele>
        <time>2020-06-22T07:34:06Z</time>
      </trkpt>
      <trkpt lat="50.50811" lon="1.61054">
        <ele>11.3</ele>
        <time>2020-06-22T07:34:07Z</time>
      </trkpt>
      <trkpt lat="50.5081" lon="1.61062">
        <ele>11.3</ele>
        <time>2020-06-22T07:34:08Z</time>
      </trkpt>
      <trkpt lat="50.5081" lon="1.61068">
        <ele>11.4</ele>
        <time>2020-06-22T07:34:09Z</time>
      </trkpt>
      <trkpt lat="50.5081" lon="1.61076">
        <ele>11.5</ele>
        <time>2020-06-22T07:34:10Z</time>
      </trkpt>
      <trkpt lat="50.5081" lon="1.61084">
        <ele>11.6</ele>
        <time>2020-06-22T07:34:11Z</time>
      </trkpt>
      <trkpt lat="50.5081" lon="1.61091">
        <ele>11.6</ele>
        <time>2020-06-22T07:34:12Z</time>
      </trkpt>
      <trkpt lat="50.50809" lon="1.61098">
        <ele>11.6</ele>
        <time>2020-06-22T07:34:13Z</time>
      </trkpt>
      <trkpt lat="50.50808" lon="1.61105">
        <ele>11.9</ele>
        <time>2020-06-22T07:34:14Z</time>
      </trkpt>
      <trkpt lat="50.50808" lon="1.61113">
        <ele>12</ele>
        <time>2020-06-22T07:34:15Z</time>
      </trkpt>
      <trkpt lat="50.50808" lon="1.61118">
        <ele>12</ele>
        <time>2020-06-22T07:34:16Z</time>
      </trkpt>
      <trkpt lat="50.50806" lon="1.61124">
        <ele>12.1</ele>
        <time>2020-06-22T07:34:17Z</time>
      </trkpt>
      <trkpt lat="50.50806" lon="1.61125">
        <ele>12.1</ele>
        <time>2020-06-22T07:34:18Z</time>
      </trkpt>
      <trkpt lat="50.50807" lon="1.61131">
        <ele>12.1</ele>
        <time>2020-06-22T07:34:19Z</time>
      </trkpt>
      <trkpt lat="50.50807" lon="1.61133">
        <ele>12.1</ele>
        <time>2020-06-22T07:34:20Z</time>
      </trkpt>
      <trkpt lat="50.50808" lon="1.61139">
        <ele>11.7</ele>
        <time>2020-06-22T07:34:21Z</time>
      </trkpt>
      <trkpt lat="50.50808" lon="1.61142">
        <ele>11.7</ele>
        <time>2020-06-22T07:34:22Z</time>
      </trkpt>
      <trkpt lat="50.50808" lon="1.61147">
        <ele>11.6</ele>
        <time>2020-06-22T07:34:23Z</time>
      </trkpt>
      <trkpt lat="50.50808" lon="1.61153">
        <ele>11.6</ele>
        <time>2020-06-22T07:34:24Z</time>
      </trkpt>
      <trkpt lat="50.50809" lon="1.61159">
        <ele>11.5</ele>
        <time>2020-06-22T07:34:25Z</time>
      </trkpt>
      <trkpt lat="50.50809" lon="1.61166">
        <ele>11.5</ele>
        <time>2020-06-22T07:34:26Z</time>
      </trkpt>
      <trkpt lat="50.50809" lon="1.61172">
        <ele>11.5</ele>
        <time>2020-06-22T07:34:27Z</time>
      </trkpt>
      <trkpt lat="50.50808" lon="1.61179">
        <ele>11.5</ele>
        <time>2020-06-22T07:34:28Z</time>
      </trkpt>
      <trkpt lat="50.50808" lon="1.61186">
        <ele>11.4</ele>
        <time>2020-06-22T07:34:29Z</time>
      </trkpt>
      <trkpt lat="50.50808" lon="1.61191">
        <ele>11.4</ele>
        <time>2020-06-22T07:34:30Z</time>
      </trkpt>
      <trkpt lat="50.50808" lon="1.61197">
        <ele>11.4</ele>
        <time>2020-06-22T07:34:31Z</time>
      </trkpt>
      <trkpt lat="50.50808" lon="1.61204">
        <ele>11.4</ele>
        <time>2020-06-22T07:34:32Z</time>
      </trkpt>
      <trkpt lat="50.50807" lon="1.61212">
        <ele>11.4</ele>
        <time>2020-06-22T07:34:33Z</time>
      </trkpt>
      <trkpt lat="50.50807" lon="1.6122">
        <ele>11.4</ele>
        <time>2020-06-22T07:34:34Z</time>
      </trkpt>
      <trkpt lat="50.50807" lon="1.61229">
        <ele>11.4</ele>
        <time>2020-06-22T07:34:35Z</time>
      </trkpt>
      <trkpt lat="50.50807" lon="1.61237">
        <ele>11.4</ele>
        <time>2020-06-22T07:34:36Z</time>
      </trkpt>
      <trkpt lat="50.50809" lon="1.61245">
        <ele>11.4</ele>
        <time>2020-06-22T07:34:37Z</time>
      </trkpt>
      <trkpt lat="50.5081" lon="1.61253">
        <ele>11.4</ele>
        <time>2020-06-22T07:34:38Z</time>
      </trkpt>
      <trkpt lat="50.50812" lon="1.61263">
        <ele>11.4</ele>
        <time>2020-06-22T07:34:39Z</time>
      </trkpt>
      <trkpt lat="50.50812" lon="1.61271">
        <ele>11.4</ele>
        <time>2020-06-22T07:34:40Z</time>
      </trkpt>
      <trkpt lat="50.50814" lon="1.6128">
        <ele>11.3</ele>
        <time>2020-06-22T07:34:41Z</time>
      </trkpt>
      <trkpt lat="50.50815" lon="1.61289">
        <ele>11.3</ele>
        <time>2020-06-22T07:34:42Z</time>
      </trkpt>
      <trkpt lat="50.50816" lon="1.61298">
        <ele>11.3</ele>
        <time>2020-06-22T07:34:43Z</time>
      </trkpt>
      <trkpt lat="50.50817" lon="1.61307">
        <ele>11.2</ele>
        <time>2020-06-22T07:34:44Z</time>
      </trkpt>
      <trkpt lat="50.50817" lon="1.61314">
        <ele>11.2</ele>
        <time>2020-06-22T07:34:45Z</time>
      </trkpt>
      <trkpt lat="50.50818" lon="1.61322">
        <ele>11.1</ele>
        <time>2020-06-22T07:34:46Z</time>
      </trkpt>
      <trkpt lat="50.50819" lon="1.6133">
        <ele>11.1</ele>
        <time>2020-06-22T07:34:47Z</time>
      </trkpt>
      <trkpt lat="50.5082" lon="1.6134">
        <ele>11.1</ele>
        <time>2020-06-22T07:34:48Z</time>
      </trkpt>
      <trkpt lat="50.50821" lon="1.61348">
        <ele>11.1</ele>
        <time>2020-06-22T07:34:49Z</time>
      </trkpt>
      <trkpt lat="50.50821" lon="1.61357">
        <ele>11.1</ele>
        <time>2020-06-22T07:34:50Z</time>
      </trkpt>
      <trkpt lat="50.50822" lon="1.61367">
        <ele>11</ele>
        <time>2020-06-22T07:34:51Z</time>
      </trkpt>
      <trkpt lat="50.50824" lon="1.61375">
        <ele>11</ele>
        <time>2020-06-22T07:34:52Z</time>
      </trkpt>
      <trkpt lat="50.50826" lon="1.61385">
        <ele>10.9</ele>
        <time>2020-06-22T07:34:53Z</time>
      </trkpt>
      <trkpt lat="50.50828" lon="1.61393">
        <ele>10.9</ele>
        <time>2020-06-22T07:34:54Z</time>
      </trkpt>
      <trkpt lat="50.5083" lon="1.61402">
        <ele>10.9</ele>
        <time>2020-06-22T07:34:55Z</time>
      </trkpt>
      <trkpt lat="50.50832" lon="1.6141">
        <ele>10.8</ele>
        <time>2020-06-22T07:34:56Z</time>
      </trkpt>
      <trkpt lat="50.50834" lon="1.6142">
        <ele>10.8</ele>
        <time>2020-06-22T07:34:57Z</time>
      </trkpt>
      <trkpt lat="50.50836" lon="1.6143">
        <ele>10.7</ele>
        <time>2020-06-22T07:34:58Z</time>
      </trkpt>
      <trkpt lat="50.50837" lon="1.6144">
        <ele>10.7</ele>
        <time>2020-06-22T07:34:59Z</time>
      </trkpt>
      <trkpt lat="50.50839" lon="1.61451">
        <ele>10.6</ele>
        <time>2020-06-22T07:35:00Z</time>
      </trkpt>
      <trkpt lat="50.50841" lon="1.61461">
        <ele>10.6</ele>
        <time>2020-06-22T07:35:01Z</time>
      </trkpt>
      <trkpt lat="50.50843" lon="1.61471">
        <ele>10.5</ele>
        <time>2020-06-22T07:35:02Z</time>
      </trkpt>
      <trkpt lat="50.50847" lon="1.61482">
        <ele>10.5</ele>
        <time>2020-06-22T07:35:03Z</time>
      </trkpt>
      <trkpt lat="50.50851" lon="1.61492">
        <ele>10.4</ele>
        <time>2020-06-22T07:35:04Z</time>
      </trkpt>
      <trkpt lat="50.50854" lon="1.61505">
        <ele>10.3</ele>
        <time>2020-06-22T07:35:05Z</time>
      </trkpt>
      <trkpt lat="50.50857" lon="1.61517">
        <ele>10.3</ele>
        <time>2020-06-22T07:35:06Z</time>
      </trkpt>
      <trkpt lat="50.5086" lon="1.61529">
        <ele>10.2</ele>
        <time>2020-06-22T07:35:07Z</time>
      </trkpt>
      <trkpt lat="50.50862" lon="1.61541">
        <ele>10.1</ele>
        <time>2020-06-22T07:35:08Z</time>
      </trkpt>
      <trkpt lat="50.50865" lon="1.61553">
        <ele>10.1</ele>
        <time>2020-06-22T07:35:09Z</time>
      </trkpt>
      <trkpt lat="50.50868" lon="1.61564">
        <ele>10</ele>
        <time>2020-06-22T07:35:10Z</time>
      </trkpt>
      <trkpt lat="50.50871" lon="1.61578">
        <ele>9.9</ele>
        <time>2020-06-22T07:35:11Z</time>
      </trkpt>
      <trkpt lat="50.50874" lon="1.61591">
        <ele>9.8</ele>
        <time>2020-06-22T07:35:12Z</time>
      </trkpt>
      <trkpt lat="50.50878" lon="1.61605">
        <ele>9.7</ele>
        <time>2020-06-22T07:35:13Z</time>
      </trkpt>
      <trkpt lat="50.50881" lon="1.61618">
        <ele>9.6</ele>
        <time>2020-06-22T07:35:14Z</time>
      </trkpt>
      <trkpt lat="50.50884" lon="1.61631">
        <ele>9.6</ele>
        <time>2020-06-22T07:35:15Z</time>
      </trkpt>
      <trkpt lat="50.50887" lon="1.61644">
        <ele>9.5</ele>
        <time>2020-06-22T07:35:16Z</time>
      </trkpt>
      <trkpt lat="50.5089" lon="1.61657">
        <ele>9.5</ele>
        <time>2020-06-22T07:35:17Z</time>
      </trkpt>
      <trkpt lat="50.50893" lon="1.6167">
        <ele>9.5</ele>
        <time>2020-06-22T07:35:18Z</time>
      </trkpt>
      <trkpt lat="50.50896" lon="1.61683">
        <ele>9.5</ele>
        <time>2020-06-22T07:35:19Z</time>
      </trkpt>
      <trkpt lat="50.50899" lon="1.61696">
        <ele>9.5</ele>
        <time>2020-06-22T07:35:20Z</time>
      </trkpt>
      <trkpt lat="50.50902" lon="1.61709">
        <ele>9.4</ele>
        <time>2020-06-22T07:35:21Z</time>
      </trkpt>
      <trkpt lat="50.50904" lon="1.61722">
        <ele>9.4</ele>
        <time>2020-06-22T07:35:22Z</time>
      </trkpt>
      <trkpt lat="50.50906" lon="1.61735">
        <ele>9.4</ele>
        <time>2020-06-22T07:35:23Z</time>
      </trkpt>
      <trkpt lat="50.50909" lon="1.61748">
        <ele>9.4</ele>
        <time>2020-06-22T07:35:24Z</time>
      </trkpt>
      <trkpt lat="50.50912" lon="1.61761">
        <ele>9.4</ele>
        <time>2020-06-22T07:35:25Z</time>
      </trkpt>
      <trkpt lat="50.50914" lon="1.61773">
        <ele>9.4</ele>
        <time>2020-06-22T07:35:26Z</time>
      </trkpt>
      <trkpt lat="50.50917" lon="1.61786">
        <ele>9.3</ele>
        <time>2020-06-22T07:35:27Z</time>
      </trkpt>
      <trkpt lat="50.5092" lon="1.61799">
        <ele>9.3</ele>
        <time>2020-06-22T07:35:28Z</time>
      </trkpt>
      <trkpt lat="50.50922" lon="1.61813">
        <ele>9.2</ele>
        <time>2020-06-22T07:35:29Z</time>
      </trkpt>
      <trkpt lat="50.50924" lon="1.61825">
        <ele>9.1</ele>
        <time>2020-06-22T07:35:30Z</time>
      </trkpt>
      <trkpt lat="50.50926" lon="1.61837">
        <ele>9.1</ele>
        <time>2020-06-22T07:35:31Z</time>
      </trkpt>
      <trkpt lat="50.50927" lon="1.6185">
        <ele>9.1</ele>
        <time>2020-06-22T07:35:32Z</time>
      </trkpt>
      <trkpt lat="50.50928" lon="1.61862">
        <ele>9</ele>
        <time>2020-06-22T07:35:33Z</time>
      </trkpt>
      <trkpt lat="50.5093" lon="1.61872">
        <ele>9</ele>
        <time>2020-06-22T07:35:34Z</time>
      </trkpt>
      <trkpt lat="50.50931" lon="1.61881">
        <ele>9</ele>
        <time>2020-06-22T07:35:35Z</time>
      </trkpt>
      <trkpt lat="50.50932" lon="1.6189">
        <ele>9</ele>
        <time>2020-06-22T07:35:36Z</time>
      </trkpt>
      <trkpt lat="50.50933" lon="1.619">
        <ele>8.9</ele>
        <time>2020-06-22T07:35:37Z</time>
      </trkpt>
      <trkpt lat="50.50934" lon="1.61909">
        <ele>8.9</ele>
        <time>2020-06-22T07:35:38Z</time>
      </trkpt>
      <trkpt lat="50.50936" lon="1.61919">
        <ele>8.8</ele>
        <time>2020-06-22T07:35:39Z</time>
      </trkpt>
      <trkpt lat="50.50937" lon="1.6193">
        <ele>8.8</ele>
        <time>2020-06-22T07:35:40Z</time>
      </trkpt>
      <trkpt lat="50.50938" lon="1.6194">
        <ele>8.8</ele>
        <time>2020-06-22T07:35:41Z</time>
      </trkpt>
      <trkpt lat="50.5094" lon="1.61949">
        <ele>8.8</ele>
        <time>2020-06-22T07:35:42Z</time>
      </trkpt>
      <trkpt lat="50.50942" lon="1.61958">
        <ele>8.7</ele>
        <time>2020-06-22T07:35:43Z</time>
      </trkpt>
      <trkpt lat="50.50943" lon="1.61967">
        <ele>8.7</ele>
        <time>2020-06-22T07:35:44Z</time>
      </trkpt>
      <trkpt lat="50.50943" lon="1.61977">
        <ele>8.7</ele>
        <time>2020-06-22T07:35:45Z</time>
      </trkpt>
      <trkpt lat="50.50944" lon="1.61987">
        <ele>8.7</ele>
        <time>2020-06-22T07:35:46Z</time>
      </trkpt>
      <trkpt lat="50.50945" lon="1.61997">
        <ele>8.7</ele>
        <time>2020-06-22T07:35:47Z</time>
      </trkpt>
      <trkpt lat="50.50946" lon="1.62006">
        <ele>8.7</ele>
        <time>2020-06-22T07:35:48Z</time>
      </trkpt>
      <trkpt lat="50.50946" lon="1.62014">
        <ele>8.7</ele>
        <time>2020-06-22T07:35:49Z</time>
      </trkpt>
      <trkpt lat="50.50947" lon="1.62022">
        <ele>8.6</ele>
        <time>2020-06-22T07:35:50Z</time>
      </trkpt>
      <trkpt lat="50.50947" lon="1.62029">
        <ele>8.6</ele>
        <time>2020-06-22T07:35:51Z</time>
      </trkpt>
      <trkpt lat="50.50947" lon="1.62036">
        <ele>8.6</ele>
        <time>2020-06-22T07:35:52Z</time>
      </trkpt>
      <trkpt lat="50.50947" lon="1.62043">
        <ele>8.5</ele>
        <time>2020-06-22T07:35:53Z</time>
      </trkpt>
      <trkpt lat="50.50947" lon="1.6205">
        <ele>8.5</ele>
        <time>2020-06-22T07:35:54Z</time>
      </trkpt>
      <trkpt lat="50.50947" lon="1.62058">
        <ele>8.5</ele>
        <time>2020-06-22T07:35:55Z</time>
      </trkpt>
      <trkpt lat="50.50948" lon="1.62066">
        <ele>8.5</ele>
        <time>2020-06-22T07:35:56Z</time>
      </trkpt>
      <trkpt lat="50.50949" lon="1.62076">
        <ele>8.5</ele>
        <time>2020-06-22T07:35:57Z</time>
      </trkpt>
      <trkpt lat="50.5095" lon="1.62085">
        <ele>8.5</ele>
        <time>2020-06-22T07:35:58Z</time>
      </trkpt>
      <trkpt lat="50.5095" lon="1.62094">
        <ele>8.5</ele>
        <time>2020-06-22T07:35:59Z</time>
      </trkpt>
      <trkpt lat="50.50951" lon="1.62102">
        <ele>8.5</ele>
        <time>2020-06-22T07:36:00Z</time>
      </trkpt>
      <trkpt lat="50.5095" lon="1.6211">
        <ele>8.5</ele>
        <time>2020-06-22T07:36:01Z</time>
      </trkpt>
      <trkpt lat="50.5095" lon="1.62118">
        <ele>8.5</ele>
        <time>2020-06-22T07:36:02Z</time>
      </trkpt>
      <trkpt lat="50.50951" lon="1.62126">
        <ele>8.5</ele>
        <time>2020-06-22T07:36:03Z</time>
      </trkpt>
      <trkpt lat="50.50949" lon="1.62133">
        <ele>8.5</ele>
        <time>2020-06-22T07:36:04Z</time>
      </trkpt>
      <trkpt lat="50.50947" lon="1.62139">
        <ele>8.5</ele>
        <time>2020-06-22T07:36:05Z</time>
      </trkpt>
      <trkpt lat="50.50944" lon="1.62143">
        <ele>8.5</ele>
        <time>2020-06-22T07:36:06Z</time>
      </trkpt>
      <trkpt lat="50.5094" lon="1.62149">
        <ele>8.4</ele>
        <time>2020-06-22T07:36:07Z</time>
      </trkpt>
      <trkpt lat="50.50939" lon="1.62157">
        <ele>8.4</ele>
        <time>2020-06-22T07:36:08Z</time>
      </trkpt>
      <trkpt lat="50.50939" lon="1.62165">
        <ele>8.5</ele>
        <time>2020-06-22T07:36:09Z</time>
      </trkpt>
      <trkpt lat="50.5094" lon="1.62172">
        <ele>8.4</ele>
        <time>2020-06-22T07:36:10Z</time>
      </trkpt>
      <trkpt lat="50.50943" lon="1.62178">
        <ele>8.4</ele>
        <time>2020-06-22T07:36:11Z</time>
      </trkpt>
      <trkpt lat="50.50946" lon="1.62185">
        <ele>8.3</ele>
        <time>2020-06-22T07:36:12Z</time>
      </trkpt>
      <trkpt lat="50.50948" lon="1.62193">
        <ele>8.3</ele>
        <time>2020-06-22T07:36:13Z</time>
      </trkpt>
      <trkpt lat="50.50951" lon="1.62201">
        <ele>8.2</ele>
        <time>2020-06-22T07:36:14Z</time>
      </trkpt>
      <trkpt lat="50.5095" lon="1.62209">
        <ele>8.2</ele>
        <time>2020-06-22T07:36:15Z</time>
      </trkpt>
      <trkpt lat="50.50951" lon="1.62216">
        <ele>8.2</ele>
        <time>2020-06-22T07:36:16Z</time>
      </trkpt>
      <trkpt lat="50.5095" lon="1.62224">
        <ele>8.2</ele>
        <time>2020-06-22T07:36:17Z</time>
      </trkpt>
      <trkpt lat="50.50948" lon="1.62231">
        <ele>8.1</ele>
        <time>2020-06-22T07:36:18Z</time>
      </trkpt>
      <trkpt lat="50.50947" lon="1.62237">
        <ele>8.1</ele>
        <time>2020-06-22T07:36:19Z</time>
      </trkpt>
      <trkpt lat="50.50947" lon="1.62245">
        <ele>8</ele>
        <time>2020-06-22T07:36:20Z</time>
      </trkpt>
      <trkpt lat="50.50946" lon="1.62252">
        <ele>7.9</ele>
        <time>2020-06-22T07:36:21Z</time>
      </trkpt>
      <trkpt lat="50.50945" lon="1.62259">
        <ele>7.9</ele>
        <time>2020-06-22T07:36:22Z</time>
      </trkpt>
      <trkpt lat="50.50945" lon="1.62266">
        <ele>7.8</ele>
        <time>2020-06-22T07:36:23Z</time>
      </trkpt>
      <trkpt lat="50.50944" lon="1.62272">
        <ele>7.8</ele>
        <time>2020-06-22T07:36:24Z</time>
      </trkpt>
      <trkpt lat="50.50944" lon="1.62279">
        <ele>7.7</ele>
        <time>2020-06-22T07:36:25Z</time>
      </trkpt>
      <trkpt lat="50.50944" lon="1.62285">
        <ele>7.7</ele>
        <time>2020-06-22T07:36:26Z</time>
      </trkpt>
      <trkpt lat="50.50943" lon="1.62292">
        <ele>7.7</ele>
        <time>2020-06-22T07:36:27Z</time>
      </trkpt>
      <trkpt lat="50.50944" lon="1.623">
        <ele>7.6</ele>
        <time>2020-06-22T07:36:28Z</time>
      </trkpt>
      <trkpt lat="50.50945" lon="1.62309">
        <ele>7.6</ele>
        <time>2020-06-22T07:36:29Z</time>
      </trkpt>
      <trkpt lat="50.50946" lon="1.62318">
        <ele>7.5</ele>
        <time>2020-06-22T07:36:30Z</time>
      </trkpt>
      <trkpt lat="50.50947" lon="1.62328">
        <ele>7.4</ele>
        <time>2020-06-22T07:36:31Z</time>
      </trkpt>
      <trkpt lat="50.50946" lon="1.62337">
        <ele>7.3</ele>
        <time>2020-06-22T07:36:32Z</time>
      </trkpt>
      <trkpt lat="50.50945" lon="1.62346">
        <ele>7.3</ele>
        <time>2020-06-22T07:36:33Z</time>
      </trkpt>
      <trkpt lat="50.50945" lon="1.62355">
        <ele>7.2</ele>
        <time>2020-06-22T07:36:34Z</time>
      </trkpt>
      <trkpt lat="50.50945" lon="1.62365">
        <ele>7.1</ele>
        <time>2020-06-22T07:36:35Z</time>
      </trkpt>
      <trkpt lat="50.50945" lon="1.62374">
        <ele>7</ele>
        <time>2020-06-22T07:36:36Z</time>
      </trkpt>
      <trkpt lat="50.50944" lon="1.62384">
        <ele>7</ele>
        <time>2020-06-22T07:36:37Z</time>
      </trkpt>
      <trkpt lat="50.50944" lon="1.62393">
        <ele>6.9</ele>
        <time>2020-06-22T07:36:38Z</time>
      </trkpt>
      <trkpt lat="50.50944" lon="1.62401">
        <ele>6.9</ele>
        <time>2020-06-22T07:36:39Z</time>
      </trkpt>
      <trkpt lat="50.50944" lon="1.6241">
        <ele>6.8</ele>
        <time>2020-06-22T07:36:40Z</time>
      </trkpt>
      <trkpt lat="50.50944" lon="1.62418">
        <ele>6.8</ele>
        <time>2020-06-22T07:36:41Z</time>
      </trkpt>
      <trkpt lat="50.50944" lon="1.62426">
        <ele>6.8</ele>
        <time>2020-06-22T07:36:42Z</time>
      </trkpt>
      <trkpt lat="50.50944" lon="1.62435">
        <ele>6.8</ele>
        <time>2020-06-22T07:36:43Z</time>
      </trkpt>
      <trkpt lat="50.50943" lon="1.62443">
        <ele>6.7</ele>
        <time>2020-06-22T07:36:44Z</time>
      </trkpt>
      <trkpt lat="50.50943" lon="1.62452">
        <ele>6.7</ele>
        <time>2020-06-22T07:36:45Z</time>
      </trkpt>
      <trkpt lat="50.50942" lon="1.62461">
        <ele>6.6</ele>
        <time>2020-06-22T07:36:46Z</time>
      </trkpt>
      <trkpt lat="50.50942" lon="1.62471">
        <ele>6.5</ele>
        <time>2020-06-22T07:36:47Z</time>
      </trkpt>
      <trkpt lat="50.50942" lon="1.6248">
        <ele>6.5</ele>
        <time>2020-06-22T07:36:48Z</time>
      </trkpt>
      <trkpt lat="50.50941" lon="1.6249">
        <ele>6.4</ele>
        <time>2020-06-22T07:36:49Z</time>
      </trkpt>
      <trkpt lat="50.50941" lon="1.62499">
        <ele>6.4</ele>
        <time>2020-06-22T07:36:50Z</time>
      </trkpt>
      <trkpt lat="50.5094" lon="1.62509">
        <ele>6.4</ele>
        <time>2020-06-22T07:36:51Z</time>
      </trkpt>
      <trkpt lat="50.50939" lon="1.62518">
        <ele>6.3</ele>
        <time>2020-06-22T07:36:52Z</time>
      </trkpt>
      <trkpt lat="50.50939" lon="1.62527">
        <ele>6.3</ele>
        <time>2020-06-22T07:36:53Z</time>
      </trkpt>
      <trkpt lat="50.50939" lon="1.62535">
        <ele>6.2</ele>
        <time>2020-06-22T07:36:54Z</time>
      </trkpt>
      <trkpt lat="50.50938" lon="1.62543">
        <ele>6.2</ele>
        <time>2020-06-22T07:36:55Z</time>
      </trkpt>
      <trkpt lat="50.50938" lon="1.62551">
        <ele>6.1</ele>
        <time>2020-06-22T07:36:56Z</time>
      </trkpt>
      <trkpt lat="50.50937" lon="1.6256">
        <ele>6.1</ele>
        <time>2020-06-22T07:36:57Z</time>
      </trkpt>
      <trkpt lat="50.50937" lon="1.62569">
        <ele>6</ele>
        <time>2020-06-22T07:36:58Z</time>
      </trkpt>
      <trkpt lat="50.50938" lon="1.62577">
        <ele>6</ele>
        <time>2020-06-22T07:36:59Z</time>
      </trkpt>
      <trkpt lat="50.50938" lon="1.62586">
        <ele>6</ele>
        <time>2020-06-22T07:37:00Z</time>
      </trkpt>
      <trkpt lat="50.50939" lon="1.62595">
        <ele>5.9</ele>
        <time>2020-06-22T07:37:01Z</time>
      </trkpt>
      <trkpt lat="50.50939" lon="1.62604">
        <ele>5.9</ele>
        <time>2020-06-22T07:37:02Z</time>
      </trkpt>
      <trkpt lat="50.50939" lon="1.62613">
        <ele>5.9</ele>
        <time>2020-06-22T07:37:03Z</time>
      </trkpt>
      <trkpt lat="50.50941" lon="1.62623">
        <ele>5.9</ele>
        <time>2020-06-22T07:37:04Z</time>
      </trkpt>
      <trkpt lat="50.50941" lon="1.62632">
        <ele>5.9</ele>
        <time>2020-06-22T07:37:05Z</time>
      </trkpt>
      <trkpt lat="50.50942" lon="1.62641">
        <ele>5.9</ele>
        <time>2020-06-22T07:37:06Z</time>
      </trkpt>
      <trkpt lat="50.50943" lon="1.6265">
        <ele>5.9</ele>
        <time>2020-06-22T07:37:07Z</time>
      </trkpt>
      <trkpt lat="50.50944" lon="1.6266">
        <ele>5.9</ele>
        <time>2020-06-22T07:37:08Z</time>
      </trkpt>
      <trkpt lat="50.50945" lon="1.62668">
        <ele>5.9</ele>
        <time>2020-06-22T07:37:09Z</time>
      </trkpt>
      <trkpt lat="50.50946" lon="1.62676">
        <ele>5.9</ele>
        <time>2020-06-22T07:37:10Z</time>
      </trkpt>
      <trkpt lat="50.50945" lon="1.62682">
        <ele>5.9</ele>
        <time>2020-06-22T07:37:11Z</time>
      </trkpt>
      <trkpt lat="50.50945" lon="1.62687">
        <ele>5.9</ele>
        <time>2020-06-22T07:37:12Z</time>
      </trkpt>
      <trkpt lat="50.50944" lon="1.62692">
        <ele>5.9</ele>
        <time>2020-06-22T07:37:13Z</time>
      </trkpt>
      <trkpt lat="50.50945" lon="1.62697">
        <ele>5.9</ele>
        <time>2020-06-22T07:37:14Z</time>
      </trkpt>
      <trkpt lat="50.50947" lon="1.62701">
        <ele>6</ele>
        <time>2020-06-22T07:37:15Z</time>
      </trkpt>
      <trkpt lat="50.5095" lon="1.62706">
        <ele>6</ele>
        <time>2020-06-22T07:37:16Z</time>
      </trkpt>
      <trkpt lat="50.50951" lon="1.62712">
        <ele>6</ele>
        <time>2020-06-22T07:37:17Z</time>
      </trkpt>
      <trkpt lat="50.50951" lon="1.62719">
        <ele>5.9</ele>
        <time>2020-06-22T07:37:18Z</time>
      </trkpt>
      <trkpt lat="50.50951" lon="1.62726">
        <ele>5.9</ele>
        <time>2020-06-22T07:37:19Z</time>
      </trkpt>
      <trkpt lat="50.50952" lon="1.62734">
        <ele>5.8</ele>
        <time>2020-06-22T07:37:20Z</time>
      </trkpt>
      <trkpt lat="50.50954" lon="1.62742">
        <ele>5.8</ele>
        <time>2020-06-22T07:37:21Z</time>
      </trkpt>
      <trkpt lat="50.50954" lon="1.6275">
        <ele>5.8</ele>
        <time>2020-06-22T07:37:22Z</time>
      </trkpt>
      <trkpt lat="50.50956" lon="1.62759">
        <ele>5.7</ele>
        <time>2020-06-22T07:37:23Z</time>
      </trkpt>
      <trkpt lat="50.50957" lon="1.62768">
        <ele>5.7</ele>
        <time>2020-06-22T07:37:24Z</time>
      </trkpt>
      <trkpt lat="50.50958" lon="1.62777">
        <ele>5.7</ele>
        <time>2020-06-22T07:37:25Z</time>
      </trkpt>
      <trkpt lat="50.50959" lon="1.62787">
        <ele>5.7</ele>
        <time>2020-06-22T07:37:26Z</time>
      </trkpt>
      <trkpt lat="50.5096" lon="1.62796">
        <ele>5.7</ele>
        <time>2020-06-22T07:37:27Z</time>
      </trkpt>
      <trkpt lat="50.50961" lon="1.62805">
        <ele>5.7</ele>
        <time>2020-06-22T07:37:28Z</time>
      </trkpt>
      <trkpt lat="50.50962" lon="1.62815">
        <ele>5.8</ele>
        <time>2020-06-22T07:37:29Z</time>
      </trkpt>
      <trkpt lat="50.50964" lon="1.62824">
        <ele>5.8</ele>
        <time>2020-06-22T07:37:30Z</time>
      </trkpt>
      <trkpt lat="50.50964" lon="1.62836">
        <ele>5.8</ele>
        <time>2020-06-22T07:37:31Z</time>
      </trkpt>
      <trkpt lat="50.50965" lon="1.62846">
        <ele>5.9</ele>
        <time>2020-06-22T07:37:32Z</time>
      </trkpt>
      <trkpt lat="50.50966" lon="1.62856">
        <ele>5.9</ele>
        <time>2020-06-22T07:37:33Z</time>
      </trkpt>
      <trkpt lat="50.50967" lon="1.62866">
        <ele>5.9</ele>
        <time>2020-06-22T07:37:34Z</time>
      </trkpt>
      <trkpt lat="50.50968" lon="1.62876">
        <ele>5.8</ele>
        <time>2020-06-22T07:37:35Z</time>
      </trkpt>
      <trkpt lat="50.50969" lon="1.62885">
        <ele>5.8</ele>
        <time>2020-06-22T07:37:36Z</time>
      </trkpt>
      <trkpt lat="50.5097" lon="1.62895">
        <ele>5.8</ele>
        <time>2020-06-22T07:37:37Z</time>
      </trkpt>
      <trkpt lat="50.5097" lon="1.62906">
        <ele>5.8</ele>
        <time>2020-06-22T07:37:38Z</time>
      </trkpt>
      <trkpt lat="50.50972" lon="1.62915">
        <ele>5.8</ele>
        <time>2020-06-22T07:37:39Z</time>
      </trkpt>
      <trkpt lat="50.50973" lon="1.62925">
        <ele>5.8</ele>
        <time>2020-06-22T07:37:40Z</time>
      </trkpt>
      <trkpt lat="50.50974" lon="1.62935">
        <ele>5.8</ele>
        <time>2020-06-22T07:37:41Z</time>
      </trkpt>
      <trkpt lat="50.50976" lon="1.62945">
        <ele>5.9</ele>
        <time>2020-06-22T07:37:42Z</time>
      </trkpt>
      <trkpt lat="50.50977" lon="1.62955">
        <ele>5.8</ele>
        <time>2020-06-22T07:37:43Z</time>
      </trkpt>
      <trkpt lat="50.50978" lon="1.62965">
        <ele>5.8</ele>
        <time>2020-06-22T07:37:44Z</time>
      </trkpt>
      <trkpt lat="50.50979" lon="1.62975">
        <ele>5.8</ele>
        <time>2020-06-22T07:37:45Z</time>
      </trkpt>
      <trkpt lat="50.5098" lon="1.62985">
        <ele>5.8</ele>
        <time>2020-06-22T07:37:46Z</time>
      </trkpt>
      <trkpt lat="50.50981" lon="1.62995">
        <ele>5.8</ele>
        <time>2020-06-22T07:37:47Z</time>
      </trkpt>
      <trkpt lat="50.50982" lon="1.63006">
        <ele>5.8</ele>
        <time>2020-06-22T07:37:48Z</time>
      </trkpt>
      <trkpt lat="50.50982" lon="1.63016">
        <ele>5.9</ele>
        <time>2020-06-22T07:37:49Z</time>
      </trkpt>
      <trkpt lat="50.50983" lon="1.63026">
        <ele>5.9</ele>
        <time>2020-06-22T07:37:50Z</time>
      </trkpt>
      <trkpt lat="50.50983" lon="1.63036">
        <ele>6</ele>
        <time>2020-06-22T07:37:51Z</time>
      </trkpt>
      <trkpt lat="50.50984" lon="1.63046">
        <ele>6</ele>
        <time>2020-06-22T07:37:52Z</time>
      </trkpt>
      <trkpt lat="50.50985" lon="1.63054">
        <ele>6.1</ele>
        <time>2020-06-22T07:37:53Z</time>
      </trkpt>
      <trkpt lat="50.50985" lon="1.63063">
        <ele>6.2</ele>
        <time>2020-06-22T07:37:54Z</time>
      </trkpt>
      <trkpt lat="50.50984" lon="1.6307">
        <ele>6.2</ele>
        <time>2020-06-22T07:37:55Z</time>
      </trkpt>
      <trkpt lat="50.50984" lon="1.63076">
        <ele>6.3</ele>
        <time>2020-06-22T07:37:56Z</time>
      </trkpt>
      <trkpt lat="50.50983" lon="1.63081">
        <ele>6.3</ele>
        <time>2020-06-22T07:37:57Z</time>
      </trkpt>
      <trkpt lat="50.50983" lon="1.63082">
        <ele>6.3</ele>
        <time>2020-06-22T07:37:58Z</time>
      </trkpt>
      <trkpt lat="50.5098" lon="1.63087">
        <ele>6.3</ele>
        <time>2020-06-22T07:37:59Z</time>
      </trkpt>
      <trkpt lat="50.50979" lon="1.63089">
        <ele>6.3</ele>
        <time>2020-06-22T07:38:00Z</time>
      </trkpt>
      <trkpt lat="50.50977" lon="1.63093">
        <ele>6.3</ele>
        <time>2020-06-22T07:38:01Z</time>
      </trkpt>
      <trkpt lat="50.50974" lon="1.63098">
        <ele>6.3</ele>
        <time>2020-06-22T07:38:02Z</time>
      </trkpt>
      <trkpt lat="50.50971" lon="1.63103">
        <ele>6.3</ele>
        <time>2020-06-22T07:38:03Z</time>
      </trkpt>
      <trkpt lat="50.50968" lon="1.63109">
        <ele>6.7</ele>
        <time>2020-06-22T07:38:04Z</time>
      </trkpt>
      <trkpt lat="50.50966" lon="1.63116">
        <ele>6.6</ele>
        <time>2020-06-22T07:38:05Z</time>
      </trkpt>
      <trkpt lat="50.50965" lon="1.63125">
        <ele>6.5</ele>
        <time>2020-06-22T07:38:06Z</time>
      </trkpt>
      <trkpt lat="50.50965" lon="1.63133">
        <ele>6.4</ele>
        <time>2020-06-22T07:38:07Z</time>
      </trkpt>
      <trkpt lat="50.50967" lon="1.6314">
        <ele>6.3</ele>
        <time>2020-06-22T07:38:08Z</time>
      </trkpt>
      <trkpt lat="50.5097" lon="1.63145">
        <ele>6.2</ele>
        <time>2020-06-22T07:38:09Z</time>
      </trkpt>
      <trkpt lat="50.50974" lon="1.63151">
        <ele>6.1</ele>
        <time>2020-06-22T07:38:10Z</time>
      </trkpt>
      <trkpt lat="50.50978" lon="1.63154">
        <ele>6.1</ele>
        <time>2020-06-22T07:38:11Z</time>
      </trkpt>
      <trkpt lat="50.50983" lon="1.63156">
        <ele>6</ele>
        <time>2020-06-22T07:38:12Z</time>
      </trkpt>
      <trkpt lat="50.50988" lon="1.63158">
        <ele>6</ele>
        <time>2020-06-22T07:38:13Z</time>
      </trkpt>
      <trkpt lat="50.50994" lon="1.63159">
        <ele>6</ele>
        <time>2020-06-22T07:38:14Z</time>
      </trkpt>
      <trkpt lat="50.50999" lon="1.63162">
        <ele>5.9</ele>
        <time>2020-06-22T07:38:15Z</time>
      </trkpt>
      <trkpt lat="50.51004" lon="1.63166">
        <ele>5.9</ele>
        <time>2020-06-22T07:38:16Z</time>
      </trkpt>
      <trkpt lat="50.51008" lon="1.63172">
        <ele>5.9</ele>
        <time>2020-06-22T07:38:17Z</time>
      </trkpt>
      <trkpt lat="50.51012" lon="1.6318">
        <ele>5.8</ele>
        <time>2020-06-22T07:38:18Z</time>
      </trkpt>
      <trkpt lat="50.51016" lon="1.63188">
        <ele>5.8</ele>
        <time>2020-06-22T07:38:19Z</time>
      </trkpt>
      <trkpt lat="50.5102" lon="1.63196">
        <ele>5.8</ele>
        <time>2020-06-22T07:38:20Z</time>
      </trkpt>
      <trkpt lat="50.51025" lon="1.63204">
        <ele>5.8</ele>
        <time>2020-06-22T07:38:21Z</time>
      </trkpt>
      <trkpt lat="50.51028" lon="1.63212">
        <ele>5.8</ele>
        <time>2020-06-22T07:38:22Z</time>
      </trkpt>
      <trkpt lat="50.51032" lon="1.6322">
        <ele>5.9</ele>
        <time>2020-06-22T07:38:23Z</time>
      </trkpt>
      <trkpt lat="50.51036" lon="1.63228">
        <ele>6</ele>
        <time>2020-06-22T07:38:24Z</time>
      </trkpt>
      <trkpt lat="50.5104" lon="1.63236">
        <ele>6.1</ele>
        <time>2020-06-22T07:38:25Z</time>
      </trkpt>
      <trkpt lat="50.51045" lon="1.63244">
        <ele>6.1</ele>
        <time>2020-06-22T07:38:26Z</time>
      </trkpt>
      <trkpt lat="50.51049" lon="1.63253">
        <ele>6.1</ele>
        <time>2020-06-22T07:38:27Z</time>
      </trkpt>
      <trkpt lat="50.51053" lon="1.63261">
        <ele>6.2</ele>
        <time>2020-06-22T07:38:28Z</time>
      </trkpt>
      <trkpt lat="50.51057" lon="1.6327">
        <ele>6.2</ele>
        <time>2020-06-22T07:38:29Z</time>
      </trkpt>
      <trkpt lat="50.51061" lon="1.63278">
        <ele>6.2</ele>
        <time>2020-06-22T07:38:30Z</time>
      </trkpt>
      <trkpt lat="50.51065" lon="1.63286">
        <ele>6.3</ele>
        <time>2020-06-22T07:38:31Z</time>
      </trkpt>
      <trkpt lat="50.5107" lon="1.63294">
        <ele>6.3</ele>
        <time>2020-06-22T07:38:32Z</time>
      </trkpt>
      <trkpt lat="50.51075" lon="1.63302">
        <ele>6.3</ele>
        <time>2020-06-22T07:38:33Z</time>
      </trkpt>
      <trkpt lat="50.5108" lon="1.6331">
        <ele>6.3</ele>
        <time>2020-06-22T07:38:34Z</time>
      </trkpt>
      <trkpt lat="50.51085" lon="1.63317">
        <ele>6.4</ele>
        <time>2020-06-22T07:38:35Z</time>
      </trkpt>
      <trkpt lat="50.5109" lon="1.63324">
        <ele>6.4</ele>
        <time>2020-06-22T07:38:36Z</time>
      </trkpt>
      <trkpt lat="50.51095" lon="1.63331">
        <ele>6.5</ele>
        <time>2020-06-22T07:38:37Z</time>
      </trkpt>
      <trkpt lat="50.511" lon="1.63338">
        <ele>6.6</ele>
        <time>2020-06-22T07:38:38Z</time>
      </trkpt>
      <trkpt lat="50.51105" lon="1.63345">
        <ele>6.6</ele>
        <time>2020-06-22T07:38:39Z</time>
      </trkpt>
      <trkpt lat="50.5111" lon="1.63352">
        <ele>6.7</ele>
        <time>2020-06-22T07:38:40Z</time>
      </trkpt>
      <trkpt lat="50.51115" lon="1.63359">
        <ele>6.8</ele>
        <time>2020-06-22T07:38:41Z</time>
      </trkpt>
      <trkpt lat="50.5112" lon="1.63366">
        <ele>6.9</ele>
        <time>2020-06-22T07:38:42Z</time>
      </trkpt>
      <trkpt lat="50.51125" lon="1.63374">
        <ele>6.9</ele>
        <time>2020-06-22T07:38:43Z</time>
      </trkpt>
      <trkpt lat="50.5113" lon="1.63381">
        <ele>7</ele>
        <time>2020-06-22T07:38:44Z</time>
      </trkpt>
      <trkpt lat="50.51134" lon="1.63388">
        <ele>7.1</ele>
        <time>2020-06-22T07:38:45Z</time>
      </trkpt>
      <trkpt lat="50.51139" lon="1.63396">
        <ele>7.2</ele>
        <time>2020-06-22T07:38:46Z</time>
      </trkpt>
      <trkpt lat="50.51144" lon="1.63403">
        <ele>7.3</ele>
        <time>2020-06-22T07:38:47Z</time>
      </trkpt>
      <trkpt lat="50.5115" lon="1.6341">
        <ele>7.4</ele>
        <time>2020-06-22T07:38:48Z</time>
      </trkpt>
      <trkpt lat="50.51154" lon="1.63418">
        <ele>7.6</ele>
        <time>2020-06-22T07:38:49Z</time>
      </trkpt>
      <trkpt lat="50.51159" lon="1.63426">
        <ele>7.7</ele>
        <time>2020-06-22T07:38:50Z</time>
      </trkpt>
      <trkpt lat="50.51164" lon="1.63433">
        <ele>7.8</ele>
        <time>2020-06-22T07:38:51Z</time>
      </trkpt>
      <trkpt lat="50.51169" lon="1.63441">
        <ele>7.9</ele>
        <time>2020-06-22T07:38:52Z</time>
      </trkpt>
      <trkpt lat="50.51174" lon="1.63449">
        <ele>8</ele>
        <time>2020-06-22T07:38:53Z</time>
      </trkpt>
      <trkpt lat="50.51178" lon="1.63456">
        <ele>8.1</ele>
        <time>2020-06-22T07:38:54Z</time>
      </trkpt>
      <trkpt lat="50.51183" lon="1.63464">
        <ele>8.2</ele>
        <time>2020-06-22T07:38:55Z</time>
      </trkpt>
      <trkpt lat="50.51188" lon="1.63471">
        <ele>8.3</ele>
        <time>2020-06-22T07:38:56Z</time>
      </trkpt>
      <trkpt lat="50.51192" lon="1.63479">
        <ele>8.5</ele>
        <time>2020-06-22T07:38:57Z</time>
      </trkpt>
      <trkpt lat="50.51197" lon="1.63486">
        <ele>8.7</ele>
        <time>2020-06-22T07:38:58Z</time>
      </trkpt>
      <trkpt lat="50.51201" lon="1.63493">
        <ele>8.9</ele>
        <time>2020-06-22T07:38:59Z</time>
      </trkpt>
      <trkpt lat="50.51205" lon="1.63499">
        <ele>9</ele>
        <time>2020-06-22T07:39:00Z</time>
      </trkpt>
      <trkpt lat="50.51209" lon="1.63506">
        <ele>9.1</ele>
        <time>2020-06-22T07:39:01Z</time>
      </trkpt>
      <trkpt lat="50.51213" lon="1.63512">
        <ele>9.3</ele>
        <time>2020-06-22T07:39:02Z</time>
      </trkpt>
      <trkpt lat="50.51217" lon="1.63519">
        <ele>9.4</ele>
        <time>2020-06-22T07:39:03Z</time>
      </trkpt>
      <trkpt lat="50.51221" lon="1.63525">
        <ele>9.5</ele>
        <time>2020-06-22T07:39:04Z</time>
      </trkpt>
      <trkpt lat="50.51225" lon="1.63532">
        <ele>9.6</ele>
        <time>2020-06-22T07:39:05Z</time>
      </trkpt>
      <trkpt lat="50.5123" lon="1.6354">
        <ele>9.6</ele>
        <time>2020-06-22T07:39:06Z</time>
      </trkpt>
      <trkpt lat="50.51234" lon="1.63546">
        <ele>9.7</ele>
        <time>2020-06-22T07:39:07Z</time>
      </trkpt>
      <trkpt lat="50.51239" lon="1.63554">
        <ele>9.7</ele>
        <time>2020-06-22T07:39:08Z</time>
      </trkpt>
      <trkpt lat="50.51243" lon="1.63561">
        <ele>9.7</ele>
        <time>2020-06-22T07:39:09Z</time>
      </trkpt>
      <trkpt lat="50.51248" lon="1.63568">
        <ele>9.7</ele>
        <time>2020-06-22T07:39:10Z</time>
      </trkpt>
      <trkpt lat="50.51253" lon="1.63575">
        <ele>9.7</ele>
        <time>2020-06-22T07:39:11Z</time>
      </trkpt>
      <trkpt lat="50.51258" lon="1.63582">
        <ele>9.7</ele>
        <time>2020-06-22T07:39:12Z</time>
      </trkpt>
      <trkpt lat="50.51262" lon="1.63589">
        <ele>9.7</ele>
        <time>2020-06-22T07:39:13Z</time>
      </trkpt>
      <trkpt lat="50.51267" lon="1.63597">
        <ele>9.6</ele>
        <time>2020-06-22T07:39:14Z</time>
      </trkpt>
      <trkpt lat="50.51272" lon="1.63604">
        <ele>9.6</ele>
        <time>2020-06-22T07:39:15Z</time>
      </trkpt>
      <trkpt lat="50.51276" lon="1.63611">
        <ele>9.5</ele>
        <time>2020-06-22T07:39:16Z</time>
      </trkpt>
      <trkpt lat="50.51281" lon="1.63618">
        <ele>9.5</ele>
        <time>2020-06-22T07:39:17Z</time>
      </trkpt>
      <trkpt lat="50.51286" lon="1.63625">
        <ele>9.4</ele>
        <time>2020-06-22T07:39:18Z</time>
      </trkpt>
      <trkpt lat="50.5129" lon="1.63632">
        <ele>9.2</ele>
        <time>2020-06-22T07:39:19Z</time>
      </trkpt>
      <trkpt lat="50.51294" lon="1.63639">
        <ele>9.2</ele>
        <time>2020-06-22T07:39:20Z</time>
      </trkpt>
      <trkpt lat="50.51298" lon="1.63646">
        <ele>9.4</ele>
        <time>2020-06-22T07:39:21Z</time>
      </trkpt>
      <trkpt lat="50.51302" lon="1.63653">
        <ele>9.3</ele>
        <time>2020-06-22T07:39:22Z</time>
      </trkpt>
      <trkpt lat="50.51306" lon="1.63659">
        <ele>9.1</ele>
        <time>2020-06-22T07:39:23Z</time>
      </trkpt>
      <trkpt lat="50.51309" lon="1.63665">
        <ele>9.1</ele>
        <time>2020-06-22T07:39:24Z</time>
      </trkpt>
      <trkpt lat="50.51312" lon="1.63672">
        <ele>9.1</ele>
        <time>2020-06-22T07:39:25Z</time>
      </trkpt>
      <trkpt lat="50.51315" lon="1.63679">
        <ele>8.8</ele>
        <time>2020-06-22T07:39:26Z</time>
      </trkpt>
      <trkpt lat="50.51318" lon="1.63686">
        <ele>8.6</ele>
        <time>2020-06-22T07:39:27Z</time>
      </trkpt>
      <trkpt lat="50.51323" lon="1.63691">
        <ele>8.4</ele>
        <time>2020-06-22T07:39:28Z</time>
      </trkpt>
      <trkpt lat="50.51327" lon="1.63695">
        <ele>8.4</ele>
        <time>2020-06-22T07:39:29Z</time>
      </trkpt>
      <trkpt lat="50.51333" lon="1.63694">
        <ele>8.3</ele>
        <time>2020-06-22T07:39:30Z</time>
      </trkpt>
      <trkpt lat="50.51338" lon="1.63693">
        <ele>8.2</ele>
        <time>2020-06-22T07:39:31Z</time>
      </trkpt>
      <trkpt lat="50.51343" lon="1.63688">
        <ele>8.2</ele>
        <time>2020-06-22T07:39:32Z</time>
      </trkpt>
      <trkpt lat="50.51348" lon="1.63683">
        <ele>8.1</ele>
        <time>2020-06-22T07:39:33Z</time>
      </trkpt>
      <trkpt lat="50.51351" lon="1.63677">
        <ele>8</ele>
        <time>2020-06-22T07:39:34Z</time>
      </trkpt>
      <trkpt lat="50.51355" lon="1.63671">
        <ele>8</ele>
        <time>2020-06-22T07:39:35Z</time>
      </trkpt>
      <trkpt lat="50.51358" lon="1.63665">
        <ele>7.9</ele>
        <time>2020-06-22T07:39:36Z</time>
      </trkpt>
      <trkpt lat="50.51362" lon="1.6366">
        <ele>7.9</ele>
        <time>2020-06-22T07:39:37Z</time>
      </trkpt>
      <trkpt lat="50.51365" lon="1.63655">
        <ele>7.8</ele>
        <time>2020-06-22T07:39:38Z</time>
      </trkpt>
      <trkpt lat="50.51368" lon="1.63651">
        <ele>7.8</ele>
        <time>2020-06-22T07:39:39Z</time>
      </trkpt>
      <trkpt lat="50.51371" lon="1.63649">
        <ele>7.7</ele>
        <time>2020-06-22T07:39:40Z</time>
      </trkpt>
      <trkpt lat="50.51373" lon="1.63648">
        <ele>7.7</ele>
        <time>2020-06-22T07:39:41Z</time>
      </trkpt>
      <trkpt lat="50.51374" lon="1.63647">
        <ele>7.7</ele>
        <time>2020-06-22T07:39:42Z</time>
      </trkpt>
      <trkpt lat="50.51375" lon="1.63646">
        <ele>7.7</ele>
        <time>2020-06-22T07:39:43Z</time>
      </trkpt>
      <trkpt lat="50.51375" lon="1.63645">
        <ele>7.7</ele>
        <time>2020-06-22T07:39:44Z</time>
      </trkpt>
      <trkpt lat="50.51376" lon="1.63644">
        <ele>7.7</ele>
        <time>2020-06-22T07:39:45Z</time>
      </trkpt>
      <trkpt lat="50.51377" lon="1.63643">
        <ele>7.7</ele>
        <time>2020-06-22T07:39:46Z</time>
      </trkpt>
      <trkpt lat="50.51377" lon="1.63642">
        <ele>7.7</ele>
        <time>2020-06-22T07:39:47Z</time>
      </trkpt>
      <trkpt lat="50.51378" lon="1.63642">
        <ele>7.7</ele>
        <time>2020-06-22T07:39:48Z</time>
      </trkpt>
      <trkpt lat="50.51378" lon="1.63641">
        <ele>7.7</ele>
        <time>2020-06-22T07:39:49Z</time>
      </trkpt>
      <trkpt lat="50.51379" lon="1.6364">
        <ele>7.7</ele>
        <time>2020-06-22T07:39:50Z</time>
      </trkpt>
      <trkpt lat="50.5138" lon="1.63639">
        <ele>7.7</ele>
        <time>2020-06-22T07:39:51Z</time>
      </trkpt>
      <trkpt lat="50.5138" lon="1.63638">
        <ele>7.7</ele>
        <time>2020-06-22T07:39:52Z</time>
      </trkpt>
      <trkpt lat="50.51381" lon="1.63637">
        <ele>7.6</ele>
        <time>2020-06-22T07:39:53Z</time>
      </trkpt>
      <trkpt lat="50.51382" lon="1.63636">
        <ele>7.6</ele>
        <time>2020-06-22T07:42:10Z</time>
      </trkpt>
      <trkpt lat="50.51382" lon="1.63636">
        <ele>7.6</ele>
        <time>2020-06-22T07:42:11Z</time>
      </trkpt>
      <trkpt lat="50.51383" lon="1.63631">
        <ele>7.6</ele>
        <time>2020-06-22T07:42:12Z</time>
      </trkpt>
      <trkpt lat="50.51386" lon="1.63626">
        <ele>7.6</ele>
        <time>2020-06-22T07:42:13Z</time>
      </trkpt>
      <trkpt lat="50.51387" lon="1.63624">
        <ele>7.6</ele>
        <time>2020-06-22T07:42:14Z</time>
      </trkpt>
      <trkpt lat="50.5139" lon="1.63621">
        <ele>7.6</ele>
        <time>2020-06-22T07:42:15Z</time>
      </trkpt>
      <trkpt lat="50.51392" lon="1.63617">
        <ele>7.6</ele>
        <time>2020-06-22T07:42:16Z</time>
      </trkpt>
      <trkpt lat="50.51396" lon="1.63613">
        <ele>7.6</ele>
        <time>2020-06-22T07:42:17Z</time>
      </trkpt>
      <trkpt lat="50.51398" lon="1.63607">
        <ele>7.5</ele>
        <time>2020-06-22T07:42:18Z</time>
      </trkpt>
      <trkpt lat="50.51401" lon="1.63602">
        <ele>7.5</ele>
        <time>2020-06-22T07:42:19Z</time>
      </trkpt>
      <trkpt lat="50.51405" lon="1.63597">
        <ele>7.4</ele>
        <time>2020-06-22T07:42:20Z</time>
      </trkpt>
      <trkpt lat="50.51408" lon="1.63592">
        <ele>7.4</ele>
        <time>2020-06-22T07:42:21Z</time>
      </trkpt>
      <trkpt lat="50.51411" lon="1.63588">
        <ele>7.3</ele>
        <time>2020-06-22T07:42:22Z</time>
      </trkpt>
      <trkpt lat="50.51415" lon="1.63585">
        <ele>7.3</ele>
        <time>2020-06-22T07:42:23Z</time>
      </trkpt>
      <trkpt lat="50.51418" lon="1.63582">
        <ele>7.2</ele>
        <time>2020-06-22T07:42:24Z</time>
      </trkpt>
      <trkpt lat="50.51422" lon="1.6358">
        <ele>7.2</ele>
        <time>2020-06-22T07:42:25Z</time>
      </trkpt>
      <trkpt lat="50.51425" lon="1.63576">
        <ele>7.1</ele>
        <time>2020-06-22T07:42:26Z</time>
      </trkpt>
      <trkpt lat="50.51429" lon="1.63572">
        <ele>7.1</ele>
        <time>2020-06-22T07:42:27Z</time>
      </trkpt>
      <trkpt lat="50.51433" lon="1.63568">
        <ele>7</ele>
        <time>2020-06-22T07:42:28Z</time>
      </trkpt>
      <trkpt lat="50.51437" lon="1.63563">
        <ele>6.9</ele>
        <time>2020-06-22T07:42:29Z</time>
      </trkpt>
      <trkpt lat="50.51442" lon="1.63559">
        <ele>6.9</ele>
        <time>2020-06-22T07:42:30Z</time>
      </trkpt>
      <trkpt lat="50.51445" lon="1.63553">
        <ele>6.9</ele>
        <time>2020-06-22T07:42:31Z</time>
      </trkpt>
      <trkpt lat="50.5145" lon="1.63547">
        <ele>6.9</ele>
        <time>2020-06-22T07:42:32Z</time>
      </trkpt>
      <trkpt lat="50.51456" lon="1.6354">
        <ele>7</ele>
        <time>2020-06-22T07:42:33Z</time>
      </trkpt>
      <trkpt lat="50.51461" lon="1.63536">
        <ele>7</ele>
        <time>2020-06-22T07:42:34Z</time>
      </trkpt>
      <trkpt lat="50.51465" lon="1.6353">
        <ele>7</ele>
        <time>2020-06-22T07:42:35Z</time>
      </trkpt>
      <trkpt lat="50.51471" lon="1.63523">
        <ele>7.1</ele>
        <time>2020-06-22T07:42:36Z</time>
      </trkpt>
      <trkpt lat="50.51475" lon="1.63518">
        <ele>7.1</ele>
        <time>2020-06-22T07:42:37Z</time>
      </trkpt>
      <trkpt lat="50.51479" lon="1.63511">
        <ele>7.2</ele>
        <time>2020-06-22T07:42:38Z</time>
      </trkpt>
      <trkpt lat="50.51483" lon="1.63506">
        <ele>7.2</ele>
        <time>2020-06-22T07:42:39Z</time>
      </trkpt>
      <trkpt lat="50.51488" lon="1.635">
        <ele>7.1</ele>
        <time>2020-06-22T07:42:40Z</time>
      </trkpt>
      <trkpt lat="50.51493" lon="1.63493">
        <ele>7.1</ele>
        <time>2020-06-22T07:42:41Z</time>
      </trkpt>
      <trkpt lat="50.515" lon="1.63485">
        <ele>7</ele>
        <time>2020-06-22T07:42:42Z</time>
      </trkpt>
      <trkpt lat="50.51505" lon="1.6348">
        <ele>7.1</ele>
        <time>2020-06-22T07:42:43Z</time>
      </trkpt>
      <trkpt lat="50.51511" lon="1.63473">
        <ele>7.1</ele>
        <time>2020-06-22T07:42:44Z</time>
      </trkpt>
      <trkpt lat="50.51517" lon="1.63466">
        <ele>7.2</ele>
        <time>2020-06-22T07:42:45Z</time>
      </trkpt>
      <trkpt lat="50.51522" lon="1.63459">
        <ele>7.2</ele>
        <time>2020-06-22T07:42:46Z</time>
      </trkpt>
      <trkpt lat="50.51528" lon="1.63452">
        <ele>7.3</ele>
        <time>2020-06-22T07:42:47Z</time>
      </trkpt>
      <trkpt lat="50.51533" lon="1.63447">
        <ele>7.4</ele>
        <time>2020-06-22T07:42:48Z</time>
      </trkpt>
      <trkpt lat="50.51539" lon="1.63441">
        <ele>7.3</ele>
        <time>2020-06-22T07:42:49Z</time>
      </trkpt>
      <trkpt lat="50.51543" lon="1.63435">
        <ele>7.2</ele>
        <time>2020-06-22T07:42:50Z</time>
      </trkpt>
      <trkpt lat="50.51548" lon="1.63428">
        <ele>7.1</ele>
        <time>2020-06-22T07:42:51Z</time>
      </trkpt>
      <trkpt lat="50.51553" lon="1.63421">
        <ele>7.1</ele>
        <time>2020-06-22T07:42:52Z</time>
      </trkpt>
      <trkpt lat="50.51559" lon="1.63414">
        <ele>7</ele>
        <time>2020-06-22T07:42:53Z</time>
      </trkpt>
      <trkpt lat="50.51565" lon="1.63408">
        <ele>6.9</ele>
        <time>2020-06-22T07:42:54Z</time>
      </trkpt>
      <trkpt lat="50.5157" lon="1.63401">
        <ele>6.8</ele>
        <time>2020-06-22T07:42:55Z</time>
      </trkpt>
      <trkpt lat="50.51575" lon="1.63394">
        <ele>6.8</ele>
        <time>2020-06-22T07:42:56Z</time>
      </trkpt>
      <trkpt lat="50.51582" lon="1.63387">
        <ele>6.8</ele>
        <time>2020-06-22T07:42:57Z</time>
      </trkpt>
      <trkpt lat="50.51586" lon="1.63383">
        <ele>6.8</ele>
        <time>2020-06-22T07:42:58Z</time>
      </trkpt>
      <trkpt lat="50.51592" lon="1.63378">
        <ele>6.9</ele>
        <time>2020-06-22T07:42:59Z</time>
      </trkpt>
      <trkpt lat="50.51597" lon="1.63373">
        <ele>6.9</ele>
        <time>2020-06-22T07:43:00Z</time>
      </trkpt>
      <trkpt lat="50.51602" lon="1.63367">
        <ele>7</ele>
        <time>2020-06-22T07:43:01Z</time>
      </trkpt>
      <trkpt lat="50.51607" lon="1.63364">
        <ele>7</ele>
        <time>2020-06-22T07:43:02Z</time>
      </trkpt>
      <trkpt lat="50.51613" lon="1.63359">
        <ele>7.1</ele>
        <time>2020-06-22T07:43:03Z</time>
      </trkpt>
      <trkpt lat="50.51617" lon="1.63352">
        <ele>7.1</ele>
        <time>2020-06-22T07:43:04Z</time>
      </trkpt>
      <trkpt lat="50.5162" lon="1.63347">
        <ele>7.1</ele>
        <time>2020-06-22T07:43:05Z</time>
      </trkpt>
      <trkpt lat="50.51623" lon="1.63343">
        <ele>7.1</ele>
        <time>2020-06-22T07:43:06Z</time>
      </trkpt>
      <trkpt lat="50.51627" lon="1.63338">
        <ele>7</ele>
        <time>2020-06-22T07:43:07Z</time>
      </trkpt>
      <trkpt lat="50.51631" lon="1.63332">
        <ele>7</ele>
        <time>2020-06-22T07:43:08Z</time>
      </trkpt>
      <trkpt lat="50.51636" lon="1.63325">
        <ele>6.9</ele>
        <time>2020-06-22T07:43:09Z</time>
      </trkpt>
      <trkpt lat="50.5164" lon="1.63318">
        <ele>6.8</ele>
        <time>2020-06-22T07:43:10Z</time>
      </trkpt>
      <trkpt lat="50.51641" lon="1.63313">
        <ele>6.8</ele>
        <time>2020-06-22T07:43:11Z</time>
      </trkpt>
      <trkpt lat="50.51643" lon="1.63308">
        <ele>6.7</ele>
        <time>2020-06-22T07:43:12Z</time>
      </trkpt>
      <trkpt lat="50.51648" lon="1.63302">
        <ele>6.6</ele>
        <time>2020-06-22T07:43:13Z</time>
      </trkpt>
      <trkpt lat="50.51653" lon="1.63293">
        <ele>6.5</ele>
        <time>2020-06-22T07:43:14Z</time>
      </trkpt>
      <trkpt lat="50.51657" lon="1.63287">
        <ele>6.5</ele>
        <time>2020-06-22T07:43:15Z</time>
      </trkpt>
      <trkpt lat="50.51661" lon="1.63281">
        <ele>6.5</ele>
        <time>2020-06-22T07:43:16Z</time>
      </trkpt>
      <trkpt lat="50.51665" lon="1.63276">
        <ele>6.6</ele>
        <time>2020-06-22T07:43:17Z</time>
      </trkpt>
      <trkpt lat="50.51667" lon="1.63273">
        <ele>6.6</ele>
        <time>2020-06-22T07:43:18Z</time>
      </trkpt>
      <trkpt lat="50.5167" lon="1.63269">
        <ele>6.6</ele>
        <time>2020-06-22T07:43:19Z</time>
      </trkpt>
      <trkpt lat="50.51673" lon="1.63261">
        <ele>6.8</ele>
        <time>2020-06-22T07:43:20Z</time>
      </trkpt>
      <trkpt lat="50.51676" lon="1.63254">
        <ele>6.8</ele>
        <time>2020-06-22T07:43:21Z</time>
      </trkpt>
      <trkpt lat="50.51678" lon="1.63246">
        <ele>6.8</ele>
        <time>2020-06-22T07:43:22Z</time>
      </trkpt>
      <trkpt lat="50.51682" lon="1.63238">
        <ele>6.6</ele>
        <time>2020-06-22T07:43:23Z</time>
      </trkpt>
      <trkpt lat="50.51686" lon="1.63232">
        <ele>6.6</ele>
        <time>2020-06-22T07:43:24Z</time>
      </trkpt>
      <trkpt lat="50.5169" lon="1.63224">
        <ele>6.5</ele>
        <time>2020-06-22T07:43:25Z</time>
      </trkpt>
      <trkpt lat="50.51695" lon="1.63215">
        <ele>6.4</ele>
        <time>2020-06-22T07:43:26Z</time>
      </trkpt>
      <trkpt lat="50.51701" lon="1.63208">
        <ele>6.4</ele>
        <time>2020-06-22T07:43:27Z</time>
      </trkpt>
      <trkpt lat="50.51707" lon="1.632">
        <ele>6.4</ele>
        <time>2020-06-22T07:43:28Z</time>
      </trkpt>
      <trkpt lat="50.51711" lon="1.63195">
        <ele>6.4</ele>
        <time>2020-06-22T07:43:29Z</time>
      </trkpt>
      <trkpt lat="50.51717" lon="1.63187">
        <ele>6.4</ele>
        <time>2020-06-22T07:43:30Z</time>
      </trkpt>
      <trkpt lat="50.51722" lon="1.63178">
        <ele>6.4</ele>
        <time>2020-06-22T07:43:31Z</time>
      </trkpt>
      <trkpt lat="50.51728" lon="1.6317">
        <ele>6.4</ele>
        <time>2020-06-22T07:43:32Z</time>
      </trkpt>
      <trkpt lat="50.51734" lon="1.63162">
        <ele>6.4</ele>
        <time>2020-06-22T07:43:33Z</time>
      </trkpt>
      <trkpt lat="50.51741" lon="1.63153">
        <ele>6.4</ele>
        <time>2020-06-22T07:43:34Z</time>
      </trkpt>
      <trkpt lat="50.51748" lon="1.63146">
        <ele>6.4</ele>
        <time>2020-06-22T07:43:35Z</time>
      </trkpt>
      <trkpt lat="50.51754" lon="1.63138">
        <ele>6.4</ele>
        <time>2020-06-22T07:43:36Z</time>
      </trkpt>
      <trkpt lat="50.51759" lon="1.63132">
        <ele>6.4</ele>
        <time>2020-06-22T07:43:37Z</time>
      </trkpt>
      <trkpt lat="50.51761" lon="1.63129">
        <ele>6.4</ele>
        <time>2020-06-22T07:43:38Z</time>
      </trkpt>
      <trkpt lat="50.51762" lon="1.63129">
        <ele>6.4</ele>
        <time>2020-06-22T07:43:39Z</time>
      </trkpt>
      <trkpt lat="50.51764" lon="1.63127">
        <ele>6.4</ele>
        <time>2020-06-22T07:43:40Z</time>
      </trkpt>
      <trkpt lat="50.51763" lon="1.63127">
        <ele>6.4</ele>
        <time>2020-06-22T07:43:41Z</time>
      </trkpt>
      <trkpt lat="50.51763" lon="1.63129">
        <ele>6.4</ele>
        <time>2020-06-22T07:43:42Z</time>
      </trkpt>
      <trkpt lat="50.51763" lon="1.63128">
        <ele>6.4</ele>
        <time>2020-06-22T07:43:43Z</time>
      </trkpt>
      <trkpt lat="50.51763" lon="1.63127">
        <ele>6.4</ele>
        <time>2020-06-22T07:43:44Z</time>
      </trkpt>
      <trkpt lat="50.51764" lon="1.63125">
        <ele>6.4</ele>
        <time>2020-06-22T07:43:45Z</time>
      </trkpt>
      <trkpt lat="50.51768" lon="1.6312">
        <ele>6.4</ele>
        <time>2020-06-22T07:43:46Z</time>
      </trkpt>
      <trkpt lat="50.5177" lon="1.63117">
        <ele>6.4</ele>
        <time>2020-06-22T07:43:47Z</time>
      </trkpt>
      <trkpt lat="50.51773" lon="1.63113">
        <ele>6.4</ele>
        <time>2020-06-22T07:43:48Z</time>
      </trkpt>
      <trkpt lat="50.51776" lon="1.63108">
        <ele>6.4</ele>
        <time>2020-06-22T07:43:49Z</time>
      </trkpt>
      <trkpt lat="50.51779" lon="1.63104">
        <ele>6.4</ele>
        <time>2020-06-22T07:43:50Z</time>
      </trkpt>
      <trkpt lat="50.51782" lon="1.63099">
        <ele>6.4</ele>
        <time>2020-06-22T07:43:51Z</time>
      </trkpt>
      <trkpt lat="50.51785" lon="1.63094">
        <ele>6.4</ele>
        <time>2020-06-22T07:43:52Z</time>
      </trkpt>
      <trkpt lat="50.5179" lon="1.6309">
        <ele>6.5</ele>
        <time>2020-06-22T07:43:53Z</time>
      </trkpt>
      <trkpt lat="50.51796" lon="1.63084">
        <ele>6.5</ele>
        <time>2020-06-22T07:43:54Z</time>
      </trkpt>
      <trkpt lat="50.51801" lon="1.63078">
        <ele>6.4</ele>
        <time>2020-06-22T07:43:55Z</time>
      </trkpt>
      <trkpt lat="50.51805" lon="1.63072">
        <ele>6.4</ele>
        <time>2020-06-22T07:43:56Z</time>
      </trkpt>
      <trkpt lat="50.5181" lon="1.63065">
        <ele>6.4</ele>
        <time>2020-06-22T07:43:57Z</time>
      </trkpt>
      <trkpt lat="50.51815" lon="1.63059">
        <ele>6.3</ele>
        <time>2020-06-22T07:43:58Z</time>
      </trkpt>
      <trkpt lat="50.5182" lon="1.63053">
        <ele>6.3</ele>
        <time>2020-06-22T07:43:59Z</time>
      </trkpt>
      <trkpt lat="50.51825" lon="1.63046">
        <ele>6.3</ele>
        <time>2020-06-22T07:44:00Z</time>
      </trkpt>
      <trkpt lat="50.51829" lon="1.63041">
        <ele>6.3</ele>
        <time>2020-06-22T07:44:01Z</time>
      </trkpt>
      <trkpt lat="50.51834" lon="1.63035">
        <ele>6.2</ele>
        <time>2020-06-22T07:44:02Z</time>
      </trkpt>
      <trkpt lat="50.5184" lon="1.63029">
        <ele>6.2</ele>
        <time>2020-06-22T07:44:03Z</time>
      </trkpt>
      <trkpt lat="50.51845" lon="1.63023">
        <ele>6.2</ele>
        <time>2020-06-22T07:44:04Z</time>
      </trkpt>
      <trkpt lat="50.51851" lon="1.63016">
        <ele>6.2</ele>
        <time>2020-06-22T07:44:05Z</time>
      </trkpt>
      <trkpt lat="50.51856" lon="1.6301">
        <ele>6.3</ele>
        <time>2020-06-22T07:44:06Z</time>
      </trkpt>
      <trkpt lat="50.51861" lon="1.63004">
        <ele>6.3</ele>
        <time>2020-06-22T07:44:07Z</time>
      </trkpt>
      <trkpt lat="50.51866" lon="1.63">
        <ele>6.3</ele>
        <time>2020-06-22T07:44:08Z</time>
      </trkpt>
      <trkpt lat="50.5187" lon="1.62995">
        <ele>6.3</ele>
        <time>2020-06-22T07:44:09Z</time>
      </trkpt>
      <trkpt lat="50.51874" lon="1.62992">
        <ele>6.3</ele>
        <time>2020-06-22T07:44:10Z</time>
      </trkpt>
      <trkpt lat="50.51879" lon="1.62987">
        <ele>6.3</ele>
        <time>2020-06-22T07:44:11Z</time>
      </trkpt>
      <trkpt lat="50.51883" lon="1.62983">
        <ele>6.3</ele>
        <time>2020-06-22T07:44:12Z</time>
      </trkpt>
      <trkpt lat="50.51888" lon="1.62978">
        <ele>6.3</ele>
        <time>2020-06-22T07:44:13Z</time>
      </trkpt>
      <trkpt lat="50.51893" lon="1.62971">
        <ele>6.2</ele>
        <time>2020-06-22T07:44:14Z</time>
      </trkpt>
      <trkpt lat="50.51896" lon="1.62966">
        <ele>6.2</ele>
        <time>2020-06-22T07:44:15Z</time>
      </trkpt>
      <trkpt lat="50.519" lon="1.62959">
        <ele>6.2</ele>
        <time>2020-06-22T07:44:16Z</time>
      </trkpt>
      <trkpt lat="50.51904" lon="1.62953">
        <ele>6.2</ele>
        <time>2020-06-22T07:44:17Z</time>
      </trkpt>
      <trkpt lat="50.51908" lon="1.62948">
        <ele>6.2</ele>
        <time>2020-06-22T07:44:18Z</time>
      </trkpt>
      <trkpt lat="50.51911" lon="1.62942">
        <ele>6.2</ele>
        <time>2020-06-22T07:44:19Z</time>
      </trkpt>
      <trkpt lat="50.51914" lon="1.62937">
        <ele>6.1</ele>
        <time>2020-06-22T07:44:20Z</time>
      </trkpt>
      <trkpt lat="50.51919" lon="1.62932">
        <ele>6.1</ele>
        <time>2020-06-22T07:44:21Z</time>
      </trkpt>
      <trkpt lat="50.51924" lon="1.62928">
        <ele>6.1</ele>
        <time>2020-06-22T07:44:22Z</time>
      </trkpt>
      <trkpt lat="50.51929" lon="1.62922">
        <ele>6.1</ele>
        <time>2020-06-22T07:44:23Z</time>
      </trkpt>
      <trkpt lat="50.51933" lon="1.62917">
        <ele>6.1</ele>
        <time>2020-06-22T07:44:24Z</time>
      </trkpt>
      <trkpt lat="50.51937" lon="1.62912">
        <ele>6.1</ele>
        <time>2020-06-22T07:44:25Z</time>
      </trkpt>
      <trkpt lat="50.51941" lon="1.62907">
        <ele>6.1</ele>
        <time>2020-06-22T07:44:26Z</time>
      </trkpt>
      <trkpt lat="50.51945" lon="1.62902">
        <ele>6.1</ele>
        <time>2020-06-22T07:44:27Z</time>
      </trkpt>
      <trkpt lat="50.5195" lon="1.62896">
        <ele>6.1</ele>
        <time>2020-06-22T07:44:28Z</time>
      </trkpt>
      <trkpt lat="50.51953" lon="1.62892">
        <ele>6.1</ele>
        <time>2020-06-22T07:44:29Z</time>
      </trkpt>
      <trkpt lat="50.51957" lon="1.62886">
        <ele>6</ele>
        <time>2020-06-22T07:44:30Z</time>
      </trkpt>
      <trkpt lat="50.5196" lon="1.62881">
        <ele>6</ele>
        <time>2020-06-22T07:44:31Z</time>
      </trkpt>
      <trkpt lat="50.51964" lon="1.62875">
        <ele>6</ele>
        <time>2020-06-22T07:44:32Z</time>
      </trkpt>
      <trkpt lat="50.51968" lon="1.62869">
        <ele>5.9</ele>
        <time>2020-06-22T07:44:33Z</time>
      </trkpt>
      <trkpt lat="50.51973" lon="1.62865">
        <ele>5.9</ele>
        <time>2020-06-22T07:44:34Z</time>
      </trkpt>
      <trkpt lat="50.51978" lon="1.62863">
        <ele>5.9</ele>
        <time>2020-06-22T07:44:35Z</time>
      </trkpt>
      <trkpt lat="50.51983" lon="1.62861">
        <ele>5.8</ele>
        <time>2020-06-22T07:44:36Z</time>
      </trkpt>
      <trkpt lat="50.51988" lon="1.62858">
        <ele>5.8</ele>
        <time>2020-06-22T07:44:37Z</time>
      </trkpt>
      <trkpt lat="50.51992" lon="1.62853">
        <ele>5.8</ele>
        <time>2020-06-22T07:44:38Z</time>
      </trkpt>
      <trkpt lat="50.51996" lon="1.62847">
        <ele>5.8</ele>
        <time>2020-06-22T07:44:39Z</time>
      </trkpt>
      <trkpt lat="50.52" lon="1.62842">
        <ele>5.7</ele>
        <time>2020-06-22T07:44:40Z</time>
      </trkpt>
      <trkpt lat="50.52005" lon="1.62838">
        <ele>5.7</ele>
        <time>2020-06-22T07:44:41Z</time>
      </trkpt>
      <trkpt lat="50.52008" lon="1.62833">
        <ele>5.7</ele>
        <time>2020-06-22T07:44:42Z</time>
      </trkpt>
      <trkpt lat="50.52014" lon="1.62833">
        <ele>5.7</ele>
        <time>2020-06-22T07:44:43Z</time>
      </trkpt>
      <trkpt lat="50.52021" lon="1.62833">
        <ele>5.7</ele>
        <time>2020-06-22T07:44:44Z</time>
      </trkpt>
      <trkpt lat="50.52028" lon="1.62832">
        <ele>5.8</ele>
        <time>2020-06-22T07:44:45Z</time>
      </trkpt>
      <trkpt lat="50.52035" lon="1.6283">
        <ele>5.8</ele>
        <time>2020-06-22T07:44:46Z</time>
      </trkpt>
      <trkpt lat="50.52041" lon="1.62828">
        <ele>5.8</ele>
        <time>2020-06-22T07:44:47Z</time>
      </trkpt>
      <trkpt lat="50.52047" lon="1.62827">
        <ele>5.9</ele>
        <time>2020-06-22T07:44:48Z</time>
      </trkpt>
      <trkpt lat="50.52053" lon="1.62825">
        <ele>5.9</ele>
        <time>2020-06-22T07:44:49Z</time>
      </trkpt>
      <trkpt lat="50.5206" lon="1.62825">
        <ele>6</ele>
        <time>2020-06-22T07:44:50Z</time>
      </trkpt>
      <trkpt lat="50.52067" lon="1.62823">
        <ele>6.1</ele>
        <time>2020-06-22T07:44:51Z</time>
      </trkpt>
      <trkpt lat="50.52074" lon="1.62822">
        <ele>6.3</ele>
        <time>2020-06-22T07:44:52Z</time>
      </trkpt>
      <trkpt lat="50.52082" lon="1.62822">
        <ele>6.3</ele>
        <time>2020-06-22T07:44:53Z</time>
      </trkpt>
      <trkpt lat="50.52088" lon="1.6282">
        <ele>6.3</ele>
        <time>2020-06-22T07:44:54Z</time>
      </trkpt>
      <trkpt lat="50.52095" lon="1.6282">
        <ele>6.2</ele>
        <time>2020-06-22T07:44:55Z</time>
      </trkpt>
      <trkpt lat="50.52101" lon="1.62821">
        <ele>6.1</ele>
        <time>2020-06-22T07:44:56Z</time>
      </trkpt>
      <trkpt lat="50.52109" lon="1.62823">
        <ele>6</ele>
        <time>2020-06-22T07:44:57Z</time>
      </trkpt>
      <trkpt lat="50.52115" lon="1.62825">
        <ele>5.9</ele>
        <time>2020-06-22T07:44:58Z</time>
      </trkpt>
      <trkpt lat="50.52122" lon="1.62827">
        <ele>5.8</ele>
        <time>2020-06-22T07:44:59Z</time>
      </trkpt>
      <trkpt lat="50.52129" lon="1.6283">
        <ele>5.6</ele>
        <time>2020-06-22T07:45:00Z</time>
      </trkpt>
      <trkpt lat="50.52135" lon="1.62833">
        <ele>5.6</ele>
        <time>2020-06-22T07:45:01Z</time>
      </trkpt>
      <trkpt lat="50.5214" lon="1.62834">
        <ele>5.6</ele>
        <time>2020-06-22T07:45:02Z</time>
      </trkpt>
      <trkpt lat="50.52147" lon="1.62837">
        <ele>5.7</ele>
        <time>2020-06-22T07:45:03Z</time>
      </trkpt>
      <trkpt lat="50.52153" lon="1.6284">
        <ele>5.7</ele>
        <time>2020-06-22T07:45:04Z</time>
      </trkpt>
      <trkpt lat="50.52157" lon="1.62843">
        <ele>5.8</ele>
        <time>2020-06-22T07:45:05Z</time>
      </trkpt>
      <trkpt lat="50.52162" lon="1.62846">
        <ele>5.8</ele>
        <time>2020-06-22T07:45:06Z</time>
      </trkpt>
      <trkpt lat="50.52168" lon="1.62849">
        <ele>5.9</ele>
        <time>2020-06-22T07:45:07Z</time>
      </trkpt>
      <trkpt lat="50.52173" lon="1.62852">
        <ele>5.9</ele>
        <time>2020-06-22T07:45:08Z</time>
      </trkpt>
      <trkpt lat="50.52179" lon="1.62856">
        <ele>6</ele>
        <time>2020-06-22T07:45:09Z</time>
      </trkpt>
      <trkpt lat="50.52184" lon="1.6286">
        <ele>6.1</ele>
        <time>2020-06-22T07:45:10Z</time>
      </trkpt>
      <trkpt lat="50.5219" lon="1.62865">
        <ele>6.2</ele>
        <time>2020-06-22T07:45:11Z</time>
      </trkpt>
      <trkpt lat="50.52196" lon="1.62871">
        <ele>6.3</ele>
        <time>2020-06-22T07:45:12Z</time>
      </trkpt>
      <trkpt lat="50.52201" lon="1.62876">
        <ele>6.4</ele>
        <time>2020-06-22T07:45:13Z</time>
      </trkpt>
      <trkpt lat="50.52206" lon="1.62881">
        <ele>6.5</ele>
        <time>2020-06-22T07:45:14Z</time>
      </trkpt>
      <trkpt lat="50.5221" lon="1.62887">
        <ele>6.5</ele>
        <time>2020-06-22T07:45:15Z</time>
      </trkpt>
      <trkpt lat="50.52215" lon="1.62893">
        <ele>6.8</ele>
        <time>2020-06-22T07:45:16Z</time>
      </trkpt>
      <trkpt lat="50.52219" lon="1.62899">
        <ele>6.6</ele>
        <time>2020-06-22T07:45:17Z</time>
      </trkpt>
      <trkpt lat="50.52222" lon="1.62904">
        <ele>6.5</ele>
        <time>2020-06-22T07:45:18Z</time>
      </trkpt>
      <trkpt lat="50.52226" lon="1.62906">
        <ele>6.3</ele>
        <time>2020-06-22T07:45:19Z</time>
      </trkpt>
      <trkpt lat="50.52231" lon="1.62907">
        <ele>6.2</ele>
        <time>2020-06-22T07:45:20Z</time>
      </trkpt>
      <trkpt lat="50.52237" lon="1.62905">
        <ele>6.9</ele>
        <time>2020-06-22T07:45:21Z</time>
      </trkpt>
      <trkpt lat="50.52242" lon="1.62901">
        <ele>6.9</ele>
        <time>2020-06-22T07:45:22Z</time>
      </trkpt>
      <trkpt lat="50.52247" lon="1.62897">
        <ele>7</ele>
        <time>2020-06-22T07:45:23Z</time>
      </trkpt>
      <trkpt lat="50.52251" lon="1.62895">
        <ele>7.1</ele>
        <time>2020-06-22T07:45:24Z</time>
      </trkpt>
      <trkpt lat="50.52254" lon="1.62893">
        <ele>7.2</ele>
        <time>2020-06-22T07:45:25Z</time>
      </trkpt>
      <trkpt lat="50.52258" lon="1.62894">
        <ele>7.2</ele>
        <time>2020-06-22T07:45:26Z</time>
      </trkpt>
      <trkpt lat="50.52261" lon="1.62895">
        <ele>7.3</ele>
        <time>2020-06-22T07:45:27Z</time>
      </trkpt>
      <trkpt lat="50.52265" lon="1.62895">
        <ele>7.4</ele>
        <time>2020-06-22T07:45:28Z</time>
      </trkpt>
      <trkpt lat="50.52268" lon="1.62895">
        <ele>7.5</ele>
        <time>2020-06-22T07:45:29Z</time>
      </trkpt>
      <trkpt lat="50.52271" lon="1.62895">
        <ele>7.6</ele>
        <time>2020-06-22T07:45:30Z</time>
      </trkpt>
      <trkpt lat="50.52276" lon="1.62896">
        <ele>7.7</ele>
        <time>2020-06-22T07:45:31Z</time>
      </trkpt>
      <trkpt lat="50.52279" lon="1.62896">
        <ele>7.8</ele>
        <time>2020-06-22T07:45:32Z</time>
      </trkpt>
      <trkpt lat="50.52284" lon="1.62897">
        <ele>7.9</ele>
        <time>2020-06-22T07:45:33Z</time>
      </trkpt>
      <trkpt lat="50.52288" lon="1.62899">
        <ele>7.9</ele>
        <time>2020-06-22T07:45:34Z</time>
      </trkpt>
      <trkpt lat="50.52293" lon="1.62901">
        <ele>8</ele>
        <time>2020-06-22T07:45:35Z</time>
      </trkpt>
      <trkpt lat="50.52298" lon="1.62905">
        <ele>8.1</ele>
        <time>2020-06-22T07:45:36Z</time>
      </trkpt>
      <trkpt lat="50.52303" lon="1.62909">
        <ele>8.2</ele>
        <time>2020-06-22T07:45:37Z</time>
      </trkpt>
      <trkpt lat="50.52307" lon="1.62911">
        <ele>8.3</ele>
        <time>2020-06-22T07:45:38Z</time>
      </trkpt>
      <trkpt lat="50.52311" lon="1.62912">
        <ele>8.3</ele>
        <time>2020-06-22T07:45:39Z</time>
      </trkpt>
      <trkpt lat="50.52316" lon="1.62913">
        <ele>8.4</ele>
        <time>2020-06-22T07:45:40Z</time>
      </trkpt>
      <trkpt lat="50.52321" lon="1.62914">
        <ele>8.5</ele>
        <time>2020-06-22T07:45:41Z</time>
      </trkpt>
      <trkpt lat="50.52325" lon="1.62913">
        <ele>8.6</ele>
        <time>2020-06-22T07:45:42Z</time>
      </trkpt>
      <trkpt lat="50.52329" lon="1.62913">
        <ele>8.7</ele>
        <time>2020-06-22T07:45:43Z</time>
      </trkpt>
      <trkpt lat="50.52334" lon="1.62914">
        <ele>8.8</ele>
        <time>2020-06-22T07:45:44Z</time>
      </trkpt>
      <trkpt lat="50.52338" lon="1.62915">
        <ele>8.9</ele>
        <time>2020-06-22T07:45:45Z</time>
      </trkpt>
      <trkpt lat="50.52343" lon="1.62916">
        <ele>9.1</ele>
        <time>2020-06-22T07:45:46Z</time>
      </trkpt>
      <trkpt lat="50.52348" lon="1.62918">
        <ele>9.2</ele>
        <time>2020-06-22T07:45:47Z</time>
      </trkpt>
      <trkpt lat="50.52354" lon="1.62922">
        <ele>9.4</ele>
        <time>2020-06-22T07:45:48Z</time>
      </trkpt>
      <trkpt lat="50.52359" lon="1.62923">
        <ele>9.6</ele>
        <time>2020-06-22T07:45:49Z</time>
      </trkpt>
      <trkpt lat="50.52363" lon="1.62925">
        <ele>9.7</ele>
        <time>2020-06-22T07:45:50Z</time>
      </trkpt>
      <trkpt lat="50.52368" lon="1.62926">
        <ele>9.8</ele>
        <time>2020-06-22T07:45:51Z</time>
      </trkpt>
      <trkpt lat="50.52372" lon="1.62926">
        <ele>10</ele>
        <time>2020-06-22T07:45:52Z</time>
      </trkpt>
      <trkpt lat="50.52377" lon="1.62927">
        <ele>10.1</ele>
        <time>2020-06-22T07:45:53Z</time>
      </trkpt>
      <trkpt lat="50.52382" lon="1.62928">
        <ele>10.3</ele>
        <time>2020-06-22T07:45:54Z</time>
      </trkpt>
      <trkpt lat="50.52387" lon="1.62929">
        <ele>10.4</ele>
        <time>2020-06-22T07:45:55Z</time>
      </trkpt>
      <trkpt lat="50.5239" lon="1.62929">
        <ele>10.5</ele>
        <time>2020-06-22T07:45:56Z</time>
      </trkpt>
      <trkpt lat="50.52394" lon="1.62929">
        <ele>10.6</ele>
        <time>2020-06-22T07:45:57Z</time>
      </trkpt>
      <trkpt lat="50.52398" lon="1.62929">
        <ele>10.7</ele>
        <time>2020-06-22T07:45:58Z</time>
      </trkpt>
      <trkpt lat="50.52403" lon="1.62931">
        <ele>10.8</ele>
        <time>2020-06-22T07:45:59Z</time>
      </trkpt>
      <trkpt lat="50.52406" lon="1.62932">
        <ele>10.9</ele>
        <time>2020-06-22T07:46:00Z</time>
      </trkpt>
      <trkpt lat="50.52409" lon="1.62933">
        <ele>10.9</ele>
        <time>2020-06-22T07:46:01Z</time>
      </trkpt>
      <trkpt lat="50.52413" lon="1.62933">
        <ele>11</ele>
        <time>2020-06-22T07:46:02Z</time>
      </trkpt>
      <trkpt lat="50.52417" lon="1.62933">
        <ele>11</ele>
        <time>2020-06-22T07:46:03Z</time>
      </trkpt>
      <trkpt lat="50.52421" lon="1.62932">
        <ele>11.2</ele>
        <time>2020-06-22T07:46:04Z</time>
      </trkpt>
      <trkpt lat="50.52424" lon="1.6293">
        <ele>11.3</ele>
        <time>2020-06-22T07:46:05Z</time>
      </trkpt>
      <trkpt lat="50.52428" lon="1.62929">
        <ele>11.5</ele>
        <time>2020-06-22T07:46:06Z</time>
      </trkpt>
      <trkpt lat="50.52429" lon="1.62928">
        <ele>11.5</ele>
        <time>2020-06-22T07:46:07Z</time>
      </trkpt>
      <trkpt lat="50.52432" lon="1.62928">
        <ele>11.7</ele>
        <time>2020-06-22T07:46:08Z</time>
      </trkpt>
      <trkpt lat="50.52436" lon="1.62927">
        <ele>11.9</ele>
        <time>2020-06-22T07:46:09Z</time>
      </trkpt>
      <trkpt lat="50.5244" lon="1.62926">
        <ele>12</ele>
        <time>2020-06-22T07:46:10Z</time>
      </trkpt>
      <trkpt lat="50.52445" lon="1.62926">
        <ele>12.2</ele>
        <time>2020-06-22T07:46:11Z</time>
      </trkpt>
      <trkpt lat="50.52449" lon="1.62926">
        <ele>12.4</ele>
        <time>2020-06-22T07:46:12Z</time>
      </trkpt>
      <trkpt lat="50.52454" lon="1.62926">
        <ele>12.6</ele>
        <time>2020-06-22T07:46:13Z</time>
      </trkpt>
      <trkpt lat="50.52456" lon="1.62926">
        <ele>12.7</ele>
        <time>2020-06-22T07:46:14Z</time>
      </trkpt>
      <trkpt lat="50.52461" lon="1.62926">
        <ele>12.9</ele>
        <time>2020-06-22T07:46:15Z</time>
      </trkpt>
      <trkpt lat="50.52464" lon="1.62925">
        <ele>13.1</ele>
        <time>2020-06-22T07:46:16Z</time>
      </trkpt>
      <trkpt lat="50.52468" lon="1.62925">
        <ele>13.3</ele>
        <time>2020-06-22T07:46:17Z</time>
      </trkpt>
      <trkpt lat="50.52473" lon="1.62923">
        <ele>13.5</ele>
        <time>2020-06-22T07:46:18Z</time>
      </trkpt>
      <trkpt lat="50.52477" lon="1.62921">
        <ele>13.6</ele>
        <time>2020-06-22T07:46:19Z</time>
      </trkpt>
      <trkpt lat="50.52481" lon="1.6292">
        <ele>13.8</ele>
        <time>2020-06-22T07:46:20Z</time>
      </trkpt>
      <trkpt lat="50.52485" lon="1.62919">
        <ele>14</ele>
        <time>2020-06-22T07:46:21Z</time>
      </trkpt>
      <trkpt lat="50.5249" lon="1.62917">
        <ele>14.2</ele>
        <time>2020-06-22T07:46:22Z</time>
      </trkpt>
      <trkpt lat="50.52494" lon="1.62916">
        <ele>14.4</ele>
        <time>2020-06-22T07:46:23Z</time>
      </trkpt>
      <trkpt lat="50.52498" lon="1.62914">
        <ele>14.6</ele>
        <time>2020-06-22T07:46:24Z</time>
      </trkpt>
      <trkpt lat="50.52502" lon="1.62913">
        <ele>14.9</ele>
        <time>2020-06-22T07:46:25Z</time>
      </trkpt>
      <trkpt lat="50.52505" lon="1.62912">
        <ele>15</ele>
        <time>2020-06-22T07:46:26Z</time>
      </trkpt>
      <trkpt lat="50.52509" lon="1.6291">
        <ele>15.5</ele>
        <time>2020-06-22T07:46:27Z</time>
      </trkpt>
      <trkpt lat="50.52512" lon="1.62909">
        <ele>15.6</ele>
        <time>2020-06-22T07:46:28Z</time>
      </trkpt>
      <trkpt lat="50.52515" lon="1.62909">
        <ele>15.7</ele>
        <time>2020-06-22T07:46:29Z</time>
      </trkpt>
      <trkpt lat="50.52519" lon="1.62908">
        <ele>16.1</ele>
        <time>2020-06-22T07:46:30Z</time>
      </trkpt>
      <trkpt lat="50.52521" lon="1.62908">
        <ele>16.1</ele>
        <time>2020-06-22T07:46:31Z</time>
      </trkpt>
      <trkpt lat="50.52524" lon="1.62907">
        <ele>16.2</ele>
        <time>2020-06-22T07:46:32Z</time>
      </trkpt>
      <trkpt lat="50.52527" lon="1.62905">
        <ele>16.2</ele>
        <time>2020-06-22T07:46:33Z</time>
      </trkpt>
      <trkpt lat="50.5253" lon="1.62901">
        <ele>16.3</ele>
        <time>2020-06-22T07:46:34Z</time>
      </trkpt>
      <trkpt lat="50.52533" lon="1.62899">
        <ele>16.4</ele>
        <time>2020-06-22T07:46:35Z</time>
      </trkpt>
      <trkpt lat="50.52536" lon="1.62896">
        <ele>16.4</ele>
        <time>2020-06-22T07:46:36Z</time>
      </trkpt>
      <trkpt lat="50.52539" lon="1.62894">
        <ele>16.4</ele>
        <time>2020-06-22T07:46:37Z</time>
      </trkpt>
      <trkpt lat="50.52543" lon="1.62892">
        <ele>16.4</ele>
        <time>2020-06-22T07:46:38Z</time>
      </trkpt>
      <trkpt lat="50.52547" lon="1.6289">
        <ele>16.4</ele>
        <time>2020-06-22T07:46:39Z</time>
      </trkpt>
      <trkpt lat="50.5255" lon="1.62888">
        <ele>16.6</ele>
        <time>2020-06-22T07:46:40Z</time>
      </trkpt>
      <trkpt lat="50.52554" lon="1.62886">
        <ele>16.7</ele>
        <time>2020-06-22T07:46:41Z</time>
      </trkpt>
      <trkpt lat="50.52557" lon="1.62885">
        <ele>16.9</ele>
        <time>2020-06-22T07:46:42Z</time>
      </trkpt>
      <trkpt lat="50.52561" lon="1.62884">
        <ele>17.1</ele>
        <time>2020-06-22T07:46:43Z</time>
      </trkpt>
      <trkpt lat="50.52567" lon="1.62883">
        <ele>17.3</ele>
        <time>2020-06-22T07:46:44Z</time>
      </trkpt>
      <trkpt lat="50.52571" lon="1.62881">
        <ele>17.4</ele>
        <time>2020-06-22T07:46:45Z</time>
      </trkpt>
      <trkpt lat="50.52575" lon="1.6288">
        <ele>17.6</ele>
        <time>2020-06-22T07:46:46Z</time>
      </trkpt>
      <trkpt lat="50.52579" lon="1.62878">
        <ele>17.7</ele>
        <time>2020-06-22T07:46:47Z</time>
      </trkpt>
      <trkpt lat="50.52584" lon="1.62876">
        <ele>17.9</ele>
        <time>2020-06-22T07:46:48Z</time>
      </trkpt>
      <trkpt lat="50.52588" lon="1.62874">
        <ele>18</ele>
        <time>2020-06-22T07:46:49Z</time>
      </trkpt>
      <trkpt lat="50.52593" lon="1.62872">
        <ele>18.1</ele>
        <time>2020-06-22T07:46:50Z</time>
      </trkpt>
      <trkpt lat="50.52597" lon="1.62871">
        <ele>18.3</ele>
        <time>2020-06-22T07:46:51Z</time>
      </trkpt>
      <trkpt lat="50.52601" lon="1.62869">
        <ele>18.4</ele>
        <time>2020-06-22T07:46:52Z</time>
      </trkpt>
      <trkpt lat="50.52605" lon="1.62868">
        <ele>18.5</ele>
        <time>2020-06-22T07:46:53Z</time>
      </trkpt>
      <trkpt lat="50.52609" lon="1.62866">
        <ele>18.7</ele>
        <time>2020-06-22T07:46:54Z</time>
      </trkpt>
      <trkpt lat="50.52613" lon="1.62865">
        <ele>18.8</ele>
        <time>2020-06-22T07:46:55Z</time>
      </trkpt>
      <trkpt lat="50.52617" lon="1.62862">
        <ele>18.9</ele>
        <time>2020-06-22T07:46:56Z</time>
      </trkpt>
      <trkpt lat="50.52621" lon="1.6286">
        <ele>19</ele>
        <time>2020-06-22T07:46:57Z</time>
      </trkpt>
      <trkpt lat="50.52625" lon="1.62859">
        <ele>19.1</ele>
        <time>2020-06-22T07:46:58Z</time>
      </trkpt>
      <trkpt lat="50.5263" lon="1.62856">
        <ele>19.2</ele>
        <time>2020-06-22T07:46:59Z</time>
      </trkpt>
      <trkpt lat="50.52634" lon="1.62855">
        <ele>19.4</ele>
        <time>2020-06-22T07:47:00Z</time>
      </trkpt>
      <trkpt lat="50.52638" lon="1.62854">
        <ele>19.4</ele>
        <time>2020-06-22T07:47:01Z</time>
      </trkpt>
      <trkpt lat="50.52643" lon="1.62852">
        <ele>19.5</ele>
        <time>2020-06-22T07:47:02Z</time>
      </trkpt>
      <trkpt lat="50.52647" lon="1.62851">
        <ele>19.6</ele>
        <time>2020-06-22T07:47:03Z</time>
      </trkpt>
      <trkpt lat="50.52651" lon="1.62849">
        <ele>19.7</ele>
        <time>2020-06-22T07:47:04Z</time>
      </trkpt>
      <trkpt lat="50.52655" lon="1.62847">
        <ele>19.8</ele>
        <time>2020-06-22T07:47:05Z</time>
      </trkpt>
      <trkpt lat="50.5266" lon="1.62844">
        <ele>19.8</ele>
        <time>2020-06-22T07:47:06Z</time>
      </trkpt>
      <trkpt lat="50.52664" lon="1.62841">
        <ele>19.9</ele>
        <time>2020-06-22T07:47:07Z</time>
      </trkpt>
      <trkpt lat="50.52669" lon="1.62839">
        <ele>19.9</ele>
        <time>2020-06-22T07:47:08Z</time>
      </trkpt>
      <trkpt lat="50.52673" lon="1.62837">
        <ele>19.9</ele>
        <time>2020-06-22T07:47:09Z</time>
      </trkpt>
      <trkpt lat="50.52678" lon="1.62834">
        <ele>19.9</ele>
        <time>2020-06-22T07:47:10Z</time>
      </trkpt>
      <trkpt lat="50.52683" lon="1.62832">
        <ele>19.9</ele>
        <time>2020-06-22T07:47:11Z</time>
      </trkpt>
      <trkpt lat="50.52688" lon="1.62831">
        <ele>19.9</ele>
        <time>2020-06-22T07:47:12Z</time>
      </trkpt>
      <trkpt lat="50.52693" lon="1.62828">
        <ele>19.9</ele>
        <time>2020-06-22T07:47:13Z</time>
      </trkpt>
      <trkpt lat="50.52698" lon="1.62826">
        <ele>19.9</ele>
        <time>2020-06-22T07:47:14Z</time>
      </trkpt>
      <trkpt lat="50.52702" lon="1.62823">
        <ele>20</ele>
        <time>2020-06-22T07:47:15Z</time>
      </trkpt>
      <trkpt lat="50.52707" lon="1.62821">
        <ele>20</ele>
        <time>2020-06-22T07:47:16Z</time>
      </trkpt>
      <trkpt lat="50.52712" lon="1.62819">
        <ele>20</ele>
        <time>2020-06-22T07:47:17Z</time>
      </trkpt>
      <trkpt lat="50.52717" lon="1.62818">
        <ele>20.1</ele>
        <time>2020-06-22T07:47:18Z</time>
      </trkpt>
      <trkpt lat="50.52722" lon="1.62816">
        <ele>20.1</ele>
        <time>2020-06-22T07:47:19Z</time>
      </trkpt>
      <trkpt lat="50.52726" lon="1.62814">
        <ele>20.1</ele>
        <time>2020-06-22T07:47:20Z</time>
      </trkpt>
      <trkpt lat="50.52732" lon="1.62812">
        <ele>20.2</ele>
        <time>2020-06-22T07:47:21Z</time>
      </trkpt>
      <trkpt lat="50.52737" lon="1.6281">
        <ele>20.2</ele>
        <time>2020-06-22T07:47:22Z</time>
      </trkpt>
      <trkpt lat="50.52742" lon="1.62809">
        <ele>20.3</ele>
        <time>2020-06-22T07:47:23Z</time>
      </trkpt>
      <trkpt lat="50.52749" lon="1.62807">
        <ele>20.4</ele>
        <time>2020-06-22T07:47:24Z</time>
      </trkpt>
      <trkpt lat="50.52754" lon="1.62805">
        <ele>20.4</ele>
        <time>2020-06-22T07:47:25Z</time>
      </trkpt>
      <trkpt lat="50.52758" lon="1.62803">
        <ele>20.4</ele>
        <time>2020-06-22T07:47:26Z</time>
      </trkpt>
      <trkpt lat="50.52763" lon="1.62801">
        <ele>20.4</ele>
        <time>2020-06-22T07:47:27Z</time>
      </trkpt>
      <trkpt lat="50.52768" lon="1.62801">
        <ele>20.4</ele>
        <time>2020-06-22T07:47:28Z</time>
      </trkpt>
      <trkpt lat="50.52772" lon="1.62799">
        <ele>20.4</ele>
        <time>2020-06-22T07:47:29Z</time>
      </trkpt>
      <trkpt lat="50.52777" lon="1.62798">
        <ele>20.4</ele>
        <time>2020-06-22T07:47:30Z</time>
      </trkpt>
      <trkpt lat="50.52782" lon="1.62796">
        <ele>20.4</ele>
        <time>2020-06-22T07:47:31Z</time>
      </trkpt>
      <trkpt lat="50.52787" lon="1.62794">
        <ele>20.4</ele>
        <time>2020-06-22T07:47:32Z</time>
      </trkpt>
      <trkpt lat="50.52792" lon="1.6279">
        <ele>20.4</ele>
        <time>2020-06-22T07:47:33Z</time>
      </trkpt>
      <trkpt lat="50.52797" lon="1.62787">
        <ele>20.4</ele>
        <time>2020-06-22T07:47:34Z</time>
      </trkpt>
      <trkpt lat="50.52802" lon="1.62784">
        <ele>20.4</ele>
        <time>2020-06-22T07:47:35Z</time>
      </trkpt>
      <trkpt lat="50.52807" lon="1.62781">
        <ele>20.4</ele>
        <time>2020-06-22T07:47:36Z</time>
      </trkpt>
      <trkpt lat="50.52813" lon="1.6278">
        <ele>20.4</ele>
        <time>2020-06-22T07:47:37Z</time>
      </trkpt>
      <trkpt lat="50.52818" lon="1.62777">
        <ele>20.4</ele>
        <time>2020-06-22T07:47:38Z</time>
      </trkpt>
      <trkpt lat="50.52823" lon="1.62774">
        <ele>20.4</ele>
        <time>2020-06-22T07:47:39Z</time>
      </trkpt>
      <trkpt lat="50.52828" lon="1.62772">
        <ele>20.4</ele>
        <time>2020-06-22T07:47:40Z</time>
      </trkpt>
      <trkpt lat="50.52833" lon="1.62769">
        <ele>20.5</ele>
        <time>2020-06-22T07:47:41Z</time>
      </trkpt>
      <trkpt lat="50.52837" lon="1.62764">
        <ele>20.5</ele>
        <time>2020-06-22T07:47:42Z</time>
      </trkpt>
      <trkpt lat="50.52842" lon="1.62762">
        <ele>20.5</ele>
        <time>2020-06-22T07:47:43Z</time>
      </trkpt>
      <trkpt lat="50.52846" lon="1.6276">
        <ele>20.5</ele>
        <time>2020-06-22T07:47:44Z</time>
      </trkpt>
      <trkpt lat="50.52852" lon="1.62758">
        <ele>20.5</ele>
        <time>2020-06-22T07:47:45Z</time>
      </trkpt>
      <trkpt lat="50.52857" lon="1.62757">
        <ele>20.5</ele>
        <time>2020-06-22T07:47:46Z</time>
      </trkpt>
      <trkpt lat="50.52863" lon="1.62755">
        <ele>20.5</ele>
        <time>2020-06-22T07:47:47Z</time>
      </trkpt>
      <trkpt lat="50.52868" lon="1.62752">
        <ele>20.5</ele>
        <time>2020-06-22T07:47:48Z</time>
      </trkpt>
      <trkpt lat="50.52874" lon="1.6275">
        <ele>20.5</ele>
        <time>2020-06-22T07:47:49Z</time>
      </trkpt>
      <trkpt lat="50.52879" lon="1.62747">
        <ele>20.5</ele>
        <time>2020-06-22T07:47:50Z</time>
      </trkpt>
      <trkpt lat="50.52885" lon="1.62745">
        <ele>20.5</ele>
        <time>2020-06-22T07:47:51Z</time>
      </trkpt>
      <trkpt lat="50.5289" lon="1.62743">
        <ele>20.5</ele>
        <time>2020-06-22T07:47:52Z</time>
      </trkpt>
      <trkpt lat="50.52896" lon="1.6274">
        <ele>20.6</ele>
        <time>2020-06-22T07:47:53Z</time>
      </trkpt>
      <trkpt lat="50.52902" lon="1.62738">
        <ele>20.6</ele>
        <time>2020-06-22T07:47:54Z</time>
      </trkpt>
      <trkpt lat="50.52908" lon="1.62735">
        <ele>20.6</ele>
        <time>2020-06-22T07:47:55Z</time>
      </trkpt>
      <trkpt lat="50.52914" lon="1.62733">
        <ele>20.6</ele>
        <time>2020-06-22T07:47:56Z</time>
      </trkpt>
      <trkpt lat="50.52921" lon="1.62731">
        <ele>20.6</ele>
        <time>2020-06-22T07:47:57Z</time>
      </trkpt>
      <trkpt lat="50.52928" lon="1.62727">
        <ele>20.6</ele>
        <time>2020-06-22T07:47:58Z</time>
      </trkpt>
      <trkpt lat="50.52934" lon="1.62724">
        <ele>20.6</ele>
        <time>2020-06-22T07:47:59Z</time>
      </trkpt>
      <trkpt lat="50.52941" lon="1.62721">
        <ele>20.6</ele>
        <time>2020-06-22T07:48:00Z</time>
      </trkpt>
      <trkpt lat="50.52948" lon="1.6272">
        <ele>20.7</ele>
        <time>2020-06-22T07:48:01Z</time>
      </trkpt>
      <trkpt lat="50.52954" lon="1.62719">
        <ele>20.7</ele>
        <time>2020-06-22T07:48:02Z</time>
      </trkpt>
      <trkpt lat="50.5296" lon="1.62716">
        <ele>20.7</ele>
        <time>2020-06-22T07:48:03Z</time>
      </trkpt>
      <trkpt lat="50.52965" lon="1.62714">
        <ele>20.7</ele>
        <time>2020-06-22T07:48:04Z</time>
      </trkpt>
      <trkpt lat="50.52971" lon="1.6271">
        <ele>20.7</ele>
        <time>2020-06-22T07:48:05Z</time>
      </trkpt>
      <trkpt lat="50.52977" lon="1.62708">
        <ele>20.7</ele>
        <time>2020-06-22T07:48:06Z</time>
      </trkpt>
      <trkpt lat="50.52984" lon="1.62706">
        <ele>20.7</ele>
        <time>2020-06-22T07:48:07Z</time>
      </trkpt>
      <trkpt lat="50.5299" lon="1.62705">
        <ele>20.7</ele>
        <time>2020-06-22T07:48:08Z</time>
      </trkpt>
      <trkpt lat="50.52995" lon="1.62703">
        <ele>20.7</ele>
        <time>2020-06-22T07:48:09Z</time>
      </trkpt>
      <trkpt lat="50.53001" lon="1.627">
        <ele>20.7</ele>
        <time>2020-06-22T07:48:10Z</time>
      </trkpt>
      <trkpt lat="50.53005" lon="1.62698">
        <ele>20.7</ele>
        <time>2020-06-22T07:48:11Z</time>
      </trkpt>
      <trkpt lat="50.53011" lon="1.62694">
        <ele>20.7</ele>
        <time>2020-06-22T07:48:12Z</time>
      </trkpt>
      <trkpt lat="50.53015" lon="1.62692">
        <ele>20.7</ele>
        <time>2020-06-22T07:48:13Z</time>
      </trkpt>
      <trkpt lat="50.5302" lon="1.62691">
        <ele>20.7</ele>
        <time>2020-06-22T07:48:14Z</time>
      </trkpt>
      <trkpt lat="50.53027" lon="1.62689">
        <ele>20.6</ele>
        <time>2020-06-22T07:48:15Z</time>
      </trkpt>
      <trkpt lat="50.53035" lon="1.62686">
        <ele>20.6</ele>
        <time>2020-06-22T07:48:16Z</time>
      </trkpt>
      <trkpt lat="50.53042" lon="1.62684">
        <ele>20.6</ele>
        <time>2020-06-22T07:48:17Z</time>
      </trkpt>
      <trkpt lat="50.53049" lon="1.62682">
        <ele>20.6</ele>
        <time>2020-06-22T07:48:18Z</time>
      </trkpt>
      <trkpt lat="50.53055" lon="1.6268">
        <ele>20.6</ele>
        <time>2020-06-22T07:48:19Z</time>
      </trkpt>
      <trkpt lat="50.53061" lon="1.62678">
        <ele>20.6</ele>
        <time>2020-06-22T07:48:20Z</time>
      </trkpt>
      <trkpt lat="50.53066" lon="1.62675">
        <ele>20.5</ele>
        <time>2020-06-22T07:48:21Z</time>
      </trkpt>
      <trkpt lat="50.53071" lon="1.62673">
        <ele>20.5</ele>
        <time>2020-06-22T07:48:22Z</time>
      </trkpt>
      <trkpt lat="50.53075" lon="1.62671">
        <ele>20.5</ele>
        <time>2020-06-22T07:48:23Z</time>
      </trkpt>
      <trkpt lat="50.5308" lon="1.62668">
        <ele>20.5</ele>
        <time>2020-06-22T07:48:24Z</time>
      </trkpt>
      <trkpt lat="50.53085" lon="1.62666">
        <ele>20.4</ele>
        <time>2020-06-22T07:48:25Z</time>
      </trkpt>
      <trkpt lat="50.5309" lon="1.62663">
        <ele>20.4</ele>
        <time>2020-06-22T07:48:26Z</time>
      </trkpt>
      <trkpt lat="50.53096" lon="1.62659">
        <ele>20.4</ele>
        <time>2020-06-22T07:48:27Z</time>
      </trkpt>
      <trkpt lat="50.53103" lon="1.62656">
        <ele>20.4</ele>
        <time>2020-06-22T07:48:28Z</time>
      </trkpt>
      <trkpt lat="50.53109" lon="1.62654">
        <ele>20.4</ele>
        <time>2020-06-22T07:48:29Z</time>
      </trkpt>
      <trkpt lat="50.53116" lon="1.62651">
        <ele>20.4</ele>
        <time>2020-06-22T07:48:30Z</time>
      </trkpt>
      <trkpt lat="50.53123" lon="1.62649">
        <ele>20.3</ele>
        <time>2020-06-22T07:48:31Z</time>
      </trkpt>
      <trkpt lat="50.53128" lon="1.62646">
        <ele>20.3</ele>
        <time>2020-06-22T07:48:32Z</time>
      </trkpt>
      <trkpt lat="50.53135" lon="1.62643">
        <ele>20.3</ele>
        <time>2020-06-22T07:48:33Z</time>
      </trkpt>
      <trkpt lat="50.53143" lon="1.6264">
        <ele>20.4</ele>
        <time>2020-06-22T07:48:34Z</time>
      </trkpt>
      <trkpt lat="50.53149" lon="1.62638">
        <ele>20.4</ele>
        <time>2020-06-22T07:48:35Z</time>
      </trkpt>
      <trkpt lat="50.53154" lon="1.62635">
        <ele>20.4</ele>
        <time>2020-06-22T07:48:36Z</time>
      </trkpt>
      <trkpt lat="50.5316" lon="1.62633">
        <ele>20.4</ele>
        <time>2020-06-22T07:48:37Z</time>
      </trkpt>
      <trkpt lat="50.53164" lon="1.62632">
        <ele>20.4</ele>
        <time>2020-06-22T07:48:38Z</time>
      </trkpt>
      <trkpt lat="50.5317" lon="1.6263">
        <ele>20.5</ele>
        <time>2020-06-22T07:48:39Z</time>
      </trkpt>
      <trkpt lat="50.53176" lon="1.62628">
        <ele>20.5</ele>
        <time>2020-06-22T07:48:40Z</time>
      </trkpt>
      <trkpt lat="50.53182" lon="1.62625">
        <ele>20.5</ele>
        <time>2020-06-22T07:48:41Z</time>
      </trkpt>
      <trkpt lat="50.53188" lon="1.62624">
        <ele>20.6</ele>
        <time>2020-06-22T07:48:42Z</time>
      </trkpt>
      <trkpt lat="50.53194" lon="1.62621">
        <ele>20.6</ele>
        <time>2020-06-22T07:48:43Z</time>
      </trkpt>
      <trkpt lat="50.53201" lon="1.62619">
        <ele>20.7</ele>
        <time>2020-06-22T07:48:44Z</time>
      </trkpt>
      <trkpt lat="50.53206" lon="1.62616">
        <ele>20.8</ele>
        <time>2020-06-22T07:48:45Z</time>
      </trkpt>
      <trkpt lat="50.53212" lon="1.62614">
        <ele>20.9</ele>
        <time>2020-06-22T07:48:46Z</time>
      </trkpt>
      <trkpt lat="50.53218" lon="1.62612">
        <ele>20.9</ele>
        <time>2020-06-22T07:48:47Z</time>
      </trkpt>
      <trkpt lat="50.53222" lon="1.62611">
        <ele>21</ele>
        <time>2020-06-22T07:48:48Z</time>
      </trkpt>
      <trkpt lat="50.53226" lon="1.62609">
        <ele>21</ele>
        <time>2020-06-22T07:48:49Z</time>
      </trkpt>
      <trkpt lat="50.53232" lon="1.62608">
        <ele>21</ele>
        <time>2020-06-22T07:48:50Z</time>
      </trkpt>
      <trkpt lat="50.53238" lon="1.62605">
        <ele>21.1</ele>
        <time>2020-06-22T07:48:51Z</time>
      </trkpt>
      <trkpt lat="50.53245" lon="1.62602">
        <ele>21.1</ele>
        <time>2020-06-22T07:48:52Z</time>
      </trkpt>
      <trkpt lat="50.53252" lon="1.62599">
        <ele>21.2</ele>
        <time>2020-06-22T07:48:53Z</time>
      </trkpt>
      <trkpt lat="50.53258" lon="1.62596">
        <ele>21.2</ele>
        <time>2020-06-22T07:48:54Z</time>
      </trkpt>
      <trkpt lat="50.53264" lon="1.62594">
        <ele>21.3</ele>
        <time>2020-06-22T07:48:55Z</time>
      </trkpt>
      <trkpt lat="50.5327" lon="1.62591">
        <ele>21.3</ele>
        <time>2020-06-22T07:48:56Z</time>
      </trkpt>
      <trkpt lat="50.53274" lon="1.62588">
        <ele>21.4</ele>
        <time>2020-06-22T07:48:57Z</time>
      </trkpt>
      <trkpt lat="50.5328" lon="1.62586">
        <ele>21.4</ele>
        <time>2020-06-22T07:48:58Z</time>
      </trkpt>
      <trkpt lat="50.53287" lon="1.62582">
        <ele>21.5</ele>
        <time>2020-06-22T07:48:59Z</time>
      </trkpt>
      <trkpt lat="50.53293" lon="1.6258">
        <ele>21.6</ele>
        <time>2020-06-22T07:49:00Z</time>
      </trkpt>
      <trkpt lat="50.53298" lon="1.62578">
        <ele>21.7</ele>
        <time>2020-06-22T07:49:01Z</time>
      </trkpt>
      <trkpt lat="50.53303" lon="1.62576">
        <ele>21.8</ele>
        <time>2020-06-22T07:49:02Z</time>
      </trkpt>
      <trkpt lat="50.53309" lon="1.62574">
        <ele>21.9</ele>
        <time>2020-06-22T07:49:03Z</time>
      </trkpt>
      <trkpt lat="50.53315" lon="1.6257">
        <ele>22</ele>
        <time>2020-06-22T07:49:04Z</time>
      </trkpt>
      <trkpt lat="50.5332" lon="1.62568">
        <ele>22</ele>
        <time>2020-06-22T07:49:05Z</time>
      </trkpt>
      <trkpt lat="50.53324" lon="1.62565">
        <ele>22.1</ele>
        <time>2020-06-22T07:49:06Z</time>
      </trkpt>
      <trkpt lat="50.53329" lon="1.62562">
        <ele>22.1</ele>
        <time>2020-06-22T07:49:07Z</time>
      </trkpt>
      <trkpt lat="50.53333" lon="1.6256">
        <ele>22.2</ele>
        <time>2020-06-22T07:49:08Z</time>
      </trkpt>
      <trkpt lat="50.53339" lon="1.62556">
        <ele>22.3</ele>
        <time>2020-06-22T07:49:09Z</time>
      </trkpt>
      <trkpt lat="50.53344" lon="1.62555">
        <ele>22.4</ele>
        <time>2020-06-22T07:49:10Z</time>
      </trkpt>
      <trkpt lat="50.5335" lon="1.62552">
        <ele>22.5</ele>
        <time>2020-06-22T07:49:11Z</time>
      </trkpt>
      <trkpt lat="50.53356" lon="1.62549">
        <ele>22.6</ele>
        <time>2020-06-22T07:49:12Z</time>
      </trkpt>
      <trkpt lat="50.53362" lon="1.62547">
        <ele>22.6</ele>
        <time>2020-06-22T07:49:13Z</time>
      </trkpt>
      <trkpt lat="50.53367" lon="1.62545">
        <ele>22.7</ele>
        <time>2020-06-22T07:49:14Z</time>
      </trkpt>
      <trkpt lat="50.53373" lon="1.62541">
        <ele>22.7</ele>
        <time>2020-06-22T07:49:15Z</time>
      </trkpt>
      <trkpt lat="50.53378" lon="1.62537">
        <ele>22.8</ele>
        <time>2020-06-22T07:49:16Z</time>
      </trkpt>
      <trkpt lat="50.53384" lon="1.62533">
        <ele>22.8</ele>
        <time>2020-06-22T07:49:17Z</time>
      </trkpt>
      <trkpt lat="50.53391" lon="1.6253">
        <ele>22.9</ele>
        <time>2020-06-22T07:49:18Z</time>
      </trkpt>
      <trkpt lat="50.53397" lon="1.62528">
        <ele>22.9</ele>
        <time>2020-06-22T07:49:19Z</time>
      </trkpt>
      <trkpt lat="50.53403" lon="1.62524">
        <ele>23</ele>
        <time>2020-06-22T07:49:20Z</time>
      </trkpt>
      <trkpt lat="50.5341" lon="1.62522">
        <ele>23</ele>
        <time>2020-06-22T07:49:21Z</time>
      </trkpt>
      <trkpt lat="50.53415" lon="1.62519">
        <ele>23.1</ele>
        <time>2020-06-22T07:49:22Z</time>
      </trkpt>
      <trkpt lat="50.53421" lon="1.62515">
        <ele>23.1</ele>
        <time>2020-06-22T07:49:23Z</time>
      </trkpt>
      <trkpt lat="50.53427" lon="1.62512">
        <ele>23.2</ele>
        <time>2020-06-22T07:49:24Z</time>
      </trkpt>
      <trkpt lat="50.53432" lon="1.62511">
        <ele>23.3</ele>
        <time>2020-06-22T07:49:25Z</time>
      </trkpt>
      <trkpt lat="50.53438" lon="1.6251">
        <ele>23.4</ele>
        <time>2020-06-22T07:49:26Z</time>
      </trkpt>
      <trkpt lat="50.53446" lon="1.62508">
        <ele>23.5</ele>
        <time>2020-06-22T07:49:27Z</time>
      </trkpt>
      <trkpt lat="50.53452" lon="1.62505">
        <ele>23.6</ele>
        <time>2020-06-22T07:49:28Z</time>
      </trkpt>
      <trkpt lat="50.53457" lon="1.62503">
        <ele>23.6</ele>
        <time>2020-06-22T07:49:29Z</time>
      </trkpt>
      <trkpt lat="50.53464" lon="1.625">
        <ele>23.6</ele>
        <time>2020-06-22T07:49:30Z</time>
      </trkpt>
      <trkpt lat="50.53469" lon="1.62498">
        <ele>23.7</ele>
        <time>2020-06-22T07:49:31Z</time>
      </trkpt>
      <trkpt lat="50.53476" lon="1.62496">
        <ele>23.8</ele>
        <time>2020-06-22T07:49:32Z</time>
      </trkpt>
      <trkpt lat="50.53482" lon="1.62493">
        <ele>23.9</ele>
        <time>2020-06-22T07:49:33Z</time>
      </trkpt>
      <trkpt lat="50.5349" lon="1.62493">
        <ele>24</ele>
        <time>2020-06-22T07:49:34Z</time>
      </trkpt>
      <trkpt lat="50.53497" lon="1.62491">
        <ele>24</ele>
        <time>2020-06-22T07:49:35Z</time>
      </trkpt>
      <trkpt lat="50.53503" lon="1.62489">
        <ele>24.1</ele>
        <time>2020-06-22T07:49:36Z</time>
      </trkpt>
      <trkpt lat="50.5351" lon="1.62488">
        <ele>24.2</ele>
        <time>2020-06-22T07:49:37Z</time>
      </trkpt>
      <trkpt lat="50.53514" lon="1.62486">
        <ele>24.3</ele>
        <time>2020-06-22T07:49:38Z</time>
      </trkpt>
      <trkpt lat="50.5352" lon="1.62483">
        <ele>24.3</ele>
        <time>2020-06-22T07:49:39Z</time>
      </trkpt>
      <trkpt lat="50.53525" lon="1.62482">
        <ele>24.4</ele>
        <time>2020-06-22T07:49:40Z</time>
      </trkpt>
      <trkpt lat="50.5353" lon="1.62481">
        <ele>24.5</ele>
        <time>2020-06-22T07:49:41Z</time>
      </trkpt>
      <trkpt lat="50.53536" lon="1.62479">
        <ele>24.6</ele>
        <time>2020-06-22T07:49:42Z</time>
      </trkpt>
      <trkpt lat="50.53543" lon="1.62478">
        <ele>24.7</ele>
        <time>2020-06-22T07:49:43Z</time>
      </trkpt>
      <trkpt lat="50.53549" lon="1.62476">
        <ele>24.8</ele>
        <time>2020-06-22T07:49:44Z</time>
      </trkpt>
      <trkpt lat="50.53554" lon="1.62475">
        <ele>24.9</ele>
        <time>2020-06-22T07:49:45Z</time>
      </trkpt>
      <trkpt lat="50.53558" lon="1.62473">
        <ele>25.1</ele>
        <time>2020-06-22T07:49:46Z</time>
      </trkpt>
      <trkpt lat="50.53564" lon="1.62473">
        <ele>25.2</ele>
        <time>2020-06-22T07:49:47Z</time>
      </trkpt>
      <trkpt lat="50.53568" lon="1.62473">
        <ele>25.4</ele>
        <time>2020-06-22T07:49:48Z</time>
      </trkpt>
      <trkpt lat="50.53572" lon="1.62472">
        <ele>25.4</ele>
        <time>2020-06-22T07:49:49Z</time>
      </trkpt>
      <trkpt lat="50.53577" lon="1.6247">
        <ele>25.6</ele>
        <time>2020-06-22T07:49:50Z</time>
      </trkpt>
      <trkpt lat="50.53583" lon="1.62468">
        <ele>25.7</ele>
        <time>2020-06-22T07:49:51Z</time>
      </trkpt>
      <trkpt lat="50.53588" lon="1.62464">
        <ele>25.8</ele>
        <time>2020-06-22T07:49:52Z</time>
      </trkpt>
      <trkpt lat="50.53594" lon="1.62463">
        <ele>25.9</ele>
        <time>2020-06-22T07:49:53Z</time>
      </trkpt>
      <trkpt lat="50.53599" lon="1.6246">
        <ele>26</ele>
        <time>2020-06-22T07:49:54Z</time>
      </trkpt>
      <trkpt lat="50.53604" lon="1.62456">
        <ele>26.1</ele>
        <time>2020-06-22T07:49:55Z</time>
      </trkpt>
      <trkpt lat="50.5361" lon="1.62453">
        <ele>26.2</ele>
        <time>2020-06-22T07:49:56Z</time>
      </trkpt>
      <trkpt lat="50.53615" lon="1.62451">
        <ele>26.3</ele>
        <time>2020-06-22T07:49:57Z</time>
      </trkpt>
      <trkpt lat="50.53619" lon="1.62448">
        <ele>26.4</ele>
        <time>2020-06-22T07:49:58Z</time>
      </trkpt>
      <trkpt lat="50.53625" lon="1.62445">
        <ele>26.5</ele>
        <time>2020-06-22T07:49:59Z</time>
      </trkpt>
      <trkpt lat="50.5363" lon="1.62443">
        <ele>26.6</ele>
        <time>2020-06-22T07:50:00Z</time>
      </trkpt>
      <trkpt lat="50.53635" lon="1.62441">
        <ele>26.7</ele>
        <time>2020-06-22T07:50:01Z</time>
      </trkpt>
      <trkpt lat="50.5364" lon="1.62437">
        <ele>26.7</ele>
        <time>2020-06-22T07:50:02Z</time>
      </trkpt>
      <trkpt lat="50.53644" lon="1.62435">
        <ele>26.8</ele>
        <time>2020-06-22T07:50:03Z</time>
      </trkpt>
      <trkpt lat="50.53648" lon="1.62432">
        <ele>26.8</ele>
        <time>2020-06-22T07:50:04Z</time>
      </trkpt>
      <trkpt lat="50.53653" lon="1.62428">
        <ele>26.9</ele>
        <time>2020-06-22T07:50:05Z</time>
      </trkpt>
      <trkpt lat="50.53658" lon="1.62425">
        <ele>27</ele>
        <time>2020-06-22T07:50:06Z</time>
      </trkpt>
      <trkpt lat="50.53663" lon="1.62422">
        <ele>27.1</ele>
        <time>2020-06-22T07:50:07Z</time>
      </trkpt>
      <trkpt lat="50.53668" lon="1.62418">
        <ele>27.1</ele>
        <time>2020-06-22T07:50:08Z</time>
      </trkpt>
      <trkpt lat="50.53672" lon="1.62416">
        <ele>27.2</ele>
        <time>2020-06-22T07:50:09Z</time>
      </trkpt>
      <trkpt lat="50.53677" lon="1.62414">
        <ele>27.3</ele>
        <time>2020-06-22T07:50:10Z</time>
      </trkpt>
      <trkpt lat="50.53682" lon="1.62412">
        <ele>27.4</ele>
        <time>2020-06-22T07:50:11Z</time>
      </trkpt>
      <trkpt lat="50.53687" lon="1.6241">
        <ele>27.5</ele>
        <time>2020-06-22T07:50:12Z</time>
      </trkpt>
      <trkpt lat="50.53693" lon="1.62408">
        <ele>27.6</ele>
        <time>2020-06-22T07:50:13Z</time>
      </trkpt>
      <trkpt lat="50.53697" lon="1.62406">
        <ele>27.6</ele>
        <time>2020-06-22T07:50:14Z</time>
      </trkpt>
      <trkpt lat="50.53702" lon="1.62405">
        <ele>27.7</ele>
        <time>2020-06-22T07:50:15Z</time>
      </trkpt>
      <trkpt lat="50.53707" lon="1.62402">
        <ele>27.8</ele>
        <time>2020-06-22T07:50:16Z</time>
      </trkpt>
      <trkpt lat="50.53712" lon="1.624">
        <ele>27.8</ele>
        <time>2020-06-22T07:50:17Z</time>
      </trkpt>
      <trkpt lat="50.53718" lon="1.62398">
        <ele>27.9</ele>
        <time>2020-06-22T07:50:18Z</time>
      </trkpt>
      <trkpt lat="50.53723" lon="1.62395">
        <ele>28</ele>
        <time>2020-06-22T07:50:19Z</time>
      </trkpt>
      <trkpt lat="50.53728" lon="1.62392">
        <ele>28</ele>
        <time>2020-06-22T07:50:20Z</time>
      </trkpt>
      <trkpt lat="50.53734" lon="1.6239">
        <ele>28.1</ele>
        <time>2020-06-22T07:50:21Z</time>
      </trkpt>
      <trkpt lat="50.5374" lon="1.62387">
        <ele>28.1</ele>
        <time>2020-06-22T07:50:22Z</time>
      </trkpt>
      <trkpt lat="50.53745" lon="1.62386">
        <ele>28.1</ele>
        <time>2020-06-22T07:50:23Z</time>
      </trkpt>
      <trkpt lat="50.53751" lon="1.62386">
        <ele>28.2</ele>
        <time>2020-06-22T07:50:24Z</time>
      </trkpt>
      <trkpt lat="50.53757" lon="1.62385">
        <ele>28.2</ele>
        <time>2020-06-22T07:50:25Z</time>
      </trkpt>
      <trkpt lat="50.53764" lon="1.62383">
        <ele>28.3</ele>
        <time>2020-06-22T07:50:26Z</time>
      </trkpt>
      <trkpt lat="50.53771" lon="1.62381">
        <ele>28.4</ele>
        <time>2020-06-22T07:50:27Z</time>
      </trkpt>
      <trkpt lat="50.53778" lon="1.62379">
        <ele>28.5</ele>
        <time>2020-06-22T07:50:28Z</time>
      </trkpt>
      <trkpt lat="50.53784" lon="1.62375">
        <ele>28.5</ele>
        <time>2020-06-22T07:50:29Z</time>
      </trkpt>
      <trkpt lat="50.53791" lon="1.62372">
        <ele>28.6</ele>
        <time>2020-06-22T07:50:30Z</time>
      </trkpt>
      <trkpt lat="50.53796" lon="1.6237">
        <ele>28.7</ele>
        <time>2020-06-22T07:50:31Z</time>
      </trkpt>
      <trkpt lat="50.53802" lon="1.62368">
        <ele>28.7</ele>
        <time>2020-06-22T07:50:32Z</time>
      </trkpt>
      <trkpt lat="50.53807" lon="1.62364">
        <ele>28.7</ele>
        <time>2020-06-22T07:50:33Z</time>
      </trkpt>
      <trkpt lat="50.53813" lon="1.62361">
        <ele>28.8</ele>
        <time>2020-06-22T07:50:34Z</time>
      </trkpt>
      <trkpt lat="50.53819" lon="1.62359">
        <ele>28.8</ele>
        <time>2020-06-22T07:50:35Z</time>
      </trkpt>
      <trkpt lat="50.53824" lon="1.62358">
        <ele>28.8</ele>
        <time>2020-06-22T07:50:36Z</time>
      </trkpt>
      <trkpt lat="50.53831" lon="1.62355">
        <ele>28.8</ele>
        <time>2020-06-22T07:50:37Z</time>
      </trkpt>
      <trkpt lat="50.53837" lon="1.62353">
        <ele>28.8</ele>
        <time>2020-06-22T07:50:38Z</time>
      </trkpt>
      <trkpt lat="50.53842" lon="1.6235">
        <ele>28.9</ele>
        <time>2020-06-22T07:50:39Z</time>
      </trkpt>
      <trkpt lat="50.53847" lon="1.62348">
        <ele>28.9</ele>
        <time>2020-06-22T07:50:40Z</time>
      </trkpt>
      <trkpt lat="50.53853" lon="1.62345">
        <ele>28.9</ele>
        <time>2020-06-22T07:50:41Z</time>
      </trkpt>
      <trkpt lat="50.5386" lon="1.62342">
        <ele>29</ele>
        <time>2020-06-22T07:50:42Z</time>
      </trkpt>
      <trkpt lat="50.53867" lon="1.62339">
        <ele>29</ele>
        <time>2020-06-22T07:50:43Z</time>
      </trkpt>
      <trkpt lat="50.53872" lon="1.62336">
        <ele>29</ele>
        <time>2020-06-22T07:50:44Z</time>
      </trkpt>
      <trkpt lat="50.53877" lon="1.62334">
        <ele>29.1</ele>
        <time>2020-06-22T07:50:45Z</time>
      </trkpt>
      <trkpt lat="50.53882" lon="1.62332">
        <ele>29.1</ele>
        <time>2020-06-22T07:50:46Z</time>
      </trkpt>
      <trkpt lat="50.53886" lon="1.62331">
        <ele>29.1</ele>
        <time>2020-06-22T07:50:47Z</time>
      </trkpt>
      <trkpt lat="50.53891" lon="1.62329">
        <ele>29.1</ele>
        <time>2020-06-22T07:50:48Z</time>
      </trkpt>
      <trkpt lat="50.53896" lon="1.62327">
        <ele>29.1</ele>
        <time>2020-06-22T07:50:49Z</time>
      </trkpt>
      <trkpt lat="50.53902" lon="1.62326">
        <ele>29.1</ele>
        <time>2020-06-22T07:50:50Z</time>
      </trkpt>
      <trkpt lat="50.53908" lon="1.62323">
        <ele>29.1</ele>
        <time>2020-06-22T07:50:51Z</time>
      </trkpt>
      <trkpt lat="50.53914" lon="1.62321">
        <ele>29.1</ele>
        <time>2020-06-22T07:50:52Z</time>
      </trkpt>
      <trkpt lat="50.53921" lon="1.6232">
        <ele>29.1</ele>
        <time>2020-06-22T07:50:53Z</time>
      </trkpt>
      <trkpt lat="50.53927" lon="1.62314">
        <ele>29.1</ele>
        <time>2020-06-22T07:50:54Z</time>
      </trkpt>
      <trkpt lat="50.53935" lon="1.62311">
        <ele>29.1</ele>
        <time>2020-06-22T07:50:55Z</time>
      </trkpt>
      <trkpt lat="50.53941" lon="1.62308">
        <ele>29.1</ele>
        <time>2020-06-22T07:50:56Z</time>
      </trkpt>
      <trkpt lat="50.53946" lon="1.62307">
        <ele>29.2</ele>
        <time>2020-06-22T07:50:57Z</time>
      </trkpt>
      <trkpt lat="50.53952" lon="1.62303">
        <ele>29.2</ele>
        <time>2020-06-22T07:50:58Z</time>
      </trkpt>
      <trkpt lat="50.53959" lon="1.623">
        <ele>29.3</ele>
        <time>2020-06-22T07:50:59Z</time>
      </trkpt>
      <trkpt lat="50.53965" lon="1.62298">
        <ele>29.3</ele>
        <time>2020-06-22T07:51:00Z</time>
      </trkpt>
      <trkpt lat="50.53971" lon="1.62294">
        <ele>29.4</ele>
        <time>2020-06-22T07:51:01Z</time>
      </trkpt>
      <trkpt lat="50.53978" lon="1.62292">
        <ele>29.4</ele>
        <time>2020-06-22T07:51:02Z</time>
      </trkpt>
      <trkpt lat="50.53986" lon="1.62289">
        <ele>29.4</ele>
        <time>2020-06-22T07:51:03Z</time>
      </trkpt>
      <trkpt lat="50.53993" lon="1.62286">
        <ele>29.4</ele>
        <time>2020-06-22T07:51:04Z</time>
      </trkpt>
      <trkpt lat="50.53999" lon="1.62283">
        <ele>29.5</ele>
        <time>2020-06-22T07:51:05Z</time>
      </trkpt>
      <trkpt lat="50.54005" lon="1.6228">
        <ele>29.5</ele>
        <time>2020-06-22T07:51:06Z</time>
      </trkpt>
      <trkpt lat="50.54012" lon="1.62277">
        <ele>29.6</ele>
        <time>2020-06-22T07:51:07Z</time>
      </trkpt>
      <trkpt lat="50.54018" lon="1.62274">
        <ele>29.6</ele>
        <time>2020-06-22T07:51:08Z</time>
      </trkpt>
      <trkpt lat="50.54023" lon="1.62271">
        <ele>29.7</ele>
        <time>2020-06-22T07:51:09Z</time>
      </trkpt>
      <trkpt lat="50.54029" lon="1.62268">
        <ele>29.7</ele>
        <time>2020-06-22T07:51:10Z</time>
      </trkpt>
      <trkpt lat="50.54035" lon="1.62265">
        <ele>29.8</ele>
        <time>2020-06-22T07:51:11Z</time>
      </trkpt>
      <trkpt lat="50.54041" lon="1.62262">
        <ele>29.8</ele>
        <time>2020-06-22T07:51:12Z</time>
      </trkpt>
      <trkpt lat="50.54047" lon="1.62259">
        <ele>29.8</ele>
        <time>2020-06-22T07:51:13Z</time>
      </trkpt>
      <trkpt lat="50.54053" lon="1.62256">
        <ele>29.9</ele>
        <time>2020-06-22T07:51:14Z</time>
      </trkpt>
      <trkpt lat="50.54059" lon="1.62253">
        <ele>29.9</ele>
        <time>2020-06-22T07:51:15Z</time>
      </trkpt>
      <trkpt lat="50.54065" lon="1.62251">
        <ele>30</ele>
        <time>2020-06-22T07:51:16Z</time>
      </trkpt>
      <trkpt lat="50.54071" lon="1.62249">
        <ele>30</ele>
        <time>2020-06-22T07:51:17Z</time>
      </trkpt>
      <trkpt lat="50.54076" lon="1.62247">
        <ele>30</ele>
        <time>2020-06-22T07:51:18Z</time>
      </trkpt>
      <trkpt lat="50.54081" lon="1.62246">
        <ele>30.1</ele>
        <time>2020-06-22T07:51:19Z</time>
      </trkpt>
      <trkpt lat="50.54087" lon="1.62244">
        <ele>30.1</ele>
        <time>2020-06-22T07:51:20Z</time>
      </trkpt>
      <trkpt lat="50.54094" lon="1.62242">
        <ele>30.2</ele>
        <time>2020-06-22T07:51:21Z</time>
      </trkpt>
      <trkpt lat="50.541" lon="1.62239">
        <ele>30.2</ele>
        <time>2020-06-22T07:51:22Z</time>
      </trkpt>
      <trkpt lat="50.54106" lon="1.62237">
        <ele>30.2</ele>
        <time>2020-06-22T07:51:23Z</time>
      </trkpt>
      <trkpt lat="50.54112" lon="1.62234">
        <ele>30.3</ele>
        <time>2020-06-22T07:51:24Z</time>
      </trkpt>
      <trkpt lat="50.54119" lon="1.62232">
        <ele>30.3</ele>
        <time>2020-06-22T07:51:25Z</time>
      </trkpt>
      <trkpt lat="50.54125" lon="1.62229">
        <ele>30.3</ele>
        <time>2020-06-22T07:51:26Z</time>
      </trkpt>
      <trkpt lat="50.54132" lon="1.62225">
        <ele>30.3</ele>
        <time>2020-06-22T07:51:27Z</time>
      </trkpt>
      <trkpt lat="50.54139" lon="1.62221">
        <ele>30.3</ele>
        <time>2020-06-22T07:51:28Z</time>
      </trkpt>
      <trkpt lat="50.54146" lon="1.62217">
        <ele>30.3</ele>
        <time>2020-06-22T07:51:29Z</time>
      </trkpt>
      <trkpt lat="50.54152" lon="1.62213">
        <ele>30.3</ele>
        <time>2020-06-22T07:51:30Z</time>
      </trkpt>
      <trkpt lat="50.54159" lon="1.62212">
        <ele>30.3</ele>
        <time>2020-06-22T07:51:31Z</time>
      </trkpt>
      <trkpt lat="50.54164" lon="1.6221">
        <ele>30.3</ele>
        <time>2020-06-22T07:51:32Z</time>
      </trkpt>
      <trkpt lat="50.54171" lon="1.62207">
        <ele>30.2</ele>
        <time>2020-06-22T07:51:33Z</time>
      </trkpt>
      <trkpt lat="50.54177" lon="1.62204">
        <ele>30.1</ele>
        <time>2020-06-22T07:51:34Z</time>
      </trkpt>
      <trkpt lat="50.54184" lon="1.62202">
        <ele>30.1</ele>
        <time>2020-06-22T07:51:35Z</time>
      </trkpt>
      <trkpt lat="50.5419" lon="1.62199">
        <ele>30</ele>
        <time>2020-06-22T07:51:36Z</time>
      </trkpt>
      <trkpt lat="50.54195" lon="1.62197">
        <ele>30</ele>
        <time>2020-06-22T07:51:37Z</time>
      </trkpt>
      <trkpt lat="50.54202" lon="1.62194">
        <ele>30</ele>
        <time>2020-06-22T07:51:38Z</time>
      </trkpt>
      <trkpt lat="50.54209" lon="1.62191">
        <ele>29.9</ele>
        <time>2020-06-22T07:51:39Z</time>
      </trkpt>
      <trkpt lat="50.54216" lon="1.62188">
        <ele>29.9</ele>
        <time>2020-06-22T07:51:40Z</time>
      </trkpt>
      <trkpt lat="50.54223" lon="1.62185">
        <ele>29.8</ele>
        <time>2020-06-22T07:51:41Z</time>
      </trkpt>
      <trkpt lat="50.54229" lon="1.62183">
        <ele>29.7</ele>
        <time>2020-06-22T07:51:42Z</time>
      </trkpt>
      <trkpt lat="50.54236" lon="1.6218">
        <ele>29.7</ele>
        <time>2020-06-22T07:51:43Z</time>
      </trkpt>
      <trkpt lat="50.54243" lon="1.62178">
        <ele>29.6</ele>
        <time>2020-06-22T07:51:44Z</time>
      </trkpt>
      <trkpt lat="50.5425" lon="1.62175">
        <ele>29.6</ele>
        <time>2020-06-22T07:51:45Z</time>
      </trkpt>
      <trkpt lat="50.54258" lon="1.62173">
        <ele>29.6</ele>
        <time>2020-06-22T07:51:46Z</time>
      </trkpt>
      <trkpt lat="50.54264" lon="1.6217">
        <ele>29.5</ele>
        <time>2020-06-22T07:51:47Z</time>
      </trkpt>
      <trkpt lat="50.5427" lon="1.62167">
        <ele>29.5</ele>
        <time>2020-06-22T07:51:48Z</time>
      </trkpt>
      <trkpt lat="50.54276" lon="1.62164">
        <ele>29.4</ele>
        <time>2020-06-22T07:51:49Z</time>
      </trkpt>
      <trkpt lat="50.54283" lon="1.62162">
        <ele>29.4</ele>
        <time>2020-06-22T07:51:50Z</time>
      </trkpt>
      <trkpt lat="50.5429" lon="1.62159">
        <ele>29.4</ele>
        <time>2020-06-22T07:51:51Z</time>
      </trkpt>
      <trkpt lat="50.54297" lon="1.62156">
        <ele>29.3</ele>
        <time>2020-06-22T07:51:52Z</time>
      </trkpt>
      <trkpt lat="50.54304" lon="1.62153">
        <ele>29.3</ele>
        <time>2020-06-22T07:51:53Z</time>
      </trkpt>
      <trkpt lat="50.5431" lon="1.6215">
        <ele>29.3</ele>
        <time>2020-06-22T07:51:54Z</time>
      </trkpt>
      <trkpt lat="50.54316" lon="1.62147">
        <ele>29.3</ele>
        <time>2020-06-22T07:51:55Z</time>
      </trkpt>
      <trkpt lat="50.54323" lon="1.62145">
        <ele>29.2</ele>
        <time>2020-06-22T07:51:56Z</time>
      </trkpt>
      <trkpt lat="50.54329" lon="1.62141">
        <ele>29.2</ele>
        <time>2020-06-22T07:51:57Z</time>
      </trkpt>
      <trkpt lat="50.54335" lon="1.62139">
        <ele>29.2</ele>
        <time>2020-06-22T07:51:58Z</time>
      </trkpt>
      <trkpt lat="50.54342" lon="1.62136">
        <ele>29.1</ele>
        <time>2020-06-22T07:51:59Z</time>
      </trkpt>
      <trkpt lat="50.54348" lon="1.62134">
        <ele>29.1</ele>
        <time>2020-06-22T07:52:00Z</time>
      </trkpt>
      <trkpt lat="50.54355" lon="1.62132">
        <ele>29</ele>
        <time>2020-06-22T07:52:01Z</time>
      </trkpt>
      <trkpt lat="50.54362" lon="1.62129">
        <ele>29</ele>
        <time>2020-06-22T07:52:02Z</time>
      </trkpt>
      <trkpt lat="50.54369" lon="1.62127">
        <ele>28.9</ele>
        <time>2020-06-22T07:52:03Z</time>
      </trkpt>
      <trkpt lat="50.54376" lon="1.62123">
        <ele>28.8</ele>
        <time>2020-06-22T07:52:04Z</time>
      </trkpt>
      <trkpt lat="50.54382" lon="1.6212">
        <ele>28.7</ele>
        <time>2020-06-22T07:52:05Z</time>
      </trkpt>
      <trkpt lat="50.54389" lon="1.62118">
        <ele>28.7</ele>
        <time>2020-06-22T07:52:06Z</time>
      </trkpt>
      <trkpt lat="50.54396" lon="1.62114">
        <ele>28.6</ele>
        <time>2020-06-22T07:52:07Z</time>
      </trkpt>
      <trkpt lat="50.54403" lon="1.62111">
        <ele>28.5</ele>
        <time>2020-06-22T07:52:08Z</time>
      </trkpt>
      <trkpt lat="50.5441" lon="1.62108">
        <ele>28.4</ele>
        <time>2020-06-22T07:52:09Z</time>
      </trkpt>
      <trkpt lat="50.54417" lon="1.62105">
        <ele>28.3</ele>
        <time>2020-06-22T07:52:10Z</time>
      </trkpt>
      <trkpt lat="50.54424" lon="1.62102">
        <ele>28.1</ele>
        <time>2020-06-22T07:52:11Z</time>
      </trkpt>
      <trkpt lat="50.54431" lon="1.62099">
        <ele>28</ele>
        <time>2020-06-22T07:52:12Z</time>
      </trkpt>
      <trkpt lat="50.54438" lon="1.62095">
        <ele>27.8</ele>
        <time>2020-06-22T07:52:13Z</time>
      </trkpt>
      <trkpt lat="50.54445" lon="1.62092">
        <ele>27.7</ele>
        <time>2020-06-22T07:52:14Z</time>
      </trkpt>
      <trkpt lat="50.54452" lon="1.62088">
        <ele>27.5</ele>
        <time>2020-06-22T07:52:15Z</time>
      </trkpt>
      <trkpt lat="50.5446" lon="1.62086">
        <ele>27.2</ele>
        <time>2020-06-22T07:52:16Z</time>
      </trkpt>
      <trkpt lat="50.54468" lon="1.62082">
        <ele>26.9</ele>
        <time>2020-06-22T07:52:17Z</time>
      </trkpt>
      <trkpt lat="50.54476" lon="1.62079">
        <ele>26.6</ele>
        <time>2020-06-22T07:52:18Z</time>
      </trkpt>
      <trkpt lat="50.54484" lon="1.62076">
        <ele>26.2</ele>
        <time>2020-06-22T07:52:19Z</time>
      </trkpt>
      <trkpt lat="50.54492" lon="1.62073">
        <ele>25.9</ele>
        <time>2020-06-22T07:52:20Z</time>
      </trkpt>
      <trkpt lat="50.54501" lon="1.62069">
        <ele>25.5</ele>
        <time>2020-06-22T07:52:21Z</time>
      </trkpt>
      <trkpt lat="50.54509" lon="1.62065">
        <ele>25</ele>
        <time>2020-06-22T07:52:22Z</time>
      </trkpt>
      <trkpt lat="50.54518" lon="1.62061">
        <ele>24.6</ele>
        <time>2020-06-22T07:52:23Z</time>
      </trkpt>
      <trkpt lat="50.54527" lon="1.62057">
        <ele>24.2</ele>
        <time>2020-06-22T07:52:24Z</time>
      </trkpt>
      <trkpt lat="50.54536" lon="1.62052">
        <ele>23.7</ele>
        <time>2020-06-22T07:52:25Z</time>
      </trkpt>
      <trkpt lat="50.54546" lon="1.62048">
        <ele>23.2</ele>
        <time>2020-06-22T07:52:26Z</time>
      </trkpt>
      <trkpt lat="50.54555" lon="1.62044">
        <ele>22.6</ele>
        <time>2020-06-22T07:52:27Z</time>
      </trkpt>
      <trkpt lat="50.54565" lon="1.6204">
        <ele>22.1</ele>
        <time>2020-06-22T07:52:28Z</time>
      </trkpt>
      <trkpt lat="50.54575" lon="1.62035">
        <ele>21.6</ele>
        <time>2020-06-22T07:52:29Z</time>
      </trkpt>
      <trkpt lat="50.54585" lon="1.62031">
        <ele>21</ele>
        <time>2020-06-22T07:52:30Z</time>
      </trkpt>
      <trkpt lat="50.54596" lon="1.62026">
        <ele>20.3</ele>
        <time>2020-06-22T07:52:31Z</time>
      </trkpt>
      <trkpt lat="50.54606" lon="1.62021">
        <ele>19.6</ele>
        <time>2020-06-22T07:52:32Z</time>
      </trkpt>
      <trkpt lat="50.54617" lon="1.62016">
        <ele>19</ele>
        <time>2020-06-22T07:52:33Z</time>
      </trkpt>
      <trkpt lat="50.54629" lon="1.62012">
        <ele>18.4</ele>
        <time>2020-06-22T07:52:34Z</time>
      </trkpt>
      <trkpt lat="50.5464" lon="1.62007">
        <ele>17.9</ele>
        <time>2020-06-22T07:52:35Z</time>
      </trkpt>
      <trkpt lat="50.54652" lon="1.62001">
        <ele>17.6</ele>
        <time>2020-06-22T07:52:36Z</time>
      </trkpt>
      <trkpt lat="50.54663" lon="1.61996">
        <ele>17.4</ele>
        <time>2020-06-22T07:52:37Z</time>
      </trkpt>
      <trkpt lat="50.54674" lon="1.61991">
        <ele>17.1</ele>
        <time>2020-06-22T07:52:38Z</time>
      </trkpt>
      <trkpt lat="50.54686" lon="1.61987">
        <ele>16.9</ele>
        <time>2020-06-22T07:52:39Z</time>
      </trkpt>
      <trkpt lat="50.54697" lon="1.61983">
        <ele>16.8</ele>
        <time>2020-06-22T07:52:40Z</time>
      </trkpt>
      <trkpt lat="50.54707" lon="1.61979">
        <ele>16.9</ele>
        <time>2020-06-22T07:52:41Z</time>
      </trkpt>
      <trkpt lat="50.54717" lon="1.61974">
        <ele>17</ele>
        <time>2020-06-22T07:52:42Z</time>
      </trkpt>
      <trkpt lat="50.54727" lon="1.6197">
        <ele>17.1</ele>
        <time>2020-06-22T07:52:43Z</time>
      </trkpt>
      <trkpt lat="50.54736" lon="1.61966">
        <ele>17.3</ele>
        <time>2020-06-22T07:52:44Z</time>
      </trkpt>
      <trkpt lat="50.54744" lon="1.61962">
        <ele>17.5</ele>
        <time>2020-06-22T07:52:45Z</time>
      </trkpt>
      <trkpt lat="50.54752" lon="1.61959">
        <ele>17.7</ele>
        <time>2020-06-22T07:52:46Z</time>
      </trkpt>
      <trkpt lat="50.5476" lon="1.61955">
        <ele>17.9</ele>
        <time>2020-06-22T07:52:47Z</time>
      </trkpt>
      <trkpt lat="50.54767" lon="1.61953">
        <ele>18.1</ele>
        <time>2020-06-22T07:52:48Z</time>
      </trkpt>
      <trkpt lat="50.54775" lon="1.61949">
        <ele>18.3</ele>
        <time>2020-06-22T07:52:49Z</time>
      </trkpt>
      <trkpt lat="50.54781" lon="1.61945">
        <ele>18.5</ele>
        <time>2020-06-22T07:52:50Z</time>
      </trkpt>
      <trkpt lat="50.54788" lon="1.61941">
        <ele>18.7</ele>
        <time>2020-06-22T07:52:51Z</time>
      </trkpt>
      <trkpt lat="50.54794" lon="1.61938">
        <ele>19</ele>
        <time>2020-06-22T07:52:52Z</time>
      </trkpt>
      <trkpt lat="50.54801" lon="1.61936">
        <ele>19.2</ele>
        <time>2020-06-22T07:52:53Z</time>
      </trkpt>
      <trkpt lat="50.54808" lon="1.61935">
        <ele>19.4</ele>
        <time>2020-06-22T07:52:54Z</time>
      </trkpt>
      <trkpt lat="50.54815" lon="1.61932">
        <ele>19.6</ele>
        <time>2020-06-22T07:52:55Z</time>
      </trkpt>
      <trkpt lat="50.54821" lon="1.6193">
        <ele>19.8</ele>
        <time>2020-06-22T07:52:56Z</time>
      </trkpt>
      <trkpt lat="50.54828" lon="1.61926">
        <ele>20</ele>
        <time>2020-06-22T07:52:57Z</time>
      </trkpt>
      <trkpt lat="50.54834" lon="1.61924">
        <ele>20.2</ele>
        <time>2020-06-22T07:52:58Z</time>
      </trkpt>
      <trkpt lat="50.5484" lon="1.61922">
        <ele>20.4</ele>
        <time>2020-06-22T07:52:59Z</time>
      </trkpt>
      <trkpt lat="50.54846" lon="1.6192">
        <ele>20.5</ele>
        <time>2020-06-22T07:53:00Z</time>
      </trkpt>
      <trkpt lat="50.54851" lon="1.61917">
        <ele>20.7</ele>
        <time>2020-06-22T07:53:01Z</time>
      </trkpt>
      <trkpt lat="50.54857" lon="1.61914">
        <ele>20.9</ele>
        <time>2020-06-22T07:53:02Z</time>
      </trkpt>
      <trkpt lat="50.54862" lon="1.61911">
        <ele>21.1</ele>
        <time>2020-06-22T07:53:03Z</time>
      </trkpt>
      <trkpt lat="50.54867" lon="1.61908">
        <ele>21.3</ele>
        <time>2020-06-22T07:53:04Z</time>
      </trkpt>
      <trkpt lat="50.54872" lon="1.61905">
        <ele>21.4</ele>
        <time>2020-06-22T07:53:05Z</time>
      </trkpt>
      <trkpt lat="50.54877" lon="1.61902">
        <ele>21.6</ele>
        <time>2020-06-22T07:53:06Z</time>
      </trkpt>
      <trkpt lat="50.54882" lon="1.61901">
        <ele>21.8</ele>
        <time>2020-06-22T07:53:07Z</time>
      </trkpt>
      <trkpt lat="50.54887" lon="1.61899">
        <ele>22</ele>
        <time>2020-06-22T07:53:08Z</time>
      </trkpt>
      <trkpt lat="50.54892" lon="1.61897">
        <ele>22.1</ele>
        <time>2020-06-22T07:53:09Z</time>
      </trkpt>
      <trkpt lat="50.54897" lon="1.61894">
        <ele>22.3</ele>
        <time>2020-06-22T07:53:10Z</time>
      </trkpt>
      <trkpt lat="50.54903" lon="1.61892">
        <ele>22.5</ele>
        <time>2020-06-22T07:53:11Z</time>
      </trkpt>
      <trkpt lat="50.54908" lon="1.6189">
        <ele>22.6</ele>
        <time>2020-06-22T07:53:12Z</time>
      </trkpt>
      <trkpt lat="50.54913" lon="1.61888">
        <ele>22.8</ele>
        <time>2020-06-22T07:53:13Z</time>
      </trkpt>
      <trkpt lat="50.54918" lon="1.61886">
        <ele>23</ele>
        <time>2020-06-22T07:53:14Z</time>
      </trkpt>
      <trkpt lat="50.54923" lon="1.61885">
        <ele>23.2</ele>
        <time>2020-06-22T07:53:15Z</time>
      </trkpt>
      <trkpt lat="50.54928" lon="1.61884">
        <ele>23.3</ele>
        <time>2020-06-22T07:53:16Z</time>
      </trkpt>
      <trkpt lat="50.54933" lon="1.61882">
        <ele>23.4</ele>
        <time>2020-06-22T07:53:17Z</time>
      </trkpt>
      <trkpt lat="50.54938" lon="1.6188">
        <ele>23.5</ele>
        <time>2020-06-22T07:53:18Z</time>
      </trkpt>
      <trkpt lat="50.54942" lon="1.61877">
        <ele>23.6</ele>
        <time>2020-06-22T07:53:19Z</time>
      </trkpt>
      <trkpt lat="50.54948" lon="1.61875">
        <ele>23.7</ele>
        <time>2020-06-22T07:53:20Z</time>
      </trkpt>
      <trkpt lat="50.54953" lon="1.61874">
        <ele>23.8</ele>
        <time>2020-06-22T07:53:21Z</time>
      </trkpt>
      <trkpt lat="50.54958" lon="1.61872">
        <ele>23.9</ele>
        <time>2020-06-22T07:53:22Z</time>
      </trkpt>
      <trkpt lat="50.54963" lon="1.61869">
        <ele>24</ele>
        <time>2020-06-22T07:53:23Z</time>
      </trkpt>
      <trkpt lat="50.54968" lon="1.61867">
        <ele>24.2</ele>
        <time>2020-06-22T07:53:24Z</time>
      </trkpt>
      <trkpt lat="50.54973" lon="1.61865">
        <ele>24.3</ele>
        <time>2020-06-22T07:53:25Z</time>
      </trkpt>
      <trkpt lat="50.54978" lon="1.61863">
        <ele>24.4</ele>
        <time>2020-06-22T07:53:26Z</time>
      </trkpt>
      <trkpt lat="50.54984" lon="1.61863">
        <ele>24.5</ele>
        <time>2020-06-22T07:53:27Z</time>
      </trkpt>
      <trkpt lat="50.54988" lon="1.6186">
        <ele>24.6</ele>
        <time>2020-06-22T07:53:28Z</time>
      </trkpt>
      <trkpt lat="50.54994" lon="1.61859">
        <ele>24.6</ele>
        <time>2020-06-22T07:53:29Z</time>
      </trkpt>
      <trkpt lat="50.54998" lon="1.61856">
        <ele>24.7</ele>
        <time>2020-06-22T07:53:30Z</time>
      </trkpt>
      <trkpt lat="50.55002" lon="1.61854">
        <ele>24.7</ele>
        <time>2020-06-22T07:53:31Z</time>
      </trkpt>
      <trkpt lat="50.55005" lon="1.61851">
        <ele>24.7</ele>
        <time>2020-06-22T07:53:32Z</time>
      </trkpt>
      <trkpt lat="50.5501" lon="1.61849">
        <ele>24.8</ele>
        <time>2020-06-22T07:53:33Z</time>
      </trkpt>
      <trkpt lat="50.55014" lon="1.61847">
        <ele>24.8</ele>
        <time>2020-06-22T07:53:34Z</time>
      </trkpt>
      <trkpt lat="50.55018" lon="1.61845">
        <ele>24.8</ele>
        <time>2020-06-22T07:53:35Z</time>
      </trkpt>
      <trkpt lat="50.55023" lon="1.61845">
        <ele>24.8</ele>
        <time>2020-06-22T07:53:36Z</time>
      </trkpt>
      <trkpt lat="50.55028" lon="1.61845">
        <ele>24.9</ele>
        <time>2020-06-22T07:53:37Z</time>
      </trkpt>
      <trkpt lat="50.55033" lon="1.61847">
        <ele>24.9</ele>
        <time>2020-06-22T07:53:38Z</time>
      </trkpt>
      <trkpt lat="50.55039" lon="1.6185">
        <ele>25</ele>
        <time>2020-06-22T07:53:39Z</time>
      </trkpt>
      <trkpt lat="50.55044" lon="1.61853">
        <ele>25</ele>
        <time>2020-06-22T07:53:40Z</time>
      </trkpt>
      <trkpt lat="50.55048" lon="1.61856">
        <ele>25.1</ele>
        <time>2020-06-22T07:53:41Z</time>
      </trkpt>
      <trkpt lat="50.55051" lon="1.61858">
        <ele>25.1</ele>
        <time>2020-06-22T07:53:42Z</time>
      </trkpt>
      <trkpt lat="50.55056" lon="1.61859">
        <ele>25.3</ele>
        <time>2020-06-22T07:53:43Z</time>
      </trkpt>
      <trkpt lat="50.55061" lon="1.61861">
        <ele>25.5</ele>
        <time>2020-06-22T07:53:44Z</time>
      </trkpt>
      <trkpt lat="50.55066" lon="1.61863">
        <ele>25.6</ele>
        <time>2020-06-22T07:53:45Z</time>
      </trkpt>
      <trkpt lat="50.55071" lon="1.61863">
        <ele>25.7</ele>
        <time>2020-06-22T07:53:46Z</time>
      </trkpt>
      <trkpt lat="50.55076" lon="1.61863">
        <ele>25.8</ele>
        <time>2020-06-22T07:53:47Z</time>
      </trkpt>
      <trkpt lat="50.55081" lon="1.61865">
        <ele>26</ele>
        <time>2020-06-22T07:53:48Z</time>
      </trkpt>
      <trkpt lat="50.55085" lon="1.61865">
        <ele>26.1</ele>
        <time>2020-06-22T07:53:49Z</time>
      </trkpt>
      <trkpt lat="50.5509" lon="1.61866">
        <ele>26.2</ele>
        <time>2020-06-22T07:53:50Z</time>
      </trkpt>
      <trkpt lat="50.55094" lon="1.61866">
        <ele>26.3</ele>
        <time>2020-06-22T07:53:51Z</time>
      </trkpt>
      <trkpt lat="50.55101" lon="1.61868">
        <ele>26.4</ele>
        <time>2020-06-22T07:53:52Z</time>
      </trkpt>
      <trkpt lat="50.55108" lon="1.6187">
        <ele>26.6</ele>
        <time>2020-06-22T07:53:53Z</time>
      </trkpt>
      <trkpt lat="50.55113" lon="1.6187">
        <ele>26.7</ele>
        <time>2020-06-22T07:53:54Z</time>
      </trkpt>
      <trkpt lat="50.55118" lon="1.61871">
        <ele>26.8</ele>
        <time>2020-06-22T07:53:55Z</time>
      </trkpt>
      <trkpt lat="50.55122" lon="1.61871">
        <ele>26.9</ele>
        <time>2020-06-22T07:53:56Z</time>
      </trkpt>
      <trkpt lat="50.55127" lon="1.61872">
        <ele>27</ele>
        <time>2020-06-22T07:53:57Z</time>
      </trkpt>
      <trkpt lat="50.55132" lon="1.61874">
        <ele>27.1</ele>
        <time>2020-06-22T07:53:58Z</time>
      </trkpt>
      <trkpt lat="50.55137" lon="1.61876">
        <ele>27.2</ele>
        <time>2020-06-22T07:53:59Z</time>
      </trkpt>
      <trkpt lat="50.55142" lon="1.61877">
        <ele>27.3</ele>
        <time>2020-06-22T07:54:00Z</time>
      </trkpt>
      <trkpt lat="50.55147" lon="1.61879">
        <ele>27.4</ele>
        <time>2020-06-22T07:54:01Z</time>
      </trkpt>
      <trkpt lat="50.55152" lon="1.61879">
        <ele>27.5</ele>
        <time>2020-06-22T07:54:02Z</time>
      </trkpt>
      <trkpt lat="50.55158" lon="1.61881">
        <ele>27.6</ele>
        <time>2020-06-22T07:54:03Z</time>
      </trkpt>
      <trkpt lat="50.55164" lon="1.61882">
        <ele>27.7</ele>
        <time>2020-06-22T07:54:04Z</time>
      </trkpt>
      <trkpt lat="50.5517" lon="1.61883">
        <ele>27.8</ele>
        <time>2020-06-22T07:54:05Z</time>
      </trkpt>
      <trkpt lat="50.55176" lon="1.61885">
        <ele>27.9</ele>
        <time>2020-06-22T07:54:06Z</time>
      </trkpt>
      <trkpt lat="50.55181" lon="1.61887">
        <ele>28</ele>
        <time>2020-06-22T07:54:07Z</time>
      </trkpt>
      <trkpt lat="50.55186" lon="1.61888">
        <ele>28.1</ele>
        <time>2020-06-22T07:54:08Z</time>
      </trkpt>
      <trkpt lat="50.55193" lon="1.6189">
        <ele>28.2</ele>
        <time>2020-06-22T07:54:09Z</time>
      </trkpt>
      <trkpt lat="50.55198" lon="1.6189">
        <ele>28.5</ele>
        <time>2020-06-22T07:54:10Z</time>
      </trkpt>
      <trkpt lat="50.55206" lon="1.61891">
        <ele>28.8</ele>
        <time>2020-06-22T07:54:11Z</time>
      </trkpt>
      <trkpt lat="50.55212" lon="1.61891">
        <ele>29</ele>
        <time>2020-06-22T07:54:12Z</time>
      </trkpt>
      <trkpt lat="50.55218" lon="1.61893">
        <ele>29.3</ele>
        <time>2020-06-22T07:54:13Z</time>
      </trkpt>
      <trkpt lat="50.55222" lon="1.61892">
        <ele>29.4</ele>
        <time>2020-06-22T07:54:14Z</time>
      </trkpt>
      <trkpt lat="50.55226" lon="1.61892">
        <ele>29.6</ele>
        <time>2020-06-22T07:54:15Z</time>
      </trkpt>
      <trkpt lat="50.55231" lon="1.61893">
        <ele>29.8</ele>
        <time>2020-06-22T07:54:16Z</time>
      </trkpt>
      <trkpt lat="50.55237" lon="1.61894">
        <ele>30</ele>
        <time>2020-06-22T07:54:17Z</time>
      </trkpt>
      <trkpt lat="50.55243" lon="1.61896">
        <ele>30.3</ele>
        <time>2020-06-22T07:54:18Z</time>
      </trkpt>
      <trkpt lat="50.55248" lon="1.61897">
        <ele>30.5</ele>
        <time>2020-06-22T07:54:19Z</time>
      </trkpt>
      <trkpt lat="50.55253" lon="1.61899">
        <ele>30.7</ele>
        <time>2020-06-22T07:54:20Z</time>
      </trkpt>
      <trkpt lat="50.55258" lon="1.61902">
        <ele>30.9</ele>
        <time>2020-06-22T07:54:21Z</time>
      </trkpt>
      <trkpt lat="50.55264" lon="1.61905">
        <ele>31.2</ele>
        <time>2020-06-22T07:54:22Z</time>
      </trkpt>
      <trkpt lat="50.55267" lon="1.61904">
        <ele>31.3</ele>
        <time>2020-06-22T07:54:23Z</time>
      </trkpt>
      <trkpt lat="50.55271" lon="1.61905">
        <ele>31.5</ele>
        <time>2020-06-22T07:54:24Z</time>
      </trkpt>
      <trkpt lat="50.55276" lon="1.61906">
        <ele>31.6</ele>
        <time>2020-06-22T07:54:25Z</time>
      </trkpt>
      <trkpt lat="50.5528" lon="1.61907">
        <ele>31.8</ele>
        <time>2020-06-22T07:54:26Z</time>
      </trkpt>
      <trkpt lat="50.55284" lon="1.61908">
        <ele>31.9</ele>
        <time>2020-06-22T07:54:27Z</time>
      </trkpt>
      <trkpt lat="50.55288" lon="1.61909">
        <ele>32.1</ele>
        <time>2020-06-22T07:54:28Z</time>
      </trkpt>
      <trkpt lat="50.55292" lon="1.6191">
        <ele>32.2</ele>
        <time>2020-06-22T07:54:29Z</time>
      </trkpt>
      <trkpt lat="50.55298" lon="1.61913">
        <ele>32.4</ele>
        <time>2020-06-22T07:54:30Z</time>
      </trkpt>
      <trkpt lat="50.55304" lon="1.61914">
        <ele>32.7</ele>
        <time>2020-06-22T07:54:31Z</time>
      </trkpt>
      <trkpt lat="50.55309" lon="1.61915">
        <ele>32.8</ele>
        <time>2020-06-22T07:54:32Z</time>
      </trkpt>
      <trkpt lat="50.55314" lon="1.61917">
        <ele>33</ele>
        <time>2020-06-22T07:54:33Z</time>
      </trkpt>
      <trkpt lat="50.55319" lon="1.61918">
        <ele>33.2</ele>
        <time>2020-06-22T07:54:34Z</time>
      </trkpt>
      <trkpt lat="50.55323" lon="1.61919">
        <ele>33.3</ele>
        <time>2020-06-22T07:54:35Z</time>
      </trkpt>
      <trkpt lat="50.55327" lon="1.61921">
        <ele>33.4</ele>
        <time>2020-06-22T07:54:36Z</time>
      </trkpt>
      <trkpt lat="50.55334" lon="1.61922">
        <ele>33.6</ele>
        <time>2020-06-22T07:54:37Z</time>
      </trkpt>
      <trkpt lat="50.55337" lon="1.61923">
        <ele>33.6</ele>
        <time>2020-06-22T07:54:38Z</time>
      </trkpt>
      <trkpt lat="50.55343" lon="1.61924">
        <ele>33.7</ele>
        <time>2020-06-22T07:54:39Z</time>
      </trkpt>
      <trkpt lat="50.55348" lon="1.61925">
        <ele>33.8</ele>
        <time>2020-06-22T07:54:40Z</time>
      </trkpt>
      <trkpt lat="50.55352" lon="1.61926">
        <ele>33.8</ele>
        <time>2020-06-22T07:54:41Z</time>
      </trkpt>
      <trkpt lat="50.55355" lon="1.61927">
        <ele>33.9</ele>
        <time>2020-06-22T07:54:42Z</time>
      </trkpt>
      <trkpt lat="50.55358" lon="1.61928">
        <ele>33.9</ele>
        <time>2020-06-22T07:54:43Z</time>
      </trkpt>
      <trkpt lat="50.55362" lon="1.61929">
        <ele>33.9</ele>
        <time>2020-06-22T07:54:44Z</time>
      </trkpt>
      <trkpt lat="50.55367" lon="1.6193">
        <ele>33.8</ele>
        <time>2020-06-22T07:54:45Z</time>
      </trkpt>
      <trkpt lat="50.55372" lon="1.61931">
        <ele>33.8</ele>
        <time>2020-06-22T07:54:46Z</time>
      </trkpt>
      <trkpt lat="50.55378" lon="1.6193">
        <ele>33.7</ele>
        <time>2020-06-22T07:54:47Z</time>
      </trkpt>
      <trkpt lat="50.55386" lon="1.61928">
        <ele>33.7</ele>
        <time>2020-06-22T07:54:48Z</time>
      </trkpt>
      <trkpt lat="50.55394" lon="1.61927">
        <ele>33.6</ele>
        <time>2020-06-22T07:54:49Z</time>
      </trkpt>
      <trkpt lat="50.554" lon="1.61923">
        <ele>33.5</ele>
        <time>2020-06-22T07:54:50Z</time>
      </trkpt>
      <trkpt lat="50.55407" lon="1.61923">
        <ele>33.4</ele>
        <time>2020-06-22T07:54:51Z</time>
      </trkpt>
      <trkpt lat="50.55414" lon="1.61922">
        <ele>33.3</ele>
        <time>2020-06-22T07:54:52Z</time>
      </trkpt>
      <trkpt lat="50.55421" lon="1.6192">
        <ele>33.2</ele>
        <time>2020-06-22T07:54:53Z</time>
      </trkpt>
      <trkpt lat="50.55429" lon="1.61918">
        <ele>33.1</ele>
        <time>2020-06-22T07:54:54Z</time>
      </trkpt>
      <trkpt lat="50.55437" lon="1.61915">
        <ele>33</ele>
        <time>2020-06-22T07:54:55Z</time>
      </trkpt>
      <trkpt lat="50.5544" lon="1.61915">
        <ele>33</ele>
        <time>2020-06-22T07:54:56Z</time>
      </trkpt>
      <trkpt lat="50.55445" lon="1.61913">
        <ele>32.9</ele>
        <time>2020-06-22T07:54:57Z</time>
      </trkpt>
      <trkpt lat="50.5545" lon="1.61911">
        <ele>32.8</ele>
        <time>2020-06-22T07:54:58Z</time>
      </trkpt>
      <trkpt lat="50.55456" lon="1.6191">
        <ele>32.7</ele>
        <time>2020-06-22T07:54:59Z</time>
      </trkpt>
      <trkpt lat="50.55463" lon="1.6191">
        <ele>32.6</ele>
        <time>2020-06-22T07:55:00Z</time>
      </trkpt>
      <trkpt lat="50.55471" lon="1.61908">
        <ele>32.5</ele>
        <time>2020-06-22T07:55:01Z</time>
      </trkpt>
      <trkpt lat="50.55479" lon="1.61907">
        <ele>32.4</ele>
        <time>2020-06-22T07:55:02Z</time>
      </trkpt>
      <trkpt lat="50.55486" lon="1.61907">
        <ele>32.4</ele>
        <time>2020-06-22T07:55:03Z</time>
      </trkpt>
      <trkpt lat="50.55493" lon="1.61907">
        <ele>32.3</ele>
        <time>2020-06-22T07:55:04Z</time>
      </trkpt>
      <trkpt lat="50.55502" lon="1.61906">
        <ele>32.2</ele>
        <time>2020-06-22T07:55:05Z</time>
      </trkpt>
      <trkpt lat="50.5551" lon="1.61905">
        <ele>32.2</ele>
        <time>2020-06-22T07:55:06Z</time>
      </trkpt>
      <trkpt lat="50.55515" lon="1.61902">
        <ele>32.2</ele>
        <time>2020-06-22T07:55:07Z</time>
      </trkpt>
      <trkpt lat="50.55522" lon="1.61901">
        <ele>32.1</ele>
        <time>2020-06-22T07:55:08Z</time>
      </trkpt>
      <trkpt lat="50.55532" lon="1.61901">
        <ele>32.1</ele>
        <time>2020-06-22T07:55:09Z</time>
      </trkpt>
      <trkpt lat="50.55539" lon="1.619">
        <ele>32</ele>
        <time>2020-06-22T07:55:10Z</time>
      </trkpt>
      <trkpt lat="50.55547" lon="1.61899">
        <ele>32</ele>
        <time>2020-06-22T07:55:11Z</time>
      </trkpt>
      <trkpt lat="50.55553" lon="1.61898">
        <ele>32</ele>
        <time>2020-06-22T07:55:12Z</time>
      </trkpt>
      <trkpt lat="50.5556" lon="1.61897">
        <ele>32</ele>
        <time>2020-06-22T07:55:13Z</time>
      </trkpt>
      <trkpt lat="50.55567" lon="1.61895">
        <ele>32</ele>
        <time>2020-06-22T07:55:14Z</time>
      </trkpt>
      <trkpt lat="50.55573" lon="1.61894">
        <ele>32</ele>
        <time>2020-06-22T07:55:15Z</time>
      </trkpt>
      <trkpt lat="50.55578" lon="1.61892">
        <ele>32</ele>
        <time>2020-06-22T07:55:16Z</time>
      </trkpt>
      <trkpt lat="50.55585" lon="1.61891">
        <ele>32</ele>
        <time>2020-06-22T07:55:17Z</time>
      </trkpt>
      <trkpt lat="50.55591" lon="1.61889">
        <ele>32.1</ele>
        <time>2020-06-22T07:55:18Z</time>
      </trkpt>
      <trkpt lat="50.55598" lon="1.61889">
        <ele>32.2</ele>
        <time>2020-06-22T07:55:19Z</time>
      </trkpt>
      <trkpt lat="50.55605" lon="1.61888">
        <ele>32.2</ele>
        <time>2020-06-22T07:55:20Z</time>
      </trkpt>
      <trkpt lat="50.55611" lon="1.61886">
        <ele>32.2</ele>
        <time>2020-06-22T07:55:21Z</time>
      </trkpt>
      <trkpt lat="50.55617" lon="1.61885">
        <ele>32.3</ele>
        <time>2020-06-22T07:55:22Z</time>
      </trkpt>
      <trkpt lat="50.55622" lon="1.61883">
        <ele>32.3</ele>
        <time>2020-06-22T07:55:23Z</time>
      </trkpt>
      <trkpt lat="50.55627" lon="1.61882">
        <ele>32.4</ele>
        <time>2020-06-22T07:55:24Z</time>
      </trkpt>
      <trkpt lat="50.55632" lon="1.6188">
        <ele>32.4</ele>
        <time>2020-06-22T07:55:25Z</time>
      </trkpt>
      <trkpt lat="50.55638" lon="1.61879">
        <ele>32.5</ele>
        <time>2020-06-22T07:55:26Z</time>
      </trkpt>
      <trkpt lat="50.55643" lon="1.61879">
        <ele>32.5</ele>
        <time>2020-06-22T07:55:27Z</time>
      </trkpt>
      <trkpt lat="50.55649" lon="1.61878">
        <ele>32.5</ele>
        <time>2020-06-22T07:55:28Z</time>
      </trkpt>
      <trkpt lat="50.55656" lon="1.61876">
        <ele>32.4</ele>
        <time>2020-06-22T07:55:29Z</time>
      </trkpt>
      <trkpt lat="50.55662" lon="1.61876">
        <ele>32.4</ele>
        <time>2020-06-22T07:55:30Z</time>
      </trkpt>
      <trkpt lat="50.55667" lon="1.61875">
        <ele>32.3</ele>
        <time>2020-06-22T07:55:31Z</time>
      </trkpt>
      <trkpt lat="50.55673" lon="1.61875">
        <ele>32.2</ele>
        <time>2020-06-22T07:55:32Z</time>
      </trkpt>
      <trkpt lat="50.5568" lon="1.61874">
        <ele>32.1</ele>
        <time>2020-06-22T07:55:33Z</time>
      </trkpt>
      <trkpt lat="50.55686" lon="1.61872">
        <ele>32.1</ele>
        <time>2020-06-22T07:55:34Z</time>
      </trkpt>
      <trkpt lat="50.55693" lon="1.61872">
        <ele>32</ele>
        <time>2020-06-22T07:55:35Z</time>
      </trkpt>
      <trkpt lat="50.55702" lon="1.61871">
        <ele>31.9</ele>
        <time>2020-06-22T07:55:36Z</time>
      </trkpt>
      <trkpt lat="50.55708" lon="1.61871">
        <ele>31.8</ele>
        <time>2020-06-22T07:55:37Z</time>
      </trkpt>
      <trkpt lat="50.55715" lon="1.6187">
        <ele>31.8</ele>
        <time>2020-06-22T07:55:38Z</time>
      </trkpt>
      <trkpt lat="50.55723" lon="1.61868">
        <ele>31.7</ele>
        <time>2020-06-22T07:55:39Z</time>
      </trkpt>
      <trkpt lat="50.55732" lon="1.61867">
        <ele>31.7</ele>
        <time>2020-06-22T07:55:40Z</time>
      </trkpt>
      <trkpt lat="50.55739" lon="1.61864">
        <ele>31.7</ele>
        <time>2020-06-22T07:55:41Z</time>
      </trkpt>
      <trkpt lat="50.55748" lon="1.61862">
        <ele>31.7</ele>
        <time>2020-06-22T07:55:42Z</time>
      </trkpt>
      <trkpt lat="50.55754" lon="1.61861">
        <ele>31.7</ele>
        <time>2020-06-22T07:55:43Z</time>
      </trkpt>
      <trkpt lat="50.55761" lon="1.61859">
        <ele>31.7</ele>
        <time>2020-06-22T07:55:44Z</time>
      </trkpt>
      <trkpt lat="50.55768" lon="1.61858">
        <ele>31.6</ele>
        <time>2020-06-22T07:55:45Z</time>
      </trkpt>
      <trkpt lat="50.55776" lon="1.61857">
        <ele>31.6</ele>
        <time>2020-06-22T07:55:46Z</time>
      </trkpt>
      <trkpt lat="50.55783" lon="1.61855">
        <ele>31.6</ele>
        <time>2020-06-22T07:55:47Z</time>
      </trkpt>
      <trkpt lat="50.55789" lon="1.61854">
        <ele>31.6</ele>
        <time>2020-06-22T07:55:48Z</time>
      </trkpt>
      <trkpt lat="50.55796" lon="1.61854">
        <ele>31.6</ele>
        <time>2020-06-22T07:55:49Z</time>
      </trkpt>
      <trkpt lat="50.55803" lon="1.61853">
        <ele>31.6</ele>
        <time>2020-06-22T07:55:50Z</time>
      </trkpt>
      <trkpt lat="50.5581" lon="1.61852">
        <ele>31.6</ele>
        <time>2020-06-22T07:55:51Z</time>
      </trkpt>
      <trkpt lat="50.55817" lon="1.61851">
        <ele>31.6</ele>
        <time>2020-06-22T07:55:52Z</time>
      </trkpt>
      <trkpt lat="50.55823" lon="1.6185">
        <ele>31.7</ele>
        <time>2020-06-22T07:55:53Z</time>
      </trkpt>
      <trkpt lat="50.55829" lon="1.6185">
        <ele>31.8</ele>
        <time>2020-06-22T07:55:54Z</time>
      </trkpt>
      <trkpt lat="50.55835" lon="1.61848">
        <ele>31.9</ele>
        <time>2020-06-22T07:55:55Z</time>
      </trkpt>
      <trkpt lat="50.55841" lon="1.61847">
        <ele>32</ele>
        <time>2020-06-22T07:55:56Z</time>
      </trkpt>
      <trkpt lat="50.55846" lon="1.61844">
        <ele>32</ele>
        <time>2020-06-22T07:55:57Z</time>
      </trkpt>
      <trkpt lat="50.55852" lon="1.61843">
        <ele>32.1</ele>
        <time>2020-06-22T07:55:58Z</time>
      </trkpt>
      <trkpt lat="50.55858" lon="1.61841">
        <ele>32.1</ele>
        <time>2020-06-22T07:55:59Z</time>
      </trkpt>
      <trkpt lat="50.55863" lon="1.61839">
        <ele>32.2</ele>
        <time>2020-06-22T07:56:00Z</time>
      </trkpt>
      <trkpt lat="50.55869" lon="1.61838">
        <ele>32.3</ele>
        <time>2020-06-22T07:56:01Z</time>
      </trkpt>
      <trkpt lat="50.55874" lon="1.61837">
        <ele>32.3</ele>
        <time>2020-06-22T07:56:02Z</time>
      </trkpt>
      <trkpt lat="50.55879" lon="1.61836">
        <ele>32.4</ele>
        <time>2020-06-22T07:56:03Z</time>
      </trkpt>
      <trkpt lat="50.55885" lon="1.61836">
        <ele>32.5</ele>
        <time>2020-06-22T07:56:04Z</time>
      </trkpt>
      <trkpt lat="50.55891" lon="1.61834">
        <ele>32.5</ele>
        <time>2020-06-22T07:56:05Z</time>
      </trkpt>
      <trkpt lat="50.55897" lon="1.61834">
        <ele>32.6</ele>
        <time>2020-06-22T07:56:06Z</time>
      </trkpt>
      <trkpt lat="50.55903" lon="1.61834">
        <ele>32.7</ele>
        <time>2020-06-22T07:56:07Z</time>
      </trkpt>
      <trkpt lat="50.55908" lon="1.61834">
        <ele>32.7</ele>
        <time>2020-06-22T07:56:08Z</time>
      </trkpt>
      <trkpt lat="50.55914" lon="1.61834">
        <ele>32.8</ele>
        <time>2020-06-22T07:56:09Z</time>
      </trkpt>
      <trkpt lat="50.5592" lon="1.61833">
        <ele>32.8</ele>
        <time>2020-06-22T07:56:10Z</time>
      </trkpt>
      <trkpt lat="50.55925" lon="1.61832">
        <ele>32.8</ele>
        <time>2020-06-22T07:56:11Z</time>
      </trkpt>
      <trkpt lat="50.55931" lon="1.61829">
        <ele>32.8</ele>
        <time>2020-06-22T07:56:12Z</time>
      </trkpt>
      <trkpt lat="50.55937" lon="1.61828">
        <ele>32.8</ele>
        <time>2020-06-22T07:56:13Z</time>
      </trkpt>
      <trkpt lat="50.55942" lon="1.61826">
        <ele>32.8</ele>
        <time>2020-06-22T07:56:14Z</time>
      </trkpt>
      <trkpt lat="50.55948" lon="1.61824">
        <ele>32.9</ele>
        <time>2020-06-22T07:56:15Z</time>
      </trkpt>
      <trkpt lat="50.55954" lon="1.61822">
        <ele>32.9</ele>
        <time>2020-06-22T07:56:16Z</time>
      </trkpt>
      <trkpt lat="50.55958" lon="1.6182">
        <ele>32.9</ele>
        <time>2020-06-22T07:56:17Z</time>
      </trkpt>
      <trkpt lat="50.55963" lon="1.61819">
        <ele>33</ele>
        <time>2020-06-22T07:56:18Z</time>
      </trkpt>
      <trkpt lat="50.5597" lon="1.61818">
        <ele>33</ele>
        <time>2020-06-22T07:56:19Z</time>
      </trkpt>
      <trkpt lat="50.55979" lon="1.61814">
        <ele>33.1</ele>
        <time>2020-06-22T07:56:20Z</time>
      </trkpt>
      <trkpt lat="50.55987" lon="1.61813">
        <ele>33.1</ele>
        <time>2020-06-22T07:56:21Z</time>
      </trkpt>
      <trkpt lat="50.55995" lon="1.61811">
        <ele>33.1</ele>
        <time>2020-06-22T07:56:22Z</time>
      </trkpt>
      <trkpt lat="50.56001" lon="1.61809">
        <ele>33.1</ele>
        <time>2020-06-22T07:56:23Z</time>
      </trkpt>
      <trkpt lat="50.56006" lon="1.61806">
        <ele>33.1</ele>
        <time>2020-06-22T07:56:24Z</time>
      </trkpt>
      <trkpt lat="50.56012" lon="1.61805">
        <ele>33.1</ele>
        <time>2020-06-22T07:56:25Z</time>
      </trkpt>
      <trkpt lat="50.56018" lon="1.61803">
        <ele>33.2</ele>
        <time>2020-06-22T07:56:26Z</time>
      </trkpt>
      <trkpt lat="50.56025" lon="1.61801">
        <ele>33.2</ele>
        <time>2020-06-22T07:56:27Z</time>
      </trkpt>
      <trkpt lat="50.56031" lon="1.61799">
        <ele>33.2</ele>
        <time>2020-06-22T07:56:28Z</time>
      </trkpt>
      <trkpt lat="50.56037" lon="1.61797">
        <ele>33.2</ele>
        <time>2020-06-22T07:56:29Z</time>
      </trkpt>
      <trkpt lat="50.56043" lon="1.61796">
        <ele>33.3</ele>
        <time>2020-06-22T07:56:30Z</time>
      </trkpt>
      <trkpt lat="50.5605" lon="1.61795">
        <ele>33.3</ele>
        <time>2020-06-22T07:56:31Z</time>
      </trkpt>
      <trkpt lat="50.56056" lon="1.61794">
        <ele>33.3</ele>
        <time>2020-06-22T07:56:32Z</time>
      </trkpt>
      <trkpt lat="50.56063" lon="1.61793">
        <ele>33.4</ele>
        <time>2020-06-22T07:56:33Z</time>
      </trkpt>
      <trkpt lat="50.5607" lon="1.61791">
        <ele>33.4</ele>
        <time>2020-06-22T07:56:34Z</time>
      </trkpt>
      <trkpt lat="50.56075" lon="1.6179">
        <ele>33.5</ele>
        <time>2020-06-22T07:56:35Z</time>
      </trkpt>
      <trkpt lat="50.56079" lon="1.61789">
        <ele>33.5</ele>
        <time>2020-06-22T07:56:36Z</time>
      </trkpt>
      <trkpt lat="50.56086" lon="1.61789">
        <ele>33.6</ele>
        <time>2020-06-22T07:56:37Z</time>
      </trkpt>
      <trkpt lat="50.56094" lon="1.61784">
        <ele>33.6</ele>
        <time>2020-06-22T07:56:38Z</time>
      </trkpt>
      <trkpt lat="50.56101" lon="1.61781">
        <ele>33.7</ele>
        <time>2020-06-22T07:56:39Z</time>
      </trkpt>
      <trkpt lat="50.56107" lon="1.61778">
        <ele>33.7</ele>
        <time>2020-06-22T07:56:40Z</time>
      </trkpt>
      <trkpt lat="50.56112" lon="1.61776">
        <ele>33.8</ele>
        <time>2020-06-22T07:56:41Z</time>
      </trkpt>
      <trkpt lat="50.56117" lon="1.61775">
        <ele>33.8</ele>
        <time>2020-06-22T07:56:42Z</time>
      </trkpt>
      <trkpt lat="50.56121" lon="1.61774">
        <ele>33.8</ele>
        <time>2020-06-22T07:56:43Z</time>
      </trkpt>
      <trkpt lat="50.56125" lon="1.61773">
        <ele>33.9</ele>
        <time>2020-06-22T07:56:44Z</time>
      </trkpt>
      <trkpt lat="50.56129" lon="1.61772">
        <ele>33.9</ele>
        <time>2020-06-22T07:56:45Z</time>
      </trkpt>
      <trkpt lat="50.56134" lon="1.61771">
        <ele>33.9</ele>
        <time>2020-06-22T07:56:46Z</time>
      </trkpt>
      <trkpt lat="50.56138" lon="1.61769">
        <ele>33.9</ele>
        <time>2020-06-22T07:56:47Z</time>
      </trkpt>
      <trkpt lat="50.56147" lon="1.61768">
        <ele>33.9</ele>
        <time>2020-06-22T07:56:48Z</time>
      </trkpt>
      <trkpt lat="50.56152" lon="1.61767">
        <ele>33.9</ele>
        <time>2020-06-22T07:56:49Z</time>
      </trkpt>
      <trkpt lat="50.56159" lon="1.61764">
        <ele>33.8</ele>
        <time>2020-06-22T07:56:50Z</time>
      </trkpt>
      <trkpt lat="50.56164" lon="1.61762">
        <ele>33.8</ele>
        <time>2020-06-22T07:56:51Z</time>
      </trkpt>
      <trkpt lat="50.5617" lon="1.61761">
        <ele>33.7</ele>
        <time>2020-06-22T07:56:52Z</time>
      </trkpt>
      <trkpt lat="50.56175" lon="1.6176">
        <ele>33.6</ele>
        <time>2020-06-22T07:56:53Z</time>
      </trkpt>
      <trkpt lat="50.56179" lon="1.61759">
        <ele>33.5</ele>
        <time>2020-06-22T07:56:54Z</time>
      </trkpt>
      <trkpt lat="50.5618" lon="1.61759">
        <ele>33.5</ele>
        <time>2020-06-22T07:56:55Z</time>
      </trkpt>
      <trkpt lat="50.56185" lon="1.61757">
        <ele>33.4</ele>
        <time>2020-06-22T07:56:56Z</time>
      </trkpt>
      <trkpt lat="50.56191" lon="1.61757">
        <ele>33.1</ele>
        <time>2020-06-22T07:56:57Z</time>
      </trkpt>
      <trkpt lat="50.56196" lon="1.61755">
        <ele>33</ele>
        <time>2020-06-22T07:56:58Z</time>
      </trkpt>
      <trkpt lat="50.562" lon="1.61754">
        <ele>32.8</ele>
        <time>2020-06-22T07:56:59Z</time>
      </trkpt>
      <trkpt lat="50.56205" lon="1.61753">
        <ele>32.6</ele>
        <time>2020-06-22T07:57:00Z</time>
      </trkpt>
      <trkpt lat="50.5621" lon="1.61751">
        <ele>32.4</ele>
        <time>2020-06-22T07:57:01Z</time>
      </trkpt>
      <trkpt lat="50.56217" lon="1.6175">
        <ele>32.2</ele>
        <time>2020-06-22T07:57:02Z</time>
      </trkpt>
      <trkpt lat="50.56222" lon="1.61747">
        <ele>31.9</ele>
        <time>2020-06-22T07:57:03Z</time>
      </trkpt>
      <trkpt lat="50.56227" lon="1.61738">
        <ele>31.7</ele>
        <time>2020-06-22T07:57:04Z</time>
      </trkpt>
      <trkpt lat="50.56229" lon="1.61729">
        <ele>31.2</ele>
        <time>2020-06-22T07:57:05Z</time>
      </trkpt>
      <trkpt lat="50.56232" lon="1.61717">
        <ele>30.7</ele>
        <time>2020-06-22T07:57:06Z</time>
      </trkpt>
      <trkpt lat="50.56233" lon="1.61705">
        <ele>30.2</ele>
        <time>2020-06-22T07:57:07Z</time>
      </trkpt>
      <trkpt lat="50.56231" lon="1.61688">
        <ele>29.4</ele>
        <time>2020-06-22T07:57:08Z</time>
      </trkpt>
      <trkpt lat="50.56228" lon="1.61675">
        <ele>28.9</ele>
        <time>2020-06-22T07:57:09Z</time>
      </trkpt>
      <trkpt lat="50.56226" lon="1.61661">
        <ele>28.3</ele>
        <time>2020-06-22T07:57:10Z</time>
      </trkpt>
      <trkpt lat="50.56223" lon="1.61651">
        <ele>27.9</ele>
        <time>2020-06-22T07:57:11Z</time>
      </trkpt>
      <trkpt lat="50.5622" lon="1.6164">
        <ele>27.4</ele>
        <time>2020-06-22T07:57:12Z</time>
      </trkpt>
      <trkpt lat="50.56218" lon="1.61627">
        <ele>26.9</ele>
        <time>2020-06-22T07:57:13Z</time>
      </trkpt>
      <trkpt lat="50.56216" lon="1.61614">
        <ele>26.4</ele>
        <time>2020-06-22T07:57:14Z</time>
      </trkpt>
      <trkpt lat="50.56213" lon="1.61602">
        <ele>26</ele>
        <time>2020-06-22T07:57:15Z</time>
      </trkpt>
      <trkpt lat="50.56212" lon="1.6159">
        <ele>25.6</ele>
        <time>2020-06-22T07:57:16Z</time>
      </trkpt>
      <trkpt lat="50.56211" lon="1.61577">
        <ele>25.3</ele>
        <time>2020-06-22T07:57:17Z</time>
      </trkpt>
      <trkpt lat="50.5621" lon="1.61564">
        <ele>24.9</ele>
        <time>2020-06-22T07:57:18Z</time>
      </trkpt>
      <trkpt lat="50.56208" lon="1.61552">
        <ele>24.6</ele>
        <time>2020-06-22T07:57:19Z</time>
      </trkpt>
      <trkpt lat="50.56207" lon="1.61539">
        <ele>24.2</ele>
        <time>2020-06-22T07:57:20Z</time>
      </trkpt>
      <trkpt lat="50.56205" lon="1.61527">
        <ele>23.9</ele>
        <time>2020-06-22T07:57:21Z</time>
      </trkpt>
      <trkpt lat="50.56204" lon="1.61514">
        <ele>23.6</ele>
        <time>2020-06-22T07:57:22Z</time>
      </trkpt>
      <trkpt lat="50.56203" lon="1.61501">
        <ele>23.3</ele>
        <time>2020-06-22T07:57:23Z</time>
      </trkpt>
      <trkpt lat="50.56201" lon="1.61489">
        <ele>23.1</ele>
        <time>2020-06-22T07:57:24Z</time>
      </trkpt>
      <trkpt lat="50.56199" lon="1.61478">
        <ele>22.9</ele>
        <time>2020-06-22T07:57:25Z</time>
      </trkpt>
      <trkpt lat="50.56198" lon="1.61466">
        <ele>22.8</ele>
        <time>2020-06-22T07:57:26Z</time>
      </trkpt>
      <trkpt lat="50.56196" lon="1.61456">
        <ele>22.8</ele>
        <time>2020-06-22T07:57:27Z</time>
      </trkpt>
      <trkpt lat="50.56195" lon="1.61445">
        <ele>22.8</ele>
        <time>2020-06-22T07:57:28Z</time>
      </trkpt>
      <trkpt lat="50.56193" lon="1.61435">
        <ele>22.7</ele>
        <time>2020-06-22T07:57:29Z</time>
      </trkpt>
      <trkpt lat="50.56192" lon="1.61426">
        <ele>22.7</ele>
        <time>2020-06-22T07:57:30Z</time>
      </trkpt>
      <trkpt lat="50.56191" lon="1.61418">
        <ele>23.1</ele>
        <time>2020-06-22T07:57:31Z</time>
      </trkpt>
      <trkpt lat="50.56192" lon="1.61411">
        <ele>23.2</ele>
        <time>2020-06-22T07:57:32Z</time>
      </trkpt>
      <trkpt lat="50.56193" lon="1.61404">
        <ele>23.3</ele>
        <time>2020-06-22T07:57:33Z</time>
      </trkpt>
      <trkpt lat="50.56195" lon="1.61398">
        <ele>23.1</ele>
        <time>2020-06-22T07:57:34Z</time>
      </trkpt>
      <trkpt lat="50.56198" lon="1.61392">
        <ele>22.8</ele>
        <time>2020-06-22T07:57:35Z</time>
      </trkpt>
      <trkpt lat="50.56201" lon="1.61387">
        <ele>22.5</ele>
        <time>2020-06-22T07:57:36Z</time>
      </trkpt>
      <trkpt lat="50.56205" lon="1.61381">
        <ele>22.2</ele>
        <time>2020-06-22T07:57:37Z</time>
      </trkpt>
      <trkpt lat="50.5621" lon="1.61376">
        <ele>21.9</ele>
        <time>2020-06-22T07:57:38Z</time>
      </trkpt>
      <trkpt lat="50.56216" lon="1.61371">
        <ele>21.5</ele>
        <time>2020-06-22T07:57:39Z</time>
      </trkpt>
      <trkpt lat="50.56221" lon="1.61365">
        <ele>21.2</ele>
        <time>2020-06-22T07:57:40Z</time>
      </trkpt>
      <trkpt lat="50.56226" lon="1.61361">
        <ele>20.8</ele>
        <time>2020-06-22T07:57:41Z</time>
      </trkpt>
      <trkpt lat="50.56232" lon="1.61356">
        <ele>20.4</ele>
        <time>2020-06-22T07:57:42Z</time>
      </trkpt>
      <trkpt lat="50.56239" lon="1.61352">
        <ele>20.1</ele>
        <time>2020-06-22T07:57:43Z</time>
      </trkpt>
      <trkpt lat="50.56246" lon="1.61349">
        <ele>19.7</ele>
        <time>2020-06-22T07:57:44Z</time>
      </trkpt>
      <trkpt lat="50.56254" lon="1.61349">
        <ele>19.5</ele>
        <time>2020-06-22T07:57:45Z</time>
      </trkpt>
      <trkpt lat="50.56262" lon="1.61347">
        <ele>19.3</ele>
        <time>2020-06-22T07:57:46Z</time>
      </trkpt>
      <trkpt lat="50.56269" lon="1.61346">
        <ele>19.1</ele>
        <time>2020-06-22T07:57:47Z</time>
      </trkpt>
      <trkpt lat="50.56277" lon="1.61345">
        <ele>18.8</ele>
        <time>2020-06-22T07:57:48Z</time>
      </trkpt>
      <trkpt lat="50.56284" lon="1.61344">
        <ele>18.8</ele>
        <time>2020-06-22T07:57:49Z</time>
      </trkpt>
      <trkpt lat="50.56291" lon="1.61343">
        <ele>18.8</ele>
        <time>2020-06-22T07:57:50Z</time>
      </trkpt>
      <trkpt lat="50.56298" lon="1.61341">
        <ele>18.8</ele>
        <time>2020-06-22T07:57:51Z</time>
      </trkpt>
      <trkpt lat="50.56304" lon="1.6134">
        <ele>18.7</ele>
        <time>2020-06-22T07:57:52Z</time>
      </trkpt>
      <trkpt lat="50.56311" lon="1.61339">
        <ele>18.7</ele>
        <time>2020-06-22T07:57:53Z</time>
      </trkpt>
      <trkpt lat="50.56317" lon="1.61338">
        <ele>18.7</ele>
        <time>2020-06-22T07:57:54Z</time>
      </trkpt>
      <trkpt lat="50.56324" lon="1.61338">
        <ele>18.8</ele>
        <time>2020-06-22T07:57:55Z</time>
      </trkpt>
      <trkpt lat="50.56331" lon="1.61336">
        <ele>18.8</ele>
        <time>2020-06-22T07:57:56Z</time>
      </trkpt>
      <trkpt lat="50.56338" lon="1.61335">
        <ele>18.9</ele>
        <time>2020-06-22T07:57:57Z</time>
      </trkpt>
      <trkpt lat="50.56344" lon="1.61333">
        <ele>19</ele>
        <time>2020-06-22T07:57:58Z</time>
      </trkpt>
      <trkpt lat="50.56351" lon="1.61333">
        <ele>19</ele>
        <time>2020-06-22T07:57:59Z</time>
      </trkpt>
      <trkpt lat="50.56357" lon="1.61332">
        <ele>19</ele>
        <time>2020-06-22T07:58:00Z</time>
      </trkpt>
      <trkpt lat="50.56363" lon="1.61332">
        <ele>19.1</ele>
        <time>2020-06-22T07:58:01Z</time>
      </trkpt>
      <trkpt lat="50.56369" lon="1.61332">
        <ele>19.1</ele>
        <time>2020-06-22T07:58:02Z</time>
      </trkpt>
      <trkpt lat="50.56376" lon="1.61331">
        <ele>19.2</ele>
        <time>2020-06-22T07:58:03Z</time>
      </trkpt>
      <trkpt lat="50.56382" lon="1.61331">
        <ele>19.3</ele>
        <time>2020-06-22T07:58:04Z</time>
      </trkpt>
      <trkpt lat="50.56388" lon="1.61331">
        <ele>19.4</ele>
        <time>2020-06-22T07:58:05Z</time>
      </trkpt>
      <trkpt lat="50.56395" lon="1.61333">
        <ele>19.5</ele>
        <time>2020-06-22T07:58:06Z</time>
      </trkpt>
      <trkpt lat="50.56401" lon="1.61334">
        <ele>19.6</ele>
        <time>2020-06-22T07:58:07Z</time>
      </trkpt>
      <trkpt lat="50.56407" lon="1.61336">
        <ele>19.7</ele>
        <time>2020-06-22T07:58:08Z</time>
      </trkpt>
      <trkpt lat="50.56413" lon="1.61337">
        <ele>19.8</ele>
        <time>2020-06-22T07:58:09Z</time>
      </trkpt>
      <trkpt lat="50.5642" lon="1.61337">
        <ele>19.9</ele>
        <time>2020-06-22T07:58:10Z</time>
      </trkpt>
      <trkpt lat="50.56426" lon="1.61337">
        <ele>20</ele>
        <time>2020-06-22T07:58:11Z</time>
      </trkpt>
      <trkpt lat="50.56432" lon="1.61336">
        <ele>20</ele>
        <time>2020-06-22T07:58:12Z</time>
      </trkpt>
      <trkpt lat="50.56438" lon="1.61338">
        <ele>20.1</ele>
        <time>2020-06-22T07:58:13Z</time>
      </trkpt>
      <trkpt lat="50.56444" lon="1.61339">
        <ele>20.2</ele>
        <time>2020-06-22T07:58:14Z</time>
      </trkpt>
      <trkpt lat="50.56449" lon="1.6134">
        <ele>20.2</ele>
        <time>2020-06-22T07:58:15Z</time>
      </trkpt>
      <trkpt lat="50.56455" lon="1.6134">
        <ele>20.3</ele>
        <time>2020-06-22T07:58:16Z</time>
      </trkpt>
      <trkpt lat="50.56461" lon="1.61341">
        <ele>20.3</ele>
        <time>2020-06-22T07:58:17Z</time>
      </trkpt>
      <trkpt lat="50.56467" lon="1.61341">
        <ele>20.4</ele>
        <time>2020-06-22T07:58:18Z</time>
      </trkpt>
      <trkpt lat="50.56472" lon="1.6134">
        <ele>20.4</ele>
        <time>2020-06-22T07:58:19Z</time>
      </trkpt>
      <trkpt lat="50.56478" lon="1.6134">
        <ele>20.5</ele>
        <time>2020-06-22T07:58:20Z</time>
      </trkpt>
      <trkpt lat="50.56484" lon="1.6134">
        <ele>20.5</ele>
        <time>2020-06-22T07:58:21Z</time>
      </trkpt>
      <trkpt lat="50.56489" lon="1.61341">
        <ele>20.6</ele>
        <time>2020-06-22T07:58:22Z</time>
      </trkpt>
      <trkpt lat="50.56494" lon="1.61341">
        <ele>20.6</ele>
        <time>2020-06-22T07:58:23Z</time>
      </trkpt>
      <trkpt lat="50.56501" lon="1.61342">
        <ele>20.7</ele>
        <time>2020-06-22T07:58:24Z</time>
      </trkpt>
      <trkpt lat="50.56506" lon="1.61343">
        <ele>20.8</ele>
        <time>2020-06-22T07:58:25Z</time>
      </trkpt>
      <trkpt lat="50.56512" lon="1.61343">
        <ele>20.8</ele>
        <time>2020-06-22T07:58:26Z</time>
      </trkpt>
      <trkpt lat="50.56517" lon="1.61343">
        <ele>20.9</ele>
        <time>2020-06-22T07:58:27Z</time>
      </trkpt>
      <trkpt lat="50.56523" lon="1.61344">
        <ele>20.9</ele>
        <time>2020-06-22T07:58:28Z</time>
      </trkpt>
      <trkpt lat="50.56528" lon="1.61344">
        <ele>20.9</ele>
        <time>2020-06-22T07:58:29Z</time>
      </trkpt>
      <trkpt lat="50.56534" lon="1.61345">
        <ele>21</ele>
        <time>2020-06-22T07:58:30Z</time>
      </trkpt>
      <trkpt lat="50.56541" lon="1.61345">
        <ele>21.1</ele>
        <time>2020-06-22T07:58:31Z</time>
      </trkpt>
      <trkpt lat="50.56545" lon="1.61345">
        <ele>21.2</ele>
        <time>2020-06-22T07:58:32Z</time>
      </trkpt>
      <trkpt lat="50.5655" lon="1.61346">
        <ele>21.3</ele>
        <time>2020-06-22T07:58:33Z</time>
      </trkpt>
      <trkpt lat="50.56554" lon="1.61346">
        <ele>21.3</ele>
        <time>2020-06-22T07:58:34Z</time>
      </trkpt>
      <trkpt lat="50.56559" lon="1.61346">
        <ele>21.4</ele>
        <time>2020-06-22T07:58:35Z</time>
      </trkpt>
      <trkpt lat="50.56564" lon="1.61348">
        <ele>21.5</ele>
        <time>2020-06-22T07:58:36Z</time>
      </trkpt>
      <trkpt lat="50.5657" lon="1.61349">
        <ele>21.6</ele>
        <time>2020-06-22T07:58:37Z</time>
      </trkpt>
      <trkpt lat="50.56575" lon="1.61349">
        <ele>21.7</ele>
        <time>2020-06-22T07:58:38Z</time>
      </trkpt>
      <trkpt lat="50.56581" lon="1.6135">
        <ele>21.7</ele>
        <time>2020-06-22T07:58:39Z</time>
      </trkpt>
      <trkpt lat="50.56586" lon="1.61351">
        <ele>21.7</ele>
        <time>2020-06-22T07:58:40Z</time>
      </trkpt>
      <trkpt lat="50.56593" lon="1.61352">
        <ele>21.7</ele>
        <time>2020-06-22T07:58:41Z</time>
      </trkpt>
      <trkpt lat="50.56597" lon="1.61353">
        <ele>21.7</ele>
        <time>2020-06-22T07:58:42Z</time>
      </trkpt>
      <trkpt lat="50.56602" lon="1.61355">
        <ele>21.7</ele>
        <time>2020-06-22T07:58:43Z</time>
      </trkpt>
      <trkpt lat="50.56607" lon="1.61356">
        <ele>21.7</ele>
        <time>2020-06-22T07:58:44Z</time>
      </trkpt>
      <trkpt lat="50.56611" lon="1.61356">
        <ele>21.7</ele>
        <time>2020-06-22T07:58:45Z</time>
      </trkpt>
      <trkpt lat="50.56614" lon="1.61355">
        <ele>21.7</ele>
        <time>2020-06-22T07:58:46Z</time>
      </trkpt>
      <trkpt lat="50.56618" lon="1.61354">
        <ele>21.8</ele>
        <time>2020-06-22T07:58:47Z</time>
      </trkpt>
      <trkpt lat="50.56622" lon="1.61356">
        <ele>21.8</ele>
        <time>2020-06-22T07:58:48Z</time>
      </trkpt>
      <trkpt lat="50.56627" lon="1.61357">
        <ele>21.7</ele>
        <time>2020-06-22T07:58:49Z</time>
      </trkpt>
      <trkpt lat="50.56631" lon="1.61358">
        <ele>21.7</ele>
        <time>2020-06-22T07:58:50Z</time>
      </trkpt>
      <trkpt lat="50.56634" lon="1.61358">
        <ele>21.7</ele>
        <time>2020-06-22T07:58:51Z</time>
      </trkpt>
      <trkpt lat="50.56638" lon="1.61359">
        <ele>21.7</ele>
        <time>2020-06-22T07:58:52Z</time>
      </trkpt>
      <trkpt lat="50.56641" lon="1.61359">
        <ele>21.7</ele>
        <time>2020-06-22T07:58:53Z</time>
      </trkpt>
      <trkpt lat="50.56645" lon="1.6136">
        <ele>21.6</ele>
        <time>2020-06-22T07:58:54Z</time>
      </trkpt>
      <trkpt lat="50.5665" lon="1.61361">
        <ele>21.6</ele>
        <time>2020-06-22T07:58:55Z</time>
      </trkpt>
      <trkpt lat="50.56658" lon="1.61362">
        <ele>21.5</ele>
        <time>2020-06-22T07:58:56Z</time>
      </trkpt>
      <trkpt lat="50.56665" lon="1.61362">
        <ele>21.4</ele>
        <time>2020-06-22T07:58:57Z</time>
      </trkpt>
      <trkpt lat="50.5667" lon="1.61362">
        <ele>21.4</ele>
        <time>2020-06-22T07:58:58Z</time>
      </trkpt>
      <trkpt lat="50.56677" lon="1.61361">
        <ele>21.3</ele>
        <time>2020-06-22T07:58:59Z</time>
      </trkpt>
      <trkpt lat="50.56683" lon="1.6136">
        <ele>21.3</ele>
        <time>2020-06-22T07:59:00Z</time>
      </trkpt>
      <trkpt lat="50.56689" lon="1.61361">
        <ele>21.2</ele>
        <time>2020-06-22T07:59:01Z</time>
      </trkpt>
      <trkpt lat="50.56695" lon="1.61361">
        <ele>21.2</ele>
        <time>2020-06-22T07:59:02Z</time>
      </trkpt>
      <trkpt lat="50.56699" lon="1.61362">
        <ele>21.2</ele>
        <time>2020-06-22T07:59:03Z</time>
      </trkpt>
      <trkpt lat="50.56705" lon="1.61361">
        <ele>21.1</ele>
        <time>2020-06-22T07:59:04Z</time>
      </trkpt>
      <trkpt lat="50.5671" lon="1.61361">
        <ele>21.1</ele>
        <time>2020-06-22T07:59:05Z</time>
      </trkpt>
      <trkpt lat="50.56716" lon="1.6136">
        <ele>21.1</ele>
        <time>2020-06-22T07:59:06Z</time>
      </trkpt>
      <trkpt lat="50.56722" lon="1.61361">
        <ele>21.1</ele>
        <time>2020-06-22T07:59:07Z</time>
      </trkpt>
      <trkpt lat="50.56729" lon="1.61361">
        <ele>21.1</ele>
        <time>2020-06-22T07:59:08Z</time>
      </trkpt>
      <trkpt lat="50.56734" lon="1.61361">
        <ele>21.1</ele>
        <time>2020-06-22T07:59:09Z</time>
      </trkpt>
      <trkpt lat="50.5674" lon="1.61361">
        <ele>21.1</ele>
        <time>2020-06-22T07:59:10Z</time>
      </trkpt>
      <trkpt lat="50.56746" lon="1.61361">
        <ele>21.1</ele>
        <time>2020-06-22T07:59:11Z</time>
      </trkpt>
      <trkpt lat="50.56753" lon="1.61362">
        <ele>21.2</ele>
        <time>2020-06-22T07:59:12Z</time>
      </trkpt>
      <trkpt lat="50.5676" lon="1.61362">
        <ele>21.3</ele>
        <time>2020-06-22T07:59:13Z</time>
      </trkpt>
      <trkpt lat="50.56768" lon="1.61363">
        <ele>21.4</ele>
        <time>2020-06-22T07:59:14Z</time>
      </trkpt>
      <trkpt lat="50.56775" lon="1.61363">
        <ele>21.5</ele>
        <time>2020-06-22T07:59:15Z</time>
      </trkpt>
      <trkpt lat="50.56781" lon="1.61363">
        <ele>21.5</ele>
        <time>2020-06-22T07:59:16Z</time>
      </trkpt>
      <trkpt lat="50.56786" lon="1.61363">
        <ele>21.5</ele>
        <time>2020-06-22T07:59:17Z</time>
      </trkpt>
      <trkpt lat="50.56792" lon="1.61364">
        <ele>21.6</ele>
        <time>2020-06-22T07:59:18Z</time>
      </trkpt>
      <trkpt lat="50.56797" lon="1.61364">
        <ele>21.6</ele>
        <time>2020-06-22T07:59:19Z</time>
      </trkpt>
      <trkpt lat="50.56803" lon="1.61365">
        <ele>21.7</ele>
        <time>2020-06-22T07:59:20Z</time>
      </trkpt>
      <trkpt lat="50.56809" lon="1.61365">
        <ele>21.7</ele>
        <time>2020-06-22T07:59:21Z</time>
      </trkpt>
      <trkpt lat="50.56814" lon="1.61367">
        <ele>21.8</ele>
        <time>2020-06-22T07:59:22Z</time>
      </trkpt>
      <trkpt lat="50.56821" lon="1.61366">
        <ele>21.9</ele>
        <time>2020-06-22T07:59:23Z</time>
      </trkpt>
      <trkpt lat="50.56826" lon="1.61366">
        <ele>21.9</ele>
        <time>2020-06-22T07:59:24Z</time>
      </trkpt>
      <trkpt lat="50.5683" lon="1.61366">
        <ele>22</ele>
        <time>2020-06-22T07:59:25Z</time>
      </trkpt>
      <trkpt lat="50.56837" lon="1.61365">
        <ele>22</ele>
        <time>2020-06-22T07:59:26Z</time>
      </trkpt>
      <trkpt lat="50.56842" lon="1.61364">
        <ele>22.1</ele>
        <time>2020-06-22T07:59:27Z</time>
      </trkpt>
      <trkpt lat="50.56848" lon="1.61366">
        <ele>22.1</ele>
        <time>2020-06-22T07:59:28Z</time>
      </trkpt>
      <trkpt lat="50.56852" lon="1.61366">
        <ele>22.1</ele>
        <time>2020-06-22T07:59:29Z</time>
      </trkpt>
      <trkpt lat="50.56856" lon="1.61366">
        <ele>22.1</ele>
        <time>2020-06-22T07:59:30Z</time>
      </trkpt>
      <trkpt lat="50.5686" lon="1.61366">
        <ele>22.1</ele>
        <time>2020-06-22T07:59:31Z</time>
      </trkpt>
      <trkpt lat="50.56867" lon="1.61365">
        <ele>21.9</ele>
        <time>2020-06-22T07:59:32Z</time>
      </trkpt>
      <trkpt lat="50.56871" lon="1.61365">
        <ele>21.9</ele>
        <time>2020-06-22T07:59:33Z</time>
      </trkpt>
      <trkpt lat="50.56877" lon="1.61365">
        <ele>21.8</ele>
        <time>2020-06-22T07:59:34Z</time>
      </trkpt>
      <trkpt lat="50.56882" lon="1.61364">
        <ele>21.7</ele>
        <time>2020-06-22T07:59:35Z</time>
      </trkpt>
      <trkpt lat="50.56889" lon="1.61363">
        <ele>21.7</ele>
        <time>2020-06-22T07:59:36Z</time>
      </trkpt>
      <trkpt lat="50.56895" lon="1.61362">
        <ele>21.6</ele>
        <time>2020-06-22T07:59:37Z</time>
      </trkpt>
      <trkpt lat="50.569" lon="1.61362">
        <ele>21.6</ele>
        <time>2020-06-22T07:59:38Z</time>
      </trkpt>
      <trkpt lat="50.56906" lon="1.61362">
        <ele>21.5</ele>
        <time>2020-06-22T07:59:39Z</time>
      </trkpt>
      <trkpt lat="50.56913" lon="1.61362">
        <ele>21.4</ele>
        <time>2020-06-22T07:59:40Z</time>
      </trkpt>
      <trkpt lat="50.56918" lon="1.61361">
        <ele>21.4</ele>
        <time>2020-06-22T07:59:41Z</time>
      </trkpt>
      <trkpt lat="50.56925" lon="1.6136">
        <ele>21.4</ele>
        <time>2020-06-22T07:59:42Z</time>
      </trkpt>
      <trkpt lat="50.56932" lon="1.61361">
        <ele>21.3</ele>
        <time>2020-06-22T07:59:43Z</time>
      </trkpt>
      <trkpt lat="50.56938" lon="1.6136">
        <ele>21.3</ele>
        <time>2020-06-22T07:59:44Z</time>
      </trkpt>
      <trkpt lat="50.56944" lon="1.6136">
        <ele>21.2</ele>
        <time>2020-06-22T07:59:45Z</time>
      </trkpt>
      <trkpt lat="50.56949" lon="1.6136">
        <ele>21.2</ele>
        <time>2020-06-22T07:59:46Z</time>
      </trkpt>
      <trkpt lat="50.56954" lon="1.61359">
        <ele>21.2</ele>
        <time>2020-06-22T07:59:47Z</time>
      </trkpt>
      <trkpt lat="50.56962" lon="1.61359">
        <ele>21.1</ele>
        <time>2020-06-22T07:59:48Z</time>
      </trkpt>
      <trkpt lat="50.5697" lon="1.6136">
        <ele>21.1</ele>
        <time>2020-06-22T07:59:49Z</time>
      </trkpt>
      <trkpt lat="50.56977" lon="1.61359">
        <ele>21</ele>
        <time>2020-06-22T07:59:50Z</time>
      </trkpt>
      <trkpt lat="50.56984" lon="1.61359">
        <ele>21</ele>
        <time>2020-06-22T07:59:51Z</time>
      </trkpt>
      <trkpt lat="50.5699" lon="1.61358">
        <ele>21</ele>
        <time>2020-06-22T07:59:52Z</time>
      </trkpt>
      <trkpt lat="50.56997" lon="1.61359">
        <ele>21.1</ele>
        <time>2020-06-22T07:59:53Z</time>
      </trkpt>
      <trkpt lat="50.57003" lon="1.61358">
        <ele>21.1</ele>
        <time>2020-06-22T07:59:54Z</time>
      </trkpt>
      <trkpt lat="50.57008" lon="1.61356">
        <ele>21.2</ele>
        <time>2020-06-22T07:59:55Z</time>
      </trkpt>
      <trkpt lat="50.57014" lon="1.61357">
        <ele>21.2</ele>
        <time>2020-06-22T07:59:56Z</time>
      </trkpt>
      <trkpt lat="50.5702" lon="1.61356">
        <ele>21.2</ele>
        <time>2020-06-22T07:59:57Z</time>
      </trkpt>
      <trkpt lat="50.57026" lon="1.61356">
        <ele>21.1</ele>
        <time>2020-06-22T07:59:58Z</time>
      </trkpt>
      <trkpt lat="50.57033" lon="1.61356">
        <ele>21.1</ele>
        <time>2020-06-22T07:59:59Z</time>
      </trkpt>
      <trkpt lat="50.57039" lon="1.61355">
        <ele>21</ele>
        <time>2020-06-22T08:00:00Z</time>
      </trkpt>
      <trkpt lat="50.57046" lon="1.61355">
        <ele>21</ele>
        <time>2020-06-22T08:00:01Z</time>
      </trkpt>
      <trkpt lat="50.57053" lon="1.61354">
        <ele>20.9</ele>
        <time>2020-06-22T08:00:02Z</time>
      </trkpt>
      <trkpt lat="50.5706" lon="1.61355">
        <ele>20.9</ele>
        <time>2020-06-22T08:00:03Z</time>
      </trkpt>
      <trkpt lat="50.57066" lon="1.61355">
        <ele>20.9</ele>
        <time>2020-06-22T08:00:04Z</time>
      </trkpt>
      <trkpt lat="50.57072" lon="1.61354">
        <ele>20.9</ele>
        <time>2020-06-22T08:00:05Z</time>
      </trkpt>
      <trkpt lat="50.57077" lon="1.61354">
        <ele>20.9</ele>
        <time>2020-06-22T08:00:06Z</time>
      </trkpt>
      <trkpt lat="50.57083" lon="1.61353">
        <ele>20.9</ele>
        <time>2020-06-22T08:00:07Z</time>
      </trkpt>
      <trkpt lat="50.57088" lon="1.61352">
        <ele>20.9</ele>
        <time>2020-06-22T08:00:08Z</time>
      </trkpt>
      <trkpt lat="50.57096" lon="1.61351">
        <ele>20.9</ele>
        <time>2020-06-22T08:00:09Z</time>
      </trkpt>
      <trkpt lat="50.57102" lon="1.61351">
        <ele>20.9</ele>
        <time>2020-06-22T08:00:10Z</time>
      </trkpt>
      <trkpt lat="50.57107" lon="1.61349">
        <ele>20.9</ele>
        <time>2020-06-22T08:00:11Z</time>
      </trkpt>
      <trkpt lat="50.57114" lon="1.6135">
        <ele>20.9</ele>
        <time>2020-06-22T08:00:12Z</time>
      </trkpt>
      <trkpt lat="50.57121" lon="1.61348">
        <ele>20.9</ele>
        <time>2020-06-22T08:00:13Z</time>
      </trkpt>
      <trkpt lat="50.57127" lon="1.61347">
        <ele>20.9</ele>
        <time>2020-06-22T08:00:14Z</time>
      </trkpt>
      <trkpt lat="50.57134" lon="1.61346">
        <ele>21</ele>
        <time>2020-06-22T08:00:15Z</time>
      </trkpt>
      <trkpt lat="50.57141" lon="1.61344">
        <ele>21</ele>
        <time>2020-06-22T08:00:16Z</time>
      </trkpt>
      <trkpt lat="50.57148" lon="1.61343">
        <ele>21</ele>
        <time>2020-06-22T08:00:17Z</time>
      </trkpt>
      <trkpt lat="50.57155" lon="1.61343">
        <ele>21</ele>
        <time>2020-06-22T08:00:18Z</time>
      </trkpt>
      <trkpt lat="50.57161" lon="1.61341">
        <ele>21.1</ele>
        <time>2020-06-22T08:00:19Z</time>
      </trkpt>
      <trkpt lat="50.57167" lon="1.61339">
        <ele>21.1</ele>
        <time>2020-06-22T08:00:20Z</time>
      </trkpt>
      <trkpt lat="50.57173" lon="1.61336">
        <ele>21.1</ele>
        <time>2020-06-22T08:00:21Z</time>
      </trkpt>
      <trkpt lat="50.57179" lon="1.61334">
        <ele>21.1</ele>
        <time>2020-06-22T08:00:22Z</time>
      </trkpt>
      <trkpt lat="50.57186" lon="1.61332">
        <ele>21.2</ele>
        <time>2020-06-22T08:00:23Z</time>
      </trkpt>
      <trkpt lat="50.57192" lon="1.6133">
        <ele>21.2</ele>
        <time>2020-06-22T08:00:24Z</time>
      </trkpt>
      <trkpt lat="50.57198" lon="1.61328">
        <ele>21.3</ele>
        <time>2020-06-22T08:00:25Z</time>
      </trkpt>
      <trkpt lat="50.57205" lon="1.61327">
        <ele>21.3</ele>
        <time>2020-06-22T08:00:26Z</time>
      </trkpt>
      <trkpt lat="50.57211" lon="1.61325">
        <ele>21.4</ele>
        <time>2020-06-22T08:00:27Z</time>
      </trkpt>
      <trkpt lat="50.57216" lon="1.61323">
        <ele>21.5</ele>
        <time>2020-06-22T08:00:28Z</time>
      </trkpt>
      <trkpt lat="50.57222" lon="1.61321">
        <ele>21.6</ele>
        <time>2020-06-22T08:00:29Z</time>
      </trkpt>
      <trkpt lat="50.57228" lon="1.61318">
        <ele>21.7</ele>
        <time>2020-06-22T08:00:30Z</time>
      </trkpt>
      <trkpt lat="50.57233" lon="1.61315">
        <ele>21.7</ele>
        <time>2020-06-22T08:00:31Z</time>
      </trkpt>
      <trkpt lat="50.57236" lon="1.61312">
        <ele>21.8</ele>
        <time>2020-06-22T08:00:32Z</time>
      </trkpt>
      <trkpt lat="50.57242" lon="1.61311">
        <ele>21.9</ele>
        <time>2020-06-22T08:00:33Z</time>
      </trkpt>
      <trkpt lat="50.57247" lon="1.6131">
        <ele>22</ele>
        <time>2020-06-22T08:00:34Z</time>
      </trkpt>
      <trkpt lat="50.57252" lon="1.61308">
        <ele>22</ele>
        <time>2020-06-22T08:00:35Z</time>
      </trkpt>
      <trkpt lat="50.57257" lon="1.61306">
        <ele>22.1</ele>
        <time>2020-06-22T08:00:36Z</time>
      </trkpt>
      <trkpt lat="50.57262" lon="1.61305">
        <ele>22.2</ele>
        <time>2020-06-22T08:00:37Z</time>
      </trkpt>
      <trkpt lat="50.57265" lon="1.61304">
        <ele>22.2</ele>
        <time>2020-06-22T08:00:38Z</time>
      </trkpt>
      <trkpt lat="50.57268" lon="1.61304">
        <ele>22.3</ele>
        <time>2020-06-22T08:00:39Z</time>
      </trkpt>
      <trkpt lat="50.57272" lon="1.61302">
        <ele>22.3</ele>
        <time>2020-06-22T08:00:40Z</time>
      </trkpt>
      <trkpt lat="50.57278" lon="1.61302">
        <ele>22.4</ele>
        <time>2020-06-22T08:00:41Z</time>
      </trkpt>
      <trkpt lat="50.57284" lon="1.61301">
        <ele>22.5</ele>
        <time>2020-06-22T08:00:42Z</time>
      </trkpt>
      <trkpt lat="50.57289" lon="1.61299">
        <ele>22.6</ele>
        <time>2020-06-22T08:00:43Z</time>
      </trkpt>
      <trkpt lat="50.57295" lon="1.61297">
        <ele>22.7</ele>
        <time>2020-06-22T08:00:44Z</time>
      </trkpt>
      <trkpt lat="50.57301" lon="1.61295">
        <ele>22.8</ele>
        <time>2020-06-22T08:00:45Z</time>
      </trkpt>
      <trkpt lat="50.57305" lon="1.61293">
        <ele>22.9</ele>
        <time>2020-06-22T08:00:46Z</time>
      </trkpt>
      <trkpt lat="50.57311" lon="1.61292">
        <ele>22.9</ele>
        <time>2020-06-22T08:00:47Z</time>
      </trkpt>
      <trkpt lat="50.57317" lon="1.6129">
        <ele>23</ele>
        <time>2020-06-22T08:00:48Z</time>
      </trkpt>
      <trkpt lat="50.57322" lon="1.61289">
        <ele>23</ele>
        <time>2020-06-22T08:00:49Z</time>
      </trkpt>
      <trkpt lat="50.57328" lon="1.61288">
        <ele>23.1</ele>
        <time>2020-06-22T08:00:50Z</time>
      </trkpt>
      <trkpt lat="50.57331" lon="1.61285">
        <ele>23.1</ele>
        <time>2020-06-22T08:00:51Z</time>
      </trkpt>
      <trkpt lat="50.57336" lon="1.61283">
        <ele>23.1</ele>
        <time>2020-06-22T08:00:52Z</time>
      </trkpt>
      <trkpt lat="50.57342" lon="1.61281">
        <ele>23.2</ele>
        <time>2020-06-22T08:00:53Z</time>
      </trkpt>
      <trkpt lat="50.57348" lon="1.6128">
        <ele>23.2</ele>
        <time>2020-06-22T08:00:54Z</time>
      </trkpt>
      <trkpt lat="50.57354" lon="1.61279">
        <ele>23.3</ele>
        <time>2020-06-22T08:00:55Z</time>
      </trkpt>
      <trkpt lat="50.5736" lon="1.61277">
        <ele>23.3</ele>
        <time>2020-06-22T08:00:56Z</time>
      </trkpt>
      <trkpt lat="50.57368" lon="1.61275">
        <ele>23.3</ele>
        <time>2020-06-22T08:00:57Z</time>
      </trkpt>
      <trkpt lat="50.57374" lon="1.61273">
        <ele>23.3</ele>
        <time>2020-06-22T08:00:58Z</time>
      </trkpt>
      <trkpt lat="50.57379" lon="1.61271">
        <ele>23.3</ele>
        <time>2020-06-22T08:00:59Z</time>
      </trkpt>
      <trkpt lat="50.57385" lon="1.6127">
        <ele>23.3</ele>
        <time>2020-06-22T08:01:00Z</time>
      </trkpt>
      <trkpt lat="50.5739" lon="1.61269">
        <ele>23.4</ele>
        <time>2020-06-22T08:01:01Z</time>
      </trkpt>
      <trkpt lat="50.57395" lon="1.61267">
        <ele>23.4</ele>
        <time>2020-06-22T08:01:02Z</time>
      </trkpt>
      <trkpt lat="50.57403" lon="1.61267">
        <ele>23.3</ele>
        <time>2020-06-22T08:01:03Z</time>
      </trkpt>
      <trkpt lat="50.57411" lon="1.61266">
        <ele>23.3</ele>
        <time>2020-06-22T08:01:04Z</time>
      </trkpt>
      <trkpt lat="50.57419" lon="1.61265">
        <ele>23.3</ele>
        <time>2020-06-22T08:01:05Z</time>
      </trkpt>
      <trkpt lat="50.57426" lon="1.61264">
        <ele>23.3</ele>
        <time>2020-06-22T08:01:06Z</time>
      </trkpt>
      <trkpt lat="50.57432" lon="1.61264">
        <ele>23.3</ele>
        <time>2020-06-22T08:01:07Z</time>
      </trkpt>
      <trkpt lat="50.57438" lon="1.61263">
        <ele>23.3</ele>
        <time>2020-06-22T08:01:08Z</time>
      </trkpt>
      <trkpt lat="50.57443" lon="1.61261">
        <ele>23.2</ele>
        <time>2020-06-22T08:01:09Z</time>
      </trkpt>
      <trkpt lat="50.57449" lon="1.61261">
        <ele>23.2</ele>
        <time>2020-06-22T08:01:10Z</time>
      </trkpt>
      <trkpt lat="50.57455" lon="1.6126">
        <ele>23.2</ele>
        <time>2020-06-22T08:01:11Z</time>
      </trkpt>
      <trkpt lat="50.57461" lon="1.6126">
        <ele>23.2</ele>
        <time>2020-06-22T08:01:12Z</time>
      </trkpt>
      <trkpt lat="50.57466" lon="1.6126">
        <ele>23.2</ele>
        <time>2020-06-22T08:01:13Z</time>
      </trkpt>
      <trkpt lat="50.57472" lon="1.6126">
        <ele>23.2</ele>
        <time>2020-06-22T08:01:14Z</time>
      </trkpt>
      <trkpt lat="50.57478" lon="1.61259">
        <ele>23.3</ele>
        <time>2020-06-22T08:01:15Z</time>
      </trkpt>
      <trkpt lat="50.57483" lon="1.6126">
        <ele>23.3</ele>
        <time>2020-06-22T08:01:16Z</time>
      </trkpt>
      <trkpt lat="50.57489" lon="1.6126">
        <ele>23.4</ele>
        <time>2020-06-22T08:01:17Z</time>
      </trkpt>
      <trkpt lat="50.57495" lon="1.61261">
        <ele>23.4</ele>
        <time>2020-06-22T08:01:18Z</time>
      </trkpt>
      <trkpt lat="50.575" lon="1.61258">
        <ele>23.5</ele>
        <time>2020-06-22T08:01:19Z</time>
      </trkpt>
      <trkpt lat="50.57506" lon="1.61258">
        <ele>23.5</ele>
        <time>2020-06-22T08:01:20Z</time>
      </trkpt>
      <trkpt lat="50.57512" lon="1.61257">
        <ele>23.6</ele>
        <time>2020-06-22T08:01:21Z</time>
      </trkpt>
      <trkpt lat="50.57518" lon="1.61256">
        <ele>23.7</ele>
        <time>2020-06-22T08:01:22Z</time>
      </trkpt>
      <trkpt lat="50.57524" lon="1.61257">
        <ele>23.7</ele>
        <time>2020-06-22T08:01:23Z</time>
      </trkpt>
      <trkpt lat="50.57531" lon="1.61259">
        <ele>23.8</ele>
        <time>2020-06-22T08:01:24Z</time>
      </trkpt>
      <trkpt lat="50.57537" lon="1.6126">
        <ele>23.9</ele>
        <time>2020-06-22T08:01:25Z</time>
      </trkpt>
      <trkpt lat="50.57542" lon="1.61262">
        <ele>23.9</ele>
        <time>2020-06-22T08:01:26Z</time>
      </trkpt>
      <trkpt lat="50.57548" lon="1.61262">
        <ele>23.9</ele>
        <time>2020-06-22T08:01:27Z</time>
      </trkpt>
      <trkpt lat="50.57552" lon="1.61262">
        <ele>24</ele>
        <time>2020-06-22T08:01:28Z</time>
      </trkpt>
      <trkpt lat="50.57558" lon="1.61262">
        <ele>24</ele>
        <time>2020-06-22T08:01:29Z</time>
      </trkpt>
      <trkpt lat="50.57562" lon="1.61261">
        <ele>24</ele>
        <time>2020-06-22T08:01:30Z</time>
      </trkpt>
      <trkpt lat="50.57567" lon="1.61262">
        <ele>24.1</ele>
        <time>2020-06-22T08:01:31Z</time>
      </trkpt>
      <trkpt lat="50.57573" lon="1.61261">
        <ele>24.1</ele>
        <time>2020-06-22T08:01:32Z</time>
      </trkpt>
      <trkpt lat="50.5758" lon="1.61261">
        <ele>24.2</ele>
        <time>2020-06-22T08:01:33Z</time>
      </trkpt>
      <trkpt lat="50.57587" lon="1.61261">
        <ele>24.2</ele>
        <time>2020-06-22T08:01:34Z</time>
      </trkpt>
      <trkpt lat="50.57594" lon="1.61261">
        <ele>24.3</ele>
        <time>2020-06-22T08:01:35Z</time>
      </trkpt>
      <trkpt lat="50.576" lon="1.61261">
        <ele>24.4</ele>
        <time>2020-06-22T08:01:36Z</time>
      </trkpt>
      <trkpt lat="50.57605" lon="1.61261">
        <ele>24.5</ele>
        <time>2020-06-22T08:01:37Z</time>
      </trkpt>
      <trkpt lat="50.5761" lon="1.61262">
        <ele>24.5</ele>
        <time>2020-06-22T08:01:38Z</time>
      </trkpt>
      <trkpt lat="50.57616" lon="1.61264">
        <ele>24.6</ele>
        <time>2020-06-22T08:01:39Z</time>
      </trkpt>
      <trkpt lat="50.57621" lon="1.61264">
        <ele>24.6</ele>
        <time>2020-06-22T08:01:40Z</time>
      </trkpt>
      <trkpt lat="50.57627" lon="1.61263">
        <ele>24.7</ele>
        <time>2020-06-22T08:01:41Z</time>
      </trkpt>
      <trkpt lat="50.57634" lon="1.61262">
        <ele>24.7</ele>
        <time>2020-06-22T08:01:42Z</time>
      </trkpt>
      <trkpt lat="50.5764" lon="1.61262">
        <ele>24.8</ele>
        <time>2020-06-22T08:01:43Z</time>
      </trkpt>
      <trkpt lat="50.57645" lon="1.6126">
        <ele>24.8</ele>
        <time>2020-06-22T08:01:44Z</time>
      </trkpt>
      <trkpt lat="50.57652" lon="1.61261">
        <ele>24.9</ele>
        <time>2020-06-22T08:01:45Z</time>
      </trkpt>
      <trkpt lat="50.57657" lon="1.6126">
        <ele>24.9</ele>
        <time>2020-06-22T08:01:46Z</time>
      </trkpt>
      <trkpt lat="50.57662" lon="1.6126">
        <ele>24.9</ele>
        <time>2020-06-22T08:01:47Z</time>
      </trkpt>
      <trkpt lat="50.57668" lon="1.6126">
        <ele>24.9</ele>
        <time>2020-06-22T08:01:48Z</time>
      </trkpt>
      <trkpt lat="50.57674" lon="1.61259">
        <ele>24.9</ele>
        <time>2020-06-22T08:01:49Z</time>
      </trkpt>
      <trkpt lat="50.57679" lon="1.61259">
        <ele>24.9</ele>
        <time>2020-06-22T08:01:50Z</time>
      </trkpt>
      <trkpt lat="50.57686" lon="1.61259">
        <ele>24.9</ele>
        <time>2020-06-22T08:01:51Z</time>
      </trkpt>
      <trkpt lat="50.57692" lon="1.61259">
        <ele>24.9</ele>
        <time>2020-06-22T08:01:52Z</time>
      </trkpt>
      <trkpt lat="50.57697" lon="1.61259">
        <ele>24.9</ele>
        <time>2020-06-22T08:01:53Z</time>
      </trkpt>
      <trkpt lat="50.57703" lon="1.61259">
        <ele>24.9</ele>
        <time>2020-06-22T08:01:54Z</time>
      </trkpt>
      <trkpt lat="50.57709" lon="1.61258">
        <ele>24.8</ele>
        <time>2020-06-22T08:01:55Z</time>
      </trkpt>
      <trkpt lat="50.57716" lon="1.61257">
        <ele>24.8</ele>
        <time>2020-06-22T08:01:56Z</time>
      </trkpt>
      <trkpt lat="50.57722" lon="1.61257">
        <ele>24.8</ele>
        <time>2020-06-22T08:01:57Z</time>
      </trkpt>
      <trkpt lat="50.57728" lon="1.61257">
        <ele>24.8</ele>
        <time>2020-06-22T08:01:58Z</time>
      </trkpt>
      <trkpt lat="50.57735" lon="1.61258">
        <ele>24.8</ele>
        <time>2020-06-22T08:01:59Z</time>
      </trkpt>
      <trkpt lat="50.5774" lon="1.61257">
        <ele>24.7</ele>
        <time>2020-06-22T08:02:00Z</time>
      </trkpt>
      <trkpt lat="50.57744" lon="1.61257">
        <ele>24.7</ele>
        <time>2020-06-22T08:02:01Z</time>
      </trkpt>
      <trkpt lat="50.57751" lon="1.61257">
        <ele>24.7</ele>
        <time>2020-06-22T08:02:02Z</time>
      </trkpt>
      <trkpt lat="50.57757" lon="1.61258">
        <ele>24.6</ele>
        <time>2020-06-22T08:02:03Z</time>
      </trkpt>
      <trkpt lat="50.57765" lon="1.61259">
        <ele>24.6</ele>
        <time>2020-06-22T08:02:04Z</time>
      </trkpt>
      <trkpt lat="50.57772" lon="1.61259">
        <ele>24.6</ele>
        <time>2020-06-22T08:02:05Z</time>
      </trkpt>
      <trkpt lat="50.57777" lon="1.61259">
        <ele>24.5</ele>
        <time>2020-06-22T08:02:06Z</time>
      </trkpt>
      <trkpt lat="50.57781" lon="1.61258">
        <ele>24.5</ele>
        <time>2020-06-22T08:02:07Z</time>
      </trkpt>
      <trkpt lat="50.57787" lon="1.61257">
        <ele>24.5</ele>
        <time>2020-06-22T08:02:08Z</time>
      </trkpt>
      <trkpt lat="50.57792" lon="1.61257">
        <ele>24.4</ele>
        <time>2020-06-22T08:02:09Z</time>
      </trkpt>
      <trkpt lat="50.578" lon="1.61256">
        <ele>24.4</ele>
        <time>2020-06-22T08:02:10Z</time>
      </trkpt>
      <trkpt lat="50.57808" lon="1.61258">
        <ele>24.3</ele>
        <time>2020-06-22T08:02:11Z</time>
      </trkpt>
      <trkpt lat="50.57813" lon="1.61259">
        <ele>24.3</ele>
        <time>2020-06-22T08:02:12Z</time>
      </trkpt>
      <trkpt lat="50.57819" lon="1.6126">
        <ele>24.2</ele>
        <time>2020-06-22T08:02:13Z</time>
      </trkpt>
      <trkpt lat="50.57826" lon="1.61261">
        <ele>24.2</ele>
        <time>2020-06-22T08:02:14Z</time>
      </trkpt>
      <trkpt lat="50.57832" lon="1.61261">
        <ele>24.1</ele>
        <time>2020-06-22T08:02:15Z</time>
      </trkpt>
      <trkpt lat="50.57839" lon="1.61263">
        <ele>24.1</ele>
        <time>2020-06-22T08:02:16Z</time>
      </trkpt>
      <trkpt lat="50.57846" lon="1.61264">
        <ele>24</ele>
        <time>2020-06-22T08:02:17Z</time>
      </trkpt>
      <trkpt lat="50.57853" lon="1.61265">
        <ele>23.9</ele>
        <time>2020-06-22T08:02:18Z</time>
      </trkpt>
      <trkpt lat="50.5786" lon="1.61267">
        <ele>23.9</ele>
        <time>2020-06-22T08:02:19Z</time>
      </trkpt>
      <trkpt lat="50.57866" lon="1.61267">
        <ele>23.8</ele>
        <time>2020-06-22T08:02:20Z</time>
      </trkpt>
      <trkpt lat="50.57873" lon="1.61269">
        <ele>23.8</ele>
        <time>2020-06-22T08:02:21Z</time>
      </trkpt>
      <trkpt lat="50.57879" lon="1.61272">
        <ele>23.8</ele>
        <time>2020-06-22T08:02:22Z</time>
      </trkpt>
      <trkpt lat="50.57886" lon="1.61273">
        <ele>23.7</ele>
        <time>2020-06-22T08:02:23Z</time>
      </trkpt>
      <trkpt lat="50.57892" lon="1.61274">
        <ele>23.7</ele>
        <time>2020-06-22T08:02:24Z</time>
      </trkpt>
      <trkpt lat="50.57899" lon="1.61275">
        <ele>23.7</ele>
        <time>2020-06-22T08:02:25Z</time>
      </trkpt>
      <trkpt lat="50.57906" lon="1.61277">
        <ele>23.7</ele>
        <time>2020-06-22T08:02:26Z</time>
      </trkpt>
      <trkpt lat="50.57913" lon="1.61279">
        <ele>23.7</ele>
        <time>2020-06-22T08:02:27Z</time>
      </trkpt>
      <trkpt lat="50.5792" lon="1.61281">
        <ele>23.6</ele>
        <time>2020-06-22T08:02:28Z</time>
      </trkpt>
      <trkpt lat="50.57926" lon="1.61283">
        <ele>23.7</ele>
        <time>2020-06-22T08:02:29Z</time>
      </trkpt>
      <trkpt lat="50.57933" lon="1.61285">
        <ele>23.7</ele>
        <time>2020-06-22T08:02:30Z</time>
      </trkpt>
      <trkpt lat="50.5794" lon="1.61286">
        <ele>23.7</ele>
        <time>2020-06-22T08:02:31Z</time>
      </trkpt>
      <trkpt lat="50.57946" lon="1.61289">
        <ele>23.7</ele>
        <time>2020-06-22T08:02:32Z</time>
      </trkpt>
      <trkpt lat="50.57953" lon="1.61289">
        <ele>23.7</ele>
        <time>2020-06-22T08:02:33Z</time>
      </trkpt>
      <trkpt lat="50.5796" lon="1.61291">
        <ele>23.7</ele>
        <time>2020-06-22T08:02:34Z</time>
      </trkpt>
      <trkpt lat="50.57967" lon="1.61292">
        <ele>23.8</ele>
        <time>2020-06-22T08:02:35Z</time>
      </trkpt>
      <trkpt lat="50.57974" lon="1.61292">
        <ele>23.8</ele>
        <time>2020-06-22T08:02:36Z</time>
      </trkpt>
      <trkpt lat="50.5798" lon="1.61292">
        <ele>23.8</ele>
        <time>2020-06-22T08:02:37Z</time>
      </trkpt>
      <trkpt lat="50.57987" lon="1.61292">
        <ele>23.9</ele>
        <time>2020-06-22T08:02:38Z</time>
      </trkpt>
      <trkpt lat="50.57994" lon="1.61292">
        <ele>23.9</ele>
        <time>2020-06-22T08:02:39Z</time>
      </trkpt>
      <trkpt lat="50.58001" lon="1.61292">
        <ele>23.9</ele>
        <time>2020-06-22T08:02:40Z</time>
      </trkpt>
      <trkpt lat="50.58007" lon="1.61292">
        <ele>24</ele>
        <time>2020-06-22T08:02:41Z</time>
      </trkpt>
      <trkpt lat="50.58014" lon="1.61293">
        <ele>24</ele>
        <time>2020-06-22T08:02:42Z</time>
      </trkpt>
      <trkpt lat="50.58021" lon="1.61295">
        <ele>24.1</ele>
        <time>2020-06-22T08:02:43Z</time>
      </trkpt>
      <trkpt lat="50.58028" lon="1.61295">
        <ele>24.1</ele>
        <time>2020-06-22T08:02:44Z</time>
      </trkpt>
      <trkpt lat="50.58034" lon="1.61295">
        <ele>24.2</ele>
        <time>2020-06-22T08:02:45Z</time>
      </trkpt>
      <trkpt lat="50.58041" lon="1.61295">
        <ele>24.2</ele>
        <time>2020-06-22T08:02:46Z</time>
      </trkpt>
      <trkpt lat="50.58047" lon="1.61297">
        <ele>24.3</ele>
        <time>2020-06-22T08:02:47Z</time>
      </trkpt>
      <trkpt lat="50.58054" lon="1.61297">
        <ele>24.3</ele>
        <time>2020-06-22T08:02:48Z</time>
      </trkpt>
      <trkpt lat="50.5806" lon="1.61298">
        <ele>24.4</ele>
        <time>2020-06-22T08:02:49Z</time>
      </trkpt>
      <trkpt lat="50.58067" lon="1.61299">
        <ele>24.5</ele>
        <time>2020-06-22T08:02:50Z</time>
      </trkpt>
      <trkpt lat="50.58073" lon="1.613">
        <ele>24.5</ele>
        <time>2020-06-22T08:02:51Z</time>
      </trkpt>
      <trkpt lat="50.5808" lon="1.61301">
        <ele>24.6</ele>
        <time>2020-06-22T08:02:52Z</time>
      </trkpt>
      <trkpt lat="50.58086" lon="1.61302">
        <ele>24.7</ele>
        <time>2020-06-22T08:02:53Z</time>
      </trkpt>
      <trkpt lat="50.58092" lon="1.61304">
        <ele>24.7</ele>
        <time>2020-06-22T08:02:54Z</time>
      </trkpt>
      <trkpt lat="50.58098" lon="1.61306">
        <ele>24.8</ele>
        <time>2020-06-22T08:02:55Z</time>
      </trkpt>
      <trkpt lat="50.58104" lon="1.61308">
        <ele>24.9</ele>
        <time>2020-06-22T08:02:56Z</time>
      </trkpt>
      <trkpt lat="50.5811" lon="1.61309">
        <ele>25</ele>
        <time>2020-06-22T08:02:57Z</time>
      </trkpt>
      <trkpt lat="50.58116" lon="1.6131">
        <ele>25.1</ele>
        <time>2020-06-22T08:02:58Z</time>
      </trkpt>
      <trkpt lat="50.58122" lon="1.61313">
        <ele>25.2</ele>
        <time>2020-06-22T08:02:59Z</time>
      </trkpt>
      <trkpt lat="50.58128" lon="1.61314">
        <ele>25.4</ele>
        <time>2020-06-22T08:03:00Z</time>
      </trkpt>
      <trkpt lat="50.58134" lon="1.61316">
        <ele>25.5</ele>
        <time>2020-06-22T08:03:01Z</time>
      </trkpt>
      <trkpt lat="50.5814" lon="1.61318">
        <ele>25.7</ele>
        <time>2020-06-22T08:03:02Z</time>
      </trkpt>
      <trkpt lat="50.58147" lon="1.6132">
        <ele>25.8</ele>
        <time>2020-06-22T08:03:03Z</time>
      </trkpt>
      <trkpt lat="50.58153" lon="1.61322">
        <ele>25.9</ele>
        <time>2020-06-22T08:03:04Z</time>
      </trkpt>
      <trkpt lat="50.58159" lon="1.61325">
        <ele>25.9</ele>
        <time>2020-06-22T08:03:05Z</time>
      </trkpt>
      <trkpt lat="50.58165" lon="1.61327">
        <ele>26</ele>
        <time>2020-06-22T08:03:06Z</time>
      </trkpt>
      <trkpt lat="50.58171" lon="1.61329">
        <ele>26.1</ele>
        <time>2020-06-22T08:03:07Z</time>
      </trkpt>
      <trkpt lat="50.58177" lon="1.61331">
        <ele>26.2</ele>
        <time>2020-06-22T08:03:08Z</time>
      </trkpt>
      <trkpt lat="50.58184" lon="1.61334">
        <ele>26.3</ele>
        <time>2020-06-22T08:03:09Z</time>
      </trkpt>
      <trkpt lat="50.5819" lon="1.61337">
        <ele>26.4</ele>
        <time>2020-06-22T08:03:10Z</time>
      </trkpt>
      <trkpt lat="50.58196" lon="1.6134">
        <ele>26.5</ele>
        <time>2020-06-22T08:03:11Z</time>
      </trkpt>
      <trkpt lat="50.58202" lon="1.61343">
        <ele>26.6</ele>
        <time>2020-06-22T08:03:12Z</time>
      </trkpt>
      <trkpt lat="50.58208" lon="1.61346">
        <ele>26.7</ele>
        <time>2020-06-22T08:03:13Z</time>
      </trkpt>
      <trkpt lat="50.58214" lon="1.61349">
        <ele>26.8</ele>
        <time>2020-06-22T08:03:14Z</time>
      </trkpt>
      <trkpt lat="50.5822" lon="1.61352">
        <ele>26.9</ele>
        <time>2020-06-22T08:03:15Z</time>
      </trkpt>
      <trkpt lat="50.58226" lon="1.61355">
        <ele>26.9</ele>
        <time>2020-06-22T08:03:16Z</time>
      </trkpt>
      <trkpt lat="50.58232" lon="1.61359">
        <ele>27</ele>
        <time>2020-06-22T08:03:17Z</time>
      </trkpt>
      <trkpt lat="50.58237" lon="1.61362">
        <ele>27.1</ele>
        <time>2020-06-22T08:03:18Z</time>
      </trkpt>
      <trkpt lat="50.58244" lon="1.61365">
        <ele>27.2</ele>
        <time>2020-06-22T08:03:19Z</time>
      </trkpt>
      <trkpt lat="50.58249" lon="1.61368">
        <ele>27.2</ele>
        <time>2020-06-22T08:03:20Z</time>
      </trkpt>
      <trkpt lat="50.58255" lon="1.61371">
        <ele>27.3</ele>
        <time>2020-06-22T08:03:21Z</time>
      </trkpt>
      <trkpt lat="50.58261" lon="1.61374">
        <ele>27.3</ele>
        <time>2020-06-22T08:03:22Z</time>
      </trkpt>
      <trkpt lat="50.58267" lon="1.61378">
        <ele>27.4</ele>
        <time>2020-06-22T08:03:23Z</time>
      </trkpt>
      <trkpt lat="50.58273" lon="1.61381">
        <ele>27.4</ele>
        <time>2020-06-22T08:03:24Z</time>
      </trkpt>
      <trkpt lat="50.58279" lon="1.61383">
        <ele>27.4</ele>
        <time>2020-06-22T08:03:25Z</time>
      </trkpt>
      <trkpt lat="50.58285" lon="1.61387">
        <ele>27.4</ele>
        <time>2020-06-22T08:03:26Z</time>
      </trkpt>
      <trkpt lat="50.58291" lon="1.61389">
        <ele>27.4</ele>
        <time>2020-06-22T08:03:27Z</time>
      </trkpt>
      <trkpt lat="50.58297" lon="1.61392">
        <ele>27.4</ele>
        <time>2020-06-22T08:03:28Z</time>
      </trkpt>
      <trkpt lat="50.58303" lon="1.61395">
        <ele>27.4</ele>
        <time>2020-06-22T08:03:29Z</time>
      </trkpt>
      <trkpt lat="50.58308" lon="1.61398">
        <ele>27.4</ele>
        <time>2020-06-22T08:03:30Z</time>
      </trkpt>
      <trkpt lat="50.58315" lon="1.61399">
        <ele>27.4</ele>
        <time>2020-06-22T08:03:31Z</time>
      </trkpt>
      <trkpt lat="50.58321" lon="1.61401">
        <ele>27.4</ele>
        <time>2020-06-22T08:03:32Z</time>
      </trkpt>
      <trkpt lat="50.58327" lon="1.61403">
        <ele>27.4</ele>
        <time>2020-06-22T08:03:33Z</time>
      </trkpt>
      <trkpt lat="50.58333" lon="1.61404">
        <ele>27.4</ele>
        <time>2020-06-22T08:03:34Z</time>
      </trkpt>
      <trkpt lat="50.58338" lon="1.61404">
        <ele>27.4</ele>
        <time>2020-06-22T08:03:35Z</time>
      </trkpt>
      <trkpt lat="50.58345" lon="1.61404">
        <ele>27.4</ele>
        <time>2020-06-22T08:03:36Z</time>
      </trkpt>
      <trkpt lat="50.58351" lon="1.61403">
        <ele>27.5</ele>
        <time>2020-06-22T08:03:37Z</time>
      </trkpt>
      <trkpt lat="50.58359" lon="1.61402">
        <ele>27.5</ele>
        <time>2020-06-22T08:03:38Z</time>
      </trkpt>
      <trkpt lat="50.58366" lon="1.614">
        <ele>27.6</ele>
        <time>2020-06-22T08:03:39Z</time>
      </trkpt>
      <trkpt lat="50.58374" lon="1.61397">
        <ele>27.6</ele>
        <time>2020-06-22T08:03:40Z</time>
      </trkpt>
      <trkpt lat="50.5838" lon="1.61396">
        <ele>27.7</ele>
        <time>2020-06-22T08:03:41Z</time>
      </trkpt>
      <trkpt lat="50.58385" lon="1.61396">
        <ele>27.7</ele>
        <time>2020-06-22T08:03:42Z</time>
      </trkpt>
      <trkpt lat="50.58391" lon="1.61395">
        <ele>27.7</ele>
        <time>2020-06-22T08:03:43Z</time>
      </trkpt>
      <trkpt lat="50.58397" lon="1.61395">
        <ele>27.8</ele>
        <time>2020-06-22T08:03:44Z</time>
      </trkpt>
      <trkpt lat="50.58402" lon="1.61395">
        <ele>27.8</ele>
        <time>2020-06-22T08:03:45Z</time>
      </trkpt>
      <trkpt lat="50.58408" lon="1.61394">
        <ele>27.9</ele>
        <time>2020-06-22T08:03:46Z</time>
      </trkpt>
      <trkpt lat="50.58415" lon="1.61393">
        <ele>28</ele>
        <time>2020-06-22T08:03:47Z</time>
      </trkpt>
      <trkpt lat="50.5842" lon="1.61393">
        <ele>28.1</ele>
        <time>2020-06-22T08:03:48Z</time>
      </trkpt>
      <trkpt lat="50.58427" lon="1.61392">
        <ele>28.1</ele>
        <time>2020-06-22T08:03:49Z</time>
      </trkpt>
      <trkpt lat="50.58433" lon="1.61392">
        <ele>28.3</ele>
        <time>2020-06-22T08:03:50Z</time>
      </trkpt>
      <trkpt lat="50.58438" lon="1.61391">
        <ele>28.3</ele>
        <time>2020-06-22T08:03:51Z</time>
      </trkpt>
      <trkpt lat="50.58445" lon="1.61391">
        <ele>28.4</ele>
        <time>2020-06-22T08:03:52Z</time>
      </trkpt>
      <trkpt lat="50.58451" lon="1.61391">
        <ele>28.6</ele>
        <time>2020-06-22T08:03:53Z</time>
      </trkpt>
      <trkpt lat="50.58457" lon="1.61392">
        <ele>28.7</ele>
        <time>2020-06-22T08:03:54Z</time>
      </trkpt>
      <trkpt lat="50.58462" lon="1.61395">
        <ele>28.9</ele>
        <time>2020-06-22T08:03:55Z</time>
      </trkpt>
      <trkpt lat="50.58467" lon="1.61398">
        <ele>29</ele>
        <time>2020-06-22T08:03:56Z</time>
      </trkpt>
      <trkpt lat="50.58473" lon="1.61401">
        <ele>29.2</ele>
        <time>2020-06-22T08:03:57Z</time>
      </trkpt>
      <trkpt lat="50.58478" lon="1.61404">
        <ele>29.3</ele>
        <time>2020-06-22T08:03:58Z</time>
      </trkpt>
      <trkpt lat="50.58482" lon="1.61406">
        <ele>29.4</ele>
        <time>2020-06-22T08:03:59Z</time>
      </trkpt>
      <trkpt lat="50.58488" lon="1.61408">
        <ele>29.5</ele>
        <time>2020-06-22T08:04:00Z</time>
      </trkpt>
      <trkpt lat="50.58493" lon="1.6141">
        <ele>29.6</ele>
        <time>2020-06-22T08:04:01Z</time>
      </trkpt>
      <trkpt lat="50.58499" lon="1.61414">
        <ele>29.8</ele>
        <time>2020-06-22T08:04:02Z</time>
      </trkpt>
      <trkpt lat="50.58505" lon="1.61415">
        <ele>29.9</ele>
        <time>2020-06-22T08:04:03Z</time>
      </trkpt>
      <trkpt lat="50.58511" lon="1.61418">
        <ele>30</ele>
        <time>2020-06-22T08:04:04Z</time>
      </trkpt>
      <trkpt lat="50.58517" lon="1.61419">
        <ele>30.2</ele>
        <time>2020-06-22T08:04:05Z</time>
      </trkpt>
      <trkpt lat="50.58521" lon="1.61422">
        <ele>30.3</ele>
        <time>2020-06-22T08:04:06Z</time>
      </trkpt>
      <trkpt lat="50.58529" lon="1.61426">
        <ele>30.4</ele>
        <time>2020-06-22T08:04:07Z</time>
      </trkpt>
      <trkpt lat="50.58533" lon="1.61428">
        <ele>30.5</ele>
        <time>2020-06-22T08:04:08Z</time>
      </trkpt>
      <trkpt lat="50.58538" lon="1.61431">
        <ele>30.6</ele>
        <time>2020-06-22T08:04:09Z</time>
      </trkpt>
      <trkpt lat="50.58544" lon="1.61434">
        <ele>30.7</ele>
        <time>2020-06-22T08:04:10Z</time>
      </trkpt>
      <trkpt lat="50.58549" lon="1.61438">
        <ele>30.8</ele>
        <time>2020-06-22T08:04:11Z</time>
      </trkpt>
      <trkpt lat="50.58553" lon="1.61441">
        <ele>30.9</ele>
        <time>2020-06-22T08:04:12Z</time>
      </trkpt>
      <trkpt lat="50.58558" lon="1.61444">
        <ele>31</ele>
        <time>2020-06-22T08:04:13Z</time>
      </trkpt>
      <trkpt lat="50.58563" lon="1.61447">
        <ele>31.2</ele>
        <time>2020-06-22T08:04:14Z</time>
      </trkpt>
      <trkpt lat="50.5857" lon="1.61451">
        <ele>31.3</ele>
        <time>2020-06-22T08:04:15Z</time>
      </trkpt>
      <trkpt lat="50.58574" lon="1.61454">
        <ele>31.4</ele>
        <time>2020-06-22T08:04:16Z</time>
      </trkpt>
      <trkpt lat="50.58578" lon="1.61457">
        <ele>31.5</ele>
        <time>2020-06-22T08:04:17Z</time>
      </trkpt>
      <trkpt lat="50.58582" lon="1.61459">
        <ele>31.6</ele>
        <time>2020-06-22T08:04:18Z</time>
      </trkpt>
      <trkpt lat="50.58587" lon="1.61462">
        <ele>31.7</ele>
        <time>2020-06-22T08:04:19Z</time>
      </trkpt>
      <trkpt lat="50.58592" lon="1.61465">
        <ele>31.8</ele>
        <time>2020-06-22T08:04:20Z</time>
      </trkpt>
      <trkpt lat="50.58597" lon="1.61467">
        <ele>31.8</ele>
        <time>2020-06-22T08:04:21Z</time>
      </trkpt>
      <trkpt lat="50.58602" lon="1.6147">
        <ele>31.9</ele>
        <time>2020-06-22T08:04:22Z</time>
      </trkpt>
      <trkpt lat="50.58607" lon="1.61473">
        <ele>32</ele>
        <time>2020-06-22T08:04:23Z</time>
      </trkpt>
      <trkpt lat="50.58612" lon="1.61476">
        <ele>32</ele>
        <time>2020-06-22T08:04:24Z</time>
      </trkpt>
      <trkpt lat="50.58617" lon="1.61479">
        <ele>32.1</ele>
        <time>2020-06-22T08:04:25Z</time>
      </trkpt>
      <trkpt lat="50.58622" lon="1.61482">
        <ele>32.2</ele>
        <time>2020-06-22T08:04:26Z</time>
      </trkpt>
      <trkpt lat="50.58628" lon="1.61486">
        <ele>32.4</ele>
        <time>2020-06-22T08:04:27Z</time>
      </trkpt>
      <trkpt lat="50.58633" lon="1.61489">
        <ele>32.5</ele>
        <time>2020-06-22T08:04:28Z</time>
      </trkpt>
      <trkpt lat="50.58638" lon="1.61494">
        <ele>32.6</ele>
        <time>2020-06-22T08:04:29Z</time>
      </trkpt>
      <trkpt lat="50.58643" lon="1.61498">
        <ele>32.7</ele>
        <time>2020-06-22T08:04:30Z</time>
      </trkpt>
      <trkpt lat="50.58648" lon="1.61504">
        <ele>32.8</ele>
        <time>2020-06-22T08:04:31Z</time>
      </trkpt>
      <trkpt lat="50.58652" lon="1.61509">
        <ele>32.8</ele>
        <time>2020-06-22T08:04:32Z</time>
      </trkpt>
      <trkpt lat="50.58656" lon="1.61512">
        <ele>32.9</ele>
        <time>2020-06-22T08:04:33Z</time>
      </trkpt>
      <trkpt lat="50.58661" lon="1.61516">
        <ele>32.9</ele>
        <time>2020-06-22T08:04:34Z</time>
      </trkpt>
      <trkpt lat="50.58666" lon="1.6152">
        <ele>33</ele>
        <time>2020-06-22T08:04:35Z</time>
      </trkpt>
      <trkpt lat="50.58672" lon="1.61524">
        <ele>33.2</ele>
        <time>2020-06-22T08:04:36Z</time>
      </trkpt>
      <trkpt lat="50.58677" lon="1.61528">
        <ele>33.3</ele>
        <time>2020-06-22T08:04:37Z</time>
      </trkpt>
      <trkpt lat="50.58681" lon="1.61531">
        <ele>33.4</ele>
        <time>2020-06-22T08:04:38Z</time>
      </trkpt>
      <trkpt lat="50.58686" lon="1.61535">
        <ele>33.5</ele>
        <time>2020-06-22T08:04:39Z</time>
      </trkpt>
      <trkpt lat="50.5869" lon="1.61539">
        <ele>33.6</ele>
        <time>2020-06-22T08:04:40Z</time>
      </trkpt>
      <trkpt lat="50.58696" lon="1.61545">
        <ele>33.7</ele>
        <time>2020-06-22T08:04:41Z</time>
      </trkpt>
      <trkpt lat="50.58701" lon="1.61549">
        <ele>33.8</ele>
        <time>2020-06-22T08:04:42Z</time>
      </trkpt>
      <trkpt lat="50.58707" lon="1.61553">
        <ele>33.9</ele>
        <time>2020-06-22T08:04:43Z</time>
      </trkpt>
      <trkpt lat="50.58712" lon="1.61557">
        <ele>33.9</ele>
        <time>2020-06-22T08:04:44Z</time>
      </trkpt>
      <trkpt lat="50.58717" lon="1.61561">
        <ele>34</ele>
        <time>2020-06-22T08:04:45Z</time>
      </trkpt>
      <trkpt lat="50.58723" lon="1.61565">
        <ele>34.1</ele>
        <time>2020-06-22T08:04:46Z</time>
      </trkpt>
      <trkpt lat="50.58728" lon="1.6157">
        <ele>34.3</ele>
        <time>2020-06-22T08:04:47Z</time>
      </trkpt>
      <trkpt lat="50.58734" lon="1.61575">
        <ele>34.4</ele>
        <time>2020-06-22T08:04:48Z</time>
      </trkpt>
      <trkpt lat="50.58739" lon="1.61578">
        <ele>34.5</ele>
        <time>2020-06-22T08:04:49Z</time>
      </trkpt>
      <trkpt lat="50.58745" lon="1.61582">
        <ele>34.6</ele>
        <time>2020-06-22T08:04:50Z</time>
      </trkpt>
      <trkpt lat="50.5875" lon="1.61587">
        <ele>34.7</ele>
        <time>2020-06-22T08:04:51Z</time>
      </trkpt>
      <trkpt lat="50.58755" lon="1.61592">
        <ele>34.8</ele>
        <time>2020-06-22T08:04:52Z</time>
      </trkpt>
      <trkpt lat="50.58759" lon="1.61596">
        <ele>34.9</ele>
        <time>2020-06-22T08:04:53Z</time>
      </trkpt>
      <trkpt lat="50.58765" lon="1.61601">
        <ele>35.1</ele>
        <time>2020-06-22T08:04:54Z</time>
      </trkpt>
      <trkpt lat="50.5877" lon="1.61605">
        <ele>35.2</ele>
        <time>2020-06-22T08:04:55Z</time>
      </trkpt>
      <trkpt lat="50.58775" lon="1.6161">
        <ele>35.3</ele>
        <time>2020-06-22T08:04:56Z</time>
      </trkpt>
      <trkpt lat="50.58781" lon="1.61616">
        <ele>35.4</ele>
        <time>2020-06-22T08:04:57Z</time>
      </trkpt>
      <trkpt lat="50.58787" lon="1.61622">
        <ele>35.5</ele>
        <time>2020-06-22T08:04:58Z</time>
      </trkpt>
      <trkpt lat="50.58791" lon="1.61624">
        <ele>35.5</ele>
        <time>2020-06-22T08:04:59Z</time>
      </trkpt>
      <trkpt lat="50.58798" lon="1.61628">
        <ele>35.6</ele>
        <time>2020-06-22T08:05:00Z</time>
      </trkpt>
      <trkpt lat="50.58803" lon="1.61633">
        <ele>35.7</ele>
        <time>2020-06-22T08:05:01Z</time>
      </trkpt>
      <trkpt lat="50.58808" lon="1.61637">
        <ele>35.7</ele>
        <time>2020-06-22T08:05:02Z</time>
      </trkpt>
      <trkpt lat="50.58814" lon="1.61643">
        <ele>35.8</ele>
        <time>2020-06-22T08:05:03Z</time>
      </trkpt>
      <trkpt lat="50.58819" lon="1.61649">
        <ele>35.9</ele>
        <time>2020-06-22T08:05:04Z</time>
      </trkpt>
      <trkpt lat="50.58824" lon="1.61653">
        <ele>36</ele>
        <time>2020-06-22T08:05:05Z</time>
      </trkpt>
      <trkpt lat="50.58829" lon="1.61657">
        <ele>36.1</ele>
        <time>2020-06-22T08:05:06Z</time>
      </trkpt>
      <trkpt lat="50.58835" lon="1.61661">
        <ele>36.2</ele>
        <time>2020-06-22T08:05:07Z</time>
      </trkpt>
      <trkpt lat="50.58839" lon="1.61665">
        <ele>36.1</ele>
        <time>2020-06-22T08:05:08Z</time>
      </trkpt>
      <trkpt lat="50.58844" lon="1.61669">
        <ele>36.1</ele>
        <time>2020-06-22T08:05:09Z</time>
      </trkpt>
      <trkpt lat="50.58848" lon="1.61673">
        <ele>36.1</ele>
        <time>2020-06-22T08:05:10Z</time>
      </trkpt>
      <trkpt lat="50.58853" lon="1.61677">
        <ele>36.1</ele>
        <time>2020-06-22T08:05:11Z</time>
      </trkpt>
      <trkpt lat="50.58858" lon="1.61682">
        <ele>36.1</ele>
        <time>2020-06-22T08:05:12Z</time>
      </trkpt>
      <trkpt lat="50.58863" lon="1.61687">
        <ele>36.2</ele>
        <time>2020-06-22T08:05:13Z</time>
      </trkpt>
      <trkpt lat="50.58868" lon="1.61692">
        <ele>36.2</ele>
        <time>2020-06-22T08:05:14Z</time>
      </trkpt>
      <trkpt lat="50.58872" lon="1.61697">
        <ele>36.2</ele>
        <time>2020-06-22T08:05:15Z</time>
      </trkpt>
      <trkpt lat="50.58877" lon="1.61703">
        <ele>36.2</ele>
        <time>2020-06-22T08:05:16Z</time>
      </trkpt>
      <trkpt lat="50.5888" lon="1.61706">
        <ele>36.2</ele>
        <time>2020-06-22T08:05:17Z</time>
      </trkpt>
      <trkpt lat="50.58885" lon="1.61711">
        <ele>36.1</ele>
        <time>2020-06-22T08:05:18Z</time>
      </trkpt>
      <trkpt lat="50.58889" lon="1.61716">
        <ele>36.1</ele>
        <time>2020-06-22T08:05:19Z</time>
      </trkpt>
      <trkpt lat="50.58893" lon="1.61721">
        <ele>36.1</ele>
        <time>2020-06-22T08:05:20Z</time>
      </trkpt>
      <trkpt lat="50.58897" lon="1.61724">
        <ele>36.1</ele>
        <time>2020-06-22T08:05:21Z</time>
      </trkpt>
      <trkpt lat="50.58901" lon="1.61729">
        <ele>36.1</ele>
        <time>2020-06-22T08:05:22Z</time>
      </trkpt>
      <trkpt lat="50.58904" lon="1.61734">
        <ele>36.1</ele>
        <time>2020-06-22T08:05:23Z</time>
      </trkpt>
      <trkpt lat="50.58907" lon="1.61739">
        <ele>36.1</ele>
        <time>2020-06-22T08:05:24Z</time>
      </trkpt>
      <trkpt lat="50.58911" lon="1.61744">
        <ele>36.1</ele>
        <time>2020-06-22T08:05:25Z</time>
      </trkpt>
      <trkpt lat="50.58914" lon="1.61748">
        <ele>36.2</ele>
        <time>2020-06-22T08:05:26Z</time>
      </trkpt>
      <trkpt lat="50.58919" lon="1.61749">
        <ele>36.2</ele>
        <time>2020-06-22T08:05:27Z</time>
      </trkpt>
      <trkpt lat="50.58924" lon="1.61745">
        <ele>36</ele>
        <time>2020-06-22T08:05:28Z</time>
      </trkpt>
      <trkpt lat="50.58926" lon="1.61739">
        <ele>35.8</ele>
        <time>2020-06-22T08:05:29Z</time>
      </trkpt>
      <trkpt lat="50.58927" lon="1.61733">
        <ele>35.7</ele>
        <time>2020-06-22T08:05:30Z</time>
      </trkpt>
      <trkpt lat="50.58927" lon="1.6173">
        <ele>35.6</ele>
        <time>2020-06-22T08:05:31Z</time>
      </trkpt>
      <trkpt lat="50.58928" lon="1.61725">
        <ele>35.5</ele>
        <time>2020-06-22T08:05:32Z</time>
      </trkpt>
      <trkpt lat="50.58928" lon="1.61719">
        <ele>35.3</ele>
        <time>2020-06-22T08:05:33Z</time>
      </trkpt>
      <trkpt lat="50.58929" lon="1.61712">
        <ele>35.2</ele>
        <time>2020-06-22T08:05:34Z</time>
      </trkpt>
      <trkpt lat="50.58931" lon="1.61706">
        <ele>35</ele>
        <time>2020-06-22T08:05:35Z</time>
      </trkpt>
      <trkpt lat="50.58931" lon="1.61698">
        <ele>34.8</ele>
        <time>2020-06-22T08:05:36Z</time>
      </trkpt>
      <trkpt lat="50.5893" lon="1.61693">
        <ele>34.7</ele>
        <time>2020-06-22T08:05:37Z</time>
      </trkpt>
      <trkpt lat="50.58932" lon="1.61686">
        <ele>34.6</ele>
        <time>2020-06-22T08:05:38Z</time>
      </trkpt>
      <trkpt lat="50.58931" lon="1.61679">
        <ele>34.4</ele>
        <time>2020-06-22T08:05:39Z</time>
      </trkpt>
      <trkpt lat="50.58932" lon="1.61672">
        <ele>34.3</ele>
        <time>2020-06-22T08:05:40Z</time>
      </trkpt>
      <trkpt lat="50.58933" lon="1.61666">
        <ele>34.2</ele>
        <time>2020-06-22T08:05:41Z</time>
      </trkpt>
      <trkpt lat="50.58934" lon="1.6166">
        <ele>34</ele>
        <time>2020-06-22T08:05:42Z</time>
      </trkpt>
      <trkpt lat="50.58934" lon="1.61652">
        <ele>33.9</ele>
        <time>2020-06-22T08:05:43Z</time>
      </trkpt>
      <trkpt lat="50.58935" lon="1.61646">
        <ele>33.8</ele>
        <time>2020-06-22T08:05:44Z</time>
      </trkpt>
      <trkpt lat="50.58936" lon="1.61639">
        <ele>33.6</ele>
        <time>2020-06-22T08:05:45Z</time>
      </trkpt>
      <trkpt lat="50.58937" lon="1.61631">
        <ele>33.5</ele>
        <time>2020-06-22T08:05:46Z</time>
      </trkpt>
      <trkpt lat="50.58938" lon="1.61624">
        <ele>33.3</ele>
        <time>2020-06-22T08:05:47Z</time>
      </trkpt>
      <trkpt lat="50.58938" lon="1.61619">
        <ele>33.2</ele>
        <time>2020-06-22T08:05:48Z</time>
      </trkpt>
      <trkpt lat="50.58939" lon="1.6161">
        <ele>33.1</ele>
        <time>2020-06-22T08:05:49Z</time>
      </trkpt>
      <trkpt lat="50.5894" lon="1.61603">
        <ele>33</ele>
        <time>2020-06-22T08:05:50Z</time>
      </trkpt>
      <trkpt lat="50.58941" lon="1.61593">
        <ele>32.8</ele>
        <time>2020-06-22T08:05:51Z</time>
      </trkpt>
      <trkpt lat="50.58942" lon="1.61586">
        <ele>32.6</ele>
        <time>2020-06-22T08:05:52Z</time>
      </trkpt>
      <trkpt lat="50.58943" lon="1.61578">
        <ele>32.5</ele>
        <time>2020-06-22T08:05:53Z</time>
      </trkpt>
      <trkpt lat="50.58944" lon="1.61572">
        <ele>32.4</ele>
        <time>2020-06-22T08:05:54Z</time>
      </trkpt>
      <trkpt lat="50.58944" lon="1.61568">
        <ele>32.3</ele>
        <time>2020-06-22T08:05:55Z</time>
      </trkpt>
      <trkpt lat="50.58943" lon="1.6157">
        <ele>32.2</ele>
        <time>2020-06-22T08:05:56Z</time>
      </trkpt>
      <trkpt lat="50.58943" lon="1.61573">
        <ele>32.1</ele>
        <time>2020-06-22T08:05:57Z</time>
      </trkpt>
      <trkpt lat="50.58942" lon="1.61577">
        <ele>32.1</ele>
        <time>2020-06-22T08:05:58Z</time>
      </trkpt>
      <trkpt lat="50.58942" lon="1.61581">
        <ele>32</ele>
        <time>2020-06-22T08:05:59Z</time>
      </trkpt>
      <trkpt lat="50.58941" lon="1.61582">
        <ele>32</ele>
        <time>2020-06-22T08:06:00Z</time>
      </trkpt>
      <trkpt lat="50.58941" lon="1.61583">
        <ele>31.9</ele>
        <time>2020-06-22T08:06:01Z</time>
      </trkpt>
      <trkpt lat="50.5894" lon="1.6159">
        <ele>32.1</ele>
        <time>2020-06-22T08:06:02Z</time>
      </trkpt>
      <trkpt lat="50.58939" lon="1.61593">
        <ele>32.2</ele>
        <time>2020-06-22T08:06:03Z</time>
      </trkpt>
      <trkpt lat="50.58937" lon="1.61599">
        <ele>32.3</ele>
        <time>2020-06-22T08:06:04Z</time>
      </trkpt>
      <trkpt lat="50.58937" lon="1.61606">
        <ele>32.5</ele>
        <time>2020-06-22T08:06:05Z</time>
      </trkpt>
      <trkpt lat="50.58937" lon="1.61611">
        <ele>32.6</ele>
        <time>2020-06-22T08:06:06Z</time>
      </trkpt>
      <trkpt lat="50.58937" lon="1.61617">
        <ele>32.7</ele>
        <time>2020-06-22T08:06:07Z</time>
      </trkpt>
      <trkpt lat="50.58936" lon="1.61623">
        <ele>32.9</ele>
        <time>2020-06-22T08:06:08Z</time>
      </trkpt>
      <trkpt lat="50.58934" lon="1.6163">
        <ele>33</ele>
        <time>2020-06-22T08:06:09Z</time>
      </trkpt>
      <trkpt lat="50.58933" lon="1.61637">
        <ele>33.2</ele>
        <time>2020-06-22T08:06:10Z</time>
      </trkpt>
      <trkpt lat="50.58932" lon="1.61645">
        <ele>33.3</ele>
        <time>2020-06-22T08:06:11Z</time>
      </trkpt>
      <trkpt lat="50.5893" lon="1.61652">
        <ele>33.5</ele>
        <time>2020-06-22T08:06:12Z</time>
      </trkpt>
      <trkpt lat="50.58929" lon="1.61659">
        <ele>33.6</ele>
        <time>2020-06-22T08:06:13Z</time>
      </trkpt>
      <trkpt lat="50.58928" lon="1.61666">
        <ele>33.8</ele>
        <time>2020-06-22T08:06:14Z</time>
      </trkpt>
      <trkpt lat="50.58926" lon="1.61672">
        <ele>33.9</ele>
        <time>2020-06-22T08:06:15Z</time>
      </trkpt>
      <trkpt lat="50.58925" lon="1.61679">
        <ele>34.1</ele>
        <time>2020-06-22T08:06:16Z</time>
      </trkpt>
      <trkpt lat="50.58924" lon="1.61687">
        <ele>34.3</ele>
        <time>2020-06-22T08:06:17Z</time>
      </trkpt>
      <trkpt lat="50.58923" lon="1.61695">
        <ele>34.5</ele>
        <time>2020-06-22T08:06:18Z</time>
      </trkpt>
      <trkpt lat="50.58921" lon="1.61702">
        <ele>34.6</ele>
        <time>2020-06-22T08:06:19Z</time>
      </trkpt>
      <trkpt lat="50.5892" lon="1.61709">
        <ele>34.8</ele>
        <time>2020-06-22T08:06:20Z</time>
      </trkpt>
      <trkpt lat="50.58919" lon="1.61714">
        <ele>35</ele>
        <time>2020-06-22T08:06:21Z</time>
      </trkpt>
      <trkpt lat="50.58917" lon="1.61721">
        <ele>35.1</ele>
        <time>2020-06-22T08:06:22Z</time>
      </trkpt>
      <trkpt lat="50.58916" lon="1.61727">
        <ele>35.3</ele>
        <time>2020-06-22T08:06:23Z</time>
      </trkpt>
      <trkpt lat="50.58915" lon="1.61733">
        <ele>35.5</ele>
        <time>2020-06-22T08:06:24Z</time>
      </trkpt>
      <trkpt lat="50.58913" lon="1.61739">
        <ele>35.7</ele>
        <time>2020-06-22T08:06:25Z</time>
      </trkpt>
      <trkpt lat="50.58912" lon="1.61746">
        <ele>35.8</ele>
        <time>2020-06-22T08:06:26Z</time>
      </trkpt>
      <trkpt lat="50.58912" lon="1.61751">
        <ele>35.9</ele>
        <time>2020-06-22T08:06:27Z</time>
      </trkpt>
      <trkpt lat="50.58913" lon="1.61755">
        <ele>36</ele>
        <time>2020-06-22T08:06:28Z</time>
      </trkpt>
      <trkpt lat="50.58915" lon="1.61759">
        <ele>36.2</ele>
        <time>2020-06-22T08:06:29Z</time>
      </trkpt>
      <trkpt lat="50.58917" lon="1.61765">
        <ele>36.2</ele>
        <time>2020-06-22T08:06:30Z</time>
      </trkpt>
      <trkpt lat="50.5892" lon="1.6177">
        <ele>36.2</ele>
        <time>2020-06-22T08:06:31Z</time>
      </trkpt>
      <trkpt lat="50.58923" lon="1.61774">
        <ele>36.2</ele>
        <time>2020-06-22T08:06:32Z</time>
      </trkpt>
      <trkpt lat="50.58927" lon="1.61778">
        <ele>36.1</ele>
        <time>2020-06-22T08:06:33Z</time>
      </trkpt>
      <trkpt lat="50.5893" lon="1.61783">
        <ele>36.1</ele>
        <time>2020-06-22T08:06:34Z</time>
      </trkpt>
      <trkpt lat="50.58934" lon="1.61788">
        <ele>36.1</ele>
        <time>2020-06-22T08:06:35Z</time>
      </trkpt>
      <trkpt lat="50.58938" lon="1.6179">
        <ele>36.1</ele>
        <time>2020-06-22T08:06:36Z</time>
      </trkpt>
      <trkpt lat="50.58943" lon="1.61793">
        <ele>36.1</ele>
        <time>2020-06-22T08:06:37Z</time>
      </trkpt>
      <trkpt lat="50.58947" lon="1.61797">
        <ele>36.1</ele>
        <time>2020-06-22T08:06:38Z</time>
      </trkpt>
      <trkpt lat="50.58951" lon="1.618">
        <ele>36.1</ele>
        <time>2020-06-22T08:06:39Z</time>
      </trkpt>
      <trkpt lat="50.58955" lon="1.61803">
        <ele>36.2</ele>
        <time>2020-06-22T08:06:40Z</time>
      </trkpt>
      <trkpt lat="50.58959" lon="1.61807">
        <ele>36.2</ele>
        <time>2020-06-22T08:06:41Z</time>
      </trkpt>
      <trkpt lat="50.58963" lon="1.6181">
        <ele>36.2</ele>
        <time>2020-06-22T08:06:42Z</time>
      </trkpt>
      <trkpt lat="50.58968" lon="1.61813">
        <ele>36.2</ele>
        <time>2020-06-22T08:06:43Z</time>
      </trkpt>
      <trkpt lat="50.58972" lon="1.61814">
        <ele>36.2</ele>
        <time>2020-06-22T08:06:44Z</time>
      </trkpt>
      <trkpt lat="50.58976" lon="1.61817">
        <ele>36.3</ele>
        <time>2020-06-22T08:06:45Z</time>
      </trkpt>
      <trkpt lat="50.5898" lon="1.61819">
        <ele>36.3</ele>
        <time>2020-06-22T08:06:46Z</time>
      </trkpt>
      <trkpt lat="50.58985" lon="1.61821">
        <ele>36.3</ele>
        <time>2020-06-22T08:06:47Z</time>
      </trkpt>
      <trkpt lat="50.5899" lon="1.61824">
        <ele>36.3</ele>
        <time>2020-06-22T08:06:48Z</time>
      </trkpt>
      <trkpt lat="50.58994" lon="1.61828">
        <ele>36.3</ele>
        <time>2020-06-22T08:06:49Z</time>
      </trkpt>
      <trkpt lat="50.58999" lon="1.61831">
        <ele>36.3</ele>
        <time>2020-06-22T08:06:50Z</time>
      </trkpt>
      <trkpt lat="50.59004" lon="1.61833">
        <ele>36.3</ele>
        <time>2020-06-22T08:06:51Z</time>
      </trkpt>
      <trkpt lat="50.5901" lon="1.61836">
        <ele>36.3</ele>
        <time>2020-06-22T08:06:52Z</time>
      </trkpt>
      <trkpt lat="50.59015" lon="1.61839">
        <ele>36.3</ele>
        <time>2020-06-22T08:06:53Z</time>
      </trkpt>
      <trkpt lat="50.5902" lon="1.61842">
        <ele>36.3</ele>
        <time>2020-06-22T08:06:54Z</time>
      </trkpt>
      <trkpt lat="50.59026" lon="1.61845">
        <ele>36.3</ele>
        <time>2020-06-22T08:06:55Z</time>
      </trkpt>
      <trkpt lat="50.59031" lon="1.61849">
        <ele>36.2</ele>
        <time>2020-06-22T08:06:56Z</time>
      </trkpt>
      <trkpt lat="50.59036" lon="1.61853">
        <ele>36.2</ele>
        <time>2020-06-22T08:06:57Z</time>
      </trkpt>
      <trkpt lat="50.59041" lon="1.61856">
        <ele>36.3</ele>
        <time>2020-06-22T08:06:58Z</time>
      </trkpt>
      <trkpt lat="50.59046" lon="1.6186">
        <ele>36.3</ele>
        <time>2020-06-22T08:06:59Z</time>
      </trkpt>
      <trkpt lat="50.59051" lon="1.61864">
        <ele>36.4</ele>
        <time>2020-06-22T08:07:00Z</time>
      </trkpt>
      <trkpt lat="50.59056" lon="1.6187">
        <ele>36.4</ele>
        <time>2020-06-22T08:07:01Z</time>
      </trkpt>
      <trkpt lat="50.5906" lon="1.61876">
        <ele>36.5</ele>
        <time>2020-06-22T08:07:02Z</time>
      </trkpt>
      <trkpt lat="50.59064" lon="1.61881">
        <ele>36.6</ele>
        <time>2020-06-22T08:07:03Z</time>
      </trkpt>
      <trkpt lat="50.59067" lon="1.61887">
        <ele>36.6</ele>
        <time>2020-06-22T08:07:04Z</time>
      </trkpt>
      <trkpt lat="50.59071" lon="1.61892">
        <ele>36.7</ele>
        <time>2020-06-22T08:07:05Z</time>
      </trkpt>
      <trkpt lat="50.59074" lon="1.61898">
        <ele>36.8</ele>
        <time>2020-06-22T08:07:06Z</time>
      </trkpt>
      <trkpt lat="50.59078" lon="1.61903">
        <ele>36.8</ele>
        <time>2020-06-22T08:07:07Z</time>
      </trkpt>
      <trkpt lat="50.59082" lon="1.61909">
        <ele>36.9</ele>
        <time>2020-06-22T08:07:08Z</time>
      </trkpt>
      <trkpt lat="50.59087" lon="1.61915">
        <ele>37</ele>
        <time>2020-06-22T08:07:09Z</time>
      </trkpt>
      <trkpt lat="50.59091" lon="1.6192">
        <ele>37.1</ele>
        <time>2020-06-22T08:07:10Z</time>
      </trkpt>
      <trkpt lat="50.59096" lon="1.61925">
        <ele>37.1</ele>
        <time>2020-06-22T08:07:11Z</time>
      </trkpt>
      <trkpt lat="50.591" lon="1.61929">
        <ele>37.2</ele>
        <time>2020-06-22T08:07:12Z</time>
      </trkpt>
      <trkpt lat="50.59103" lon="1.61933">
        <ele>37.2</ele>
        <time>2020-06-22T08:07:13Z</time>
      </trkpt>
      <trkpt lat="50.59107" lon="1.61935">
        <ele>37.2</ele>
        <time>2020-06-22T08:07:14Z</time>
      </trkpt>
      <trkpt lat="50.59112" lon="1.61934">
        <ele>37.2</ele>
        <time>2020-06-22T08:07:15Z</time>
      </trkpt>
      <trkpt lat="50.59117" lon="1.61932">
        <ele>37.1</ele>
        <time>2020-06-22T08:07:16Z</time>
      </trkpt>
      <trkpt lat="50.59123" lon="1.6193">
        <ele>37</ele>
        <time>2020-06-22T08:07:17Z</time>
      </trkpt>
      <trkpt lat="50.59129" lon="1.61926">
        <ele>36.8</ele>
        <time>2020-06-22T08:07:18Z</time>
      </trkpt>
      <trkpt lat="50.59136" lon="1.61922">
        <ele>36.5</ele>
        <time>2020-06-22T08:07:19Z</time>
      </trkpt>
      <trkpt lat="50.59141" lon="1.61919">
        <ele>36.2</ele>
        <time>2020-06-22T08:07:20Z</time>
      </trkpt>
      <trkpt lat="50.59147" lon="1.61915">
        <ele>35.9</ele>
        <time>2020-06-22T08:07:21Z</time>
      </trkpt>
      <trkpt lat="50.59154" lon="1.61908">
        <ele>35.4</ele>
        <time>2020-06-22T08:07:22Z</time>
      </trkpt>
      <trkpt lat="50.59159" lon="1.61902">
        <ele>35</ele>
        <time>2020-06-22T08:07:23Z</time>
      </trkpt>
      <trkpt lat="50.59164" lon="1.61893">
        <ele>34.6</ele>
        <time>2020-06-22T08:07:24Z</time>
      </trkpt>
      <trkpt lat="50.59171" lon="1.61881">
        <ele>34</ele>
        <time>2020-06-22T08:07:25Z</time>
      </trkpt>
      <trkpt lat="50.59177" lon="1.61872">
        <ele>33.6</ele>
        <time>2020-06-22T08:07:26Z</time>
      </trkpt>
      <trkpt lat="50.59183" lon="1.61864">
        <ele>33.3</ele>
        <time>2020-06-22T08:07:27Z</time>
      </trkpt>
      <trkpt lat="50.5919" lon="1.6186">
        <ele>33.1</ele>
        <time>2020-06-22T08:07:28Z</time>
      </trkpt>
      <trkpt lat="50.59198" lon="1.61859">
        <ele>32.9</ele>
        <time>2020-06-22T08:07:29Z</time>
      </trkpt>
      <trkpt lat="50.59205" lon="1.6186">
        <ele>32.7</ele>
        <time>2020-06-22T08:07:30Z</time>
      </trkpt>
      <trkpt lat="50.59212" lon="1.61861">
        <ele>32.5</ele>
        <time>2020-06-22T08:07:31Z</time>
      </trkpt>
      <trkpt lat="50.59219" lon="1.61864">
        <ele>32.4</ele>
        <time>2020-06-22T08:07:32Z</time>
      </trkpt>
      <trkpt lat="50.59225" lon="1.61866">
        <ele>32.2</ele>
        <time>2020-06-22T08:07:33Z</time>
      </trkpt>
      <trkpt lat="50.5923" lon="1.61868">
        <ele>32.1</ele>
        <time>2020-06-22T08:07:34Z</time>
      </trkpt>
      <trkpt lat="50.59234" lon="1.6187">
        <ele>32</ele>
        <time>2020-06-22T08:07:35Z</time>
      </trkpt>
      <trkpt lat="50.59239" lon="1.61872">
        <ele>31.9</ele>
        <time>2020-06-22T08:07:36Z</time>
      </trkpt>
      <trkpt lat="50.59243" lon="1.61876">
        <ele>31.9</ele>
        <time>2020-06-22T08:07:37Z</time>
      </trkpt>
      <trkpt lat="50.59248" lon="1.6188">
        <ele>31.9</ele>
        <time>2020-06-22T08:07:38Z</time>
      </trkpt>
      <trkpt lat="50.59252" lon="1.61886">
        <ele>31.9</ele>
        <time>2020-06-22T08:07:39Z</time>
      </trkpt>
      <trkpt lat="50.59256" lon="1.61892">
        <ele>32.1</ele>
        <time>2020-06-22T08:07:40Z</time>
      </trkpt>
      <trkpt lat="50.59259" lon="1.61899">
        <ele>32.3</ele>
        <time>2020-06-22T08:07:41Z</time>
      </trkpt>
      <trkpt lat="50.59262" lon="1.61906">
        <ele>32.4</ele>
        <time>2020-06-22T08:07:42Z</time>
      </trkpt>
      <trkpt lat="50.59266" lon="1.61912">
        <ele>32.5</ele>
        <time>2020-06-22T08:07:43Z</time>
      </trkpt>
      <trkpt lat="50.59269" lon="1.61918">
        <ele>32.7</ele>
        <time>2020-06-22T08:07:44Z</time>
      </trkpt>
      <trkpt lat="50.59272" lon="1.61924">
        <ele>32.8</ele>
        <time>2020-06-22T08:07:45Z</time>
      </trkpt>
      <trkpt lat="50.59275" lon="1.6193">
        <ele>32.9</ele>
        <time>2020-06-22T08:07:46Z</time>
      </trkpt>
      <trkpt lat="50.59278" lon="1.61935">
        <ele>33.1</ele>
        <time>2020-06-22T08:07:47Z</time>
      </trkpt>
      <trkpt lat="50.59281" lon="1.61941">
        <ele>33.2</ele>
        <time>2020-06-22T08:07:48Z</time>
      </trkpt>
      <trkpt lat="50.59284" lon="1.61946">
        <ele>33.3</ele>
        <time>2020-06-22T08:07:49Z</time>
      </trkpt>
      <trkpt lat="50.59287" lon="1.61952">
        <ele>33.5</ele>
        <time>2020-06-22T08:07:50Z</time>
      </trkpt>
      <trkpt lat="50.59291" lon="1.61957">
        <ele>33.6</ele>
        <time>2020-06-22T08:07:51Z</time>
      </trkpt>
      <trkpt lat="50.59294" lon="1.61964">
        <ele>33.7</ele>
        <time>2020-06-22T08:07:52Z</time>
      </trkpt>
      <trkpt lat="50.59297" lon="1.6197">
        <ele>33.9</ele>
        <time>2020-06-22T08:07:53Z</time>
      </trkpt>
      <trkpt lat="50.593" lon="1.61975">
        <ele>34</ele>
        <time>2020-06-22T08:07:54Z</time>
      </trkpt>
      <trkpt lat="50.59304" lon="1.6198">
        <ele>34.1</ele>
        <time>2020-06-22T08:07:55Z</time>
      </trkpt>
      <trkpt lat="50.59307" lon="1.61985">
        <ele>34.2</ele>
        <time>2020-06-22T08:07:56Z</time>
      </trkpt>
      <trkpt lat="50.59311" lon="1.6199">
        <ele>34.3</ele>
        <time>2020-06-22T08:07:57Z</time>
      </trkpt>
      <trkpt lat="50.59314" lon="1.61995">
        <ele>34.4</ele>
        <time>2020-06-22T08:07:58Z</time>
      </trkpt>
      <trkpt lat="50.59318" lon="1.62">
        <ele>34.5</ele>
        <time>2020-06-22T08:07:59Z</time>
      </trkpt>
      <trkpt lat="50.59322" lon="1.62004">
        <ele>34.6</ele>
        <time>2020-06-22T08:08:00Z</time>
      </trkpt>
      <trkpt lat="50.59326" lon="1.62009">
        <ele>34.8</ele>
        <time>2020-06-22T08:08:01Z</time>
      </trkpt>
      <trkpt lat="50.5933" lon="1.62014">
        <ele>34.9</ele>
        <time>2020-06-22T08:08:02Z</time>
      </trkpt>
      <trkpt lat="50.59334" lon="1.62019">
        <ele>35.1</ele>
        <time>2020-06-22T08:08:03Z</time>
      </trkpt>
      <trkpt lat="50.59338" lon="1.62023">
        <ele>35.2</ele>
        <time>2020-06-22T08:08:04Z</time>
      </trkpt>
      <trkpt lat="50.59343" lon="1.6203">
        <ele>35.3</ele>
        <time>2020-06-22T08:08:05Z</time>
      </trkpt>
      <trkpt lat="50.59347" lon="1.62035">
        <ele>35.4</ele>
        <time>2020-06-22T08:08:06Z</time>
      </trkpt>
      <trkpt lat="50.5935" lon="1.62038">
        <ele>35.5</ele>
        <time>2020-06-22T08:08:07Z</time>
      </trkpt>
      <trkpt lat="50.59354" lon="1.62044">
        <ele>35.5</ele>
        <time>2020-06-22T08:08:08Z</time>
      </trkpt>
      <trkpt lat="50.59359" lon="1.62049">
        <ele>35.6</ele>
        <time>2020-06-22T08:08:09Z</time>
      </trkpt>
      <trkpt lat="50.59364" lon="1.62053">
        <ele>35.7</ele>
        <time>2020-06-22T08:08:10Z</time>
      </trkpt>
      <trkpt lat="50.59367" lon="1.62058">
        <ele>35.8</ele>
        <time>2020-06-22T08:08:11Z</time>
      </trkpt>
      <trkpt lat="50.59371" lon="1.62061">
        <ele>35.8</ele>
        <time>2020-06-22T08:08:12Z</time>
      </trkpt>
      <trkpt lat="50.59375" lon="1.62065">
        <ele>35.9</ele>
        <time>2020-06-22T08:08:13Z</time>
      </trkpt>
      <trkpt lat="50.5938" lon="1.6207">
        <ele>36</ele>
        <time>2020-06-22T08:08:14Z</time>
      </trkpt>
      <trkpt lat="50.59383" lon="1.62074">
        <ele>36</ele>
        <time>2020-06-22T08:08:15Z</time>
      </trkpt>
      <trkpt lat="50.59387" lon="1.62079">
        <ele>36.1</ele>
        <time>2020-06-22T08:08:16Z</time>
      </trkpt>
      <trkpt lat="50.59392" lon="1.62084">
        <ele>36.2</ele>
        <time>2020-06-22T08:08:17Z</time>
      </trkpt>
      <trkpt lat="50.59397" lon="1.62089">
        <ele>36.3</ele>
        <time>2020-06-22T08:08:18Z</time>
      </trkpt>
      <trkpt lat="50.59402" lon="1.62094">
        <ele>36.4</ele>
        <time>2020-06-22T08:08:19Z</time>
      </trkpt>
      <trkpt lat="50.59407" lon="1.621">
        <ele>36.4</ele>
        <time>2020-06-22T08:08:20Z</time>
      </trkpt>
      <trkpt lat="50.59411" lon="1.62105">
        <ele>36.5</ele>
        <time>2020-06-22T08:08:21Z</time>
      </trkpt>
      <trkpt lat="50.59415" lon="1.62109">
        <ele>36.6</ele>
        <time>2020-06-22T08:08:22Z</time>
      </trkpt>
      <trkpt lat="50.5942" lon="1.62113">
        <ele>36.6</ele>
        <time>2020-06-22T08:08:23Z</time>
      </trkpt>
      <trkpt lat="50.59424" lon="1.62117">
        <ele>36.6</ele>
        <time>2020-06-22T08:08:24Z</time>
      </trkpt>
      <trkpt lat="50.59428" lon="1.62121">
        <ele>36.7</ele>
        <time>2020-06-22T08:08:25Z</time>
      </trkpt>
      <trkpt lat="50.59432" lon="1.62125">
        <ele>36.7</ele>
        <time>2020-06-22T08:08:26Z</time>
      </trkpt>
      <trkpt lat="50.59437" lon="1.62129">
        <ele>36.7</ele>
        <time>2020-06-22T08:08:27Z</time>
      </trkpt>
      <trkpt lat="50.59442" lon="1.62132">
        <ele>36.7</ele>
        <time>2020-06-22T08:08:28Z</time>
      </trkpt>
      <trkpt lat="50.59448" lon="1.62135">
        <ele>36.7</ele>
        <time>2020-06-22T08:08:29Z</time>
      </trkpt>
      <trkpt lat="50.59452" lon="1.62137">
        <ele>36.7</ele>
        <time>2020-06-22T08:08:30Z</time>
      </trkpt>
      <trkpt lat="50.59458" lon="1.62141">
        <ele>36.8</ele>
        <time>2020-06-22T08:08:31Z</time>
      </trkpt>
      <trkpt lat="50.59464" lon="1.62144">
        <ele>36.8</ele>
        <time>2020-06-22T08:08:32Z</time>
      </trkpt>
      <trkpt lat="50.59469" lon="1.62146">
        <ele>36.9</ele>
        <time>2020-06-22T08:08:33Z</time>
      </trkpt>
      <trkpt lat="50.59475" lon="1.6215">
        <ele>36.9</ele>
        <time>2020-06-22T08:08:34Z</time>
      </trkpt>
      <trkpt lat="50.59481" lon="1.62152">
        <ele>37</ele>
        <time>2020-06-22T08:08:35Z</time>
      </trkpt>
      <trkpt lat="50.59487" lon="1.62156">
        <ele>37.1</ele>
        <time>2020-06-22T08:08:36Z</time>
      </trkpt>
      <trkpt lat="50.59491" lon="1.62158">
        <ele>37.1</ele>
        <time>2020-06-22T08:08:37Z</time>
      </trkpt>
      <trkpt lat="50.59496" lon="1.62161">
        <ele>37.2</ele>
        <time>2020-06-22T08:08:38Z</time>
      </trkpt>
      <trkpt lat="50.595" lon="1.62163">
        <ele>37.2</ele>
        <time>2020-06-22T08:08:39Z</time>
      </trkpt>
      <trkpt lat="50.59505" lon="1.62167">
        <ele>37.2</ele>
        <time>2020-06-22T08:08:40Z</time>
      </trkpt>
      <trkpt lat="50.5951" lon="1.62169">
        <ele>37.3</ele>
        <time>2020-06-22T08:08:41Z</time>
      </trkpt>
      <trkpt lat="50.59516" lon="1.62173">
        <ele>37.3</ele>
        <time>2020-06-22T08:08:42Z</time>
      </trkpt>
      <trkpt lat="50.59522" lon="1.62176">
        <ele>37.4</ele>
        <time>2020-06-22T08:08:43Z</time>
      </trkpt>
      <trkpt lat="50.59528" lon="1.6218">
        <ele>37.4</ele>
        <time>2020-06-22T08:08:44Z</time>
      </trkpt>
      <trkpt lat="50.59533" lon="1.62183">
        <ele>37.5</ele>
        <time>2020-06-22T08:08:45Z</time>
      </trkpt>
      <trkpt lat="50.59539" lon="1.62187">
        <ele>37.6</ele>
        <time>2020-06-22T08:08:46Z</time>
      </trkpt>
      <trkpt lat="50.59545" lon="1.6219">
        <ele>37.7</ele>
        <time>2020-06-22T08:08:47Z</time>
      </trkpt>
      <trkpt lat="50.59549" lon="1.62193">
        <ele>37.7</ele>
        <time>2020-06-22T08:08:48Z</time>
      </trkpt>
      <trkpt lat="50.59554" lon="1.62196">
        <ele>37.7</ele>
        <time>2020-06-22T08:08:49Z</time>
      </trkpt>
      <trkpt lat="50.5956" lon="1.62201">
        <ele>37.8</ele>
        <time>2020-06-22T08:08:50Z</time>
      </trkpt>
      <trkpt lat="50.59565" lon="1.62205">
        <ele>37.8</ele>
        <time>2020-06-22T08:08:51Z</time>
      </trkpt>
      <trkpt lat="50.5957" lon="1.62211">
        <ele>37.8</ele>
        <time>2020-06-22T08:08:52Z</time>
      </trkpt>
      <trkpt lat="50.59575" lon="1.62215">
        <ele>37.9</ele>
        <time>2020-06-22T08:08:53Z</time>
      </trkpt>
      <trkpt lat="50.59579" lon="1.62219">
        <ele>37.9</ele>
        <time>2020-06-22T08:08:54Z</time>
      </trkpt>
      <trkpt lat="50.59584" lon="1.62223">
        <ele>37.9</ele>
        <time>2020-06-22T08:08:55Z</time>
      </trkpt>
      <trkpt lat="50.59589" lon="1.62229">
        <ele>38</ele>
        <time>2020-06-22T08:08:56Z</time>
      </trkpt>
      <trkpt lat="50.59594" lon="1.62234">
        <ele>38.1</ele>
        <time>2020-06-22T08:08:57Z</time>
      </trkpt>
      <trkpt lat="50.59598" lon="1.62239">
        <ele>38.2</ele>
        <time>2020-06-22T08:08:58Z</time>
      </trkpt>
      <trkpt lat="50.59603" lon="1.62244">
        <ele>38.2</ele>
        <time>2020-06-22T08:08:59Z</time>
      </trkpt>
      <trkpt lat="50.59608" lon="1.62251">
        <ele>38.3</ele>
        <time>2020-06-22T08:09:00Z</time>
      </trkpt>
      <trkpt lat="50.59614" lon="1.62256">
        <ele>38.4</ele>
        <time>2020-06-22T08:09:01Z</time>
      </trkpt>
      <trkpt lat="50.59618" lon="1.62259">
        <ele>38.5</ele>
        <time>2020-06-22T08:09:02Z</time>
      </trkpt>
      <trkpt lat="50.59623" lon="1.62265">
        <ele>38.6</ele>
        <time>2020-06-22T08:09:03Z</time>
      </trkpt>
      <trkpt lat="50.59628" lon="1.62269">
        <ele>38.7</ele>
        <time>2020-06-22T08:09:04Z</time>
      </trkpt>
      <trkpt lat="50.59633" lon="1.62274">
        <ele>38.8</ele>
        <time>2020-06-22T08:09:05Z</time>
      </trkpt>
      <trkpt lat="50.59638" lon="1.6228">
        <ele>38.9</ele>
        <time>2020-06-22T08:09:06Z</time>
      </trkpt>
      <trkpt lat="50.59642" lon="1.62284">
        <ele>39</ele>
        <time>2020-06-22T08:09:07Z</time>
      </trkpt>
      <trkpt lat="50.59646" lon="1.62289">
        <ele>39.1</ele>
        <time>2020-06-22T08:09:08Z</time>
      </trkpt>
      <trkpt lat="50.59651" lon="1.62295">
        <ele>39.2</ele>
        <time>2020-06-22T08:09:09Z</time>
      </trkpt>
      <trkpt lat="50.59656" lon="1.623">
        <ele>39.2</ele>
        <time>2020-06-22T08:09:10Z</time>
      </trkpt>
      <trkpt lat="50.59659" lon="1.62304">
        <ele>39.3</ele>
        <time>2020-06-22T08:09:11Z</time>
      </trkpt>
      <trkpt lat="50.59664" lon="1.62308">
        <ele>39.4</ele>
        <time>2020-06-22T08:09:12Z</time>
      </trkpt>
      <trkpt lat="50.59669" lon="1.62315">
        <ele>39.5</ele>
        <time>2020-06-22T08:09:13Z</time>
      </trkpt>
      <trkpt lat="50.59674" lon="1.6232">
        <ele>39.6</ele>
        <time>2020-06-22T08:09:14Z</time>
      </trkpt>
      <trkpt lat="50.59679" lon="1.62325">
        <ele>39.7</ele>
        <time>2020-06-22T08:09:15Z</time>
      </trkpt>
      <trkpt lat="50.59684" lon="1.6233">
        <ele>39.8</ele>
        <time>2020-06-22T08:09:16Z</time>
      </trkpt>
      <trkpt lat="50.59689" lon="1.62336">
        <ele>39.9</ele>
        <time>2020-06-22T08:09:17Z</time>
      </trkpt>
      <trkpt lat="50.59694" lon="1.62342">
        <ele>40</ele>
        <time>2020-06-22T08:09:18Z</time>
      </trkpt>
      <trkpt lat="50.59699" lon="1.62347">
        <ele>40.1</ele>
        <time>2020-06-22T08:09:19Z</time>
      </trkpt>
      <trkpt lat="50.59703" lon="1.62351">
        <ele>40.2</ele>
        <time>2020-06-22T08:09:20Z</time>
      </trkpt>
      <trkpt lat="50.59708" lon="1.62356">
        <ele>40.3</ele>
        <time>2020-06-22T08:09:21Z</time>
      </trkpt>
      <trkpt lat="50.59713" lon="1.62361">
        <ele>40.3</ele>
        <time>2020-06-22T08:09:22Z</time>
      </trkpt>
      <trkpt lat="50.59718" lon="1.62365">
        <ele>40.4</ele>
        <time>2020-06-22T08:09:23Z</time>
      </trkpt>
      <trkpt lat="50.59722" lon="1.6237">
        <ele>40.5</ele>
        <time>2020-06-22T08:09:24Z</time>
      </trkpt>
      <trkpt lat="50.59727" lon="1.62375">
        <ele>40.5</ele>
        <time>2020-06-22T08:09:25Z</time>
      </trkpt>
      <trkpt lat="50.5973" lon="1.62379">
        <ele>40.6</ele>
        <time>2020-06-22T08:09:26Z</time>
      </trkpt>
      <trkpt lat="50.59734" lon="1.62384">
        <ele>40.7</ele>
        <time>2020-06-22T08:09:27Z</time>
      </trkpt>
      <trkpt lat="50.59739" lon="1.62388">
        <ele>40.8</ele>
        <time>2020-06-22T08:09:28Z</time>
      </trkpt>
      <trkpt lat="50.59744" lon="1.62394">
        <ele>40.9</ele>
        <time>2020-06-22T08:09:29Z</time>
      </trkpt>
      <trkpt lat="50.59748" lon="1.62399">
        <ele>41</ele>
        <time>2020-06-22T08:09:30Z</time>
      </trkpt>
      <trkpt lat="50.59753" lon="1.62403">
        <ele>41.1</ele>
        <time>2020-06-22T08:09:31Z</time>
      </trkpt>
      <trkpt lat="50.59758" lon="1.62409">
        <ele>41.3</ele>
        <time>2020-06-22T08:09:32Z</time>
      </trkpt>
      <trkpt lat="50.59763" lon="1.62414">
        <ele>41.4</ele>
        <time>2020-06-22T08:09:33Z</time>
      </trkpt>
      <trkpt lat="50.59767" lon="1.6242">
        <ele>41.5</ele>
        <time>2020-06-22T08:09:34Z</time>
      </trkpt>
      <trkpt lat="50.59772" lon="1.62426">
        <ele>41.6</ele>
        <time>2020-06-22T08:09:35Z</time>
      </trkpt>
      <trkpt lat="50.59777" lon="1.62432">
        <ele>41.6</ele>
        <time>2020-06-22T08:09:36Z</time>
      </trkpt>
      <trkpt lat="50.59781" lon="1.62437">
        <ele>41.7</ele>
        <time>2020-06-22T08:09:37Z</time>
      </trkpt>
      <trkpt lat="50.59785" lon="1.62442">
        <ele>41.8</ele>
        <time>2020-06-22T08:09:38Z</time>
      </trkpt>
      <trkpt lat="50.5979" lon="1.62449">
        <ele>41.9</ele>
        <time>2020-06-22T08:09:39Z</time>
      </trkpt>
      <trkpt lat="50.59794" lon="1.62457">
        <ele>41.9</ele>
        <time>2020-06-22T08:09:40Z</time>
      </trkpt>
      <trkpt lat="50.59797" lon="1.62464">
        <ele>42</ele>
        <time>2020-06-22T08:09:41Z</time>
      </trkpt>
      <trkpt lat="50.598" lon="1.62472">
        <ele>42</ele>
        <time>2020-06-22T08:09:42Z</time>
      </trkpt>
      <trkpt lat="50.59804" lon="1.62477">
        <ele>42.1</ele>
        <time>2020-06-22T08:09:43Z</time>
      </trkpt>
      <trkpt lat="50.59807" lon="1.62484">
        <ele>42.2</ele>
        <time>2020-06-22T08:09:44Z</time>
      </trkpt>
      <trkpt lat="50.59811" lon="1.62492">
        <ele>42.3</ele>
        <time>2020-06-22T08:09:45Z</time>
      </trkpt>
      <trkpt lat="50.59814" lon="1.625">
        <ele>42.4</ele>
        <time>2020-06-22T08:09:46Z</time>
      </trkpt>
      <trkpt lat="50.59818" lon="1.62507">
        <ele>42.4</ele>
        <time>2020-06-22T08:09:47Z</time>
      </trkpt>
      <trkpt lat="50.59822" lon="1.62515">
        <ele>42.5</ele>
        <time>2020-06-22T08:09:48Z</time>
      </trkpt>
      <trkpt lat="50.59825" lon="1.62522">
        <ele>42.6</ele>
        <time>2020-06-22T08:09:49Z</time>
      </trkpt>
      <trkpt lat="50.59827" lon="1.6253">
        <ele>42.7</ele>
        <time>2020-06-22T08:09:50Z</time>
      </trkpt>
      <trkpt lat="50.5983" lon="1.62538">
        <ele>42.8</ele>
        <time>2020-06-22T08:09:51Z</time>
      </trkpt>
      <trkpt lat="50.59833" lon="1.62545">
        <ele>42.9</ele>
        <time>2020-06-22T08:09:52Z</time>
      </trkpt>
      <trkpt lat="50.59835" lon="1.62552">
        <ele>43</ele>
        <time>2020-06-22T08:09:53Z</time>
      </trkpt>
      <trkpt lat="50.59838" lon="1.62559">
        <ele>43</ele>
        <time>2020-06-22T08:09:54Z</time>
      </trkpt>
      <trkpt lat="50.5984" lon="1.62566">
        <ele>43.1</ele>
        <time>2020-06-22T08:09:55Z</time>
      </trkpt>
      <trkpt lat="50.59844" lon="1.62572">
        <ele>43.1</ele>
        <time>2020-06-22T08:09:56Z</time>
      </trkpt>
      <trkpt lat="50.59848" lon="1.6258">
        <ele>43.2</ele>
        <time>2020-06-22T08:09:57Z</time>
      </trkpt>
      <trkpt lat="50.59851" lon="1.62588">
        <ele>43.3</ele>
        <time>2020-06-22T08:09:58Z</time>
      </trkpt>
      <trkpt lat="50.59855" lon="1.62595">
        <ele>43.3</ele>
        <time>2020-06-22T08:09:59Z</time>
      </trkpt>
      <trkpt lat="50.59859" lon="1.62602">
        <ele>43.4</ele>
        <time>2020-06-22T08:10:00Z</time>
      </trkpt>
      <trkpt lat="50.59862" lon="1.62608">
        <ele>43.6</ele>
        <time>2020-06-22T08:10:01Z</time>
      </trkpt>
      <trkpt lat="50.59866" lon="1.62613">
        <ele>43.7</ele>
        <time>2020-06-22T08:10:02Z</time>
      </trkpt>
      <trkpt lat="50.59869" lon="1.62615">
        <ele>43.7</ele>
        <time>2020-06-22T08:10:03Z</time>
      </trkpt>
      <trkpt lat="50.59875" lon="1.62618">
        <ele>43.9</ele>
        <time>2020-06-22T08:10:04Z</time>
      </trkpt>
      <trkpt lat="50.59881" lon="1.62619">
        <ele>44</ele>
        <time>2020-06-22T08:10:05Z</time>
      </trkpt>
      <trkpt lat="50.59886" lon="1.62619">
        <ele>44.2</ele>
        <time>2020-06-22T08:10:06Z</time>
      </trkpt>
      <trkpt lat="50.59891" lon="1.62618">
        <ele>44.3</ele>
        <time>2020-06-22T08:10:07Z</time>
      </trkpt>
      <trkpt lat="50.59895" lon="1.62617">
        <ele>44.5</ele>
        <time>2020-06-22T08:10:08Z</time>
      </trkpt>
      <trkpt lat="50.599" lon="1.62616">
        <ele>44.6</ele>
        <time>2020-06-22T08:10:09Z</time>
      </trkpt>
      <trkpt lat="50.59904" lon="1.62614">
        <ele>45</ele>
        <time>2020-06-22T08:10:10Z</time>
      </trkpt>
      <trkpt lat="50.59909" lon="1.62611">
        <ele>45.4</ele>
        <time>2020-06-22T08:10:11Z</time>
      </trkpt>
      <trkpt lat="50.59913" lon="1.62608">
        <ele>45.8</ele>
        <time>2020-06-22T08:10:12Z</time>
      </trkpt>
      <trkpt lat="50.59917" lon="1.62606">
        <ele>46.1</ele>
        <time>2020-06-22T08:10:13Z</time>
      </trkpt>
      <trkpt lat="50.59922" lon="1.62603">
        <ele>46.5</ele>
        <time>2020-06-22T08:10:14Z</time>
      </trkpt>
      <trkpt lat="50.59926" lon="1.62599">
        <ele>46.8</ele>
        <time>2020-06-22T08:10:15Z</time>
      </trkpt>
      <trkpt lat="50.5993" lon="1.62596">
        <ele>47</ele>
        <time>2020-06-22T08:10:16Z</time>
      </trkpt>
      <trkpt lat="50.59933" lon="1.62594">
        <ele>47.2</ele>
        <time>2020-06-22T08:10:17Z</time>
      </trkpt>
      <trkpt lat="50.59937" lon="1.62592">
        <ele>47.3</ele>
        <time>2020-06-22T08:10:18Z</time>
      </trkpt>
      <trkpt lat="50.59941" lon="1.6259">
        <ele>47.6</ele>
        <time>2020-06-22T08:10:19Z</time>
      </trkpt>
      <trkpt lat="50.59944" lon="1.6259">
        <ele>47.8</ele>
        <time>2020-06-22T08:10:20Z</time>
      </trkpt>
      <trkpt lat="50.59946" lon="1.62591">
        <ele>47.9</ele>
        <time>2020-06-22T08:10:21Z</time>
      </trkpt>
      <trkpt lat="50.59951" lon="1.62596">
        <ele>48.6</ele>
        <time>2020-06-22T08:10:22Z</time>
      </trkpt>
      <trkpt lat="50.59956" lon="1.62603">
        <ele>48.9</ele>
        <time>2020-06-22T08:10:23Z</time>
      </trkpt>
      <trkpt lat="50.59958" lon="1.6261">
        <ele>49.2</ele>
        <time>2020-06-22T08:10:24Z</time>
      </trkpt>
      <trkpt lat="50.5996" lon="1.62617">
        <ele>49.4</ele>
        <time>2020-06-22T08:10:25Z</time>
      </trkpt>
      <trkpt lat="50.59962" lon="1.62623">
        <ele>49.6</ele>
        <time>2020-06-22T08:10:26Z</time>
      </trkpt>
      <trkpt lat="50.59965" lon="1.62629">
        <ele>49.8</ele>
        <time>2020-06-22T08:10:27Z</time>
      </trkpt>
      <trkpt lat="50.59966" lon="1.62635">
        <ele>50</ele>
        <time>2020-06-22T08:10:28Z</time>
      </trkpt>
      <trkpt lat="50.59968" lon="1.6264">
        <ele>50.1</ele>
        <time>2020-06-22T08:10:29Z</time>
      </trkpt>
      <trkpt lat="50.5997" lon="1.62647">
        <ele>50.4</ele>
        <time>2020-06-22T08:10:30Z</time>
      </trkpt>
      <trkpt lat="50.59972" lon="1.62652">
        <ele>50.6</ele>
        <time>2020-06-22T08:10:31Z</time>
      </trkpt>
      <trkpt lat="50.59974" lon="1.62658">
        <ele>50.8</ele>
        <time>2020-06-22T08:10:32Z</time>
      </trkpt>
      <trkpt lat="50.59976" lon="1.62664">
        <ele>51</ele>
        <time>2020-06-22T08:10:33Z</time>
      </trkpt>
      <trkpt lat="50.59978" lon="1.62671">
        <ele>51.3</ele>
        <time>2020-06-22T08:10:34Z</time>
      </trkpt>
      <trkpt lat="50.59981" lon="1.62678">
        <ele>51.5</ele>
        <time>2020-06-22T08:10:35Z</time>
      </trkpt>
      <trkpt lat="50.59984" lon="1.62686">
        <ele>51.8</ele>
        <time>2020-06-22T08:10:36Z</time>
      </trkpt>
      <trkpt lat="50.59986" lon="1.62692">
        <ele>52</ele>
        <time>2020-06-22T08:10:37Z</time>
      </trkpt>
      <trkpt lat="50.59989" lon="1.62698">
        <ele>52.2</ele>
        <time>2020-06-22T08:10:38Z</time>
      </trkpt>
      <trkpt lat="50.59992" lon="1.62704">
        <ele>52.4</ele>
        <time>2020-06-22T08:10:39Z</time>
      </trkpt>
      <trkpt lat="50.59994" lon="1.62709">
        <ele>52.5</ele>
        <time>2020-06-22T08:10:40Z</time>
      </trkpt>
      <trkpt lat="50.59997" lon="1.62717">
        <ele>52.8</ele>
        <time>2020-06-22T08:10:41Z</time>
      </trkpt>
      <trkpt lat="50.6" lon="1.62723">
        <ele>52.9</ele>
        <time>2020-06-22T08:10:42Z</time>
      </trkpt>
      <trkpt lat="50.60002" lon="1.62728">
        <ele>53.1</ele>
        <time>2020-06-22T08:10:43Z</time>
      </trkpt>
      <trkpt lat="50.60005" lon="1.62735">
        <ele>53.3</ele>
        <time>2020-06-22T08:10:44Z</time>
      </trkpt>
      <trkpt lat="50.60008" lon="1.62741">
        <ele>53.5</ele>
        <time>2020-06-22T08:10:45Z</time>
      </trkpt>
      <trkpt lat="50.6001" lon="1.62747">
        <ele>53.6</ele>
        <time>2020-06-22T08:10:46Z</time>
      </trkpt>
      <trkpt lat="50.60012" lon="1.62753">
        <ele>53.8</ele>
        <time>2020-06-22T08:10:47Z</time>
      </trkpt>
      <trkpt lat="50.60015" lon="1.62759">
        <ele>53.9</ele>
        <time>2020-06-22T08:10:48Z</time>
      </trkpt>
      <trkpt lat="50.60018" lon="1.62764">
        <ele>54.1</ele>
        <time>2020-06-22T08:10:49Z</time>
      </trkpt>
      <trkpt lat="50.60021" lon="1.6277">
        <ele>54.2</ele>
        <time>2020-06-22T08:10:50Z</time>
      </trkpt>
      <trkpt lat="50.60024" lon="1.62773">
        <ele>54.3</ele>
        <time>2020-06-22T08:10:51Z</time>
      </trkpt>
      <trkpt lat="50.60026" lon="1.62777">
        <ele>54.4</ele>
        <time>2020-06-22T08:10:52Z</time>
      </trkpt>
      <trkpt lat="50.60029" lon="1.62783">
        <ele>54.5</ele>
        <time>2020-06-22T08:10:53Z</time>
      </trkpt>
      <trkpt lat="50.60033" lon="1.62789">
        <ele>54.6</ele>
        <time>2020-06-22T08:10:54Z</time>
      </trkpt>
      <trkpt lat="50.60036" lon="1.62794">
        <ele>54.8</ele>
        <time>2020-06-22T08:10:55Z</time>
      </trkpt>
      <trkpt lat="50.6004" lon="1.628">
        <ele>54.9</ele>
        <time>2020-06-22T08:10:56Z</time>
      </trkpt>
      <trkpt lat="50.60043" lon="1.62805">
        <ele>55</ele>
        <time>2020-06-22T08:10:57Z</time>
      </trkpt>
      <trkpt lat="50.60048" lon="1.62811">
        <ele>55.2</ele>
        <time>2020-06-22T08:10:58Z</time>
      </trkpt>
      <trkpt lat="50.60051" lon="1.62816">
        <ele>55.3</ele>
        <time>2020-06-22T08:10:59Z</time>
      </trkpt>
      <trkpt lat="50.60055" lon="1.62822">
        <ele>55.4</ele>
        <time>2020-06-22T08:11:00Z</time>
      </trkpt>
      <trkpt lat="50.60059" lon="1.62828">
        <ele>55.5</ele>
        <time>2020-06-22T08:11:01Z</time>
      </trkpt>
      <trkpt lat="50.60064" lon="1.62834">
        <ele>55.6</ele>
        <time>2020-06-22T08:11:02Z</time>
      </trkpt>
      <trkpt lat="50.60068" lon="1.6284">
        <ele>55.6</ele>
        <time>2020-06-22T08:11:03Z</time>
      </trkpt>
      <trkpt lat="50.60072" lon="1.62845">
        <ele>55.7</ele>
        <time>2020-06-22T08:11:04Z</time>
      </trkpt>
      <trkpt lat="50.60076" lon="1.62851">
        <ele>55.7</ele>
        <time>2020-06-22T08:11:05Z</time>
      </trkpt>
      <trkpt lat="50.6008" lon="1.62855">
        <ele>55.7</ele>
        <time>2020-06-22T08:11:06Z</time>
      </trkpt>
      <trkpt lat="50.60084" lon="1.62862">
        <ele>55.8</ele>
        <time>2020-06-22T08:11:07Z</time>
      </trkpt>
      <trkpt lat="50.6009" lon="1.62868">
        <ele>56</ele>
        <time>2020-06-22T08:11:08Z</time>
      </trkpt>
      <trkpt lat="50.60095" lon="1.62873">
        <ele>56</ele>
        <time>2020-06-22T08:11:09Z</time>
      </trkpt>
      <trkpt lat="50.601" lon="1.62879">
        <ele>56</ele>
        <time>2020-06-22T08:11:10Z</time>
      </trkpt>
      <trkpt lat="50.60104" lon="1.62883">
        <ele>56</ele>
        <time>2020-06-22T08:11:11Z</time>
      </trkpt>
      <trkpt lat="50.60108" lon="1.62887">
        <ele>56</ele>
        <time>2020-06-22T08:11:12Z</time>
      </trkpt>
      <trkpt lat="50.60113" lon="1.62892">
        <ele>56</ele>
        <time>2020-06-22T08:11:13Z</time>
      </trkpt>
      <trkpt lat="50.60118" lon="1.62897">
        <ele>56</ele>
        <time>2020-06-22T08:11:14Z</time>
      </trkpt>
      <trkpt lat="50.60124" lon="1.62902">
        <ele>56</ele>
        <time>2020-06-22T08:11:15Z</time>
      </trkpt>
      <trkpt lat="50.60129" lon="1.62907">
        <ele>56</ele>
        <time>2020-06-22T08:11:16Z</time>
      </trkpt>
      <trkpt lat="50.60134" lon="1.62912">
        <ele>56</ele>
        <time>2020-06-22T08:11:17Z</time>
      </trkpt>
      <trkpt lat="50.6014" lon="1.62917">
        <ele>56</ele>
        <time>2020-06-22T08:11:18Z</time>
      </trkpt>
      <trkpt lat="50.60146" lon="1.62922">
        <ele>55.9</ele>
        <time>2020-06-22T08:11:19Z</time>
      </trkpt>
      <trkpt lat="50.60152" lon="1.62927">
        <ele>55.9</ele>
        <time>2020-06-22T08:11:20Z</time>
      </trkpt>
      <trkpt lat="50.60157" lon="1.62932">
        <ele>55.8</ele>
        <time>2020-06-22T08:11:21Z</time>
      </trkpt>
      <trkpt lat="50.60163" lon="1.62938">
        <ele>55.8</ele>
        <time>2020-06-22T08:11:22Z</time>
      </trkpt>
      <trkpt lat="50.60167" lon="1.62942">
        <ele>55.8</ele>
        <time>2020-06-22T08:11:23Z</time>
      </trkpt>
      <trkpt lat="50.60173" lon="1.62947">
        <ele>55.9</ele>
        <time>2020-06-22T08:11:24Z</time>
      </trkpt>
      <trkpt lat="50.60178" lon="1.6295">
        <ele>55.9</ele>
        <time>2020-06-22T08:11:25Z</time>
      </trkpt>
      <trkpt lat="50.60182" lon="1.62953">
        <ele>55.9</ele>
        <time>2020-06-22T08:11:26Z</time>
      </trkpt>
      <trkpt lat="50.60187" lon="1.62957">
        <ele>55.9</ele>
        <time>2020-06-22T08:11:27Z</time>
      </trkpt>
      <trkpt lat="50.60193" lon="1.62961">
        <ele>56</ele>
        <time>2020-06-22T08:11:28Z</time>
      </trkpt>
      <trkpt lat="50.60199" lon="1.62965">
        <ele>56</ele>
        <time>2020-06-22T08:11:29Z</time>
      </trkpt>
      <trkpt lat="50.60204" lon="1.62969">
        <ele>56</ele>
        <time>2020-06-22T08:11:30Z</time>
      </trkpt>
      <trkpt lat="50.60208" lon="1.62972">
        <ele>56.1</ele>
        <time>2020-06-22T08:11:31Z</time>
      </trkpt>
      <trkpt lat="50.60213" lon="1.62975">
        <ele>56.2</ele>
        <time>2020-06-22T08:11:32Z</time>
      </trkpt>
      <trkpt lat="50.60217" lon="1.62978">
        <ele>56.3</ele>
        <time>2020-06-22T08:11:33Z</time>
      </trkpt>
      <trkpt lat="50.6022" lon="1.6298">
        <ele>56.4</ele>
        <time>2020-06-22T08:11:34Z</time>
      </trkpt>
      <trkpt lat="50.60225" lon="1.62981">
        <ele>56.5</ele>
        <time>2020-06-22T08:11:35Z</time>
      </trkpt>
      <trkpt lat="50.6023" lon="1.62982">
        <ele>56.8</ele>
        <time>2020-06-22T08:11:36Z</time>
      </trkpt>
      <trkpt lat="50.60235" lon="1.6298">
        <ele>56.9</ele>
        <time>2020-06-22T08:11:37Z</time>
      </trkpt>
      <trkpt lat="50.60238" lon="1.62975">
        <ele>57.5</ele>
        <time>2020-06-22T08:11:38Z</time>
      </trkpt>
      <trkpt lat="50.60242" lon="1.62973">
        <ele>57.5</ele>
        <time>2020-06-22T08:11:39Z</time>
      </trkpt>
      <trkpt lat="50.60246" lon="1.62975">
        <ele>57.6</ele>
        <time>2020-06-22T08:11:40Z</time>
      </trkpt>
      <trkpt lat="50.6025" lon="1.62978">
        <ele>57.6</ele>
        <time>2020-06-22T08:11:41Z</time>
      </trkpt>
      <trkpt lat="50.60253" lon="1.6298">
        <ele>57.7</ele>
        <time>2020-06-22T08:11:42Z</time>
      </trkpt>
      <trkpt lat="50.60257" lon="1.62983">
        <ele>57.8</ele>
        <time>2020-06-22T08:11:43Z</time>
      </trkpt>
      <trkpt lat="50.60261" lon="1.62986">
        <ele>57.9</ele>
        <time>2020-06-22T08:11:44Z</time>
      </trkpt>
      <trkpt lat="50.60266" lon="1.62988">
        <ele>58</ele>
        <time>2020-06-22T08:11:45Z</time>
      </trkpt>
      <trkpt lat="50.6027" lon="1.6299">
        <ele>58.1</ele>
        <time>2020-06-22T08:11:46Z</time>
      </trkpt>
      <trkpt lat="50.60276" lon="1.62994">
        <ele>58.2</ele>
        <time>2020-06-22T08:11:47Z</time>
      </trkpt>
      <trkpt lat="50.6028" lon="1.62997">
        <ele>58.3</ele>
        <time>2020-06-22T08:11:48Z</time>
      </trkpt>
      <trkpt lat="50.60285" lon="1.62999">
        <ele>58.4</ele>
        <time>2020-06-22T08:11:49Z</time>
      </trkpt>
      <trkpt lat="50.60289" lon="1.63003">
        <ele>58.5</ele>
        <time>2020-06-22T08:11:50Z</time>
      </trkpt>
      <trkpt lat="50.60294" lon="1.63005">
        <ele>58.5</ele>
        <time>2020-06-22T08:11:51Z</time>
      </trkpt>
      <trkpt lat="50.60298" lon="1.63007">
        <ele>58.6</ele>
        <time>2020-06-22T08:11:52Z</time>
      </trkpt>
      <trkpt lat="50.60303" lon="1.63009">
        <ele>58.7</ele>
        <time>2020-06-22T08:11:53Z</time>
      </trkpt>
      <trkpt lat="50.60307" lon="1.63013">
        <ele>58.8</ele>
        <time>2020-06-22T08:11:54Z</time>
      </trkpt>
      <trkpt lat="50.60312" lon="1.63017">
        <ele>58.9</ele>
        <time>2020-06-22T08:11:55Z</time>
      </trkpt>
      <trkpt lat="50.60316" lon="1.63019">
        <ele>59</ele>
        <time>2020-06-22T08:11:56Z</time>
      </trkpt>
      <trkpt lat="50.60321" lon="1.63023">
        <ele>59.1</ele>
        <time>2020-06-22T08:11:57Z</time>
      </trkpt>
      <trkpt lat="50.60325" lon="1.63025">
        <ele>59.1</ele>
        <time>2020-06-22T08:11:58Z</time>
      </trkpt>
      <trkpt lat="50.6033" lon="1.63026">
        <ele>59.2</ele>
        <time>2020-06-22T08:11:59Z</time>
      </trkpt>
      <trkpt lat="50.60334" lon="1.63027">
        <ele>59.3</ele>
        <time>2020-06-22T08:12:00Z</time>
      </trkpt>
      <trkpt lat="50.6034" lon="1.63029">
        <ele>59.3</ele>
        <time>2020-06-22T08:12:01Z</time>
      </trkpt>
      <trkpt lat="50.60346" lon="1.63033">
        <ele>59.4</ele>
        <time>2020-06-22T08:12:02Z</time>
      </trkpt>
      <trkpt lat="50.60352" lon="1.63036">
        <ele>59.5</ele>
        <time>2020-06-22T08:12:03Z</time>
      </trkpt>
      <trkpt lat="50.60357" lon="1.63039">
        <ele>59.6</ele>
        <time>2020-06-22T08:12:04Z</time>
      </trkpt>
      <trkpt lat="50.60362" lon="1.63041">
        <ele>59.7</ele>
        <time>2020-06-22T08:12:05Z</time>
      </trkpt>
      <trkpt lat="50.60368" lon="1.63044">
        <ele>59.8</ele>
        <time>2020-06-22T08:12:06Z</time>
      </trkpt>
      <trkpt lat="50.60374" lon="1.63047">
        <ele>59.9</ele>
        <time>2020-06-22T08:12:07Z</time>
      </trkpt>
      <trkpt lat="50.6038" lon="1.63049">
        <ele>60</ele>
        <time>2020-06-22T08:12:08Z</time>
      </trkpt>
      <trkpt lat="50.60385" lon="1.63052">
        <ele>60</ele>
        <time>2020-06-22T08:12:09Z</time>
      </trkpt>
      <trkpt lat="50.60391" lon="1.63055">
        <ele>60.1</ele>
        <time>2020-06-22T08:12:10Z</time>
      </trkpt>
      <trkpt lat="50.60396" lon="1.63058">
        <ele>60.2</ele>
        <time>2020-06-22T08:12:11Z</time>
      </trkpt>
      <trkpt lat="50.60401" lon="1.63061">
        <ele>60.2</ele>
        <time>2020-06-22T08:12:12Z</time>
      </trkpt>
      <trkpt lat="50.60407" lon="1.63064">
        <ele>60.3</ele>
        <time>2020-06-22T08:12:13Z</time>
      </trkpt>
      <trkpt lat="50.60411" lon="1.63067">
        <ele>60.3</ele>
        <time>2020-06-22T08:12:14Z</time>
      </trkpt>
      <trkpt lat="50.60416" lon="1.6307">
        <ele>60.4</ele>
        <time>2020-06-22T08:12:15Z</time>
      </trkpt>
      <trkpt lat="50.60421" lon="1.63073">
        <ele>60.4</ele>
        <time>2020-06-22T08:12:16Z</time>
      </trkpt>
      <trkpt lat="50.60427" lon="1.63076">
        <ele>60.5</ele>
        <time>2020-06-22T08:12:17Z</time>
      </trkpt>
      <trkpt lat="50.60432" lon="1.63078">
        <ele>60.6</ele>
        <time>2020-06-22T08:12:18Z</time>
      </trkpt>
      <trkpt lat="50.60437" lon="1.6308">
        <ele>60.8</ele>
        <time>2020-06-22T08:12:19Z</time>
      </trkpt>
      <trkpt lat="50.60441" lon="1.63082">
        <ele>60.9</ele>
        <time>2020-06-22T08:12:20Z</time>
      </trkpt>
      <trkpt lat="50.60446" lon="1.63084">
        <ele>61</ele>
        <time>2020-06-22T08:12:21Z</time>
      </trkpt>
      <trkpt lat="50.60451" lon="1.63086">
        <ele>61.1</ele>
        <time>2020-06-22T08:12:22Z</time>
      </trkpt>
      <trkpt lat="50.60455" lon="1.63089">
        <ele>61.2</ele>
        <time>2020-06-22T08:12:23Z</time>
      </trkpt>
      <trkpt lat="50.60461" lon="1.63091">
        <ele>61.4</ele>
        <time>2020-06-22T08:12:24Z</time>
      </trkpt>
      <trkpt lat="50.60468" lon="1.63094">
        <ele>61.6</ele>
        <time>2020-06-22T08:12:25Z</time>
      </trkpt>
      <trkpt lat="50.60474" lon="1.63096">
        <ele>61.8</ele>
        <time>2020-06-22T08:12:26Z</time>
      </trkpt>
      <trkpt lat="50.60479" lon="1.63099">
        <ele>61.9</ele>
        <time>2020-06-22T08:12:27Z</time>
      </trkpt>
      <trkpt lat="50.60485" lon="1.63101">
        <ele>62.1</ele>
        <time>2020-06-22T08:12:28Z</time>
      </trkpt>
      <trkpt lat="50.6049" lon="1.63102">
        <ele>62.2</ele>
        <time>2020-06-22T08:12:29Z</time>
      </trkpt>
      <trkpt lat="50.60495" lon="1.63105">
        <ele>62.4</ele>
        <time>2020-06-22T08:12:30Z</time>
      </trkpt>
      <trkpt lat="50.60501" lon="1.63107">
        <ele>62.6</ele>
        <time>2020-06-22T08:12:31Z</time>
      </trkpt>
      <trkpt lat="50.60507" lon="1.63109">
        <ele>62.8</ele>
        <time>2020-06-22T08:12:32Z</time>
      </trkpt>
      <trkpt lat="50.60512" lon="1.63111">
        <ele>62.9</ele>
        <time>2020-06-22T08:12:33Z</time>
      </trkpt>
      <trkpt lat="50.60518" lon="1.63112">
        <ele>63.1</ele>
        <time>2020-06-22T08:12:34Z</time>
      </trkpt>
      <trkpt lat="50.60523" lon="1.63115">
        <ele>63.3</ele>
        <time>2020-06-22T08:12:35Z</time>
      </trkpt>
      <trkpt lat="50.60529" lon="1.63117">
        <ele>63.5</ele>
        <time>2020-06-22T08:12:36Z</time>
      </trkpt>
      <trkpt lat="50.60535" lon="1.6312">
        <ele>63.7</ele>
        <time>2020-06-22T08:12:37Z</time>
      </trkpt>
      <trkpt lat="50.60539" lon="1.63124">
        <ele>63.8</ele>
        <time>2020-06-22T08:12:38Z</time>
      </trkpt>
      <trkpt lat="50.60544" lon="1.63126">
        <ele>64</ele>
        <time>2020-06-22T08:12:39Z</time>
      </trkpt>
      <trkpt lat="50.60549" lon="1.63128">
        <ele>64.2</ele>
        <time>2020-06-22T08:12:40Z</time>
      </trkpt>
      <trkpt lat="50.60553" lon="1.6313">
        <ele>64.3</ele>
        <time>2020-06-22T08:12:41Z</time>
      </trkpt>
      <trkpt lat="50.60558" lon="1.63132">
        <ele>64.5</ele>
        <time>2020-06-22T08:12:42Z</time>
      </trkpt>
      <trkpt lat="50.60563" lon="1.63134">
        <ele>64.7</ele>
        <time>2020-06-22T08:12:43Z</time>
      </trkpt>
      <trkpt lat="50.60568" lon="1.63135">
        <ele>64.9</ele>
        <time>2020-06-22T08:12:44Z</time>
      </trkpt>
      <trkpt lat="50.60573" lon="1.63136">
        <ele>65.1</ele>
        <time>2020-06-22T08:12:45Z</time>
      </trkpt>
      <trkpt lat="50.60579" lon="1.63139">
        <ele>65.3</ele>
        <time>2020-06-22T08:12:46Z</time>
      </trkpt>
      <trkpt lat="50.60585" lon="1.63141">
        <ele>65.4</ele>
        <time>2020-06-22T08:12:47Z</time>
      </trkpt>
      <trkpt lat="50.60589" lon="1.63142">
        <ele>65.6</ele>
        <time>2020-06-22T08:12:48Z</time>
      </trkpt>
      <trkpt lat="50.60593" lon="1.63143">
        <ele>65.7</ele>
        <time>2020-06-22T08:12:49Z</time>
      </trkpt>
      <trkpt lat="50.60598" lon="1.63146">
        <ele>65.8</ele>
        <time>2020-06-22T08:12:50Z</time>
      </trkpt>
      <trkpt lat="50.60602" lon="1.63148">
        <ele>66</ele>
        <time>2020-06-22T08:12:51Z</time>
      </trkpt>
      <trkpt lat="50.60607" lon="1.6315">
        <ele>66.1</ele>
        <time>2020-06-22T08:12:52Z</time>
      </trkpt>
      <trkpt lat="50.60611" lon="1.63152">
        <ele>66.2</ele>
        <time>2020-06-22T08:12:53Z</time>
      </trkpt>
      <trkpt lat="50.60616" lon="1.63154">
        <ele>66.4</ele>
        <time>2020-06-22T08:12:54Z</time>
      </trkpt>
      <trkpt lat="50.6062" lon="1.63157">
        <ele>66.5</ele>
        <time>2020-06-22T08:12:55Z</time>
      </trkpt>
      <trkpt lat="50.60626" lon="1.63158">
        <ele>66.6</ele>
        <time>2020-06-22T08:12:56Z</time>
      </trkpt>
      <trkpt lat="50.60631" lon="1.6316">
        <ele>66.7</ele>
        <time>2020-06-22T08:12:57Z</time>
      </trkpt>
      <trkpt lat="50.60637" lon="1.63163">
        <ele>66.9</ele>
        <time>2020-06-22T08:12:58Z</time>
      </trkpt>
      <trkpt lat="50.60641" lon="1.63164">
        <ele>67</ele>
        <time>2020-06-22T08:12:59Z</time>
      </trkpt>
      <trkpt lat="50.60646" lon="1.63167">
        <ele>67.1</ele>
        <time>2020-06-22T08:13:00Z</time>
      </trkpt>
      <trkpt lat="50.60652" lon="1.63169">
        <ele>67.2</ele>
        <time>2020-06-22T08:13:01Z</time>
      </trkpt>
      <trkpt lat="50.60657" lon="1.63171">
        <ele>67.3</ele>
        <time>2020-06-22T08:13:02Z</time>
      </trkpt>
      <trkpt lat="50.60661" lon="1.63173">
        <ele>67.4</ele>
        <time>2020-06-22T08:13:03Z</time>
      </trkpt>
      <trkpt lat="50.60666" lon="1.63174">
        <ele>67.5</ele>
        <time>2020-06-22T08:13:04Z</time>
      </trkpt>
      <trkpt lat="50.60673" lon="1.63177">
        <ele>67.7</ele>
        <time>2020-06-22T08:13:05Z</time>
      </trkpt>
      <trkpt lat="50.60679" lon="1.6318">
        <ele>67.8</ele>
        <time>2020-06-22T08:13:06Z</time>
      </trkpt>
      <trkpt lat="50.60685" lon="1.63183">
        <ele>68</ele>
        <time>2020-06-22T08:13:07Z</time>
      </trkpt>
      <trkpt lat="50.60691" lon="1.63185">
        <ele>68.1</ele>
        <time>2020-06-22T08:13:08Z</time>
      </trkpt>
      <trkpt lat="50.60697" lon="1.63188">
        <ele>68.2</ele>
        <time>2020-06-22T08:13:09Z</time>
      </trkpt>
      <trkpt lat="50.60703" lon="1.6319">
        <ele>68.3</ele>
        <time>2020-06-22T08:13:10Z</time>
      </trkpt>
      <trkpt lat="50.60708" lon="1.63192">
        <ele>68.4</ele>
        <time>2020-06-22T08:13:11Z</time>
      </trkpt>
      <trkpt lat="50.60714" lon="1.63194">
        <ele>68.4</ele>
        <time>2020-06-22T08:13:12Z</time>
      </trkpt>
      <trkpt lat="50.6072" lon="1.63197">
        <ele>68.5</ele>
        <time>2020-06-22T08:13:13Z</time>
      </trkpt>
      <trkpt lat="50.60726" lon="1.63199">
        <ele>68.5</ele>
        <time>2020-06-22T08:13:14Z</time>
      </trkpt>
      <trkpt lat="50.60731" lon="1.632">
        <ele>68.6</ele>
        <time>2020-06-22T08:13:15Z</time>
      </trkpt>
      <trkpt lat="50.60736" lon="1.63203">
        <ele>68.7</ele>
        <time>2020-06-22T08:13:16Z</time>
      </trkpt>
      <trkpt lat="50.60742" lon="1.63204">
        <ele>68.8</ele>
        <time>2020-06-22T08:13:17Z</time>
      </trkpt>
      <trkpt lat="50.60748" lon="1.63206">
        <ele>68.8</ele>
        <time>2020-06-22T08:13:18Z</time>
      </trkpt>
      <trkpt lat="50.60753" lon="1.63209">
        <ele>68.9</ele>
        <time>2020-06-22T08:13:19Z</time>
      </trkpt>
      <trkpt lat="50.60759" lon="1.63211">
        <ele>69</ele>
        <time>2020-06-22T08:13:20Z</time>
      </trkpt>
      <trkpt lat="50.60765" lon="1.63213">
        <ele>69.1</ele>
        <time>2020-06-22T08:13:21Z</time>
      </trkpt>
      <trkpt lat="50.60771" lon="1.63215">
        <ele>69.2</ele>
        <time>2020-06-22T08:13:22Z</time>
      </trkpt>
      <trkpt lat="50.60777" lon="1.63218">
        <ele>69.2</ele>
        <time>2020-06-22T08:13:23Z</time>
      </trkpt>
      <trkpt lat="50.60782" lon="1.6322">
        <ele>69.3</ele>
        <time>2020-06-22T08:13:24Z</time>
      </trkpt>
      <trkpt lat="50.60788" lon="1.63223">
        <ele>69.4</ele>
        <time>2020-06-22T08:13:25Z</time>
      </trkpt>
      <trkpt lat="50.60794" lon="1.63226">
        <ele>69.4</ele>
        <time>2020-06-22T08:13:26Z</time>
      </trkpt>
      <trkpt lat="50.60799" lon="1.63229">
        <ele>69.4</ele>
        <time>2020-06-22T08:13:27Z</time>
      </trkpt>
      <trkpt lat="50.60805" lon="1.63232">
        <ele>69.5</ele>
        <time>2020-06-22T08:13:28Z</time>
      </trkpt>
      <trkpt lat="50.6081" lon="1.63234">
        <ele>69.5</ele>
        <time>2020-06-22T08:13:29Z</time>
      </trkpt>
      <trkpt lat="50.60815" lon="1.63236">
        <ele>69.5</ele>
        <time>2020-06-22T08:13:30Z</time>
      </trkpt>
      <trkpt lat="50.60819" lon="1.63238">
        <ele>69.5</ele>
        <time>2020-06-22T08:13:31Z</time>
      </trkpt>
      <trkpt lat="50.60826" lon="1.63241">
        <ele>69.5</ele>
        <time>2020-06-22T08:13:32Z</time>
      </trkpt>
      <trkpt lat="50.60832" lon="1.63244">
        <ele>69.5</ele>
        <time>2020-06-22T08:13:33Z</time>
      </trkpt>
      <trkpt lat="50.60838" lon="1.63248">
        <ele>69.4</ele>
        <time>2020-06-22T08:13:34Z</time>
      </trkpt>
      <trkpt lat="50.60844" lon="1.63251">
        <ele>69.4</ele>
        <time>2020-06-22T08:13:35Z</time>
      </trkpt>
      <trkpt lat="50.6085" lon="1.63253">
        <ele>69.4</ele>
        <time>2020-06-22T08:13:36Z</time>
      </trkpt>
      <trkpt lat="50.60856" lon="1.63256">
        <ele>69.4</ele>
        <time>2020-06-22T08:13:37Z</time>
      </trkpt>
      <trkpt lat="50.60863" lon="1.63259">
        <ele>69.3</ele>
        <time>2020-06-22T08:13:38Z</time>
      </trkpt>
      <trkpt lat="50.60868" lon="1.63262">
        <ele>69.2</ele>
        <time>2020-06-22T08:13:39Z</time>
      </trkpt>
      <trkpt lat="50.60873" lon="1.63263">
        <ele>69.1</ele>
        <time>2020-06-22T08:13:40Z</time>
      </trkpt>
      <trkpt lat="50.60878" lon="1.63266">
        <ele>69</ele>
        <time>2020-06-22T08:13:41Z</time>
      </trkpt>
      <trkpt lat="50.60883" lon="1.63268">
        <ele>68.9</ele>
        <time>2020-06-22T08:13:42Z</time>
      </trkpt>
      <trkpt lat="50.60888" lon="1.6327">
        <ele>68.8</ele>
        <time>2020-06-22T08:13:43Z</time>
      </trkpt>
      <trkpt lat="50.60895" lon="1.63272">
        <ele>68.8</ele>
        <time>2020-06-22T08:13:44Z</time>
      </trkpt>
      <trkpt lat="50.609" lon="1.63274">
        <ele>68.7</ele>
        <time>2020-06-22T08:13:45Z</time>
      </trkpt>
      <trkpt lat="50.60906" lon="1.63276">
        <ele>68.6</ele>
        <time>2020-06-22T08:13:46Z</time>
      </trkpt>
      <trkpt lat="50.6091" lon="1.63276">
        <ele>68.6</ele>
        <time>2020-06-22T08:13:47Z</time>
      </trkpt>
      <trkpt lat="50.60917" lon="1.63276">
        <ele>68.5</ele>
        <time>2020-06-22T08:13:48Z</time>
      </trkpt>
      <trkpt lat="50.60923" lon="1.63276">
        <ele>68.4</ele>
        <time>2020-06-22T08:13:49Z</time>
      </trkpt>
      <trkpt lat="50.60928" lon="1.63276">
        <ele>68.3</ele>
        <time>2020-06-22T08:13:50Z</time>
      </trkpt>
      <trkpt lat="50.60934" lon="1.63278">
        <ele>68.2</ele>
        <time>2020-06-22T08:13:51Z</time>
      </trkpt>
      <trkpt lat="50.60941" lon="1.63278">
        <ele>68.1</ele>
        <time>2020-06-22T08:13:52Z</time>
      </trkpt>
      <trkpt lat="50.60947" lon="1.63279">
        <ele>68</ele>
        <time>2020-06-22T08:13:53Z</time>
      </trkpt>
      <trkpt lat="50.60953" lon="1.63279">
        <ele>67.9</ele>
        <time>2020-06-22T08:13:54Z</time>
      </trkpt>
      <trkpt lat="50.60959" lon="1.6328">
        <ele>67.8</ele>
        <time>2020-06-22T08:13:55Z</time>
      </trkpt>
      <trkpt lat="50.60966" lon="1.63281">
        <ele>67.6</ele>
        <time>2020-06-22T08:13:56Z</time>
      </trkpt>
      <trkpt lat="50.60971" lon="1.63282">
        <ele>67.5</ele>
        <time>2020-06-22T08:13:57Z</time>
      </trkpt>
      <trkpt lat="50.60977" lon="1.63282">
        <ele>67.4</ele>
        <time>2020-06-22T08:13:58Z</time>
      </trkpt>
      <trkpt lat="50.60984" lon="1.63282">
        <ele>67.3</ele>
        <time>2020-06-22T08:13:59Z</time>
      </trkpt>
      <trkpt lat="50.60991" lon="1.63283">
        <ele>67.2</ele>
        <time>2020-06-22T08:14:00Z</time>
      </trkpt>
      <trkpt lat="50.60997" lon="1.63282">
        <ele>67</ele>
        <time>2020-06-22T08:14:01Z</time>
      </trkpt>
      <trkpt lat="50.61004" lon="1.63282">
        <ele>66.9</ele>
        <time>2020-06-22T08:14:02Z</time>
      </trkpt>
      <trkpt lat="50.6101" lon="1.63282">
        <ele>66.8</ele>
        <time>2020-06-22T08:14:03Z</time>
      </trkpt>
      <trkpt lat="50.61016" lon="1.6328">
        <ele>66.7</ele>
        <time>2020-06-22T08:14:04Z</time>
      </trkpt>
      <trkpt lat="50.61022" lon="1.6328">
        <ele>66.5</ele>
        <time>2020-06-22T08:14:05Z</time>
      </trkpt>
      <trkpt lat="50.61029" lon="1.6328">
        <ele>66.4</ele>
        <time>2020-06-22T08:14:06Z</time>
      </trkpt>
      <trkpt lat="50.61033" lon="1.63279">
        <ele>66.4</ele>
        <time>2020-06-22T08:14:07Z</time>
      </trkpt>
      <trkpt lat="50.61039" lon="1.63279">
        <ele>66.3</ele>
        <time>2020-06-22T08:14:08Z</time>
      </trkpt>
      <trkpt lat="50.61047" lon="1.63278">
        <ele>66.2</ele>
        <time>2020-06-22T08:14:09Z</time>
      </trkpt>
      <trkpt lat="50.61053" lon="1.63278">
        <ele>66.2</ele>
        <time>2020-06-22T08:14:10Z</time>
      </trkpt>
      <trkpt lat="50.6106" lon="1.63278">
        <ele>66</ele>
        <time>2020-06-22T08:14:11Z</time>
      </trkpt>
      <trkpt lat="50.61066" lon="1.63277">
        <ele>65.9</ele>
        <time>2020-06-22T08:14:12Z</time>
      </trkpt>
      <trkpt lat="50.61072" lon="1.63277">
        <ele>65.8</ele>
        <time>2020-06-22T08:14:13Z</time>
      </trkpt>
      <trkpt lat="50.61078" lon="1.63276">
        <ele>65.7</ele>
        <time>2020-06-22T08:14:14Z</time>
      </trkpt>
      <trkpt lat="50.61086" lon="1.63275">
        <ele>65.7</ele>
        <time>2020-06-22T08:14:15Z</time>
      </trkpt>
      <trkpt lat="50.61092" lon="1.63273">
        <ele>65.6</ele>
        <time>2020-06-22T08:14:16Z</time>
      </trkpt>
      <trkpt lat="50.61098" lon="1.63273">
        <ele>65.5</ele>
        <time>2020-06-22T08:14:17Z</time>
      </trkpt>
      <trkpt lat="50.61105" lon="1.63271">
        <ele>65.5</ele>
        <time>2020-06-22T08:14:18Z</time>
      </trkpt>
      <trkpt lat="50.61111" lon="1.63269">
        <ele>65.4</ele>
        <time>2020-06-22T08:14:19Z</time>
      </trkpt>
      <trkpt lat="50.61115" lon="1.63265">
        <ele>65.4</ele>
        <time>2020-06-22T08:14:20Z</time>
      </trkpt>
      <trkpt lat="50.6112" lon="1.63259">
        <ele>65.3</ele>
        <time>2020-06-22T08:14:21Z</time>
      </trkpt>
      <trkpt lat="50.61124" lon="1.63255">
        <ele>65.3</ele>
        <time>2020-06-22T08:14:22Z</time>
      </trkpt>
      <trkpt lat="50.61128" lon="1.6325">
        <ele>65.3</ele>
        <time>2020-06-22T08:14:23Z</time>
      </trkpt>
      <trkpt lat="50.61133" lon="1.63246">
        <ele>65.2</ele>
        <time>2020-06-22T08:14:24Z</time>
      </trkpt>
      <trkpt lat="50.61137" lon="1.63242">
        <ele>65.2</ele>
        <time>2020-06-22T08:14:25Z</time>
      </trkpt>
      <trkpt lat="50.61142" lon="1.63242">
        <ele>65.2</ele>
        <time>2020-06-22T08:14:26Z</time>
      </trkpt>
      <trkpt lat="50.61148" lon="1.63243">
        <ele>65.1</ele>
        <time>2020-06-22T08:14:27Z</time>
      </trkpt>
      <trkpt lat="50.61153" lon="1.63246">
        <ele>65</ele>
        <time>2020-06-22T08:14:28Z</time>
      </trkpt>
      <trkpt lat="50.61158" lon="1.6325">
        <ele>64.9</ele>
        <time>2020-06-22T08:14:29Z</time>
      </trkpt>
      <trkpt lat="50.61162" lon="1.63257">
        <ele>64.7</ele>
        <time>2020-06-22T08:14:30Z</time>
      </trkpt>
      <trkpt lat="50.61167" lon="1.63264">
        <ele>64.6</ele>
        <time>2020-06-22T08:14:31Z</time>
      </trkpt>
      <trkpt lat="50.61171" lon="1.63273">
        <ele>64.4</ele>
        <time>2020-06-22T08:14:32Z</time>
      </trkpt>
      <trkpt lat="50.61174" lon="1.63281">
        <ele>64.2</ele>
        <time>2020-06-22T08:14:33Z</time>
      </trkpt>
      <trkpt lat="50.61177" lon="1.6329">
        <ele>64.1</ele>
        <time>2020-06-22T08:14:34Z</time>
      </trkpt>
      <trkpt lat="50.61179" lon="1.63299">
        <ele>63.9</ele>
        <time>2020-06-22T08:14:35Z</time>
      </trkpt>
      <trkpt lat="50.61181" lon="1.63309">
        <ele>63.8</ele>
        <time>2020-06-22T08:14:36Z</time>
      </trkpt>
      <trkpt lat="50.61185" lon="1.63317">
        <ele>63.6</ele>
        <time>2020-06-22T08:14:37Z</time>
      </trkpt>
      <trkpt lat="50.6119" lon="1.63324">
        <ele>63.4</ele>
        <time>2020-06-22T08:14:38Z</time>
      </trkpt>
      <trkpt lat="50.61195" lon="1.63329">
        <ele>63.3</ele>
        <time>2020-06-22T08:14:39Z</time>
      </trkpt>
      <trkpt lat="50.612" lon="1.63335">
        <ele>63.1</ele>
        <time>2020-06-22T08:14:40Z</time>
      </trkpt>
      <trkpt lat="50.61207" lon="1.6334">
        <ele>62.9</ele>
        <time>2020-06-22T08:14:41Z</time>
      </trkpt>
      <trkpt lat="50.61213" lon="1.63345">
        <ele>62.7</ele>
        <time>2020-06-22T08:14:42Z</time>
      </trkpt>
      <trkpt lat="50.61219" lon="1.6335">
        <ele>62.5</ele>
        <time>2020-06-22T08:14:43Z</time>
      </trkpt>
      <trkpt lat="50.61225" lon="1.63355">
        <ele>62.3</ele>
        <time>2020-06-22T08:14:44Z</time>
      </trkpt>
      <trkpt lat="50.61231" lon="1.63359">
        <ele>62.1</ele>
        <time>2020-06-22T08:14:45Z</time>
      </trkpt>
      <trkpt lat="50.61238" lon="1.63362">
        <ele>61.8</ele>
        <time>2020-06-22T08:14:46Z</time>
      </trkpt>
      <trkpt lat="50.61245" lon="1.63366">
        <ele>61.6</ele>
        <time>2020-06-22T08:14:47Z</time>
      </trkpt>
      <trkpt lat="50.61252" lon="1.63368">
        <ele>61.3</ele>
        <time>2020-06-22T08:14:48Z</time>
      </trkpt>
      <trkpt lat="50.6126" lon="1.63369">
        <ele>61.1</ele>
        <time>2020-06-22T08:14:49Z</time>
      </trkpt>
      <trkpt lat="50.61267" lon="1.6337">
        <ele>60.8</ele>
        <time>2020-06-22T08:14:50Z</time>
      </trkpt>
      <trkpt lat="50.61275" lon="1.6337">
        <ele>60.6</ele>
        <time>2020-06-22T08:14:51Z</time>
      </trkpt>
      <trkpt lat="50.61283" lon="1.63371">
        <ele>60.4</ele>
        <time>2020-06-22T08:14:52Z</time>
      </trkpt>
      <trkpt lat="50.6129" lon="1.63369">
        <ele>60.2</ele>
        <time>2020-06-22T08:14:53Z</time>
      </trkpt>
      <trkpt lat="50.61297" lon="1.63365">
        <ele>60.1</ele>
        <time>2020-06-22T08:14:54Z</time>
      </trkpt>
      <trkpt lat="50.61302" lon="1.6336">
        <ele>60</ele>
        <time>2020-06-22T08:14:55Z</time>
      </trkpt>
      <trkpt lat="50.61307" lon="1.63357">
        <ele>59.9</ele>
        <time>2020-06-22T08:14:56Z</time>
      </trkpt>
      <trkpt lat="50.61312" lon="1.63358">
        <ele>59.9</ele>
        <time>2020-06-22T08:14:57Z</time>
      </trkpt>
      <trkpt lat="50.61317" lon="1.63359">
        <ele>59.8</ele>
        <time>2020-06-22T08:14:58Z</time>
      </trkpt>
      <trkpt lat="50.6132" lon="1.63364">
        <ele>59.7</ele>
        <time>2020-06-22T08:14:59Z</time>
      </trkpt>
      <trkpt lat="50.61322" lon="1.63369">
        <ele>59.6</ele>
        <time>2020-06-22T08:15:00Z</time>
      </trkpt>
      <trkpt lat="50.61323" lon="1.63374">
        <ele>59.4</ele>
        <time>2020-06-22T08:15:01Z</time>
      </trkpt>
      <trkpt lat="50.61323" lon="1.63379">
        <ele>59.4</ele>
        <time>2020-06-22T08:15:02Z</time>
      </trkpt>
      <trkpt lat="50.61323" lon="1.63385">
        <ele>59.2</ele>
        <time>2020-06-22T08:15:03Z</time>
      </trkpt>
      <trkpt lat="50.61323" lon="1.63387">
        <ele>59.1</ele>
        <time>2020-06-22T08:15:04Z</time>
      </trkpt>
      <trkpt lat="50.61323" lon="1.63393">
        <ele>59</ele>
        <time>2020-06-22T08:15:05Z</time>
      </trkpt>
      <trkpt lat="50.61323" lon="1.63395">
        <ele>58.9</ele>
        <time>2020-06-22T08:15:06Z</time>
      </trkpt>
      <trkpt lat="50.61325" lon="1.634">
        <ele>58.9</ele>
        <time>2020-06-22T08:15:07Z</time>
      </trkpt>
      <trkpt lat="50.61326" lon="1.63401">
        <ele>58.9</ele>
        <time>2020-06-22T08:15:08Z</time>
      </trkpt>
      <trkpt lat="50.61328" lon="1.63399">
        <ele>58.8</ele>
        <time>2020-06-22T08:15:09Z</time>
      </trkpt>
      <trkpt lat="50.61331" lon="1.63397">
        <ele>58.7</ele>
        <time>2020-06-22T08:15:10Z</time>
      </trkpt>
      <trkpt lat="50.61334" lon="1.63396">
        <ele>58.7</ele>
        <time>2020-06-22T08:15:11Z</time>
      </trkpt>
      <trkpt lat="50.61337" lon="1.63396">
        <ele>58.6</ele>
        <time>2020-06-22T08:15:12Z</time>
      </trkpt>
      <trkpt lat="50.6134" lon="1.63396">
        <ele>58.6</ele>
        <time>2020-06-22T08:15:13Z</time>
      </trkpt>
      <trkpt lat="50.61343" lon="1.63399">
        <ele>58.5</ele>
        <time>2020-06-22T08:15:14Z</time>
      </trkpt>
      <trkpt lat="50.61347" lon="1.63398">
        <ele>58.4</ele>
        <time>2020-06-22T08:15:15Z</time>
      </trkpt>
      <trkpt lat="50.6135" lon="1.63397">
        <ele>58.4</ele>
        <time>2020-06-22T08:15:16Z</time>
      </trkpt>
      <trkpt lat="50.61353" lon="1.63397">
        <ele>58.3</ele>
        <time>2020-06-22T08:15:17Z</time>
      </trkpt>
      <trkpt lat="50.61356" lon="1.63397">
        <ele>58.2</ele>
        <time>2020-06-22T08:15:18Z</time>
      </trkpt>
      <trkpt lat="50.6136" lon="1.63396">
        <ele>58.1</ele>
        <time>2020-06-22T08:15:19Z</time>
      </trkpt>
      <trkpt lat="50.61364" lon="1.63397">
        <ele>58.1</ele>
        <time>2020-06-22T08:15:20Z</time>
      </trkpt>
      <trkpt lat="50.61367" lon="1.63397">
        <ele>58</ele>
        <time>2020-06-22T08:15:21Z</time>
      </trkpt>
      <trkpt lat="50.61371" lon="1.63397">
        <ele>57.9</ele>
        <time>2020-06-22T08:15:22Z</time>
      </trkpt>
      <trkpt lat="50.61374" lon="1.63397">
        <ele>57.9</ele>
        <time>2020-06-22T08:15:23Z</time>
      </trkpt>
      <trkpt lat="50.61378" lon="1.63397">
        <ele>57.8</ele>
        <time>2020-06-22T08:15:24Z</time>
      </trkpt>
      <trkpt lat="50.61381" lon="1.63397">
        <ele>57.8</ele>
        <time>2020-06-22T08:15:25Z</time>
      </trkpt>
      <trkpt lat="50.61385" lon="1.63397">
        <ele>57.7</ele>
        <time>2020-06-22T08:15:26Z</time>
      </trkpt>
      <trkpt lat="50.61388" lon="1.63396">
        <ele>57.6</ele>
        <time>2020-06-22T08:15:27Z</time>
      </trkpt>
      <trkpt lat="50.61392" lon="1.63396">
        <ele>57.6</ele>
        <time>2020-06-22T08:15:28Z</time>
      </trkpt>
      <trkpt lat="50.61395" lon="1.63397">
        <ele>57.5</ele>
        <time>2020-06-22T08:15:29Z</time>
      </trkpt>
      <trkpt lat="50.61398" lon="1.63398">
        <ele>57.5</ele>
        <time>2020-06-22T08:15:30Z</time>
      </trkpt>
      <trkpt lat="50.61401" lon="1.63397">
        <ele>57.5</ele>
        <time>2020-06-22T08:15:31Z</time>
      </trkpt>
      <trkpt lat="50.61402" lon="1.63398">
        <ele>57.4</ele>
        <time>2020-06-22T08:15:32Z</time>
      </trkpt>
      <trkpt lat="50.61403" lon="1.63397">
        <ele>57.4</ele>
        <time>2020-06-22T08:15:33Z</time>
      </trkpt>
      <trkpt lat="50.61402" lon="1.63397">
        <ele>57.4</ele>
        <time>2020-06-22T08:15:34Z</time>
      </trkpt>
      <trkpt lat="50.61402" lon="1.63396">
        <ele>57.4</ele>
        <time>2020-06-22T08:15:35Z</time>
      </trkpt>
      <trkpt lat="50.61401" lon="1.63397">
        <ele>57.4</ele>
        <time>2020-06-22T08:15:36Z</time>
      </trkpt>
      <trkpt lat="50.61401" lon="1.63396">
        <ele>57.4</ele>
        <time>2020-06-22T08:15:37Z</time>
      </trkpt>
      <trkpt lat="50.61402" lon="1.63395">
        <ele>57.4</ele>
        <time>2020-06-22T08:15:38Z</time>
      </trkpt>
      <trkpt lat="50.61403" lon="1.63394">
        <ele>57.4</ele>
        <time>2020-06-22T08:15:39Z</time>
      </trkpt>
      <trkpt lat="50.61403" lon="1.63394">
        <ele>57.4</ele>
        <time>2020-06-22T08:15:40Z</time>
      </trkpt>
      <trkpt lat="50.61404" lon="1.63394">
        <ele>57.4</ele>
        <time>2020-06-22T08:15:41Z</time>
      </trkpt>
      <trkpt lat="50.61404" lon="1.63394">
        <ele>57.4</ele>
        <time>2020-06-22T08:15:42Z</time>
      </trkpt>
      <trkpt lat="50.61403" lon="1.63392">
        <ele>57.3</ele>
        <time>2020-06-22T08:15:43Z</time>
      </trkpt>
      <trkpt lat="50.61403" lon="1.63393">
        <ele>57.3</ele>
        <time>2020-06-22T08:15:44Z</time>
      </trkpt>
      <trkpt lat="50.61403" lon="1.63394">
        <ele>57.3</ele>
        <time>2020-06-22T08:15:45Z</time>
      </trkpt>
      <trkpt lat="50.61403" lon="1.63395">
        <ele>57.3</ele>
        <time>2020-06-22T08:15:46Z</time>
      </trkpt>
      <trkpt lat="50.61404" lon="1.63396">
        <ele>57.3</ele>
        <time>2020-06-22T08:15:47Z</time>
      </trkpt>
      <trkpt lat="50.61404" lon="1.63396">
        <ele>57.3</ele>
        <time>2020-06-22T08:15:48Z</time>
      </trkpt>
      <trkpt lat="50.61404" lon="1.63396">
        <ele>57.3</ele>
        <time>2020-06-22T08:15:49Z</time>
      </trkpt>
      <trkpt lat="50.61404" lon="1.63395">
        <ele>57.3</ele>
        <time>2020-06-22T08:15:50Z</time>
      </trkpt>
      <trkpt lat="50.61404" lon="1.63394">
        <ele>57.3</ele>
        <time>2020-06-22T08:15:51Z</time>
      </trkpt>
      <trkpt lat="50.61417" lon="1.63392">
        <ele>57.1</ele>
        <time>2020-06-22T08:16:51Z</time>
      </trkpt>
      <trkpt lat="50.61421" lon="1.63392">
        <ele>57.1</ele>
        <time>2020-06-22T08:16:52Z</time>
      </trkpt>
      <trkpt lat="50.61424" lon="1.63392">
        <ele>57</ele>
        <time>2020-06-22T08:16:53Z</time>
      </trkpt>
      <trkpt lat="50.61428" lon="1.63392">
        <ele>56.9</ele>
        <time>2020-06-22T08:16:54Z</time>
      </trkpt>
      <trkpt lat="50.61432" lon="1.63392">
        <ele>56.9</ele>
        <time>2020-06-22T08:16:55Z</time>
      </trkpt>
      <trkpt lat="50.61436" lon="1.63391">
        <ele>56.8</ele>
        <time>2020-06-22T08:16:56Z</time>
      </trkpt>
      <trkpt lat="50.61441" lon="1.63391">
        <ele>56.8</ele>
        <time>2020-06-22T08:16:57Z</time>
      </trkpt>
      <trkpt lat="50.61445" lon="1.63391">
        <ele>56.7</ele>
        <time>2020-06-22T08:16:58Z</time>
      </trkpt>
      <trkpt lat="50.6145" lon="1.63391">
        <ele>56.7</ele>
        <time>2020-06-22T08:16:59Z</time>
      </trkpt>
      <trkpt lat="50.61454" lon="1.63392">
        <ele>56.6</ele>
        <time>2020-06-22T08:17:00Z</time>
      </trkpt>
      <trkpt lat="50.61458" lon="1.63393">
        <ele>56.6</ele>
        <time>2020-06-22T08:17:01Z</time>
      </trkpt>
      <trkpt lat="50.61463" lon="1.63393">
        <ele>56.5</ele>
        <time>2020-06-22T08:17:02Z</time>
      </trkpt>
      <trkpt lat="50.61467" lon="1.63393">
        <ele>56.5</ele>
        <time>2020-06-22T08:17:03Z</time>
      </trkpt>
      <trkpt lat="50.61472" lon="1.63393">
        <ele>56.4</ele>
        <time>2020-06-22T08:17:04Z</time>
      </trkpt>
      <trkpt lat="50.61476" lon="1.63394">
        <ele>56.3</ele>
        <time>2020-06-22T08:17:05Z</time>
      </trkpt>
      <trkpt lat="50.61481" lon="1.63394">
        <ele>56.3</ele>
        <time>2020-06-22T08:17:06Z</time>
      </trkpt>
      <trkpt lat="50.61486" lon="1.63393">
        <ele>56.2</ele>
        <time>2020-06-22T08:17:07Z</time>
      </trkpt>
      <trkpt lat="50.61491" lon="1.63394">
        <ele>56.1</ele>
        <time>2020-06-22T08:17:08Z</time>
      </trkpt>
      <trkpt lat="50.61497" lon="1.63394">
        <ele>56.1</ele>
        <time>2020-06-22T08:17:09Z</time>
      </trkpt>
      <trkpt lat="50.61502" lon="1.63395">
        <ele>56</ele>
        <time>2020-06-22T08:17:10Z</time>
      </trkpt>
      <trkpt lat="50.61507" lon="1.63395">
        <ele>56</ele>
        <time>2020-06-22T08:17:11Z</time>
      </trkpt>
      <trkpt lat="50.61512" lon="1.63394">
        <ele>55.9</ele>
        <time>2020-06-22T08:17:12Z</time>
      </trkpt>
      <trkpt lat="50.61517" lon="1.63393">
        <ele>55.9</ele>
        <time>2020-06-22T08:17:13Z</time>
      </trkpt>
      <trkpt lat="50.61521" lon="1.63395">
        <ele>55.8</ele>
        <time>2020-06-22T08:17:14Z</time>
      </trkpt>
      <trkpt lat="50.61526" lon="1.63397">
        <ele>55.8</ele>
        <time>2020-06-22T08:17:15Z</time>
      </trkpt>
      <trkpt lat="50.61529" lon="1.63398">
        <ele>55.7</ele>
        <time>2020-06-22T08:17:16Z</time>
      </trkpt>
      <trkpt lat="50.61533" lon="1.63399">
        <ele>55.6</ele>
        <time>2020-06-22T08:17:17Z</time>
      </trkpt>
      <trkpt lat="50.61537" lon="1.63399">
        <ele>55.5</ele>
        <time>2020-06-22T08:17:18Z</time>
      </trkpt>
      <trkpt lat="50.6154" lon="1.63398">
        <ele>55.5</ele>
        <time>2020-06-22T08:17:19Z</time>
      </trkpt>
      <trkpt lat="50.61544" lon="1.63398">
        <ele>55.4</ele>
        <time>2020-06-22T08:17:20Z</time>
      </trkpt>
      <trkpt lat="50.61548" lon="1.63399">
        <ele>55.3</ele>
        <time>2020-06-22T08:17:21Z</time>
      </trkpt>
      <trkpt lat="50.61552" lon="1.63401">
        <ele>55.2</ele>
        <time>2020-06-22T08:17:22Z</time>
      </trkpt>
      <trkpt lat="50.61557" lon="1.63402">
        <ele>55.1</ele>
        <time>2020-06-22T08:17:23Z</time>
      </trkpt>
      <trkpt lat="50.61562" lon="1.63403">
        <ele>55</ele>
        <time>2020-06-22T08:17:24Z</time>
      </trkpt>
      <trkpt lat="50.61567" lon="1.63404">
        <ele>54.9</ele>
        <time>2020-06-22T08:17:25Z</time>
      </trkpt>
      <trkpt lat="50.61572" lon="1.63405">
        <ele>54.8</ele>
        <time>2020-06-22T08:17:26Z</time>
      </trkpt>
      <trkpt lat="50.61577" lon="1.63406">
        <ele>54.7</ele>
        <time>2020-06-22T08:17:27Z</time>
      </trkpt>
      <trkpt lat="50.61582" lon="1.63406">
        <ele>54.6</ele>
        <time>2020-06-22T08:17:28Z</time>
      </trkpt>
      <trkpt lat="50.61588" lon="1.63407">
        <ele>54.5</ele>
        <time>2020-06-22T08:17:29Z</time>
      </trkpt>
      <trkpt lat="50.61594" lon="1.63408">
        <ele>54.3</ele>
        <time>2020-06-22T08:17:30Z</time>
      </trkpt>
      <trkpt lat="50.616" lon="1.63409">
        <ele>54.2</ele>
        <time>2020-06-22T08:17:31Z</time>
      </trkpt>
      <trkpt lat="50.61606" lon="1.6341">
        <ele>54.1</ele>
        <time>2020-06-22T08:17:32Z</time>
      </trkpt>
      <trkpt lat="50.61612" lon="1.63413">
        <ele>54</ele>
        <time>2020-06-22T08:17:33Z</time>
      </trkpt>
      <trkpt lat="50.61619" lon="1.63414">
        <ele>53.8</ele>
        <time>2020-06-22T08:17:34Z</time>
      </trkpt>
      <trkpt lat="50.61626" lon="1.63414">
        <ele>53.6</ele>
        <time>2020-06-22T08:17:35Z</time>
      </trkpt>
      <trkpt lat="50.61633" lon="1.63415">
        <ele>53.5</ele>
        <time>2020-06-22T08:17:36Z</time>
      </trkpt>
      <trkpt lat="50.6164" lon="1.63415">
        <ele>53.3</ele>
        <time>2020-06-22T08:17:37Z</time>
      </trkpt>
      <trkpt lat="50.61647" lon="1.63416">
        <ele>53.1</ele>
        <time>2020-06-22T08:17:38Z</time>
      </trkpt>
      <trkpt lat="50.61654" lon="1.63419">
        <ele>52.9</ele>
        <time>2020-06-22T08:17:39Z</time>
      </trkpt>
      <trkpt lat="50.61662" lon="1.63422">
        <ele>52.6</ele>
        <time>2020-06-22T08:17:40Z</time>
      </trkpt>
      <trkpt lat="50.61669" lon="1.63425">
        <ele>52.4</ele>
        <time>2020-06-22T08:17:41Z</time>
      </trkpt>
      <trkpt lat="50.61677" lon="1.63429">
        <ele>52.2</ele>
        <time>2020-06-22T08:17:42Z</time>
      </trkpt>
      <trkpt lat="50.61684" lon="1.63431">
        <ele>51.9</ele>
        <time>2020-06-22T08:17:43Z</time>
      </trkpt>
      <trkpt lat="50.61691" lon="1.63434">
        <ele>51.7</ele>
        <time>2020-06-22T08:17:44Z</time>
      </trkpt>
      <trkpt lat="50.61699" lon="1.63436">
        <ele>51.5</ele>
        <time>2020-06-22T08:17:45Z</time>
      </trkpt>
      <trkpt lat="50.61706" lon="1.63439">
        <ele>51.3</ele>
        <time>2020-06-22T08:17:46Z</time>
      </trkpt>
      <trkpt lat="50.61714" lon="1.63442">
        <ele>51.1</ele>
        <time>2020-06-22T08:17:47Z</time>
      </trkpt>
      <trkpt lat="50.61721" lon="1.63446">
        <ele>50.9</ele>
        <time>2020-06-22T08:17:48Z</time>
      </trkpt>
      <trkpt lat="50.61728" lon="1.63449">
        <ele>50.7</ele>
        <time>2020-06-22T08:17:49Z</time>
      </trkpt>
      <trkpt lat="50.61735" lon="1.63452">
        <ele>50.5</ele>
        <time>2020-06-22T08:17:50Z</time>
      </trkpt>
      <trkpt lat="50.61743" lon="1.63455">
        <ele>50.3</ele>
        <time>2020-06-22T08:17:51Z</time>
      </trkpt>
      <trkpt lat="50.6175" lon="1.63458">
        <ele>50.2</ele>
        <time>2020-06-22T08:17:52Z</time>
      </trkpt>
      <trkpt lat="50.61757" lon="1.63461">
        <ele>50.1</ele>
        <time>2020-06-22T08:17:53Z</time>
      </trkpt>
      <trkpt lat="50.61764" lon="1.63465">
        <ele>50</ele>
        <time>2020-06-22T08:17:54Z</time>
      </trkpt>
      <trkpt lat="50.61771" lon="1.63469">
        <ele>49.9</ele>
        <time>2020-06-22T08:17:55Z</time>
      </trkpt>
      <trkpt lat="50.61778" lon="1.63472">
        <ele>49.7</ele>
        <time>2020-06-22T08:17:56Z</time>
      </trkpt>
      <trkpt lat="50.61784" lon="1.63475">
        <ele>49.7</ele>
        <time>2020-06-22T08:17:57Z</time>
      </trkpt>
      <trkpt lat="50.61791" lon="1.63479">
        <ele>49.7</ele>
        <time>2020-06-22T08:17:58Z</time>
      </trkpt>
      <trkpt lat="50.61797" lon="1.63482">
        <ele>49.6</ele>
        <time>2020-06-22T08:17:59Z</time>
      </trkpt>
      <trkpt lat="50.61804" lon="1.63485">
        <ele>49.6</ele>
        <time>2020-06-22T08:18:00Z</time>
      </trkpt>
      <trkpt lat="50.61811" lon="1.63488">
        <ele>49.5</ele>
        <time>2020-06-22T08:18:01Z</time>
      </trkpt>
      <trkpt lat="50.61818" lon="1.63491">
        <ele>49.5</ele>
        <time>2020-06-22T08:18:02Z</time>
      </trkpt>
      <trkpt lat="50.61825" lon="1.63493">
        <ele>49.5</ele>
        <time>2020-06-22T08:18:03Z</time>
      </trkpt>
      <trkpt lat="50.61832" lon="1.63496">
        <ele>49.5</ele>
        <time>2020-06-22T08:18:04Z</time>
      </trkpt>
      <trkpt lat="50.61839" lon="1.63499">
        <ele>49.5</ele>
        <time>2020-06-22T08:18:05Z</time>
      </trkpt>
      <trkpt lat="50.61846" lon="1.63503">
        <ele>49.4</ele>
        <time>2020-06-22T08:18:06Z</time>
      </trkpt>
      <trkpt lat="50.61853" lon="1.63507">
        <ele>49.4</ele>
        <time>2020-06-22T08:18:07Z</time>
      </trkpt>
      <trkpt lat="50.61859" lon="1.6351">
        <ele>49.4</ele>
        <time>2020-06-22T08:18:08Z</time>
      </trkpt>
      <trkpt lat="50.61866" lon="1.63514">
        <ele>49.3</ele>
        <time>2020-06-22T08:18:09Z</time>
      </trkpt>
      <trkpt lat="50.61872" lon="1.63518">
        <ele>49.3</ele>
        <time>2020-06-22T08:18:10Z</time>
      </trkpt>
      <trkpt lat="50.61878" lon="1.63523">
        <ele>49.3</ele>
        <time>2020-06-22T08:18:11Z</time>
      </trkpt>
      <trkpt lat="50.61885" lon="1.63527">
        <ele>49.2</ele>
        <time>2020-06-22T08:18:12Z</time>
      </trkpt>
      <trkpt lat="50.61891" lon="1.63531">
        <ele>49.2</ele>
        <time>2020-06-22T08:18:13Z</time>
      </trkpt>
      <trkpt lat="50.61897" lon="1.63535">
        <ele>49.2</ele>
        <time>2020-06-22T08:18:14Z</time>
      </trkpt>
      <trkpt lat="50.61903" lon="1.63539">
        <ele>49.1</ele>
        <time>2020-06-22T08:18:15Z</time>
      </trkpt>
      <trkpt lat="50.61909" lon="1.63543">
        <ele>49.1</ele>
        <time>2020-06-22T08:18:16Z</time>
      </trkpt>
      <trkpt lat="50.61915" lon="1.63547">
        <ele>49.1</ele>
        <time>2020-06-22T08:18:17Z</time>
      </trkpt>
      <trkpt lat="50.61921" lon="1.63552">
        <ele>49</ele>
        <time>2020-06-22T08:18:18Z</time>
      </trkpt>
      <trkpt lat="50.61927" lon="1.63555">
        <ele>48.9</ele>
        <time>2020-06-22T08:18:19Z</time>
      </trkpt>
      <trkpt lat="50.61934" lon="1.63559">
        <ele>48.8</ele>
        <time>2020-06-22T08:18:20Z</time>
      </trkpt>
      <trkpt lat="50.6194" lon="1.63564">
        <ele>48.8</ele>
        <time>2020-06-22T08:18:21Z</time>
      </trkpt>
      <trkpt lat="50.61946" lon="1.63569">
        <ele>48.7</ele>
        <time>2020-06-22T08:18:22Z</time>
      </trkpt>
      <trkpt lat="50.61952" lon="1.63574">
        <ele>48.7</ele>
        <time>2020-06-22T08:18:23Z</time>
      </trkpt>
      <trkpt lat="50.61958" lon="1.63579">
        <ele>48.6</ele>
        <time>2020-06-22T08:18:24Z</time>
      </trkpt>
      <trkpt lat="50.61964" lon="1.63584">
        <ele>48.5</ele>
        <time>2020-06-22T08:18:25Z</time>
      </trkpt>
      <trkpt lat="50.6197" lon="1.63588">
        <ele>48.4</ele>
        <time>2020-06-22T08:18:26Z</time>
      </trkpt>
      <trkpt lat="50.61977" lon="1.63593">
        <ele>48.3</ele>
        <time>2020-06-22T08:18:27Z</time>
      </trkpt>
      <trkpt lat="50.61983" lon="1.63597">
        <ele>48.2</ele>
        <time>2020-06-22T08:18:28Z</time>
      </trkpt>
      <trkpt lat="50.6199" lon="1.63602">
        <ele>48.1</ele>
        <time>2020-06-22T08:18:29Z</time>
      </trkpt>
      <trkpt lat="50.61996" lon="1.63606">
        <ele>48</ele>
        <time>2020-06-22T08:18:30Z</time>
      </trkpt>
      <trkpt lat="50.62003" lon="1.6361">
        <ele>47.9</ele>
        <time>2020-06-22T08:18:31Z</time>
      </trkpt>
      <trkpt lat="50.62009" lon="1.63616">
        <ele>47.8</ele>
        <time>2020-06-22T08:18:32Z</time>
      </trkpt>
      <trkpt lat="50.62015" lon="1.63622">
        <ele>47.7</ele>
        <time>2020-06-22T08:18:33Z</time>
      </trkpt>
      <trkpt lat="50.62021" lon="1.63628">
        <ele>47.7</ele>
        <time>2020-06-22T08:18:34Z</time>
      </trkpt>
      <trkpt lat="50.62027" lon="1.63632">
        <ele>47.6</ele>
        <time>2020-06-22T08:18:35Z</time>
      </trkpt>
      <trkpt lat="50.62033" lon="1.63638">
        <ele>47.5</ele>
        <time>2020-06-22T08:18:36Z</time>
      </trkpt>
      <trkpt lat="50.6204" lon="1.63642">
        <ele>47.5</ele>
        <time>2020-06-22T08:18:37Z</time>
      </trkpt>
      <trkpt lat="50.62047" lon="1.63647">
        <ele>47.4</ele>
        <time>2020-06-22T08:18:38Z</time>
      </trkpt>
      <trkpt lat="50.62053" lon="1.63653">
        <ele>47.4</ele>
        <time>2020-06-22T08:18:39Z</time>
      </trkpt>
      <trkpt lat="50.6206" lon="1.63657">
        <ele>47.3</ele>
        <time>2020-06-22T08:18:40Z</time>
      </trkpt>
      <trkpt lat="50.62067" lon="1.63661">
        <ele>47.3</ele>
        <time>2020-06-22T08:18:41Z</time>
      </trkpt>
      <trkpt lat="50.62074" lon="1.63666">
        <ele>47.2</ele>
        <time>2020-06-22T08:18:42Z</time>
      </trkpt>
      <trkpt lat="50.62081" lon="1.63671">
        <ele>47.2</ele>
        <time>2020-06-22T08:18:43Z</time>
      </trkpt>
      <trkpt lat="50.62088" lon="1.63676">
        <ele>47.1</ele>
        <time>2020-06-22T08:18:44Z</time>
      </trkpt>
      <trkpt lat="50.62095" lon="1.63681">
        <ele>47.1</ele>
        <time>2020-06-22T08:18:45Z</time>
      </trkpt>
      <trkpt lat="50.62101" lon="1.63686">
        <ele>47</ele>
        <time>2020-06-22T08:18:46Z</time>
      </trkpt>
      <trkpt lat="50.62107" lon="1.63691">
        <ele>47</ele>
        <time>2020-06-22T08:18:47Z</time>
      </trkpt>
      <trkpt lat="50.62113" lon="1.63695">
        <ele>46.9</ele>
        <time>2020-06-22T08:18:48Z</time>
      </trkpt>
      <trkpt lat="50.62117" lon="1.63699">
        <ele>46.9</ele>
        <time>2020-06-22T08:18:49Z</time>
      </trkpt>
      <trkpt lat="50.62121" lon="1.63702">
        <ele>46.9</ele>
        <time>2020-06-22T08:18:50Z</time>
      </trkpt>
      <trkpt lat="50.62124" lon="1.63705">
        <ele>46.9</ele>
        <time>2020-06-22T08:18:51Z</time>
      </trkpt>
      <trkpt lat="50.62127" lon="1.63707">
        <ele>46.9</ele>
        <time>2020-06-22T08:18:52Z</time>
      </trkpt>
      <trkpt lat="50.62129" lon="1.63709">
        <ele>46.9</ele>
        <time>2020-06-22T08:18:53Z</time>
      </trkpt>
      <trkpt lat="50.6213" lon="1.6371">
        <ele>46.9</ele>
        <time>2020-06-22T08:18:54Z</time>
      </trkpt>
      <trkpt lat="50.62131" lon="1.63711">
        <ele>46.9</ele>
        <time>2020-06-22T08:18:55Z</time>
      </trkpt>
      <trkpt lat="50.62132" lon="1.63711">
        <ele>46.9</ele>
        <time>2020-06-22T08:18:56Z</time>
      </trkpt>
      <trkpt lat="50.62133" lon="1.63712">
        <ele>46.9</ele>
        <time>2020-06-22T08:18:57Z</time>
      </trkpt>
      <trkpt lat="50.62137" lon="1.63713">
        <ele>46.8</ele>
        <time>2020-06-22T08:18:58Z</time>
      </trkpt>
      <trkpt lat="50.62138" lon="1.63714">
        <ele>46.8</ele>
        <time>2020-06-22T08:18:59Z</time>
      </trkpt>
      <trkpt lat="50.62141" lon="1.63716">
        <ele>46.8</ele>
        <time>2020-06-22T08:19:00Z</time>
      </trkpt>
      <trkpt lat="50.62145" lon="1.63718">
        <ele>46.8</ele>
        <time>2020-06-22T08:19:01Z</time>
      </trkpt>
      <trkpt lat="50.62148" lon="1.63719">
        <ele>46.7</ele>
        <time>2020-06-22T08:19:02Z</time>
      </trkpt>
      <trkpt lat="50.62151" lon="1.6372">
        <ele>46.7</ele>
        <time>2020-06-22T08:19:03Z</time>
      </trkpt>
      <trkpt lat="50.62155" lon="1.6372">
        <ele>46.6</ele>
        <time>2020-06-22T08:19:04Z</time>
      </trkpt>
      <trkpt lat="50.6216" lon="1.63721">
        <ele>46.6</ele>
        <time>2020-06-22T08:19:05Z</time>
      </trkpt>
      <trkpt lat="50.62165" lon="1.63723">
        <ele>46.5</ele>
        <time>2020-06-22T08:19:06Z</time>
      </trkpt>
      <trkpt lat="50.62169" lon="1.63725">
        <ele>46.4</ele>
        <time>2020-06-22T08:19:07Z</time>
      </trkpt>
      <trkpt lat="50.62174" lon="1.63726">
        <ele>46.4</ele>
        <time>2020-06-22T08:19:08Z</time>
      </trkpt>
      <trkpt lat="50.62178" lon="1.63728">
        <ele>46.3</ele>
        <time>2020-06-22T08:19:09Z</time>
      </trkpt>
      <trkpt lat="50.62182" lon="1.63729">
        <ele>46.3</ele>
        <time>2020-06-22T08:19:10Z</time>
      </trkpt>
      <trkpt lat="50.62186" lon="1.63731">
        <ele>46.2</ele>
        <time>2020-06-22T08:19:11Z</time>
      </trkpt>
      <trkpt lat="50.62191" lon="1.63733">
        <ele>46.2</ele>
        <time>2020-06-22T08:19:12Z</time>
      </trkpt>
      <trkpt lat="50.62195" lon="1.63735">
        <ele>46.1</ele>
        <time>2020-06-22T08:19:13Z</time>
      </trkpt>
      <trkpt lat="50.62199" lon="1.63738">
        <ele>46.1</ele>
        <time>2020-06-22T08:19:14Z</time>
      </trkpt>
      <trkpt lat="50.62204" lon="1.63741">
        <ele>46</ele>
        <time>2020-06-22T08:19:15Z</time>
      </trkpt>
      <trkpt lat="50.62209" lon="1.63743">
        <ele>45.9</ele>
        <time>2020-06-22T08:19:16Z</time>
      </trkpt>
      <trkpt lat="50.62215" lon="1.63745">
        <ele>45.8</ele>
        <time>2020-06-22T08:19:17Z</time>
      </trkpt>
      <trkpt lat="50.6222" lon="1.63747">
        <ele>45.7</ele>
        <time>2020-06-22T08:19:18Z</time>
      </trkpt>
      <trkpt lat="50.62225" lon="1.6375">
        <ele>45.6</ele>
        <time>2020-06-22T08:19:19Z</time>
      </trkpt>
      <trkpt lat="50.6223" lon="1.63753">
        <ele>45.5</ele>
        <time>2020-06-22T08:19:20Z</time>
      </trkpt>
      <trkpt lat="50.62235" lon="1.63754">
        <ele>45.4</ele>
        <time>2020-06-22T08:19:21Z</time>
      </trkpt>
      <trkpt lat="50.62241" lon="1.63757">
        <ele>45.3</ele>
        <time>2020-06-22T08:19:22Z</time>
      </trkpt>
      <trkpt lat="50.62246" lon="1.63759">
        <ele>45.2</ele>
        <time>2020-06-22T08:19:23Z</time>
      </trkpt>
      <trkpt lat="50.62251" lon="1.63761">
        <ele>45.1</ele>
        <time>2020-06-22T08:19:24Z</time>
      </trkpt>
      <trkpt lat="50.62257" lon="1.63764">
        <ele>45</ele>
        <time>2020-06-22T08:19:25Z</time>
      </trkpt>
      <trkpt lat="50.62262" lon="1.63766">
        <ele>44.9</ele>
        <time>2020-06-22T08:19:26Z</time>
      </trkpt>
      <trkpt lat="50.62268" lon="1.63767">
        <ele>44.8</ele>
        <time>2020-06-22T08:19:27Z</time>
      </trkpt>
      <trkpt lat="50.62274" lon="1.63769">
        <ele>44.7</ele>
        <time>2020-06-22T08:19:28Z</time>
      </trkpt>
      <trkpt lat="50.6228" lon="1.63771">
        <ele>44.6</ele>
        <time>2020-06-22T08:19:29Z</time>
      </trkpt>
      <trkpt lat="50.62286" lon="1.63773">
        <ele>44.5</ele>
        <time>2020-06-22T08:19:30Z</time>
      </trkpt>
      <trkpt lat="50.62293" lon="1.63774">
        <ele>44.4</ele>
        <time>2020-06-22T08:19:31Z</time>
      </trkpt>
      <trkpt lat="50.62299" lon="1.63777">
        <ele>44.3</ele>
        <time>2020-06-22T08:19:32Z</time>
      </trkpt>
      <trkpt lat="50.62304" lon="1.63777">
        <ele>44.2</ele>
        <time>2020-06-22T08:19:33Z</time>
      </trkpt>
      <trkpt lat="50.62311" lon="1.63778">
        <ele>44.1</ele>
        <time>2020-06-22T08:19:34Z</time>
      </trkpt>
      <trkpt lat="50.62317" lon="1.63778">
        <ele>44</ele>
        <time>2020-06-22T08:19:35Z</time>
      </trkpt>
      <trkpt lat="50.62323" lon="1.63778">
        <ele>43.9</ele>
        <time>2020-06-22T08:19:36Z</time>
      </trkpt>
      <trkpt lat="50.62329" lon="1.63778">
        <ele>43.7</ele>
        <time>2020-06-22T08:19:37Z</time>
      </trkpt>
      <trkpt lat="50.62335" lon="1.63778">
        <ele>43.6</ele>
        <time>2020-06-22T08:19:38Z</time>
      </trkpt>
      <trkpt lat="50.62342" lon="1.6378">
        <ele>43.4</ele>
        <time>2020-06-22T08:19:39Z</time>
      </trkpt>
      <trkpt lat="50.62348" lon="1.63781">
        <ele>43.3</ele>
        <time>2020-06-22T08:19:40Z</time>
      </trkpt>
      <trkpt lat="50.62354" lon="1.63782">
        <ele>43.2</ele>
        <time>2020-06-22T08:19:41Z</time>
      </trkpt>
      <trkpt lat="50.6236" lon="1.63783">
        <ele>43.2</ele>
        <time>2020-06-22T08:19:42Z</time>
      </trkpt>
      <trkpt lat="50.62367" lon="1.63784">
        <ele>43.1</ele>
        <time>2020-06-22T08:19:43Z</time>
      </trkpt>
      <trkpt lat="50.62373" lon="1.63785">
        <ele>43</ele>
        <time>2020-06-22T08:19:44Z</time>
      </trkpt>
      <trkpt lat="50.62379" lon="1.63787">
        <ele>43</ele>
        <time>2020-06-22T08:19:45Z</time>
      </trkpt>
      <trkpt lat="50.62386" lon="1.63787">
        <ele>42.9</ele>
        <time>2020-06-22T08:19:46Z</time>
      </trkpt>
      <trkpt lat="50.62392" lon="1.63788">
        <ele>42.8</ele>
        <time>2020-06-22T08:19:47Z</time>
      </trkpt>
      <trkpt lat="50.62399" lon="1.63789">
        <ele>42.6</ele>
        <time>2020-06-22T08:19:48Z</time>
      </trkpt>
      <trkpt lat="50.62405" lon="1.63791">
        <ele>42.5</ele>
        <time>2020-06-22T08:19:49Z</time>
      </trkpt>
      <trkpt lat="50.62411" lon="1.63792">
        <ele>42.4</ele>
        <time>2020-06-22T08:19:50Z</time>
      </trkpt>
      <trkpt lat="50.62418" lon="1.63792">
        <ele>42.3</ele>
        <time>2020-06-22T08:19:51Z</time>
      </trkpt>
      <trkpt lat="50.62424" lon="1.63793">
        <ele>42.2</ele>
        <time>2020-06-22T08:19:52Z</time>
      </trkpt>
      <trkpt lat="50.6243" lon="1.63794">
        <ele>42.2</ele>
        <time>2020-06-22T08:19:53Z</time>
      </trkpt>
      <trkpt lat="50.62437" lon="1.63794">
        <ele>42.1</ele>
        <time>2020-06-22T08:19:54Z</time>
      </trkpt>
      <trkpt lat="50.62443" lon="1.63795">
        <ele>41.9</ele>
        <time>2020-06-22T08:19:55Z</time>
      </trkpt>
      <trkpt lat="50.62449" lon="1.63796">
        <ele>41.8</ele>
        <time>2020-06-22T08:19:56Z</time>
      </trkpt>
      <trkpt lat="50.62455" lon="1.63797">
        <ele>41.7</ele>
        <time>2020-06-22T08:19:57Z</time>
      </trkpt>
      <trkpt lat="50.62461" lon="1.63798">
        <ele>41.6</ele>
        <time>2020-06-22T08:19:58Z</time>
      </trkpt>
      <trkpt lat="50.62467" lon="1.638">
        <ele>41.5</ele>
        <time>2020-06-22T08:19:59Z</time>
      </trkpt>
      <trkpt lat="50.62474" lon="1.63802">
        <ele>41.3</ele>
        <time>2020-06-22T08:20:00Z</time>
      </trkpt>
      <trkpt lat="50.62479" lon="1.63805">
        <ele>41.2</ele>
        <time>2020-06-22T08:20:01Z</time>
      </trkpt>
      <trkpt lat="50.62485" lon="1.63809">
        <ele>40.9</ele>
        <time>2020-06-22T08:20:02Z</time>
      </trkpt>
      <trkpt lat="50.6249" lon="1.6381">
        <ele>40.9</ele>
        <time>2020-06-22T08:20:03Z</time>
      </trkpt>
      <trkpt lat="50.62495" lon="1.63812">
        <ele>40.9</ele>
        <time>2020-06-22T08:20:04Z</time>
      </trkpt>
      <trkpt lat="50.62501" lon="1.63809">
        <ele>41.1</ele>
        <time>2020-06-22T08:20:05Z</time>
      </trkpt>
      <trkpt lat="50.62506" lon="1.63809">
        <ele>41</ele>
        <time>2020-06-22T08:20:06Z</time>
      </trkpt>
      <trkpt lat="50.62512" lon="1.63811">
        <ele>40.9</ele>
        <time>2020-06-22T08:20:07Z</time>
      </trkpt>
      <trkpt lat="50.62518" lon="1.63815">
        <ele>40.8</ele>
        <time>2020-06-22T08:20:08Z</time>
      </trkpt>
      <trkpt lat="50.62523" lon="1.63817">
        <ele>40.8</ele>
        <time>2020-06-22T08:20:09Z</time>
      </trkpt>
      <trkpt lat="50.62529" lon="1.63819">
        <ele>40.7</ele>
        <time>2020-06-22T08:20:10Z</time>
      </trkpt>
      <trkpt lat="50.62534" lon="1.6382">
        <ele>40.6</ele>
        <time>2020-06-22T08:20:11Z</time>
      </trkpt>
      <trkpt lat="50.6254" lon="1.63821">
        <ele>40.6</ele>
        <time>2020-06-22T08:20:12Z</time>
      </trkpt>
      <trkpt lat="50.62546" lon="1.63824">
        <ele>40.5</ele>
        <time>2020-06-22T08:20:13Z</time>
      </trkpt>
      <trkpt lat="50.62552" lon="1.63825">
        <ele>40.5</ele>
        <time>2020-06-22T08:20:14Z</time>
      </trkpt>
      <trkpt lat="50.62557" lon="1.63829">
        <ele>40.4</ele>
        <time>2020-06-22T08:20:15Z</time>
      </trkpt>
      <trkpt lat="50.62563" lon="1.6383">
        <ele>40.3</ele>
        <time>2020-06-22T08:20:16Z</time>
      </trkpt>
      <trkpt lat="50.62568" lon="1.63833">
        <ele>40.3</ele>
        <time>2020-06-22T08:20:17Z</time>
      </trkpt>
      <trkpt lat="50.62574" lon="1.63835">
        <ele>40.2</ele>
        <time>2020-06-22T08:20:18Z</time>
      </trkpt>
      <trkpt lat="50.6258" lon="1.63836">
        <ele>40.1</ele>
        <time>2020-06-22T08:20:19Z</time>
      </trkpt>
      <trkpt lat="50.62585" lon="1.63841">
        <ele>40</ele>
        <time>2020-06-22T08:20:20Z</time>
      </trkpt>
      <trkpt lat="50.62591" lon="1.63844">
        <ele>39.9</ele>
        <time>2020-06-22T08:20:21Z</time>
      </trkpt>
      <trkpt lat="50.62597" lon="1.63846">
        <ele>39.8</ele>
        <time>2020-06-22T08:20:22Z</time>
      </trkpt>
      <trkpt lat="50.62603" lon="1.63849">
        <ele>39.7</ele>
        <time>2020-06-22T08:20:23Z</time>
      </trkpt>
      <trkpt lat="50.6261" lon="1.63852">
        <ele>39.6</ele>
        <time>2020-06-22T08:20:24Z</time>
      </trkpt>
      <trkpt lat="50.62616" lon="1.63857">
        <ele>39.5</ele>
        <time>2020-06-22T08:20:25Z</time>
      </trkpt>
      <trkpt lat="50.62622" lon="1.6386">
        <ele>39.4</ele>
        <time>2020-06-22T08:20:26Z</time>
      </trkpt>
      <trkpt lat="50.62629" lon="1.63863">
        <ele>39.3</ele>
        <time>2020-06-22T08:20:27Z</time>
      </trkpt>
      <trkpt lat="50.62635" lon="1.63867">
        <ele>39.3</ele>
        <time>2020-06-22T08:20:28Z</time>
      </trkpt>
      <trkpt lat="50.62641" lon="1.63871">
        <ele>39.1</ele>
        <time>2020-06-22T08:20:29Z</time>
      </trkpt>
      <trkpt lat="50.62647" lon="1.63875">
        <ele>39</ele>
        <time>2020-06-22T08:20:30Z</time>
      </trkpt>
      <trkpt lat="50.62654" lon="1.63879">
        <ele>38.9</ele>
        <time>2020-06-22T08:20:31Z</time>
      </trkpt>
      <trkpt lat="50.6266" lon="1.63883">
        <ele>38.8</ele>
        <time>2020-06-22T08:20:32Z</time>
      </trkpt>
      <trkpt lat="50.62667" lon="1.63887">
        <ele>38.8</ele>
        <time>2020-06-22T08:20:33Z</time>
      </trkpt>
      <trkpt lat="50.62673" lon="1.63892">
        <ele>38.7</ele>
        <time>2020-06-22T08:20:34Z</time>
      </trkpt>
      <trkpt lat="50.62679" lon="1.63897">
        <ele>38.6</ele>
        <time>2020-06-22T08:20:35Z</time>
      </trkpt>
      <trkpt lat="50.62685" lon="1.63901">
        <ele>38.5</ele>
        <time>2020-06-22T08:20:36Z</time>
      </trkpt>
      <trkpt lat="50.62692" lon="1.63906">
        <ele>38.4</ele>
        <time>2020-06-22T08:20:37Z</time>
      </trkpt>
      <trkpt lat="50.62698" lon="1.63911">
        <ele>38.3</ele>
        <time>2020-06-22T08:20:38Z</time>
      </trkpt>
      <trkpt lat="50.62704" lon="1.63917">
        <ele>38.2</ele>
        <time>2020-06-22T08:20:39Z</time>
      </trkpt>
      <trkpt lat="50.6271" lon="1.63921">
        <ele>38.1</ele>
        <time>2020-06-22T08:20:40Z</time>
      </trkpt>
      <trkpt lat="50.62716" lon="1.63926">
        <ele>38</ele>
        <time>2020-06-22T08:20:41Z</time>
      </trkpt>
      <trkpt lat="50.62722" lon="1.6393">
        <ele>37.9</ele>
        <time>2020-06-22T08:20:42Z</time>
      </trkpt>
      <trkpt lat="50.62728" lon="1.63935">
        <ele>37.8</ele>
        <time>2020-06-22T08:20:43Z</time>
      </trkpt>
      <trkpt lat="50.62735" lon="1.6394">
        <ele>37.7</ele>
        <time>2020-06-22T08:20:44Z</time>
      </trkpt>
      <trkpt lat="50.62741" lon="1.63945">
        <ele>37.6</ele>
        <time>2020-06-22T08:20:45Z</time>
      </trkpt>
      <trkpt lat="50.62747" lon="1.6395">
        <ele>37.5</ele>
        <time>2020-06-22T08:20:46Z</time>
      </trkpt>
      <trkpt lat="50.62753" lon="1.63956">
        <ele>37.4</ele>
        <time>2020-06-22T08:20:47Z</time>
      </trkpt>
      <trkpt lat="50.6276" lon="1.63961">
        <ele>37.1</ele>
        <time>2020-06-22T08:20:48Z</time>
      </trkpt>
      <trkpt lat="50.62766" lon="1.63967">
        <ele>37.1</ele>
        <time>2020-06-22T08:20:49Z</time>
      </trkpt>
      <trkpt lat="50.62772" lon="1.63972">
        <ele>37</ele>
        <time>2020-06-22T08:20:50Z</time>
      </trkpt>
      <trkpt lat="50.62778" lon="1.63978">
        <ele>36.9</ele>
        <time>2020-06-22T08:20:51Z</time>
      </trkpt>
      <trkpt lat="50.62784" lon="1.63983">
        <ele>36.9</ele>
        <time>2020-06-22T08:20:52Z</time>
      </trkpt>
      <trkpt lat="50.6279" lon="1.63988">
        <ele>36.8</ele>
        <time>2020-06-22T08:20:53Z</time>
      </trkpt>
      <trkpt lat="50.62796" lon="1.63993">
        <ele>36.7</ele>
        <time>2020-06-22T08:20:54Z</time>
      </trkpt>
      <trkpt lat="50.62802" lon="1.63998">
        <ele>36.7</ele>
        <time>2020-06-22T08:20:55Z</time>
      </trkpt>
      <trkpt lat="50.62807" lon="1.64003">
        <ele>36.6</ele>
        <time>2020-06-22T08:20:56Z</time>
      </trkpt>
      <trkpt lat="50.62813" lon="1.64007">
        <ele>36.5</ele>
        <time>2020-06-22T08:20:57Z</time>
      </trkpt>
      <trkpt lat="50.62819" lon="1.64013">
        <ele>36.4</ele>
        <time>2020-06-22T08:20:58Z</time>
      </trkpt>
      <trkpt lat="50.62825" lon="1.64017">
        <ele>36.3</ele>
        <time>2020-06-22T08:20:59Z</time>
      </trkpt>
      <trkpt lat="50.62831" lon="1.64022">
        <ele>36.2</ele>
        <time>2020-06-22T08:21:00Z</time>
      </trkpt>
      <trkpt lat="50.62836" lon="1.64029">
        <ele>36.1</ele>
        <time>2020-06-22T08:21:01Z</time>
      </trkpt>
      <trkpt lat="50.6284" lon="1.64035">
        <ele>36</ele>
        <time>2020-06-22T08:21:02Z</time>
      </trkpt>
      <trkpt lat="50.62844" lon="1.6404">
        <ele>35.9</ele>
        <time>2020-06-22T08:21:03Z</time>
      </trkpt>
      <trkpt lat="50.62848" lon="1.64043">
        <ele>35.8</ele>
        <time>2020-06-22T08:21:04Z</time>
      </trkpt>
      <trkpt lat="50.62852" lon="1.64046">
        <ele>35.6</ele>
        <time>2020-06-22T08:21:05Z</time>
      </trkpt>
      <trkpt lat="50.62856" lon="1.64049">
        <ele>35.6</ele>
        <time>2020-06-22T08:21:06Z</time>
      </trkpt>
      <trkpt lat="50.6286" lon="1.64052">
        <ele>35.5</ele>
        <time>2020-06-22T08:21:07Z</time>
      </trkpt>
      <trkpt lat="50.62865" lon="1.64055">
        <ele>35.5</ele>
        <time>2020-06-22T08:21:08Z</time>
      </trkpt>
      <trkpt lat="50.62869" lon="1.64057">
        <ele>35.5</ele>
        <time>2020-06-22T08:21:09Z</time>
      </trkpt>
      <trkpt lat="50.62874" lon="1.64059">
        <ele>35.4</ele>
        <time>2020-06-22T08:21:10Z</time>
      </trkpt>
      <trkpt lat="50.62879" lon="1.64061">
        <ele>35.4</ele>
        <time>2020-06-22T08:21:11Z</time>
      </trkpt>
      <trkpt lat="50.62883" lon="1.64064">
        <ele>35.3</ele>
        <time>2020-06-22T08:21:12Z</time>
      </trkpt>
      <trkpt lat="50.62887" lon="1.64067">
        <ele>35.3</ele>
        <time>2020-06-22T08:21:13Z</time>
      </trkpt>
      <trkpt lat="50.62891" lon="1.64071">
        <ele>35.2</ele>
        <time>2020-06-22T08:21:14Z</time>
      </trkpt>
      <trkpt lat="50.62894" lon="1.64076">
        <ele>35.1</ele>
        <time>2020-06-22T08:21:15Z</time>
      </trkpt>
      <trkpt lat="50.62899" lon="1.64081">
        <ele>35.1</ele>
        <time>2020-06-22T08:21:16Z</time>
      </trkpt>
      <trkpt lat="50.62904" lon="1.64085">
        <ele>35</ele>
        <time>2020-06-22T08:21:17Z</time>
      </trkpt>
      <trkpt lat="50.62908" lon="1.6409">
        <ele>34.9</ele>
        <time>2020-06-22T08:21:18Z</time>
      </trkpt>
      <trkpt lat="50.62913" lon="1.64096">
        <ele>34.9</ele>
        <time>2020-06-22T08:21:19Z</time>
      </trkpt>
      <trkpt lat="50.62918" lon="1.641">
        <ele>34.8</ele>
        <time>2020-06-22T08:21:20Z</time>
      </trkpt>
      <trkpt lat="50.62923" lon="1.64105">
        <ele>34.7</ele>
        <time>2020-06-22T08:21:21Z</time>
      </trkpt>
      <trkpt lat="50.62928" lon="1.64111">
        <ele>34.7</ele>
        <time>2020-06-22T08:21:22Z</time>
      </trkpt>
      <trkpt lat="50.62933" lon="1.64117">
        <ele>34.6</ele>
        <time>2020-06-22T08:21:23Z</time>
      </trkpt>
      <trkpt lat="50.62938" lon="1.64122">
        <ele>34.6</ele>
        <time>2020-06-22T08:21:24Z</time>
      </trkpt>
      <trkpt lat="50.62943" lon="1.64128">
        <ele>34.5</ele>
        <time>2020-06-22T08:21:25Z</time>
      </trkpt>
      <trkpt lat="50.62948" lon="1.64134">
        <ele>34.4</ele>
        <time>2020-06-22T08:21:26Z</time>
      </trkpt>
      <trkpt lat="50.62953" lon="1.6414">
        <ele>34.4</ele>
        <time>2020-06-22T08:21:27Z</time>
      </trkpt>
      <trkpt lat="50.62959" lon="1.64146">
        <ele>34.3</ele>
        <time>2020-06-22T08:21:28Z</time>
      </trkpt>
      <trkpt lat="50.62964" lon="1.64152">
        <ele>34.2</ele>
        <time>2020-06-22T08:21:29Z</time>
      </trkpt>
      <trkpt lat="50.62969" lon="1.64159">
        <ele>34.1</ele>
        <time>2020-06-22T08:21:30Z</time>
      </trkpt>
      <trkpt lat="50.62974" lon="1.64165">
        <ele>34.1</ele>
        <time>2020-06-22T08:21:31Z</time>
      </trkpt>
      <trkpt lat="50.62979" lon="1.6417">
        <ele>34</ele>
        <time>2020-06-22T08:21:32Z</time>
      </trkpt>
      <trkpt lat="50.62985" lon="1.64176">
        <ele>34</ele>
        <time>2020-06-22T08:21:33Z</time>
      </trkpt>
      <trkpt lat="50.6299" lon="1.64183">
        <ele>33.9</ele>
        <time>2020-06-22T08:21:34Z</time>
      </trkpt>
      <trkpt lat="50.62995" lon="1.64189">
        <ele>33.9</ele>
        <time>2020-06-22T08:21:35Z</time>
      </trkpt>
      <trkpt lat="50.63" lon="1.64195">
        <ele>33.9</ele>
        <time>2020-06-22T08:21:36Z</time>
      </trkpt>
      <trkpt lat="50.63005" lon="1.64202">
        <ele>33.9</ele>
        <time>2020-06-22T08:21:37Z</time>
      </trkpt>
      <trkpt lat="50.6301" lon="1.64209">
        <ele>33.9</ele>
        <time>2020-06-22T08:21:38Z</time>
      </trkpt>
      <trkpt lat="50.63014" lon="1.64215">
        <ele>33.8</ele>
        <time>2020-06-22T08:21:39Z</time>
      </trkpt>
      <trkpt lat="50.63019" lon="1.64222">
        <ele>33.8</ele>
        <time>2020-06-22T08:21:40Z</time>
      </trkpt>
      <trkpt lat="50.63024" lon="1.64229">
        <ele>33.7</ele>
        <time>2020-06-22T08:21:41Z</time>
      </trkpt>
      <trkpt lat="50.63028" lon="1.64236">
        <ele>33.6</ele>
        <time>2020-06-22T08:21:42Z</time>
      </trkpt>
      <trkpt lat="50.63033" lon="1.64243">
        <ele>33.6</ele>
        <time>2020-06-22T08:21:43Z</time>
      </trkpt>
      <trkpt lat="50.63037" lon="1.6425">
        <ele>33.5</ele>
        <time>2020-06-22T08:21:44Z</time>
      </trkpt>
      <trkpt lat="50.63042" lon="1.64257">
        <ele>33.4</ele>
        <time>2020-06-22T08:21:45Z</time>
      </trkpt>
      <trkpt lat="50.63046" lon="1.64263">
        <ele>33.3</ele>
        <time>2020-06-22T08:21:46Z</time>
      </trkpt>
      <trkpt lat="50.63051" lon="1.6427">
        <ele>33.3</ele>
        <time>2020-06-22T08:21:47Z</time>
      </trkpt>
      <trkpt lat="50.63056" lon="1.64277">
        <ele>33.2</ele>
        <time>2020-06-22T08:21:48Z</time>
      </trkpt>
      <trkpt lat="50.6306" lon="1.64283">
        <ele>33.1</ele>
        <time>2020-06-22T08:21:49Z</time>
      </trkpt>
      <trkpt lat="50.63065" lon="1.6429">
        <ele>33</ele>
        <time>2020-06-22T08:21:50Z</time>
      </trkpt>
      <trkpt lat="50.6307" lon="1.64296">
        <ele>32.9</ele>
        <time>2020-06-22T08:21:51Z</time>
      </trkpt>
      <trkpt lat="50.63074" lon="1.64302">
        <ele>32.8</ele>
        <time>2020-06-22T08:21:52Z</time>
      </trkpt>
      <trkpt lat="50.63079" lon="1.64309">
        <ele>32.7</ele>
        <time>2020-06-22T08:21:53Z</time>
      </trkpt>
      <trkpt lat="50.63084" lon="1.64316">
        <ele>32.6</ele>
        <time>2020-06-22T08:21:54Z</time>
      </trkpt>
      <trkpt lat="50.63088" lon="1.64322">
        <ele>32.5</ele>
        <time>2020-06-22T08:21:55Z</time>
      </trkpt>
      <trkpt lat="50.63093" lon="1.64328">
        <ele>32.5</ele>
        <time>2020-06-22T08:21:56Z</time>
      </trkpt>
      <trkpt lat="50.63097" lon="1.64334">
        <ele>32.4</ele>
        <time>2020-06-22T08:21:57Z</time>
      </trkpt>
      <trkpt lat="50.63102" lon="1.6434">
        <ele>32.4</ele>
        <time>2020-06-22T08:21:58Z</time>
      </trkpt>
      <trkpt lat="50.63107" lon="1.64346">
        <ele>32.3</ele>
        <time>2020-06-22T08:21:59Z</time>
      </trkpt>
      <trkpt lat="50.63111" lon="1.64352">
        <ele>32.3</ele>
        <time>2020-06-22T08:22:00Z</time>
      </trkpt>
      <trkpt lat="50.63116" lon="1.64358">
        <ele>32.2</ele>
        <time>2020-06-22T08:22:01Z</time>
      </trkpt>
      <trkpt lat="50.6312" lon="1.64364">
        <ele>32.1</ele>
        <time>2020-06-22T08:22:02Z</time>
      </trkpt>
      <trkpt lat="50.63125" lon="1.6437">
        <ele>32</ele>
        <time>2020-06-22T08:22:03Z</time>
      </trkpt>
      <trkpt lat="50.6313" lon="1.64376">
        <ele>32</ele>
        <time>2020-06-22T08:22:04Z</time>
      </trkpt>
      <trkpt lat="50.63134" lon="1.64382">
        <ele>31.9</ele>
        <time>2020-06-22T08:22:05Z</time>
      </trkpt>
      <trkpt lat="50.6314" lon="1.64387">
        <ele>31.8</ele>
        <time>2020-06-22T08:22:06Z</time>
      </trkpt>
      <trkpt lat="50.63144" lon="1.64393">
        <ele>31.8</ele>
        <time>2020-06-22T08:22:07Z</time>
      </trkpt>
      <trkpt lat="50.6315" lon="1.64397">
        <ele>31.7</ele>
        <time>2020-06-22T08:22:08Z</time>
      </trkpt>
      <trkpt lat="50.63155" lon="1.64402">
        <ele>31.6</ele>
        <time>2020-06-22T08:22:09Z</time>
      </trkpt>
      <trkpt lat="50.63161" lon="1.64407">
        <ele>31.5</ele>
        <time>2020-06-22T08:22:10Z</time>
      </trkpt>
      <trkpt lat="50.63166" lon="1.64412">
        <ele>31.4</ele>
        <time>2020-06-22T08:22:11Z</time>
      </trkpt>
      <trkpt lat="50.63172" lon="1.64416">
        <ele>31.3</ele>
        <time>2020-06-22T08:22:12Z</time>
      </trkpt>
      <trkpt lat="50.63177" lon="1.6442">
        <ele>31.2</ele>
        <time>2020-06-22T08:22:13Z</time>
      </trkpt>
      <trkpt lat="50.63182" lon="1.64425">
        <ele>31.1</ele>
        <time>2020-06-22T08:22:14Z</time>
      </trkpt>
      <trkpt lat="50.63187" lon="1.6443">
        <ele>31</ele>
        <time>2020-06-22T08:22:15Z</time>
      </trkpt>
      <trkpt lat="50.63192" lon="1.64435">
        <ele>31</ele>
        <time>2020-06-22T08:22:16Z</time>
      </trkpt>
      <trkpt lat="50.63197" lon="1.64439">
        <ele>30.9</ele>
        <time>2020-06-22T08:22:17Z</time>
      </trkpt>
      <trkpt lat="50.63202" lon="1.64444">
        <ele>30.8</ele>
        <time>2020-06-22T08:22:18Z</time>
      </trkpt>
      <trkpt lat="50.63208" lon="1.64448">
        <ele>30.7</ele>
        <time>2020-06-22T08:22:19Z</time>
      </trkpt>
      <trkpt lat="50.63213" lon="1.64453">
        <ele>30.6</ele>
        <time>2020-06-22T08:22:20Z</time>
      </trkpt>
      <trkpt lat="50.63218" lon="1.6446">
        <ele>30.5</ele>
        <time>2020-06-22T08:22:21Z</time>
      </trkpt>
      <trkpt lat="50.63224" lon="1.64464">
        <ele>30.4</ele>
        <time>2020-06-22T08:22:22Z</time>
      </trkpt>
      <trkpt lat="50.63231" lon="1.64467">
        <ele>30.4</ele>
        <time>2020-06-22T08:22:23Z</time>
      </trkpt>
      <trkpt lat="50.63237" lon="1.6447">
        <ele>30.3</ele>
        <time>2020-06-22T08:22:24Z</time>
      </trkpt>
      <trkpt lat="50.63243" lon="1.64473">
        <ele>30.3</ele>
        <time>2020-06-22T08:22:25Z</time>
      </trkpt>
      <trkpt lat="50.63248" lon="1.64477">
        <ele>30.2</ele>
        <time>2020-06-22T08:22:26Z</time>
      </trkpt>
      <trkpt lat="50.63252" lon="1.6448">
        <ele>30.2</ele>
        <time>2020-06-22T08:22:27Z</time>
      </trkpt>
      <trkpt lat="50.63256" lon="1.64484">
        <ele>30.2</ele>
        <time>2020-06-22T08:22:28Z</time>
      </trkpt>
      <trkpt lat="50.63258" lon="1.64488">
        <ele>30.1</ele>
        <time>2020-06-22T08:22:29Z</time>
      </trkpt>
      <trkpt lat="50.63261" lon="1.64492">
        <ele>30.1</ele>
        <time>2020-06-22T08:22:30Z</time>
      </trkpt>
      <trkpt lat="50.63264" lon="1.64496">
        <ele>30</ele>
        <time>2020-06-22T08:22:31Z</time>
      </trkpt>
      <trkpt lat="50.63267" lon="1.64496">
        <ele>29.9</ele>
        <time>2020-06-22T08:22:32Z</time>
      </trkpt>
      <trkpt lat="50.63272" lon="1.64497">
        <ele>29.9</ele>
        <time>2020-06-22T08:22:33Z</time>
      </trkpt>
      <trkpt lat="50.63276" lon="1.64497">
        <ele>29.8</ele>
        <time>2020-06-22T08:22:34Z</time>
      </trkpt>
      <trkpt lat="50.6328" lon="1.64499">
        <ele>29.8</ele>
        <time>2020-06-22T08:22:35Z</time>
      </trkpt>
      <trkpt lat="50.63285" lon="1.645">
        <ele>29.8</ele>
        <time>2020-06-22T08:22:36Z</time>
      </trkpt>
      <trkpt lat="50.63288" lon="1.64501">
        <ele>29.8</ele>
        <time>2020-06-22T08:22:37Z</time>
      </trkpt>
      <trkpt lat="50.63292" lon="1.64502">
        <ele>29.8</ele>
        <time>2020-06-22T08:22:38Z</time>
      </trkpt>
      <trkpt lat="50.63296" lon="1.64504">
        <ele>29.8</ele>
        <time>2020-06-22T08:22:39Z</time>
      </trkpt>
      <trkpt lat="50.63301" lon="1.64505">
        <ele>29.8</ele>
        <time>2020-06-22T08:22:40Z</time>
      </trkpt>
      <trkpt lat="50.63306" lon="1.64506">
        <ele>29.8</ele>
        <time>2020-06-22T08:22:41Z</time>
      </trkpt>
      <trkpt lat="50.6331" lon="1.64507">
        <ele>29.8</ele>
        <time>2020-06-22T08:22:42Z</time>
      </trkpt>
      <trkpt lat="50.63315" lon="1.64505">
        <ele>29.8</ele>
        <time>2020-06-22T08:22:43Z</time>
      </trkpt>
      <trkpt lat="50.6332" lon="1.64503">
        <ele>29.9</ele>
        <time>2020-06-22T08:22:44Z</time>
      </trkpt>
      <trkpt lat="50.63325" lon="1.64504">
        <ele>29.9</ele>
        <time>2020-06-22T08:22:45Z</time>
      </trkpt>
      <trkpt lat="50.6333" lon="1.64504">
        <ele>29.9</ele>
        <time>2020-06-22T08:22:46Z</time>
      </trkpt>
      <trkpt lat="50.63334" lon="1.64502">
        <ele>29.9</ele>
        <time>2020-06-22T08:22:47Z</time>
      </trkpt>
      <trkpt lat="50.63339" lon="1.64503">
        <ele>29.9</ele>
        <time>2020-06-22T08:22:48Z</time>
      </trkpt>
      <trkpt lat="50.63345" lon="1.64503">
        <ele>30</ele>
        <time>2020-06-22T08:22:49Z</time>
      </trkpt>
      <trkpt lat="50.63351" lon="1.64505">
        <ele>30</ele>
        <time>2020-06-22T08:22:50Z</time>
      </trkpt>
      <trkpt lat="50.63356" lon="1.64505">
        <ele>30.1</ele>
        <time>2020-06-22T08:22:51Z</time>
      </trkpt>
      <trkpt lat="50.63362" lon="1.64504">
        <ele>30.1</ele>
        <time>2020-06-22T08:22:52Z</time>
      </trkpt>
      <trkpt lat="50.63367" lon="1.64505">
        <ele>30.2</ele>
        <time>2020-06-22T08:22:53Z</time>
      </trkpt>
      <trkpt lat="50.63374" lon="1.64504">
        <ele>30.3</ele>
        <time>2020-06-22T08:22:54Z</time>
      </trkpt>
      <trkpt lat="50.6338" lon="1.64504">
        <ele>30.3</ele>
        <time>2020-06-22T08:22:55Z</time>
      </trkpt>
      <trkpt lat="50.63385" lon="1.64503">
        <ele>30.4</ele>
        <time>2020-06-22T08:22:56Z</time>
      </trkpt>
      <trkpt lat="50.63391" lon="1.64501">
        <ele>30.5</ele>
        <time>2020-06-22T08:22:57Z</time>
      </trkpt>
      <trkpt lat="50.63396" lon="1.64501">
        <ele>30.5</ele>
        <time>2020-06-22T08:22:58Z</time>
      </trkpt>
      <trkpt lat="50.63401" lon="1.64501">
        <ele>30.6</ele>
        <time>2020-06-22T08:22:59Z</time>
      </trkpt>
      <trkpt lat="50.63408" lon="1.645">
        <ele>30.7</ele>
        <time>2020-06-22T08:23:00Z</time>
      </trkpt>
      <trkpt lat="50.63415" lon="1.64498">
        <ele>30.8</ele>
        <time>2020-06-22T08:23:01Z</time>
      </trkpt>
      <trkpt lat="50.63422" lon="1.64496">
        <ele>30.9</ele>
        <time>2020-06-22T08:23:02Z</time>
      </trkpt>
      <trkpt lat="50.63428" lon="1.64495">
        <ele>31</ele>
        <time>2020-06-22T08:23:03Z</time>
      </trkpt>
      <trkpt lat="50.63434" lon="1.64493">
        <ele>31</ele>
        <time>2020-06-22T08:23:04Z</time>
      </trkpt>
      <trkpt lat="50.6344" lon="1.64493">
        <ele>31.1</ele>
        <time>2020-06-22T08:23:05Z</time>
      </trkpt>
      <trkpt lat="50.63446" lon="1.64492">
        <ele>31.1</ele>
        <time>2020-06-22T08:23:06Z</time>
      </trkpt>
      <trkpt lat="50.63451" lon="1.64491">
        <ele>31.1</ele>
        <time>2020-06-22T08:23:07Z</time>
      </trkpt>
      <trkpt lat="50.63458" lon="1.6449">
        <ele>31.1</ele>
        <time>2020-06-22T08:23:08Z</time>
      </trkpt>
      <trkpt lat="50.63464" lon="1.64488">
        <ele>31.1</ele>
        <time>2020-06-22T08:23:09Z</time>
      </trkpt>
      <trkpt lat="50.6347" lon="1.64486">
        <ele>31.1</ele>
        <time>2020-06-22T08:23:10Z</time>
      </trkpt>
      <trkpt lat="50.63476" lon="1.64485">
        <ele>31.1</ele>
        <time>2020-06-22T08:23:11Z</time>
      </trkpt>
      <trkpt lat="50.63482" lon="1.64484">
        <ele>31</ele>
        <time>2020-06-22T08:23:12Z</time>
      </trkpt>
      <trkpt lat="50.63488" lon="1.64484">
        <ele>31</ele>
        <time>2020-06-22T08:23:13Z</time>
      </trkpt>
      <trkpt lat="50.63495" lon="1.64483">
        <ele>30.9</ele>
        <time>2020-06-22T08:23:14Z</time>
      </trkpt>
      <trkpt lat="50.63501" lon="1.64483">
        <ele>30.9</ele>
        <time>2020-06-22T08:23:15Z</time>
      </trkpt>
      <trkpt lat="50.63507" lon="1.64482">
        <ele>30.9</ele>
        <time>2020-06-22T08:23:16Z</time>
      </trkpt>
      <trkpt lat="50.63513" lon="1.64482">
        <ele>30.8</ele>
        <time>2020-06-22T08:23:17Z</time>
      </trkpt>
      <trkpt lat="50.63519" lon="1.64481">
        <ele>30.8</ele>
        <time>2020-06-22T08:23:18Z</time>
      </trkpt>
      <trkpt lat="50.63525" lon="1.6448">
        <ele>30.7</ele>
        <time>2020-06-22T08:23:19Z</time>
      </trkpt>
      <trkpt lat="50.63531" lon="1.64479">
        <ele>30.6</ele>
        <time>2020-06-22T08:23:20Z</time>
      </trkpt>
      <trkpt lat="50.63539" lon="1.64479">
        <ele>30.4</ele>
        <time>2020-06-22T08:23:21Z</time>
      </trkpt>
      <trkpt lat="50.63545" lon="1.64478">
        <ele>30.3</ele>
        <time>2020-06-22T08:23:22Z</time>
      </trkpt>
      <trkpt lat="50.63552" lon="1.64477">
        <ele>30.1</ele>
        <time>2020-06-22T08:23:23Z</time>
      </trkpt>
      <trkpt lat="50.63557" lon="1.64477">
        <ele>30</ele>
        <time>2020-06-22T08:23:24Z</time>
      </trkpt>
      <trkpt lat="50.63564" lon="1.64478">
        <ele>29.9</ele>
        <time>2020-06-22T08:23:25Z</time>
      </trkpt>
      <trkpt lat="50.63571" lon="1.64478">
        <ele>29.8</ele>
        <time>2020-06-22T08:23:26Z</time>
      </trkpt>
      <trkpt lat="50.63578" lon="1.64477">
        <ele>29.6</ele>
        <time>2020-06-22T08:23:27Z</time>
      </trkpt>
      <trkpt lat="50.63583" lon="1.64475">
        <ele>29.6</ele>
        <time>2020-06-22T08:23:28Z</time>
      </trkpt>
      <trkpt lat="50.63588" lon="1.64473">
        <ele>29.5</ele>
        <time>2020-06-22T08:23:29Z</time>
      </trkpt>
      <trkpt lat="50.63595" lon="1.64472">
        <ele>29.4</ele>
        <time>2020-06-22T08:23:30Z</time>
      </trkpt>
      <trkpt lat="50.63601" lon="1.64471">
        <ele>29.3</ele>
        <time>2020-06-22T08:23:31Z</time>
      </trkpt>
      <trkpt lat="50.63607" lon="1.64471">
        <ele>29.1</ele>
        <time>2020-06-22T08:23:32Z</time>
      </trkpt>
      <trkpt lat="50.63614" lon="1.6447">
        <ele>29</ele>
        <time>2020-06-22T08:23:33Z</time>
      </trkpt>
      <trkpt lat="50.63621" lon="1.64469">
        <ele>28.8</ele>
        <time>2020-06-22T08:23:34Z</time>
      </trkpt>
      <trkpt lat="50.63628" lon="1.64468">
        <ele>28.7</ele>
        <time>2020-06-22T08:23:35Z</time>
      </trkpt>
      <trkpt lat="50.63634" lon="1.64468">
        <ele>28.5</ele>
        <time>2020-06-22T08:23:36Z</time>
      </trkpt>
      <trkpt lat="50.63641" lon="1.64467">
        <ele>28.4</ele>
        <time>2020-06-22T08:23:37Z</time>
      </trkpt>
      <trkpt lat="50.63647" lon="1.64466">
        <ele>28.4</ele>
        <time>2020-06-22T08:23:38Z</time>
      </trkpt>
      <trkpt lat="50.63653" lon="1.64465">
        <ele>28.3</ele>
        <time>2020-06-22T08:23:39Z</time>
      </trkpt>
      <trkpt lat="50.63659" lon="1.64464">
        <ele>28.2</ele>
        <time>2020-06-22T08:23:40Z</time>
      </trkpt>
      <trkpt lat="50.63665" lon="1.64463">
        <ele>28.2</ele>
        <time>2020-06-22T08:23:41Z</time>
      </trkpt>
      <trkpt lat="50.63672" lon="1.64463">
        <ele>28.1</ele>
        <time>2020-06-22T08:23:42Z</time>
      </trkpt>
      <trkpt lat="50.63678" lon="1.64461">
        <ele>28.1</ele>
        <time>2020-06-22T08:23:43Z</time>
      </trkpt>
      <trkpt lat="50.63685" lon="1.64459">
        <ele>28.1</ele>
        <time>2020-06-22T08:23:44Z</time>
      </trkpt>
      <trkpt lat="50.63691" lon="1.64458">
        <ele>28.1</ele>
        <time>2020-06-22T08:23:45Z</time>
      </trkpt>
      <trkpt lat="50.63697" lon="1.64457">
        <ele>28.2</ele>
        <time>2020-06-22T08:23:46Z</time>
      </trkpt>
      <trkpt lat="50.63703" lon="1.64456">
        <ele>28.2</ele>
        <time>2020-06-22T08:23:47Z</time>
      </trkpt>
      <trkpt lat="50.6371" lon="1.64455">
        <ele>28.3</ele>
        <time>2020-06-22T08:23:48Z</time>
      </trkpt>
      <trkpt lat="50.63716" lon="1.64454">
        <ele>28.4</ele>
        <time>2020-06-22T08:23:49Z</time>
      </trkpt>
      <trkpt lat="50.63721" lon="1.64453">
        <ele>28.5</ele>
        <time>2020-06-22T08:23:50Z</time>
      </trkpt>
      <trkpt lat="50.63728" lon="1.64452">
        <ele>28.7</ele>
        <time>2020-06-22T08:23:51Z</time>
      </trkpt>
      <trkpt lat="50.63733" lon="1.64452">
        <ele>28.8</ele>
        <time>2020-06-22T08:23:52Z</time>
      </trkpt>
      <trkpt lat="50.63739" lon="1.64451">
        <ele>29</ele>
        <time>2020-06-22T08:23:53Z</time>
      </trkpt>
      <trkpt lat="50.63743" lon="1.64451">
        <ele>29.1</ele>
        <time>2020-06-22T08:23:54Z</time>
      </trkpt>
      <trkpt lat="50.63749" lon="1.6445">
        <ele>29.3</ele>
        <time>2020-06-22T08:23:55Z</time>
      </trkpt>
      <trkpt lat="50.63755" lon="1.64448">
        <ele>29.5</ele>
        <time>2020-06-22T08:23:56Z</time>
      </trkpt>
      <trkpt lat="50.63761" lon="1.64448">
        <ele>29.7</ele>
        <time>2020-06-22T08:23:57Z</time>
      </trkpt>
      <trkpt lat="50.63766" lon="1.64447">
        <ele>29.9</ele>
        <time>2020-06-22T08:23:58Z</time>
      </trkpt>
      <trkpt lat="50.63771" lon="1.64446">
        <ele>30.1</ele>
        <time>2020-06-22T08:23:59Z</time>
      </trkpt>
      <trkpt lat="50.63776" lon="1.64445">
        <ele>30.3</ele>
        <time>2020-06-22T08:24:00Z</time>
      </trkpt>
      <trkpt lat="50.63782" lon="1.64444">
        <ele>30.5</ele>
        <time>2020-06-22T08:24:01Z</time>
      </trkpt>
      <trkpt lat="50.63788" lon="1.64443">
        <ele>30.7</ele>
        <time>2020-06-22T08:24:02Z</time>
      </trkpt>
      <trkpt lat="50.63794" lon="1.64442">
        <ele>30.9</ele>
        <time>2020-06-22T08:24:03Z</time>
      </trkpt>
      <trkpt lat="50.63801" lon="1.64441">
        <ele>31.1</ele>
        <time>2020-06-22T08:24:04Z</time>
      </trkpt>
      <trkpt lat="50.63806" lon="1.64439">
        <ele>31.3</ele>
        <time>2020-06-22T08:24:05Z</time>
      </trkpt>
      <trkpt lat="50.63811" lon="1.64439">
        <ele>31.5</ele>
        <time>2020-06-22T08:24:06Z</time>
      </trkpt>
      <trkpt lat="50.63817" lon="1.64439">
        <ele>31.7</ele>
        <time>2020-06-22T08:24:07Z</time>
      </trkpt>
      <trkpt lat="50.63822" lon="1.64438">
        <ele>31.9</ele>
        <time>2020-06-22T08:24:08Z</time>
      </trkpt>
      <trkpt lat="50.63826" lon="1.64438">
        <ele>32.1</ele>
        <time>2020-06-22T08:24:09Z</time>
      </trkpt>
      <trkpt lat="50.63831" lon="1.64437">
        <ele>32.3</ele>
        <time>2020-06-22T08:24:10Z</time>
      </trkpt>
      <trkpt lat="50.63836" lon="1.64436">
        <ele>32.5</ele>
        <time>2020-06-22T08:24:11Z</time>
      </trkpt>
      <trkpt lat="50.6384" lon="1.64436">
        <ele>32.7</ele>
        <time>2020-06-22T08:24:12Z</time>
      </trkpt>
      <trkpt lat="50.63844" lon="1.64435">
        <ele>32.8</ele>
        <time>2020-06-22T08:24:13Z</time>
      </trkpt>
      <trkpt lat="50.6385" lon="1.64434">
        <ele>33</ele>
        <time>2020-06-22T08:24:14Z</time>
      </trkpt>
      <trkpt lat="50.63854" lon="1.64434">
        <ele>33.2</ele>
        <time>2020-06-22T08:24:15Z</time>
      </trkpt>
      <trkpt lat="50.63858" lon="1.64432">
        <ele>33.3</ele>
        <time>2020-06-22T08:24:16Z</time>
      </trkpt>
      <trkpt lat="50.63863" lon="1.64432">
        <ele>33.5</ele>
        <time>2020-06-22T08:24:17Z</time>
      </trkpt>
      <trkpt lat="50.6387" lon="1.64431">
        <ele>33.7</ele>
        <time>2020-06-22T08:24:18Z</time>
      </trkpt>
      <trkpt lat="50.63876" lon="1.6443">
        <ele>33.9</ele>
        <time>2020-06-22T08:24:19Z</time>
      </trkpt>
      <trkpt lat="50.63882" lon="1.64428">
        <ele>34.1</ele>
        <time>2020-06-22T08:24:20Z</time>
      </trkpt>
      <trkpt lat="50.63887" lon="1.64427">
        <ele>34.2</ele>
        <time>2020-06-22T08:24:21Z</time>
      </trkpt>
      <trkpt lat="50.63892" lon="1.64425">
        <ele>34.4</ele>
        <time>2020-06-22T08:24:22Z</time>
      </trkpt>
      <trkpt lat="50.63897" lon="1.64424">
        <ele>34.6</ele>
        <time>2020-06-22T08:24:23Z</time>
      </trkpt>
      <trkpt lat="50.63902" lon="1.64423">
        <ele>34.7</ele>
        <time>2020-06-22T08:24:24Z</time>
      </trkpt>
      <trkpt lat="50.63907" lon="1.64422">
        <ele>34.9</ele>
        <time>2020-06-22T08:24:25Z</time>
      </trkpt>
      <trkpt lat="50.63912" lon="1.64421">
        <ele>35.1</ele>
        <time>2020-06-22T08:24:26Z</time>
      </trkpt>
      <trkpt lat="50.63917" lon="1.6442">
        <ele>35.2</ele>
        <time>2020-06-22T08:24:27Z</time>
      </trkpt>
      <trkpt lat="50.63921" lon="1.64419">
        <ele>35.4</ele>
        <time>2020-06-22T08:24:28Z</time>
      </trkpt>
      <trkpt lat="50.63927" lon="1.64418">
        <ele>35.6</ele>
        <time>2020-06-22T08:24:29Z</time>
      </trkpt>
      <trkpt lat="50.63932" lon="1.64418">
        <ele>35.7</ele>
        <time>2020-06-22T08:24:30Z</time>
      </trkpt>
      <trkpt lat="50.63937" lon="1.64417">
        <ele>35.9</ele>
        <time>2020-06-22T08:24:31Z</time>
      </trkpt>
      <trkpt lat="50.63942" lon="1.64416">
        <ele>36</ele>
        <time>2020-06-22T08:24:32Z</time>
      </trkpt>
      <trkpt lat="50.63947" lon="1.64416">
        <ele>36.2</ele>
        <time>2020-06-22T08:24:33Z</time>
      </trkpt>
      <trkpt lat="50.63952" lon="1.64415">
        <ele>36.3</ele>
        <time>2020-06-22T08:24:34Z</time>
      </trkpt>
      <trkpt lat="50.63957" lon="1.64415">
        <ele>36.3</ele>
        <time>2020-06-22T08:24:35Z</time>
      </trkpt>
      <trkpt lat="50.63962" lon="1.64415">
        <ele>36.4</ele>
        <time>2020-06-22T08:24:36Z</time>
      </trkpt>
      <trkpt lat="50.63968" lon="1.64414">
        <ele>36.6</ele>
        <time>2020-06-22T08:24:37Z</time>
      </trkpt>
      <trkpt lat="50.63974" lon="1.64414">
        <ele>36.7</ele>
        <time>2020-06-22T08:24:38Z</time>
      </trkpt>
      <trkpt lat="50.63977" lon="1.64414">
        <ele>36.7</ele>
        <time>2020-06-22T08:24:39Z</time>
      </trkpt>
      <trkpt lat="50.63983" lon="1.64413">
        <ele>36.8</ele>
        <time>2020-06-22T08:24:40Z</time>
      </trkpt>
      <trkpt lat="50.63989" lon="1.64412">
        <ele>36.9</ele>
        <time>2020-06-22T08:24:41Z</time>
      </trkpt>
      <trkpt lat="50.63995" lon="1.64411">
        <ele>37</ele>
        <time>2020-06-22T08:24:42Z</time>
      </trkpt>
      <trkpt lat="50.64001" lon="1.6441">
        <ele>37.1</ele>
        <time>2020-06-22T08:24:43Z</time>
      </trkpt>
      <trkpt lat="50.64005" lon="1.6441">
        <ele>37.2</ele>
        <time>2020-06-22T08:24:44Z</time>
      </trkpt>
      <trkpt lat="50.6401" lon="1.64409">
        <ele>37.3</ele>
        <time>2020-06-22T08:24:45Z</time>
      </trkpt>
      <trkpt lat="50.64014" lon="1.64408">
        <ele>37.3</ele>
        <time>2020-06-22T08:24:46Z</time>
      </trkpt>
      <trkpt lat="50.6402" lon="1.64406">
        <ele>37.4</ele>
        <time>2020-06-22T08:24:47Z</time>
      </trkpt>
      <trkpt lat="50.64024" lon="1.64405">
        <ele>37.5</ele>
        <time>2020-06-22T08:24:48Z</time>
      </trkpt>
      <trkpt lat="50.64029" lon="1.64404">
        <ele>37.5</ele>
        <time>2020-06-22T08:24:49Z</time>
      </trkpt>
      <trkpt lat="50.64035" lon="1.64403">
        <ele>37.6</ele>
        <time>2020-06-22T08:24:50Z</time>
      </trkpt>
      <trkpt lat="50.6404" lon="1.64402">
        <ele>37.6</ele>
        <time>2020-06-22T08:24:51Z</time>
      </trkpt>
      <trkpt lat="50.64046" lon="1.64401">
        <ele>37.6</ele>
        <time>2020-06-22T08:24:52Z</time>
      </trkpt>
      <trkpt lat="50.64051" lon="1.64401">
        <ele>37.7</ele>
        <time>2020-06-22T08:24:53Z</time>
      </trkpt>
      <trkpt lat="50.64057" lon="1.644">
        <ele>37.7</ele>
        <time>2020-06-22T08:24:54Z</time>
      </trkpt>
      <trkpt lat="50.64063" lon="1.644">
        <ele>37.7</ele>
        <time>2020-06-22T08:24:55Z</time>
      </trkpt>
      <trkpt lat="50.64072" lon="1.64401">
        <ele>37.7</ele>
        <time>2020-06-22T08:24:56Z</time>
      </trkpt>
      <trkpt lat="50.64078" lon="1.644">
        <ele>37.6</ele>
        <time>2020-06-22T08:24:57Z</time>
      </trkpt>
      <trkpt lat="50.64083" lon="1.644">
        <ele>37.6</ele>
        <time>2020-06-22T08:24:58Z</time>
      </trkpt>
      <trkpt lat="50.64087" lon="1.644">
        <ele>37.6</ele>
        <time>2020-06-22T08:24:59Z</time>
      </trkpt>
      <trkpt lat="50.64091" lon="1.64401">
        <ele>37.6</ele>
        <time>2020-06-22T08:25:00Z</time>
      </trkpt>
      <trkpt lat="50.64096" lon="1.64402">
        <ele>37.5</ele>
        <time>2020-06-22T08:25:01Z</time>
      </trkpt>
      <trkpt lat="50.641" lon="1.64405">
        <ele>37.5</ele>
        <time>2020-06-22T08:25:02Z</time>
      </trkpt>
      <trkpt lat="50.64106" lon="1.64406">
        <ele>37.4</ele>
        <time>2020-06-22T08:25:03Z</time>
      </trkpt>
      <trkpt lat="50.64113" lon="1.64405">
        <ele>37.4</ele>
        <time>2020-06-22T08:25:04Z</time>
      </trkpt>
      <trkpt lat="50.64118" lon="1.64402">
        <ele>37.3</ele>
        <time>2020-06-22T08:25:05Z</time>
      </trkpt>
      <trkpt lat="50.64122" lon="1.644">
        <ele>37.2</ele>
        <time>2020-06-22T08:25:06Z</time>
      </trkpt>
      <trkpt lat="50.64126" lon="1.64398">
        <ele>37.2</ele>
        <time>2020-06-22T08:25:07Z</time>
      </trkpt>
      <trkpt lat="50.6413" lon="1.64396">
        <ele>37.1</ele>
        <time>2020-06-22T08:25:08Z</time>
      </trkpt>
      <trkpt lat="50.64133" lon="1.64395">
        <ele>37</ele>
        <time>2020-06-22T08:25:09Z</time>
      </trkpt>
      <trkpt lat="50.64138" lon="1.64397">
        <ele>37</ele>
        <time>2020-06-22T08:25:10Z</time>
      </trkpt>
      <trkpt lat="50.64142" lon="1.64397">
        <ele>36.9</ele>
        <time>2020-06-22T08:25:11Z</time>
      </trkpt>
      <trkpt lat="50.64147" lon="1.64397">
        <ele>36.8</ele>
        <time>2020-06-22T08:25:12Z</time>
      </trkpt>
      <trkpt lat="50.64151" lon="1.64395">
        <ele>36.8</ele>
        <time>2020-06-22T08:25:13Z</time>
      </trkpt>
      <trkpt lat="50.64156" lon="1.64394">
        <ele>36.7</ele>
        <time>2020-06-22T08:25:14Z</time>
      </trkpt>
      <trkpt lat="50.64161" lon="1.64393">
        <ele>36.7</ele>
        <time>2020-06-22T08:25:15Z</time>
      </trkpt>
      <trkpt lat="50.64165" lon="1.64392">
        <ele>36.6</ele>
        <time>2020-06-22T08:25:16Z</time>
      </trkpt>
      <trkpt lat="50.64171" lon="1.64392">
        <ele>36.6</ele>
        <time>2020-06-22T08:25:17Z</time>
      </trkpt>
      <trkpt lat="50.64177" lon="1.6439">
        <ele>36.5</ele>
        <time>2020-06-22T08:25:18Z</time>
      </trkpt>
      <trkpt lat="50.64182" lon="1.64389">
        <ele>36.5</ele>
        <time>2020-06-22T08:25:19Z</time>
      </trkpt>
      <trkpt lat="50.64188" lon="1.64388">
        <ele>36.5</ele>
        <time>2020-06-22T08:25:20Z</time>
      </trkpt>
      <trkpt lat="50.64194" lon="1.64388">
        <ele>36.5</ele>
        <time>2020-06-22T08:25:21Z</time>
      </trkpt>
      <trkpt lat="50.642" lon="1.64387">
        <ele>36.5</ele>
        <time>2020-06-22T08:25:22Z</time>
      </trkpt>
      <trkpt lat="50.64205" lon="1.64387">
        <ele>36.5</ele>
        <time>2020-06-22T08:25:23Z</time>
      </trkpt>
      <trkpt lat="50.64212" lon="1.64386">
        <ele>36.5</ele>
        <time>2020-06-22T08:25:24Z</time>
      </trkpt>
      <trkpt lat="50.64218" lon="1.64385">
        <ele>36.6</ele>
        <time>2020-06-22T08:25:25Z</time>
      </trkpt>
      <trkpt lat="50.64222" lon="1.64383">
        <ele>36.6</ele>
        <time>2020-06-22T08:25:26Z</time>
      </trkpt>
      <trkpt lat="50.64227" lon="1.64382">
        <ele>36.7</ele>
        <time>2020-06-22T08:25:27Z</time>
      </trkpt>
      <trkpt lat="50.64233" lon="1.64381">
        <ele>36.8</ele>
        <time>2020-06-22T08:25:28Z</time>
      </trkpt>
      <trkpt lat="50.64239" lon="1.64381">
        <ele>36.9</ele>
        <time>2020-06-22T08:25:29Z</time>
      </trkpt>
      <trkpt lat="50.64245" lon="1.6438">
        <ele>37</ele>
        <time>2020-06-22T08:25:30Z</time>
      </trkpt>
      <trkpt lat="50.6425" lon="1.64379">
        <ele>37.1</ele>
        <time>2020-06-22T08:25:31Z</time>
      </trkpt>
      <trkpt lat="50.64256" lon="1.64378">
        <ele>37.2</ele>
        <time>2020-06-22T08:25:32Z</time>
      </trkpt>
      <trkpt lat="50.6426" lon="1.64378">
        <ele>37.2</ele>
        <time>2020-06-22T08:25:33Z</time>
      </trkpt>
      <trkpt lat="50.64265" lon="1.64377">
        <ele>37.3</ele>
        <time>2020-06-22T08:25:34Z</time>
      </trkpt>
      <trkpt lat="50.64271" lon="1.64376">
        <ele>37.4</ele>
        <time>2020-06-22T08:25:35Z</time>
      </trkpt>
      <trkpt lat="50.64276" lon="1.64375">
        <ele>37.5</ele>
        <time>2020-06-22T08:25:36Z</time>
      </trkpt>
      <trkpt lat="50.64281" lon="1.64374">
        <ele>37.6</ele>
        <time>2020-06-22T08:25:37Z</time>
      </trkpt>
      <trkpt lat="50.64285" lon="1.64373">
        <ele>37.7</ele>
        <time>2020-06-22T08:25:38Z</time>
      </trkpt>
      <trkpt lat="50.6429" lon="1.64372">
        <ele>37.7</ele>
        <time>2020-06-22T08:25:39Z</time>
      </trkpt>
      <trkpt lat="50.64295" lon="1.64371">
        <ele>37.8</ele>
        <time>2020-06-22T08:25:40Z</time>
      </trkpt>
      <trkpt lat="50.643" lon="1.6437">
        <ele>37.9</ele>
        <time>2020-06-22T08:25:41Z</time>
      </trkpt>
      <trkpt lat="50.64306" lon="1.64369">
        <ele>38</ele>
        <time>2020-06-22T08:25:42Z</time>
      </trkpt>
      <trkpt lat="50.64312" lon="1.64368">
        <ele>38.1</ele>
        <time>2020-06-22T08:25:43Z</time>
      </trkpt>
      <trkpt lat="50.64317" lon="1.64366">
        <ele>38.2</ele>
        <time>2020-06-22T08:25:44Z</time>
      </trkpt>
      <trkpt lat="50.64323" lon="1.64367">
        <ele>38.2</ele>
        <time>2020-06-22T08:25:45Z</time>
      </trkpt>
      <trkpt lat="50.64328" lon="1.64366">
        <ele>38.1</ele>
        <time>2020-06-22T08:25:46Z</time>
      </trkpt>
      <trkpt lat="50.64333" lon="1.64365">
        <ele>38.1</ele>
        <time>2020-06-22T08:25:47Z</time>
      </trkpt>
      <trkpt lat="50.64339" lon="1.64364">
        <ele>38.2</ele>
        <time>2020-06-22T08:25:48Z</time>
      </trkpt>
      <trkpt lat="50.64345" lon="1.64363">
        <ele>38.2</ele>
        <time>2020-06-22T08:25:49Z</time>
      </trkpt>
      <trkpt lat="50.6435" lon="1.64362">
        <ele>38.2</ele>
        <time>2020-06-22T08:25:50Z</time>
      </trkpt>
      <trkpt lat="50.64355" lon="1.64362">
        <ele>38.2</ele>
        <time>2020-06-22T08:25:51Z</time>
      </trkpt>
      <trkpt lat="50.64362" lon="1.6436">
        <ele>38.2</ele>
        <time>2020-06-22T08:25:52Z</time>
      </trkpt>
      <trkpt lat="50.64368" lon="1.64359">
        <ele>38.1</ele>
        <time>2020-06-22T08:25:53Z</time>
      </trkpt>
      <trkpt lat="50.64373" lon="1.64359">
        <ele>38.1</ele>
        <time>2020-06-22T08:25:54Z</time>
      </trkpt>
      <trkpt lat="50.64377" lon="1.64359">
        <ele>38</ele>
        <time>2020-06-22T08:25:55Z</time>
      </trkpt>
      <trkpt lat="50.64383" lon="1.64358">
        <ele>38</ele>
        <time>2020-06-22T08:25:56Z</time>
      </trkpt>
      <trkpt lat="50.64387" lon="1.64357">
        <ele>37.9</ele>
        <time>2020-06-22T08:25:57Z</time>
      </trkpt>
      <trkpt lat="50.64391" lon="1.64357">
        <ele>37.9</ele>
        <time>2020-06-22T08:25:58Z</time>
      </trkpt>
      <trkpt lat="50.64395" lon="1.64356">
        <ele>37.9</ele>
        <time>2020-06-22T08:25:59Z</time>
      </trkpt>
      <trkpt lat="50.64399" lon="1.64357">
        <ele>37.8</ele>
        <time>2020-06-22T08:26:00Z</time>
      </trkpt>
      <trkpt lat="50.64403" lon="1.64357">
        <ele>37.8</ele>
        <time>2020-06-22T08:26:01Z</time>
      </trkpt>
      <trkpt lat="50.64408" lon="1.64357">
        <ele>37.7</ele>
        <time>2020-06-22T08:26:02Z</time>
      </trkpt>
      <trkpt lat="50.64412" lon="1.64356">
        <ele>37.6</ele>
        <time>2020-06-22T08:26:03Z</time>
      </trkpt>
      <trkpt lat="50.64417" lon="1.64355">
        <ele>37.5</ele>
        <time>2020-06-22T08:26:04Z</time>
      </trkpt>
      <trkpt lat="50.64422" lon="1.64355">
        <ele>37.4</ele>
        <time>2020-06-22T08:26:05Z</time>
      </trkpt>
      <trkpt lat="50.64427" lon="1.64354">
        <ele>37.3</ele>
        <time>2020-06-22T08:26:06Z</time>
      </trkpt>
      <trkpt lat="50.64432" lon="1.64353">
        <ele>37.2</ele>
        <time>2020-06-22T08:26:07Z</time>
      </trkpt>
      <trkpt lat="50.64437" lon="1.64353">
        <ele>37</ele>
        <time>2020-06-22T08:26:08Z</time>
      </trkpt>
      <trkpt lat="50.64441" lon="1.64352">
        <ele>36.9</ele>
        <time>2020-06-22T08:26:09Z</time>
      </trkpt>
      <trkpt lat="50.64447" lon="1.6435">
        <ele>36.8</ele>
        <time>2020-06-22T08:26:10Z</time>
      </trkpt>
      <trkpt lat="50.64452" lon="1.64348">
        <ele>36.6</ele>
        <time>2020-06-22T08:26:11Z</time>
      </trkpt>
      <trkpt lat="50.64459" lon="1.64348">
        <ele>36.4</ele>
        <time>2020-06-22T08:26:12Z</time>
      </trkpt>
      <trkpt lat="50.64465" lon="1.64346">
        <ele>36.1</ele>
        <time>2020-06-22T08:26:13Z</time>
      </trkpt>
      <trkpt lat="50.64471" lon="1.64345">
        <ele>35.7</ele>
        <time>2020-06-22T08:26:14Z</time>
      </trkpt>
      <trkpt lat="50.64477" lon="1.64342">
        <ele>35.6</ele>
        <time>2020-06-22T08:26:15Z</time>
      </trkpt>
      <trkpt lat="50.64483" lon="1.6434">
        <ele>35.4</ele>
        <time>2020-06-22T08:26:16Z</time>
      </trkpt>
      <trkpt lat="50.64489" lon="1.64338">
        <ele>35.3</ele>
        <time>2020-06-22T08:26:17Z</time>
      </trkpt>
      <trkpt lat="50.64495" lon="1.64336">
        <ele>35.1</ele>
        <time>2020-06-22T08:26:18Z</time>
      </trkpt>
      <trkpt lat="50.64501" lon="1.64333">
        <ele>35</ele>
        <time>2020-06-22T08:26:19Z</time>
      </trkpt>
      <trkpt lat="50.64508" lon="1.64332">
        <ele>34.9</ele>
        <time>2020-06-22T08:26:20Z</time>
      </trkpt>
      <trkpt lat="50.64514" lon="1.6433">
        <ele>34.8</ele>
        <time>2020-06-22T08:26:21Z</time>
      </trkpt>
      <trkpt lat="50.64522" lon="1.64328">
        <ele>34.6</ele>
        <time>2020-06-22T08:26:22Z</time>
      </trkpt>
      <trkpt lat="50.6453" lon="1.64327">
        <ele>34.5</ele>
        <time>2020-06-22T08:26:23Z</time>
      </trkpt>
      <trkpt lat="50.64537" lon="1.64327">
        <ele>34.4</ele>
        <time>2020-06-22T08:26:24Z</time>
      </trkpt>
      <trkpt lat="50.64542" lon="1.64328">
        <ele>34.5</ele>
        <time>2020-06-22T08:26:25Z</time>
      </trkpt>
      <trkpt lat="50.64547" lon="1.64331">
        <ele>34.6</ele>
        <time>2020-06-22T08:26:26Z</time>
      </trkpt>
      <trkpt lat="50.64551" lon="1.64336">
        <ele>34.5</ele>
        <time>2020-06-22T08:26:27Z</time>
      </trkpt>
      <trkpt lat="50.64554" lon="1.6434">
        <ele>34.2</ele>
        <time>2020-06-22T08:26:28Z</time>
      </trkpt>
      <trkpt lat="50.64558" lon="1.64342">
        <ele>34</ele>
        <time>2020-06-22T08:26:29Z</time>
      </trkpt>
      <trkpt lat="50.64564" lon="1.64343">
        <ele>33.7</ele>
        <time>2020-06-22T08:26:30Z</time>
      </trkpt>
      <trkpt lat="50.64571" lon="1.64341">
        <ele>33.4</ele>
        <time>2020-06-22T08:26:31Z</time>
      </trkpt>
      <trkpt lat="50.64577" lon="1.64338">
        <ele>33.1</ele>
        <time>2020-06-22T08:26:32Z</time>
      </trkpt>
      <trkpt lat="50.64582" lon="1.64333">
        <ele>33</ele>
        <time>2020-06-22T08:26:33Z</time>
      </trkpt>
      <trkpt lat="50.64588" lon="1.64328">
        <ele>32.7</ele>
        <time>2020-06-22T08:26:34Z</time>
      </trkpt>
      <trkpt lat="50.64593" lon="1.64322">
        <ele>32.4</ele>
        <time>2020-06-22T08:26:35Z</time>
      </trkpt>
      <trkpt lat="50.64597" lon="1.64316">
        <ele>32.2</ele>
        <time>2020-06-22T08:26:36Z</time>
      </trkpt>
      <trkpt lat="50.64601" lon="1.6431">
        <ele>31.9</ele>
        <time>2020-06-22T08:26:37Z</time>
      </trkpt>
      <trkpt lat="50.64607" lon="1.64307">
        <ele>31.6</ele>
        <time>2020-06-22T08:26:38Z</time>
      </trkpt>
      <trkpt lat="50.64613" lon="1.64305">
        <ele>31.3</ele>
        <time>2020-06-22T08:26:39Z</time>
      </trkpt>
      <trkpt lat="50.64619" lon="1.64309">
        <ele>31</ele>
        <time>2020-06-22T08:26:40Z</time>
      </trkpt>
      <trkpt lat="50.64627" lon="1.64311">
        <ele>30.5</ele>
        <time>2020-06-22T08:26:41Z</time>
      </trkpt>
      <trkpt lat="50.64634" lon="1.64313">
        <ele>30.1</ele>
        <time>2020-06-22T08:26:42Z</time>
      </trkpt>
      <trkpt lat="50.64642" lon="1.64314">
        <ele>29.7</ele>
        <time>2020-06-22T08:26:43Z</time>
      </trkpt>
      <trkpt lat="50.64651" lon="1.64314">
        <ele>29.2</ele>
        <time>2020-06-22T08:26:44Z</time>
      </trkpt>
      <trkpt lat="50.64658" lon="1.64314">
        <ele>28.8</ele>
        <time>2020-06-22T08:26:45Z</time>
      </trkpt>
      <trkpt lat="50.64666" lon="1.64314">
        <ele>28.4</ele>
        <time>2020-06-22T08:26:46Z</time>
      </trkpt>
      <trkpt lat="50.64675" lon="1.64313">
        <ele>28</ele>
        <time>2020-06-22T08:26:47Z</time>
      </trkpt>
      <trkpt lat="50.64683" lon="1.64313">
        <ele>27.7</ele>
        <time>2020-06-22T08:26:48Z</time>
      </trkpt>
      <trkpt lat="50.64693" lon="1.64311">
        <ele>27.3</ele>
        <time>2020-06-22T08:26:49Z</time>
      </trkpt>
      <trkpt lat="50.64701" lon="1.6431">
        <ele>27.1</ele>
        <time>2020-06-22T08:26:50Z</time>
      </trkpt>
      <trkpt lat="50.6471" lon="1.64309">
        <ele>26.8</ele>
        <time>2020-06-22T08:26:51Z</time>
      </trkpt>
      <trkpt lat="50.64718" lon="1.64308">
        <ele>26.6</ele>
        <time>2020-06-22T08:26:52Z</time>
      </trkpt>
      <trkpt lat="50.64727" lon="1.64306">
        <ele>26.4</ele>
        <time>2020-06-22T08:26:53Z</time>
      </trkpt>
      <trkpt lat="50.64736" lon="1.64305">
        <ele>26.3</ele>
        <time>2020-06-22T08:26:54Z</time>
      </trkpt>
      <trkpt lat="50.64745" lon="1.64303">
        <ele>26.1</ele>
        <time>2020-06-22T08:26:55Z</time>
      </trkpt>
      <trkpt lat="50.64753" lon="1.64301">
        <ele>26</ele>
        <time>2020-06-22T08:26:56Z</time>
      </trkpt>
      <trkpt lat="50.64761" lon="1.643">
        <ele>25.9</ele>
        <time>2020-06-22T08:26:57Z</time>
      </trkpt>
      <trkpt lat="50.64769" lon="1.64299">
        <ele>25.8</ele>
        <time>2020-06-22T08:26:58Z</time>
      </trkpt>
      <trkpt lat="50.64777" lon="1.64298">
        <ele>25.7</ele>
        <time>2020-06-22T08:26:59Z</time>
      </trkpt>
      <trkpt lat="50.64784" lon="1.64296">
        <ele>25.7</ele>
        <time>2020-06-22T08:27:00Z</time>
      </trkpt>
      <trkpt lat="50.64791" lon="1.64296">
        <ele>25.7</ele>
        <time>2020-06-22T08:27:01Z</time>
      </trkpt>
      <trkpt lat="50.64797" lon="1.64295">
        <ele>25.7</ele>
        <time>2020-06-22T08:27:02Z</time>
      </trkpt>
      <trkpt lat="50.64802" lon="1.64294">
        <ele>25.8</ele>
        <time>2020-06-22T08:27:03Z</time>
      </trkpt>
      <trkpt lat="50.64808" lon="1.64294">
        <ele>25.7</ele>
        <time>2020-06-22T08:27:04Z</time>
      </trkpt>
      <trkpt lat="50.64813" lon="1.64293">
        <ele>25.7</ele>
        <time>2020-06-22T08:27:05Z</time>
      </trkpt>
      <trkpt lat="50.64817" lon="1.64293">
        <ele>25.6</ele>
        <time>2020-06-22T08:27:06Z</time>
      </trkpt>
      <trkpt lat="50.64822" lon="1.64292">
        <ele>25.6</ele>
        <time>2020-06-22T08:27:07Z</time>
      </trkpt>
      <trkpt lat="50.64826" lon="1.64293">
        <ele>25.6</ele>
        <time>2020-06-22T08:27:08Z</time>
      </trkpt>
      <trkpt lat="50.6483" lon="1.64293">
        <ele>25.6</ele>
        <time>2020-06-22T08:27:09Z</time>
      </trkpt>
      <trkpt lat="50.64836" lon="1.64294">
        <ele>25.5</ele>
        <time>2020-06-22T08:27:10Z</time>
      </trkpt>
      <trkpt lat="50.64842" lon="1.64293">
        <ele>25.5</ele>
        <time>2020-06-22T08:27:11Z</time>
      </trkpt>
      <trkpt lat="50.64847" lon="1.64291">
        <ele>25.5</ele>
        <time>2020-06-22T08:27:12Z</time>
      </trkpt>
      <trkpt lat="50.64853" lon="1.64291">
        <ele>25.5</ele>
        <time>2020-06-22T08:27:13Z</time>
      </trkpt>
      <trkpt lat="50.64859" lon="1.6429">
        <ele>25.5</ele>
        <time>2020-06-22T08:27:14Z</time>
      </trkpt>
      <trkpt lat="50.64865" lon="1.64289">
        <ele>25.5</ele>
        <time>2020-06-22T08:27:15Z</time>
      </trkpt>
      <trkpt lat="50.64871" lon="1.64289">
        <ele>25.6</ele>
        <time>2020-06-22T08:27:16Z</time>
      </trkpt>
      <trkpt lat="50.64877" lon="1.64288">
        <ele>25.7</ele>
        <time>2020-06-22T08:27:17Z</time>
      </trkpt>
      <trkpt lat="50.64883" lon="1.64287">
        <ele>25.8</ele>
        <time>2020-06-22T08:27:18Z</time>
      </trkpt>
      <trkpt lat="50.64889" lon="1.64285">
        <ele>25.9</ele>
        <time>2020-06-22T08:27:19Z</time>
      </trkpt>
      <trkpt lat="50.64895" lon="1.64285">
        <ele>26</ele>
        <time>2020-06-22T08:27:20Z</time>
      </trkpt>
      <trkpt lat="50.64901" lon="1.64284">
        <ele>26.2</ele>
        <time>2020-06-22T08:27:21Z</time>
      </trkpt>
      <trkpt lat="50.64907" lon="1.64283">
        <ele>26.4</ele>
        <time>2020-06-22T08:27:22Z</time>
      </trkpt>
      <trkpt lat="50.64913" lon="1.64282">
        <ele>26.7</ele>
        <time>2020-06-22T08:27:23Z</time>
      </trkpt>
      <trkpt lat="50.64919" lon="1.64281">
        <ele>26.9</ele>
        <time>2020-06-22T08:27:24Z</time>
      </trkpt>
      <trkpt lat="50.64925" lon="1.64279">
        <ele>27.2</ele>
        <time>2020-06-22T08:27:25Z</time>
      </trkpt>
      <trkpt lat="50.6493" lon="1.64277">
        <ele>27.4</ele>
        <time>2020-06-22T08:27:26Z</time>
      </trkpt>
      <trkpt lat="50.64934" lon="1.64276">
        <ele>27.6</ele>
        <time>2020-06-22T08:27:27Z</time>
      </trkpt>
      <trkpt lat="50.64939" lon="1.64275">
        <ele>27.8</ele>
        <time>2020-06-22T08:27:28Z</time>
      </trkpt>
      <trkpt lat="50.64943" lon="1.64274">
        <ele>28</ele>
        <time>2020-06-22T08:27:29Z</time>
      </trkpt>
      <trkpt lat="50.64948" lon="1.64274">
        <ele>28.2</ele>
        <time>2020-06-22T08:27:30Z</time>
      </trkpt>
      <trkpt lat="50.64953" lon="1.64273">
        <ele>28.5</ele>
        <time>2020-06-22T08:27:31Z</time>
      </trkpt>
      <trkpt lat="50.64958" lon="1.64273">
        <ele>28.8</ele>
        <time>2020-06-22T08:27:32Z</time>
      </trkpt>
      <trkpt lat="50.64963" lon="1.64272">
        <ele>29.1</ele>
        <time>2020-06-22T08:27:33Z</time>
      </trkpt>
      <trkpt lat="50.64969" lon="1.64272">
        <ele>29.4</ele>
        <time>2020-06-22T08:27:34Z</time>
      </trkpt>
      <trkpt lat="50.64974" lon="1.64272">
        <ele>29.7</ele>
        <time>2020-06-22T08:27:35Z</time>
      </trkpt>
      <trkpt lat="50.6498" lon="1.64272">
        <ele>30</ele>
        <time>2020-06-22T08:27:36Z</time>
      </trkpt>
      <trkpt lat="50.64985" lon="1.64269">
        <ele>30.3</ele>
        <time>2020-06-22T08:27:37Z</time>
      </trkpt>
      <trkpt lat="50.6499" lon="1.64267">
        <ele>30.6</ele>
        <time>2020-06-22T08:27:38Z</time>
      </trkpt>
      <trkpt lat="50.64995" lon="1.64265">
        <ele>30.9</ele>
        <time>2020-06-22T08:27:39Z</time>
      </trkpt>
      <trkpt lat="50.65001" lon="1.64265">
        <ele>31.2</ele>
        <time>2020-06-22T08:27:40Z</time>
      </trkpt>
      <trkpt lat="50.65006" lon="1.64264">
        <ele>31.5</ele>
        <time>2020-06-22T08:27:41Z</time>
      </trkpt>
      <trkpt lat="50.65013" lon="1.64264">
        <ele>31.8</ele>
        <time>2020-06-22T08:27:42Z</time>
      </trkpt>
      <trkpt lat="50.65018" lon="1.64264">
        <ele>32.1</ele>
        <time>2020-06-22T08:27:43Z</time>
      </trkpt>
      <trkpt lat="50.65025" lon="1.64263">
        <ele>32.4</ele>
        <time>2020-06-22T08:27:44Z</time>
      </trkpt>
      <trkpt lat="50.6503" lon="1.64262">
        <ele>32.7</ele>
        <time>2020-06-22T08:27:45Z</time>
      </trkpt>
      <trkpt lat="50.65036" lon="1.64261">
        <ele>33.1</ele>
        <time>2020-06-22T08:27:46Z</time>
      </trkpt>
      <trkpt lat="50.65042" lon="1.6426">
        <ele>33.4</ele>
        <time>2020-06-22T08:27:47Z</time>
      </trkpt>
      <trkpt lat="50.65047" lon="1.64259">
        <ele>33.7</ele>
        <time>2020-06-22T08:27:48Z</time>
      </trkpt>
      <trkpt lat="50.65053" lon="1.64258">
        <ele>33.9</ele>
        <time>2020-06-22T08:27:49Z</time>
      </trkpt>
      <trkpt lat="50.65058" lon="1.64259">
        <ele>34.2</ele>
        <time>2020-06-22T08:27:50Z</time>
      </trkpt>
      <trkpt lat="50.65063" lon="1.64258">
        <ele>34.4</ele>
        <time>2020-06-22T08:27:51Z</time>
      </trkpt>
      <trkpt lat="50.65069" lon="1.64257">
        <ele>34.6</ele>
        <time>2020-06-22T08:27:52Z</time>
      </trkpt>
      <trkpt lat="50.65075" lon="1.64257">
        <ele>34.8</ele>
        <time>2020-06-22T08:27:53Z</time>
      </trkpt>
      <trkpt lat="50.6508" lon="1.64256">
        <ele>35</ele>
        <time>2020-06-22T08:27:54Z</time>
      </trkpt>
      <trkpt lat="50.65086" lon="1.64254">
        <ele>35.2</ele>
        <time>2020-06-22T08:27:55Z</time>
      </trkpt>
      <trkpt lat="50.65091" lon="1.64253">
        <ele>35.3</ele>
        <time>2020-06-22T08:27:56Z</time>
      </trkpt>
      <trkpt lat="50.65097" lon="1.64253">
        <ele>35.5</ele>
        <time>2020-06-22T08:27:57Z</time>
      </trkpt>
      <trkpt lat="50.65102" lon="1.64252">
        <ele>35.6</ele>
        <time>2020-06-22T08:27:58Z</time>
      </trkpt>
      <trkpt lat="50.65107" lon="1.64251">
        <ele>35.7</ele>
        <time>2020-06-22T08:27:59Z</time>
      </trkpt>
      <trkpt lat="50.65113" lon="1.64251">
        <ele>35.7</ele>
        <time>2020-06-22T08:28:00Z</time>
      </trkpt>
      <trkpt lat="50.65118" lon="1.6425">
        <ele>35.8</ele>
        <time>2020-06-22T08:28:01Z</time>
      </trkpt>
      <trkpt lat="50.65123" lon="1.64249">
        <ele>35.9</ele>
        <time>2020-06-22T08:28:02Z</time>
      </trkpt>
      <trkpt lat="50.65128" lon="1.64249">
        <ele>35.9</ele>
        <time>2020-06-22T08:28:03Z</time>
      </trkpt>
      <trkpt lat="50.65132" lon="1.64249">
        <ele>35.9</ele>
        <time>2020-06-22T08:28:04Z</time>
      </trkpt>
      <trkpt lat="50.65137" lon="1.64248">
        <ele>36</ele>
        <time>2020-06-22T08:28:05Z</time>
      </trkpt>
      <trkpt lat="50.65142" lon="1.64247">
        <ele>36</ele>
        <time>2020-06-22T08:28:06Z</time>
      </trkpt>
      <trkpt lat="50.65147" lon="1.64246">
        <ele>36</ele>
        <time>2020-06-22T08:28:07Z</time>
      </trkpt>
      <trkpt lat="50.65153" lon="1.64246">
        <ele>36.1</ele>
        <time>2020-06-22T08:28:08Z</time>
      </trkpt>
      <trkpt lat="50.65159" lon="1.64245">
        <ele>36.1</ele>
        <time>2020-06-22T08:28:09Z</time>
      </trkpt>
      <trkpt lat="50.65164" lon="1.64243">
        <ele>36.2</ele>
        <time>2020-06-22T08:28:10Z</time>
      </trkpt>
      <trkpt lat="50.65169" lon="1.64242">
        <ele>36.2</ele>
        <time>2020-06-22T08:28:11Z</time>
      </trkpt>
      <trkpt lat="50.65173" lon="1.64242">
        <ele>36.2</ele>
        <time>2020-06-22T08:28:12Z</time>
      </trkpt>
      <trkpt lat="50.65179" lon="1.64243">
        <ele>36.3</ele>
        <time>2020-06-22T08:28:13Z</time>
      </trkpt>
      <trkpt lat="50.65185" lon="1.64245">
        <ele>36.3</ele>
        <time>2020-06-22T08:28:14Z</time>
      </trkpt>
      <trkpt lat="50.6519" lon="1.64247">
        <ele>36.4</ele>
        <time>2020-06-22T08:28:15Z</time>
      </trkpt>
      <trkpt lat="50.65194" lon="1.6425">
        <ele>36.4</ele>
        <time>2020-06-22T08:28:16Z</time>
      </trkpt>
      <trkpt lat="50.65198" lon="1.64254">
        <ele>36.5</ele>
        <time>2020-06-22T08:28:17Z</time>
      </trkpt>
      <trkpt lat="50.65201" lon="1.64258">
        <ele>36.5</ele>
        <time>2020-06-22T08:28:18Z</time>
      </trkpt>
      <trkpt lat="50.65204" lon="1.64262">
        <ele>36.6</ele>
        <time>2020-06-22T08:28:19Z</time>
      </trkpt>
      <trkpt lat="50.65208" lon="1.64265">
        <ele>36.6</ele>
        <time>2020-06-22T08:28:20Z</time>
      </trkpt>
      <trkpt lat="50.65211" lon="1.64268">
        <ele>36.7</ele>
        <time>2020-06-22T08:28:21Z</time>
      </trkpt>
      <trkpt lat="50.65215" lon="1.64271">
        <ele>36.7</ele>
        <time>2020-06-22T08:28:22Z</time>
      </trkpt>
      <trkpt lat="50.65219" lon="1.64275">
        <ele>36.8</ele>
        <time>2020-06-22T08:28:23Z</time>
      </trkpt>
      <trkpt lat="50.65222" lon="1.6428">
        <ele>36.7</ele>
        <time>2020-06-22T08:28:24Z</time>
      </trkpt>
      <trkpt lat="50.65226" lon="1.64287">
        <ele>36.6</ele>
        <time>2020-06-22T08:28:25Z</time>
      </trkpt>
      <trkpt lat="50.6523" lon="1.64294">
        <ele>36.6</ele>
        <time>2020-06-22T08:28:26Z</time>
      </trkpt>
      <trkpt lat="50.65235" lon="1.64298">
        <ele>36.5</ele>
        <time>2020-06-22T08:28:27Z</time>
      </trkpt>
      <trkpt lat="50.65239" lon="1.64302">
        <ele>36.5</ele>
        <time>2020-06-22T08:28:28Z</time>
      </trkpt>
      <trkpt lat="50.65244" lon="1.64301">
        <ele>36.4</ele>
        <time>2020-06-22T08:28:29Z</time>
      </trkpt>
      <trkpt lat="50.65249" lon="1.64296">
        <ele>36.5</ele>
        <time>2020-06-22T08:28:30Z</time>
      </trkpt>
      <trkpt lat="50.65253" lon="1.6429">
        <ele>36.6</ele>
        <time>2020-06-22T08:28:31Z</time>
      </trkpt>
      <trkpt lat="50.65257" lon="1.64282">
        <ele>36.7</ele>
        <time>2020-06-22T08:28:32Z</time>
      </trkpt>
      <trkpt lat="50.6526" lon="1.64275">
        <ele>36.8</ele>
        <time>2020-06-22T08:28:33Z</time>
      </trkpt>
      <trkpt lat="50.65263" lon="1.64268">
        <ele>36.9</ele>
        <time>2020-06-22T08:28:34Z</time>
      </trkpt>
      <trkpt lat="50.65266" lon="1.64261">
        <ele>36.8</ele>
        <time>2020-06-22T08:28:35Z</time>
      </trkpt>
      <trkpt lat="50.65268" lon="1.64254">
        <ele>36.7</ele>
        <time>2020-06-22T08:28:36Z</time>
      </trkpt>
      <trkpt lat="50.65273" lon="1.6425">
        <ele>36.6</ele>
        <time>2020-06-22T08:28:37Z</time>
      </trkpt>
      <trkpt lat="50.65279" lon="1.64244">
        <ele>36.5</ele>
        <time>2020-06-22T08:28:38Z</time>
      </trkpt>
      <trkpt lat="50.65285" lon="1.64238">
        <ele>36.4</ele>
        <time>2020-06-22T08:28:39Z</time>
      </trkpt>
      <trkpt lat="50.6529" lon="1.64233">
        <ele>36.4</ele>
        <time>2020-06-22T08:28:40Z</time>
      </trkpt>
      <trkpt lat="50.65295" lon="1.64228">
        <ele>36.6</ele>
        <time>2020-06-22T08:28:41Z</time>
      </trkpt>
      <trkpt lat="50.653" lon="1.64224">
        <ele>36.7</ele>
        <time>2020-06-22T08:28:42Z</time>
      </trkpt>
      <trkpt lat="50.65304" lon="1.64219">
        <ele>36.9</ele>
        <time>2020-06-22T08:28:43Z</time>
      </trkpt>
      <trkpt lat="50.65311" lon="1.64216">
        <ele>37.1</ele>
        <time>2020-06-22T08:28:44Z</time>
      </trkpt>
      <trkpt lat="50.65316" lon="1.64213">
        <ele>37.3</ele>
        <time>2020-06-22T08:28:45Z</time>
      </trkpt>
      <trkpt lat="50.65322" lon="1.64212">
        <ele>37.6</ele>
        <time>2020-06-22T08:28:46Z</time>
      </trkpt>
      <trkpt lat="50.65327" lon="1.64209">
        <ele>37.8</ele>
        <time>2020-06-22T08:28:47Z</time>
      </trkpt>
      <trkpt lat="50.65333" lon="1.6421">
        <ele>38</ele>
        <time>2020-06-22T08:28:48Z</time>
      </trkpt>
      <trkpt lat="50.65338" lon="1.6421">
        <ele>38.2</ele>
        <time>2020-06-22T08:28:49Z</time>
      </trkpt>
      <trkpt lat="50.65342" lon="1.64211">
        <ele>38.4</ele>
        <time>2020-06-22T08:28:50Z</time>
      </trkpt>
      <trkpt lat="50.65347" lon="1.64211">
        <ele>38.6</ele>
        <time>2020-06-22T08:28:51Z</time>
      </trkpt>
      <trkpt lat="50.6535" lon="1.6421">
        <ele>38.8</ele>
        <time>2020-06-22T08:28:52Z</time>
      </trkpt>
      <trkpt lat="50.65355" lon="1.64211">
        <ele>39</ele>
        <time>2020-06-22T08:28:53Z</time>
      </trkpt>
      <trkpt lat="50.6536" lon="1.6421">
        <ele>39.2</ele>
        <time>2020-06-22T08:28:54Z</time>
      </trkpt>
      <trkpt lat="50.65366" lon="1.6421">
        <ele>39.5</ele>
        <time>2020-06-22T08:28:55Z</time>
      </trkpt>
      <trkpt lat="50.6537" lon="1.64209">
        <ele>39.7</ele>
        <time>2020-06-22T08:28:56Z</time>
      </trkpt>
      <trkpt lat="50.65374" lon="1.6421">
        <ele>39.9</ele>
        <time>2020-06-22T08:28:57Z</time>
      </trkpt>
      <trkpt lat="50.65378" lon="1.6421">
        <ele>40</ele>
        <time>2020-06-22T08:28:58Z</time>
      </trkpt>
      <trkpt lat="50.65382" lon="1.64209">
        <ele>40.2</ele>
        <time>2020-06-22T08:28:59Z</time>
      </trkpt>
      <trkpt lat="50.65386" lon="1.64209">
        <ele>40.4</ele>
        <time>2020-06-22T08:29:00Z</time>
      </trkpt>
      <trkpt lat="50.6539" lon="1.64209">
        <ele>40.6</ele>
        <time>2020-06-22T08:29:01Z</time>
      </trkpt>
      <trkpt lat="50.65395" lon="1.64208">
        <ele>40.8</ele>
        <time>2020-06-22T08:29:02Z</time>
      </trkpt>
      <trkpt lat="50.654" lon="1.64207">
        <ele>41.3</ele>
        <time>2020-06-22T08:29:03Z</time>
      </trkpt>
      <trkpt lat="50.65405" lon="1.64206">
        <ele>41.5</ele>
        <time>2020-06-22T08:29:04Z</time>
      </trkpt>
      <trkpt lat="50.6541" lon="1.64204">
        <ele>41.8</ele>
        <time>2020-06-22T08:29:05Z</time>
      </trkpt>
      <trkpt lat="50.65415" lon="1.64203">
        <ele>42</ele>
        <time>2020-06-22T08:29:06Z</time>
      </trkpt>
      <trkpt lat="50.65419" lon="1.64202">
        <ele>42.2</ele>
        <time>2020-06-22T08:29:07Z</time>
      </trkpt>
      <trkpt lat="50.65424" lon="1.64201">
        <ele>42.5</ele>
        <time>2020-06-22T08:29:08Z</time>
      </trkpt>
      <trkpt lat="50.65428" lon="1.64201">
        <ele>42.7</ele>
        <time>2020-06-22T08:29:09Z</time>
      </trkpt>
      <trkpt lat="50.65432" lon="1.642">
        <ele>42.9</ele>
        <time>2020-06-22T08:29:10Z</time>
      </trkpt>
      <trkpt lat="50.65437" lon="1.64198">
        <ele>43.2</ele>
        <time>2020-06-22T08:29:11Z</time>
      </trkpt>
      <trkpt lat="50.65442" lon="1.64198">
        <ele>43.4</ele>
        <time>2020-06-22T08:29:12Z</time>
      </trkpt>
      <trkpt lat="50.65447" lon="1.64197">
        <ele>43.7</ele>
        <time>2020-06-22T08:29:13Z</time>
      </trkpt>
      <trkpt lat="50.65453" lon="1.64196">
        <ele>44.1</ele>
        <time>2020-06-22T08:29:14Z</time>
      </trkpt>
      <trkpt lat="50.65457" lon="1.64196">
        <ele>44.3</ele>
        <time>2020-06-22T08:29:15Z</time>
      </trkpt>
      <trkpt lat="50.65461" lon="1.64196">
        <ele>44.5</ele>
        <time>2020-06-22T08:29:16Z</time>
      </trkpt>
      <trkpt lat="50.65465" lon="1.64196">
        <ele>44.8</ele>
        <time>2020-06-22T08:29:17Z</time>
      </trkpt>
      <trkpt lat="50.65469" lon="1.64195">
        <ele>45.1</ele>
        <time>2020-06-22T08:29:18Z</time>
      </trkpt>
      <trkpt lat="50.65475" lon="1.64193">
        <ele>45.5</ele>
        <time>2020-06-22T08:29:19Z</time>
      </trkpt>
      <trkpt lat="50.6548" lon="1.64192">
        <ele>45.8</ele>
        <time>2020-06-22T08:29:20Z</time>
      </trkpt>
      <trkpt lat="50.65484" lon="1.64191">
        <ele>46.1</ele>
        <time>2020-06-22T08:29:21Z</time>
      </trkpt>
      <trkpt lat="50.65489" lon="1.64191">
        <ele>46.5</ele>
        <time>2020-06-22T08:29:22Z</time>
      </trkpt>
      <trkpt lat="50.65495" lon="1.6419">
        <ele>46.9</ele>
        <time>2020-06-22T08:29:23Z</time>
      </trkpt>
      <trkpt lat="50.65499" lon="1.6419">
        <ele>47.2</ele>
        <time>2020-06-22T08:29:24Z</time>
      </trkpt>
      <trkpt lat="50.65503" lon="1.6419">
        <ele>47.5</ele>
        <time>2020-06-22T08:29:25Z</time>
      </trkpt>
      <trkpt lat="50.65508" lon="1.6419">
        <ele>47.9</ele>
        <time>2020-06-22T08:29:26Z</time>
      </trkpt>
      <trkpt lat="50.65512" lon="1.6419">
        <ele>48.2</ele>
        <time>2020-06-22T08:29:27Z</time>
      </trkpt>
      <trkpt lat="50.65517" lon="1.64189">
        <ele>48.6</ele>
        <time>2020-06-22T08:29:28Z</time>
      </trkpt>
      <trkpt lat="50.65522" lon="1.64188">
        <ele>49</ele>
        <time>2020-06-22T08:29:29Z</time>
      </trkpt>
      <trkpt lat="50.65527" lon="1.64187">
        <ele>49.3</ele>
        <time>2020-06-22T08:29:30Z</time>
      </trkpt>
      <trkpt lat="50.65531" lon="1.64186">
        <ele>49.7</ele>
        <time>2020-06-22T08:29:31Z</time>
      </trkpt>
      <trkpt lat="50.65536" lon="1.64186">
        <ele>50</ele>
        <time>2020-06-22T08:29:32Z</time>
      </trkpt>
      <trkpt lat="50.6554" lon="1.64186">
        <ele>50.3</ele>
        <time>2020-06-22T08:29:33Z</time>
      </trkpt>
      <trkpt lat="50.65545" lon="1.64185">
        <ele>50.7</ele>
        <time>2020-06-22T08:29:34Z</time>
      </trkpt>
      <trkpt lat="50.65548" lon="1.64185">
        <ele>51</ele>
        <time>2020-06-22T08:29:35Z</time>
      </trkpt>
      <trkpt lat="50.65553" lon="1.64184">
        <ele>51.3</ele>
        <time>2020-06-22T08:29:36Z</time>
      </trkpt>
      <trkpt lat="50.65557" lon="1.64183">
        <ele>51.6</ele>
        <time>2020-06-22T08:29:37Z</time>
      </trkpt>
      <trkpt lat="50.6556" lon="1.64183">
        <ele>51.8</ele>
        <time>2020-06-22T08:29:38Z</time>
      </trkpt>
      <trkpt lat="50.65565" lon="1.64184">
        <ele>52.1</ele>
        <time>2020-06-22T08:29:39Z</time>
      </trkpt>
      <trkpt lat="50.65568" lon="1.64184">
        <ele>52.3</ele>
        <time>2020-06-22T08:29:40Z</time>
      </trkpt>
      <trkpt lat="50.65572" lon="1.64184">
        <ele>52.6</ele>
        <time>2020-06-22T08:29:41Z</time>
      </trkpt>
      <trkpt lat="50.65576" lon="1.64184">
        <ele>52.9</ele>
        <time>2020-06-22T08:29:42Z</time>
      </trkpt>
      <trkpt lat="50.65579" lon="1.64183">
        <ele>53.1</ele>
        <time>2020-06-22T08:29:43Z</time>
      </trkpt>
      <trkpt lat="50.65581" lon="1.64183">
        <ele>53.2</ele>
        <time>2020-06-22T08:29:44Z</time>
      </trkpt>
      <trkpt lat="50.65585" lon="1.64183">
        <ele>53.5</ele>
        <time>2020-06-22T08:29:45Z</time>
      </trkpt>
      <trkpt lat="50.65587" lon="1.64183">
        <ele>53.6</ele>
        <time>2020-06-22T08:29:46Z</time>
      </trkpt>
      <trkpt lat="50.6559" lon="1.64181">
        <ele>53.8</ele>
        <time>2020-06-22T08:29:47Z</time>
      </trkpt>
      <trkpt lat="50.65594" lon="1.64181">
        <ele>54</ele>
        <time>2020-06-22T08:29:48Z</time>
      </trkpt>
      <trkpt lat="50.65598" lon="1.6418">
        <ele>54.3</ele>
        <time>2020-06-22T08:29:49Z</time>
      </trkpt>
      <trkpt lat="50.65602" lon="1.6418">
        <ele>54.5</ele>
        <time>2020-06-22T08:29:50Z</time>
      </trkpt>
      <trkpt lat="50.65606" lon="1.6418">
        <ele>54.9</ele>
        <time>2020-06-22T08:29:51Z</time>
      </trkpt>
      <trkpt lat="50.65609" lon="1.6418">
        <ele>55.1</ele>
        <time>2020-06-22T08:29:52Z</time>
      </trkpt>
      <trkpt lat="50.65613" lon="1.64179">
        <ele>55.4</ele>
        <time>2020-06-22T08:29:53Z</time>
      </trkpt>
      <trkpt lat="50.65616" lon="1.64179">
        <ele>55.6</ele>
        <time>2020-06-22T08:29:54Z</time>
      </trkpt>
      <trkpt lat="50.65619" lon="1.64178">
        <ele>55.8</ele>
        <time>2020-06-22T08:29:55Z</time>
      </trkpt>
      <trkpt lat="50.65623" lon="1.64177">
        <ele>56</ele>
        <time>2020-06-22T08:29:56Z</time>
      </trkpt>
      <trkpt lat="50.65626" lon="1.64177">
        <ele>56.2</ele>
        <time>2020-06-22T08:29:57Z</time>
      </trkpt>
      <trkpt lat="50.6563" lon="1.64176">
        <ele>56.4</ele>
        <time>2020-06-22T08:29:58Z</time>
      </trkpt>
      <trkpt lat="50.65633" lon="1.64175">
        <ele>56.7</ele>
        <time>2020-06-22T08:29:59Z</time>
      </trkpt>
      <trkpt lat="50.65636" lon="1.64175">
        <ele>56.8</ele>
        <time>2020-06-22T08:30:00Z</time>
      </trkpt>
      <trkpt lat="50.6564" lon="1.64174">
        <ele>57.1</ele>
        <time>2020-06-22T08:30:01Z</time>
      </trkpt>
      <trkpt lat="50.65643" lon="1.64174">
        <ele>57.3</ele>
        <time>2020-06-22T08:30:02Z</time>
      </trkpt>
      <trkpt lat="50.65647" lon="1.64173">
        <ele>57.5</ele>
        <time>2020-06-22T08:30:03Z</time>
      </trkpt>
      <trkpt lat="50.65649" lon="1.64172">
        <ele>57.6</ele>
        <time>2020-06-22T08:30:04Z</time>
      </trkpt>
      <trkpt lat="50.65652" lon="1.64172">
        <ele>57.9</ele>
        <time>2020-06-22T08:30:05Z</time>
      </trkpt>
      <trkpt lat="50.65656" lon="1.64172">
        <ele>58</ele>
        <time>2020-06-22T08:30:06Z</time>
      </trkpt>
      <trkpt lat="50.65659" lon="1.64171">
        <ele>58.2</ele>
        <time>2020-06-22T08:30:07Z</time>
      </trkpt>
      <trkpt lat="50.65662" lon="1.64172">
        <ele>58.4</ele>
        <time>2020-06-22T08:30:08Z</time>
      </trkpt>
      <trkpt lat="50.65665" lon="1.64172">
        <ele>58.6</ele>
        <time>2020-06-22T08:30:09Z</time>
      </trkpt>
      <trkpt lat="50.65669" lon="1.64172">
        <ele>58.8</ele>
        <time>2020-06-22T08:30:10Z</time>
      </trkpt>
      <trkpt lat="50.65672" lon="1.64171">
        <ele>59</ele>
        <time>2020-06-22T08:30:11Z</time>
      </trkpt>
      <trkpt lat="50.65676" lon="1.64171">
        <ele>59.2</ele>
        <time>2020-06-22T08:30:12Z</time>
      </trkpt>
      <trkpt lat="50.6568" lon="1.64171">
        <ele>59.4</ele>
        <time>2020-06-22T08:30:13Z</time>
      </trkpt>
      <trkpt lat="50.65683" lon="1.6417">
        <ele>59.6</ele>
        <time>2020-06-22T08:30:14Z</time>
      </trkpt>
      <trkpt lat="50.65686" lon="1.6417">
        <ele>59.8</ele>
        <time>2020-06-22T08:30:15Z</time>
      </trkpt>
      <trkpt lat="50.65689" lon="1.64169">
        <ele>59.9</ele>
        <time>2020-06-22T08:30:16Z</time>
      </trkpt>
      <trkpt lat="50.65694" lon="1.64169">
        <ele>60.2</ele>
        <time>2020-06-22T08:30:17Z</time>
      </trkpt>
      <trkpt lat="50.65698" lon="1.64169">
        <ele>60.4</ele>
        <time>2020-06-22T08:30:18Z</time>
      </trkpt>
      <trkpt lat="50.65701" lon="1.64169">
        <ele>60.5</ele>
        <time>2020-06-22T08:30:19Z</time>
      </trkpt>
      <trkpt lat="50.65705" lon="1.64168">
        <ele>60.7</ele>
        <time>2020-06-22T08:30:20Z</time>
      </trkpt>
      <trkpt lat="50.65708" lon="1.64167">
        <ele>60.9</ele>
        <time>2020-06-22T08:30:21Z</time>
      </trkpt>
      <trkpt lat="50.65712" lon="1.64166">
        <ele>61.1</ele>
        <time>2020-06-22T08:30:22Z</time>
      </trkpt>
      <trkpt lat="50.65714" lon="1.64166">
        <ele>61.1</ele>
        <time>2020-06-22T08:30:23Z</time>
      </trkpt>
      <trkpt lat="50.65717" lon="1.64166">
        <ele>61.3</ele>
        <time>2020-06-22T08:30:24Z</time>
      </trkpt>
      <trkpt lat="50.65721" lon="1.64164">
        <ele>61.4</ele>
        <time>2020-06-22T08:30:25Z</time>
      </trkpt>
      <trkpt lat="50.65726" lon="1.64164">
        <ele>61.6</ele>
        <time>2020-06-22T08:30:26Z</time>
      </trkpt>
      <trkpt lat="50.65729" lon="1.64162">
        <ele>61.8</ele>
        <time>2020-06-22T08:30:27Z</time>
      </trkpt>
      <trkpt lat="50.65731" lon="1.64162">
        <ele>61.9</ele>
        <time>2020-06-22T08:30:28Z</time>
      </trkpt>
      <trkpt lat="50.65735" lon="1.64162">
        <ele>62</ele>
        <time>2020-06-22T08:30:29Z</time>
      </trkpt>
      <trkpt lat="50.65738" lon="1.64161">
        <ele>62.2</ele>
        <time>2020-06-22T08:30:30Z</time>
      </trkpt>
      <trkpt lat="50.65744" lon="1.64161">
        <ele>62.4</ele>
        <time>2020-06-22T08:30:31Z</time>
      </trkpt>
      <trkpt lat="50.65748" lon="1.64161">
        <ele>62.5</ele>
        <time>2020-06-22T08:30:32Z</time>
      </trkpt>
      <trkpt lat="50.65752" lon="1.6416">
        <ele>62.7</ele>
        <time>2020-06-22T08:30:33Z</time>
      </trkpt>
      <trkpt lat="50.65756" lon="1.6416">
        <ele>62.8</ele>
        <time>2020-06-22T08:30:34Z</time>
      </trkpt>
      <trkpt lat="50.6576" lon="1.64159">
        <ele>63</ele>
        <time>2020-06-22T08:30:35Z</time>
      </trkpt>
      <trkpt lat="50.65763" lon="1.64158">
        <ele>63.1</ele>
        <time>2020-06-22T08:30:36Z</time>
      </trkpt>
      <trkpt lat="50.65767" lon="1.64157">
        <ele>63.2</ele>
        <time>2020-06-22T08:30:37Z</time>
      </trkpt>
      <trkpt lat="50.65771" lon="1.64156">
        <ele>63.3</ele>
        <time>2020-06-22T08:30:38Z</time>
      </trkpt>
      <trkpt lat="50.65774" lon="1.64156">
        <ele>63.4</ele>
        <time>2020-06-22T08:30:39Z</time>
      </trkpt>
      <trkpt lat="50.65778" lon="1.64155">
        <ele>63.5</ele>
        <time>2020-06-22T08:30:40Z</time>
      </trkpt>
      <trkpt lat="50.65781" lon="1.64154">
        <ele>63.6</ele>
        <time>2020-06-22T08:30:41Z</time>
      </trkpt>
      <trkpt lat="50.65784" lon="1.64154">
        <ele>63.7</ele>
        <time>2020-06-22T08:30:42Z</time>
      </trkpt>
      <trkpt lat="50.65788" lon="1.64153">
        <ele>63.9</ele>
        <time>2020-06-22T08:30:43Z</time>
      </trkpt>
      <trkpt lat="50.65792" lon="1.64152">
        <ele>64</ele>
        <time>2020-06-22T08:30:44Z</time>
      </trkpt>
      <trkpt lat="50.65796" lon="1.64151">
        <ele>64.1</ele>
        <time>2020-06-22T08:30:45Z</time>
      </trkpt>
      <trkpt lat="50.65801" lon="1.6415">
        <ele>64.2</ele>
        <time>2020-06-22T08:30:46Z</time>
      </trkpt>
      <trkpt lat="50.65806" lon="1.64148">
        <ele>64.3</ele>
        <time>2020-06-22T08:30:47Z</time>
      </trkpt>
      <trkpt lat="50.6581" lon="1.64148">
        <ele>64.4</ele>
        <time>2020-06-22T08:30:48Z</time>
      </trkpt>
      <trkpt lat="50.65814" lon="1.64146">
        <ele>64.4</ele>
        <time>2020-06-22T08:30:49Z</time>
      </trkpt>
      <trkpt lat="50.65817" lon="1.64144">
        <ele>64.5</ele>
        <time>2020-06-22T08:30:50Z</time>
      </trkpt>
      <trkpt lat="50.65822" lon="1.64143">
        <ele>64.5</ele>
        <time>2020-06-22T08:30:51Z</time>
      </trkpt>
      <trkpt lat="50.65827" lon="1.64141">
        <ele>64.6</ele>
        <time>2020-06-22T08:30:52Z</time>
      </trkpt>
      <trkpt lat="50.65832" lon="1.6414">
        <ele>64.6</ele>
        <time>2020-06-22T08:30:53Z</time>
      </trkpt>
      <trkpt lat="50.65836" lon="1.64139">
        <ele>64.6</ele>
        <time>2020-06-22T08:30:54Z</time>
      </trkpt>
      <trkpt lat="50.6584" lon="1.64138">
        <ele>64.6</ele>
        <time>2020-06-22T08:30:55Z</time>
      </trkpt>
      <trkpt lat="50.65845" lon="1.64137">
        <ele>64.6</ele>
        <time>2020-06-22T08:30:56Z</time>
      </trkpt>
      <trkpt lat="50.65849" lon="1.64135">
        <ele>64.6</ele>
        <time>2020-06-22T08:30:57Z</time>
      </trkpt>
      <trkpt lat="50.65853" lon="1.64133">
        <ele>64.5</ele>
        <time>2020-06-22T08:30:58Z</time>
      </trkpt>
      <trkpt lat="50.65858" lon="1.64131">
        <ele>64.5</ele>
        <time>2020-06-22T08:30:59Z</time>
      </trkpt>
      <trkpt lat="50.65863" lon="1.64129">
        <ele>64.5</ele>
        <time>2020-06-22T08:31:00Z</time>
      </trkpt>
      <trkpt lat="50.65868" lon="1.64128">
        <ele>64.5</ele>
        <time>2020-06-22T08:31:01Z</time>
      </trkpt>
      <trkpt lat="50.65873" lon="1.64127">
        <ele>64.4</ele>
        <time>2020-06-22T08:31:02Z</time>
      </trkpt>
      <trkpt lat="50.65878" lon="1.64126">
        <ele>64.4</ele>
        <time>2020-06-22T08:31:03Z</time>
      </trkpt>
      <trkpt lat="50.65884" lon="1.64125">
        <ele>64.3</ele>
        <time>2020-06-22T08:31:04Z</time>
      </trkpt>
      <trkpt lat="50.65889" lon="1.64123">
        <ele>64.3</ele>
        <time>2020-06-22T08:31:05Z</time>
      </trkpt>
      <trkpt lat="50.65893" lon="1.64122">
        <ele>64.2</ele>
        <time>2020-06-22T08:31:06Z</time>
      </trkpt>
      <trkpt lat="50.65897" lon="1.64121">
        <ele>64.2</ele>
        <time>2020-06-22T08:31:07Z</time>
      </trkpt>
      <trkpt lat="50.65901" lon="1.64121">
        <ele>64.2</ele>
        <time>2020-06-22T08:31:08Z</time>
      </trkpt>
      <trkpt lat="50.65907" lon="1.64119">
        <ele>64.1</ele>
        <time>2020-06-22T08:31:09Z</time>
      </trkpt>
      <trkpt lat="50.65913" lon="1.64118">
        <ele>64</ele>
        <time>2020-06-22T08:31:10Z</time>
      </trkpt>
      <trkpt lat="50.65919" lon="1.64117">
        <ele>64</ele>
        <time>2020-06-22T08:31:11Z</time>
      </trkpt>
      <trkpt lat="50.65924" lon="1.64115">
        <ele>63.9</ele>
        <time>2020-06-22T08:31:12Z</time>
      </trkpt>
      <trkpt lat="50.6593" lon="1.64114">
        <ele>63.8</ele>
        <time>2020-06-22T08:31:13Z</time>
      </trkpt>
      <trkpt lat="50.65935" lon="1.64112">
        <ele>63.7</ele>
        <time>2020-06-22T08:31:14Z</time>
      </trkpt>
      <trkpt lat="50.65941" lon="1.64111">
        <ele>63.6</ele>
        <time>2020-06-22T08:31:15Z</time>
      </trkpt>
      <trkpt lat="50.65945" lon="1.6411">
        <ele>63.6</ele>
        <time>2020-06-22T08:31:16Z</time>
      </trkpt>
      <trkpt lat="50.6595" lon="1.64109">
        <ele>63.5</ele>
        <time>2020-06-22T08:31:17Z</time>
      </trkpt>
      <trkpt lat="50.65954" lon="1.64107">
        <ele>63.5</ele>
        <time>2020-06-22T08:31:18Z</time>
      </trkpt>
      <trkpt lat="50.65958" lon="1.64106">
        <ele>63.4</ele>
        <time>2020-06-22T08:31:19Z</time>
      </trkpt>
      <trkpt lat="50.65962" lon="1.64104">
        <ele>63.4</ele>
        <time>2020-06-22T08:31:20Z</time>
      </trkpt>
      <trkpt lat="50.65966" lon="1.64102">
        <ele>63.3</ele>
        <time>2020-06-22T08:31:21Z</time>
      </trkpt>
      <trkpt lat="50.6597" lon="1.641">
        <ele>63.3</ele>
        <time>2020-06-22T08:31:22Z</time>
      </trkpt>
      <trkpt lat="50.65976" lon="1.64098">
        <ele>63.2</ele>
        <time>2020-06-22T08:31:23Z</time>
      </trkpt>
      <trkpt lat="50.6598" lon="1.64096">
        <ele>63.1</ele>
        <time>2020-06-22T08:31:24Z</time>
      </trkpt>
      <trkpt lat="50.65987" lon="1.64093">
        <ele>62.9</ele>
        <time>2020-06-22T08:31:25Z</time>
      </trkpt>
      <trkpt lat="50.65992" lon="1.64091">
        <ele>62.8</ele>
        <time>2020-06-22T08:31:26Z</time>
      </trkpt>
      <trkpt lat="50.65998" lon="1.64089">
        <ele>62.6</ele>
        <time>2020-06-22T08:31:27Z</time>
      </trkpt>
      <trkpt lat="50.66005" lon="1.64087">
        <ele>62.4</ele>
        <time>2020-06-22T08:31:28Z</time>
      </trkpt>
      <trkpt lat="50.66011" lon="1.64085">
        <ele>62.1</ele>
        <time>2020-06-22T08:31:29Z</time>
      </trkpt>
      <trkpt lat="50.66017" lon="1.64083">
        <ele>61.8</ele>
        <time>2020-06-22T08:31:30Z</time>
      </trkpt>
      <trkpt lat="50.66024" lon="1.6408">
        <ele>61.5</ele>
        <time>2020-06-22T08:31:31Z</time>
      </trkpt>
      <trkpt lat="50.66029" lon="1.6408">
        <ele>61.3</ele>
        <time>2020-06-22T08:31:32Z</time>
      </trkpt>
      <trkpt lat="50.66036" lon="1.64079">
        <ele>60.9</ele>
        <time>2020-06-22T08:31:33Z</time>
      </trkpt>
      <trkpt lat="50.66044" lon="1.64076">
        <ele>60.5</ele>
        <time>2020-06-22T08:31:34Z</time>
      </trkpt>
      <trkpt lat="50.66052" lon="1.64073">
        <ele>60.1</ele>
        <time>2020-06-22T08:31:35Z</time>
      </trkpt>
      <trkpt lat="50.66059" lon="1.64071">
        <ele>59.6</ele>
        <time>2020-06-22T08:31:36Z</time>
      </trkpt>
      <trkpt lat="50.66067" lon="1.64069">
        <ele>59.2</ele>
        <time>2020-06-22T08:31:37Z</time>
      </trkpt>
      <trkpt lat="50.66073" lon="1.64067">
        <ele>58.8</ele>
        <time>2020-06-22T08:31:38Z</time>
      </trkpt>
      <trkpt lat="50.6608" lon="1.64065">
        <ele>58.4</ele>
        <time>2020-06-22T08:31:39Z</time>
      </trkpt>
      <trkpt lat="50.66087" lon="1.64062">
        <ele>57.9</ele>
        <time>2020-06-22T08:31:40Z</time>
      </trkpt>
      <trkpt lat="50.66094" lon="1.6406">
        <ele>57.4</ele>
        <time>2020-06-22T08:31:41Z</time>
      </trkpt>
      <trkpt lat="50.66102" lon="1.64058">
        <ele>56.7</ele>
        <time>2020-06-22T08:31:42Z</time>
      </trkpt>
      <trkpt lat="50.66109" lon="1.64057">
        <ele>56.1</ele>
        <time>2020-06-22T08:31:43Z</time>
      </trkpt>
      <trkpt lat="50.66118" lon="1.64056">
        <ele>55.4</ele>
        <time>2020-06-22T08:31:44Z</time>
      </trkpt>
      <trkpt lat="50.66126" lon="1.64054">
        <ele>54.7</ele>
        <time>2020-06-22T08:31:45Z</time>
      </trkpt>
      <trkpt lat="50.66136" lon="1.64052">
        <ele>54</ele>
        <time>2020-06-22T08:31:46Z</time>
      </trkpt>
      <trkpt lat="50.66147" lon="1.64052">
        <ele>53.4</ele>
        <time>2020-06-22T08:31:47Z</time>
      </trkpt>
      <trkpt lat="50.66157" lon="1.64052">
        <ele>52.8</ele>
        <time>2020-06-22T08:31:48Z</time>
      </trkpt>
      <trkpt lat="50.66168" lon="1.64052">
        <ele>52.3</ele>
        <time>2020-06-22T08:31:49Z</time>
      </trkpt>
      <trkpt lat="50.66178" lon="1.64051">
        <ele>52</ele>
        <time>2020-06-22T08:31:50Z</time>
      </trkpt>
      <trkpt lat="50.66188" lon="1.64053">
        <ele>51.9</ele>
        <time>2020-06-22T08:31:51Z</time>
      </trkpt>
      <trkpt lat="50.66197" lon="1.64056">
        <ele>51.7</ele>
        <time>2020-06-22T08:31:52Z</time>
      </trkpt>
      <trkpt lat="50.66206" lon="1.6406">
        <ele>51.7</ele>
        <time>2020-06-22T08:31:53Z</time>
      </trkpt>
      <trkpt lat="50.66214" lon="1.64064">
        <ele>51.8</ele>
        <time>2020-06-22T08:31:54Z</time>
      </trkpt>
      <trkpt lat="50.66222" lon="1.64068">
        <ele>52.1</ele>
        <time>2020-06-22T08:31:55Z</time>
      </trkpt>
      <trkpt lat="50.6623" lon="1.64072">
        <ele>52.3</ele>
        <time>2020-06-22T08:31:56Z</time>
      </trkpt>
      <trkpt lat="50.66237" lon="1.64075">
        <ele>52.6</ele>
        <time>2020-06-22T08:31:57Z</time>
      </trkpt>
      <trkpt lat="50.66245" lon="1.64079">
        <ele>52.9</ele>
        <time>2020-06-22T08:31:58Z</time>
      </trkpt>
      <trkpt lat="50.66252" lon="1.64083">
        <ele>53.2</ele>
        <time>2020-06-22T08:31:59Z</time>
      </trkpt>
      <trkpt lat="50.66259" lon="1.64088">
        <ele>53.5</ele>
        <time>2020-06-22T08:32:00Z</time>
      </trkpt>
      <trkpt lat="50.66266" lon="1.64092">
        <ele>53.9</ele>
        <time>2020-06-22T08:32:01Z</time>
      </trkpt>
      <trkpt lat="50.66272" lon="1.64095">
        <ele>54.2</ele>
        <time>2020-06-22T08:32:02Z</time>
      </trkpt>
      <trkpt lat="50.66278" lon="1.64099">
        <ele>54.5</ele>
        <time>2020-06-22T08:32:03Z</time>
      </trkpt>
      <trkpt lat="50.66284" lon="1.64103">
        <ele>54.7</ele>
        <time>2020-06-22T08:32:04Z</time>
      </trkpt>
      <trkpt lat="50.6629" lon="1.64106">
        <ele>55</ele>
        <time>2020-06-22T08:32:05Z</time>
      </trkpt>
      <trkpt lat="50.66296" lon="1.64108">
        <ele>55.2</ele>
        <time>2020-06-22T08:32:06Z</time>
      </trkpt>
      <trkpt lat="50.66301" lon="1.64112">
        <ele>55.4</ele>
        <time>2020-06-22T08:32:07Z</time>
      </trkpt>
      <trkpt lat="50.66306" lon="1.64116">
        <ele>55.7</ele>
        <time>2020-06-22T08:32:08Z</time>
      </trkpt>
      <trkpt lat="50.66312" lon="1.64119">
        <ele>55.9</ele>
        <time>2020-06-22T08:32:09Z</time>
      </trkpt>
      <trkpt lat="50.66318" lon="1.64123">
        <ele>56.2</ele>
        <time>2020-06-22T08:32:10Z</time>
      </trkpt>
      <trkpt lat="50.66323" lon="1.64126">
        <ele>56.4</ele>
        <time>2020-06-22T08:32:11Z</time>
      </trkpt>
      <trkpt lat="50.66329" lon="1.64129">
        <ele>56.6</ele>
        <time>2020-06-22T08:32:12Z</time>
      </trkpt>
      <trkpt lat="50.66334" lon="1.64132">
        <ele>56.8</ele>
        <time>2020-06-22T08:32:13Z</time>
      </trkpt>
      <trkpt lat="50.6634" lon="1.64135">
        <ele>57</ele>
        <time>2020-06-22T08:32:14Z</time>
      </trkpt>
      <trkpt lat="50.66345" lon="1.64139">
        <ele>57.2</ele>
        <time>2020-06-22T08:32:15Z</time>
      </trkpt>
      <trkpt lat="50.6635" lon="1.64142">
        <ele>57.4</ele>
        <time>2020-06-22T08:32:16Z</time>
      </trkpt>
      <trkpt lat="50.66355" lon="1.64145">
        <ele>57.6</ele>
        <time>2020-06-22T08:32:17Z</time>
      </trkpt>
      <trkpt lat="50.6636" lon="1.64148">
        <ele>57.8</ele>
        <time>2020-06-22T08:32:18Z</time>
      </trkpt>
      <trkpt lat="50.66366" lon="1.6415">
        <ele>57.9</ele>
        <time>2020-06-22T08:32:19Z</time>
      </trkpt>
      <trkpt lat="50.66372" lon="1.64151">
        <ele>58.1</ele>
        <time>2020-06-22T08:32:20Z</time>
      </trkpt>
      <trkpt lat="50.66377" lon="1.64153">
        <ele>58.2</ele>
        <time>2020-06-22T08:32:21Z</time>
      </trkpt>
      <trkpt lat="50.66383" lon="1.64154">
        <ele>58.4</ele>
        <time>2020-06-22T08:32:22Z</time>
      </trkpt>
      <trkpt lat="50.66388" lon="1.64156">
        <ele>58.6</ele>
        <time>2020-06-22T08:32:23Z</time>
      </trkpt>
      <trkpt lat="50.66394" lon="1.64155">
        <ele>58.7</ele>
        <time>2020-06-22T08:32:24Z</time>
      </trkpt>
      <trkpt lat="50.664" lon="1.64155">
        <ele>58.9</ele>
        <time>2020-06-22T08:32:25Z</time>
      </trkpt>
      <trkpt lat="50.66406" lon="1.64155">
        <ele>59.1</ele>
        <time>2020-06-22T08:32:26Z</time>
      </trkpt>
      <trkpt lat="50.66412" lon="1.64156">
        <ele>59.3</ele>
        <time>2020-06-22T08:32:27Z</time>
      </trkpt>
      <trkpt lat="50.66419" lon="1.64155">
        <ele>59.5</ele>
        <time>2020-06-22T08:32:28Z</time>
      </trkpt>
      <trkpt lat="50.66425" lon="1.64153">
        <ele>59.7</ele>
        <time>2020-06-22T08:32:29Z</time>
      </trkpt>
      <trkpt lat="50.66432" lon="1.64152">
        <ele>59.9</ele>
        <time>2020-06-22T08:32:30Z</time>
      </trkpt>
      <trkpt lat="50.66438" lon="1.64151">
        <ele>60.1</ele>
        <time>2020-06-22T08:32:31Z</time>
      </trkpt>
      <trkpt lat="50.66443" lon="1.6415">
        <ele>60.3</ele>
        <time>2020-06-22T08:32:32Z</time>
      </trkpt>
      <trkpt lat="50.66449" lon="1.64148">
        <ele>60.5</ele>
        <time>2020-06-22T08:32:33Z</time>
      </trkpt>
      <trkpt lat="50.66456" lon="1.64145">
        <ele>60.7</ele>
        <time>2020-06-22T08:32:34Z</time>
      </trkpt>
      <trkpt lat="50.66461" lon="1.64142">
        <ele>60.9</ele>
        <time>2020-06-22T08:32:35Z</time>
      </trkpt>
      <trkpt lat="50.66466" lon="1.64139">
        <ele>61.1</ele>
        <time>2020-06-22T08:32:36Z</time>
      </trkpt>
      <trkpt lat="50.66471" lon="1.64136">
        <ele>61.3</ele>
        <time>2020-06-22T08:32:37Z</time>
      </trkpt>
      <trkpt lat="50.66478" lon="1.64132">
        <ele>61.6</ele>
        <time>2020-06-22T08:32:38Z</time>
      </trkpt>
      <trkpt lat="50.66484" lon="1.64129">
        <ele>61.8</ele>
        <time>2020-06-22T08:32:39Z</time>
      </trkpt>
      <trkpt lat="50.6649" lon="1.64126">
        <ele>62</ele>
        <time>2020-06-22T08:32:40Z</time>
      </trkpt>
      <trkpt lat="50.66497" lon="1.64123">
        <ele>62.2</ele>
        <time>2020-06-22T08:32:41Z</time>
      </trkpt>
      <trkpt lat="50.66502" lon="1.6412">
        <ele>62.4</ele>
        <time>2020-06-22T08:32:42Z</time>
      </trkpt>
      <trkpt lat="50.66508" lon="1.64116">
        <ele>62.6</ele>
        <time>2020-06-22T08:32:43Z</time>
      </trkpt>
      <trkpt lat="50.66513" lon="1.64112">
        <ele>62.8</ele>
        <time>2020-06-22T08:32:44Z</time>
      </trkpt>
      <trkpt lat="50.66518" lon="1.64109">
        <ele>63</ele>
        <time>2020-06-22T08:32:45Z</time>
      </trkpt>
      <trkpt lat="50.66524" lon="1.64104">
        <ele>63.2</ele>
        <time>2020-06-22T08:32:46Z</time>
      </trkpt>
      <trkpt lat="50.66528" lon="1.64099">
        <ele>63.4</ele>
        <time>2020-06-22T08:32:47Z</time>
      </trkpt>
      <trkpt lat="50.66534" lon="1.64093">
        <ele>63.7</ele>
        <time>2020-06-22T08:32:48Z</time>
      </trkpt>
      <trkpt lat="50.66539" lon="1.64088">
        <ele>63.9</ele>
        <time>2020-06-22T08:32:49Z</time>
      </trkpt>
      <trkpt lat="50.66543" lon="1.64083">
        <ele>64.1</ele>
        <time>2020-06-22T08:32:50Z</time>
      </trkpt>
      <trkpt lat="50.66548" lon="1.64078">
        <ele>64.3</ele>
        <time>2020-06-22T08:32:51Z</time>
      </trkpt>
      <trkpt lat="50.66553" lon="1.64073">
        <ele>64.4</ele>
        <time>2020-06-22T08:32:52Z</time>
      </trkpt>
      <trkpt lat="50.66557" lon="1.64069">
        <ele>64.5</ele>
        <time>2020-06-22T08:32:53Z</time>
      </trkpt>
      <trkpt lat="50.66562" lon="1.64064">
        <ele>64.6</ele>
        <time>2020-06-22T08:32:54Z</time>
      </trkpt>
      <trkpt lat="50.66566" lon="1.6406">
        <ele>64.6</ele>
        <time>2020-06-22T08:32:55Z</time>
      </trkpt>
      <trkpt lat="50.66569" lon="1.64056">
        <ele>64.6</ele>
        <time>2020-06-22T08:32:56Z</time>
      </trkpt>
      <trkpt lat="50.66573" lon="1.64052">
        <ele>64.6</ele>
        <time>2020-06-22T08:32:57Z</time>
      </trkpt>
      <trkpt lat="50.66576" lon="1.64048">
        <ele>64.6</ele>
        <time>2020-06-22T08:32:58Z</time>
      </trkpt>
      <trkpt lat="50.66578" lon="1.64046">
        <ele>64.6</ele>
        <time>2020-06-22T08:32:59Z</time>
      </trkpt>
      <trkpt lat="50.66581" lon="1.64041">
        <ele>64.6</ele>
        <time>2020-06-22T08:33:00Z</time>
      </trkpt>
      <trkpt lat="50.66585" lon="1.64036">
        <ele>64.6</ele>
        <time>2020-06-22T08:33:01Z</time>
      </trkpt>
      <trkpt lat="50.66587" lon="1.64035">
        <ele>64.6</ele>
        <time>2020-06-22T08:33:02Z</time>
      </trkpt>
      <trkpt lat="50.66591" lon="1.6403">
        <ele>64.6</ele>
        <time>2020-06-22T08:33:03Z</time>
      </trkpt>
      <trkpt lat="50.66596" lon="1.64024">
        <ele>64.5</ele>
        <time>2020-06-22T08:33:04Z</time>
      </trkpt>
      <trkpt lat="50.666" lon="1.64019">
        <ele>64.5</ele>
        <time>2020-06-22T08:33:05Z</time>
      </trkpt>
      <trkpt lat="50.66604" lon="1.64014">
        <ele>64.3</ele>
        <time>2020-06-22T08:33:06Z</time>
      </trkpt>
      <trkpt lat="50.66608" lon="1.64006">
        <ele>64.1</ele>
        <time>2020-06-22T08:33:07Z</time>
      </trkpt>
      <trkpt lat="50.66611" lon="1.64001">
        <ele>64</ele>
        <time>2020-06-22T08:33:08Z</time>
      </trkpt>
      <trkpt lat="50.66614" lon="1.63995">
        <ele>63.9</ele>
        <time>2020-06-22T08:33:09Z</time>
      </trkpt>
      <trkpt lat="50.66618" lon="1.6399">
        <ele>63.8</ele>
        <time>2020-06-22T08:33:10Z</time>
      </trkpt>
      <trkpt lat="50.66621" lon="1.63988">
        <ele>63.7</ele>
        <time>2020-06-22T08:33:11Z</time>
      </trkpt>
      <trkpt lat="50.66625" lon="1.63983">
        <ele>63.5</ele>
        <time>2020-06-22T08:33:12Z</time>
      </trkpt>
      <trkpt lat="50.66631" lon="1.63978">
        <ele>63.3</ele>
        <time>2020-06-22T08:33:13Z</time>
      </trkpt>
      <trkpt lat="50.66635" lon="1.63973">
        <ele>63.1</ele>
        <time>2020-06-22T08:33:14Z</time>
      </trkpt>
      <trkpt lat="50.66639" lon="1.63966">
        <ele>62.8</ele>
        <time>2020-06-22T08:33:15Z</time>
      </trkpt>
      <trkpt lat="50.66644" lon="1.6396">
        <ele>62.5</ele>
        <time>2020-06-22T08:33:16Z</time>
      </trkpt>
      <trkpt lat="50.66649" lon="1.63953">
        <ele>62.2</ele>
        <time>2020-06-22T08:33:17Z</time>
      </trkpt>
      <trkpt lat="50.66655" lon="1.63944">
        <ele>61.8</ele>
        <time>2020-06-22T08:33:18Z</time>
      </trkpt>
      <trkpt lat="50.66659" lon="1.63939">
        <ele>61.5</ele>
        <time>2020-06-22T08:33:19Z</time>
      </trkpt>
      <trkpt lat="50.66664" lon="1.63933">
        <ele>61.2</ele>
        <time>2020-06-22T08:33:20Z</time>
      </trkpt>
      <trkpt lat="50.66668" lon="1.63926">
        <ele>60.9</ele>
        <time>2020-06-22T08:33:21Z</time>
      </trkpt>
      <trkpt lat="50.66672" lon="1.6392">
        <ele>60.6</ele>
        <time>2020-06-22T08:33:22Z</time>
      </trkpt>
      <trkpt lat="50.66675" lon="1.63913">
        <ele>60.3</ele>
        <time>2020-06-22T08:33:23Z</time>
      </trkpt>
      <trkpt lat="50.66679" lon="1.63906">
        <ele>60</ele>
        <time>2020-06-22T08:33:24Z</time>
      </trkpt>
      <trkpt lat="50.66683" lon="1.63899">
        <ele>59.6</ele>
        <time>2020-06-22T08:33:25Z</time>
      </trkpt>
      <trkpt lat="50.66686" lon="1.63892">
        <ele>59.3</ele>
        <time>2020-06-22T08:33:26Z</time>
      </trkpt>
      <trkpt lat="50.66688" lon="1.63883">
        <ele>58.9</ele>
        <time>2020-06-22T08:33:27Z</time>
      </trkpt>
      <trkpt lat="50.66692" lon="1.63874">
        <ele>58.4</ele>
        <time>2020-06-22T08:33:28Z</time>
      </trkpt>
      <trkpt lat="50.66696" lon="1.63865">
        <ele>57.8</ele>
        <time>2020-06-22T08:33:29Z</time>
      </trkpt>
      <trkpt lat="50.667" lon="1.63857">
        <ele>57.2</ele>
        <time>2020-06-22T08:33:30Z</time>
      </trkpt>
      <trkpt lat="50.66704" lon="1.63847">
        <ele>56.4</ele>
        <time>2020-06-22T08:33:31Z</time>
      </trkpt>
      <trkpt lat="50.66709" lon="1.63834">
        <ele>55.5</ele>
        <time>2020-06-22T08:33:32Z</time>
      </trkpt>
      <trkpt lat="50.66714" lon="1.63819">
        <ele>54.4</ele>
        <time>2020-06-22T08:33:33Z</time>
      </trkpt>
      <trkpt lat="50.66718" lon="1.63801">
        <ele>53.2</ele>
        <time>2020-06-22T08:33:34Z</time>
      </trkpt>
      <trkpt lat="50.66722" lon="1.63784">
        <ele>51.9</ele>
        <time>2020-06-22T08:33:35Z</time>
      </trkpt>
      <trkpt lat="50.66725" lon="1.63769">
        <ele>50.8</ele>
        <time>2020-06-22T08:33:36Z</time>
      </trkpt>
      <trkpt lat="50.66728" lon="1.63749">
        <ele>49.6</ele>
        <time>2020-06-22T08:33:37Z</time>
      </trkpt>
      <trkpt lat="50.6673" lon="1.63728">
        <ele>48.2</ele>
        <time>2020-06-22T08:33:38Z</time>
      </trkpt>
      <trkpt lat="50.66731" lon="1.63708">
        <ele>47.1</ele>
        <time>2020-06-22T08:33:39Z</time>
      </trkpt>
      <trkpt lat="50.66731" lon="1.63687">
        <ele>46.1</ele>
        <time>2020-06-22T08:33:40Z</time>
      </trkpt>
      <trkpt lat="50.66731" lon="1.63667">
        <ele>45.3</ele>
        <time>2020-06-22T08:33:41Z</time>
      </trkpt>
      <trkpt lat="50.66731" lon="1.63647">
        <ele>44.7</ele>
        <time>2020-06-22T08:33:42Z</time>
      </trkpt>
      <trkpt lat="50.66731" lon="1.63627">
        <ele>44.3</ele>
        <time>2020-06-22T08:33:43Z</time>
      </trkpt>
      <trkpt lat="50.66731" lon="1.63607">
        <ele>43.9</ele>
        <time>2020-06-22T08:33:44Z</time>
      </trkpt>
      <trkpt lat="50.66734" lon="1.63588">
        <ele>43.6</ele>
        <time>2020-06-22T08:33:45Z</time>
      </trkpt>
      <trkpt lat="50.66736" lon="1.63568">
        <ele>43.4</ele>
        <time>2020-06-22T08:33:46Z</time>
      </trkpt>
      <trkpt lat="50.6674" lon="1.63552">
        <ele>43.2</ele>
        <time>2020-06-22T08:33:47Z</time>
      </trkpt>
      <trkpt lat="50.66745" lon="1.63538">
        <ele>43</ele>
        <time>2020-06-22T08:33:48Z</time>
      </trkpt>
      <trkpt lat="50.66753" lon="1.63527">
        <ele>42.9</ele>
        <time>2020-06-22T08:33:49Z</time>
      </trkpt>
      <trkpt lat="50.66761" lon="1.63519">
        <ele>42.7</ele>
        <time>2020-06-22T08:33:50Z</time>
      </trkpt>
      <trkpt lat="50.66771" lon="1.63515">
        <ele>42.9</ele>
        <time>2020-06-22T08:33:51Z</time>
      </trkpt>
      <trkpt lat="50.6678" lon="1.63511">
        <ele>43</ele>
        <time>2020-06-22T08:33:52Z</time>
      </trkpt>
      <trkpt lat="50.66789" lon="1.6351">
        <ele>43</ele>
        <time>2020-06-22T08:33:53Z</time>
      </trkpt>
      <trkpt lat="50.66798" lon="1.63511">
        <ele>43</ele>
        <time>2020-06-22T08:33:54Z</time>
      </trkpt>
      <trkpt lat="50.66807" lon="1.63513">
        <ele>43.1</ele>
        <time>2020-06-22T08:33:55Z</time>
      </trkpt>
      <trkpt lat="50.66815" lon="1.63515">
        <ele>43.2</ele>
        <time>2020-06-22T08:33:56Z</time>
      </trkpt>
      <trkpt lat="50.66824" lon="1.63517">
        <ele>43.4</ele>
        <time>2020-06-22T08:33:57Z</time>
      </trkpt>
      <trkpt lat="50.66832" lon="1.63518">
        <ele>43.5</ele>
        <time>2020-06-22T08:33:58Z</time>
      </trkpt>
      <trkpt lat="50.6684" lon="1.6352">
        <ele>43.7</ele>
        <time>2020-06-22T08:33:59Z</time>
      </trkpt>
      <trkpt lat="50.66848" lon="1.63523">
        <ele>43.8</ele>
        <time>2020-06-22T08:34:00Z</time>
      </trkpt>
      <trkpt lat="50.66855" lon="1.63524">
        <ele>44</ele>
        <time>2020-06-22T08:34:01Z</time>
      </trkpt>
      <trkpt lat="50.66863" lon="1.63526">
        <ele>44.1</ele>
        <time>2020-06-22T08:34:02Z</time>
      </trkpt>
      <trkpt lat="50.6687" lon="1.63527">
        <ele>44.3</ele>
        <time>2020-06-22T08:34:03Z</time>
      </trkpt>
      <trkpt lat="50.66877" lon="1.63528">
        <ele>44.5</ele>
        <time>2020-06-22T08:34:04Z</time>
      </trkpt>
      <trkpt lat="50.66884" lon="1.6353">
        <ele>44.6</ele>
        <time>2020-06-22T08:34:05Z</time>
      </trkpt>
      <trkpt lat="50.6689" lon="1.63531">
        <ele>44.8</ele>
        <time>2020-06-22T08:34:06Z</time>
      </trkpt>
      <trkpt lat="50.66896" lon="1.63532">
        <ele>44.9</ele>
        <time>2020-06-22T08:34:07Z</time>
      </trkpt>
      <trkpt lat="50.66902" lon="1.63534">
        <ele>45</ele>
        <time>2020-06-22T08:34:08Z</time>
      </trkpt>
      <trkpt lat="50.66907" lon="1.63536">
        <ele>45.1</ele>
        <time>2020-06-22T08:34:09Z</time>
      </trkpt>
      <trkpt lat="50.66913" lon="1.63537">
        <ele>45.1</ele>
        <time>2020-06-22T08:34:10Z</time>
      </trkpt>
      <trkpt lat="50.66918" lon="1.63539">
        <ele>45.1</ele>
        <time>2020-06-22T08:34:11Z</time>
      </trkpt>
      <trkpt lat="50.66924" lon="1.63541">
        <ele>45.1</ele>
        <time>2020-06-22T08:34:12Z</time>
      </trkpt>
      <trkpt lat="50.6693" lon="1.63542">
        <ele>45.1</ele>
        <time>2020-06-22T08:34:13Z</time>
      </trkpt>
      <trkpt lat="50.66936" lon="1.63543">
        <ele>45.1</ele>
        <time>2020-06-22T08:34:14Z</time>
      </trkpt>
      <trkpt lat="50.66942" lon="1.63544">
        <ele>45.1</ele>
        <time>2020-06-22T08:34:15Z</time>
      </trkpt>
      <trkpt lat="50.66948" lon="1.63546">
        <ele>45.1</ele>
        <time>2020-06-22T08:34:16Z</time>
      </trkpt>
      <trkpt lat="50.66954" lon="1.63549">
        <ele>45</ele>
        <time>2020-06-22T08:34:17Z</time>
      </trkpt>
      <trkpt lat="50.66959" lon="1.63552">
        <ele>45</ele>
        <time>2020-06-22T08:34:18Z</time>
      </trkpt>
      <trkpt lat="50.66964" lon="1.63553">
        <ele>44.9</ele>
        <time>2020-06-22T08:34:19Z</time>
      </trkpt>
      <trkpt lat="50.66968" lon="1.63554">
        <ele>44.9</ele>
        <time>2020-06-22T08:34:20Z</time>
      </trkpt>
      <trkpt lat="50.66971" lon="1.63557">
        <ele>44.8</ele>
        <time>2020-06-22T08:34:21Z</time>
      </trkpt>
      <trkpt lat="50.66974" lon="1.63557">
        <ele>44.9</ele>
        <time>2020-06-22T08:34:22Z</time>
      </trkpt>
      <trkpt lat="50.66974" lon="1.63558">
        <ele>44.9</ele>
        <time>2020-06-22T08:34:23Z</time>
      </trkpt>
      <trkpt lat="50.66973" lon="1.63559">
        <ele>44.9</ele>
        <time>2020-06-22T08:34:24Z</time>
      </trkpt>
      <trkpt lat="50.66974" lon="1.63559">
        <ele>44.9</ele>
        <time>2020-06-22T08:34:25Z</time>
      </trkpt>
      <trkpt lat="50.66974" lon="1.6356">
        <ele>44.9</ele>
        <time>2020-06-22T08:34:26Z</time>
      </trkpt>
      <trkpt lat="50.66974" lon="1.6356">
        <ele>44.9</ele>
        <time>2020-06-22T08:34:27Z</time>
      </trkpt>
      <trkpt lat="50.66974" lon="1.63561">
        <ele>44.9</ele>
        <time>2020-06-22T08:34:28Z</time>
      </trkpt>
      <trkpt lat="50.66974" lon="1.63562">
        <ele>44.9</ele>
        <time>2020-06-22T08:34:29Z</time>
      </trkpt>
      <trkpt lat="50.66975" lon="1.63561">
        <ele>44.9</ele>
        <time>2020-06-22T08:34:30Z</time>
      </trkpt>
      <trkpt lat="50.66975" lon="1.6356">
        <ele>44.9</ele>
        <time>2020-06-22T08:34:31Z</time>
      </trkpt>
      <trkpt lat="50.66976" lon="1.63559">
        <ele>44.9</ele>
        <time>2020-06-22T08:34:32Z</time>
      </trkpt>
      <trkpt lat="50.66976" lon="1.63559">
        <ele>44.9</ele>
        <time>2020-06-22T08:34:33Z</time>
      </trkpt>
      <trkpt lat="50.66977" lon="1.63559">
        <ele>44.9</ele>
        <time>2020-06-22T08:34:34Z</time>
      </trkpt>
      <trkpt lat="50.66977" lon="1.63559">
        <ele>44.9</ele>
        <time>2020-06-22T08:34:35Z</time>
      </trkpt>
      <trkpt lat="50.66977" lon="1.63558">
        <ele>44.9</ele>
        <time>2020-06-22T08:34:36Z</time>
      </trkpt>
      <trkpt lat="50.66976" lon="1.63558">
        <ele>44.9</ele>
        <time>2020-06-22T08:34:37Z</time>
      </trkpt>
      <trkpt lat="50.66975" lon="1.63559">
        <ele>44.9</ele>
        <time>2020-06-22T08:34:38Z</time>
      </trkpt>
      <trkpt lat="50.66975" lon="1.63559">
        <ele>45</ele>
        <time>2020-06-22T08:34:39Z</time>
      </trkpt>
      <trkpt lat="50.66974" lon="1.63559">
        <ele>45</ele>
        <time>2020-06-22T08:34:40Z</time>
      </trkpt>
      <trkpt lat="50.66973" lon="1.6356">
        <ele>45</ele>
        <time>2020-06-22T08:34:41Z</time>
      </trkpt>
      <trkpt lat="50.66973" lon="1.6356">
        <ele>45</ele>
        <time>2020-06-22T08:34:42Z</time>
      </trkpt>
      <trkpt lat="50.66972" lon="1.63562">
        <ele>45</ele>
        <time>2020-06-22T08:34:43Z</time>
      </trkpt>
      <trkpt lat="50.66971" lon="1.63562">
        <ele>45</ele>
        <time>2020-06-22T08:34:44Z</time>
      </trkpt>
      <trkpt lat="50.6697" lon="1.63563">
        <ele>45</ele>
        <time>2020-06-22T08:34:45Z</time>
      </trkpt>
      <trkpt lat="50.66968" lon="1.63562">
        <ele>45</ele>
        <time>2020-06-22T08:34:46Z</time>
      </trkpt>
      <trkpt lat="50.66968" lon="1.63562">
        <ele>45</ele>
        <time>2020-06-22T08:34:47Z</time>
      </trkpt>
      <trkpt lat="50.66967" lon="1.63561">
        <ele>45</ele>
        <time>2020-06-22T08:34:48Z</time>
      </trkpt>
      <trkpt lat="50.66967" lon="1.63561">
        <ele>45</ele>
        <time>2020-06-22T08:34:49Z</time>
      </trkpt>
      <trkpt lat="50.66967" lon="1.63561">
        <ele>45</ele>
        <time>2020-06-22T08:34:50Z</time>
      </trkpt>
      <trkpt lat="50.66966" lon="1.6356">
        <ele>45</ele>
        <time>2020-06-22T08:34:51Z</time>
      </trkpt>
      <trkpt lat="50.66966" lon="1.6356">
        <ele>45</ele>
        <time>2020-06-22T08:34:52Z</time>
      </trkpt>
      <trkpt lat="50.66966" lon="1.6356">
        <ele>45</ele>
        <time>2020-06-22T08:34:53Z</time>
      </trkpt>
      <trkpt lat="50.66964" lon="1.63559">
        <ele>45</ele>
        <time>2020-06-22T08:34:54Z</time>
      </trkpt>
      <trkpt lat="50.66962" lon="1.63556">
        <ele>45</ele>
        <time>2020-06-22T08:34:55Z</time>
      </trkpt>
      <trkpt lat="50.66962" lon="1.63555">
        <ele>45.1</ele>
        <time>2020-06-22T08:34:56Z</time>
      </trkpt>
      <trkpt lat="50.66959" lon="1.63553">
        <ele>45.1</ele>
        <time>2020-06-22T08:34:57Z</time>
      </trkpt>
      <trkpt lat="50.66958" lon="1.63552">
        <ele>45.1</ele>
        <time>2020-06-22T08:34:58Z</time>
      </trkpt>
      <trkpt lat="50.66956" lon="1.63551">
        <ele>45.1</ele>
        <time>2020-06-22T08:34:59Z</time>
      </trkpt>
      <trkpt lat="50.66955" lon="1.6355">
        <ele>45.1</ele>
        <time>2020-06-22T08:35:00Z</time>
      </trkpt>
      <trkpt lat="50.66954" lon="1.6355">
        <ele>45.1</ele>
        <time>2020-06-22T08:35:01Z</time>
      </trkpt>
      <trkpt lat="50.66954" lon="1.63551">
        <ele>45.1</ele>
        <time>2020-06-22T08:35:02Z</time>
      </trkpt>
      <trkpt lat="50.66953" lon="1.6355">
        <ele>45.1</ele>
        <time>2020-06-22T08:35:03Z</time>
      </trkpt>
      <trkpt lat="50.66952" lon="1.6355">
        <ele>45.1</ele>
        <time>2020-06-22T08:35:04Z</time>
      </trkpt>
      <trkpt lat="50.66951" lon="1.6355">
        <ele>45.1</ele>
        <time>2020-06-22T08:35:05Z</time>
      </trkpt>
      <trkpt lat="50.66949" lon="1.63551">
        <ele>45.1</ele>
        <time>2020-06-22T08:35:06Z</time>
      </trkpt>
      <trkpt lat="50.66946" lon="1.63548">
        <ele>45.1</ele>
        <time>2020-06-22T08:35:07Z</time>
      </trkpt>
      <trkpt lat="50.66945" lon="1.63547">
        <ele>45.1</ele>
        <time>2020-06-22T08:35:08Z</time>
      </trkpt>
      <trkpt lat="50.66943" lon="1.63547">
        <ele>45.1</ele>
        <time>2020-06-22T08:35:09Z</time>
      </trkpt>
      <trkpt lat="50.66941" lon="1.63549">
        <ele>45.1</ele>
        <time>2020-06-22T08:35:10Z</time>
      </trkpt>
      <trkpt lat="50.66938" lon="1.63549">
        <ele>45.1</ele>
        <time>2020-06-22T08:35:11Z</time>
      </trkpt>
      <trkpt lat="50.66938" lon="1.63549">
        <ele>45.1</ele>
        <time>2020-06-22T08:35:12Z</time>
      </trkpt>
      <trkpt lat="50.66935" lon="1.63549">
        <ele>45.1</ele>
        <time>2020-06-22T08:35:13Z</time>
      </trkpt>
      <trkpt lat="50.66934" lon="1.63549">
        <ele>45.1</ele>
        <time>2020-06-22T08:35:14Z</time>
      </trkpt>
      <trkpt lat="50.6693" lon="1.63548">
        <ele>45.1</ele>
        <time>2020-06-22T08:35:15Z</time>
      </trkpt>
      <trkpt lat="50.66929" lon="1.63548">
        <ele>45.1</ele>
        <time>2020-06-22T08:35:16Z</time>
      </trkpt>
      <trkpt lat="50.66926" lon="1.63546">
        <ele>45.1</ele>
        <time>2020-06-22T08:35:17Z</time>
      </trkpt>
      <trkpt lat="50.66925" lon="1.63546">
        <ele>45.1</ele>
        <time>2020-06-22T08:35:18Z</time>
      </trkpt>
      <trkpt lat="50.66922" lon="1.63546">
        <ele>45.1</ele>
        <time>2020-06-22T08:35:19Z</time>
      </trkpt>
      <trkpt lat="50.66921" lon="1.63545">
        <ele>45.1</ele>
        <time>2020-06-22T08:35:20Z</time>
      </trkpt>
      <trkpt lat="50.66918" lon="1.63545">
        <ele>45.1</ele>
        <time>2020-06-22T08:35:21Z</time>
      </trkpt>
      <trkpt lat="50.66916" lon="1.63545">
        <ele>45.1</ele>
        <time>2020-06-22T08:35:22Z</time>
      </trkpt>
      <trkpt lat="50.66915" lon="1.63544">
        <ele>45</ele>
        <time>2020-06-22T08:35:23Z</time>
      </trkpt>
      <trkpt lat="50.66913" lon="1.63543">
        <ele>45</ele>
        <time>2020-06-22T08:35:24Z</time>
      </trkpt>
      <trkpt lat="50.66911" lon="1.6354">
        <ele>45</ele>
        <time>2020-06-22T08:35:25Z</time>
      </trkpt>
      <trkpt lat="50.6691" lon="1.63539">
        <ele>45</ele>
        <time>2020-06-22T08:35:26Z</time>
      </trkpt>
      <trkpt lat="50.66909" lon="1.63538">
        <ele>45</ele>
        <time>2020-06-22T08:35:27Z</time>
      </trkpt>
      <trkpt lat="50.66907" lon="1.63538">
        <ele>44.9</ele>
        <time>2020-06-22T08:35:28Z</time>
      </trkpt>
      <trkpt lat="50.66905" lon="1.63537">
        <ele>44.9</ele>
        <time>2020-06-22T08:35:29Z</time>
      </trkpt>
      <trkpt lat="50.66904" lon="1.63537">
        <ele>44.9</ele>
        <time>2020-06-22T08:35:30Z</time>
      </trkpt>
      <trkpt lat="50.66901" lon="1.63534">
        <ele>44.8</ele>
        <time>2020-06-22T08:35:31Z</time>
      </trkpt>
      <trkpt lat="50.66898" lon="1.63531">
        <ele>44.8</ele>
        <time>2020-06-22T08:35:32Z</time>
      </trkpt>
      <trkpt lat="50.66894" lon="1.6353">
        <ele>44.7</ele>
        <time>2020-06-22T08:35:33Z</time>
      </trkpt>
      <trkpt lat="50.66889" lon="1.63529">
        <ele>44.6</ele>
        <time>2020-06-22T08:35:34Z</time>
      </trkpt>
      <trkpt lat="50.66884" lon="1.63527">
        <ele>44.5</ele>
        <time>2020-06-22T08:35:35Z</time>
      </trkpt>
      <trkpt lat="50.66879" lon="1.63526">
        <ele>44.4</ele>
        <time>2020-06-22T08:35:36Z</time>
      </trkpt>
      <trkpt lat="50.66874" lon="1.63526">
        <ele>44.2</ele>
        <time>2020-06-22T08:35:37Z</time>
      </trkpt>
      <trkpt lat="50.66869" lon="1.63523">
        <ele>44.1</ele>
        <time>2020-06-22T08:35:38Z</time>
      </trkpt>
      <trkpt lat="50.66863" lon="1.63522">
        <ele>44</ele>
        <time>2020-06-22T08:35:39Z</time>
      </trkpt>
      <trkpt lat="50.66858" lon="1.63521">
        <ele>43.9</ele>
        <time>2020-06-22T08:35:40Z</time>
      </trkpt>
      <trkpt lat="50.66852" lon="1.6352">
        <ele>43.8</ele>
        <time>2020-06-22T08:35:41Z</time>
      </trkpt>
      <trkpt lat="50.66847" lon="1.63518">
        <ele>43.7</ele>
        <time>2020-06-22T08:35:42Z</time>
      </trkpt>
      <trkpt lat="50.66842" lon="1.63516">
        <ele>43.7</ele>
        <time>2020-06-22T08:35:43Z</time>
      </trkpt>
      <trkpt lat="50.66836" lon="1.63515">
        <ele>43.6</ele>
        <time>2020-06-22T08:35:44Z</time>
      </trkpt>
      <trkpt lat="50.66831" lon="1.63515">
        <ele>43.5</ele>
        <time>2020-06-22T08:35:45Z</time>
      </trkpt>
      <trkpt lat="50.66827" lon="1.63515">
        <ele>43.4</ele>
        <time>2020-06-22T08:35:46Z</time>
      </trkpt>
      <trkpt lat="50.66823" lon="1.63518">
        <ele>43.4</ele>
        <time>2020-06-22T08:35:47Z</time>
      </trkpt>
      <trkpt lat="50.6682" lon="1.63521">
        <ele>43.3</ele>
        <time>2020-06-22T08:35:48Z</time>
      </trkpt>
      <trkpt lat="50.66819" lon="1.63525">
        <ele>43.3</ele>
        <time>2020-06-22T08:35:49Z</time>
      </trkpt>
      <trkpt lat="50.66818" lon="1.63526">
        <ele>43.2</ele>
        <time>2020-06-22T08:35:50Z</time>
      </trkpt>
      <trkpt lat="50.66817" lon="1.63528">
        <ele>43.2</ele>
        <time>2020-06-22T08:35:51Z</time>
      </trkpt>
      <trkpt lat="50.66816" lon="1.63529">
        <ele>43.2</ele>
        <time>2020-06-22T08:35:52Z</time>
      </trkpt>
      <trkpt lat="50.66816" lon="1.6353">
        <ele>43.2</ele>
        <time>2020-06-22T08:35:53Z</time>
      </trkpt>
      <trkpt lat="50.66816" lon="1.6353">
        <ele>43.2</ele>
        <time>2020-06-22T08:35:54Z</time>
      </trkpt>
      <trkpt lat="50.66816" lon="1.6353">
        <ele>43.2</ele>
        <time>2020-06-22T08:35:55Z</time>
      </trkpt>
      <trkpt lat="50.66816" lon="1.6353">
        <ele>43.2</ele>
        <time>2020-06-22T08:35:56Z</time>
      </trkpt>
      <trkpt lat="50.66815" lon="1.63529">
        <ele>43.2</ele>
        <time>2020-06-22T08:35:57Z</time>
      </trkpt>
      <trkpt lat="50.66815" lon="1.63529">
        <ele>43.2</ele>
        <time>2020-06-22T08:35:58Z</time>
      </trkpt>
      <trkpt lat="50.66815" lon="1.63529">
        <ele>43.2</ele>
        <time>2020-06-22T08:35:59Z</time>
      </trkpt>
      <trkpt lat="50.66814" lon="1.63529">
        <ele>43.2</ele>
        <time>2020-06-22T08:36:00Z</time>
      </trkpt>
      <trkpt lat="50.66814" lon="1.63528">
        <ele>43.2</ele>
        <time>2020-06-22T08:36:01Z</time>
      </trkpt>
      <trkpt lat="50.66814" lon="1.63529">
        <ele>43.2</ele>
        <time>2020-06-22T08:36:02Z</time>
      </trkpt>
      <trkpt lat="50.66813" lon="1.63528">
        <ele>43.1</ele>
        <time>2020-06-22T08:36:03Z</time>
      </trkpt>
      <trkpt lat="50.66806" lon="1.63529">
        <ele>43.1</ele>
        <time>2020-06-22T08:38:17Z</time>
      </trkpt>
      <trkpt lat="50.66805" lon="1.6353">
        <ele>43.1</ele>
        <time>2020-06-22T08:38:18Z</time>
      </trkpt>
      <trkpt lat="50.66804" lon="1.63531">
        <ele>43.1</ele>
        <time>2020-06-22T08:38:19Z</time>
      </trkpt>
      <trkpt lat="50.66802" lon="1.63532">
        <ele>43</ele>
        <time>2020-06-22T08:38:20Z</time>
      </trkpt>
      <trkpt lat="50.66801" lon="1.63532">
        <ele>43</ele>
        <time>2020-06-22T08:38:21Z</time>
      </trkpt>
      <trkpt lat="50.668" lon="1.63531">
        <ele>43</ele>
        <time>2020-06-22T08:38:22Z</time>
      </trkpt>
      <trkpt lat="50.66799" lon="1.63531">
        <ele>43</ele>
        <time>2020-06-22T08:38:23Z</time>
      </trkpt>
      <trkpt lat="50.66798" lon="1.63531">
        <ele>43</ele>
        <time>2020-06-22T08:38:24Z</time>
      </trkpt>
      <trkpt lat="50.66797" lon="1.63532">
        <ele>43</ele>
        <time>2020-06-22T08:38:25Z</time>
      </trkpt>
      <trkpt lat="50.66796" lon="1.63532">
        <ele>43</ele>
        <time>2020-06-22T08:38:26Z</time>
      </trkpt>
      <trkpt lat="50.66795" lon="1.63533">
        <ele>43</ele>
        <time>2020-06-22T08:38:27Z</time>
      </trkpt>
      <trkpt lat="50.66793" lon="1.63534">
        <ele>43</ele>
        <time>2020-06-22T08:38:28Z</time>
      </trkpt>
      <trkpt lat="50.66791" lon="1.63534">
        <ele>43</ele>
        <time>2020-06-22T08:38:29Z</time>
      </trkpt>
      <trkpt lat="50.66791" lon="1.63535">
        <ele>43</ele>
        <time>2020-06-22T08:38:30Z</time>
      </trkpt>
      <trkpt lat="50.6679" lon="1.63535">
        <ele>43</ele>
        <time>2020-06-22T08:38:31Z</time>
      </trkpt>
      <trkpt lat="50.66788" lon="1.63535">
        <ele>43</ele>
        <time>2020-06-22T08:38:32Z</time>
      </trkpt>
      <trkpt lat="50.66787" lon="1.63535">
        <ele>43</ele>
        <time>2020-06-22T08:38:33Z</time>
      </trkpt>
      <trkpt lat="50.66786" lon="1.63535">
        <ele>43</ele>
        <time>2020-06-22T08:38:34Z</time>
      </trkpt>
      <trkpt lat="50.66785" lon="1.63534">
        <ele>43.1</ele>
        <time>2020-06-22T08:38:35Z</time>
      </trkpt>
      <trkpt lat="50.66784" lon="1.63533">
        <ele>43.1</ele>
        <time>2020-06-22T08:38:36Z</time>
      </trkpt>
      <trkpt lat="50.66784" lon="1.63532">
        <ele>43.1</ele>
        <time>2020-06-22T08:38:37Z</time>
      </trkpt>
      <trkpt lat="50.66784" lon="1.63531">
        <ele>43.1</ele>
        <time>2020-06-22T08:38:38Z</time>
      </trkpt>
      <trkpt lat="50.66784" lon="1.63531">
        <ele>43.1</ele>
        <time>2020-06-22T08:38:39Z</time>
      </trkpt>
      <trkpt lat="50.66783" lon="1.63529">
        <ele>43.1</ele>
        <time>2020-06-22T08:38:40Z</time>
      </trkpt>
      <trkpt lat="50.66783" lon="1.63529">
        <ele>43.1</ele>
        <time>2020-06-22T08:38:41Z</time>
      </trkpt>
      <trkpt lat="50.66783" lon="1.63529">
        <ele>43.1</ele>
        <time>2020-06-22T08:38:42Z</time>
      </trkpt>
      <trkpt lat="50.66783" lon="1.6353">
        <ele>43.1</ele>
        <time>2020-06-22T08:38:43Z</time>
      </trkpt>
      <trkpt lat="50.66783" lon="1.6353">
        <ele>43.1</ele>
        <time>2020-06-22T08:38:44Z</time>
      </trkpt>
      <trkpt lat="50.66783" lon="1.6353">
        <ele>43.1</ele>
        <time>2020-06-22T08:38:45Z</time>
      </trkpt>
      <trkpt lat="50.66783" lon="1.63529">
        <ele>43.1</ele>
        <time>2020-06-22T08:38:46Z</time>
      </trkpt>
      <trkpt lat="50.66784" lon="1.6353">
        <ele>43.1</ele>
        <time>2020-06-22T08:38:47Z</time>
      </trkpt>
      <trkpt lat="50.66778" lon="1.63528">
        <ele>43.4</ele>
        <time>2020-06-22T08:39:00Z</time>
      </trkpt>
      <trkpt lat="50.66778" lon="1.63528">
        <ele>43.4</ele>
        <time>2020-06-22T08:39:01Z</time>
      </trkpt>
      <trkpt lat="50.66777" lon="1.63529">
        <ele>43.4</ele>
        <time>2020-06-22T08:39:02Z</time>
      </trkpt>
      <trkpt lat="50.66777" lon="1.63529">
        <ele>43.5</ele>
        <time>2020-06-22T08:39:03Z</time>
      </trkpt>
      <trkpt lat="50.66777" lon="1.63529">
        <ele>43.5</ele>
        <time>2020-06-22T08:39:04Z</time>
      </trkpt>
      <trkpt lat="50.66777" lon="1.63529">
        <ele>43.4</ele>
        <time>2020-06-22T08:39:05Z</time>
      </trkpt>
      <trkpt lat="50.66777" lon="1.6353">
        <ele>43.4</ele>
        <time>2020-06-22T08:39:06Z</time>
      </trkpt>
      <trkpt lat="50.66777" lon="1.6353">
        <ele>43.4</ele>
        <time>2020-06-22T08:39:07Z</time>
      </trkpt>
      <trkpt lat="50.66777" lon="1.6353">
        <ele>43.4</ele>
        <time>2020-06-22T08:39:08Z</time>
      </trkpt>
      <trkpt lat="50.66777" lon="1.6353">
        <ele>43.4</ele>
        <time>2020-06-22T08:39:09Z</time>
      </trkpt>
      <trkpt lat="50.66777" lon="1.6353">
        <ele>43.4</ele>
        <time>2020-06-22T08:39:10Z</time>
      </trkpt>
      <trkpt lat="50.66777" lon="1.6353">
        <ele>43.4</ele>
        <time>2020-06-22T08:39:11Z</time>
      </trkpt>
      <trkpt lat="50.66777" lon="1.6353">
        <ele>43.5</ele>
        <time>2020-06-22T08:39:12Z</time>
      </trkpt>
      <trkpt lat="50.66776" lon="1.6353">
        <ele>43.5</ele>
        <time>2020-06-22T08:39:13Z</time>
      </trkpt>
      <trkpt lat="50.66776" lon="1.63529">
        <ele>43.5</ele>
        <time>2020-06-22T08:39:14Z</time>
      </trkpt>
      <trkpt lat="50.66775" lon="1.63528">
        <ele>43.5</ele>
        <time>2020-06-22T08:39:15Z</time>
      </trkpt>
      <trkpt lat="50.66775" lon="1.63528">
        <ele>43.5</ele>
        <time>2020-06-22T08:39:16Z</time>
      </trkpt>
      <trkpt lat="50.66775" lon="1.63527">
        <ele>43.5</ele>
        <time>2020-06-22T08:39:17Z</time>
      </trkpt>
      <trkpt lat="50.66775" lon="1.63527">
        <ele>43.5</ele>
        <time>2020-06-22T08:39:18Z</time>
      </trkpt>
      <trkpt lat="50.66775" lon="1.63527">
        <ele>43.5</ele>
        <time>2020-06-22T08:39:19Z</time>
      </trkpt>
      <trkpt lat="50.66776" lon="1.63527">
        <ele>43.5</ele>
        <time>2020-06-22T08:39:20Z</time>
      </trkpt>
      <trkpt lat="50.66776" lon="1.63528">
        <ele>43.5</ele>
        <time>2020-06-22T08:39:21Z</time>
      </trkpt>
      <trkpt lat="50.66777" lon="1.63529">
        <ele>43.5</ele>
        <time>2020-06-22T08:39:22Z</time>
      </trkpt>
      <trkpt lat="50.66777" lon="1.63531">
        <ele>43.4</ele>
        <time>2020-06-22T08:39:23Z</time>
      </trkpt>
      <trkpt lat="50.66778" lon="1.63532">
        <ele>43.4</ele>
        <time>2020-06-22T08:39:24Z</time>
      </trkpt>
      <trkpt lat="50.66777" lon="1.63534">
        <ele>43.4</ele>
        <time>2020-06-22T08:39:25Z</time>
      </trkpt>
      <trkpt lat="50.66777" lon="1.63535">
        <ele>43.4</ele>
        <time>2020-06-22T08:39:26Z</time>
      </trkpt>
      <trkpt lat="50.66777" lon="1.63535">
        <ele>43.5</ele>
        <time>2020-06-22T08:39:27Z</time>
      </trkpt>
      <trkpt lat="50.66776" lon="1.63536">
        <ele>43.5</ele>
        <time>2020-06-22T08:39:28Z</time>
      </trkpt>
      <trkpt lat="50.66777" lon="1.63534">
        <ele>43.5</ele>
        <time>2020-06-22T08:39:29Z</time>
      </trkpt>
      <trkpt lat="50.66777" lon="1.63534">
        <ele>43.5</ele>
        <time>2020-06-22T08:39:30Z</time>
      </trkpt>
      <trkpt lat="50.66777" lon="1.63534">
        <ele>43.5</ele>
        <time>2020-06-22T08:39:31Z</time>
      </trkpt>
      <trkpt lat="50.66776" lon="1.63534">
        <ele>43.5</ele>
        <time>2020-06-22T08:39:32Z</time>
      </trkpt>
      <trkpt lat="50.66776" lon="1.63534">
        <ele>43.5</ele>
        <time>2020-06-22T08:39:33Z</time>
      </trkpt>
      <trkpt lat="50.66776" lon="1.63534">
        <ele>43.5</ele>
        <time>2020-06-22T08:39:34Z</time>
      </trkpt>
      <trkpt lat="50.66775" lon="1.63535">
        <ele>43.5</ele>
        <time>2020-06-22T08:39:35Z</time>
      </trkpt>
      <trkpt lat="50.66775" lon="1.63535">
        <ele>43.5</ele>
        <time>2020-06-22T08:39:36Z</time>
      </trkpt>
      <trkpt lat="50.66781" lon="1.6354">
        <ele>43.3</ele>
        <time>2020-06-22T10:12:01Z</time>
      </trkpt>
      <trkpt lat="50.66782" lon="1.63541">
        <ele>43.3</ele>
        <time>2020-06-22T10:12:02Z</time>
      </trkpt>
      <trkpt lat="50.66783" lon="1.63542">
        <ele>43.2</ele>
        <time>2020-06-22T10:12:03Z</time>
      </trkpt>
      <trkpt lat="50.66785" lon="1.63544">
        <ele>43.2</ele>
        <time>2020-06-22T10:12:04Z</time>
      </trkpt>
      <trkpt lat="50.66786" lon="1.63546">
        <ele>43.2</ele>
        <time>2020-06-22T10:12:05Z</time>
      </trkpt>
      <trkpt lat="50.66786" lon="1.63547">
        <ele>43.2</ele>
        <time>2020-06-22T10:12:06Z</time>
      </trkpt>
      <trkpt lat="50.66786" lon="1.63547">
        <ele>43.2</ele>
        <time>2020-06-22T10:12:07Z</time>
      </trkpt>
      <trkpt lat="50.66787" lon="1.63548">
        <ele>43.2</ele>
        <time>2020-06-22T10:12:08Z</time>
      </trkpt>
      <trkpt lat="50.66787" lon="1.63548">
        <ele>43.2</ele>
        <time>2020-06-22T10:12:09Z</time>
      </trkpt>
      <trkpt lat="50.66787" lon="1.6355">
        <ele>43.2</ele>
        <time>2020-06-22T10:12:10Z</time>
      </trkpt>
      <trkpt lat="50.66787" lon="1.63552">
        <ele>43.2</ele>
        <time>2020-06-22T10:12:11Z</time>
      </trkpt>
      <trkpt lat="50.66786" lon="1.63553">
        <ele>43.2</ele>
        <time>2020-06-22T10:12:12Z</time>
      </trkpt>
      <trkpt lat="50.66786" lon="1.63553">
        <ele>43.2</ele>
        <time>2020-06-22T10:12:13Z</time>
      </trkpt>
      <trkpt lat="50.66786" lon="1.63554">
        <ele>43.2</ele>
        <time>2020-06-22T10:12:14Z</time>
      </trkpt>
      <trkpt lat="50.66786" lon="1.63554">
        <ele>43.2</ele>
        <time>2020-06-22T10:12:15Z</time>
      </trkpt>
      <trkpt lat="50.66786" lon="1.63554">
        <ele>43.2</ele>
        <time>2020-06-22T10:12:16Z</time>
      </trkpt>
      <trkpt lat="50.66784" lon="1.63556">
        <ele>43.4</ele>
        <time>2020-06-22T10:12:17Z</time>
      </trkpt>
      <trkpt lat="50.66784" lon="1.63556">
        <ele>43.4</ele>
        <time>2020-06-22T10:12:18Z</time>
      </trkpt>
      <trkpt lat="50.66784" lon="1.63556">
        <ele>43.4</ele>
        <time>2020-06-22T10:12:19Z</time>
      </trkpt>
      <trkpt lat="50.66783" lon="1.63556">
        <ele>43.4</ele>
        <time>2020-06-22T10:12:20Z</time>
      </trkpt>
      <trkpt lat="50.66783" lon="1.63558">
        <ele>43.4</ele>
        <time>2020-06-22T10:12:21Z</time>
      </trkpt>
      <trkpt lat="50.66783" lon="1.63559">
        <ele>43.5</ele>
        <time>2020-06-22T10:12:22Z</time>
      </trkpt>
      <trkpt lat="50.66783" lon="1.6356">
        <ele>43.5</ele>
        <time>2020-06-22T10:12:23Z</time>
      </trkpt>
      <trkpt lat="50.66784" lon="1.6356">
        <ele>43.5</ele>
        <time>2020-06-22T10:12:24Z</time>
      </trkpt>
      <trkpt lat="50.66784" lon="1.63561">
        <ele>43.5</ele>
        <time>2020-06-22T10:12:25Z</time>
      </trkpt>
      <trkpt lat="50.66784" lon="1.63561">
        <ele>43.5</ele>
        <time>2020-06-22T10:12:26Z</time>
      </trkpt>
      <trkpt lat="50.66784" lon="1.63561">
        <ele>43.5</ele>
        <time>2020-06-22T10:12:27Z</time>
      </trkpt>
      <trkpt lat="50.66784" lon="1.63561">
        <ele>43.5</ele>
        <time>2020-06-22T10:12:28Z</time>
      </trkpt>
      <trkpt lat="50.66784" lon="1.63561">
        <ele>43.5</ele>
        <time>2020-06-22T10:12:29Z</time>
      </trkpt>
      <trkpt lat="50.66785" lon="1.63561">
        <ele>43.5</ele>
        <time>2020-06-22T10:12:30Z</time>
      </trkpt>
      <trkpt lat="50.66785" lon="1.63562">
        <ele>43.5</ele>
        <time>2020-06-22T10:12:31Z</time>
      </trkpt>
      <trkpt lat="50.66785" lon="1.63563">
        <ele>43.4</ele>
        <time>2020-06-22T10:12:32Z</time>
      </trkpt>
      <trkpt lat="50.66785" lon="1.63563">
        <ele>43.4</ele>
        <time>2020-06-22T10:12:33Z</time>
      </trkpt>
      <trkpt lat="50.66786" lon="1.63563">
        <ele>43.4</ele>
        <time>2020-06-22T10:12:34Z</time>
      </trkpt>
      <trkpt lat="50.66786" lon="1.63564">
        <ele>43.5</ele>
        <time>2020-06-22T10:12:35Z</time>
      </trkpt>
      <trkpt lat="50.66787" lon="1.63563">
        <ele>43.4</ele>
        <time>2020-06-22T10:12:36Z</time>
      </trkpt>
      <trkpt lat="50.66787" lon="1.63562">
        <ele>43.4</ele>
        <time>2020-06-22T10:12:37Z</time>
      </trkpt>
      <trkpt lat="50.66788" lon="1.63562">
        <ele>43.4</ele>
        <time>2020-06-22T10:12:38Z</time>
      </trkpt>
      <trkpt lat="50.66788" lon="1.63562">
        <ele>43.3</ele>
        <time>2020-06-22T10:12:39Z</time>
      </trkpt>
      <trkpt lat="50.66788" lon="1.63563">
        <ele>43.3</ele>
        <time>2020-06-22T10:12:40Z</time>
      </trkpt>
      <trkpt lat="50.66789" lon="1.63563">
        <ele>43.4</ele>
        <time>2020-06-22T10:12:41Z</time>
      </trkpt>
      <trkpt lat="50.66789" lon="1.63564">
        <ele>43.4</ele>
        <time>2020-06-22T10:12:42Z</time>
      </trkpt>
      <trkpt lat="50.66789" lon="1.63564">
        <ele>43.4</ele>
        <time>2020-06-22T10:12:43Z</time>
      </trkpt>
      <trkpt lat="50.66789" lon="1.63564">
        <ele>43.4</ele>
        <time>2020-06-22T10:12:44Z</time>
      </trkpt>
      <trkpt lat="50.66789" lon="1.63565">
        <ele>43.4</ele>
        <time>2020-06-22T10:12:45Z</time>
      </trkpt>
      <trkpt lat="50.66789" lon="1.63564">
        <ele>43.4</ele>
        <time>2020-06-22T10:12:46Z</time>
      </trkpt>
      <trkpt lat="50.66789" lon="1.63564">
        <ele>43.4</ele>
        <time>2020-06-22T10:12:47Z</time>
      </trkpt>
      <trkpt lat="50.66789" lon="1.63565">
        <ele>43.4</ele>
        <time>2020-06-22T10:12:48Z</time>
      </trkpt>
      <trkpt lat="50.66789" lon="1.63565">
        <ele>43.4</ele>
        <time>2020-06-22T10:12:49Z</time>
      </trkpt>
      <trkpt lat="50.66789" lon="1.63565">
        <ele>43.4</ele>
        <time>2020-06-22T10:12:50Z</time>
      </trkpt>
      <trkpt lat="50.6679" lon="1.63564">
        <ele>43.4</ele>
        <time>2020-06-22T10:12:51Z</time>
      </trkpt>
      <trkpt lat="50.6679" lon="1.63562">
        <ele>43.3</ele>
        <time>2020-06-22T10:12:52Z</time>
      </trkpt>
      <trkpt lat="50.66791" lon="1.63562">
        <ele>43.2</ele>
        <time>2020-06-22T10:12:53Z</time>
      </trkpt>
      <trkpt lat="50.66791" lon="1.63564">
        <ele>43.3</ele>
        <time>2020-06-22T10:12:54Z</time>
      </trkpt>
      <trkpt lat="50.66792" lon="1.63564">
        <ele>43.3</ele>
        <time>2020-06-22T10:12:55Z</time>
      </trkpt>
      <trkpt lat="50.66791" lon="1.63566">
        <ele>43.3</ele>
        <time>2020-06-22T10:12:56Z</time>
      </trkpt>
      <trkpt lat="50.66793" lon="1.63565">
        <ele>43.3</ele>
        <time>2020-06-22T10:12:57Z</time>
      </trkpt>
      <trkpt lat="50.66796" lon="1.63565">
        <ele>43.1</ele>
        <time>2020-06-22T10:12:58Z</time>
      </trkpt>
      <trkpt lat="50.66797" lon="1.63564">
        <ele>43.1</ele>
        <time>2020-06-22T10:12:59Z</time>
      </trkpt>
      <trkpt lat="50.66799" lon="1.63563">
        <ele>43.1</ele>
        <time>2020-06-22T10:13:00Z</time>
      </trkpt>
      <trkpt lat="50.668" lon="1.63562">
        <ele>43</ele>
        <time>2020-06-22T10:13:01Z</time>
      </trkpt>
      <trkpt lat="50.66801" lon="1.63561">
        <ele>43</ele>
        <time>2020-06-22T10:13:02Z</time>
      </trkpt>
      <trkpt lat="50.66802" lon="1.63561">
        <ele>43</ele>
        <time>2020-06-22T10:13:03Z</time>
      </trkpt>
      <trkpt lat="50.66803" lon="1.6356">
        <ele>43</ele>
        <time>2020-06-22T10:13:04Z</time>
      </trkpt>
      <trkpt lat="50.66804" lon="1.63559">
        <ele>43</ele>
        <time>2020-06-22T10:13:05Z</time>
      </trkpt>
      <trkpt lat="50.66805" lon="1.63559">
        <ele>42.9</ele>
        <time>2020-06-22T10:13:06Z</time>
      </trkpt>
      <trkpt lat="50.66806" lon="1.63558">
        <ele>42.9</ele>
        <time>2020-06-22T10:13:07Z</time>
      </trkpt>
      <trkpt lat="50.66808" lon="1.63558">
        <ele>42.9</ele>
        <time>2020-06-22T10:13:08Z</time>
      </trkpt>
      <trkpt lat="50.6681" lon="1.63558">
        <ele>42.9</ele>
        <time>2020-06-22T10:13:09Z</time>
      </trkpt>
      <trkpt lat="50.66812" lon="1.63557">
        <ele>42.9</ele>
        <time>2020-06-22T10:13:10Z</time>
      </trkpt>
      <trkpt lat="50.66814" lon="1.63556">
        <ele>42.8</ele>
        <time>2020-06-22T10:13:11Z</time>
      </trkpt>
      <trkpt lat="50.66815" lon="1.63554">
        <ele>42.8</ele>
        <time>2020-06-22T10:13:12Z</time>
      </trkpt>
      <trkpt lat="50.66817" lon="1.63553">
        <ele>42.8</ele>
        <time>2020-06-22T10:13:13Z</time>
      </trkpt>
      <trkpt lat="50.66819" lon="1.63552">
        <ele>42.8</ele>
        <time>2020-06-22T10:13:14Z</time>
      </trkpt>
      <trkpt lat="50.66821" lon="1.63551">
        <ele>42.8</ele>
        <time>2020-06-22T10:13:15Z</time>
      </trkpt>
      <trkpt lat="50.66821" lon="1.63551">
        <ele>42.8</ele>
        <time>2020-06-22T10:13:16Z</time>
      </trkpt>
      <trkpt lat="50.66769" lon="1.63568">
        <ele>44.3</ele>
        <time>2020-06-22T10:27:50Z</time>
      </trkpt>
      <trkpt lat="50.66767" lon="1.63569">
        <ele>44.3</ele>
        <time>2020-06-22T10:27:51Z</time>
      </trkpt>
      <trkpt lat="50.66767" lon="1.63569">
        <ele>44.3</ele>
        <time>2020-06-22T10:27:52Z</time>
      </trkpt>
      <trkpt lat="50.66767" lon="1.63569">
        <ele>44.3</ele>
        <time>2020-06-22T10:27:53Z</time>
      </trkpt>
      <trkpt lat="50.66767" lon="1.63569">
        <ele>44.3</ele>
        <time>2020-06-22T10:27:54Z</time>
      </trkpt>
      <trkpt lat="50.66767" lon="1.63569">
        <ele>44.3</ele>
        <time>2020-06-22T10:27:55Z</time>
      </trkpt>
      <trkpt lat="50.66765" lon="1.6357">
        <ele>44.4</ele>
        <time>2020-06-22T10:27:56Z</time>
      </trkpt>
      <trkpt lat="50.66767" lon="1.63569">
        <ele>44.3</ele>
        <time>2020-06-22T10:27:57Z</time>
      </trkpt>
      <trkpt lat="50.66768" lon="1.63569">
        <ele>44.3</ele>
        <time>2020-06-22T10:27:58Z</time>
      </trkpt>
      <trkpt lat="50.66768" lon="1.63569">
        <ele>44.3</ele>
        <time>2020-06-22T10:27:59Z</time>
      </trkpt>
      <trkpt lat="50.66768" lon="1.6357">
        <ele>44.3</ele>
        <time>2020-06-22T10:28:00Z</time>
      </trkpt>
      <trkpt lat="50.66769" lon="1.63569">
        <ele>44.2</ele>
        <time>2020-06-22T10:28:01Z</time>
      </trkpt>
      <trkpt lat="50.6677" lon="1.63568">
        <ele>44.2</ele>
        <time>2020-06-22T10:28:02Z</time>
      </trkpt>
      <trkpt lat="50.66771" lon="1.63566">
        <ele>44.1</ele>
        <time>2020-06-22T10:28:03Z</time>
      </trkpt>
      <trkpt lat="50.6677" lon="1.63566">
        <ele>44.1</ele>
        <time>2020-06-22T10:28:04Z</time>
      </trkpt>
      <trkpt lat="50.66771" lon="1.63565">
        <ele>44.1</ele>
        <time>2020-06-22T10:28:05Z</time>
      </trkpt>
      <trkpt lat="50.66772" lon="1.63563">
        <ele>43.9</ele>
        <time>2020-06-22T10:28:06Z</time>
      </trkpt>
      <trkpt lat="50.66774" lon="1.63561">
        <ele>43.9</ele>
        <time>2020-06-22T10:28:07Z</time>
      </trkpt>
      <trkpt lat="50.66775" lon="1.6356">
        <ele>43.8</ele>
        <time>2020-06-22T10:28:13Z</time>
      </trkpt>
      <trkpt lat="50.66777" lon="1.63558">
        <ele>43.7</ele>
        <time>2020-06-22T10:28:14Z</time>
      </trkpt>
      <trkpt lat="50.66778" lon="1.63556">
        <ele>43.6</ele>
        <time>2020-06-22T10:28:15Z</time>
      </trkpt>
      <trkpt lat="50.66779" lon="1.63554">
        <ele>43.5</ele>
        <time>2020-06-22T10:28:16Z</time>
      </trkpt>
      <trkpt lat="50.6678" lon="1.63552">
        <ele>43.5</ele>
        <time>2020-06-22T10:28:17Z</time>
      </trkpt>
      <trkpt lat="50.66781" lon="1.63551">
        <ele>43.4</ele>
        <time>2020-06-22T10:28:18Z</time>
      </trkpt>
      <trkpt lat="50.66782" lon="1.6355">
        <ele>43.4</ele>
        <time>2020-06-22T10:28:19Z</time>
      </trkpt>
      <trkpt lat="50.66783" lon="1.63547">
        <ele>43.3</ele>
        <time>2020-06-22T10:28:20Z</time>
      </trkpt>
      <trkpt lat="50.66784" lon="1.63545">
        <ele>43.2</ele>
        <time>2020-06-22T10:28:21Z</time>
      </trkpt>
      <trkpt lat="50.66786" lon="1.63544">
        <ele>43.1</ele>
        <time>2020-06-22T10:28:22Z</time>
      </trkpt>
      <trkpt lat="50.66788" lon="1.63542">
        <ele>43</ele>
        <time>2020-06-22T10:28:23Z</time>
      </trkpt>
      <trkpt lat="50.66789" lon="1.63542">
        <ele>43</ele>
        <time>2020-06-22T10:28:24Z</time>
      </trkpt>
      <trkpt lat="50.66792" lon="1.63539">
        <ele>42.9</ele>
        <time>2020-06-22T10:28:25Z</time>
      </trkpt>
      <trkpt lat="50.66794" lon="1.63536">
        <ele>42.8</ele>
        <time>2020-06-22T10:28:26Z</time>
      </trkpt>
      <trkpt lat="50.66797" lon="1.63532">
        <ele>42.7</ele>
        <time>2020-06-22T10:28:27Z</time>
      </trkpt>
      <trkpt lat="50.668" lon="1.63529">
        <ele>42.7</ele>
        <time>2020-06-22T10:28:28Z</time>
      </trkpt>
      <trkpt lat="50.66803" lon="1.63525">
        <ele>42.6</ele>
        <time>2020-06-22T10:28:29Z</time>
      </trkpt>
      <trkpt lat="50.66804" lon="1.63523">
        <ele>42.5</ele>
        <time>2020-06-22T10:28:30Z</time>
      </trkpt>
      <trkpt lat="50.66806" lon="1.6352">
        <ele>42.5</ele>
        <time>2020-06-22T10:28:31Z</time>
      </trkpt>
      <trkpt lat="50.66806" lon="1.63519">
        <ele>42.5</ele>
        <time>2020-06-22T10:28:32Z</time>
      </trkpt>
      <trkpt lat="50.66809" lon="1.63515">
        <ele>42.4</ele>
        <time>2020-06-22T10:28:33Z</time>
      </trkpt>
      <trkpt lat="50.6681" lon="1.63513">
        <ele>42.4</ele>
        <time>2020-06-22T10:28:34Z</time>
      </trkpt>
      <trkpt lat="50.66811" lon="1.63511">
        <ele>42.4</ele>
        <time>2020-06-22T10:28:35Z</time>
      </trkpt>
      <trkpt lat="50.66813" lon="1.63508">
        <ele>42.4</ele>
        <time>2020-06-22T10:28:36Z</time>
      </trkpt>
      <trkpt lat="50.66816" lon="1.63508">
        <ele>42.4</ele>
        <time>2020-06-22T10:28:37Z</time>
      </trkpt>
      <trkpt lat="50.66817" lon="1.63507">
        <ele>42.4</ele>
        <time>2020-06-22T10:28:38Z</time>
      </trkpt>
      <trkpt lat="50.6682" lon="1.63503">
        <ele>42.4</ele>
        <time>2020-06-22T10:28:39Z</time>
      </trkpt>
      <trkpt lat="50.6682" lon="1.63501">
        <ele>42.4</ele>
        <time>2020-06-22T10:28:40Z</time>
      </trkpt>
      <trkpt lat="50.66822" lon="1.63497">
        <ele>42.4</ele>
        <time>2020-06-22T10:28:41Z</time>
      </trkpt>
      <trkpt lat="50.66822" lon="1.63496">
        <ele>42.4</ele>
        <time>2020-06-22T10:28:42Z</time>
      </trkpt>
      <trkpt lat="50.66823" lon="1.63496">
        <ele>42.4</ele>
        <time>2020-06-22T10:28:43Z</time>
      </trkpt>
      <trkpt lat="50.66823" lon="1.63495">
        <ele>42.4</ele>
        <time>2020-06-22T10:28:44Z</time>
      </trkpt>
      <trkpt lat="50.66824" lon="1.63495">
        <ele>42.4</ele>
        <time>2020-06-22T10:28:45Z</time>
      </trkpt>
      <trkpt lat="50.66824" lon="1.63494">
        <ele>42.5</ele>
        <time>2020-06-22T10:28:46Z</time>
      </trkpt>
      <trkpt lat="50.66825" lon="1.63493">
        <ele>42.5</ele>
        <time>2020-06-22T10:28:47Z</time>
      </trkpt>
      <trkpt lat="50.66824" lon="1.63496">
        <ele>42.4</ele>
        <time>2020-06-22T10:28:48Z</time>
      </trkpt>
      <trkpt lat="50.66822" lon="1.63499">
        <ele>42.4</ele>
        <time>2020-06-22T10:28:49Z</time>
      </trkpt>
      <trkpt lat="50.6682" lon="1.63501">
        <ele>42.4</ele>
        <time>2020-06-22T10:28:50Z</time>
      </trkpt>
      <trkpt lat="50.66818" lon="1.63503">
        <ele>42.4</ele>
        <time>2020-06-22T10:28:51Z</time>
      </trkpt>
      <trkpt lat="50.66817" lon="1.63505">
        <ele>42.4</ele>
        <time>2020-06-22T10:28:52Z</time>
      </trkpt>
      <trkpt lat="50.66815" lon="1.63507">
        <ele>42.4</ele>
        <time>2020-06-22T10:28:53Z</time>
      </trkpt>
      <trkpt lat="50.66813" lon="1.63509">
        <ele>42.4</ele>
        <time>2020-06-22T10:28:54Z</time>
      </trkpt>
      <trkpt lat="50.66811" lon="1.63511">
        <ele>42.4</ele>
        <time>2020-06-22T10:28:55Z</time>
      </trkpt>
      <trkpt lat="50.66809" lon="1.63513">
        <ele>42.4</ele>
        <time>2020-06-22T10:28:56Z</time>
      </trkpt>
      <trkpt lat="50.66807" lon="1.63515">
        <ele>42.4</ele>
        <time>2020-06-22T10:28:57Z</time>
      </trkpt>
      <trkpt lat="50.66805" lon="1.63518">
        <ele>42.5</ele>
        <time>2020-06-22T10:28:58Z</time>
      </trkpt>
      <trkpt lat="50.66804" lon="1.6352">
        <ele>42.5</ele>
        <time>2020-06-22T10:28:59Z</time>
      </trkpt>
      <trkpt lat="50.66802" lon="1.63522">
        <ele>42.5</ele>
        <time>2020-06-22T10:29:00Z</time>
      </trkpt>
      <trkpt lat="50.668" lon="1.63524">
        <ele>42.6</ele>
        <time>2020-06-22T11:03:15Z</time>
      </trkpt>
      <trkpt lat="50.66798" lon="1.63526">
        <ele>42.7</ele>
        <time>2020-06-22T11:03:16Z</time>
      </trkpt>
      <trkpt lat="50.66796" lon="1.63528">
        <ele>42.7</ele>
        <time>2020-06-22T11:03:17Z</time>
      </trkpt>
      <trkpt lat="50.66794" lon="1.63532">
        <ele>42.8</ele>
        <time>2020-06-22T11:03:18Z</time>
      </trkpt>
      <trkpt lat="50.66793" lon="1.63534">
        <ele>42.9</ele>
        <time>2020-06-22T11:03:19Z</time>
      </trkpt>
      <trkpt lat="50.66791" lon="1.63536">
        <ele>42.9</ele>
        <time>2020-06-22T11:03:20Z</time>
      </trkpt>
      <trkpt lat="50.6679" lon="1.63537">
        <ele>43</ele>
        <time>2020-06-22T11:03:21Z</time>
      </trkpt>
      <trkpt lat="50.66791" lon="1.63541">
        <ele>42.9</ele>
        <time>2020-06-22T11:03:22Z</time>
      </trkpt>
      <trkpt lat="50.66793" lon="1.63544">
        <ele>43</ele>
        <time>2020-06-22T11:03:23Z</time>
      </trkpt>
      <trkpt lat="50.66795" lon="1.63547">
        <ele>43</ele>
        <time>2020-06-22T11:03:24Z</time>
      </trkpt>
      <trkpt lat="50.66797" lon="1.63551">
        <ele>43</ele>
        <time>2020-06-22T11:03:25Z</time>
      </trkpt>
      <trkpt lat="50.66799" lon="1.63554">
        <ele>43</ele>
        <time>2020-06-22T11:03:26Z</time>
      </trkpt>
      <trkpt lat="50.66801" lon="1.63557">
        <ele>43</ele>
        <time>2020-06-22T11:03:27Z</time>
      </trkpt>
      <trkpt lat="50.66802" lon="1.6356">
        <ele>43</ele>
        <time>2020-06-22T11:03:28Z</time>
      </trkpt>
      <trkpt lat="50.66804" lon="1.63564">
        <ele>43</ele>
        <time>2020-06-22T11:03:29Z</time>
      </trkpt>
      <trkpt lat="50.66806" lon="1.63567">
        <ele>43</ele>
        <time>2020-06-22T11:03:30Z</time>
      </trkpt>
      <trkpt lat="50.66808" lon="1.6357">
        <ele>43</ele>
        <time>2020-06-22T11:03:31Z</time>
      </trkpt>
      <trkpt lat="50.6681" lon="1.63574">
        <ele>42.9</ele>
        <time>2020-06-22T11:03:32Z</time>
      </trkpt>
      <trkpt lat="50.66812" lon="1.63577">
        <ele>43</ele>
        <time>2020-06-22T12:26:29Z</time>
      </trkpt>
      <trkpt lat="50.66814" lon="1.6358">
        <ele>42.9</ele>
        <time>2020-06-22T12:26:30Z</time>
      </trkpt>
      <trkpt lat="50.66809" lon="1.63582">
        <ele>43.1</ele>
        <time>2020-06-22T12:26:31Z</time>
      </trkpt>
      <trkpt lat="50.66807" lon="1.63582">
        <ele>43.1</ele>
        <time>2020-06-22T12:26:32Z</time>
      </trkpt>
      <trkpt lat="50.66802" lon="1.63584">
        <ele>43.2</ele>
        <time>2020-06-22T12:26:33Z</time>
      </trkpt>
      <trkpt lat="50.66798" lon="1.63587">
        <ele>43.5</ele>
        <time>2020-06-22T12:26:34Z</time>
      </trkpt>
      <trkpt lat="50.66795" lon="1.6359">
        <ele>43.8</ele>
        <time>2020-06-22T12:26:35Z</time>
      </trkpt>
      <trkpt lat="50.66793" lon="1.63593">
        <ele>43.9</ele>
        <time>2020-06-22T12:26:36Z</time>
      </trkpt>
      <trkpt lat="50.66792" lon="1.63594">
        <ele>44.1</ele>
        <time>2020-06-22T12:26:37Z</time>
      </trkpt>
      <trkpt lat="50.66791" lon="1.63595">
        <ele>44.1</ele>
        <time>2020-06-22T12:26:38Z</time>
      </trkpt>
      <trkpt lat="50.66789" lon="1.63596">
        <ele>44.2</ele>
        <time>2020-06-22T12:26:39Z</time>
      </trkpt>
      <trkpt lat="50.66785" lon="1.63592">
        <ele>44.2</ele>
        <time>2020-06-22T12:26:40Z</time>
      </trkpt>
      <trkpt lat="50.66784" lon="1.63588">
        <ele>44.2</ele>
        <time>2020-06-22T12:26:41Z</time>
      </trkpt>
      <trkpt lat="50.66782" lon="1.63587">
        <ele>44.3</ele>
        <time>2020-06-22T12:26:42Z</time>
      </trkpt>
      <trkpt lat="50.66782" lon="1.63587">
        <ele>44.3</ele>
        <time>2020-06-22T12:26:43Z</time>
      </trkpt>
      <trkpt lat="50.66782" lon="1.63588">
        <ele>44.3</ele>
        <time>2020-06-22T12:26:44Z</time>
      </trkpt>
      <trkpt lat="50.66781" lon="1.63587">
        <ele>44.3</ele>
        <time>2020-06-22T12:26:45Z</time>
      </trkpt>
      <trkpt lat="50.66781" lon="1.63585">
        <ele>44.3</ele>
        <time>2020-06-22T12:26:46Z</time>
      </trkpt>
      <trkpt lat="50.66781" lon="1.63584">
        <ele>44.2</ele>
        <time>2020-06-22T12:26:47Z</time>
      </trkpt>
      <trkpt lat="50.66781" lon="1.63584">
        <ele>44.2</ele>
        <time>2020-06-22T12:26:48Z</time>
      </trkpt>
      <trkpt lat="50.66781" lon="1.63583">
        <ele>44.2</ele>
        <time>2020-06-22T12:26:49Z</time>
      </trkpt>
      <trkpt lat="50.66781" lon="1.63582">
        <ele>44.2</ele>
        <time>2020-06-22T12:26:50Z</time>
      </trkpt>
      <trkpt lat="50.6678" lon="1.63582">
        <ele>44.2</ele>
        <time>2020-06-22T12:26:51Z</time>
      </trkpt>
      <trkpt lat="50.6678" lon="1.63581">
        <ele>44.2</ele>
        <time>2020-06-22T12:26:52Z</time>
      </trkpt>
      <trkpt lat="50.6678" lon="1.63581">
        <ele>44.2</ele>
        <time>2020-06-22T12:26:53Z</time>
      </trkpt>
      <trkpt lat="50.6678" lon="1.63579">
        <ele>44.1</ele>
        <time>2020-06-22T12:26:54Z</time>
      </trkpt>
      <trkpt lat="50.66779" lon="1.63578">
        <ele>44.1</ele>
        <time>2020-06-22T12:26:55Z</time>
      </trkpt>
      <trkpt lat="50.66779" lon="1.63577">
        <ele>44.1</ele>
        <time>2020-06-22T12:26:56Z</time>
      </trkpt>
      <trkpt lat="50.66779" lon="1.63577">
        <ele>44.1</ele>
        <time>2020-06-22T12:26:57Z</time>
      </trkpt>
      <trkpt lat="50.66779" lon="1.63577">
        <ele>44.1</ele>
        <time>2020-06-22T12:26:58Z</time>
      </trkpt>
      <trkpt lat="50.66778" lon="1.63576">
        <ele>44</ele>
        <time>2020-06-22T12:26:59Z</time>
      </trkpt>
      <trkpt lat="50.66778" lon="1.63575">
        <ele>44</ele>
        <time>2020-06-22T12:27:00Z</time>
      </trkpt>
      <trkpt lat="50.66777" lon="1.63575">
        <ele>44.1</ele>
        <time>2020-06-22T12:27:01Z</time>
      </trkpt>
      <trkpt lat="50.66776" lon="1.63575">
        <ele>44.1</ele>
        <time>2020-06-22T12:27:02Z</time>
      </trkpt>
      <trkpt lat="50.66775" lon="1.63575">
        <ele>44.1</ele>
        <time>2020-06-22T12:27:03Z</time>
      </trkpt>
      <trkpt lat="50.66775" lon="1.63575">
        <ele>44.1</ele>
        <time>2020-06-22T12:27:04Z</time>
      </trkpt>
      <trkpt lat="50.66775" lon="1.63575">
        <ele>44.1</ele>
        <time>2020-06-22T12:27:05Z</time>
      </trkpt>
      <trkpt lat="50.66775" lon="1.63575">
        <ele>44.1</ele>
        <time>2020-06-22T12:27:06Z</time>
      </trkpt>
      <trkpt lat="50.66775" lon="1.63575">
        <ele>44.1</ele>
        <time>2020-06-22T12:27:07Z</time>
      </trkpt>
      <trkpt lat="50.66776" lon="1.63575">
        <ele>44.1</ele>
        <time>2020-06-22T12:27:08Z</time>
      </trkpt>
      <trkpt lat="50.66776" lon="1.63573">
        <ele>44.1</ele>
        <time>2020-06-22T12:27:09Z</time>
      </trkpt>
      <trkpt lat="50.66777" lon="1.63573">
        <ele>44.1</ele>
        <time>2020-06-22T12:27:10Z</time>
      </trkpt>
      <trkpt lat="50.66778" lon="1.63572">
        <ele>44</ele>
        <time>2020-06-22T12:27:11Z</time>
      </trkpt>
      <trkpt lat="50.6678" lon="1.63573">
        <ele>44</ele>
        <time>2020-06-22T12:27:12Z</time>
      </trkpt>
      <trkpt lat="50.66781" lon="1.63572">
        <ele>43.9</ele>
        <time>2020-06-22T12:27:13Z</time>
      </trkpt>
      <trkpt lat="50.66781" lon="1.63572">
        <ele>43.9</ele>
        <time>2020-06-22T12:27:14Z</time>
      </trkpt>
      <trkpt lat="50.66781" lon="1.63572">
        <ele>43.9</ele>
        <time>2020-06-22T12:27:15Z</time>
      </trkpt>
      <trkpt lat="50.66781" lon="1.63572">
        <ele>43.9</ele>
        <time>2020-06-22T12:27:16Z</time>
      </trkpt>
      <trkpt lat="50.66781" lon="1.63572">
        <ele>43.9</ele>
        <time>2020-06-22T12:27:17Z</time>
      </trkpt>
      <trkpt lat="50.66781" lon="1.63572">
        <ele>43.9</ele>
        <time>2020-06-22T12:27:18Z</time>
      </trkpt>
      <trkpt lat="50.66781" lon="1.63572">
        <ele>43.9</ele>
        <time>2020-06-22T12:27:19Z</time>
      </trkpt>
      <trkpt lat="50.66782" lon="1.63572">
        <ele>43.8</ele>
        <time>2020-06-22T12:27:20Z</time>
      </trkpt>
      <trkpt lat="50.66782" lon="1.63571">
        <ele>43.8</ele>
        <time>2020-06-22T12:27:21Z</time>
      </trkpt>
      <trkpt lat="50.66782" lon="1.63571">
        <ele>43.8</ele>
        <time>2020-06-22T12:27:22Z</time>
      </trkpt>
      <trkpt lat="50.66782" lon="1.6357">
        <ele>43.8</ele>
        <time>2020-06-22T12:27:23Z</time>
      </trkpt>
      <trkpt lat="50.66782" lon="1.6357">
        <ele>43.8</ele>
        <time>2020-06-22T12:27:24Z</time>
      </trkpt>
      <trkpt lat="50.6678" lon="1.63567">
        <ele>43.7</ele>
        <time>2020-06-22T12:27:27Z</time>
      </trkpt>
      <trkpt lat="50.66779" lon="1.63566">
        <ele>43.8</ele>
        <time>2020-06-22T12:27:28Z</time>
      </trkpt>
      <trkpt lat="50.66779" lon="1.63564">
        <ele>43.8</ele>
        <time>2020-06-22T12:27:29Z</time>
      </trkpt>
      <trkpt lat="50.66778" lon="1.63563">
        <ele>43.7</ele>
        <time>2020-06-22T12:27:30Z</time>
      </trkpt>
      <trkpt lat="50.66778" lon="1.63562">
        <ele>43.7</ele>
        <time>2020-06-22T12:27:31Z</time>
      </trkpt>
      <trkpt lat="50.66777" lon="1.6356">
        <ele>43.7</ele>
        <time>2020-06-22T12:27:32Z</time>
      </trkpt>
      <trkpt lat="50.66777" lon="1.6356">
        <ele>43.7</ele>
        <time>2020-06-22T12:27:33Z</time>
      </trkpt>
      <trkpt lat="50.66777" lon="1.6356">
        <ele>43.7</ele>
        <time>2020-06-22T12:27:34Z</time>
      </trkpt>
      <trkpt lat="50.66777" lon="1.6356">
        <ele>43.7</ele>
        <time>2020-06-22T12:27:35Z</time>
      </trkpt>
      <trkpt lat="50.66777" lon="1.6356">
        <ele>43.7</ele>
        <time>2020-06-22T12:27:36Z</time>
      </trkpt>
      <trkpt lat="50.66777" lon="1.6356">
        <ele>43.7</ele>
        <time>2020-06-22T12:27:37Z</time>
      </trkpt>
      <trkpt lat="50.66777" lon="1.6356">
        <ele>43.7</ele>
        <time>2020-06-22T12:27:38Z</time>
      </trkpt>
      <trkpt lat="50.66777" lon="1.6356">
        <ele>43.7</ele>
        <time>2020-06-22T12:27:39Z</time>
      </trkpt>
      <trkpt lat="50.66777" lon="1.6356">
        <ele>43.7</ele>
        <time>2020-06-22T12:27:40Z</time>
      </trkpt>
      <trkpt lat="50.66777" lon="1.6356">
        <ele>43.7</ele>
        <time>2020-06-22T12:27:41Z</time>
      </trkpt>
      <trkpt lat="50.66777" lon="1.6356">
        <ele>43.7</ele>
        <time>2020-06-22T12:27:42Z</time>
      </trkpt>
      <trkpt lat="50.66777" lon="1.6356">
        <ele>43.7</ele>
        <time>2020-06-22T12:27:43Z</time>
      </trkpt>
      <trkpt lat="50.66766" lon="1.63537">
        <ele>43.9</ele>
        <time>2020-06-22T13:13:32Z</time>
      </trkpt>
      <trkpt lat="50.66765" lon="1.63537">
        <ele>44.1</ele>
        <time>2020-06-22T13:13:33Z</time>
      </trkpt>
      <trkpt lat="50.66764" lon="1.63537">
        <ele>44.1</ele>
        <time>2020-06-22T13:13:34Z</time>
      </trkpt>
      <trkpt lat="50.66763" lon="1.63538">
        <ele>44.2</ele>
        <time>2020-06-22T13:13:35Z</time>
      </trkpt>
      <trkpt lat="50.66761" lon="1.63539">
        <ele>44.2</ele>
        <time>2020-06-22T13:13:36Z</time>
      </trkpt>
      <trkpt lat="50.6676" lon="1.6354">
        <ele>44.4</ele>
        <time>2020-06-22T13:13:37Z</time>
      </trkpt>
      <trkpt lat="50.66759" lon="1.63541">
        <ele>44.4</ele>
        <time>2020-06-22T13:13:38Z</time>
      </trkpt>
      <trkpt lat="50.66757" lon="1.63542">
        <ele>44.5</ele>
        <time>2020-06-22T13:13:39Z</time>
      </trkpt>
      <trkpt lat="50.66756" lon="1.63544">
        <ele>44.5</ele>
        <time>2020-06-22T13:13:40Z</time>
      </trkpt>
      <trkpt lat="50.66755" lon="1.63545">
        <ele>44.7</ele>
        <time>2020-06-22T13:13:41Z</time>
      </trkpt>
      <trkpt lat="50.66754" lon="1.63547">
        <ele>44.7</ele>
        <time>2020-06-22T13:13:42Z</time>
      </trkpt>
      <trkpt lat="50.66753" lon="1.63548">
        <ele>44.7</ele>
        <time>2020-06-22T13:13:43Z</time>
      </trkpt>
      <trkpt lat="50.66752" lon="1.63549">
        <ele>44.8</ele>
        <time>2020-06-22T13:13:44Z</time>
      </trkpt>
      <trkpt lat="50.66853" lon="1.64221">
        <ele>31.7</ele>
        <time>2020-06-22T13:17:14Z</time>
      </trkpt>
      <trkpt lat="50.66852" lon="1.64216">
        <ele>31.9</ele>
        <time>2020-06-22T13:17:15Z</time>
      </trkpt>
      <trkpt lat="50.66851" lon="1.64212">
        <ele>32</ele>
        <time>2020-06-22T13:17:16Z</time>
      </trkpt>
      <trkpt lat="50.6685" lon="1.64209">
        <ele>32.2</ele>
        <time>2020-06-22T13:17:17Z</time>
      </trkpt>
      <trkpt lat="50.66848" lon="1.64203">
        <ele>32.4</ele>
        <time>2020-06-22T13:17:18Z</time>
      </trkpt>
      <trkpt lat="50.66851" lon="1.64185">
        <ele>33.1</ele>
        <time>2020-06-22T13:17:19Z</time>
      </trkpt>
      <trkpt lat="50.66853" lon="1.64167">
        <ele>33.8</ele>
        <time>2020-06-22T13:17:20Z</time>
      </trkpt>
      <trkpt lat="50.66863" lon="1.64105">
        <ele>35.5</ele>
        <time>2020-06-22T13:17:21Z</time>
      </trkpt>
      <trkpt lat="50.66864" lon="1.64099">
        <ele>35.8</ele>
        <time>2020-06-22T13:17:22Z</time>
      </trkpt>
      <trkpt lat="50.66872" lon="1.64066">
        <ele>37.5</ele>
        <time>2020-06-22T13:17:23Z</time>
      </trkpt>
      <trkpt lat="50.66884" lon="1.64023">
        <ele>40.8</ele>
        <time>2020-06-22T13:17:24Z</time>
      </trkpt>
      <trkpt lat="50.66886" lon="1.64016">
        <ele>41.4</ele>
        <time>2020-06-22T13:17:25Z</time>
      </trkpt>
      <trkpt lat="50.66888" lon="1.64008">
        <ele>41.8</ele>
        <time>2020-06-22T13:17:26Z</time>
      </trkpt>
      <trkpt lat="50.6689" lon="1.64001">
        <ele>42.3</ele>
        <time>2020-06-22T13:17:27Z</time>
      </trkpt>
      <trkpt lat="50.66893" lon="1.63993">
        <ele>42.5</ele>
        <time>2020-06-22T13:17:28Z</time>
      </trkpt>
      <trkpt lat="50.66895" lon="1.63986">
        <ele>42.8</ele>
        <time>2020-06-22T13:17:29Z</time>
      </trkpt>
      <trkpt lat="50.66897" lon="1.63979">
        <ele>43</ele>
        <time>2020-06-22T13:17:30Z</time>
      </trkpt>
      <trkpt lat="50.66899" lon="1.63971">
        <ele>43.1</ele>
        <time>2020-06-22T13:17:31Z</time>
      </trkpt>
      <trkpt lat="50.66901" lon="1.63964">
        <ele>43.2</ele>
        <time>2020-06-22T13:17:32Z</time>
      </trkpt>
      <trkpt lat="50.66904" lon="1.63956">
        <ele>43.2</ele>
        <time>2020-06-22T13:17:33Z</time>
      </trkpt>
      <trkpt lat="50.66881" lon="1.63928">
        <ele>43.9</ele>
        <time>2020-06-22T13:17:34Z</time>
      </trkpt>
      <trkpt lat="50.66881" lon="1.63927">
        <ele>43.9</ele>
        <time>2020-06-22T13:17:35Z</time>
      </trkpt>
      <trkpt lat="50.66882" lon="1.63923">
        <ele>43.8</ele>
        <time>2020-06-22T13:17:36Z</time>
      </trkpt>
      <trkpt lat="50.66881" lon="1.63919">
        <ele>43.7</ele>
        <time>2020-06-22T13:17:37Z</time>
      </trkpt>
      <trkpt lat="50.66881" lon="1.63914">
        <ele>43.5</ele>
        <time>2020-06-22T13:17:38Z</time>
      </trkpt>
      <trkpt lat="50.66882" lon="1.63912">
        <ele>43.5</ele>
        <time>2020-06-22T13:17:39Z</time>
      </trkpt>
      <trkpt lat="50.66853" lon="1.6388">
        <ele>44.8</ele>
        <time>2020-06-22T13:17:40Z</time>
      </trkpt>
      <trkpt lat="50.66848" lon="1.63873">
        <ele>44.9</ele>
        <time>2020-06-22T13:17:41Z</time>
      </trkpt>
      <trkpt lat="50.66839" lon="1.63862">
        <ele>44.9</ele>
        <time>2020-06-22T13:17:42Z</time>
      </trkpt>
      <trkpt lat="50.66834" lon="1.63851">
        <ele>44.5</ele>
        <time>2020-06-22T13:17:43Z</time>
      </trkpt>
      <trkpt lat="50.66828" lon="1.63844">
        <ele>44</ele>
        <time>2020-06-22T13:17:44Z</time>
      </trkpt>
      <trkpt lat="50.66824" lon="1.63838">
        <ele>43.8</ele>
        <time>2020-06-22T13:17:45Z</time>
      </trkpt>
      <trkpt lat="50.66821" lon="1.63835">
        <ele>43.6</ele>
        <time>2020-06-22T13:17:46Z</time>
      </trkpt>
      <trkpt lat="50.66819" lon="1.63831">
        <ele>43.4</ele>
        <time>2020-06-22T13:17:47Z</time>
      </trkpt>
      <trkpt lat="50.66818" lon="1.63833">
        <ele>43.6</ele>
        <time>2020-06-22T13:17:48Z</time>
      </trkpt>
      <trkpt lat="50.66819" lon="1.63835">
        <ele>43.7</ele>
        <time>2020-06-22T13:17:49Z</time>
      </trkpt>
      <trkpt lat="50.6682" lon="1.63838">
        <ele>43.7</ele>
        <time>2020-06-22T13:17:50Z</time>
      </trkpt>
      <trkpt lat="50.66822" lon="1.63837">
        <ele>43.6</ele>
        <time>2020-06-22T13:17:51Z</time>
      </trkpt>
      <trkpt lat="50.66823" lon="1.63837">
        <ele>43.6</ele>
        <time>2020-06-22T13:17:52Z</time>
      </trkpt>
      <trkpt lat="50.66825" lon="1.63837">
        <ele>43.3</ele>
        <time>2020-06-22T13:17:53Z</time>
      </trkpt>
      <trkpt lat="50.66826" lon="1.63837">
        <ele>43.3</ele>
        <time>2020-06-22T13:17:54Z</time>
      </trkpt>
      <trkpt lat="50.66827" lon="1.63837">
        <ele>43.1</ele>
        <time>2020-06-22T13:17:55Z</time>
      </trkpt>
      <trkpt lat="50.66838" lon="1.63837">
        <ele>42</ele>
        <time>2020-06-22T13:17:56Z</time>
      </trkpt>
      <trkpt lat="50.66847" lon="1.63837">
        <ele>41</ele>
        <time>2020-06-22T13:17:57Z</time>
      </trkpt>
      <trkpt lat="50.66857" lon="1.63824">
        <ele>38.3</ele>
        <time>2020-06-22T13:17:58Z</time>
      </trkpt>
      <trkpt lat="50.66861" lon="1.63823">
        <ele>37.9</ele>
        <time>2020-06-22T13:17:59Z</time>
      </trkpt>
      <trkpt lat="50.66862" lon="1.63816">
        <ele>37.3</ele>
        <time>2020-06-22T13:18:00Z</time>
      </trkpt>
      <trkpt lat="50.66862" lon="1.63809">
        <ele>37.1</ele>
        <time>2020-06-22T13:18:01Z</time>
      </trkpt>
      <trkpt lat="50.66862" lon="1.63801">
        <ele>37</ele>
        <time>2020-06-22T13:18:02Z</time>
      </trkpt>
      <trkpt lat="50.66862" lon="1.63796">
        <ele>37</ele>
        <time>2020-06-22T13:18:03Z</time>
      </trkpt>
      <trkpt lat="50.6686" lon="1.63793">
        <ele>37.2</ele>
        <time>2020-06-22T13:18:04Z</time>
      </trkpt>
      <trkpt lat="50.66864" lon="1.63787">
        <ele>37.1</ele>
        <time>2020-06-22T13:18:05Z</time>
      </trkpt>
      <trkpt lat="50.66867" lon="1.63782">
        <ele>37.3</ele>
        <time>2020-06-22T13:18:06Z</time>
      </trkpt>
      <trkpt lat="50.66868" lon="1.63778">
        <ele>37.4</ele>
        <time>2020-06-22T13:18:07Z</time>
      </trkpt>
      <trkpt lat="50.66867" lon="1.63773">
        <ele>37.6</ele>
        <time>2020-06-22T13:18:08Z</time>
      </trkpt>
      <trkpt lat="50.66867" lon="1.63772">
        <ele>37.8</ele>
        <time>2020-06-22T13:18:09Z</time>
      </trkpt>
      <trkpt lat="50.66866" lon="1.63768">
        <ele>38</ele>
        <time>2020-06-22T13:18:10Z</time>
      </trkpt>
      <trkpt lat="50.66866" lon="1.63768">
        <ele>38</ele>
        <time>2020-06-22T13:18:11Z</time>
      </trkpt>
      <trkpt lat="50.66866" lon="1.63768">
        <ele>38</ele>
        <time>2020-06-22T13:18:12Z</time>
      </trkpt>
      <trkpt lat="50.66866" lon="1.63767">
        <ele>38</ele>
        <time>2020-06-22T13:18:13Z</time>
      </trkpt>
      <trkpt lat="50.66867" lon="1.63765">
        <ele>38.1</ele>
        <time>2020-06-22T13:18:14Z</time>
      </trkpt>
      <trkpt lat="50.66866" lon="1.63765">
        <ele>38.3</ele>
        <time>2020-06-22T13:18:15Z</time>
      </trkpt>
      <trkpt lat="50.66868" lon="1.63763">
        <ele>38.1</ele>
        <time>2020-06-22T13:18:16Z</time>
      </trkpt>
      <trkpt lat="50.66869" lon="1.63761">
        <ele>38.1</ele>
        <time>2020-06-22T13:18:17Z</time>
      </trkpt>
      <trkpt lat="50.6687" lon="1.63759">
        <ele>38.2</ele>
        <time>2020-06-22T13:18:18Z</time>
      </trkpt>
      <trkpt lat="50.66871" lon="1.63757">
        <ele>38.2</ele>
        <time>2020-06-22T13:18:19Z</time>
      </trkpt>
      <trkpt lat="50.66871" lon="1.63757">
        <ele>38.2</ele>
        <time>2020-06-22T13:18:20Z</time>
      </trkpt>
      <trkpt lat="50.6687" lon="1.63758">
        <ele>38.2</ele>
        <time>2020-06-22T13:18:21Z</time>
      </trkpt>
      <trkpt lat="50.66871" lon="1.6376">
        <ele>38.2</ele>
        <time>2020-06-22T13:18:22Z</time>
      </trkpt>
      <trkpt lat="50.66872" lon="1.6376">
        <ele>38.2</ele>
        <time>2020-06-22T13:18:23Z</time>
      </trkpt>
      <trkpt lat="50.66872" lon="1.63762">
        <ele>38</ele>
        <time>2020-06-22T13:18:24Z</time>
      </trkpt>
      <trkpt lat="50.66872" lon="1.63762">
        <ele>38</ele>
        <time>2020-06-22T13:18:25Z</time>
      </trkpt>
      <trkpt lat="50.66872" lon="1.63762">
        <ele>38</ele>
        <time>2020-06-22T13:18:26Z</time>
      </trkpt>
      <trkpt lat="50.66872" lon="1.63762">
        <ele>38</ele>
        <time>2020-06-22T13:18:27Z</time>
      </trkpt>
      <trkpt lat="50.66872" lon="1.63762">
        <ele>38</ele>
        <time>2020-06-22T13:18:28Z</time>
      </trkpt>
      <trkpt lat="50.66872" lon="1.63763">
        <ele>37.9</ele>
        <time>2020-06-22T13:18:29Z</time>
      </trkpt>
      <trkpt lat="50.66873" lon="1.63763">
        <ele>37.9</ele>
        <time>2020-06-22T13:18:30Z</time>
      </trkpt>
      <trkpt lat="50.66873" lon="1.63764">
        <ele>37.9</ele>
        <time>2020-06-22T13:18:31Z</time>
      </trkpt>
      <trkpt lat="50.66874" lon="1.63765">
        <ele>37.9</ele>
        <time>2020-06-22T13:18:32Z</time>
      </trkpt>
      <trkpt lat="50.66875" lon="1.63765">
        <ele>37.9</ele>
        <time>2020-06-22T13:18:33Z</time>
      </trkpt>
      <trkpt lat="50.66876" lon="1.63765">
        <ele>37.6</ele>
        <time>2020-06-22T13:18:34Z</time>
      </trkpt>
      <trkpt lat="50.66877" lon="1.63766">
        <ele>37.6</ele>
        <time>2020-06-22T13:18:35Z</time>
      </trkpt>
      <trkpt lat="50.66877" lon="1.63765">
        <ele>37.6</ele>
        <time>2020-06-22T13:18:36Z</time>
      </trkpt>
      <trkpt lat="50.66877" lon="1.63765">
        <ele>37.6</ele>
        <time>2020-06-22T13:18:37Z</time>
      </trkpt>
      <trkpt lat="50.66877" lon="1.63765">
        <ele>37.8</ele>
        <time>2020-06-22T13:18:38Z</time>
      </trkpt>
      <trkpt lat="50.66878" lon="1.63764">
        <ele>37.7</ele>
        <time>2020-06-22T13:18:39Z</time>
      </trkpt>
      <trkpt lat="50.66878" lon="1.63764">
        <ele>37.7</ele>
        <time>2020-06-22T13:18:40Z</time>
      </trkpt>
      <trkpt lat="50.66878" lon="1.63764">
        <ele>37.7</ele>
        <time>2020-06-22T13:18:41Z</time>
      </trkpt>
      <trkpt lat="50.66878" lon="1.63763">
        <ele>37.7</ele>
        <time>2020-06-22T13:18:42Z</time>
      </trkpt>
      <trkpt lat="50.66879" lon="1.63763">
        <ele>37.7</ele>
        <time>2020-06-22T13:18:43Z</time>
      </trkpt>
      <trkpt lat="50.66879" lon="1.63763">
        <ele>37.7</ele>
        <time>2020-06-22T13:18:44Z</time>
      </trkpt>
      <trkpt lat="50.66879" lon="1.63762">
        <ele>37.7</ele>
        <time>2020-06-22T13:18:45Z</time>
      </trkpt>
      <trkpt lat="50.66879" lon="1.63762">
        <ele>37.7</ele>
        <time>2020-06-22T13:18:46Z</time>
      </trkpt>
      <trkpt lat="50.66879" lon="1.63762">
        <ele>37.7</ele>
        <time>2020-06-22T13:19:11Z</time>
      </trkpt>
      <trkpt lat="50.6688" lon="1.63761">
        <ele>37.7</ele>
        <time>2020-06-22T13:19:12Z</time>
      </trkpt>
      <trkpt lat="50.6688" lon="1.63761">
        <ele>37.7</ele>
        <time>2020-06-22T13:19:13Z</time>
      </trkpt>
      <trkpt lat="50.6688" lon="1.63761">
        <ele>37.7</ele>
        <time>2020-06-22T13:19:14Z</time>
      </trkpt>
      <trkpt lat="50.6688" lon="1.6376">
        <ele>37.9</ele>
        <time>2020-06-22T13:19:15Z</time>
      </trkpt>
      <trkpt lat="50.6688" lon="1.6376">
        <ele>37.9</ele>
        <time>2020-06-22T13:19:16Z</time>
      </trkpt>
      <trkpt lat="50.66879" lon="1.63759">
        <ele>37.9</ele>
        <time>2020-06-22T13:19:17Z</time>
      </trkpt>
      <trkpt lat="50.66879" lon="1.63758">
        <ele>37.9</ele>
        <time>2020-06-22T13:19:18Z</time>
      </trkpt>
      <trkpt lat="50.66879" lon="1.63758">
        <ele>37.9</ele>
        <time>2020-06-22T13:19:19Z</time>
      </trkpt>
      <trkpt lat="50.66879" lon="1.63757">
        <ele>37.9</ele>
        <time>2020-06-22T13:19:20Z</time>
      </trkpt>
      <trkpt lat="50.66879" lon="1.63756">
        <ele>38.1</ele>
        <time>2020-06-22T13:19:21Z</time>
      </trkpt>
      <trkpt lat="50.66879" lon="1.63755">
        <ele>38.1</ele>
        <time>2020-06-22T13:19:22Z</time>
      </trkpt>
      <trkpt lat="50.66879" lon="1.63754">
        <ele>38.1</ele>
        <time>2020-06-22T13:19:23Z</time>
      </trkpt>
      <trkpt lat="50.66879" lon="1.63754">
        <ele>38.1</ele>
        <time>2020-06-22T13:19:24Z</time>
      </trkpt>
      <trkpt lat="50.66878" lon="1.63752">
        <ele>38.1</ele>
        <time>2020-06-22T13:19:25Z</time>
      </trkpt>
      <trkpt lat="50.66878" lon="1.63751">
        <ele>38.3</ele>
        <time>2020-06-22T13:19:26Z</time>
      </trkpt>
      <trkpt lat="50.66877" lon="1.6375">
        <ele>38.4</ele>
        <time>2020-06-22T13:19:27Z</time>
      </trkpt>
      <trkpt lat="50.66876" lon="1.63749">
        <ele>38.4</ele>
        <time>2020-06-22T13:19:28Z</time>
      </trkpt>
      <trkpt lat="50.66875" lon="1.63746">
        <ele>38.6</ele>
        <time>2020-06-22T13:19:29Z</time>
      </trkpt>
      <trkpt lat="50.66874" lon="1.63739">
        <ele>39.1</ele>
        <time>2020-06-22T13:19:30Z</time>
      </trkpt>
      <trkpt lat="50.66874" lon="1.63735">
        <ele>39.1</ele>
        <time>2020-06-22T13:19:31Z</time>
      </trkpt>
      <trkpt lat="50.66873" lon="1.63735">
        <ele>39.3</ele>
        <time>2020-06-22T13:19:32Z</time>
      </trkpt>
      <trkpt lat="50.66873" lon="1.63733">
        <ele>39.3</ele>
        <time>2020-06-22T13:19:33Z</time>
      </trkpt>
      <trkpt lat="50.66873" lon="1.63731">
        <ele>39.5</ele>
        <time>2020-06-22T13:19:34Z</time>
      </trkpt>
      <trkpt lat="50.66872" lon="1.63729">
        <ele>39.5</ele>
        <time>2020-06-22T13:19:35Z</time>
      </trkpt>
      <trkpt lat="50.66872" lon="1.63727">
        <ele>39.7</ele>
        <time>2020-06-22T13:19:36Z</time>
      </trkpt>
      <trkpt lat="50.66872" lon="1.63725">
        <ele>39.9</ele>
        <time>2020-06-22T13:19:37Z</time>
      </trkpt>
      <trkpt lat="50.6687" lon="1.63725">
        <ele>39.9</ele>
        <time>2020-06-22T13:19:38Z</time>
      </trkpt>
      <trkpt lat="50.6687" lon="1.63723">
        <ele>39.9</ele>
        <time>2020-06-22T13:19:39Z</time>
      </trkpt>
      <trkpt lat="50.6687" lon="1.6372">
        <ele>40</ele>
        <time>2020-06-22T13:19:40Z</time>
      </trkpt>
      <trkpt lat="50.66869" lon="1.63718">
        <ele>40.3</ele>
        <time>2020-06-22T13:19:41Z</time>
      </trkpt>
      <trkpt lat="50.66869" lon="1.63716">
        <ele>40.4</ele>
        <time>2020-06-22T13:19:42Z</time>
      </trkpt>
      <trkpt lat="50.66869" lon="1.63714">
        <ele>40.4</ele>
        <time>2020-06-22T13:19:43Z</time>
      </trkpt>
      <trkpt lat="50.66868" lon="1.63713">
        <ele>40.5</ele>
        <time>2020-06-22T13:19:44Z</time>
      </trkpt>
      <trkpt lat="50.66866" lon="1.63715">
        <ele>40.7</ele>
        <time>2020-06-22T13:19:45Z</time>
      </trkpt>
      <trkpt lat="50.66866" lon="1.63716">
        <ele>40.7</ele>
        <time>2020-06-22T13:19:46Z</time>
      </trkpt>
      <trkpt lat="50.66865" lon="1.63716">
        <ele>40.7</ele>
        <time>2020-06-22T13:19:47Z</time>
      </trkpt>
      <trkpt lat="50.66864" lon="1.63718">
        <ele>40.6</ele>
        <time>2020-06-22T13:19:48Z</time>
      </trkpt>
      <trkpt lat="50.66858" lon="1.63719">
        <ele>41.6</ele>
        <time>2020-06-22T13:20:03Z</time>
      </trkpt>
      <trkpt lat="50.66857" lon="1.63723">
        <ele>41.4</ele>
        <time>2020-06-22T13:20:04Z</time>
      </trkpt>
      <trkpt lat="50.66857" lon="1.63726">
        <ele>41.4</ele>
        <time>2020-06-22T13:20:05Z</time>
      </trkpt>
      <trkpt lat="50.66856" lon="1.63729">
        <ele>41.2</ele>
        <time>2020-06-22T13:20:06Z</time>
      </trkpt>
      <trkpt lat="50.66856" lon="1.63727">
        <ele>41.6</ele>
        <time>2020-06-22T13:20:07Z</time>
      </trkpt>
      <trkpt lat="50.66856" lon="1.63727">
        <ele>41.2</ele>
        <time>2020-06-22T13:20:08Z</time>
      </trkpt>
      <trkpt lat="50.66856" lon="1.63731">
        <ele>41</ele>
        <time>2020-06-22T13:20:09Z</time>
      </trkpt>
      <trkpt lat="50.66855" lon="1.63735">
        <ele>41.4</ele>
        <time>2020-06-22T13:20:10Z</time>
      </trkpt>
      <trkpt lat="50.66855" lon="1.63737">
        <ele>41.1</ele>
        <time>2020-06-22T13:20:11Z</time>
      </trkpt>
      <trkpt lat="50.66855" lon="1.63729">
        <ele>41.6</ele>
        <time>2020-06-22T13:20:12Z</time>
      </trkpt>
      <trkpt lat="50.66855" lon="1.63723">
        <ele>41.8</ele>
        <time>2020-06-22T13:20:13Z</time>
      </trkpt>
      <trkpt lat="50.66855" lon="1.63724">
        <ele>41.8</ele>
        <time>2020-06-22T13:20:14Z</time>
      </trkpt>
      <trkpt lat="50.66849" lon="1.63711">
        <ele>43</ele>
        <time>2020-06-22T13:20:28Z</time>
      </trkpt>
      <trkpt lat="50.66849" lon="1.63712">
        <ele>43</ele>
        <time>2020-06-22T13:20:29Z</time>
      </trkpt>
      <trkpt lat="50.6685" lon="1.63713">
        <ele>43</ele>
        <time>2020-06-22T13:20:30Z</time>
      </trkpt>
      <trkpt lat="50.66849" lon="1.63711">
        <ele>43</ele>
        <time>2020-06-22T13:20:31Z</time>
      </trkpt>
      <trkpt lat="50.66849" lon="1.63713">
        <ele>43</ele>
        <time>2020-06-22T13:20:32Z</time>
      </trkpt>
      <trkpt lat="50.66849" lon="1.63714">
        <ele>42.9</ele>
        <time>2020-06-22T13:20:33Z</time>
      </trkpt>
      <trkpt lat="50.6685" lon="1.63714">
        <ele>42.9</ele>
        <time>2020-06-22T13:20:34Z</time>
      </trkpt>
      <trkpt lat="50.6685" lon="1.63715">
        <ele>42.9</ele>
        <time>2020-06-22T13:20:35Z</time>
      </trkpt>
      <trkpt lat="50.66851" lon="1.63716">
        <ele>42.5</ele>
        <time>2020-06-22T13:20:36Z</time>
      </trkpt>
      <trkpt lat="50.66851" lon="1.63718">
        <ele>42.4</ele>
        <time>2020-06-22T13:20:37Z</time>
      </trkpt>
      <trkpt lat="50.66852" lon="1.63717">
        <ele>42.5</ele>
        <time>2020-06-22T13:20:38Z</time>
      </trkpt>
      <trkpt lat="50.66852" lon="1.63716">
        <ele>42.5</ele>
        <time>2020-06-22T13:20:39Z</time>
      </trkpt>
      <trkpt lat="50.66851" lon="1.63714">
        <ele>42.5</ele>
        <time>2020-06-22T13:20:40Z</time>
      </trkpt>
      <trkpt lat="50.66851" lon="1.63712">
        <ele>42.6</ele>
        <time>2020-06-22T13:20:41Z</time>
      </trkpt>
      <trkpt lat="50.66851" lon="1.63711">
        <ele>42.6</ele>
        <time>2020-06-22T13:20:42Z</time>
      </trkpt>
      <trkpt lat="50.6685" lon="1.63705">
        <ele>43</ele>
        <time>2020-06-22T13:20:43Z</time>
      </trkpt>
      <trkpt lat="50.6685" lon="1.637">
        <ele>43</ele>
        <time>2020-06-22T13:20:44Z</time>
      </trkpt>
      <trkpt lat="50.66849" lon="1.63691">
        <ele>42.8</ele>
        <time>2020-06-22T13:20:45Z</time>
      </trkpt>
      <trkpt lat="50.66849" lon="1.63686">
        <ele>42.6</ele>
        <time>2020-06-22T13:20:46Z</time>
      </trkpt>
      <trkpt lat="50.66849" lon="1.63683">
        <ele>42.5</ele>
        <time>2020-06-22T13:20:47Z</time>
      </trkpt>
      <trkpt lat="50.66849" lon="1.63681">
        <ele>42.5</ele>
        <time>2020-06-22T13:20:48Z</time>
      </trkpt>
      <trkpt lat="50.66848" lon="1.63678">
        <ele>42.4</ele>
        <time>2020-06-22T13:20:49Z</time>
      </trkpt>
      <trkpt lat="50.66848" lon="1.63677">
        <ele>42.4</ele>
        <time>2020-06-22T13:20:50Z</time>
      </trkpt>
      <trkpt lat="50.66847" lon="1.63675">
        <ele>42.5</ele>
        <time>2020-06-22T13:20:51Z</time>
      </trkpt>
      <trkpt lat="50.66847" lon="1.63673">
        <ele>42.5</ele>
        <time>2020-06-22T13:20:52Z</time>
      </trkpt>
      <trkpt lat="50.66846" lon="1.63671">
        <ele>42.3</ele>
        <time>2020-06-22T13:20:53Z</time>
      </trkpt>
      <trkpt lat="50.66846" lon="1.63669">
        <ele>42.3</ele>
        <time>2020-06-22T13:20:54Z</time>
      </trkpt>
      <trkpt lat="50.66845" lon="1.63667">
        <ele>42.3</ele>
        <time>2020-06-22T13:20:55Z</time>
      </trkpt>
      <trkpt lat="50.66845" lon="1.63664">
        <ele>42.1</ele>
        <time>2020-06-22T13:20:56Z</time>
      </trkpt>
      <trkpt lat="50.66845" lon="1.63662">
        <ele>42.1</ele>
        <time>2020-06-22T13:20:57Z</time>
      </trkpt>
      <trkpt lat="50.66845" lon="1.6366">
        <ele>42</ele>
        <time>2020-06-22T13:20:58Z</time>
      </trkpt>
      <trkpt lat="50.66845" lon="1.63658">
        <ele>42</ele>
        <time>2020-06-22T13:20:59Z</time>
      </trkpt>
      <trkpt lat="50.66845" lon="1.6366">
        <ele>42.2</ele>
        <time>2020-06-22T13:21:00Z</time>
      </trkpt>
      <trkpt lat="50.66845" lon="1.63659">
        <ele>42.2</ele>
        <time>2020-06-22T13:21:01Z</time>
      </trkpt>
      <trkpt lat="50.66844" lon="1.63659">
        <ele>42.2</ele>
        <time>2020-06-22T13:21:02Z</time>
      </trkpt>
      <trkpt lat="50.66844" lon="1.63658">
        <ele>42.1</ele>
        <time>2020-06-22T13:21:03Z</time>
      </trkpt>
      <trkpt lat="50.66843" lon="1.63659">
        <ele>42.2</ele>
        <time>2020-06-22T13:21:04Z</time>
      </trkpt>
      <trkpt lat="50.66843" lon="1.63658">
        <ele>42.2</ele>
        <time>2020-06-22T13:21:05Z</time>
      </trkpt>
      <trkpt lat="50.66844" lon="1.63656">
        <ele>42.1</ele>
        <time>2020-06-22T13:21:06Z</time>
      </trkpt>
      <trkpt lat="50.66843" lon="1.63655">
        <ele>42.1</ele>
        <time>2020-06-22T13:21:07Z</time>
      </trkpt>
      <trkpt lat="50.66843" lon="1.63651">
        <ele>41.9</ele>
        <time>2020-06-22T13:21:08Z</time>
      </trkpt>
      <trkpt lat="50.66843" lon="1.63649">
        <ele>41.9</ele>
        <time>2020-06-22T13:21:09Z</time>
      </trkpt>
      <trkpt lat="50.66843" lon="1.63648">
        <ele>41.9</ele>
        <time>2020-06-22T13:21:10Z</time>
      </trkpt>
      <trkpt lat="50.66843" lon="1.63646">
        <ele>41.9</ele>
        <time>2020-06-22T13:21:11Z</time>
      </trkpt>
      <trkpt lat="50.66841" lon="1.63645">
        <ele>41.9</ele>
        <time>2020-06-22T13:21:12Z</time>
      </trkpt>
      <trkpt lat="50.66841" lon="1.63644">
        <ele>41.9</ele>
        <time>2020-06-22T13:21:13Z</time>
      </trkpt>
      <trkpt lat="50.66841" lon="1.63643">
        <ele>41.9</ele>
        <time>2020-06-22T13:21:14Z</time>
      </trkpt>
      <trkpt lat="50.66841" lon="1.63641">
        <ele>41.9</ele>
        <time>2020-06-22T13:21:15Z</time>
      </trkpt>
      <trkpt lat="50.6684" lon="1.6364">
        <ele>41.9</ele>
        <time>2020-06-22T13:21:16Z</time>
      </trkpt>
      <trkpt lat="50.6684" lon="1.63639">
        <ele>41.9</ele>
        <time>2020-06-22T13:21:17Z</time>
      </trkpt>
      <trkpt lat="50.66838" lon="1.63634">
        <ele>42</ele>
        <time>2020-06-22T13:21:18Z</time>
      </trkpt>
      <trkpt lat="50.66838" lon="1.63633">
        <ele>42</ele>
        <time>2020-06-22T13:21:19Z</time>
      </trkpt>
      <trkpt lat="50.66838" lon="1.63633">
        <ele>42</ele>
        <time>2020-06-22T13:21:20Z</time>
      </trkpt>
      <trkpt lat="50.66837" lon="1.63631">
        <ele>42</ele>
        <time>2020-06-22T13:21:21Z</time>
      </trkpt>
      <trkpt lat="50.66837" lon="1.6363">
        <ele>42</ele>
        <time>2020-06-22T13:21:22Z</time>
      </trkpt>
      <trkpt lat="50.66836" lon="1.63628">
        <ele>42.1</ele>
        <time>2020-06-22T13:21:23Z</time>
      </trkpt>
      <trkpt lat="50.66832" lon="1.63619">
        <ele>42.2</ele>
        <time>2020-06-22T13:21:24Z</time>
      </trkpt>
      <trkpt lat="50.66829" lon="1.63611">
        <ele>42.3</ele>
        <time>2020-06-22T13:21:25Z</time>
      </trkpt>
      <trkpt lat="50.66825" lon="1.63603">
        <ele>42.6</ele>
        <time>2020-06-22T13:21:26Z</time>
      </trkpt>
      <trkpt lat="50.66822" lon="1.63596">
        <ele>42.7</ele>
        <time>2020-06-22T13:21:27Z</time>
      </trkpt>
      <trkpt lat="50.66821" lon="1.63595">
        <ele>42.7</ele>
        <time>2020-06-22T13:21:28Z</time>
      </trkpt>
      <trkpt lat="50.6682" lon="1.63594">
        <ele>42.8</ele>
        <time>2020-06-22T13:21:29Z</time>
      </trkpt>
      <trkpt lat="50.6682" lon="1.63594">
        <ele>42.8</ele>
        <time>2020-06-22T13:21:30Z</time>
      </trkpt>
      <trkpt lat="50.66819" lon="1.63593">
        <ele>42.8</ele>
        <time>2020-06-22T13:21:31Z</time>
      </trkpt>
      <trkpt lat="50.66818" lon="1.63593">
        <ele>42.8</ele>
        <time>2020-06-22T13:21:32Z</time>
      </trkpt>
      <trkpt lat="50.66818" lon="1.63593">
        <ele>42.8</ele>
        <time>2020-06-22T13:21:33Z</time>
      </trkpt>
      <trkpt lat="50.66817" lon="1.63591">
        <ele>42.9</ele>
        <time>2020-06-22T13:21:34Z</time>
      </trkpt>
      <trkpt lat="50.66816" lon="1.63591">
        <ele>42.9</ele>
        <time>2020-06-22T13:21:35Z</time>
      </trkpt>
      <trkpt lat="50.66816" lon="1.6359">
        <ele>42.9</ele>
        <time>2020-06-22T13:21:36Z</time>
      </trkpt>
      <trkpt lat="50.66816" lon="1.63589">
        <ele>42.9</ele>
        <time>2020-06-22T13:21:37Z</time>
      </trkpt>
      <trkpt lat="50.66815" lon="1.63587">
        <ele>42.9</ele>
        <time>2020-06-22T13:21:38Z</time>
      </trkpt>
      <trkpt lat="50.66814" lon="1.63586">
        <ele>42.9</ele>
        <time>2020-06-22T13:21:39Z</time>
      </trkpt>
      <trkpt lat="50.66814" lon="1.63585">
        <ele>42.9</ele>
        <time>2020-06-22T13:21:40Z</time>
      </trkpt>
      <trkpt lat="50.66813" lon="1.63583">
        <ele>42.9</ele>
        <time>2020-06-22T13:21:41Z</time>
      </trkpt>
      <trkpt lat="50.66813" lon="1.63586">
        <ele>42.9</ele>
        <time>2020-06-22T13:21:42Z</time>
      </trkpt>
      <trkpt lat="50.66813" lon="1.63586">
        <ele>42.9</ele>
        <time>2020-06-22T13:21:43Z</time>
      </trkpt>
      <trkpt lat="50.66814" lon="1.63587">
        <ele>42.9</ele>
        <time>2020-06-22T13:21:44Z</time>
      </trkpt>
      <trkpt lat="50.66814" lon="1.63588">
        <ele>42.9</ele>
        <time>2020-06-22T13:21:45Z</time>
      </trkpt>
      <trkpt lat="50.66814" lon="1.63587">
        <ele>42.9</ele>
        <time>2020-06-22T13:21:46Z</time>
      </trkpt>
      <trkpt lat="50.66814" lon="1.63586">
        <ele>42.9</ele>
        <time>2020-06-22T13:21:47Z</time>
      </trkpt>
      <trkpt lat="50.66814" lon="1.63585">
        <ele>42.9</ele>
        <time>2020-06-22T13:21:48Z</time>
      </trkpt>
      <trkpt lat="50.66813" lon="1.63585">
        <ele>42.9</ele>
        <time>2020-06-22T13:21:49Z</time>
      </trkpt>
      <trkpt lat="50.66813" lon="1.63584">
        <ele>42.9</ele>
        <time>2020-06-22T13:21:50Z</time>
      </trkpt>
      <trkpt lat="50.66812" lon="1.63583">
        <ele>43</ele>
        <time>2020-06-22T13:21:51Z</time>
      </trkpt>
      <trkpt lat="50.66813" lon="1.63584">
        <ele>42.9</ele>
        <time>2020-06-22T13:21:52Z</time>
      </trkpt>
      <trkpt lat="50.66813" lon="1.63583">
        <ele>42.9</ele>
        <time>2020-06-22T13:21:53Z</time>
      </trkpt>
      <trkpt lat="50.66813" lon="1.63582">
        <ele>42.9</ele>
        <time>2020-06-22T13:21:54Z</time>
      </trkpt>
      <trkpt lat="50.66812" lon="1.63582">
        <ele>43</ele>
        <time>2020-06-22T13:21:55Z</time>
      </trkpt>
      <trkpt lat="50.66812" lon="1.63584">
        <ele>43</ele>
        <time>2020-06-22T13:21:56Z</time>
      </trkpt>
      <trkpt lat="50.66812" lon="1.63587">
        <ele>43</ele>
        <time>2020-06-22T13:21:57Z</time>
      </trkpt>
      <trkpt lat="50.66812" lon="1.63588">
        <ele>43</ele>
        <time>2020-06-22T13:21:58Z</time>
      </trkpt>
      <trkpt lat="50.66811" lon="1.63588">
        <ele>43</ele>
        <time>2020-06-22T13:21:59Z</time>
      </trkpt>
      <trkpt lat="50.66811" lon="1.63586">
        <ele>43</ele>
        <time>2020-06-22T13:22:00Z</time>
      </trkpt>
      <trkpt lat="50.6681" lon="1.63586">
        <ele>43</ele>
        <time>2020-06-22T13:22:01Z</time>
      </trkpt>
      <trkpt lat="50.6681" lon="1.63586">
        <ele>43</ele>
        <time>2020-06-22T13:22:02Z</time>
      </trkpt>
      <trkpt lat="50.6681" lon="1.63586">
        <ele>43</ele>
        <time>2020-06-22T13:22:03Z</time>
      </trkpt>
      <trkpt lat="50.66809" lon="1.63584">
        <ele>43.1</ele>
        <time>2020-06-22T13:22:04Z</time>
      </trkpt>
      <trkpt lat="50.66809" lon="1.63584">
        <ele>43.1</ele>
        <time>2020-06-22T13:22:05Z</time>
      </trkpt>
      <trkpt lat="50.66808" lon="1.63583">
        <ele>43.1</ele>
        <time>2020-06-22T13:22:06Z</time>
      </trkpt>
      <trkpt lat="50.66808" lon="1.63582">
        <ele>43.1</ele>
        <time>2020-06-22T13:22:07Z</time>
      </trkpt>
      <trkpt lat="50.66808" lon="1.63581">
        <ele>43.1</ele>
        <time>2020-06-22T13:22:08Z</time>
      </trkpt>
      <trkpt lat="50.66807" lon="1.63581">
        <ele>43.2</ele>
        <time>2020-06-22T13:22:09Z</time>
      </trkpt>
      <trkpt lat="50.66807" lon="1.6358">
        <ele>43.1</ele>
        <time>2020-06-22T13:22:10Z</time>
      </trkpt>
      <trkpt lat="50.66806" lon="1.6358">
        <ele>43.1</ele>
        <time>2020-06-22T13:22:11Z</time>
      </trkpt>
      <trkpt lat="50.66807" lon="1.63579">
        <ele>43.1</ele>
        <time>2020-06-22T13:22:12Z</time>
      </trkpt>
      <trkpt lat="50.66806" lon="1.63577">
        <ele>43.1</ele>
        <time>2020-06-22T13:22:13Z</time>
      </trkpt>
      <trkpt lat="50.66805" lon="1.63573">
        <ele>43.1</ele>
        <time>2020-06-22T13:22:14Z</time>
      </trkpt>
      <trkpt lat="50.66805" lon="1.63571">
        <ele>43</ele>
        <time>2020-06-22T13:22:15Z</time>
      </trkpt>
      <trkpt lat="50.66805" lon="1.6357">
        <ele>43</ele>
        <time>2020-06-22T13:22:16Z</time>
      </trkpt>
      <trkpt lat="50.66805" lon="1.6357">
        <ele>43</ele>
        <time>2020-06-22T13:22:17Z</time>
      </trkpt>
      <trkpt lat="50.66805" lon="1.63568">
        <ele>43</ele>
        <time>2020-06-22T13:22:18Z</time>
      </trkpt>
      <trkpt lat="50.66804" lon="1.63568">
        <ele>43</ele>
        <time>2020-06-22T13:22:19Z</time>
      </trkpt>
      <trkpt lat="50.66804" lon="1.63568">
        <ele>43.1</ele>
        <time>2020-06-22T13:22:20Z</time>
      </trkpt>
      <trkpt lat="50.66804" lon="1.63567">
        <ele>43</ele>
        <time>2020-06-22T13:22:21Z</time>
      </trkpt>
      <trkpt lat="50.66802" lon="1.63562">
        <ele>43</ele>
        <time>2020-06-22T13:22:22Z</time>
      </trkpt>
      <trkpt lat="50.668" lon="1.63558">
        <ele>43</ele>
        <time>2020-06-22T13:22:23Z</time>
      </trkpt>
      <trkpt lat="50.668" lon="1.63557">
        <ele>43</ele>
        <time>2020-06-22T13:22:24Z</time>
      </trkpt>
      <trkpt lat="50.66798" lon="1.63553">
        <ele>43</ele>
        <time>2020-06-22T13:22:25Z</time>
      </trkpt>
      <trkpt lat="50.66798" lon="1.63551">
        <ele>43</ele>
        <time>2020-06-22T13:22:26Z</time>
      </trkpt>
      <trkpt lat="50.66797" lon="1.6355">
        <ele>42.9</ele>
        <time>2020-06-22T13:22:27Z</time>
      </trkpt>
      <trkpt lat="50.66796" lon="1.63548">
        <ele>43</ele>
        <time>2020-06-22T13:22:28Z</time>
      </trkpt>
      <trkpt lat="50.66795" lon="1.63546">
        <ele>42.9</ele>
        <time>2020-06-22T13:22:29Z</time>
      </trkpt>
      <trkpt lat="50.66795" lon="1.63544">
        <ele>42.9</ele>
        <time>2020-06-22T13:22:30Z</time>
      </trkpt>
      <trkpt lat="50.66794" lon="1.63541">
        <ele>42.9</ele>
        <time>2020-06-22T13:22:31Z</time>
      </trkpt>
      <trkpt lat="50.66794" lon="1.63541">
        <ele>42.9</ele>
        <time>2020-06-22T13:22:32Z</time>
      </trkpt>
      <trkpt lat="50.66793" lon="1.63541">
        <ele>42.9</ele>
        <time>2020-06-22T13:22:33Z</time>
      </trkpt>
      <trkpt lat="50.66793" lon="1.63542">
        <ele>43</ele>
        <time>2020-06-22T13:22:34Z</time>
      </trkpt>
      <trkpt lat="50.66792" lon="1.63543">
        <ele>43</ele>
        <time>2020-06-22T13:22:35Z</time>
      </trkpt>
      <trkpt lat="50.66792" lon="1.63544">
        <ele>43</ele>
        <time>2020-06-22T13:22:36Z</time>
      </trkpt>
      <trkpt lat="50.66792" lon="1.63545">
        <ele>43</ele>
        <time>2020-06-22T13:22:37Z</time>
      </trkpt>
      <trkpt lat="50.66792" lon="1.63546">
        <ele>43</ele>
        <time>2020-06-22T13:22:38Z</time>
      </trkpt>
      <trkpt lat="50.66792" lon="1.63548">
        <ele>43</ele>
        <time>2020-06-22T13:22:39Z</time>
      </trkpt>
      <trkpt lat="50.66792" lon="1.63549">
        <ele>43</ele>
        <time>2020-06-22T13:22:40Z</time>
      </trkpt>
      <trkpt lat="50.66793" lon="1.63549">
        <ele>43</ele>
        <time>2020-06-22T13:22:41Z</time>
      </trkpt>
      <trkpt lat="50.66793" lon="1.63549">
        <ele>43</ele>
        <time>2020-06-22T13:22:42Z</time>
      </trkpt>
      <trkpt lat="50.66793" lon="1.63548">
        <ele>43</ele>
        <time>2020-06-22T13:22:43Z</time>
      </trkpt>
      <trkpt lat="50.66793" lon="1.63548">
        <ele>43</ele>
        <time>2020-06-22T13:22:44Z</time>
      </trkpt>
      <trkpt lat="50.66793" lon="1.63548">
        <ele>43</ele>
        <time>2020-06-22T13:22:45Z</time>
      </trkpt>
      <trkpt lat="50.66794" lon="1.63549">
        <ele>43</ele>
        <time>2020-06-22T13:22:46Z</time>
      </trkpt>
      <trkpt lat="50.66795" lon="1.63549">
        <ele>43</ele>
        <time>2020-06-22T13:22:47Z</time>
      </trkpt>
      <trkpt lat="50.66795" lon="1.6355">
        <ele>43</ele>
        <time>2020-06-22T13:22:48Z</time>
      </trkpt>
      <trkpt lat="50.66796" lon="1.63551">
        <ele>43</ele>
        <time>2020-06-22T13:22:49Z</time>
      </trkpt>
      <trkpt lat="50.66796" lon="1.63552">
        <ele>43</ele>
        <time>2020-06-22T13:22:50Z</time>
      </trkpt>
      <trkpt lat="50.66797" lon="1.63553">
        <ele>43</ele>
        <time>2020-06-22T13:22:51Z</time>
      </trkpt>
      <trkpt lat="50.66797" lon="1.63553">
        <ele>43</ele>
        <time>2020-06-22T13:22:52Z</time>
      </trkpt>
      <trkpt lat="50.66797" lon="1.63552">
        <ele>43</ele>
        <time>2020-06-22T13:22:53Z</time>
      </trkpt>
      <trkpt lat="50.66796" lon="1.63552">
        <ele>43</ele>
        <time>2020-06-22T13:22:54Z</time>
      </trkpt>
      <trkpt lat="50.66796" lon="1.63551">
        <ele>43</ele>
        <time>2020-06-22T13:22:55Z</time>
      </trkpt>
      <trkpt lat="50.66796" lon="1.63551">
        <ele>43</ele>
        <time>2020-06-22T13:22:56Z</time>
      </trkpt>
      <trkpt lat="50.66795" lon="1.6355">
        <ele>43</ele>
        <time>2020-06-22T13:22:57Z</time>
      </trkpt>
      <trkpt lat="50.66795" lon="1.6355">
        <ele>43</ele>
        <time>2020-06-22T13:22:58Z</time>
      </trkpt>
      <trkpt lat="50.66795" lon="1.6355">
        <ele>43</ele>
        <time>2020-06-22T13:22:59Z</time>
      </trkpt>
      <trkpt lat="50.66795" lon="1.63549">
        <ele>43</ele>
        <time>2020-06-22T13:23:00Z</time>
      </trkpt>
      <trkpt lat="50.66794" lon="1.63549">
        <ele>43</ele>
        <time>2020-06-22T13:23:01Z</time>
      </trkpt>
      <trkpt lat="50.66794" lon="1.63548">
        <ele>43</ele>
        <time>2020-06-22T13:23:02Z</time>
      </trkpt>
      <trkpt lat="50.66793" lon="1.63548">
        <ele>43</ele>
        <time>2020-06-22T13:23:03Z</time>
      </trkpt>
      <trkpt lat="50.66793" lon="1.63548">
        <ele>43</ele>
        <time>2020-06-22T13:23:04Z</time>
      </trkpt>
      <trkpt lat="50.66793" lon="1.63547">
        <ele>43</ele>
        <time>2020-06-22T13:23:05Z</time>
      </trkpt>
      <trkpt lat="50.66793" lon="1.63548">
        <ele>43</ele>
        <time>2020-06-22T13:23:06Z</time>
      </trkpt>
      <trkpt lat="50.66793" lon="1.63549">
        <ele>43</ele>
        <time>2020-06-22T13:23:07Z</time>
      </trkpt>
      <trkpt lat="50.66794" lon="1.63551">
        <ele>43</ele>
        <time>2020-06-22T13:23:08Z</time>
      </trkpt>
      <trkpt lat="50.66795" lon="1.63552">
        <ele>43</ele>
        <time>2020-06-22T13:23:09Z</time>
      </trkpt>
      <trkpt lat="50.66796" lon="1.63552">
        <ele>43</ele>
        <time>2020-06-22T13:23:10Z</time>
      </trkpt>
      <trkpt lat="50.66796" lon="1.63552">
        <ele>43</ele>
        <time>2020-06-22T13:23:11Z</time>
      </trkpt>
      <trkpt lat="50.66795" lon="1.63553">
        <ele>43</ele>
        <time>2020-06-22T13:23:12Z</time>
      </trkpt>
      <trkpt lat="50.66795" lon="1.63552">
        <ele>43</ele>
        <time>2020-06-22T13:23:13Z</time>
      </trkpt>
      <trkpt lat="50.66795" lon="1.63552">
        <ele>43</ele>
        <time>2020-06-22T13:23:14Z</time>
      </trkpt>
      <trkpt lat="50.66794" lon="1.63552">
        <ele>43</ele>
        <time>2020-06-22T13:23:15Z</time>
      </trkpt>
      <trkpt lat="50.66794" lon="1.63552">
        <ele>43</ele>
        <time>2020-06-22T13:23:16Z</time>
      </trkpt>
      <trkpt lat="50.66794" lon="1.63552">
        <ele>43</ele>
        <time>2020-06-22T13:23:17Z</time>
      </trkpt>
      <trkpt lat="50.66793" lon="1.63551">
        <ele>43.1</ele>
        <time>2020-06-22T13:23:18Z</time>
      </trkpt>
      <trkpt lat="50.66792" lon="1.6355">
        <ele>43</ele>
        <time>2020-06-22T13:23:19Z</time>
      </trkpt>
      <trkpt lat="50.66791" lon="1.63549">
        <ele>43</ele>
        <time>2020-06-22T13:23:20Z</time>
      </trkpt>
      <trkpt lat="50.66791" lon="1.63549">
        <ele>43</ele>
        <time>2020-06-22T13:23:21Z</time>
      </trkpt>
      <trkpt lat="50.6679" lon="1.63548">
        <ele>43.1</ele>
        <time>2020-06-22T13:23:22Z</time>
      </trkpt>
      <trkpt lat="50.6679" lon="1.63548">
        <ele>43.1</ele>
        <time>2020-06-22T13:23:23Z</time>
      </trkpt>
      <trkpt lat="50.66789" lon="1.63547">
        <ele>43.1</ele>
        <time>2020-06-22T13:23:24Z</time>
      </trkpt>
      <trkpt lat="50.66789" lon="1.63546">
        <ele>43</ele>
        <time>2020-06-22T13:23:25Z</time>
      </trkpt>
      <trkpt lat="50.66788" lon="1.63546">
        <ele>43.1</ele>
        <time>2020-06-22T13:23:26Z</time>
      </trkpt>
      <trkpt lat="50.66787" lon="1.63548">
        <ele>43.2</ele>
        <time>2020-06-22T13:23:27Z</time>
      </trkpt>
      <trkpt lat="50.66787" lon="1.63548">
        <ele>43.2</ele>
        <time>2020-06-22T13:23:28Z</time>
      </trkpt>
      <trkpt lat="50.66787" lon="1.63549">
        <ele>43.2</ele>
        <time>2020-06-22T13:23:29Z</time>
      </trkpt>
      <trkpt lat="50.66786" lon="1.6355">
        <ele>43.2</ele>
        <time>2020-06-22T13:23:30Z</time>
      </trkpt>
      <trkpt lat="50.66786" lon="1.63551">
        <ele>43.2</ele>
        <time>2020-06-22T13:23:31Z</time>
      </trkpt>
      <trkpt lat="50.66786" lon="1.63553">
        <ele>43.2</ele>
        <time>2020-06-22T13:23:32Z</time>
      </trkpt>
      <trkpt lat="50.66785" lon="1.63555">
        <ele>43.3</ele>
        <time>2020-06-22T13:23:33Z</time>
      </trkpt>
      <trkpt lat="50.66785" lon="1.63557">
        <ele>43.3</ele>
        <time>2020-06-22T13:23:34Z</time>
      </trkpt>
      <trkpt lat="50.66785" lon="1.63559">
        <ele>43.5</ele>
        <time>2020-06-22T13:23:35Z</time>
      </trkpt>
      <trkpt lat="50.66785" lon="1.63561">
        <ele>43.4</ele>
        <time>2020-06-22T13:23:36Z</time>
      </trkpt>
      <trkpt lat="50.66786" lon="1.63563">
        <ele>43.4</ele>
        <time>2020-06-22T13:23:37Z</time>
      </trkpt>
      <trkpt lat="50.66785" lon="1.63564">
        <ele>43.5</ele>
        <time>2020-06-22T13:23:38Z</time>
      </trkpt>
      <trkpt lat="50.66785" lon="1.63563">
        <ele>43.5</ele>
        <time>2020-06-22T13:23:39Z</time>
      </trkpt>
      <trkpt lat="50.66785" lon="1.63563">
        <ele>43.6</ele>
        <time>2020-06-22T13:23:40Z</time>
      </trkpt>
      <trkpt lat="50.66784" lon="1.63564">
        <ele>43.6</ele>
        <time>2020-06-22T13:23:41Z</time>
      </trkpt>
      <trkpt lat="50.66784" lon="1.63566">
        <ele>43.6</ele>
        <time>2020-06-22T13:23:42Z</time>
      </trkpt>
      <trkpt lat="50.66783" lon="1.63565">
        <ele>43.6</ele>
        <time>2020-06-22T13:23:43Z</time>
      </trkpt>
      <trkpt lat="50.66783" lon="1.63565">
        <ele>43.6</ele>
        <time>2020-06-22T13:23:44Z</time>
      </trkpt>
      <trkpt lat="50.66783" lon="1.63564">
        <ele>43.6</ele>
        <time>2020-06-22T13:23:45Z</time>
      </trkpt>
      <trkpt lat="50.66783" lon="1.63564">
        <ele>43.6</ele>
        <time>2020-06-22T13:23:46Z</time>
      </trkpt>
      <trkpt lat="50.66783" lon="1.63563">
        <ele>43.5</ele>
        <time>2020-06-22T13:23:47Z</time>
      </trkpt>
      <trkpt lat="50.66783" lon="1.63563">
        <ele>43.5</ele>
        <time>2020-06-22T13:23:48Z</time>
      </trkpt>
      <trkpt lat="50.66783" lon="1.63564">
        <ele>43.6</ele>
        <time>2020-06-22T13:23:49Z</time>
      </trkpt>
      <trkpt lat="50.66783" lon="1.63564">
        <ele>43.6</ele>
        <time>2020-06-22T13:23:50Z</time>
      </trkpt>
      <trkpt lat="50.66784" lon="1.63564">
        <ele>43.6</ele>
        <time>2020-06-22T13:23:51Z</time>
      </trkpt>
      <trkpt lat="50.66783" lon="1.63564">
        <ele>43.6</ele>
        <time>2020-06-22T13:23:52Z</time>
      </trkpt>
      <trkpt lat="50.66783" lon="1.63563">
        <ele>43.5</ele>
        <time>2020-06-22T13:23:53Z</time>
      </trkpt>
      <trkpt lat="50.66783" lon="1.63563">
        <ele>43.5</ele>
        <time>2020-06-22T13:23:54Z</time>
      </trkpt>
      <trkpt lat="50.66783" lon="1.63563">
        <ele>43.5</ele>
        <time>2020-06-22T13:23:55Z</time>
      </trkpt>
      <trkpt lat="50.66783" lon="1.63562">
        <ele>43.5</ele>
        <time>2020-06-22T13:23:56Z</time>
      </trkpt>
      <trkpt lat="50.66783" lon="1.63561">
        <ele>43.5</ele>
        <time>2020-06-22T13:23:57Z</time>
      </trkpt>
      <trkpt lat="50.66783" lon="1.63562">
        <ele>43.5</ele>
        <time>2020-06-22T13:23:58Z</time>
      </trkpt>
      <trkpt lat="50.66783" lon="1.63562">
        <ele>43.5</ele>
        <time>2020-06-22T13:23:59Z</time>
      </trkpt>
      <trkpt lat="50.66783" lon="1.63562">
        <ele>43.5</ele>
        <time>2020-06-22T13:24:00Z</time>
      </trkpt>
      <trkpt lat="50.66783" lon="1.63561">
        <ele>43.5</ele>
        <time>2020-06-22T13:24:01Z</time>
      </trkpt>
      <trkpt lat="50.66783" lon="1.63561">
        <ele>43.5</ele>
        <time>2020-06-22T13:24:02Z</time>
      </trkpt>
      <trkpt lat="50.66783" lon="1.6356">
        <ele>43.5</ele>
        <time>2020-06-22T13:24:03Z</time>
      </trkpt>
      <trkpt lat="50.66783" lon="1.6356">
        <ele>43.5</ele>
        <time>2020-06-22T13:24:04Z</time>
      </trkpt>
      <trkpt lat="50.66783" lon="1.6356">
        <ele>43.5</ele>
        <time>2020-06-22T13:24:05Z</time>
      </trkpt>
      <trkpt lat="50.66783" lon="1.63561">
        <ele>43.5</ele>
        <time>2020-06-22T13:24:06Z</time>
      </trkpt>
      <trkpt lat="50.66782" lon="1.63561">
        <ele>43.6</ele>
        <time>2020-06-22T13:24:07Z</time>
      </trkpt>
      <trkpt lat="50.66782" lon="1.63561">
        <ele>43.6</ele>
        <time>2020-06-22T13:24:08Z</time>
      </trkpt>
      <trkpt lat="50.66782" lon="1.63561">
        <ele>43.6</ele>
        <time>2020-06-22T13:24:09Z</time>
      </trkpt>
      <trkpt lat="50.66782" lon="1.63561">
        <ele>43.6</ele>
        <time>2020-06-22T13:24:10Z</time>
      </trkpt>
      <trkpt lat="50.66781" lon="1.63561">
        <ele>43.6</ele>
        <time>2020-06-22T13:24:11Z</time>
      </trkpt>
      <trkpt lat="50.66781" lon="1.63561">
        <ele>43.6</ele>
        <time>2020-06-22T13:24:12Z</time>
      </trkpt>
      <trkpt lat="50.66781" lon="1.63561">
        <ele>43.6</ele>
        <time>2020-06-22T13:24:13Z</time>
      </trkpt>
      <trkpt lat="50.66781" lon="1.63561">
        <ele>43.6</ele>
        <time>2020-06-22T13:24:14Z</time>
      </trkpt>
      <trkpt lat="50.6678" lon="1.63562">
        <ele>43.6</ele>
        <time>2020-06-22T13:24:15Z</time>
      </trkpt>
      <trkpt lat="50.66784" lon="1.63561">
        <ele>43.5</ele>
        <time>2020-06-22T13:24:40Z</time>
      </trkpt>
      <trkpt lat="50.66784" lon="1.63562">
        <ele>43.5</ele>
        <time>2020-06-22T13:24:41Z</time>
      </trkpt>
      <trkpt lat="50.66785" lon="1.63563">
        <ele>43.5</ele>
        <time>2020-06-22T13:24:42Z</time>
      </trkpt>
      <trkpt lat="50.66785" lon="1.63564">
        <ele>43.5</ele>
        <time>2020-06-22T13:24:43Z</time>
      </trkpt>
      <trkpt lat="50.66786" lon="1.63565">
        <ele>43.5</ele>
        <time>2020-06-22T13:24:44Z</time>
      </trkpt>
      <trkpt lat="50.66786" lon="1.63565">
        <ele>43.5</ele>
        <time>2020-06-22T13:24:45Z</time>
      </trkpt>
      <trkpt lat="50.66786" lon="1.63565">
        <ele>43.5</ele>
        <time>2020-06-22T13:24:46Z</time>
      </trkpt>
      <trkpt lat="50.66786" lon="1.63565">
        <ele>43.5</ele>
        <time>2020-06-22T13:24:47Z</time>
      </trkpt>
      <trkpt lat="50.66786" lon="1.63564">
        <ele>43.5</ele>
        <time>2020-06-22T13:24:48Z</time>
      </trkpt>
      <trkpt lat="50.66786" lon="1.63563">
        <ele>43.4</ele>
        <time>2020-06-22T13:24:49Z</time>
      </trkpt>
      <trkpt lat="50.66786" lon="1.63562">
        <ele>43.4</ele>
        <time>2020-06-22T13:24:50Z</time>
      </trkpt>
      <trkpt lat="50.66785" lon="1.63562">
        <ele>43.4</ele>
        <time>2020-06-22T13:24:51Z</time>
      </trkpt>
      <trkpt lat="50.66785" lon="1.63561">
        <ele>43.5</ele>
        <time>2020-06-22T13:24:52Z</time>
      </trkpt>
      <trkpt lat="50.66785" lon="1.63561">
        <ele>43.5</ele>
        <time>2020-06-22T13:24:53Z</time>
      </trkpt>
      <trkpt lat="50.66784" lon="1.6356">
        <ele>43.5</ele>
        <time>2020-06-22T13:24:54Z</time>
      </trkpt>
      <trkpt lat="50.66784" lon="1.6356">
        <ele>43.5</ele>
        <time>2020-06-22T13:24:55Z</time>
      </trkpt>
      <trkpt lat="50.66773" lon="1.63561">
        <ele>43.9</ele>
        <time>2020-06-22T13:27:05Z</time>
      </trkpt>
      <trkpt lat="50.66771" lon="1.63561">
        <ele>44</ele>
        <time>2020-06-22T13:27:06Z</time>
      </trkpt>
      <trkpt lat="50.6677" lon="1.63561">
        <ele>44</ele>
        <time>2020-06-22T13:27:07Z</time>
      </trkpt>
      <trkpt lat="50.66769" lon="1.63559">
        <ele>44</ele>
        <time>2020-06-22T13:27:08Z</time>
      </trkpt>
      <trkpt lat="50.66768" lon="1.63558">
        <ele>44.1</ele>
        <time>2020-06-22T13:27:09Z</time>
      </trkpt>
      <trkpt lat="50.66766" lon="1.63556">
        <ele>44.1</ele>
        <time>2020-06-22T13:27:10Z</time>
      </trkpt>
      <trkpt lat="50.66766" lon="1.63555">
        <ele>44.2</ele>
        <time>2020-06-22T13:27:11Z</time>
      </trkpt>
      <trkpt lat="50.66765" lon="1.63555">
        <ele>44.1</ele>
        <time>2020-06-22T13:27:12Z</time>
      </trkpt>
      <trkpt lat="50.66764" lon="1.63555">
        <ele>44.2</ele>
        <time>2020-06-22T13:27:13Z</time>
      </trkpt>
      <trkpt lat="50.66762" lon="1.63555">
        <ele>44.3</ele>
        <time>2020-06-22T13:27:14Z</time>
      </trkpt>
      <trkpt lat="50.66761" lon="1.63555">
        <ele>44.3</ele>
        <time>2020-06-22T13:27:15Z</time>
      </trkpt>
      <trkpt lat="50.6676" lon="1.63555">
        <ele>44.4</ele>
        <time>2020-06-22T13:27:16Z</time>
      </trkpt>
      <trkpt lat="50.66759" lon="1.63555">
        <ele>44.4</ele>
        <time>2020-06-22T13:27:17Z</time>
      </trkpt>
      <trkpt lat="50.66759" lon="1.63555">
        <ele>44.4</ele>
        <time>2020-06-22T13:27:18Z</time>
      </trkpt>
      <trkpt lat="50.66759" lon="1.63555">
        <ele>44.4</ele>
        <time>2020-06-22T13:27:19Z</time>
      </trkpt>
      <trkpt lat="50.66759" lon="1.63554">
        <ele>44.4</ele>
        <time>2020-06-22T13:27:20Z</time>
      </trkpt>
      <trkpt lat="50.66759" lon="1.63554">
        <ele>44.4</ele>
        <time>2020-06-22T13:27:21Z</time>
      </trkpt>
      <trkpt lat="50.6676" lon="1.63555">
        <ele>44.4</ele>
        <time>2020-06-22T13:27:22Z</time>
      </trkpt>
      <trkpt lat="50.66761" lon="1.63556">
        <ele>44.4</ele>
        <time>2020-06-22T13:27:23Z</time>
      </trkpt>
      <trkpt lat="50.66761" lon="1.63556">
        <ele>44.3</ele>
        <time>2020-06-22T13:27:24Z</time>
      </trkpt>
      <trkpt lat="50.66761" lon="1.63556">
        <ele>44.3</ele>
        <time>2020-06-22T13:27:25Z</time>
      </trkpt>
      <trkpt lat="50.66761" lon="1.63557">
        <ele>44.3</ele>
        <time>2020-06-22T13:27:26Z</time>
      </trkpt>
      <trkpt lat="50.66762" lon="1.63557">
        <ele>44.3</ele>
        <time>2020-06-22T13:27:27Z</time>
      </trkpt>
      <trkpt lat="50.66761" lon="1.63557">
        <ele>44.3</ele>
        <time>2020-06-22T13:27:28Z</time>
      </trkpt>
      <trkpt lat="50.66762" lon="1.63557">
        <ele>44.3</ele>
        <time>2020-06-22T13:27:29Z</time>
      </trkpt>
      <trkpt lat="50.66762" lon="1.63557">
        <ele>44.3</ele>
        <time>2020-06-22T13:27:30Z</time>
      </trkpt>
      <trkpt lat="50.66762" lon="1.63558">
        <ele>44.3</ele>
        <time>2020-06-22T13:27:31Z</time>
      </trkpt>
      <trkpt lat="50.66763" lon="1.63558">
        <ele>44.3</ele>
        <time>2020-06-22T13:27:32Z</time>
      </trkpt>
      <trkpt lat="50.66763" lon="1.63558">
        <ele>44.3</ele>
        <time>2020-06-22T13:27:33Z</time>
      </trkpt>
      <trkpt lat="50.66763" lon="1.63558">
        <ele>44.3</ele>
        <time>2020-06-22T13:27:34Z</time>
      </trkpt>
      <trkpt lat="50.66763" lon="1.63558">
        <ele>44.3</ele>
        <time>2020-06-22T13:27:35Z</time>
      </trkpt>
      <trkpt lat="50.66764" lon="1.63558">
        <ele>44.2</ele>
        <time>2020-06-22T13:27:36Z</time>
      </trkpt>
      <trkpt lat="50.66764" lon="1.63558">
        <ele>44.2</ele>
        <time>2020-06-22T13:27:37Z</time>
      </trkpt>
      <trkpt lat="50.66764" lon="1.63558">
        <ele>44.2</ele>
        <time>2020-06-22T13:27:38Z</time>
      </trkpt>
      <trkpt lat="50.66765" lon="1.63558">
        <ele>44.2</ele>
        <time>2020-06-22T13:27:39Z</time>
      </trkpt>
      <trkpt lat="50.66765" lon="1.63558">
        <ele>44.2</ele>
        <time>2020-06-22T13:27:40Z</time>
      </trkpt>
      <trkpt lat="50.66765" lon="1.63558">
        <ele>44.2</ele>
        <time>2020-06-22T13:27:41Z</time>
      </trkpt>
      <trkpt lat="50.66765" lon="1.63558">
        <ele>44.2</ele>
        <time>2020-06-22T13:27:42Z</time>
      </trkpt>
      <trkpt lat="50.66766" lon="1.63559">
        <ele>44.2</ele>
        <time>2020-06-22T13:27:43Z</time>
      </trkpt>
      <trkpt lat="50.66766" lon="1.63559">
        <ele>44.2</ele>
        <time>2020-06-22T13:27:44Z</time>
      </trkpt>
      <trkpt lat="50.66766" lon="1.63559">
        <ele>44.2</ele>
        <time>2020-06-22T13:27:45Z</time>
      </trkpt>
      <trkpt lat="50.66766" lon="1.63559">
        <ele>44.2</ele>
        <time>2020-06-22T13:27:46Z</time>
      </trkpt>
      <trkpt lat="50.66766" lon="1.6356">
        <ele>44.2</ele>
        <time>2020-06-22T13:27:47Z</time>
      </trkpt>
      <trkpt lat="50.66766" lon="1.6356">
        <ele>44.2</ele>
        <time>2020-06-22T13:27:48Z</time>
      </trkpt>
      <trkpt lat="50.66766" lon="1.6356">
        <ele>44.1</ele>
        <time>2020-06-22T13:27:49Z</time>
      </trkpt>
      <trkpt lat="50.66766" lon="1.63559">
        <ele>44.2</ele>
        <time>2020-06-22T13:27:50Z</time>
      </trkpt>
      <trkpt lat="50.66766" lon="1.6356">
        <ele>44.2</ele>
        <time>2020-06-22T13:27:51Z</time>
      </trkpt>
      <trkpt lat="50.66766" lon="1.63559">
        <ele>44.2</ele>
        <time>2020-06-22T13:27:52Z</time>
      </trkpt>
      <trkpt lat="50.66766" lon="1.63559">
        <ele>44.2</ele>
        <time>2020-06-22T13:27:53Z</time>
      </trkpt>
      <trkpt lat="50.66766" lon="1.63559">
        <ele>44.2</ele>
        <time>2020-06-22T13:27:54Z</time>
      </trkpt>
      <trkpt lat="50.66766" lon="1.63559">
        <ele>44.1</ele>
        <time>2020-06-22T13:27:55Z</time>
      </trkpt>
      <trkpt lat="50.66766" lon="1.63559">
        <ele>44.1</ele>
        <time>2020-06-22T13:27:56Z</time>
      </trkpt>
      <trkpt lat="50.66767" lon="1.63561">
        <ele>44.1</ele>
        <time>2020-06-22T13:27:57Z</time>
      </trkpt>
      <trkpt lat="50.66767" lon="1.63563">
        <ele>44.1</ele>
        <time>2020-06-22T13:27:58Z</time>
      </trkpt>
      <trkpt lat="50.66768" lon="1.63563">
        <ele>44.2</ele>
        <time>2020-06-22T13:27:59Z</time>
      </trkpt>
      <trkpt lat="50.66768" lon="1.63564">
        <ele>44.2</ele>
        <time>2020-06-22T13:28:00Z</time>
      </trkpt>
      <trkpt lat="50.66769" lon="1.63565">
        <ele>44.1</ele>
        <time>2020-06-22T13:28:01Z</time>
      </trkpt>
      <trkpt lat="50.6677" lon="1.63566">
        <ele>44.1</ele>
        <time>2020-06-22T13:28:02Z</time>
      </trkpt>
      <trkpt lat="50.66769" lon="1.63566">
        <ele>44.1</ele>
        <time>2020-06-22T13:28:03Z</time>
      </trkpt>
      <trkpt lat="50.66769" lon="1.63566">
        <ele>44.2</ele>
        <time>2020-06-22T13:28:04Z</time>
      </trkpt>
      <trkpt lat="50.66769" lon="1.63566">
        <ele>44.2</ele>
        <time>2020-06-22T13:28:05Z</time>
      </trkpt>
      <trkpt lat="50.66769" lon="1.63565">
        <ele>44.2</ele>
        <time>2020-06-22T13:28:06Z</time>
      </trkpt>
      <trkpt lat="50.66769" lon="1.63565">
        <ele>44.2</ele>
        <time>2020-06-22T13:28:07Z</time>
      </trkpt>
      <trkpt lat="50.66769" lon="1.63565">
        <ele>44.2</ele>
        <time>2020-06-22T13:28:08Z</time>
      </trkpt>
      <trkpt lat="50.66769" lon="1.63564">
        <ele>44.2</ele>
        <time>2020-06-22T13:28:09Z</time>
      </trkpt>
      <trkpt lat="50.66769" lon="1.63564">
        <ele>44.2</ele>
        <time>2020-06-22T13:28:10Z</time>
      </trkpt>
      <trkpt lat="50.66769" lon="1.63565">
        <ele>44.2</ele>
        <time>2020-06-22T13:28:11Z</time>
      </trkpt>
      <trkpt lat="50.66769" lon="1.63565">
        <ele>44.1</ele>
        <time>2020-06-22T13:28:12Z</time>
      </trkpt>
      <trkpt lat="50.66769" lon="1.63565">
        <ele>44.1</ele>
        <time>2020-06-22T13:28:13Z</time>
      </trkpt>
      <trkpt lat="50.66769" lon="1.63556">
        <ele>43.9</ele>
        <time>2020-06-22T13:28:39Z</time>
      </trkpt>
      <trkpt lat="50.66769" lon="1.63556">
        <ele>43.9</ele>
        <time>2020-06-22T13:28:40Z</time>
      </trkpt>
      <trkpt lat="50.6677" lon="1.63556">
        <ele>43.9</ele>
        <time>2020-06-22T13:28:41Z</time>
      </trkpt>
      <trkpt lat="50.6677" lon="1.63555">
        <ele>43.9</ele>
        <time>2020-06-22T13:28:42Z</time>
      </trkpt>
      <trkpt lat="50.6677" lon="1.63555">
        <ele>43.9</ele>
        <time>2020-06-22T13:28:43Z</time>
      </trkpt>
      <trkpt lat="50.6677" lon="1.63555">
        <ele>43.9</ele>
        <time>2020-06-22T13:28:44Z</time>
      </trkpt>
      <trkpt lat="50.66769" lon="1.63554">
        <ele>44</ele>
        <time>2020-06-22T13:28:45Z</time>
      </trkpt>
      <trkpt lat="50.66769" lon="1.63554">
        <ele>43.9</ele>
        <time>2020-06-22T13:28:46Z</time>
      </trkpt>
      <trkpt lat="50.66769" lon="1.63554">
        <ele>43.9</ele>
        <time>2020-06-22T13:28:47Z</time>
      </trkpt>
      <trkpt lat="50.66769" lon="1.63553">
        <ele>43.9</ele>
        <time>2020-06-22T13:28:48Z</time>
      </trkpt>
      <trkpt lat="50.66769" lon="1.63553">
        <ele>43.9</ele>
        <time>2020-06-22T13:28:49Z</time>
      </trkpt>
      <trkpt lat="50.66769" lon="1.63553">
        <ele>43.9</ele>
        <time>2020-06-22T13:28:50Z</time>
      </trkpt>
      <trkpt lat="50.6677" lon="1.63552">
        <ele>43.9</ele>
        <time>2020-06-22T13:28:51Z</time>
      </trkpt>
      <trkpt lat="50.6677" lon="1.63553">
        <ele>43.9</ele>
        <time>2020-06-22T13:28:52Z</time>
      </trkpt>
      <trkpt lat="50.6677" lon="1.63553">
        <ele>43.9</ele>
        <time>2020-06-22T13:28:53Z</time>
      </trkpt>
      <trkpt lat="50.6677" lon="1.63554">
        <ele>43.9</ele>
        <time>2020-06-22T13:28:54Z</time>
      </trkpt>
      <trkpt lat="50.6677" lon="1.63555">
        <ele>43.9</ele>
        <time>2020-06-22T13:28:55Z</time>
      </trkpt>
      <trkpt lat="50.6677" lon="1.63555">
        <ele>43.9</ele>
        <time>2020-06-22T13:28:56Z</time>
      </trkpt>
      <trkpt lat="50.6677" lon="1.63555">
        <ele>43.9</ele>
        <time>2020-06-22T13:28:57Z</time>
      </trkpt>
      <trkpt lat="50.6677" lon="1.63555">
        <ele>43.9</ele>
        <time>2020-06-22T13:28:58Z</time>
      </trkpt>
      <trkpt lat="50.66769" lon="1.63555">
        <ele>43.9</ele>
        <time>2020-06-22T13:28:59Z</time>
      </trkpt>
      <trkpt lat="50.66768" lon="1.63554">
        <ele>44</ele>
        <time>2020-06-22T13:29:00Z</time>
      </trkpt>
      <trkpt lat="50.66768" lon="1.63554">
        <ele>44</ele>
        <time>2020-06-22T13:29:01Z</time>
      </trkpt>
      <trkpt lat="50.66768" lon="1.63554">
        <ele>44</ele>
        <time>2020-06-22T13:29:02Z</time>
      </trkpt>
      <trkpt lat="50.66768" lon="1.63554">
        <ele>44</ele>
        <time>2020-06-22T13:29:03Z</time>
      </trkpt>
      <trkpt lat="50.66767" lon="1.63554">
        <ele>44</ele>
        <time>2020-06-22T13:29:04Z</time>
      </trkpt>
      <trkpt lat="50.66766" lon="1.63556">
        <ele>44.1</ele>
        <time>2020-06-22T13:29:05Z</time>
      </trkpt>
      <trkpt lat="50.66766" lon="1.63556">
        <ele>44.2</ele>
        <time>2020-06-22T13:29:06Z</time>
      </trkpt>
      <trkpt lat="50.66766" lon="1.63557">
        <ele>44.2</ele>
        <time>2020-06-22T13:29:07Z</time>
      </trkpt>
      <trkpt lat="50.66766" lon="1.63557">
        <ele>44.2</ele>
        <time>2020-06-22T13:29:08Z</time>
      </trkpt>
      <trkpt lat="50.66765" lon="1.63558">
        <ele>44.2</ele>
        <time>2020-06-22T13:29:09Z</time>
      </trkpt>
      <trkpt lat="50.66766" lon="1.63558">
        <ele>44.2</ele>
        <time>2020-06-22T13:29:10Z</time>
      </trkpt>
      <trkpt lat="50.66766" lon="1.63559">
        <ele>44.2</ele>
        <time>2020-06-22T13:29:11Z</time>
      </trkpt>
      <trkpt lat="50.66766" lon="1.6356">
        <ele>44.2</ele>
        <time>2020-06-22T13:29:12Z</time>
      </trkpt>
      <trkpt lat="50.66766" lon="1.6356">
        <ele>44.2</ele>
        <time>2020-06-22T13:29:13Z</time>
      </trkpt>
      <trkpt lat="50.66766" lon="1.63561">
        <ele>44.2</ele>
        <time>2020-06-22T13:29:14Z</time>
      </trkpt>
      <trkpt lat="50.66766" lon="1.63561">
        <ele>44.2</ele>
        <time>2020-06-22T13:29:15Z</time>
      </trkpt>
      <trkpt lat="50.66766" lon="1.63561">
        <ele>44.2</ele>
        <time>2020-06-22T13:29:16Z</time>
      </trkpt>
      <trkpt lat="50.66766" lon="1.6356">
        <ele>44.2</ele>
        <time>2020-06-22T13:29:17Z</time>
      </trkpt>
      <trkpt lat="50.66767" lon="1.63558">
        <ele>44.1</ele>
        <time>2020-06-22T13:29:18Z</time>
      </trkpt>
      <trkpt lat="50.66767" lon="1.63558">
        <ele>44.1</ele>
        <time>2020-06-22T13:29:19Z</time>
      </trkpt>
      <trkpt lat="50.66767" lon="1.63557">
        <ele>44.1</ele>
        <time>2020-06-22T13:29:20Z</time>
      </trkpt>
      <trkpt lat="50.66768" lon="1.63557">
        <ele>44.1</ele>
        <time>2020-06-22T13:29:21Z</time>
      </trkpt>
      <trkpt lat="50.66769" lon="1.63556">
        <ele>44.1</ele>
        <time>2020-06-22T13:29:22Z</time>
      </trkpt>
      <trkpt lat="50.66769" lon="1.63557">
        <ele>43.9</ele>
        <time>2020-06-22T13:29:23Z</time>
      </trkpt>
      <trkpt lat="50.66769" lon="1.63557">
        <ele>43.9</ele>
        <time>2020-06-22T13:29:24Z</time>
      </trkpt>
      <trkpt lat="50.6677" lon="1.63557">
        <ele>43.9</ele>
        <time>2020-06-22T13:29:25Z</time>
      </trkpt>
      <trkpt lat="50.6677" lon="1.63557">
        <ele>43.9</ele>
        <time>2020-06-22T13:29:26Z</time>
      </trkpt>
      <trkpt lat="50.66771" lon="1.63557">
        <ele>43.9</ele>
        <time>2020-06-22T13:29:27Z</time>
      </trkpt>
      <trkpt lat="50.66771" lon="1.63558">
        <ele>43.9</ele>
        <time>2020-06-22T13:29:28Z</time>
      </trkpt>
      <trkpt lat="50.66771" lon="1.63558">
        <ele>43.9</ele>
        <time>2020-06-22T13:29:29Z</time>
      </trkpt>
      <trkpt lat="50.66771" lon="1.63558">
        <ele>43.9</ele>
        <time>2020-06-22T13:29:30Z</time>
      </trkpt>
      <trkpt lat="50.66772" lon="1.63557">
        <ele>43.8</ele>
        <time>2020-06-22T13:29:31Z</time>
      </trkpt>
      <trkpt lat="50.66772" lon="1.63556">
        <ele>43.8</ele>
        <time>2020-06-22T13:29:32Z</time>
      </trkpt>
      <trkpt lat="50.66773" lon="1.63556">
        <ele>43.8</ele>
        <time>2020-06-22T13:29:33Z</time>
      </trkpt>
      <trkpt lat="50.66773" lon="1.63556">
        <ele>43.8</ele>
        <time>2020-06-22T13:29:34Z</time>
      </trkpt>
      <trkpt lat="50.66773" lon="1.63557">
        <ele>43.8</ele>
        <time>2020-06-22T13:29:35Z</time>
      </trkpt>
      <trkpt lat="50.66773" lon="1.63556">
        <ele>43.8</ele>
        <time>2020-06-22T13:29:36Z</time>
      </trkpt>
      <trkpt lat="50.66773" lon="1.63556">
        <ele>43.8</ele>
        <time>2020-06-22T13:29:37Z</time>
      </trkpt>
      <trkpt lat="50.66773" lon="1.63555">
        <ele>43.8</ele>
        <time>2020-06-22T13:29:38Z</time>
      </trkpt>
      <trkpt lat="50.66773" lon="1.63557">
        <ele>43.8</ele>
        <time>2020-06-22T13:29:39Z</time>
      </trkpt>
      <trkpt lat="50.66773" lon="1.63558">
        <ele>43.8</ele>
        <time>2020-06-22T13:29:40Z</time>
      </trkpt>
      <trkpt lat="50.66773" lon="1.63559">
        <ele>43.8</ele>
        <time>2020-06-22T13:29:41Z</time>
      </trkpt>
      <trkpt lat="50.66772" lon="1.6356">
        <ele>43.9</ele>
        <time>2020-06-22T13:29:42Z</time>
      </trkpt>
      <trkpt lat="50.66772" lon="1.63561">
        <ele>43.9</ele>
        <time>2020-06-22T13:29:43Z</time>
      </trkpt>
      <trkpt lat="50.66771" lon="1.63562">
        <ele>44</ele>
        <time>2020-06-22T13:29:44Z</time>
      </trkpt>
      <trkpt lat="50.66771" lon="1.63563">
        <ele>44</ele>
        <time>2020-06-22T13:30:42Z</time>
      </trkpt>
      <trkpt lat="50.66771" lon="1.63564">
        <ele>44.1</ele>
        <time>2020-06-22T13:30:43Z</time>
      </trkpt>
      <trkpt lat="50.6677" lon="1.63565">
        <ele>44.1</ele>
        <time>2020-06-22T13:30:44Z</time>
      </trkpt>
      <trkpt lat="50.6677" lon="1.63566">
        <ele>44.1</ele>
        <time>2020-06-22T13:30:45Z</time>
      </trkpt>
      <trkpt lat="50.6677" lon="1.63566">
        <ele>44.1</ele>
        <time>2020-06-22T13:30:46Z</time>
      </trkpt>
      <trkpt lat="50.6677" lon="1.63565">
        <ele>44.1</ele>
        <time>2020-06-22T13:30:47Z</time>
      </trkpt>
      <trkpt lat="50.6677" lon="1.63564">
        <ele>44.1</ele>
        <time>2020-06-22T13:30:48Z</time>
      </trkpt>
      <trkpt lat="50.6677" lon="1.63564">
        <ele>44.1</ele>
        <time>2020-06-22T13:30:49Z</time>
      </trkpt>
      <trkpt lat="50.6677" lon="1.63564">
        <ele>44.1</ele>
        <time>2020-06-22T13:30:50Z</time>
      </trkpt>
      <trkpt lat="50.6677" lon="1.63565">
        <ele>44.1</ele>
        <time>2020-06-22T13:30:51Z</time>
      </trkpt>
      <trkpt lat="50.6677" lon="1.63564">
        <ele>44.1</ele>
        <time>2020-06-22T13:30:52Z</time>
      </trkpt>
      <trkpt lat="50.6677" lon="1.63563">
        <ele>44</ele>
        <time>2020-06-22T13:30:53Z</time>
      </trkpt>
      <trkpt lat="50.6677" lon="1.63563">
        <ele>44</ele>
        <time>2020-06-22T13:30:54Z</time>
      </trkpt>
      <trkpt lat="50.6677" lon="1.63563">
        <ele>44</ele>
        <time>2020-06-22T13:30:55Z</time>
      </trkpt>
      <trkpt lat="50.66771" lon="1.63563">
        <ele>44.1</ele>
        <time>2020-06-22T13:30:56Z</time>
      </trkpt>
      <trkpt lat="50.6677" lon="1.63564">
        <ele>44.1</ele>
        <time>2020-06-22T13:30:57Z</time>
      </trkpt>
      <trkpt lat="50.6677" lon="1.63565">
        <ele>44.1</ele>
        <time>2020-06-22T13:30:58Z</time>
      </trkpt>
      <trkpt lat="50.6677" lon="1.63566">
        <ele>44.1</ele>
        <time>2020-06-22T13:30:59Z</time>
      </trkpt>
      <trkpt lat="50.6677" lon="1.63567">
        <ele>44.1</ele>
        <time>2020-06-22T13:31:00Z</time>
      </trkpt>
      <trkpt lat="50.6677" lon="1.63569">
        <ele>44.2</ele>
        <time>2020-06-22T13:31:01Z</time>
      </trkpt>
      <trkpt lat="50.66769" lon="1.63569">
        <ele>44.2</ele>
        <time>2020-06-22T13:31:02Z</time>
      </trkpt>
      <trkpt lat="50.66769" lon="1.6357">
        <ele>44.2</ele>
        <time>2020-06-22T13:31:03Z</time>
      </trkpt>
      <trkpt lat="50.66769" lon="1.63572">
        <ele>44.3</ele>
        <time>2020-06-22T13:31:04Z</time>
      </trkpt>
      <trkpt lat="50.66768" lon="1.63572">
        <ele>44.5</ele>
        <time>2020-06-22T13:31:05Z</time>
      </trkpt>
      <trkpt lat="50.66768" lon="1.63571">
        <ele>44.3</ele>
        <time>2020-06-22T13:31:06Z</time>
      </trkpt>
      <trkpt lat="50.66768" lon="1.6357">
        <ele>44.3</ele>
        <time>2020-06-22T13:31:07Z</time>
      </trkpt>
      <trkpt lat="50.66768" lon="1.6357">
        <ele>44.3</ele>
        <time>2020-06-22T13:31:08Z</time>
      </trkpt>
      <trkpt lat="50.66768" lon="1.6357">
        <ele>44.3</ele>
        <time>2020-06-22T13:31:09Z</time>
      </trkpt>
      <trkpt lat="50.66768" lon="1.6357">
        <ele>44.3</ele>
        <time>2020-06-22T13:31:10Z</time>
      </trkpt>
      <trkpt lat="50.66767" lon="1.63568">
        <ele>44.3</ele>
        <time>2020-06-22T13:31:11Z</time>
      </trkpt>
      <trkpt lat="50.66767" lon="1.63567">
        <ele>44.2</ele>
        <time>2020-06-22T13:31:12Z</time>
      </trkpt>
      <trkpt lat="50.66767" lon="1.63566">
        <ele>44.2</ele>
        <time>2020-06-22T13:31:13Z</time>
      </trkpt>
      <trkpt lat="50.66766" lon="1.63563">
        <ele>44.3</ele>
        <time>2020-06-22T13:31:14Z</time>
      </trkpt>
      <trkpt lat="50.66766" lon="1.63563">
        <ele>44.3</ele>
        <time>2020-06-22T13:31:15Z</time>
      </trkpt>
      <trkpt lat="50.66766" lon="1.63564">
        <ele>44.3</ele>
        <time>2020-06-22T13:31:16Z</time>
      </trkpt>
      <trkpt lat="50.66765" lon="1.63564">
        <ele>44.3</ele>
        <time>2020-06-22T13:31:17Z</time>
      </trkpt>
      <trkpt lat="50.66765" lon="1.63565">
        <ele>44.3</ele>
        <time>2020-06-22T13:31:18Z</time>
      </trkpt>
      <trkpt lat="50.66765" lon="1.63566">
        <ele>44.3</ele>
        <time>2020-06-22T13:31:19Z</time>
      </trkpt>
      <trkpt lat="50.66765" lon="1.63567">
        <ele>44.3</ele>
        <time>2020-06-22T13:31:20Z</time>
      </trkpt>
      <trkpt lat="50.66764" lon="1.63567">
        <ele>44.3</ele>
        <time>2020-06-22T13:31:21Z</time>
      </trkpt>
      <trkpt lat="50.66764" lon="1.63568">
        <ele>44.3</ele>
        <time>2020-06-22T13:31:22Z</time>
      </trkpt>
      <trkpt lat="50.66764" lon="1.63567">
        <ele>44.3</ele>
        <time>2020-06-22T13:31:23Z</time>
      </trkpt>
      <trkpt lat="50.66764" lon="1.63565">
        <ele>44.3</ele>
        <time>2020-06-22T13:31:24Z</time>
      </trkpt>
      <trkpt lat="50.66764" lon="1.63565">
        <ele>44.3</ele>
        <time>2020-06-22T13:31:25Z</time>
      </trkpt>
      <trkpt lat="50.66765" lon="1.63564">
        <ele>44.3</ele>
        <time>2020-06-22T13:31:26Z</time>
      </trkpt>
      <trkpt lat="50.66764" lon="1.63566">
        <ele>44.3</ele>
        <time>2020-06-22T13:31:27Z</time>
      </trkpt>
      <trkpt lat="50.66765" lon="1.63564">
        <ele>44.3</ele>
        <time>2020-06-22T13:31:28Z</time>
      </trkpt>
      <trkpt lat="50.66767" lon="1.6356">
        <ele>44.1</ele>
        <time>2020-06-22T13:31:29Z</time>
      </trkpt>
      <trkpt lat="50.66768" lon="1.63559">
        <ele>44.1</ele>
        <time>2020-06-22T13:31:30Z</time>
      </trkpt>
      <trkpt lat="50.66769" lon="1.63557">
        <ele>44.1</ele>
        <time>2020-06-22T13:31:31Z</time>
      </trkpt>
      <trkpt lat="50.66769" lon="1.63557">
        <ele>44.1</ele>
        <time>2020-06-22T13:31:32Z</time>
      </trkpt>
      <trkpt lat="50.66769" lon="1.63557">
        <ele>44.1</ele>
        <time>2020-06-22T13:31:33Z</time>
      </trkpt>
      <trkpt lat="50.66769" lon="1.63557">
        <ele>43.9</ele>
        <time>2020-06-22T13:31:34Z</time>
      </trkpt>
      <trkpt lat="50.66769" lon="1.63557">
        <ele>43.9</ele>
        <time>2020-06-22T13:31:35Z</time>
      </trkpt>
      <trkpt lat="50.66769" lon="1.63557">
        <ele>43.9</ele>
        <time>2020-06-22T13:31:36Z</time>
      </trkpt>
      <trkpt lat="50.66769" lon="1.63557">
        <ele>43.9</ele>
        <time>2020-06-22T13:31:37Z</time>
      </trkpt>
      <trkpt lat="50.66769" lon="1.63557">
        <ele>43.9</ele>
        <time>2020-06-22T13:31:38Z</time>
      </trkpt>
      <trkpt lat="50.66771" lon="1.63563">
        <ele>44.1</ele>
        <time>2020-06-22T13:31:46Z</time>
      </trkpt>
      <trkpt lat="50.66772" lon="1.63564">
        <ele>44</ele>
        <time>2020-06-22T13:31:47Z</time>
      </trkpt>
      <trkpt lat="50.66772" lon="1.63563">
        <ele>44</ele>
        <time>2020-06-22T13:31:48Z</time>
      </trkpt>
      <trkpt lat="50.66772" lon="1.63564">
        <ele>44</ele>
        <time>2020-06-22T13:31:49Z</time>
      </trkpt>
      <trkpt lat="50.66773" lon="1.63566">
        <ele>44</ele>
        <time>2020-06-22T13:31:50Z</time>
      </trkpt>
      <trkpt lat="50.66773" lon="1.63566">
        <ele>44</ele>
        <time>2020-06-22T13:31:51Z</time>
      </trkpt>
      <trkpt lat="50.66773" lon="1.63567">
        <ele>44</ele>
        <time>2020-06-22T13:31:52Z</time>
      </trkpt>
      <trkpt lat="50.66773" lon="1.63566">
        <ele>44</ele>
        <time>2020-06-22T13:31:53Z</time>
      </trkpt>
      <trkpt lat="50.66773" lon="1.63566">
        <ele>44</ele>
        <time>2020-06-22T13:31:54Z</time>
      </trkpt>
      <trkpt lat="50.66773" lon="1.63567">
        <ele>44</ele>
        <time>2020-06-22T13:31:55Z</time>
      </trkpt>
      <trkpt lat="50.66773" lon="1.63567">
        <ele>44</ele>
        <time>2020-06-22T13:31:56Z</time>
      </trkpt>
      <trkpt lat="50.66774" lon="1.63567">
        <ele>44</ele>
        <time>2020-06-22T13:31:57Z</time>
      </trkpt>
      <trkpt lat="50.66774" lon="1.63567">
        <ele>44</ele>
        <time>2020-06-22T13:31:58Z</time>
      </trkpt>
      <trkpt lat="50.66773" lon="1.63567">
        <ele>44</ele>
        <time>2020-06-22T13:31:59Z</time>
      </trkpt>
      <trkpt lat="50.66772" lon="1.63567">
        <ele>44</ele>
        <time>2020-06-22T13:32:00Z</time>
      </trkpt>
      <trkpt lat="50.66772" lon="1.63568">
        <ele>44.2</ele>
        <time>2020-06-22T13:32:01Z</time>
      </trkpt>
      <trkpt lat="50.66771" lon="1.6357">
        <ele>44.2</ele>
        <time>2020-06-22T13:32:02Z</time>
      </trkpt>
      <trkpt lat="50.6677" lon="1.63571">
        <ele>44.2</ele>
        <time>2020-06-22T13:32:03Z</time>
      </trkpt>
      <trkpt lat="50.66768" lon="1.63573">
        <ele>44.5</ele>
        <time>2020-06-22T13:32:04Z</time>
      </trkpt>
      <trkpt lat="50.66767" lon="1.63573">
        <ele>44.5</ele>
        <time>2020-06-22T13:32:05Z</time>
      </trkpt>
      <trkpt lat="50.66765" lon="1.63574">
        <ele>44.6</ele>
        <time>2020-06-22T13:32:06Z</time>
      </trkpt>
      <trkpt lat="50.66762" lon="1.63574">
        <ele>44.7</ele>
        <time>2020-06-22T13:32:07Z</time>
      </trkpt>
      <trkpt lat="50.66761" lon="1.63574">
        <ele>44.7</ele>
        <time>2020-06-22T13:32:08Z</time>
      </trkpt>
      <trkpt lat="50.66759" lon="1.63575">
        <ele>44.8</ele>
        <time>2020-06-22T13:32:09Z</time>
      </trkpt>
      <trkpt lat="50.66758" lon="1.63576">
        <ele>44.8</ele>
        <time>2020-06-22T13:32:10Z</time>
      </trkpt>
      <trkpt lat="50.66757" lon="1.63577">
        <ele>45.1</ele>
        <time>2020-06-22T13:32:11Z</time>
      </trkpt>
      <trkpt lat="50.66755" lon="1.63576">
        <ele>45.2</ele>
        <time>2020-06-22T13:32:12Z</time>
      </trkpt>
      <trkpt lat="50.66752" lon="1.63577">
        <ele>45.3</ele>
        <time>2020-06-22T13:32:13Z</time>
      </trkpt>
      <trkpt lat="50.6675" lon="1.63577">
        <ele>45.3</ele>
        <time>2020-06-22T13:32:14Z</time>
      </trkpt>
      <trkpt lat="50.66747" lon="1.63577">
        <ele>45.4</ele>
        <time>2020-06-22T13:32:15Z</time>
      </trkpt>
      <trkpt lat="50.66743" lon="1.63576">
        <ele>45.4</ele>
        <time>2020-06-22T13:32:16Z</time>
      </trkpt>
      <trkpt lat="50.6674" lon="1.63574">
        <ele>45.5</ele>
        <time>2020-06-22T13:32:17Z</time>
      </trkpt>
      <trkpt lat="50.66739" lon="1.63573">
        <ele>45.5</ele>
        <time>2020-06-22T13:32:18Z</time>
      </trkpt>
      <trkpt lat="50.66738" lon="1.63571">
        <ele>45.6</ele>
        <time>2020-06-22T13:32:19Z</time>
      </trkpt>
      <trkpt lat="50.66737" lon="1.6357">
        <ele>45.6</ele>
        <time>2020-06-22T13:32:20Z</time>
      </trkpt>
      <trkpt lat="50.66736" lon="1.6357">
        <ele>45.7</ele>
        <time>2020-06-22T13:32:21Z</time>
      </trkpt>
      <trkpt lat="50.66735" lon="1.63569">
        <ele>45.7</ele>
        <time>2020-06-22T13:32:22Z</time>
      </trkpt>
      <trkpt lat="50.66735" lon="1.63569">
        <ele>45.7</ele>
        <time>2020-06-22T13:32:23Z</time>
      </trkpt>
      <trkpt lat="50.66736" lon="1.63568">
        <ele>45.7</ele>
        <time>2020-06-22T13:32:24Z</time>
      </trkpt>
      <trkpt lat="50.66736" lon="1.63567">
        <ele>45.6</ele>
        <time>2020-06-22T13:32:25Z</time>
      </trkpt>
      <trkpt lat="50.66737" lon="1.63566">
        <ele>45.5</ele>
        <time>2020-06-22T13:32:26Z</time>
      </trkpt>
      <trkpt lat="50.66738" lon="1.63566">
        <ele>45.5</ele>
        <time>2020-06-22T13:32:27Z</time>
      </trkpt>
      <trkpt lat="50.66738" lon="1.63565">
        <ele>45.5</ele>
        <time>2020-06-22T13:32:28Z</time>
      </trkpt>
      <trkpt lat="50.66738" lon="1.63565">
        <ele>45.5</ele>
        <time>2020-06-22T13:32:29Z</time>
      </trkpt>
      <trkpt lat="50.66739" lon="1.63565">
        <ele>45.4</ele>
        <time>2020-06-22T13:32:30Z</time>
      </trkpt>
      <trkpt lat="50.6674" lon="1.63565">
        <ele>45.4</ele>
        <time>2020-06-22T13:32:31Z</time>
      </trkpt>
      <trkpt lat="50.66741" lon="1.63565">
        <ele>45.4</ele>
        <time>2020-06-22T13:32:32Z</time>
      </trkpt>
      <trkpt lat="50.66741" lon="1.63565">
        <ele>45.4</ele>
        <time>2020-06-22T13:32:33Z</time>
      </trkpt>
      <trkpt lat="50.66741" lon="1.63565">
        <ele>45.4</ele>
        <time>2020-06-22T13:32:34Z</time>
      </trkpt>
      <trkpt lat="50.66741" lon="1.63565">
        <ele>45.4</ele>
        <time>2020-06-22T13:32:35Z</time>
      </trkpt>
      <trkpt lat="50.66741" lon="1.63565">
        <ele>45.4</ele>
        <time>2020-06-22T13:32:36Z</time>
      </trkpt>
      <trkpt lat="50.66741" lon="1.63565">
        <ele>45.4</ele>
        <time>2020-06-22T13:32:37Z</time>
      </trkpt>
      <trkpt lat="50.66742" lon="1.63564">
        <ele>45.4</ele>
        <time>2020-06-22T13:32:38Z</time>
      </trkpt>
      <trkpt lat="50.66743" lon="1.63565">
        <ele>45.3</ele>
        <time>2020-06-22T13:32:39Z</time>
      </trkpt>
      <trkpt lat="50.66743" lon="1.63565">
        <ele>45.3</ele>
        <time>2020-06-22T13:32:40Z</time>
      </trkpt>
      <trkpt lat="50.66743" lon="1.63564">
        <ele>45.3</ele>
        <time>2020-06-22T13:32:41Z</time>
      </trkpt>
      <trkpt lat="50.66743" lon="1.63564">
        <ele>45.3</ele>
        <time>2020-06-22T13:32:42Z</time>
      </trkpt>
      <trkpt lat="50.66742" lon="1.63563">
        <ele>45.3</ele>
        <time>2020-06-22T13:32:43Z</time>
      </trkpt>
      <trkpt lat="50.66743" lon="1.63563">
        <ele>45.3</ele>
        <time>2020-06-22T13:32:44Z</time>
      </trkpt>
      <trkpt lat="50.66743" lon="1.63562">
        <ele>45.3</ele>
        <time>2020-06-22T13:32:45Z</time>
      </trkpt>
      <trkpt lat="50.66742" lon="1.63562">
        <ele>45.3</ele>
        <time>2020-06-22T13:32:46Z</time>
      </trkpt>
      <trkpt lat="50.66743" lon="1.63562">
        <ele>45.3</ele>
        <time>2020-06-22T13:32:47Z</time>
      </trkpt>
      <trkpt lat="50.66743" lon="1.63561">
        <ele>45.3</ele>
        <time>2020-06-22T13:32:48Z</time>
      </trkpt>
      <trkpt lat="50.66744" lon="1.6356">
        <ele>45.3</ele>
        <time>2020-06-22T13:32:49Z</time>
      </trkpt>
      <trkpt lat="50.66745" lon="1.63559">
        <ele>45.1</ele>
        <time>2020-06-22T13:32:50Z</time>
      </trkpt>
      <trkpt lat="50.66745" lon="1.63558">
        <ele>45.1</ele>
        <time>2020-06-22T13:32:51Z</time>
      </trkpt>
      <trkpt lat="50.66745" lon="1.63557">
        <ele>45.1</ele>
        <time>2020-06-22T13:32:52Z</time>
      </trkpt>
      <trkpt lat="50.66746" lon="1.63556">
        <ele>45.1</ele>
        <time>2020-06-22T13:32:53Z</time>
      </trkpt>
      <trkpt lat="50.66747" lon="1.63555">
        <ele>45.1</ele>
        <time>2020-06-22T13:32:54Z</time>
      </trkpt>
      <trkpt lat="50.66747" lon="1.63553">
        <ele>45</ele>
        <time>2020-06-22T13:32:55Z</time>
      </trkpt>
      <trkpt lat="50.66748" lon="1.63551">
        <ele>45</ele>
        <time>2020-06-22T13:32:56Z</time>
      </trkpt>
      <trkpt lat="50.66749" lon="1.63551">
        <ele>45</ele>
        <time>2020-06-22T13:32:57Z</time>
      </trkpt>
      <trkpt lat="50.66749" lon="1.63551">
        <ele>45</ele>
        <time>2020-06-22T13:32:58Z</time>
      </trkpt>
      <trkpt lat="50.6675" lon="1.6355">
        <ele>45</ele>
        <time>2020-06-22T13:32:59Z</time>
      </trkpt>
      <trkpt lat="50.6675" lon="1.6355">
        <ele>44.8</ele>
        <time>2020-06-22T13:33:00Z</time>
      </trkpt>
      <trkpt lat="50.6675" lon="1.6355">
        <ele>44.8</ele>
        <time>2020-06-22T13:33:01Z</time>
      </trkpt>
      <trkpt lat="50.66751" lon="1.63548">
        <ele>44.8</ele>
        <time>2020-06-22T13:33:02Z</time>
      </trkpt>
      <trkpt lat="50.66751" lon="1.63547">
        <ele>44.8</ele>
        <time>2020-06-22T13:33:03Z</time>
      </trkpt>
      <trkpt lat="50.66751" lon="1.63548">
        <ele>44.8</ele>
        <time>2020-06-22T13:33:04Z</time>
      </trkpt>
      <trkpt lat="50.66751" lon="1.63548">
        <ele>44.8</ele>
        <time>2020-06-22T13:33:05Z</time>
      </trkpt>
      <trkpt lat="50.66751" lon="1.63549">
        <ele>44.8</ele>
        <time>2020-06-22T13:33:06Z</time>
      </trkpt>
      <trkpt lat="50.66751" lon="1.6355">
        <ele>44.8</ele>
        <time>2020-06-22T13:33:07Z</time>
      </trkpt>
      <trkpt lat="50.66751" lon="1.63551">
        <ele>44.8</ele>
        <time>2020-06-22T13:33:08Z</time>
      </trkpt>
      <trkpt lat="50.66751" lon="1.63552">
        <ele>44.8</ele>
        <time>2020-06-22T13:33:09Z</time>
      </trkpt>
      <trkpt lat="50.66751" lon="1.63554">
        <ele>44.8</ele>
        <time>2020-06-22T13:33:10Z</time>
      </trkpt>
      <trkpt lat="50.66752" lon="1.63554">
        <ele>44.8</ele>
        <time>2020-06-22T13:33:11Z</time>
      </trkpt>
      <trkpt lat="50.66752" lon="1.63555">
        <ele>44.8</ele>
        <time>2020-06-22T13:33:12Z</time>
      </trkpt>
      <trkpt lat="50.66752" lon="1.63557">
        <ele>44.8</ele>
        <time>2020-06-22T13:33:13Z</time>
      </trkpt>
      <trkpt lat="50.66765" lon="1.63566">
        <ele>44.3</ele>
        <time>2020-06-22T13:33:28Z</time>
      </trkpt>
      <trkpt lat="50.66766" lon="1.63567">
        <ele>44.3</ele>
        <time>2020-06-22T13:33:29Z</time>
      </trkpt>
      <trkpt lat="50.66767" lon="1.63567">
        <ele>44.2</ele>
        <time>2020-06-22T13:33:30Z</time>
      </trkpt>
      <trkpt lat="50.66767" lon="1.63567">
        <ele>44.2</ele>
        <time>2020-06-22T13:33:31Z</time>
      </trkpt>
      <trkpt lat="50.66768" lon="1.63566">
        <ele>44.2</ele>
        <time>2020-06-22T13:33:32Z</time>
      </trkpt>
      <trkpt lat="50.66769" lon="1.63566">
        <ele>44.1</ele>
        <time>2020-06-22T13:33:33Z</time>
      </trkpt>
      <trkpt lat="50.6677" lon="1.63566">
        <ele>44.1</ele>
        <time>2020-06-22T13:33:34Z</time>
      </trkpt>
      <trkpt lat="50.66771" lon="1.63565">
        <ele>44.1</ele>
        <time>2020-06-22T13:33:35Z</time>
      </trkpt>
      <trkpt lat="50.66772" lon="1.63565">
        <ele>44</ele>
        <time>2020-06-22T13:33:36Z</time>
      </trkpt>
      <trkpt lat="50.66773" lon="1.63565">
        <ele>44</ele>
        <time>2020-06-22T13:33:37Z</time>
      </trkpt>
      <trkpt lat="50.66774" lon="1.63565">
        <ele>44</ele>
        <time>2020-06-22T13:33:38Z</time>
      </trkpt>
      <trkpt lat="50.66775" lon="1.63565">
        <ele>43.9</ele>
        <time>2020-06-22T13:33:39Z</time>
      </trkpt>
      <trkpt lat="50.66776" lon="1.63565">
        <ele>43.9</ele>
        <time>2020-06-22T13:33:40Z</time>
      </trkpt>
      <trkpt lat="50.66777" lon="1.63564">
        <ele>43.9</ele>
        <time>2020-06-22T13:33:41Z</time>
      </trkpt>
      <trkpt lat="50.66778" lon="1.63565">
        <ele>43.8</ele>
        <time>2020-06-22T13:33:42Z</time>
      </trkpt>
      <trkpt lat="50.66779" lon="1.63565">
        <ele>43.8</ele>
        <time>2020-06-22T13:33:43Z</time>
      </trkpt>
      <trkpt lat="50.6678" lon="1.63565">
        <ele>43.8</ele>
        <time>2020-06-22T13:33:44Z</time>
      </trkpt>
      <trkpt lat="50.66781" lon="1.63566">
        <ele>43.7</ele>
        <time>2020-06-22T13:33:45Z</time>
      </trkpt>
      <trkpt lat="50.66782" lon="1.63566">
        <ele>43.7</ele>
        <time>2020-06-22T13:33:46Z</time>
      </trkpt>
      <trkpt lat="50.66783" lon="1.63567">
        <ele>43.6</ele>
        <time>2020-06-22T13:33:47Z</time>
      </trkpt>
      <trkpt lat="50.66784" lon="1.63568">
        <ele>43.7</ele>
        <time>2020-06-22T13:33:48Z</time>
      </trkpt>
      <trkpt lat="50.66784" lon="1.63568">
        <ele>43.7</ele>
        <time>2020-06-22T13:33:49Z</time>
      </trkpt>
      <trkpt lat="50.66785" lon="1.63568">
        <ele>43.7</ele>
        <time>2020-06-22T13:33:50Z</time>
      </trkpt>
      <trkpt lat="50.66785" lon="1.63568">
        <ele>43.6</ele>
        <time>2020-06-22T13:33:51Z</time>
      </trkpt>
      <trkpt lat="50.66786" lon="1.63568">
        <ele>43.6</ele>
        <time>2020-06-22T13:33:52Z</time>
      </trkpt>
      <trkpt lat="50.66786" lon="1.63569">
        <ele>43.6</ele>
        <time>2020-06-22T13:33:53Z</time>
      </trkpt>
      <trkpt lat="50.66786" lon="1.63568">
        <ele>43.6</ele>
        <time>2020-06-22T13:33:54Z</time>
      </trkpt>
      <trkpt lat="50.66787" lon="1.63567">
        <ele>43.5</ele>
        <time>2020-06-22T13:33:55Z</time>
      </trkpt>
      <trkpt lat="50.66787" lon="1.63565">
        <ele>43.5</ele>
        <time>2020-06-22T13:33:56Z</time>
      </trkpt>
      <trkpt lat="50.66787" lon="1.63563">
        <ele>43.4</ele>
        <time>2020-06-22T13:33:57Z</time>
      </trkpt>
      <trkpt lat="50.66787" lon="1.63557">
        <ele>43.3</ele>
        <time>2020-06-22T13:33:58Z</time>
      </trkpt>
      <trkpt lat="50.66787" lon="1.63554">
        <ele>43.2</ele>
        <time>2020-06-22T13:33:59Z</time>
      </trkpt>
      <trkpt lat="50.66786" lon="1.6355">
        <ele>43.2</ele>
        <time>2020-06-22T13:34:00Z</time>
      </trkpt>
      <trkpt lat="50.66786" lon="1.63549">
        <ele>43.2</ele>
        <time>2020-06-22T13:34:01Z</time>
      </trkpt>
      <trkpt lat="50.66785" lon="1.63546">
        <ele>43.2</ele>
        <time>2020-06-22T13:34:02Z</time>
      </trkpt>
      <trkpt lat="50.66786" lon="1.63546">
        <ele>43.1</ele>
        <time>2020-06-22T13:34:03Z</time>
      </trkpt>
      <trkpt lat="50.66786" lon="1.63546">
        <ele>43.2</ele>
        <time>2020-06-22T13:34:04Z</time>
      </trkpt>
      <trkpt lat="50.66785" lon="1.63547">
        <ele>43.2</ele>
        <time>2020-06-22T13:34:05Z</time>
      </trkpt>
      <trkpt lat="50.66785" lon="1.63547">
        <ele>43.3</ele>
        <time>2020-06-22T13:34:06Z</time>
      </trkpt>
      <trkpt lat="50.66785" lon="1.63548">
        <ele>43.3</ele>
        <time>2020-06-22T13:34:07Z</time>
      </trkpt>
      <trkpt lat="50.66785" lon="1.63549">
        <ele>43.3</ele>
        <time>2020-06-22T13:34:08Z</time>
      </trkpt>
      <trkpt lat="50.66785" lon="1.6355">
        <ele>43.3</ele>
        <time>2020-06-22T13:34:09Z</time>
      </trkpt>
      <trkpt lat="50.66785" lon="1.63552">
        <ele>43.3</ele>
        <time>2020-06-22T13:34:10Z</time>
      </trkpt>
      <trkpt lat="50.66785" lon="1.63553">
        <ele>43.3</ele>
        <time>2020-06-22T13:34:11Z</time>
      </trkpt>
      <trkpt lat="50.66785" lon="1.63554">
        <ele>43.3</ele>
        <time>2020-06-22T13:34:12Z</time>
      </trkpt>
      <trkpt lat="50.66785" lon="1.63554">
        <ele>43.3</ele>
        <time>2020-06-22T13:34:13Z</time>
      </trkpt>
      <trkpt lat="50.66785" lon="1.63554">
        <ele>43.3</ele>
        <time>2020-06-22T13:34:14Z</time>
      </trkpt>
      <trkpt lat="50.66785" lon="1.63554">
        <ele>43.3</ele>
        <time>2020-06-22T13:34:15Z</time>
      </trkpt>
      <trkpt lat="50.66785" lon="1.63554">
        <ele>43.3</ele>
        <time>2020-06-22T13:34:16Z</time>
      </trkpt>
      <trkpt lat="50.66785" lon="1.63554">
        <ele>43.3</ele>
        <time>2020-06-22T13:34:17Z</time>
      </trkpt>
      <trkpt lat="50.66785" lon="1.63555">
        <ele>43.4</ele>
        <time>2020-06-22T13:34:18Z</time>
      </trkpt>
      <trkpt lat="50.66784" lon="1.63556">
        <ele>43.4</ele>
        <time>2020-06-22T13:34:19Z</time>
      </trkpt>
      <trkpt lat="50.66783" lon="1.63557">
        <ele>43.4</ele>
        <time>2020-06-22T13:34:20Z</time>
      </trkpt>
      <trkpt lat="50.66783" lon="1.63558">
        <ele>43.4</ele>
        <time>2020-06-22T13:34:21Z</time>
      </trkpt>
      <trkpt lat="50.66783" lon="1.63558">
        <ele>43.4</ele>
        <time>2020-06-22T13:34:22Z</time>
      </trkpt>
      <trkpt lat="50.66779" lon="1.63566">
        <ele>43.8</ele>
        <time>2020-06-22T13:34:49Z</time>
      </trkpt>
      <trkpt lat="50.66779" lon="1.63566">
        <ele>43.8</ele>
        <time>2020-06-22T13:34:50Z</time>
      </trkpt>
      <trkpt lat="50.66779" lon="1.63566">
        <ele>43.8</ele>
        <time>2020-06-22T13:34:51Z</time>
      </trkpt>
      <trkpt lat="50.66779" lon="1.63566">
        <ele>43.8</ele>
        <time>2020-06-22T13:34:52Z</time>
      </trkpt>
      <trkpt lat="50.66779" lon="1.63567">
        <ele>43.8</ele>
        <time>2020-06-22T13:34:53Z</time>
      </trkpt>
      <trkpt lat="50.66779" lon="1.63568">
        <ele>43.9</ele>
        <time>2020-06-22T13:34:54Z</time>
      </trkpt>
      <trkpt lat="50.66779" lon="1.63568">
        <ele>43.8</ele>
        <time>2020-06-22T13:34:55Z</time>
      </trkpt>
      <trkpt lat="50.66779" lon="1.63567">
        <ele>43.8</ele>
        <time>2020-06-22T13:34:56Z</time>
      </trkpt>
      <trkpt lat="50.66779" lon="1.63566">
        <ele>43.8</ele>
        <time>2020-06-22T13:34:57Z</time>
      </trkpt>
      <trkpt lat="50.66779" lon="1.63566">
        <ele>43.8</ele>
        <time>2020-06-22T13:34:58Z</time>
      </trkpt>
      <trkpt lat="50.66779" lon="1.63567">
        <ele>43.8</ele>
        <time>2020-06-22T13:34:59Z</time>
      </trkpt>
      <trkpt lat="50.6678" lon="1.63567">
        <ele>43.8</ele>
        <time>2020-06-22T13:35:00Z</time>
      </trkpt>
      <trkpt lat="50.6678" lon="1.63567">
        <ele>43.8</ele>
        <time>2020-06-22T13:35:01Z</time>
      </trkpt>
      <trkpt lat="50.6678" lon="1.63567">
        <ele>43.7</ele>
        <time>2020-06-22T13:35:02Z</time>
      </trkpt>
      <trkpt lat="50.6678" lon="1.63567">
        <ele>43.7</ele>
        <time>2020-06-22T13:35:03Z</time>
      </trkpt>
      <trkpt lat="50.6678" lon="1.63567">
        <ele>43.7</ele>
        <time>2020-06-22T13:35:04Z</time>
      </trkpt>
      <trkpt lat="50.66781" lon="1.63567">
        <ele>43.7</ele>
        <time>2020-06-22T13:35:05Z</time>
      </trkpt>
      <trkpt lat="50.66781" lon="1.63567">
        <ele>43.7</ele>
        <time>2020-06-22T13:35:06Z</time>
      </trkpt>
      <trkpt lat="50.66781" lon="1.63567">
        <ele>43.7</ele>
        <time>2020-06-22T13:35:07Z</time>
      </trkpt>
      <trkpt lat="50.66781" lon="1.63567">
        <ele>43.7</ele>
        <time>2020-06-22T13:35:08Z</time>
      </trkpt>
      <trkpt lat="50.66781" lon="1.63567">
        <ele>43.7</ele>
        <time>2020-06-22T13:35:09Z</time>
      </trkpt>
      <trkpt lat="50.66781" lon="1.63567">
        <ele>43.7</ele>
        <time>2020-06-22T13:35:10Z</time>
      </trkpt>
      <trkpt lat="50.66782" lon="1.63566">
        <ele>43.6</ele>
        <time>2020-06-22T13:35:11Z</time>
      </trkpt>
      <trkpt lat="50.66782" lon="1.63566">
        <ele>43.6</ele>
        <time>2020-06-22T13:35:12Z</time>
      </trkpt>
      <trkpt lat="50.66782" lon="1.63566">
        <ele>43.6</ele>
        <time>2020-06-22T13:35:13Z</time>
      </trkpt>
      <trkpt lat="50.66782" lon="1.63565">
        <ele>43.6</ele>
        <time>2020-06-22T13:35:14Z</time>
      </trkpt>
      <trkpt lat="50.66788" lon="1.63562">
        <ele>43.3</ele>
        <time>2020-06-22T13:36:47Z</time>
      </trkpt>
      <trkpt lat="50.66788" lon="1.63562">
        <ele>43.3</ele>
        <time>2020-06-22T13:36:48Z</time>
      </trkpt>
      <trkpt lat="50.66788" lon="1.63561">
        <ele>43.3</ele>
        <time>2020-06-22T13:36:49Z</time>
      </trkpt>
      <trkpt lat="50.66788" lon="1.63561">
        <ele>43.3</ele>
        <time>2020-06-22T13:36:50Z</time>
      </trkpt>
      <trkpt lat="50.66787" lon="1.63561">
        <ele>43.3</ele>
        <time>2020-06-22T13:36:51Z</time>
      </trkpt>
      <trkpt lat="50.66788" lon="1.63561">
        <ele>43.3</ele>
        <time>2020-06-22T13:36:52Z</time>
      </trkpt>
      <trkpt lat="50.66788" lon="1.63561">
        <ele>43.3</ele>
        <time>2020-06-22T13:36:53Z</time>
      </trkpt>
      <trkpt lat="50.66788" lon="1.63561">
        <ele>43.3</ele>
        <time>2020-06-22T13:36:54Z</time>
      </trkpt>
      <trkpt lat="50.66787" lon="1.63561">
        <ele>43.3</ele>
        <time>2020-06-22T13:36:55Z</time>
      </trkpt>
      <trkpt lat="50.66787" lon="1.63561">
        <ele>43.3</ele>
        <time>2020-06-22T13:36:56Z</time>
      </trkpt>
      <trkpt lat="50.66787" lon="1.63561">
        <ele>43.3</ele>
        <time>2020-06-22T13:36:57Z</time>
      </trkpt>
      <trkpt lat="50.66787" lon="1.63562">
        <ele>43.3</ele>
        <time>2020-06-22T13:36:58Z</time>
      </trkpt>
      <trkpt lat="50.66786" lon="1.63562">
        <ele>43.3</ele>
        <time>2020-06-22T13:36:59Z</time>
      </trkpt>
      <trkpt lat="50.66786" lon="1.63563">
        <ele>43.3</ele>
        <time>2020-06-22T13:37:00Z</time>
      </trkpt>
      <trkpt lat="50.66786" lon="1.63563">
        <ele>43.3</ele>
        <time>2020-06-22T13:37:01Z</time>
      </trkpt>
      <trkpt lat="50.66786" lon="1.63563">
        <ele>43.3</ele>
        <time>2020-06-22T13:37:02Z</time>
      </trkpt>
      <trkpt lat="50.66786" lon="1.63562">
        <ele>43.3</ele>
        <time>2020-06-22T13:37:03Z</time>
      </trkpt>
      <trkpt lat="50.66786" lon="1.63561">
        <ele>43.3</ele>
        <time>2020-06-22T13:37:04Z</time>
      </trkpt>
      <trkpt lat="50.66787" lon="1.6356">
        <ele>43.3</ele>
        <time>2020-06-22T13:37:05Z</time>
      </trkpt>
      <trkpt lat="50.66787" lon="1.63558">
        <ele>43.2</ele>
        <time>2020-06-22T13:37:06Z</time>
      </trkpt>
      <trkpt lat="50.66788" lon="1.63557">
        <ele>43.2</ele>
        <time>2020-06-22T13:37:07Z</time>
      </trkpt>
      <trkpt lat="50.66788" lon="1.63555">
        <ele>43.1</ele>
        <time>2020-06-22T13:37:08Z</time>
      </trkpt>
      <trkpt lat="50.66789" lon="1.63554">
        <ele>43.1</ele>
        <time>2020-06-22T13:37:09Z</time>
      </trkpt>
      <trkpt lat="50.66789" lon="1.63553">
        <ele>43.1</ele>
        <time>2020-06-22T13:37:10Z</time>
      </trkpt>
      <trkpt lat="50.66789" lon="1.63553">
        <ele>43.1</ele>
        <time>2020-06-22T13:37:11Z</time>
      </trkpt>
      <trkpt lat="50.6679" lon="1.63553">
        <ele>43.1</ele>
        <time>2020-06-22T13:37:12Z</time>
      </trkpt>
      <trkpt lat="50.66789" lon="1.63553">
        <ele>43.1</ele>
        <time>2020-06-22T13:37:13Z</time>
      </trkpt>
      <trkpt lat="50.66789" lon="1.63554">
        <ele>43.1</ele>
        <time>2020-06-22T13:37:14Z</time>
      </trkpt>
      <trkpt lat="50.66788" lon="1.63555">
        <ele>43.1</ele>
        <time>2020-06-22T13:37:15Z</time>
      </trkpt>
      <trkpt lat="50.66788" lon="1.63556">
        <ele>43.1</ele>
        <time>2020-06-22T13:37:16Z</time>
      </trkpt>
      <trkpt lat="50.66788" lon="1.63557">
        <ele>43.1</ele>
        <time>2020-06-22T13:37:17Z</time>
      </trkpt>
      <trkpt lat="50.66789" lon="1.63557">
        <ele>43.1</ele>
        <time>2020-06-22T13:37:18Z</time>
      </trkpt>
      <trkpt lat="50.66789" lon="1.63557">
        <ele>43.1</ele>
        <time>2020-06-22T13:37:19Z</time>
      </trkpt>
      <trkpt lat="50.66789" lon="1.63556">
        <ele>43.1</ele>
        <time>2020-06-22T13:37:20Z</time>
      </trkpt>
      <trkpt lat="50.66789" lon="1.63556">
        <ele>43.1</ele>
        <time>2020-06-22T13:37:21Z</time>
      </trkpt>
      <trkpt lat="50.66789" lon="1.63555">
        <ele>43.1</ele>
        <time>2020-06-22T13:37:22Z</time>
      </trkpt>
      <trkpt lat="50.66789" lon="1.63555">
        <ele>43.1</ele>
        <time>2020-06-22T13:37:23Z</time>
      </trkpt>
      <trkpt lat="50.66788" lon="1.63555">
        <ele>43.1</ele>
        <time>2020-06-22T13:37:24Z</time>
      </trkpt>
      <trkpt lat="50.66788" lon="1.63555">
        <ele>43.1</ele>
        <time>2020-06-22T13:37:25Z</time>
      </trkpt>
      <trkpt lat="50.66788" lon="1.63555">
        <ele>43.1</ele>
        <time>2020-06-22T13:37:26Z</time>
      </trkpt>
      <trkpt lat="50.66788" lon="1.63555">
        <ele>43.1</ele>
        <time>2020-06-22T13:37:27Z</time>
      </trkpt>
      <trkpt lat="50.66788" lon="1.63555">
        <ele>43.2</ele>
        <time>2020-06-22T13:37:28Z</time>
      </trkpt>
      <trkpt lat="50.66788" lon="1.63555">
        <ele>43.2</ele>
        <time>2020-06-22T13:37:29Z</time>
      </trkpt>
      <trkpt lat="50.66787" lon="1.63555">
        <ele>43.2</ele>
        <time>2020-06-22T13:37:30Z</time>
      </trkpt>
      <trkpt lat="50.66787" lon="1.63555">
        <ele>43.2</ele>
        <time>2020-06-22T13:37:31Z</time>
      </trkpt>
      <trkpt lat="50.66787" lon="1.63555">
        <ele>43.2</ele>
        <time>2020-06-22T13:37:32Z</time>
      </trkpt>
      <trkpt lat="50.66787" lon="1.63555">
        <ele>43.2</ele>
        <time>2020-06-22T13:37:33Z</time>
      </trkpt>
      <trkpt lat="50.66789" lon="1.63548">
        <ele>43</ele>
        <time>2020-06-22T13:40:00Z</time>
      </trkpt>
      <trkpt lat="50.66789" lon="1.63549">
        <ele>43</ele>
        <time>2020-06-22T13:40:01Z</time>
      </trkpt>
      <trkpt lat="50.66789" lon="1.63549">
        <ele>43</ele>
        <time>2020-06-22T13:40:02Z</time>
      </trkpt>
      <trkpt lat="50.66789" lon="1.63549">
        <ele>43</ele>
        <time>2020-06-22T13:40:03Z</time>
      </trkpt>
      <trkpt lat="50.66789" lon="1.63549">
        <ele>43</ele>
        <time>2020-06-22T13:40:04Z</time>
      </trkpt>
      <trkpt lat="50.66789" lon="1.63549">
        <ele>43</ele>
        <time>2020-06-22T13:40:05Z</time>
      </trkpt>
      <trkpt lat="50.66789" lon="1.63549">
        <ele>43</ele>
        <time>2020-06-22T13:40:06Z</time>
      </trkpt>
      <trkpt lat="50.66789" lon="1.63549">
        <ele>42.9</ele>
        <time>2020-06-22T13:40:07Z</time>
      </trkpt>
      <trkpt lat="50.66789" lon="1.63549">
        <ele>42.9</ele>
        <time>2020-06-22T13:40:08Z</time>
      </trkpt>
      <trkpt lat="50.6679" lon="1.63549">
        <ele>42.9</ele>
        <time>2020-06-22T13:40:09Z</time>
      </trkpt>
      <trkpt lat="50.6679" lon="1.63549">
        <ele>42.9</ele>
        <time>2020-06-22T13:40:10Z</time>
      </trkpt>
      <trkpt lat="50.66789" lon="1.63549">
        <ele>42.9</ele>
        <time>2020-06-22T13:40:11Z</time>
      </trkpt>
      <trkpt lat="50.66788" lon="1.63549">
        <ele>42.9</ele>
        <time>2020-06-22T13:40:12Z</time>
      </trkpt>
      <trkpt lat="50.66788" lon="1.63549">
        <ele>42.9</ele>
        <time>2020-06-22T13:40:13Z</time>
      </trkpt>
      <trkpt lat="50.66788" lon="1.6355">
        <ele>43</ele>
        <time>2020-06-22T13:40:14Z</time>
      </trkpt>
      <trkpt lat="50.66788" lon="1.63549">
        <ele>43</ele>
        <time>2020-06-22T13:40:15Z</time>
      </trkpt>
      <trkpt lat="50.66788" lon="1.6355">
        <ele>42.9</ele>
        <time>2020-06-22T13:40:16Z</time>
      </trkpt>
      <trkpt lat="50.66788" lon="1.6355">
        <ele>42.9</ele>
        <time>2020-06-22T13:40:17Z</time>
      </trkpt>
      <trkpt lat="50.66788" lon="1.6355">
        <ele>42.9</ele>
        <time>2020-06-22T13:40:18Z</time>
      </trkpt>
      <trkpt lat="50.66788" lon="1.63554">
        <ele>42.9</ele>
        <time>2020-06-22T13:40:21Z</time>
      </trkpt>
      <trkpt lat="50.66787" lon="1.63557">
        <ele>43.1</ele>
        <time>2020-06-22T13:40:22Z</time>
      </trkpt>
      <trkpt lat="50.66786" lon="1.63559">
        <ele>43.1</ele>
        <time>2020-06-22T13:40:23Z</time>
      </trkpt>
      <trkpt lat="50.66785" lon="1.6356">
        <ele>43.2</ele>
        <time>2020-06-22T13:40:24Z</time>
      </trkpt>
      <trkpt lat="50.66784" lon="1.63559">
        <ele>43.2</ele>
        <time>2020-06-22T13:40:25Z</time>
      </trkpt>
      <trkpt lat="50.66784" lon="1.63559">
        <ele>43.2</ele>
        <time>2020-06-22T13:40:26Z</time>
      </trkpt>
      <trkpt lat="50.66783" lon="1.63558">
        <ele>43.2</ele>
        <time>2020-06-22T13:40:27Z</time>
      </trkpt>
      <trkpt lat="50.66783" lon="1.63558">
        <ele>43.2</ele>
        <time>2020-06-22T13:40:28Z</time>
      </trkpt>
      <trkpt lat="50.66783" lon="1.63558">
        <ele>43.2</ele>
        <time>2020-06-22T13:40:29Z</time>
      </trkpt>
      <trkpt lat="50.66783" lon="1.63558">
        <ele>43.2</ele>
        <time>2020-06-22T13:40:30Z</time>
      </trkpt>
      <trkpt lat="50.66783" lon="1.63558">
        <ele>43.2</ele>
        <time>2020-06-22T13:40:31Z</time>
      </trkpt>
      <trkpt lat="50.66783" lon="1.63557">
        <ele>43.2</ele>
        <time>2020-06-22T13:40:32Z</time>
      </trkpt>
      <trkpt lat="50.66782" lon="1.63557">
        <ele>43.3</ele>
        <time>2020-06-22T13:40:33Z</time>
      </trkpt>
      <trkpt lat="50.66782" lon="1.63557">
        <ele>43.3</ele>
        <time>2020-06-22T13:40:34Z</time>
      </trkpt>
      <trkpt lat="50.66781" lon="1.63557">
        <ele>43.3</ele>
        <time>2020-06-22T13:40:35Z</time>
      </trkpt>
      <trkpt lat="50.66781" lon="1.63558">
        <ele>43.3</ele>
        <time>2020-06-22T13:40:36Z</time>
      </trkpt>
      <trkpt lat="50.66781" lon="1.63557">
        <ele>43.3</ele>
        <time>2020-06-22T13:40:37Z</time>
      </trkpt>
      <trkpt lat="50.66781" lon="1.63557">
        <ele>43.3</ele>
        <time>2020-06-22T13:40:38Z</time>
      </trkpt>
      <trkpt lat="50.66781" lon="1.63557">
        <ele>43.3</ele>
        <time>2020-06-22T13:40:39Z</time>
      </trkpt>
      <trkpt lat="50.66781" lon="1.63557">
        <ele>43.3</ele>
        <time>2020-06-22T13:40:40Z</time>
      </trkpt>
      <trkpt lat="50.6678" lon="1.63558">
        <ele>43.3</ele>
        <time>2020-06-22T13:40:41Z</time>
      </trkpt>
      <trkpt lat="50.6678" lon="1.63558">
        <ele>43.3</ele>
        <time>2020-06-22T13:40:42Z</time>
      </trkpt>
      <trkpt lat="50.6678" lon="1.63558">
        <ele>43.3</ele>
        <time>2020-06-22T13:40:43Z</time>
      </trkpt>
      <trkpt lat="50.6678" lon="1.63559">
        <ele>43.3</ele>
        <time>2020-06-22T13:40:44Z</time>
      </trkpt>
      <trkpt lat="50.66779" lon="1.63557">
        <ele>43.4</ele>
        <time>2020-06-22T13:40:45Z</time>
      </trkpt>
      <trkpt lat="50.66779" lon="1.63555">
        <ele>43.4</ele>
        <time>2020-06-22T13:40:46Z</time>
      </trkpt>
      <trkpt lat="50.66779" lon="1.63554">
        <ele>43.3</ele>
        <time>2020-06-22T13:40:47Z</time>
      </trkpt>
      <trkpt lat="50.66778" lon="1.63553">
        <ele>43.3</ele>
        <time>2020-06-22T13:40:48Z</time>
      </trkpt>
      <trkpt lat="50.66778" lon="1.63552">
        <ele>43.3</ele>
        <time>2020-06-22T13:40:49Z</time>
      </trkpt>
      <trkpt lat="50.66778" lon="1.63551">
        <ele>43.3</ele>
        <time>2020-06-22T13:40:50Z</time>
      </trkpt>
      <trkpt lat="50.66777" lon="1.6355">
        <ele>43.2</ele>
        <time>2020-06-22T13:40:51Z</time>
      </trkpt>
      <trkpt lat="50.66777" lon="1.63548">
        <ele>43.2</ele>
        <time>2020-06-22T13:40:52Z</time>
      </trkpt>
      <trkpt lat="50.66777" lon="1.63547">
        <ele>43.4</ele>
        <time>2020-06-22T13:40:53Z</time>
      </trkpt>
      <trkpt lat="50.66777" lon="1.63547">
        <ele>43.4</ele>
        <time>2020-06-22T13:40:54Z</time>
      </trkpt>
      <trkpt lat="50.66776" lon="1.63547">
        <ele>43.4</ele>
        <time>2020-06-22T13:40:55Z</time>
      </trkpt>
      <trkpt lat="50.66777" lon="1.63548">
        <ele>43.4</ele>
        <time>2020-06-22T13:40:56Z</time>
      </trkpt>
      <trkpt lat="50.66777" lon="1.63548">
        <ele>43.4</ele>
        <time>2020-06-22T13:40:57Z</time>
      </trkpt>
      <trkpt lat="50.66777" lon="1.63548">
        <ele>43.4</ele>
        <time>2020-06-22T13:40:58Z</time>
      </trkpt>
      <trkpt lat="50.66777" lon="1.63548">
        <ele>43.4</ele>
        <time>2020-06-22T13:40:59Z</time>
      </trkpt>
      <trkpt lat="50.66776" lon="1.63547">
        <ele>43.4</ele>
        <time>2020-06-22T13:41:00Z</time>
      </trkpt>
      <trkpt lat="50.66776" lon="1.63547">
        <ele>43.4</ele>
        <time>2020-06-22T13:41:01Z</time>
      </trkpt>
      <trkpt lat="50.66776" lon="1.63546">
        <ele>43.4</ele>
        <time>2020-06-22T13:41:02Z</time>
      </trkpt>
      <trkpt lat="50.66776" lon="1.63546">
        <ele>43.4</ele>
        <time>2020-06-22T13:41:03Z</time>
      </trkpt>
      <trkpt lat="50.66775" lon="1.63546">
        <ele>43.3</ele>
        <time>2020-06-22T13:41:04Z</time>
      </trkpt>
      <trkpt lat="50.66775" lon="1.63546">
        <ele>43.3</ele>
        <time>2020-06-22T13:41:05Z</time>
      </trkpt>
      <trkpt lat="50.66775" lon="1.63546">
        <ele>43.3</ele>
        <time>2020-06-22T13:41:06Z</time>
      </trkpt>
      <trkpt lat="50.66775" lon="1.63546">
        <ele>43.3</ele>
        <time>2020-06-22T13:41:07Z</time>
      </trkpt>
      <trkpt lat="50.66775" lon="1.63546">
        <ele>43.4</ele>
        <time>2020-06-22T13:41:08Z</time>
      </trkpt>
      <trkpt lat="50.66775" lon="1.63546">
        <ele>43.4</ele>
        <time>2020-06-22T13:41:09Z</time>
      </trkpt>
      <trkpt lat="50.66775" lon="1.63546">
        <ele>43.4</ele>
        <time>2020-06-22T13:41:10Z</time>
      </trkpt>
      <trkpt lat="50.66775" lon="1.63547">
        <ele>43.4</ele>
        <time>2020-06-22T13:41:11Z</time>
      </trkpt>
      <trkpt lat="50.66775" lon="1.63548">
        <ele>43.4</ele>
        <time>2020-06-22T13:41:12Z</time>
      </trkpt>
      <trkpt lat="50.66774" lon="1.63548">
        <ele>43.5</ele>
        <time>2020-06-22T13:41:13Z</time>
      </trkpt>
      <trkpt lat="50.66775" lon="1.63549">
        <ele>43.4</ele>
        <time>2020-06-22T13:41:14Z</time>
      </trkpt>
      <trkpt lat="50.66775" lon="1.63549">
        <ele>43.4</ele>
        <time>2020-06-22T13:41:15Z</time>
      </trkpt>
      <trkpt lat="50.66775" lon="1.6355">
        <ele>43.4</ele>
        <time>2020-06-22T13:41:16Z</time>
      </trkpt>
      <trkpt lat="50.66775" lon="1.6355">
        <ele>43.4</ele>
        <time>2020-06-22T13:41:17Z</time>
      </trkpt>
      <trkpt lat="50.66776" lon="1.6355">
        <ele>43.4</ele>
        <time>2020-06-22T13:41:18Z</time>
      </trkpt>
      <trkpt lat="50.66775" lon="1.63549">
        <ele>43.4</ele>
        <time>2020-06-22T13:41:19Z</time>
      </trkpt>
      <trkpt lat="50.66775" lon="1.63549">
        <ele>43.4</ele>
        <time>2020-06-22T13:41:20Z</time>
      </trkpt>
      <trkpt lat="50.66774" lon="1.63549">
        <ele>43.5</ele>
        <time>2020-06-22T13:41:21Z</time>
      </trkpt>
      <trkpt lat="50.66773" lon="1.6355">
        <ele>43.5</ele>
        <time>2020-06-22T13:41:22Z</time>
      </trkpt>
      <trkpt lat="50.66774" lon="1.6355">
        <ele>43.5</ele>
        <time>2020-06-22T13:41:23Z</time>
      </trkpt>
      <trkpt lat="50.66774" lon="1.63552">
        <ele>43.5</ele>
        <time>2020-06-22T13:41:24Z</time>
      </trkpt>
      <trkpt lat="50.66774" lon="1.6355">
        <ele>43.5</ele>
        <time>2020-06-22T13:41:25Z</time>
      </trkpt>
      <trkpt lat="50.66774" lon="1.6355">
        <ele>43.5</ele>
        <time>2020-06-22T13:41:26Z</time>
      </trkpt>
      <trkpt lat="50.66774" lon="1.6355">
        <ele>43.5</ele>
        <time>2020-06-22T13:41:27Z</time>
      </trkpt>
      <trkpt lat="50.66774" lon="1.6355">
        <ele>43.5</ele>
        <time>2020-06-22T13:41:28Z</time>
      </trkpt>
      <trkpt lat="50.66775" lon="1.63552">
        <ele>43.4</ele>
        <time>2020-06-22T13:41:29Z</time>
      </trkpt>
      <trkpt lat="50.66776" lon="1.63553">
        <ele>43.4</ele>
        <time>2020-06-22T13:41:30Z</time>
      </trkpt>
      <trkpt lat="50.66776" lon="1.63553">
        <ele>43.4</ele>
        <time>2020-06-22T13:41:31Z</time>
      </trkpt>
      <trkpt lat="50.66777" lon="1.63554">
        <ele>43.4</ele>
        <time>2020-06-22T13:41:32Z</time>
      </trkpt>
      <trkpt lat="50.66777" lon="1.63554">
        <ele>43.4</ele>
        <time>2020-06-22T13:41:33Z</time>
      </trkpt>
      <trkpt lat="50.66777" lon="1.63554">
        <ele>43.4</ele>
        <time>2020-06-22T13:41:34Z</time>
      </trkpt>
      <trkpt lat="50.66777" lon="1.63554">
        <ele>43.4</ele>
        <time>2020-06-22T13:41:35Z</time>
      </trkpt>
      <trkpt lat="50.66777" lon="1.63554">
        <ele>43.4</ele>
        <time>2020-06-22T13:41:36Z</time>
      </trkpt>
      <trkpt lat="50.66776" lon="1.63554">
        <ele>43.4</ele>
        <time>2020-06-22T13:41:37Z</time>
      </trkpt>
      <trkpt lat="50.66775" lon="1.63553">
        <ele>43.4</ele>
        <time>2020-06-22T13:41:38Z</time>
      </trkpt>
      <trkpt lat="50.66775" lon="1.63553">
        <ele>43.4</ele>
        <time>2020-06-22T13:41:39Z</time>
      </trkpt>
      <trkpt lat="50.66774" lon="1.63553">
        <ele>43.4</ele>
        <time>2020-06-22T13:41:40Z</time>
      </trkpt>
      <trkpt lat="50.66775" lon="1.63553">
        <ele>43.4</ele>
        <time>2020-06-22T13:41:41Z</time>
      </trkpt>
      <trkpt lat="50.66775" lon="1.63553">
        <ele>43.4</ele>
        <time>2020-06-22T13:41:42Z</time>
      </trkpt>
      <trkpt lat="50.66775" lon="1.63553">
        <ele>43.4</ele>
        <time>2020-06-22T13:41:43Z</time>
      </trkpt>
      <trkpt lat="50.66775" lon="1.63553">
        <ele>43.4</ele>
        <time>2020-06-22T13:41:44Z</time>
      </trkpt>
      <trkpt lat="50.66775" lon="1.63553">
        <ele>43.4</ele>
        <time>2020-06-22T13:41:45Z</time>
      </trkpt>
      <trkpt lat="50.66774" lon="1.63553">
        <ele>43.4</ele>
        <time>2020-06-22T13:41:46Z</time>
      </trkpt>
      <trkpt lat="50.66774" lon="1.63553">
        <ele>43.5</ele>
        <time>2020-06-22T13:41:47Z</time>
      </trkpt>
      <trkpt lat="50.66774" lon="1.63553">
        <ele>43.5</ele>
        <time>2020-06-22T13:41:48Z</time>
      </trkpt>
      <trkpt lat="50.66773" lon="1.63553">
        <ele>43.5</ele>
        <time>2020-06-22T13:41:49Z</time>
      </trkpt>
      <trkpt lat="50.66773" lon="1.63552">
        <ele>43.5</ele>
        <time>2020-06-22T13:41:50Z</time>
      </trkpt>
      <trkpt lat="50.66772" lon="1.63551">
        <ele>43.5</ele>
        <time>2020-06-22T13:41:51Z</time>
      </trkpt>
      <trkpt lat="50.66772" lon="1.63552">
        <ele>43.5</ele>
        <time>2020-06-22T13:41:52Z</time>
      </trkpt>
      <trkpt lat="50.66771" lon="1.63551">
        <ele>43.6</ele>
        <time>2020-06-22T13:41:53Z</time>
      </trkpt>
      <trkpt lat="50.66771" lon="1.63551">
        <ele>43.6</ele>
        <time>2020-06-22T13:41:54Z</time>
      </trkpt>
      <trkpt lat="50.66771" lon="1.63551">
        <ele>43.6</ele>
        <time>2020-06-22T13:41:55Z</time>
      </trkpt>
      <trkpt lat="50.6677" lon="1.63551">
        <ele>43.6</ele>
        <time>2020-06-22T13:41:56Z</time>
      </trkpt>
      <trkpt lat="50.6677" lon="1.6355">
        <ele>43.6</ele>
        <time>2020-06-22T13:41:57Z</time>
      </trkpt>
      <trkpt lat="50.66769" lon="1.63549">
        <ele>43.6</ele>
        <time>2020-06-22T13:41:58Z</time>
      </trkpt>
      <trkpt lat="50.66769" lon="1.63547">
        <ele>43.7</ele>
        <time>2020-06-22T13:41:59Z</time>
      </trkpt>
      <trkpt lat="50.66768" lon="1.63546">
        <ele>43.7</ele>
        <time>2020-06-22T13:42:00Z</time>
      </trkpt>
      <trkpt lat="50.66767" lon="1.63544">
        <ele>43.7</ele>
        <time>2020-06-22T13:42:01Z</time>
      </trkpt>
      <trkpt lat="50.66767" lon="1.63544">
        <ele>43.7</ele>
        <time>2020-06-22T13:42:02Z</time>
      </trkpt>
      <trkpt lat="50.66766" lon="1.63543">
        <ele>43.8</ele>
        <time>2020-06-22T13:42:03Z</time>
      </trkpt>
      <trkpt lat="50.66765" lon="1.63543">
        <ele>43.8</ele>
        <time>2020-06-22T13:42:04Z</time>
      </trkpt>
      <trkpt lat="50.66765" lon="1.63542">
        <ele>43.8</ele>
        <time>2020-06-22T13:42:05Z</time>
      </trkpt>
      <trkpt lat="50.66762" lon="1.6354">
        <ele>44</ele>
        <time>2020-06-22T13:42:06Z</time>
      </trkpt>
      <trkpt lat="50.66762" lon="1.63539">
        <ele>44</ele>
        <time>2020-06-22T13:42:07Z</time>
      </trkpt>
      <trkpt lat="50.66761" lon="1.63537">
        <ele>44.2</ele>
        <time>2020-06-22T13:42:08Z</time>
      </trkpt>
      <trkpt lat="50.6676" lon="1.63536">
        <ele>44.2</ele>
        <time>2020-06-22T13:42:09Z</time>
      </trkpt>
      <trkpt lat="50.66759" lon="1.63535">
        <ele>44.2</ele>
        <time>2020-06-22T13:42:10Z</time>
      </trkpt>
      <trkpt lat="50.66758" lon="1.63533">
        <ele>44.2</ele>
        <time>2020-06-22T13:42:11Z</time>
      </trkpt>
      <trkpt lat="50.66758" lon="1.63533">
        <ele>44.2</ele>
        <time>2020-06-22T13:42:12Z</time>
      </trkpt>
      <trkpt lat="50.66759" lon="1.63533">
        <ele>44.2</ele>
        <time>2020-06-22T13:42:13Z</time>
      </trkpt>
      <trkpt lat="50.66758" lon="1.63532">
        <ele>44.2</ele>
        <time>2020-06-22T13:42:14Z</time>
      </trkpt>
      <trkpt lat="50.66758" lon="1.63531">
        <ele>44.4</ele>
        <time>2020-06-22T13:42:15Z</time>
      </trkpt>
      <trkpt lat="50.66758" lon="1.63531">
        <ele>44.4</ele>
        <time>2020-06-22T13:42:16Z</time>
      </trkpt>
      <trkpt lat="50.66758" lon="1.63531">
        <ele>44.2</ele>
        <time>2020-06-22T13:42:17Z</time>
      </trkpt>
      <trkpt lat="50.66758" lon="1.63531">
        <ele>44.2</ele>
        <time>2020-06-22T13:42:18Z</time>
      </trkpt>
      <trkpt lat="50.66759" lon="1.63532">
        <ele>44.2</ele>
        <time>2020-06-22T13:42:19Z</time>
      </trkpt>
      <trkpt lat="50.66759" lon="1.63532">
        <ele>44.2</ele>
        <time>2020-06-22T13:42:20Z</time>
      </trkpt>
      <trkpt lat="50.66759" lon="1.63532">
        <ele>44.2</ele>
        <time>2020-06-22T13:42:21Z</time>
      </trkpt>
      <trkpt lat="50.66759" lon="1.63533">
        <ele>44.2</ele>
        <time>2020-06-22T13:42:22Z</time>
      </trkpt>
      <trkpt lat="50.6676" lon="1.63534">
        <ele>44.2</ele>
        <time>2020-06-22T13:42:23Z</time>
      </trkpt>
      <trkpt lat="50.6676" lon="1.63535">
        <ele>44.2</ele>
        <time>2020-06-22T13:42:24Z</time>
      </trkpt>
      <trkpt lat="50.6676" lon="1.63535">
        <ele>44.2</ele>
        <time>2020-06-22T13:42:25Z</time>
      </trkpt>
      <trkpt lat="50.6676" lon="1.63535">
        <ele>44.2</ele>
        <time>2020-06-22T13:42:26Z</time>
      </trkpt>
      <trkpt lat="50.6676" lon="1.63535">
        <ele>44.2</ele>
        <time>2020-06-22T13:42:27Z</time>
      </trkpt>
      <trkpt lat="50.6676" lon="1.63535">
        <ele>44.2</ele>
        <time>2020-06-22T13:42:28Z</time>
      </trkpt>
      <trkpt lat="50.6676" lon="1.63535">
        <ele>44.2</ele>
        <time>2020-06-22T13:42:29Z</time>
      </trkpt>
      <trkpt lat="50.6676" lon="1.63535">
        <ele>44.2</ele>
        <time>2020-06-22T13:42:30Z</time>
      </trkpt>
      <trkpt lat="50.6676" lon="1.63535">
        <ele>44.2</ele>
        <time>2020-06-22T13:42:31Z</time>
      </trkpt>
      <trkpt lat="50.6676" lon="1.63535">
        <ele>44.2</ele>
        <time>2020-06-22T13:42:32Z</time>
      </trkpt>
      <trkpt lat="50.6676" lon="1.63535">
        <ele>44.2</ele>
        <time>2020-06-22T13:42:33Z</time>
      </trkpt>
      <trkpt lat="50.6676" lon="1.63535">
        <ele>44.2</ele>
        <time>2020-06-22T13:42:34Z</time>
      </trkpt>
      <trkpt lat="50.6676" lon="1.63535">
        <ele>44.2</ele>
        <time>2020-06-22T13:42:35Z</time>
      </trkpt>
      <trkpt lat="50.6676" lon="1.63535">
        <ele>44.2</ele>
        <time>2020-06-22T13:42:36Z</time>
      </trkpt>
      <trkpt lat="50.66774" lon="1.63563">
        <ele>43.6</ele>
        <time>2020-06-22T13:43:17Z</time>
      </trkpt>
      <trkpt lat="50.66776" lon="1.63565">
        <ele>43.6</ele>
        <time>2020-06-22T13:43:18Z</time>
      </trkpt>
      <trkpt lat="50.66777" lon="1.63566">
        <ele>43.6</ele>
        <time>2020-06-22T13:43:19Z</time>
      </trkpt>
      <trkpt lat="50.66777" lon="1.63565">
        <ele>43.5</ele>
        <time>2020-06-22T13:43:20Z</time>
      </trkpt>
      <trkpt lat="50.66777" lon="1.63564">
        <ele>43.5</ele>
        <time>2020-06-22T13:43:21Z</time>
      </trkpt>
      <trkpt lat="50.66778" lon="1.63563">
        <ele>43.4</ele>
        <time>2020-06-22T13:43:22Z</time>
      </trkpt>
      <trkpt lat="50.66779" lon="1.63563">
        <ele>43.5</ele>
        <time>2020-06-22T13:43:23Z</time>
      </trkpt>
      <trkpt lat="50.66779" lon="1.63564">
        <ele>43.5</ele>
        <time>2020-06-22T13:43:24Z</time>
      </trkpt>
      <trkpt lat="50.6678" lon="1.63566">
        <ele>43.4</ele>
        <time>2020-06-22T13:43:25Z</time>
      </trkpt>
      <trkpt lat="50.6678" lon="1.63566">
        <ele>43.4</ele>
        <time>2020-06-22T13:43:26Z</time>
      </trkpt>
      <trkpt lat="50.66781" lon="1.63566">
        <ele>43.4</ele>
        <time>2020-06-22T13:43:27Z</time>
      </trkpt>
      <trkpt lat="50.66781" lon="1.63566">
        <ele>43.4</ele>
        <time>2020-06-22T13:43:28Z</time>
      </trkpt>
      <trkpt lat="50.66781" lon="1.63565">
        <ele>43.4</ele>
        <time>2020-06-22T13:43:29Z</time>
      </trkpt>
      <trkpt lat="50.66781" lon="1.63565">
        <ele>43.4</ele>
        <time>2020-06-22T13:43:30Z</time>
      </trkpt>
      <trkpt lat="50.66781" lon="1.63564">
        <ele>43.4</ele>
        <time>2020-06-22T13:43:31Z</time>
      </trkpt>
      <trkpt lat="50.66781" lon="1.63564">
        <ele>43.4</ele>
        <time>2020-06-22T13:43:32Z</time>
      </trkpt>
      <trkpt lat="50.66781" lon="1.63564">
        <ele>43.4</ele>
        <time>2020-06-22T13:43:33Z</time>
      </trkpt>
      <trkpt lat="50.66781" lon="1.63563">
        <ele>43.3</ele>
        <time>2020-06-22T13:43:34Z</time>
      </trkpt>
      <trkpt lat="50.66781" lon="1.63562">
        <ele>43.3</ele>
        <time>2020-06-22T13:43:35Z</time>
      </trkpt>
      <trkpt lat="50.66782" lon="1.63561">
        <ele>43.3</ele>
        <time>2020-06-22T13:43:36Z</time>
      </trkpt>
      <trkpt lat="50.66782" lon="1.6356">
        <ele>43.3</ele>
        <time>2020-06-22T13:43:37Z</time>
      </trkpt>
      <trkpt lat="50.66781" lon="1.6356">
        <ele>43.3</ele>
        <time>2020-06-22T13:43:38Z</time>
      </trkpt>
      <trkpt lat="50.66781" lon="1.63559">
        <ele>43.3</ele>
        <time>2020-06-22T13:43:39Z</time>
      </trkpt>
      <trkpt lat="50.66781" lon="1.6356">
        <ele>43.3</ele>
        <time>2020-06-22T13:43:40Z</time>
      </trkpt>
      <trkpt lat="50.66781" lon="1.63557">
        <ele>43.3</ele>
        <time>2020-06-22T13:43:41Z</time>
      </trkpt>
      <trkpt lat="50.66781" lon="1.63556">
        <ele>43.3</ele>
        <time>2020-06-22T13:43:42Z</time>
      </trkpt>
      <trkpt lat="50.66779" lon="1.63557">
        <ele>43.4</ele>
        <time>2020-06-22T13:43:43Z</time>
      </trkpt>
      <trkpt lat="50.66779" lon="1.63559">
        <ele>43.4</ele>
        <time>2020-06-22T13:43:44Z</time>
      </trkpt>
      <trkpt lat="50.66779" lon="1.63561">
        <ele>43.4</ele>
        <time>2020-06-22T13:43:45Z</time>
      </trkpt>
      <trkpt lat="50.66779" lon="1.63563">
        <ele>43.4</ele>
        <time>2020-06-22T13:43:46Z</time>
      </trkpt>
      <trkpt lat="50.66778" lon="1.63564">
        <ele>43.5</ele>
        <time>2020-06-22T13:43:47Z</time>
      </trkpt>
      <trkpt lat="50.66778" lon="1.63566">
        <ele>43.5</ele>
        <time>2020-06-22T13:43:48Z</time>
      </trkpt>
      <trkpt lat="50.66778" lon="1.63569">
        <ele>43.6</ele>
        <time>2020-06-22T13:43:49Z</time>
      </trkpt>
      <trkpt lat="50.66778" lon="1.63572">
        <ele>43.8</ele>
        <time>2020-06-22T13:43:50Z</time>
      </trkpt>
      <trkpt lat="50.66777" lon="1.63576">
        <ele>43.9</ele>
        <time>2020-06-22T13:43:51Z</time>
      </trkpt>
      <trkpt lat="50.66777" lon="1.63578">
        <ele>44</ele>
        <time>2020-06-22T13:43:52Z</time>
      </trkpt>
      <trkpt lat="50.66776" lon="1.63582">
        <ele>44.2</ele>
        <time>2020-06-22T13:43:53Z</time>
      </trkpt>
      <trkpt lat="50.66776" lon="1.63583">
        <ele>44.2</ele>
        <time>2020-06-22T13:43:54Z</time>
      </trkpt>
      <trkpt lat="50.66776" lon="1.63584">
        <ele>44.2</ele>
        <time>2020-06-22T13:43:55Z</time>
      </trkpt>
      <trkpt lat="50.66775" lon="1.63585">
        <ele>44.4</ele>
        <time>2020-06-22T13:43:56Z</time>
      </trkpt>
      <trkpt lat="50.66774" lon="1.63586">
        <ele>44.5</ele>
        <time>2020-06-22T13:43:57Z</time>
      </trkpt>
      <trkpt lat="50.66774" lon="1.63587">
        <ele>44.5</ele>
        <time>2020-06-22T13:43:58Z</time>
      </trkpt>
      <trkpt lat="50.66774" lon="1.63588">
        <ele>44.5</ele>
        <time>2020-06-22T13:43:59Z</time>
      </trkpt>
      <trkpt lat="50.66773" lon="1.63589">
        <ele>44.5</ele>
        <time>2020-06-22T13:44:00Z</time>
      </trkpt>
      <trkpt lat="50.66773" lon="1.63589">
        <ele>44.7</ele>
        <time>2020-06-22T13:44:01Z</time>
      </trkpt>
      <trkpt lat="50.66773" lon="1.63589">
        <ele>44.5</ele>
        <time>2020-06-22T13:44:02Z</time>
      </trkpt>
      <trkpt lat="50.66772" lon="1.63589">
        <ele>44.7</ele>
        <time>2020-06-22T13:44:03Z</time>
      </trkpt>
      <trkpt lat="50.66772" lon="1.63591">
        <ele>44.7</ele>
        <time>2020-06-22T13:44:04Z</time>
      </trkpt>
      <trkpt lat="50.66772" lon="1.63591">
        <ele>44.7</ele>
        <time>2020-06-22T13:44:05Z</time>
      </trkpt>
      <trkpt lat="50.66772" lon="1.6359">
        <ele>44.7</ele>
        <time>2020-06-22T13:44:06Z</time>
      </trkpt>
      <trkpt lat="50.66772" lon="1.6359">
        <ele>44.8</ele>
        <time>2020-06-22T13:44:07Z</time>
      </trkpt>
      <trkpt lat="50.66771" lon="1.63589">
        <ele>44.8</ele>
        <time>2020-06-22T13:44:08Z</time>
      </trkpt>
      <trkpt lat="50.66771" lon="1.6359">
        <ele>44.8</ele>
        <time>2020-06-22T13:44:09Z</time>
      </trkpt>
      <trkpt lat="50.66771" lon="1.63589">
        <ele>44.8</ele>
        <time>2020-06-22T13:44:10Z</time>
      </trkpt>
      <trkpt lat="50.66771" lon="1.63589">
        <ele>44.6</ele>
        <time>2020-06-22T13:44:11Z</time>
      </trkpt>
      <trkpt lat="50.66771" lon="1.63589">
        <ele>44.6</ele>
        <time>2020-06-22T13:44:12Z</time>
      </trkpt>
      <trkpt lat="50.66771" lon="1.63588">
        <ele>44.6</ele>
        <time>2020-06-22T13:44:13Z</time>
      </trkpt>
      <trkpt lat="50.6677" lon="1.63587">
        <ele>44.6</ele>
        <time>2020-06-22T13:44:14Z</time>
      </trkpt>
      <trkpt lat="50.6677" lon="1.63585">
        <ele>44.6</ele>
        <time>2020-06-22T13:44:15Z</time>
      </trkpt>
      <trkpt lat="50.6677" lon="1.63584">
        <ele>44.4</ele>
        <time>2020-06-22T13:44:16Z</time>
      </trkpt>
      <trkpt lat="50.6677" lon="1.6358">
        <ele>44.3</ele>
        <time>2020-06-22T13:44:18Z</time>
      </trkpt>
      <trkpt lat="50.6677" lon="1.63577">
        <ele>44.3</ele>
        <time>2020-06-22T13:44:19Z</time>
      </trkpt>
      <trkpt lat="50.6677" lon="1.63574">
        <ele>44.1</ele>
        <time>2020-06-22T13:44:20Z</time>
      </trkpt>
      <trkpt lat="50.6677" lon="1.63573">
        <ele>44.1</ele>
        <time>2020-06-22T13:44:21Z</time>
      </trkpt>
      <trkpt lat="50.6677" lon="1.63572">
        <ele>44</ele>
        <time>2020-06-22T13:44:22Z</time>
      </trkpt>
      <trkpt lat="50.6677" lon="1.63571">
        <ele>44</ele>
        <time>2020-06-22T13:44:23Z</time>
      </trkpt>
      <trkpt lat="50.6677" lon="1.6357">
        <ele>44</ele>
        <time>2020-06-22T13:44:24Z</time>
      </trkpt>
      <trkpt lat="50.66771" lon="1.63569">
        <ele>44</ele>
        <time>2020-06-22T13:44:25Z</time>
      </trkpt>
      <trkpt lat="50.66771" lon="1.63566">
        <ele>43.9</ele>
        <time>2020-06-22T13:44:26Z</time>
      </trkpt>
      <trkpt lat="50.66771" lon="1.63564">
        <ele>43.9</ele>
        <time>2020-06-22T13:44:27Z</time>
      </trkpt>
      <trkpt lat="50.66772" lon="1.63562">
        <ele>43.7</ele>
        <time>2020-06-22T13:44:28Z</time>
      </trkpt>
      <trkpt lat="50.66772" lon="1.63562">
        <ele>43.7</ele>
        <time>2020-06-22T13:44:29Z</time>
      </trkpt>
      <trkpt lat="50.66772" lon="1.63562">
        <ele>43.7</ele>
        <time>2020-06-22T13:44:30Z</time>
      </trkpt>
      <trkpt lat="50.66771" lon="1.63561">
        <ele>43.8</ele>
        <time>2020-06-22T13:44:31Z</time>
      </trkpt>
      <trkpt lat="50.66771" lon="1.63561">
        <ele>43.8</ele>
        <time>2020-06-22T13:44:32Z</time>
      </trkpt>
      <trkpt lat="50.66772" lon="1.63562">
        <ele>43.7</ele>
        <time>2020-06-22T13:44:33Z</time>
      </trkpt>
      <trkpt lat="50.66772" lon="1.63561">
        <ele>43.8</ele>
        <time>2020-06-22T13:44:34Z</time>
      </trkpt>
      <trkpt lat="50.66772" lon="1.6356">
        <ele>43.7</ele>
        <time>2020-06-22T13:44:35Z</time>
      </trkpt>
      <trkpt lat="50.66771" lon="1.63559">
        <ele>43.8</ele>
        <time>2020-06-22T13:44:36Z</time>
      </trkpt>
      <trkpt lat="50.66772" lon="1.63559">
        <ele>43.7</ele>
        <time>2020-06-22T13:44:37Z</time>
      </trkpt>
      <trkpt lat="50.66772" lon="1.63559">
        <ele>43.6</ele>
        <time>2020-06-22T13:44:38Z</time>
      </trkpt>
      <trkpt lat="50.66772" lon="1.63559">
        <ele>43.7</ele>
        <time>2020-06-22T13:44:39Z</time>
      </trkpt>
      <trkpt lat="50.66772" lon="1.63561">
        <ele>43.7</ele>
        <time>2020-06-22T13:44:40Z</time>
      </trkpt>
      <trkpt lat="50.66772" lon="1.63562">
        <ele>43.7</ele>
        <time>2020-06-22T13:44:41Z</time>
      </trkpt>
      <trkpt lat="50.66772" lon="1.63563">
        <ele>43.7</ele>
        <time>2020-06-22T13:44:42Z</time>
      </trkpt>
      <trkpt lat="50.66771" lon="1.63564">
        <ele>43.9</ele>
        <time>2020-06-22T13:44:43Z</time>
      </trkpt>
      <trkpt lat="50.66771" lon="1.63563">
        <ele>43.8</ele>
        <time>2020-06-22T13:44:44Z</time>
      </trkpt>
      <trkpt lat="50.66771" lon="1.63563">
        <ele>43.8</ele>
        <time>2020-06-22T13:44:45Z</time>
      </trkpt>
      <trkpt lat="50.66771" lon="1.63561">
        <ele>43.8</ele>
        <time>2020-06-22T13:44:46Z</time>
      </trkpt>
      <trkpt lat="50.6677" lon="1.63561">
        <ele>43.8</ele>
        <time>2020-06-22T13:44:47Z</time>
      </trkpt>
      <trkpt lat="50.6677" lon="1.63561">
        <ele>43.8</ele>
        <time>2020-06-22T13:44:48Z</time>
      </trkpt>
      <trkpt lat="50.6677" lon="1.63562">
        <ele>43.8</ele>
        <time>2020-06-22T13:44:49Z</time>
      </trkpt>
      <trkpt lat="50.66769" lon="1.63562">
        <ele>43.8</ele>
        <time>2020-06-22T13:44:50Z</time>
      </trkpt>
      <trkpt lat="50.66769" lon="1.63562">
        <ele>43.8</ele>
        <time>2020-06-22T13:44:51Z</time>
      </trkpt>
      <trkpt lat="50.66769" lon="1.63562">
        <ele>43.8</ele>
        <time>2020-06-22T13:44:52Z</time>
      </trkpt>
      <trkpt lat="50.66768" lon="1.63563">
        <ele>43.9</ele>
        <time>2020-06-22T13:44:53Z</time>
      </trkpt>
      <trkpt lat="50.66767" lon="1.63563">
        <ele>43.9</ele>
        <time>2020-06-22T13:44:54Z</time>
      </trkpt>
      <trkpt lat="50.66767" lon="1.63564">
        <ele>44</ele>
        <time>2020-06-22T13:44:55Z</time>
      </trkpt>
      <trkpt lat="50.66767" lon="1.63565">
        <ele>44</ele>
        <time>2020-06-22T13:44:56Z</time>
      </trkpt>
      <trkpt lat="50.66767" lon="1.63565">
        <ele>44</ele>
        <time>2020-06-22T13:44:57Z</time>
      </trkpt>
      <trkpt lat="50.66766" lon="1.63565">
        <ele>44</ele>
        <time>2020-06-22T13:44:58Z</time>
      </trkpt>
      <trkpt lat="50.66766" lon="1.63565">
        <ele>44.1</ele>
        <time>2020-06-22T13:44:59Z</time>
      </trkpt>
      <trkpt lat="50.66766" lon="1.63565">
        <ele>44.1</ele>
        <time>2020-06-22T13:45:00Z</time>
      </trkpt>
      <trkpt lat="50.66766" lon="1.63565">
        <ele>44.1</ele>
        <time>2020-06-22T13:45:01Z</time>
      </trkpt>
      <trkpt lat="50.66765" lon="1.63565">
        <ele>44.1</ele>
        <time>2020-06-22T13:45:02Z</time>
      </trkpt>
      <trkpt lat="50.66765" lon="1.63565">
        <ele>44.1</ele>
        <time>2020-06-22T13:45:03Z</time>
      </trkpt>
      <trkpt lat="50.66765" lon="1.63564">
        <ele>44.1</ele>
        <time>2020-06-22T13:45:04Z</time>
      </trkpt>
      <trkpt lat="50.66765" lon="1.63564">
        <ele>44.1</ele>
        <time>2020-06-22T13:45:05Z</time>
      </trkpt>
      <trkpt lat="50.66764" lon="1.63564">
        <ele>44.1</ele>
        <time>2020-06-22T13:45:06Z</time>
      </trkpt>
      <trkpt lat="50.66764" lon="1.63564">
        <ele>44.1</ele>
        <time>2020-06-22T13:45:07Z</time>
      </trkpt>
      <trkpt lat="50.66764" lon="1.63564">
        <ele>44.1</ele>
        <time>2020-06-22T13:45:08Z</time>
      </trkpt>
      <trkpt lat="50.66764" lon="1.63564">
        <ele>44.1</ele>
        <time>2020-06-22T13:45:09Z</time>
      </trkpt>
      <trkpt lat="50.66763" lon="1.63564">
        <ele>44.2</ele>
        <time>2020-06-22T13:45:10Z</time>
      </trkpt>
      <trkpt lat="50.66763" lon="1.63563">
        <ele>44.2</ele>
        <time>2020-06-22T13:45:11Z</time>
      </trkpt>
      <trkpt lat="50.66762" lon="1.63562">
        <ele>44.1</ele>
        <time>2020-06-22T13:45:12Z</time>
      </trkpt>
      <trkpt lat="50.66761" lon="1.6356">
        <ele>44.1</ele>
        <time>2020-06-22T13:45:13Z</time>
      </trkpt>
      <trkpt lat="50.6676" lon="1.63559">
        <ele>44.2</ele>
        <time>2020-06-22T13:45:14Z</time>
      </trkpt>
      <trkpt lat="50.66759" lon="1.63558">
        <ele>44.2</ele>
        <time>2020-06-22T13:45:15Z</time>
      </trkpt>
      <trkpt lat="50.66759" lon="1.63557">
        <ele>44.2</ele>
        <time>2020-06-22T13:45:16Z</time>
      </trkpt>
      <trkpt lat="50.66758" lon="1.63556">
        <ele>44.2</ele>
        <time>2020-06-22T13:45:17Z</time>
      </trkpt>
      <trkpt lat="50.66758" lon="1.63556">
        <ele>44.3</ele>
        <time>2020-06-22T13:45:18Z</time>
      </trkpt>
      <trkpt lat="50.66757" lon="1.63557">
        <ele>44.3</ele>
        <time>2020-06-22T13:45:19Z</time>
      </trkpt>
      <trkpt lat="50.66757" lon="1.63557">
        <ele>44.3</ele>
        <time>2020-06-22T13:45:20Z</time>
      </trkpt>
      <trkpt lat="50.66757" lon="1.63558">
        <ele>44.3</ele>
        <time>2020-06-22T13:45:21Z</time>
      </trkpt>
      <trkpt lat="50.66757" lon="1.63558">
        <ele>44.3</ele>
        <time>2020-06-22T13:45:22Z</time>
      </trkpt>
      <trkpt lat="50.66756" lon="1.63558">
        <ele>44.3</ele>
        <time>2020-06-22T13:45:23Z</time>
      </trkpt>
      <trkpt lat="50.66756" lon="1.63558">
        <ele>44.3</ele>
        <time>2020-06-22T13:45:24Z</time>
      </trkpt>
      <trkpt lat="50.66756" lon="1.63557">
        <ele>44.3</ele>
        <time>2020-06-22T13:45:25Z</time>
      </trkpt>
      <trkpt lat="50.66756" lon="1.63556">
        <ele>44.3</ele>
        <time>2020-06-22T13:45:26Z</time>
      </trkpt>
      <trkpt lat="50.66756" lon="1.63554">
        <ele>44.3</ele>
        <time>2020-06-22T13:45:27Z</time>
      </trkpt>
      <trkpt lat="50.66756" lon="1.63552">
        <ele>44.3</ele>
        <time>2020-06-22T13:45:28Z</time>
      </trkpt>
      <trkpt lat="50.66756" lon="1.6355">
        <ele>44.3</ele>
        <time>2020-06-22T13:45:29Z</time>
      </trkpt>
      <trkpt lat="50.66756" lon="1.63549">
        <ele>44.3</ele>
        <time>2020-06-22T13:45:30Z</time>
      </trkpt>
      <trkpt lat="50.66756" lon="1.63548">
        <ele>44.3</ele>
        <time>2020-06-22T13:45:31Z</time>
      </trkpt>
      <trkpt lat="50.66756" lon="1.63548">
        <ele>44.3</ele>
        <time>2020-06-22T13:45:32Z</time>
      </trkpt>
      <trkpt lat="50.66755" lon="1.63547">
        <ele>44.4</ele>
        <time>2020-06-22T13:45:33Z</time>
      </trkpt>
      <trkpt lat="50.66754" lon="1.63546">
        <ele>44.4</ele>
        <time>2020-06-22T13:45:34Z</time>
      </trkpt>
      <trkpt lat="50.66753" lon="1.63545">
        <ele>44.4</ele>
        <time>2020-06-22T13:45:35Z</time>
      </trkpt>
      <trkpt lat="50.66753" lon="1.63543">
        <ele>44.4</ele>
        <time>2020-06-22T13:45:36Z</time>
      </trkpt>
      <trkpt lat="50.66752" lon="1.63541">
        <ele>44.6</ele>
        <time>2020-06-22T13:45:37Z</time>
      </trkpt>
      <trkpt lat="50.66751" lon="1.63539">
        <ele>44.6</ele>
        <time>2020-06-22T13:45:38Z</time>
      </trkpt>
      <trkpt lat="50.66751" lon="1.63536">
        <ele>44.7</ele>
        <time>2020-06-22T13:45:39Z</time>
      </trkpt>
      <trkpt lat="50.66751" lon="1.63535">
        <ele>44.7</ele>
        <time>2020-06-22T13:45:40Z</time>
      </trkpt>
      <trkpt lat="50.66751" lon="1.63533">
        <ele>44.7</ele>
        <time>2020-06-22T13:45:41Z</time>
      </trkpt>
      <trkpt lat="50.6675" lon="1.63532">
        <ele>44.7</ele>
        <time>2020-06-22T13:45:42Z</time>
      </trkpt>
      <trkpt lat="50.6675" lon="1.63532">
        <ele>44.7</ele>
        <time>2020-06-22T13:45:43Z</time>
      </trkpt>
      <trkpt lat="50.6675" lon="1.63532">
        <ele>44.7</ele>
        <time>2020-06-22T13:45:44Z</time>
      </trkpt>
      <trkpt lat="50.6675" lon="1.63533">
        <ele>44.7</ele>
        <time>2020-06-22T13:45:45Z</time>
      </trkpt>
      <trkpt lat="50.6675" lon="1.63533">
        <ele>44.9</ele>
        <time>2020-06-22T13:45:46Z</time>
      </trkpt>
      <trkpt lat="50.6675" lon="1.63534">
        <ele>44.8</ele>
        <time>2020-06-22T13:45:47Z</time>
      </trkpt>
      <trkpt lat="50.66749" lon="1.63534">
        <ele>44.8</ele>
        <time>2020-06-22T13:45:48Z</time>
      </trkpt>
      <trkpt lat="50.66749" lon="1.63535">
        <ele>44.8</ele>
        <time>2020-06-22T13:45:49Z</time>
      </trkpt>
      <trkpt lat="50.66749" lon="1.63535">
        <ele>44.8</ele>
        <time>2020-06-22T13:45:50Z</time>
      </trkpt>
      <trkpt lat="50.66749" lon="1.63536">
        <ele>44.8</ele>
        <time>2020-06-22T13:45:51Z</time>
      </trkpt>
      <trkpt lat="50.66749" lon="1.63536">
        <ele>44.8</ele>
        <time>2020-06-22T13:45:52Z</time>
      </trkpt>
      <trkpt lat="50.66749" lon="1.63537">
        <ele>44.8</ele>
        <time>2020-06-22T13:45:53Z</time>
      </trkpt>
      <trkpt lat="50.66749" lon="1.63537">
        <ele>44.8</ele>
        <time>2020-06-22T13:45:54Z</time>
      </trkpt>
      <trkpt lat="50.66748" lon="1.63538">
        <ele>44.8</ele>
        <time>2020-06-22T13:45:55Z</time>
      </trkpt>
      <trkpt lat="50.66748" lon="1.63538">
        <ele>44.8</ele>
        <time>2020-06-22T13:45:56Z</time>
      </trkpt>
      <trkpt lat="50.66748" lon="1.63539">
        <ele>44.8</ele>
        <time>2020-06-22T13:45:57Z</time>
      </trkpt>
      <trkpt lat="50.66748" lon="1.63539">
        <ele>44.8</ele>
        <time>2020-06-22T13:45:58Z</time>
      </trkpt>
      <trkpt lat="50.66748" lon="1.6354">
        <ele>44.8</ele>
        <time>2020-06-22T13:45:59Z</time>
      </trkpt>
      <trkpt lat="50.66748" lon="1.6354">
        <ele>44.8</ele>
        <time>2020-06-22T13:46:00Z</time>
      </trkpt>
      <trkpt lat="50.66747" lon="1.63541">
        <ele>44.8</ele>
        <time>2020-06-22T13:46:01Z</time>
      </trkpt>
      <trkpt lat="50.66747" lon="1.63541">
        <ele>44.8</ele>
        <time>2020-06-22T13:46:02Z</time>
      </trkpt>
      <trkpt lat="50.66747" lon="1.63542">
        <ele>44.8</ele>
        <time>2020-06-22T13:46:03Z</time>
      </trkpt>
      <trkpt lat="50.66747" lon="1.63542">
        <ele>44.9</ele>
        <time>2020-06-22T13:46:04Z</time>
      </trkpt>
      <trkpt lat="50.66747" lon="1.63542">
        <ele>44.9</ele>
        <time>2020-06-22T13:46:10Z</time>
      </trkpt>
      <trkpt lat="50.66747" lon="1.63543">
        <ele>44.9</ele>
        <time>2020-06-22T13:46:11Z</time>
      </trkpt>
      <trkpt lat="50.66746" lon="1.63544">
        <ele>44.9</ele>
        <time>2020-06-22T13:46:12Z</time>
      </trkpt>
      <trkpt lat="50.66745" lon="1.63545">
        <ele>44.9</ele>
        <time>2020-06-22T13:46:13Z</time>
      </trkpt>
      <trkpt lat="50.66745" lon="1.63547">
        <ele>44.9</ele>
        <time>2020-06-22T13:46:14Z</time>
      </trkpt>
      <trkpt lat="50.66745" lon="1.6355">
        <ele>44.9</ele>
        <time>2020-06-22T13:46:15Z</time>
      </trkpt>
      <trkpt lat="50.66745" lon="1.6355">
        <ele>44.9</ele>
        <time>2020-06-22T13:46:16Z</time>
      </trkpt>
      <trkpt lat="50.66745" lon="1.6355">
        <ele>44.9</ele>
        <time>2020-06-22T13:46:17Z</time>
      </trkpt>
      <trkpt lat="50.66745" lon="1.6355">
        <ele>44.9</ele>
        <time>2020-06-22T13:46:18Z</time>
      </trkpt>
      <trkpt lat="50.66746" lon="1.6355">
        <ele>44.9</ele>
        <time>2020-06-22T13:46:19Z</time>
      </trkpt>
      <trkpt lat="50.66746" lon="1.6355">
        <ele>44.9</ele>
        <time>2020-06-22T13:46:20Z</time>
      </trkpt>
      <trkpt lat="50.66746" lon="1.6355">
        <ele>44.9</ele>
        <time>2020-06-22T13:46:21Z</time>
      </trkpt>
      <trkpt lat="50.66746" lon="1.6355">
        <ele>44.9</ele>
        <time>2020-06-22T13:46:22Z</time>
      </trkpt>
      <trkpt lat="50.66746" lon="1.6355">
        <ele>44.9</ele>
        <time>2020-06-22T13:46:23Z</time>
      </trkpt>
      <trkpt lat="50.66746" lon="1.6355">
        <ele>44.9</ele>
        <time>2020-06-22T13:46:24Z</time>
      </trkpt>
      <trkpt lat="50.66746" lon="1.6355">
        <ele>44.9</ele>
        <time>2020-06-22T13:46:25Z</time>
      </trkpt>
      <trkpt lat="50.66747" lon="1.6355">
        <ele>44.9</ele>
        <time>2020-06-22T13:46:26Z</time>
      </trkpt>
      <trkpt lat="50.66747" lon="1.6355">
        <ele>44.9</ele>
        <time>2020-06-22T13:46:27Z</time>
      </trkpt>
      <trkpt lat="50.66747" lon="1.6355">
        <ele>44.9</ele>
        <time>2020-06-22T13:46:28Z</time>
      </trkpt>
      <trkpt lat="50.66747" lon="1.6355">
        <ele>44.9</ele>
        <time>2020-06-22T13:46:29Z</time>
      </trkpt>
      <trkpt lat="50.66747" lon="1.6355">
        <ele>44.7</ele>
        <time>2020-06-22T13:46:30Z</time>
      </trkpt>
      <trkpt lat="50.66747" lon="1.6355">
        <ele>44.7</ele>
        <time>2020-06-22T13:46:31Z</time>
      </trkpt>
      <trkpt lat="50.66747" lon="1.6355">
        <ele>44.7</ele>
        <time>2020-06-22T13:46:32Z</time>
      </trkpt>
      <trkpt lat="50.66748" lon="1.6355">
        <ele>44.7</ele>
        <time>2020-06-22T13:46:33Z</time>
      </trkpt>
      <trkpt lat="50.66748" lon="1.6355">
        <ele>44.7</ele>
        <time>2020-06-22T13:46:34Z</time>
      </trkpt>
      <trkpt lat="50.66748" lon="1.6355">
        <ele>44.7</ele>
        <time>2020-06-22T13:46:35Z</time>
      </trkpt>
      <trkpt lat="50.66748" lon="1.6355">
        <ele>44.7</ele>
        <time>2020-06-22T13:46:36Z</time>
      </trkpt>
      <trkpt lat="50.66748" lon="1.6355">
        <ele>44.7</ele>
        <time>2020-06-22T13:46:37Z</time>
      </trkpt>
      <trkpt lat="50.66748" lon="1.6355">
        <ele>44.7</ele>
        <time>2020-06-22T13:46:38Z</time>
      </trkpt>
      <trkpt lat="50.66748" lon="1.6355">
        <ele>44.7</ele>
        <time>2020-06-22T13:46:39Z</time>
      </trkpt>
      <trkpt lat="50.66749" lon="1.6355">
        <ele>44.7</ele>
        <time>2020-06-22T13:46:40Z</time>
      </trkpt>
      <trkpt lat="50.66749" lon="1.6355">
        <ele>44.7</ele>
        <time>2020-06-22T13:46:41Z</time>
      </trkpt>
      <trkpt lat="50.66749" lon="1.6355">
        <ele>44.7</ele>
        <time>2020-06-22T13:46:42Z</time>
      </trkpt>
      <trkpt lat="50.66749" lon="1.6355">
        <ele>44.7</ele>
        <time>2020-06-22T13:46:43Z</time>
      </trkpt>
      <trkpt lat="50.66749" lon="1.6355">
        <ele>44.7</ele>
        <time>2020-06-22T13:46:44Z</time>
      </trkpt>
      <trkpt lat="50.66751" lon="1.63551">
        <ele>44.6</ele>
        <time>2020-06-22T13:46:45Z</time>
      </trkpt>
      <trkpt lat="50.66752" lon="1.63552">
        <ele>44.6</ele>
        <time>2020-06-22T13:46:46Z</time>
      </trkpt>
      <trkpt lat="50.66752" lon="1.63554">
        <ele>44.6</ele>
        <time>2020-06-22T13:46:47Z</time>
      </trkpt>
      <trkpt lat="50.66752" lon="1.63554">
        <ele>44.6</ele>
        <time>2020-06-22T13:46:48Z</time>
      </trkpt>
      <trkpt lat="50.66753" lon="1.63553">
        <ele>44.4</ele>
        <time>2020-06-22T13:46:49Z</time>
      </trkpt>
      <trkpt lat="50.66753" lon="1.63554">
        <ele>44.4</ele>
        <time>2020-06-22T13:46:50Z</time>
      </trkpt>
      <trkpt lat="50.66752" lon="1.63554">
        <ele>44.6</ele>
        <time>2020-06-22T13:46:51Z</time>
      </trkpt>
      <trkpt lat="50.66751" lon="1.63554">
        <ele>44.6</ele>
        <time>2020-06-22T13:46:52Z</time>
      </trkpt>
      <trkpt lat="50.66749" lon="1.63554">
        <ele>44.7</ele>
        <time>2020-06-22T13:46:53Z</time>
      </trkpt>
      <trkpt lat="50.66746" lon="1.63554">
        <ele>44.9</ele>
        <time>2020-06-22T13:46:54Z</time>
      </trkpt>
      <trkpt lat="50.66742" lon="1.63552">
        <ele>45</ele>
        <time>2020-06-22T13:46:55Z</time>
      </trkpt>
      <trkpt lat="50.66741" lon="1.63551">
        <ele>45.1</ele>
        <time>2020-06-22T13:46:56Z</time>
      </trkpt>
      <trkpt lat="50.66738" lon="1.6355">
        <ele>45.3</ele>
        <time>2020-06-22T13:46:57Z</time>
      </trkpt>
      <trkpt lat="50.66735" lon="1.6355">
        <ele>45.4</ele>
        <time>2020-06-22T13:46:58Z</time>
      </trkpt>
      <trkpt lat="50.66732" lon="1.63552">
        <ele>45.5</ele>
        <time>2020-06-22T13:46:59Z</time>
      </trkpt>
      <trkpt lat="50.66731" lon="1.63552">
        <ele>45.5</ele>
        <time>2020-06-22T13:47:00Z</time>
      </trkpt>
      <trkpt lat="50.6673" lon="1.63554">
        <ele>45.6</ele>
        <time>2020-06-22T13:47:01Z</time>
      </trkpt>
      <trkpt lat="50.66729" lon="1.63555">
        <ele>45.6</ele>
        <time>2020-06-22T13:47:02Z</time>
      </trkpt>
      <trkpt lat="50.66728" lon="1.63556">
        <ele>45.6</ele>
        <time>2020-06-22T13:47:03Z</time>
      </trkpt>
      <trkpt lat="50.66727" lon="1.63557">
        <ele>45.7</ele>
        <time>2020-06-22T13:47:04Z</time>
      </trkpt>
      <trkpt lat="50.66726" lon="1.63559">
        <ele>45.7</ele>
        <time>2020-06-22T13:47:05Z</time>
      </trkpt>
      <trkpt lat="50.66724" lon="1.6356">
        <ele>45.8</ele>
        <time>2020-06-22T13:47:06Z</time>
      </trkpt>
      <trkpt lat="50.66722" lon="1.63563">
        <ele>45.9</ele>
        <time>2020-06-22T13:47:07Z</time>
      </trkpt>
      <trkpt lat="50.66721" lon="1.63563">
        <ele>45.9</ele>
        <time>2020-06-22T13:47:08Z</time>
      </trkpt>
      <trkpt lat="50.6672" lon="1.63564">
        <ele>45.8</ele>
        <time>2020-06-22T13:47:09Z</time>
      </trkpt>
      <trkpt lat="50.66717" lon="1.63563">
        <ele>46</ele>
        <time>2020-06-22T13:47:10Z</time>
      </trkpt>
      <trkpt lat="50.66717" lon="1.63562">
        <ele>46.1</ele>
        <time>2020-06-22T13:47:11Z</time>
      </trkpt>
      <trkpt lat="50.66717" lon="1.6356">
        <ele>46.1</ele>
        <time>2020-06-22T13:47:12Z</time>
      </trkpt>
      <trkpt lat="50.66715" lon="1.63559">
        <ele>46.1</ele>
        <time>2020-06-22T13:47:13Z</time>
      </trkpt>
      <trkpt lat="50.66714" lon="1.63558">
        <ele>46.3</ele>
        <time>2020-06-22T13:47:14Z</time>
      </trkpt>
      <trkpt lat="50.66713" lon="1.63557">
        <ele>46.3</ele>
        <time>2020-06-22T13:47:15Z</time>
      </trkpt>
      <trkpt lat="50.66712" lon="1.63555">
        <ele>46.3</ele>
        <time>2020-06-22T13:47:16Z</time>
      </trkpt>
      <trkpt lat="50.66711" lon="1.63554">
        <ele>46.5</ele>
        <time>2020-06-22T13:47:17Z</time>
      </trkpt>
      <trkpt lat="50.66713" lon="1.63551">
        <ele>46.3</ele>
        <time>2020-06-22T13:47:18Z</time>
      </trkpt>
      <trkpt lat="50.66714" lon="1.63549">
        <ele>46.4</ele>
        <time>2020-06-22T13:47:19Z</time>
      </trkpt>
      <trkpt lat="50.66717" lon="1.63547">
        <ele>46.3</ele>
        <time>2020-06-22T13:47:20Z</time>
      </trkpt>
      <trkpt lat="50.6672" lon="1.63545">
        <ele>46.3</ele>
        <time>2020-06-22T13:47:21Z</time>
      </trkpt>
      <trkpt lat="50.66721" lon="1.63545">
        <ele>46.1</ele>
        <time>2020-06-22T13:47:22Z</time>
      </trkpt>
      <trkpt lat="50.66721" lon="1.63544">
        <ele>46.1</ele>
        <time>2020-06-22T13:47:23Z</time>
      </trkpt>
      <trkpt lat="50.66721" lon="1.63544">
        <ele>46.1</ele>
        <time>2020-06-22T13:47:24Z</time>
      </trkpt>
      <trkpt lat="50.66721" lon="1.63544">
        <ele>46.1</ele>
        <time>2020-06-22T13:47:25Z</time>
      </trkpt>
      <trkpt lat="50.66722" lon="1.63544">
        <ele>46.1</ele>
        <time>2020-06-22T13:47:26Z</time>
      </trkpt>
      <trkpt lat="50.66722" lon="1.63544">
        <ele>46.1</ele>
        <time>2020-06-22T13:47:27Z</time>
      </trkpt>
      <trkpt lat="50.66722" lon="1.63543">
        <ele>46.1</ele>
        <time>2020-06-22T13:47:28Z</time>
      </trkpt>
      <trkpt lat="50.66722" lon="1.63543">
        <ele>46.1</ele>
        <time>2020-06-22T13:47:29Z</time>
      </trkpt>
      <trkpt lat="50.66722" lon="1.63543">
        <ele>46.1</ele>
        <time>2020-06-22T13:47:30Z</time>
      </trkpt>
      <trkpt lat="50.66722" lon="1.63543">
        <ele>46.1</ele>
        <time>2020-06-22T13:47:31Z</time>
      </trkpt>
      <trkpt lat="50.66724" lon="1.63542">
        <ele>46.1</ele>
        <time>2020-06-22T13:47:32Z</time>
      </trkpt>
      <trkpt lat="50.66723" lon="1.63542">
        <ele>46.1</ele>
        <time>2020-06-22T13:47:53Z</time>
      </trkpt>
      <trkpt lat="50.66722" lon="1.63543">
        <ele>46.1</ele>
        <time>2020-06-22T13:47:54Z</time>
      </trkpt>
      <trkpt lat="50.6672" lon="1.63544">
        <ele>46.1</ele>
        <time>2020-06-22T13:47:55Z</time>
      </trkpt>
      <trkpt lat="50.66719" lon="1.63546">
        <ele>46.3</ele>
        <time>2020-06-22T13:47:56Z</time>
      </trkpt>
      <trkpt lat="50.6672" lon="1.63546">
        <ele>46.3</ele>
        <time>2020-06-22T13:47:57Z</time>
      </trkpt>
      <trkpt lat="50.66719" lon="1.63546">
        <ele>46.2</ele>
        <time>2020-06-22T13:47:58Z</time>
      </trkpt>
      <trkpt lat="50.66719" lon="1.63547">
        <ele>46.2</ele>
        <time>2020-06-22T13:47:59Z</time>
      </trkpt>
      <trkpt lat="50.66719" lon="1.63546">
        <ele>46.2</ele>
        <time>2020-06-22T13:48:00Z</time>
      </trkpt>
      <trkpt lat="50.66719" lon="1.63547">
        <ele>46.2</ele>
        <time>2020-06-22T13:48:01Z</time>
      </trkpt>
      <trkpt lat="50.66719" lon="1.63546">
        <ele>46.2</ele>
        <time>2020-06-22T13:48:02Z</time>
      </trkpt>
      <trkpt lat="50.66719" lon="1.63546">
        <ele>46.2</ele>
        <time>2020-06-22T13:48:03Z</time>
      </trkpt>
      <trkpt lat="50.66719" lon="1.63546">
        <ele>46.3</ele>
        <time>2020-06-22T13:48:04Z</time>
      </trkpt>
      <trkpt lat="50.66718" lon="1.63546">
        <ele>46.2</ele>
        <time>2020-06-22T13:48:05Z</time>
      </trkpt>
      <trkpt lat="50.66718" lon="1.63547">
        <ele>46.2</ele>
        <time>2020-06-22T13:48:06Z</time>
      </trkpt>
      <trkpt lat="50.66718" lon="1.63546">
        <ele>46.3</ele>
        <time>2020-06-22T13:48:07Z</time>
      </trkpt>
      <trkpt lat="50.66718" lon="1.63544">
        <ele>46.3</ele>
        <time>2020-06-22T13:48:08Z</time>
      </trkpt>
      <trkpt lat="50.66718" lon="1.63543">
        <ele>46.3</ele>
        <time>2020-06-22T13:48:09Z</time>
      </trkpt>
      <trkpt lat="50.6672" lon="1.63542">
        <ele>46.4</ele>
        <time>2020-06-22T13:48:10Z</time>
      </trkpt>
      <trkpt lat="50.6672" lon="1.63541">
        <ele>46.2</ele>
        <time>2020-06-22T13:48:11Z</time>
      </trkpt>
      <trkpt lat="50.66721" lon="1.63541">
        <ele>46.2</ele>
        <time>2020-06-22T13:48:12Z</time>
      </trkpt>
      <trkpt lat="50.66721" lon="1.63541">
        <ele>46.2</ele>
        <time>2020-06-22T13:48:13Z</time>
      </trkpt>
      <trkpt lat="50.66721" lon="1.63542">
        <ele>46.2</ele>
        <time>2020-06-22T13:48:14Z</time>
      </trkpt>
      <trkpt lat="50.66721" lon="1.63542">
        <ele>46.1</ele>
        <time>2020-06-22T13:48:15Z</time>
      </trkpt>
      <trkpt lat="50.66722" lon="1.63543">
        <ele>46.1</ele>
        <time>2020-06-22T13:48:16Z</time>
      </trkpt>
      <trkpt lat="50.66722" lon="1.63543">
        <ele>46.1</ele>
        <time>2020-06-22T13:48:17Z</time>
      </trkpt>
      <trkpt lat="50.66722" lon="1.63542">
        <ele>46.1</ele>
        <time>2020-06-22T13:48:18Z</time>
      </trkpt>
      <trkpt lat="50.66722" lon="1.63542">
        <ele>46.1</ele>
        <time>2020-06-22T13:48:19Z</time>
      </trkpt>
      <trkpt lat="50.66722" lon="1.63543">
        <ele>46.1</ele>
        <time>2020-06-22T13:48:20Z</time>
      </trkpt>
      <trkpt lat="50.66722" lon="1.63543">
        <ele>46.1</ele>
        <time>2020-06-22T13:48:21Z</time>
      </trkpt>
      <trkpt lat="50.66722" lon="1.63543">
        <ele>46.1</ele>
        <time>2020-06-22T13:48:22Z</time>
      </trkpt>
      <trkpt lat="50.66723" lon="1.6354">
        <ele>46.1</ele>
        <time>2020-06-22T13:48:23Z</time>
      </trkpt>
      <trkpt lat="50.66723" lon="1.6354">
        <ele>46.1</ele>
        <time>2020-06-22T13:48:24Z</time>
      </trkpt>
      <trkpt lat="50.66724" lon="1.63539">
        <ele>46.1</ele>
        <time>2020-06-22T13:48:25Z</time>
      </trkpt>
      <trkpt lat="50.66724" lon="1.6354">
        <ele>46.1</ele>
        <time>2020-06-22T13:48:26Z</time>
      </trkpt>
      <trkpt lat="50.66724" lon="1.6354">
        <ele>46.1</ele>
        <time>2020-06-22T13:48:27Z</time>
      </trkpt>
      <trkpt lat="50.66725" lon="1.63541">
        <ele>46.1</ele>
        <time>2020-06-22T13:48:28Z</time>
      </trkpt>
      <trkpt lat="50.66726" lon="1.6354">
        <ele>46</ele>
        <time>2020-06-22T13:48:29Z</time>
      </trkpt>
      <trkpt lat="50.66728" lon="1.63539">
        <ele>46</ele>
        <time>2020-06-22T13:48:30Z</time>
      </trkpt>
      <trkpt lat="50.66728" lon="1.63539">
        <ele>46</ele>
        <time>2020-06-22T13:48:31Z</time>
      </trkpt>
      <trkpt lat="50.66728" lon="1.63539">
        <ele>46</ele>
        <time>2020-06-22T13:48:32Z</time>
      </trkpt>
      <trkpt lat="50.66728" lon="1.63539">
        <ele>45.8</ele>
        <time>2020-06-22T13:48:33Z</time>
      </trkpt>
      <trkpt lat="50.66728" lon="1.63538">
        <ele>45.8</ele>
        <time>2020-06-22T13:48:34Z</time>
      </trkpt>
      <trkpt lat="50.66728" lon="1.63537">
        <ele>45.9</ele>
        <time>2020-06-22T13:48:35Z</time>
      </trkpt>
      <trkpt lat="50.66729" lon="1.63536">
        <ele>45.9</ele>
        <time>2020-06-22T13:48:36Z</time>
      </trkpt>
      <trkpt lat="50.66729" lon="1.63536">
        <ele>45.9</ele>
        <time>2020-06-22T13:48:37Z</time>
      </trkpt>
      <trkpt lat="50.66729" lon="1.63535">
        <ele>45.9</ele>
        <time>2020-06-22T13:48:38Z</time>
      </trkpt>
      <trkpt lat="50.66729" lon="1.63535">
        <ele>45.9</ele>
        <time>2020-06-22T13:48:39Z</time>
      </trkpt>
      <trkpt lat="50.66729" lon="1.63535">
        <ele>45.9</ele>
        <time>2020-06-22T13:48:40Z</time>
      </trkpt>
      <trkpt lat="50.66729" lon="1.63536">
        <ele>45.9</ele>
        <time>2020-06-22T13:48:41Z</time>
      </trkpt>
      <trkpt lat="50.66729" lon="1.63537">
        <ele>45.9</ele>
        <time>2020-06-22T13:48:42Z</time>
      </trkpt>
      <trkpt lat="50.66729" lon="1.63536">
        <ele>45.9</ele>
        <time>2020-06-22T13:48:43Z</time>
      </trkpt>
      <trkpt lat="50.6673" lon="1.63537">
        <ele>45.9</ele>
        <time>2020-06-22T13:48:44Z</time>
      </trkpt>
      <trkpt lat="50.6673" lon="1.63538">
        <ele>45.9</ele>
        <time>2020-06-22T13:48:45Z</time>
      </trkpt>
      <trkpt lat="50.6673" lon="1.63538">
        <ele>45.9</ele>
        <time>2020-06-22T13:48:46Z</time>
      </trkpt>
      <trkpt lat="50.6673" lon="1.63537">
        <ele>45.9</ele>
        <time>2020-06-22T13:48:47Z</time>
      </trkpt>
      <trkpt lat="50.6673" lon="1.63537">
        <ele>45.9</ele>
        <time>2020-06-22T13:48:48Z</time>
      </trkpt>
      <trkpt lat="50.6673" lon="1.63537">
        <ele>45.9</ele>
        <time>2020-06-22T13:48:49Z</time>
      </trkpt>
      <trkpt lat="50.6673" lon="1.63537">
        <ele>45.9</ele>
        <time>2020-06-22T13:48:50Z</time>
      </trkpt>
      <trkpt lat="50.66731" lon="1.63538">
        <ele>45.7</ele>
        <time>2020-06-22T13:48:51Z</time>
      </trkpt>
      <trkpt lat="50.66732" lon="1.63539">
        <ele>45.7</ele>
        <time>2020-06-22T13:48:52Z</time>
      </trkpt>
      <trkpt lat="50.66733" lon="1.63539">
        <ele>45.7</ele>
        <time>2020-06-22T13:48:53Z</time>
      </trkpt>
      <trkpt lat="50.66734" lon="1.63539">
        <ele>45.5</ele>
        <time>2020-06-22T13:48:54Z</time>
      </trkpt>
      <trkpt lat="50.66734" lon="1.63539">
        <ele>45.5</ele>
        <time>2020-06-22T13:48:55Z</time>
      </trkpt>
      <trkpt lat="50.66743" lon="1.63533">
        <ele>45.2</ele>
        <time>2020-06-22T13:49:06Z</time>
      </trkpt>
      <trkpt lat="50.66744" lon="1.63533">
        <ele>45.3</ele>
        <time>2020-06-22T13:49:07Z</time>
      </trkpt>
      <trkpt lat="50.66746" lon="1.63533">
        <ele>45.1</ele>
        <time>2020-06-22T13:49:08Z</time>
      </trkpt>
      <trkpt lat="50.66746" lon="1.63533">
        <ele>45.1</ele>
        <time>2020-06-22T13:49:09Z</time>
      </trkpt>
      <trkpt lat="50.66746" lon="1.63533">
        <ele>45.1</ele>
        <time>2020-06-22T13:49:10Z</time>
      </trkpt>
      <trkpt lat="50.66747" lon="1.63534">
        <ele>45</ele>
        <time>2020-06-22T13:49:11Z</time>
      </trkpt>
      <trkpt lat="50.66747" lon="1.63534">
        <ele>45</ele>
        <time>2020-06-22T13:49:12Z</time>
      </trkpt>
      <trkpt lat="50.66747" lon="1.63534">
        <ele>45</ele>
        <time>2020-06-22T13:49:13Z</time>
      </trkpt>
      <trkpt lat="50.66747" lon="1.63533">
        <ele>45.1</ele>
        <time>2020-06-22T13:49:14Z</time>
      </trkpt>
      <trkpt lat="50.66748" lon="1.63534">
        <ele>44.8</ele>
        <time>2020-06-22T13:49:15Z</time>
      </trkpt>
      <trkpt lat="50.66749" lon="1.63534">
        <ele>44.8</ele>
        <time>2020-06-22T13:49:16Z</time>
      </trkpt>
      <trkpt lat="50.66749" lon="1.63535">
        <ele>44.8</ele>
        <time>2020-06-22T13:49:17Z</time>
      </trkpt>
      <trkpt lat="50.6675" lon="1.63537">
        <ele>44.8</ele>
        <time>2020-06-22T13:49:18Z</time>
      </trkpt>
      <trkpt lat="50.6675" lon="1.63538">
        <ele>44.8</ele>
        <time>2020-06-22T13:49:19Z</time>
      </trkpt>
      <trkpt lat="50.6675" lon="1.63539">
        <ele>44.6</ele>
        <time>2020-06-22T13:49:20Z</time>
      </trkpt>
      <trkpt lat="50.6675" lon="1.63539">
        <ele>44.6</ele>
        <time>2020-06-22T13:49:21Z</time>
      </trkpt>
      <trkpt lat="50.66749" lon="1.63539">
        <ele>44.8</ele>
        <time>2020-06-22T13:49:22Z</time>
      </trkpt>
      <trkpt lat="50.66749" lon="1.63538">
        <ele>44.8</ele>
        <time>2020-06-22T13:49:23Z</time>
      </trkpt>
      <trkpt lat="50.6675" lon="1.63538">
        <ele>44.8</ele>
        <time>2020-06-22T13:49:24Z</time>
      </trkpt>
      <trkpt lat="50.66749" lon="1.63537">
        <ele>44.8</ele>
        <time>2020-06-22T13:49:25Z</time>
      </trkpt>
      <trkpt lat="50.66749" lon="1.63537">
        <ele>44.8</ele>
        <time>2020-06-22T13:49:26Z</time>
      </trkpt>
      <trkpt lat="50.66749" lon="1.63537">
        <ele>44.8</ele>
        <time>2020-06-22T13:49:27Z</time>
      </trkpt>
      <trkpt lat="50.66748" lon="1.63538">
        <ele>44.8</ele>
        <time>2020-06-22T13:49:28Z</time>
      </trkpt>
      <trkpt lat="50.66748" lon="1.63538">
        <ele>44.8</ele>
        <time>2020-06-22T13:49:29Z</time>
      </trkpt>
      <trkpt lat="50.66748" lon="1.63538">
        <ele>44.8</ele>
        <time>2020-06-22T13:49:30Z</time>
      </trkpt>
      <trkpt lat="50.66747" lon="1.63537">
        <ele>45</ele>
        <time>2020-06-22T13:49:31Z</time>
      </trkpt>
      <trkpt lat="50.66746" lon="1.63537">
        <ele>45</ele>
        <time>2020-06-22T13:49:32Z</time>
      </trkpt>
      <trkpt lat="50.66746" lon="1.63536">
        <ele>45</ele>
        <time>2020-06-22T13:49:33Z</time>
      </trkpt>
      <trkpt lat="50.66746" lon="1.63536">
        <ele>45</ele>
        <time>2020-06-22T13:49:34Z</time>
      </trkpt>
      <trkpt lat="50.66746" lon="1.63535">
        <ele>45</ele>
        <time>2020-06-22T13:49:35Z</time>
      </trkpt>
      <trkpt lat="50.66745" lon="1.63535">
        <ele>45</ele>
        <time>2020-06-22T13:49:36Z</time>
      </trkpt>
      <trkpt lat="50.66745" lon="1.63534">
        <ele>45</ele>
        <time>2020-06-22T13:49:37Z</time>
      </trkpt>
      <trkpt lat="50.66745" lon="1.63534">
        <ele>45</ele>
        <time>2020-06-22T13:49:38Z</time>
      </trkpt>
      <trkpt lat="50.66744" lon="1.63533">
        <ele>45</ele>
        <time>2020-06-22T13:49:39Z</time>
      </trkpt>
      <trkpt lat="50.66744" lon="1.63533">
        <ele>45.3</ele>
        <time>2020-06-22T13:49:40Z</time>
      </trkpt>
      <trkpt lat="50.66743" lon="1.63532">
        <ele>45.3</ele>
        <time>2020-06-22T13:49:41Z</time>
      </trkpt>
      <trkpt lat="50.66741" lon="1.63531">
        <ele>45.4</ele>
        <time>2020-06-22T13:49:42Z</time>
      </trkpt>
      <trkpt lat="50.6674" lon="1.6353">
        <ele>45.4</ele>
        <time>2020-06-22T13:49:43Z</time>
      </trkpt>
      <trkpt lat="50.6674" lon="1.6353">
        <ele>45.4</ele>
        <time>2020-06-22T13:49:44Z</time>
      </trkpt>
      <trkpt lat="50.6674" lon="1.6353">
        <ele>45.4</ele>
        <time>2020-06-22T13:49:45Z</time>
      </trkpt>
      <trkpt lat="50.6674" lon="1.63532">
        <ele>45.4</ele>
        <time>2020-06-22T13:49:46Z</time>
      </trkpt>
      <trkpt lat="50.6674" lon="1.63532">
        <ele>45.4</ele>
        <time>2020-06-22T13:49:47Z</time>
      </trkpt>
      <trkpt lat="50.6674" lon="1.63532">
        <ele>45.4</ele>
        <time>2020-06-22T13:49:48Z</time>
      </trkpt>
      <trkpt lat="50.66739" lon="1.63531">
        <ele>45.4</ele>
        <time>2020-06-22T13:49:49Z</time>
      </trkpt>
      <trkpt lat="50.6674" lon="1.63531">
        <ele>45.4</ele>
        <time>2020-06-22T13:49:50Z</time>
      </trkpt>
      <trkpt lat="50.66739" lon="1.63529">
        <ele>45.4</ele>
        <time>2020-06-22T13:49:51Z</time>
      </trkpt>
      <trkpt lat="50.66739" lon="1.63528">
        <ele>45.6</ele>
        <time>2020-06-22T13:49:52Z</time>
      </trkpt>
      <trkpt lat="50.66739" lon="1.63527">
        <ele>45.7</ele>
        <time>2020-06-22T13:49:53Z</time>
      </trkpt>
      <trkpt lat="50.66738" lon="1.63526">
        <ele>45.7</ele>
        <time>2020-06-22T13:49:54Z</time>
      </trkpt>
      <trkpt lat="50.66738" lon="1.63525">
        <ele>45.7</ele>
        <time>2020-06-22T13:49:55Z</time>
      </trkpt>
      <trkpt lat="50.66739" lon="1.63525">
        <ele>45.9</ele>
        <time>2020-06-22T13:49:56Z</time>
      </trkpt>
      <trkpt lat="50.66739" lon="1.63524">
        <ele>45.9</ele>
        <time>2020-06-22T13:49:57Z</time>
      </trkpt>
      <trkpt lat="50.66739" lon="1.63524">
        <ele>45.7</ele>
        <time>2020-06-22T13:49:58Z</time>
      </trkpt>
      <trkpt lat="50.66739" lon="1.63523">
        <ele>45.7</ele>
        <time>2020-06-22T13:49:59Z</time>
      </trkpt>
      <trkpt lat="50.6674" lon="1.63524">
        <ele>45.7</ele>
        <time>2020-06-22T13:50:00Z</time>
      </trkpt>
      <trkpt lat="50.6674" lon="1.63524">
        <ele>45.7</ele>
        <time>2020-06-22T13:50:01Z</time>
      </trkpt>
      <trkpt lat="50.6674" lon="1.63524">
        <ele>45.7</ele>
        <time>2020-06-22T13:50:02Z</time>
      </trkpt>
      <trkpt lat="50.6674" lon="1.63525">
        <ele>45.6</ele>
        <time>2020-06-22T13:50:03Z</time>
      </trkpt>
      <trkpt lat="50.6674" lon="1.63525">
        <ele>45.6</ele>
        <time>2020-06-22T13:50:04Z</time>
      </trkpt>
      <trkpt lat="50.6674" lon="1.63526">
        <ele>45.6</ele>
        <time>2020-06-22T13:50:05Z</time>
      </trkpt>
      <trkpt lat="50.6674" lon="1.63526">
        <ele>45.6</ele>
        <time>2020-06-22T13:50:06Z</time>
      </trkpt>
      <trkpt lat="50.6674" lon="1.63526">
        <ele>45.6</ele>
        <time>2020-06-22T13:50:07Z</time>
      </trkpt>
      <trkpt lat="50.66741" lon="1.63527">
        <ele>45.6</ele>
        <time>2020-06-22T13:50:08Z</time>
      </trkpt>
      <trkpt lat="50.66741" lon="1.63527">
        <ele>45.6</ele>
        <time>2020-06-22T13:50:09Z</time>
      </trkpt>
      <trkpt lat="50.66741" lon="1.63527">
        <ele>45.6</ele>
        <time>2020-06-22T13:50:10Z</time>
      </trkpt>
      <trkpt lat="50.66741" lon="1.63528">
        <ele>45.6</ele>
        <time>2020-06-22T13:50:11Z</time>
      </trkpt>
      <trkpt lat="50.66741" lon="1.63528">
        <ele>45.6</ele>
        <time>2020-06-22T13:50:12Z</time>
      </trkpt>
      <trkpt lat="50.66741" lon="1.63528">
        <ele>45.6</ele>
        <time>2020-06-22T13:50:13Z</time>
      </trkpt>
      <trkpt lat="50.66741" lon="1.63529">
        <ele>45.6</ele>
        <time>2020-06-22T13:50:14Z</time>
      </trkpt>
      <trkpt lat="50.66743" lon="1.63534">
        <ele>45.2</ele>
        <time>2020-06-22T13:50:15Z</time>
      </trkpt>
      <trkpt lat="50.66743" lon="1.63535">
        <ele>45.2</ele>
        <time>2020-06-22T13:50:16Z</time>
      </trkpt>
      <trkpt lat="50.66744" lon="1.63536">
        <ele>45.2</ele>
        <time>2020-06-22T13:50:17Z</time>
      </trkpt>
      <trkpt lat="50.66745" lon="1.63537">
        <ele>45</ele>
        <time>2020-06-22T13:50:18Z</time>
      </trkpt>
      <trkpt lat="50.66745" lon="1.63537">
        <ele>45</ele>
        <time>2020-06-22T13:50:19Z</time>
      </trkpt>
      <trkpt lat="50.66745" lon="1.63537">
        <ele>45</ele>
        <time>2020-06-22T13:50:20Z</time>
      </trkpt>
      <trkpt lat="50.66745" lon="1.63537">
        <ele>45</ele>
        <time>2020-06-22T13:50:21Z</time>
      </trkpt>
      <trkpt lat="50.66745" lon="1.63537">
        <ele>45</ele>
        <time>2020-06-22T13:50:22Z</time>
      </trkpt>
      <trkpt lat="50.66745" lon="1.63537">
        <ele>45</ele>
        <time>2020-06-22T13:50:23Z</time>
      </trkpt>
      <trkpt lat="50.66745" lon="1.63537">
        <ele>45</ele>
        <time>2020-06-22T13:50:24Z</time>
      </trkpt>
      <trkpt lat="50.66773" lon="1.63565">
        <ele>43.7</ele>
        <time>2020-06-22T13:52:00Z</time>
      </trkpt>
      <trkpt lat="50.66773" lon="1.63564">
        <ele>43.7</ele>
        <time>2020-06-22T13:52:01Z</time>
      </trkpt>
      <trkpt lat="50.66773" lon="1.63565">
        <ele>43.7</ele>
        <time>2020-06-22T13:52:02Z</time>
      </trkpt>
      <trkpt lat="50.66774" lon="1.63566">
        <ele>43.7</ele>
        <time>2020-06-22T13:52:03Z</time>
      </trkpt>
      <trkpt lat="50.66774" lon="1.63566">
        <ele>43.7</ele>
        <time>2020-06-22T13:52:04Z</time>
      </trkpt>
      <trkpt lat="50.66774" lon="1.63567">
        <ele>43.7</ele>
        <time>2020-06-22T13:52:05Z</time>
      </trkpt>
      <trkpt lat="50.66774" lon="1.63567">
        <ele>43.6</ele>
        <time>2020-06-22T13:52:06Z</time>
      </trkpt>
      <trkpt lat="50.66774" lon="1.63567">
        <ele>43.7</ele>
        <time>2020-06-22T13:52:07Z</time>
      </trkpt>
      <trkpt lat="50.66774" lon="1.63567">
        <ele>43.6</ele>
        <time>2020-06-22T13:52:08Z</time>
      </trkpt>
      <trkpt lat="50.66774" lon="1.63567">
        <ele>43.6</ele>
        <time>2020-06-22T13:52:09Z</time>
      </trkpt>
      <trkpt lat="50.66774" lon="1.63566">
        <ele>43.7</ele>
        <time>2020-06-22T13:52:10Z</time>
      </trkpt>
      <trkpt lat="50.66774" lon="1.63566">
        <ele>43.7</ele>
        <time>2020-06-22T13:52:11Z</time>
      </trkpt>
      <trkpt lat="50.66773" lon="1.63565">
        <ele>43.7</ele>
        <time>2020-06-22T13:52:12Z</time>
      </trkpt>
      <trkpt lat="50.66773" lon="1.63564">
        <ele>43.7</ele>
        <time>2020-06-22T13:52:13Z</time>
      </trkpt>
      <trkpt lat="50.66772" lon="1.63562">
        <ele>43.8</ele>
        <time>2020-06-22T13:52:14Z</time>
      </trkpt>
      <trkpt lat="50.66769" lon="1.63559">
        <ele>43.9</ele>
        <time>2020-06-22T13:52:15Z</time>
      </trkpt>
      <trkpt lat="50.66768" lon="1.63559">
        <ele>43.8</ele>
        <time>2020-06-22T13:52:16Z</time>
      </trkpt>
      <trkpt lat="50.66766" lon="1.63557">
        <ele>43.9</ele>
        <time>2020-06-22T13:52:17Z</time>
      </trkpt>
      <trkpt lat="50.66765" lon="1.63558">
        <ele>43.9</ele>
        <time>2020-06-22T13:52:18Z</time>
      </trkpt>
      <trkpt lat="50.66763" lon="1.63557">
        <ele>44.1</ele>
        <time>2020-06-22T13:52:19Z</time>
      </trkpt>
      <trkpt lat="50.66761" lon="1.63557">
        <ele>44.1</ele>
        <time>2020-06-22T13:52:20Z</time>
      </trkpt>
      <trkpt lat="50.6676" lon="1.63557">
        <ele>44.2</ele>
        <time>2020-06-22T13:52:21Z</time>
      </trkpt>
      <trkpt lat="50.66758" lon="1.63555">
        <ele>44.2</ele>
        <time>2020-06-22T13:52:22Z</time>
      </trkpt>
      <trkpt lat="50.66755" lon="1.63552">
        <ele>44.4</ele>
        <time>2020-06-22T13:52:23Z</time>
      </trkpt>
      <trkpt lat="50.66754" lon="1.63551">
        <ele>44.4</ele>
        <time>2020-06-22T13:52:24Z</time>
      </trkpt>
      <trkpt lat="50.66751" lon="1.63548">
        <ele>44.6</ele>
        <time>2020-06-22T13:52:25Z</time>
      </trkpt>
      <trkpt lat="50.66748" lon="1.63546">
        <ele>44.7</ele>
        <time>2020-06-22T13:52:26Z</time>
      </trkpt>
      <trkpt lat="50.66746" lon="1.63543">
        <ele>44.9</ele>
        <time>2020-06-22T13:52:27Z</time>
      </trkpt>
      <trkpt lat="50.66744" lon="1.63539">
        <ele>45.1</ele>
        <time>2020-06-22T13:52:28Z</time>
      </trkpt>
      <trkpt lat="50.66743" lon="1.63538">
        <ele>45.1</ele>
        <time>2020-06-22T13:52:29Z</time>
      </trkpt>
      <trkpt lat="50.66744" lon="1.63535">
        <ele>45.2</ele>
        <time>2020-06-22T13:52:30Z</time>
      </trkpt>
      <trkpt lat="50.66745" lon="1.63534">
        <ele>45</ele>
        <time>2020-06-22T13:52:31Z</time>
      </trkpt>
      <trkpt lat="50.66745" lon="1.63533">
        <ele>45.1</ele>
        <time>2020-06-22T13:52:32Z</time>
      </trkpt>
      <trkpt lat="50.66746" lon="1.63531">
        <ele>45.1</ele>
        <time>2020-06-22T13:52:33Z</time>
      </trkpt>
      <trkpt lat="50.66745" lon="1.63528">
        <ele>45.2</ele>
        <time>2020-06-22T13:52:34Z</time>
      </trkpt>
      <trkpt lat="50.66745" lon="1.63524">
        <ele>45.3</ele>
        <time>2020-06-22T13:52:35Z</time>
      </trkpt>
      <trkpt lat="50.66744" lon="1.63523">
        <ele>45.5</ele>
        <time>2020-06-22T13:52:36Z</time>
      </trkpt>
      <trkpt lat="50.66744" lon="1.63519">
        <ele>45.7</ele>
        <time>2020-06-22T13:52:37Z</time>
      </trkpt>
      <trkpt lat="50.66744" lon="1.63517">
        <ele>45.7</ele>
        <time>2020-06-22T13:52:38Z</time>
      </trkpt>
      <trkpt lat="50.66743" lon="1.63512">
        <ele>45.9</ele>
        <time>2020-06-22T13:52:39Z</time>
      </trkpt>
      <trkpt lat="50.66743" lon="1.6351">
        <ele>46.2</ele>
        <time>2020-06-22T13:52:40Z</time>
      </trkpt>
      <trkpt lat="50.66743" lon="1.63508">
        <ele>46.2</ele>
        <time>2020-06-22T13:52:41Z</time>
      </trkpt>
      <trkpt lat="50.66744" lon="1.63505">
        <ele>46.5</ele>
        <time>2020-06-22T13:52:42Z</time>
      </trkpt>
      <trkpt lat="50.66743" lon="1.63503">
        <ele>46.5</ele>
        <time>2020-06-22T13:52:43Z</time>
      </trkpt>
      <trkpt lat="50.66744" lon="1.635">
        <ele>46.8</ele>
        <time>2020-06-22T13:52:44Z</time>
      </trkpt>
      <trkpt lat="50.66743" lon="1.63496">
        <ele>47.2</ele>
        <time>2020-06-22T13:52:45Z</time>
      </trkpt>
      <trkpt lat="50.66743" lon="1.63494">
        <ele>47.5</ele>
        <time>2020-06-22T13:52:46Z</time>
      </trkpt>
      <trkpt lat="50.66742" lon="1.63491">
        <ele>47.5</ele>
        <time>2020-06-22T13:52:47Z</time>
      </trkpt>
      <trkpt lat="50.66742" lon="1.63489">
        <ele>47.9</ele>
        <time>2020-06-22T13:52:48Z</time>
      </trkpt>
      <trkpt lat="50.66742" lon="1.63485">
        <ele>48.3</ele>
        <time>2020-06-22T13:52:49Z</time>
      </trkpt>
      <trkpt lat="50.66742" lon="1.63482">
        <ele>48.3</ele>
        <time>2020-06-22T13:52:50Z</time>
      </trkpt>
      <trkpt lat="50.66741" lon="1.63479">
        <ele>49</ele>
        <time>2020-06-22T13:52:51Z</time>
      </trkpt>
      <trkpt lat="50.66741" lon="1.63475">
        <ele>49.4</ele>
        <time>2020-06-22T13:52:52Z</time>
      </trkpt>
      <trkpt lat="50.66741" lon="1.63474">
        <ele>49.4</ele>
        <time>2020-06-22T13:52:53Z</time>
      </trkpt>
      <trkpt lat="50.6674" lon="1.63473">
        <ele>49.8</ele>
        <time>2020-06-22T13:52:54Z</time>
      </trkpt>
      <trkpt lat="50.6674" lon="1.6347">
        <ele>49.8</ele>
        <time>2020-06-22T13:52:55Z</time>
      </trkpt>
      <trkpt lat="50.6674" lon="1.63469">
        <ele>50.2</ele>
        <time>2020-06-22T13:52:56Z</time>
      </trkpt>
      <trkpt lat="50.66739" lon="1.63467">
        <ele>50.2</ele>
        <time>2020-06-22T13:52:57Z</time>
      </trkpt>
      <trkpt lat="50.66739" lon="1.6346">
        <ele>51.3</ele>
        <time>2020-06-22T13:52:58Z</time>
      </trkpt>
      <trkpt lat="50.66738" lon="1.63456">
        <ele>51.3</ele>
        <time>2020-06-22T13:52:59Z</time>
      </trkpt>
      <trkpt lat="50.66738" lon="1.63451">
        <ele>52.2</ele>
        <time>2020-06-22T13:53:00Z</time>
      </trkpt>
      <trkpt lat="50.66738" lon="1.63449">
        <ele>52.2</ele>
        <time>2020-06-22T13:53:01Z</time>
      </trkpt>
      <trkpt lat="50.66737" lon="1.63444">
        <ele>52.6</ele>
        <time>2020-06-22T13:53:02Z</time>
      </trkpt>
      <trkpt lat="50.66737" lon="1.63443">
        <ele>53.1</ele>
        <time>2020-06-22T13:53:03Z</time>
      </trkpt>
      <trkpt lat="50.66735" lon="1.63438">
        <ele>53.8</ele>
        <time>2020-06-22T13:53:04Z</time>
      </trkpt>
      <trkpt lat="50.66735" lon="1.63436">
        <ele>53.8</ele>
        <time>2020-06-22T13:53:05Z</time>
      </trkpt>
      <trkpt lat="50.66733" lon="1.63431">
        <ele>54.5</ele>
        <time>2020-06-22T13:53:06Z</time>
      </trkpt>
      <trkpt lat="50.66733" lon="1.63429">
        <ele>55</ele>
        <time>2020-06-22T13:53:07Z</time>
      </trkpt>
      <trkpt lat="50.66731" lon="1.63424">
        <ele>55.5</ele>
        <time>2020-06-22T13:53:08Z</time>
      </trkpt>
      <trkpt lat="50.66731" lon="1.63423">
        <ele>55.5</ele>
        <time>2020-06-22T13:53:09Z</time>
      </trkpt>
      <trkpt lat="50.6673" lon="1.63418">
        <ele>56.2</ele>
        <time>2020-06-22T13:53:10Z</time>
      </trkpt>
      <trkpt lat="50.6673" lon="1.63417">
        <ele>56.7</ele>
        <time>2020-06-22T13:53:11Z</time>
      </trkpt>
      <trkpt lat="50.6673" lon="1.63415">
        <ele>56.7</ele>
        <time>2020-06-22T13:53:12Z</time>
      </trkpt>
      <trkpt lat="50.66729" lon="1.63412">
        <ele>57.2</ele>
        <time>2020-06-22T13:53:13Z</time>
      </trkpt>
      <trkpt lat="50.66729" lon="1.63411">
        <ele>57.2</ele>
        <time>2020-06-22T13:53:14Z</time>
      </trkpt>
      <trkpt lat="50.66728" lon="1.63405">
        <ele>57.7</ele>
        <time>2020-06-22T13:53:15Z</time>
      </trkpt>
      <trkpt lat="50.66728" lon="1.63401">
        <ele>58.4</ele>
        <time>2020-06-22T13:53:16Z</time>
      </trkpt>
      <trkpt lat="50.66729" lon="1.63411">
        <ele>57.2</ele>
        <time>2020-06-22T13:53:17Z</time>
      </trkpt>
      <trkpt lat="50.6673" lon="1.6342">
        <ele>56.2</ele>
        <time>2020-06-22T13:53:18Z</time>
      </trkpt>
      <trkpt lat="50.66732" lon="1.6343">
        <ele>55</ele>
        <time>2020-06-22T13:53:19Z</time>
      </trkpt>
      <trkpt lat="50.66733" lon="1.6344">
        <ele>53.6</ele>
        <time>2020-06-22T13:53:20Z</time>
      </trkpt>
      <trkpt lat="50.66735" lon="1.63449">
        <ele>52.4</ele>
        <time>2020-06-22T13:53:21Z</time>
      </trkpt>
      <trkpt lat="50.66736" lon="1.63448">
        <ele>52.4</ele>
        <time>2020-06-22T13:53:22Z</time>
      </trkpt>
      <trkpt lat="50.66736" lon="1.6345">
        <ele>52.4</ele>
        <time>2020-06-22T13:53:23Z</time>
      </trkpt>
      <trkpt lat="50.66736" lon="1.63452">
        <ele>52</ele>
        <time>2020-06-22T13:53:24Z</time>
      </trkpt>
      <trkpt lat="50.66736" lon="1.63454">
        <ele>52</ele>
        <time>2020-06-22T13:53:25Z</time>
      </trkpt>
      <trkpt lat="50.66736" lon="1.63456">
        <ele>52</ele>
        <time>2020-06-22T13:53:26Z</time>
      </trkpt>
      <trkpt lat="50.66736" lon="1.63456">
        <ele>52</ele>
        <time>2020-06-22T13:53:27Z</time>
      </trkpt>
      <trkpt lat="50.66736" lon="1.63456">
        <ele>51.5</ele>
        <time>2020-06-22T13:53:28Z</time>
      </trkpt>
      <trkpt lat="50.66736" lon="1.63456">
        <ele>52</ele>
        <time>2020-06-22T13:53:29Z</time>
      </trkpt>
      <trkpt lat="50.66736" lon="1.63455">
        <ele>52</ele>
        <time>2020-06-22T13:53:30Z</time>
      </trkpt>
      <trkpt lat="50.66737" lon="1.63453">
        <ele>51.7</ele>
        <time>2020-06-22T13:53:31Z</time>
      </trkpt>
      <trkpt lat="50.66738" lon="1.63451">
        <ele>52.2</ele>
        <time>2020-06-22T13:53:32Z</time>
      </trkpt>
      <trkpt lat="50.66739" lon="1.6345">
        <ele>52.2</ele>
        <time>2020-06-22T13:53:33Z</time>
      </trkpt>
      <trkpt lat="50.66739" lon="1.63449">
        <ele>52.2</ele>
        <time>2020-06-22T13:53:34Z</time>
      </trkpt>
      <trkpt lat="50.66739" lon="1.63448">
        <ele>52.2</ele>
        <time>2020-06-22T13:53:35Z</time>
      </trkpt>
      <trkpt lat="50.66738" lon="1.63446">
        <ele>52.6</ele>
        <time>2020-06-22T13:53:36Z</time>
      </trkpt>
      <trkpt lat="50.66738" lon="1.63447">
        <ele>52.6</ele>
        <time>2020-06-22T13:53:37Z</time>
      </trkpt>
      <trkpt lat="50.66739" lon="1.63448">
        <ele>52.2</ele>
        <time>2020-06-22T13:53:38Z</time>
      </trkpt>
      <trkpt lat="50.66739" lon="1.6345">
        <ele>52.2</ele>
        <time>2020-06-22T13:53:39Z</time>
      </trkpt>
      <trkpt lat="50.66739" lon="1.63451">
        <ele>52.2</ele>
        <time>2020-06-22T13:53:40Z</time>
      </trkpt>
      <trkpt lat="50.66739" lon="1.63452">
        <ele>51.5</ele>
        <time>2020-06-22T13:53:41Z</time>
      </trkpt>
      <trkpt lat="50.66739" lon="1.63453">
        <ele>51.5</ele>
        <time>2020-06-22T13:53:42Z</time>
      </trkpt>
      <trkpt lat="50.6674" lon="1.63457">
        <ele>51</ele>
        <time>2020-06-22T13:53:43Z</time>
      </trkpt>
      <trkpt lat="50.6674" lon="1.63457">
        <ele>51</ele>
        <time>2020-06-22T13:53:44Z</time>
      </trkpt>
      <trkpt lat="50.6674" lon="1.63458">
        <ele>51</ele>
        <time>2020-06-22T13:53:45Z</time>
      </trkpt>
      <trkpt lat="50.6674" lon="1.63458">
        <ele>51</ele>
        <time>2020-06-22T13:53:46Z</time>
      </trkpt>
      <trkpt lat="50.6674" lon="1.63459">
        <ele>51</ele>
        <time>2020-06-22T13:53:47Z</time>
      </trkpt>
      <trkpt lat="50.6674" lon="1.63459">
        <ele>51</ele>
        <time>2020-06-22T13:53:48Z</time>
      </trkpt>
      <trkpt lat="50.6674" lon="1.6346">
        <ele>51</ele>
        <time>2020-06-22T13:53:49Z</time>
      </trkpt>
      <trkpt lat="50.6674" lon="1.6346">
        <ele>51</ele>
        <time>2020-06-22T13:53:50Z</time>
      </trkpt>
      <trkpt lat="50.66741" lon="1.63465">
        <ele>50.2</ele>
        <time>2020-06-22T13:53:51Z</time>
      </trkpt>
      <trkpt lat="50.66742" lon="1.63467">
        <ele>50.2</ele>
        <time>2020-06-22T13:53:52Z</time>
      </trkpt>
      <trkpt lat="50.66741" lon="1.63469">
        <ele>49.8</ele>
        <time>2020-06-22T13:53:53Z</time>
      </trkpt>
      <trkpt lat="50.66741" lon="1.6347">
        <ele>49.8</ele>
        <time>2020-06-22T13:53:54Z</time>
      </trkpt>
      <trkpt lat="50.66731" lon="1.63478">
        <ele>50</ele>
        <time>2020-06-22T13:54:06Z</time>
      </trkpt>
      <trkpt lat="50.6673" lon="1.63477">
        <ele>50.4</ele>
        <time>2020-06-22T13:54:07Z</time>
      </trkpt>
      <trkpt lat="50.66729" lon="1.63478">
        <ele>50</ele>
        <time>2020-06-22T13:54:08Z</time>
      </trkpt>
      <trkpt lat="50.66728" lon="1.63478">
        <ele>50.2</ele>
        <time>2020-06-22T13:54:09Z</time>
      </trkpt>
      <trkpt lat="50.66727" lon="1.6348">
        <ele>50.2</ele>
        <time>2020-06-22T13:54:10Z</time>
      </trkpt>
      <trkpt lat="50.66727" lon="1.6348">
        <ele>50.2</ele>
        <time>2020-06-22T13:54:11Z</time>
      </trkpt>
      <trkpt lat="50.66726" lon="1.63481">
        <ele>50.2</ele>
        <time>2020-06-22T13:54:12Z</time>
      </trkpt>
      <trkpt lat="50.66725" lon="1.63481">
        <ele>50.2</ele>
        <time>2020-06-22T13:54:13Z</time>
      </trkpt>
      <trkpt lat="50.66724" lon="1.63482">
        <ele>50</ele>
        <time>2020-06-22T13:54:14Z</time>
      </trkpt>
      <trkpt lat="50.66724" lon="1.63482">
        <ele>50</ele>
        <time>2020-06-22T13:54:15Z</time>
      </trkpt>
      <trkpt lat="50.66726" lon="1.63483">
        <ele>49.8</ele>
        <time>2020-06-22T13:54:16Z</time>
      </trkpt>
      <trkpt lat="50.66727" lon="1.63484">
        <ele>49.8</ele>
        <time>2020-06-22T13:54:17Z</time>
      </trkpt>
      <trkpt lat="50.66727" lon="1.63484">
        <ele>49.8</ele>
        <time>2020-06-22T13:54:18Z</time>
      </trkpt>
      <trkpt lat="50.66726" lon="1.63485">
        <ele>49.8</ele>
        <time>2020-06-22T13:54:19Z</time>
      </trkpt>
      <trkpt lat="50.66725" lon="1.63485">
        <ele>49.8</ele>
        <time>2020-06-22T13:54:20Z</time>
      </trkpt>
      <trkpt lat="50.66725" lon="1.6349">
        <ele>49.4</ele>
        <time>2020-06-22T13:54:21Z</time>
      </trkpt>
      <trkpt lat="50.66725" lon="1.63492">
        <ele>49.2</ele>
        <time>2020-06-22T13:54:22Z</time>
      </trkpt>
      <trkpt lat="50.66725" lon="1.63495">
        <ele>48.7</ele>
        <time>2020-06-22T13:54:23Z</time>
      </trkpt>
      <trkpt lat="50.66725" lon="1.63497">
        <ele>48.7</ele>
        <time>2020-06-22T13:54:24Z</time>
      </trkpt>
      <trkpt lat="50.66725" lon="1.63498">
        <ele>48.7</ele>
        <time>2020-06-22T13:54:25Z</time>
      </trkpt>
      <trkpt lat="50.66725" lon="1.63499">
        <ele>48.7</ele>
        <time>2020-06-22T13:54:26Z</time>
      </trkpt>
      <trkpt lat="50.66724" lon="1.63501">
        <ele>48.3</ele>
        <time>2020-06-22T13:54:27Z</time>
      </trkpt>
      <trkpt lat="50.66724" lon="1.635">
        <ele>48.3</ele>
        <time>2020-06-22T13:54:28Z</time>
      </trkpt>
      <trkpt lat="50.66725" lon="1.63499">
        <ele>48.3</ele>
        <time>2020-06-22T13:54:29Z</time>
      </trkpt>
      <trkpt lat="50.66725" lon="1.63497">
        <ele>48.7</ele>
        <time>2020-06-22T13:54:30Z</time>
      </trkpt>
      <trkpt lat="50.66726" lon="1.63497">
        <ele>48.5</ele>
        <time>2020-06-22T13:54:31Z</time>
      </trkpt>
      <trkpt lat="50.66726" lon="1.63496">
        <ele>48.5</ele>
        <time>2020-06-22T13:54:32Z</time>
      </trkpt>
      <trkpt lat="50.66726" lon="1.63495">
        <ele>48.5</ele>
        <time>2020-06-22T13:54:33Z</time>
      </trkpt>
      <trkpt lat="50.66727" lon="1.63493">
        <ele>49</ele>
        <time>2020-06-22T13:54:34Z</time>
      </trkpt>
      <trkpt lat="50.66727" lon="1.63491">
        <ele>49</ele>
        <time>2020-06-22T13:54:35Z</time>
      </trkpt>
      <trkpt lat="50.66727" lon="1.63491">
        <ele>49</ele>
        <time>2020-06-22T13:54:36Z</time>
      </trkpt>
      <trkpt lat="50.66728" lon="1.63492">
        <ele>49</ele>
        <time>2020-06-22T13:54:37Z</time>
      </trkpt>
      <trkpt lat="50.66728" lon="1.63493">
        <ele>49</ele>
        <time>2020-06-22T13:54:38Z</time>
      </trkpt>
      <trkpt lat="50.66728" lon="1.63494">
        <ele>49</ele>
        <time>2020-06-22T13:54:39Z</time>
      </trkpt>
      <trkpt lat="50.66728" lon="1.63495">
        <ele>48.7</ele>
        <time>2020-06-22T13:54:40Z</time>
      </trkpt>
      <trkpt lat="50.66729" lon="1.63495">
        <ele>48.3</ele>
        <time>2020-06-22T13:54:41Z</time>
      </trkpt>
      <trkpt lat="50.66729" lon="1.63496">
        <ele>48.3</ele>
        <time>2020-06-22T13:54:42Z</time>
      </trkpt>
      <trkpt lat="50.66729" lon="1.63499">
        <ele>48.3</ele>
        <time>2020-06-22T13:54:43Z</time>
      </trkpt>
      <trkpt lat="50.66729" lon="1.635">
        <ele>47.9</ele>
        <time>2020-06-22T13:54:44Z</time>
      </trkpt>
      <trkpt lat="50.66729" lon="1.63501">
        <ele>47.9</ele>
        <time>2020-06-22T13:54:45Z</time>
      </trkpt>
      <trkpt lat="50.66729" lon="1.63502">
        <ele>47.9</ele>
        <time>2020-06-22T13:54:46Z</time>
      </trkpt>
      <trkpt lat="50.66729" lon="1.63503">
        <ele>47.9</ele>
        <time>2020-06-22T13:54:47Z</time>
      </trkpt>
      <trkpt lat="50.66729" lon="1.63503">
        <ele>47.6</ele>
        <time>2020-06-22T13:54:48Z</time>
      </trkpt>
      <trkpt lat="50.66729" lon="1.63504">
        <ele>47.6</ele>
        <time>2020-06-22T13:54:49Z</time>
      </trkpt>
      <trkpt lat="50.66729" lon="1.63505">
        <ele>47.6</ele>
        <time>2020-06-22T13:54:50Z</time>
      </trkpt>
      <trkpt lat="50.66729" lon="1.63505">
        <ele>47.6</ele>
        <time>2020-06-22T13:54:51Z</time>
      </trkpt>
      <trkpt lat="50.66729" lon="1.63506">
        <ele>47.6</ele>
        <time>2020-06-22T13:54:52Z</time>
      </trkpt>
      <trkpt lat="50.66729" lon="1.63507">
        <ele>47.6</ele>
        <time>2020-06-22T13:54:53Z</time>
      </trkpt>
      <trkpt lat="50.66729" lon="1.63507">
        <ele>47.6</ele>
        <time>2020-06-22T13:54:54Z</time>
      </trkpt>
      <trkpt lat="50.66729" lon="1.63508">
        <ele>47.2</ele>
        <time>2020-06-22T13:54:55Z</time>
      </trkpt>
      <trkpt lat="50.66729" lon="1.63509">
        <ele>47.2</ele>
        <time>2020-06-22T13:54:56Z</time>
      </trkpt>
      <trkpt lat="50.66729" lon="1.63507">
        <ele>47.6</ele>
        <time>2020-06-22T13:54:57Z</time>
      </trkpt>
      <trkpt lat="50.6673" lon="1.63508">
        <ele>47.2</ele>
        <time>2020-06-22T13:54:58Z</time>
      </trkpt>
      <trkpt lat="50.6673" lon="1.63508">
        <ele>47.2</ele>
        <time>2020-06-22T13:54:59Z</time>
      </trkpt>
      <trkpt lat="50.6673" lon="1.63509">
        <ele>47.2</ele>
        <time>2020-06-22T13:55:00Z</time>
      </trkpt>
      <trkpt lat="50.6673" lon="1.63509">
        <ele>47.2</ele>
        <time>2020-06-22T13:55:01Z</time>
      </trkpt>
      <trkpt lat="50.6673" lon="1.6351">
        <ele>47.2</ele>
        <time>2020-06-22T13:55:02Z</time>
      </trkpt>
      <trkpt lat="50.6673" lon="1.63509">
        <ele>47.2</ele>
        <time>2020-06-22T13:55:03Z</time>
      </trkpt>
      <trkpt lat="50.6673" lon="1.63509">
        <ele>47.2</ele>
        <time>2020-06-22T13:55:04Z</time>
      </trkpt>
      <trkpt lat="50.6673" lon="1.63509">
        <ele>47.2</ele>
        <time>2020-06-22T13:55:05Z</time>
      </trkpt>
      <trkpt lat="50.6673" lon="1.63508">
        <ele>47.2</ele>
        <time>2020-06-22T13:55:06Z</time>
      </trkpt>
      <trkpt lat="50.6673" lon="1.63508">
        <ele>47.2</ele>
        <time>2020-06-22T13:55:07Z</time>
      </trkpt>
      <trkpt lat="50.6673" lon="1.63509">
        <ele>47.2</ele>
        <time>2020-06-22T13:55:08Z</time>
      </trkpt>
      <trkpt lat="50.66731" lon="1.63509">
        <ele>47.2</ele>
        <time>2020-06-22T13:55:09Z</time>
      </trkpt>
      <trkpt lat="50.66731" lon="1.63509">
        <ele>47</ele>
        <time>2020-06-22T13:55:10Z</time>
      </trkpt>
      <trkpt lat="50.66732" lon="1.63507">
        <ele>47.4</ele>
        <time>2020-06-22T13:55:11Z</time>
      </trkpt>
      <trkpt lat="50.66732" lon="1.63507">
        <ele>47.4</ele>
        <time>2020-06-22T13:55:12Z</time>
      </trkpt>
      <trkpt lat="50.66732" lon="1.63506">
        <ele>47.4</ele>
        <time>2020-06-22T13:55:13Z</time>
      </trkpt>
      <trkpt lat="50.66733" lon="1.63506">
        <ele>47.4</ele>
        <time>2020-06-22T13:55:14Z</time>
      </trkpt>
      <trkpt lat="50.66733" lon="1.63505">
        <ele>47.4</ele>
        <time>2020-06-22T13:55:15Z</time>
      </trkpt>
      <trkpt lat="50.66732" lon="1.63503">
        <ele>47.4</ele>
        <time>2020-06-22T13:55:16Z</time>
      </trkpt>
      <trkpt lat="50.66732" lon="1.63503">
        <ele>47.7</ele>
        <time>2020-06-22T13:55:17Z</time>
      </trkpt>
      <trkpt lat="50.66732" lon="1.63503">
        <ele>47.4</ele>
        <time>2020-06-22T13:55:18Z</time>
      </trkpt>
      <trkpt lat="50.66732" lon="1.63504">
        <ele>47.4</ele>
        <time>2020-06-22T13:55:19Z</time>
      </trkpt>
      <trkpt lat="50.66732" lon="1.63503">
        <ele>47.7</ele>
        <time>2020-06-22T13:55:20Z</time>
      </trkpt>
      <trkpt lat="50.66732" lon="1.63503">
        <ele>47.7</ele>
        <time>2020-06-22T13:55:21Z</time>
      </trkpt>
      <trkpt lat="50.66732" lon="1.63503">
        <ele>47.4</ele>
        <time>2020-06-22T13:55:22Z</time>
      </trkpt>
      <trkpt lat="50.66732" lon="1.63504">
        <ele>47.4</ele>
        <time>2020-06-22T13:55:23Z</time>
      </trkpt>
      <trkpt lat="50.66732" lon="1.63504">
        <ele>47.4</ele>
        <time>2020-06-22T13:55:24Z</time>
      </trkpt>
      <trkpt lat="50.66732" lon="1.63503">
        <ele>47.4</ele>
        <time>2020-06-22T13:55:25Z</time>
      </trkpt>
      <trkpt lat="50.66732" lon="1.63501">
        <ele>47.7</ele>
        <time>2020-06-22T13:56:52Z</time>
      </trkpt>
      <trkpt lat="50.66732" lon="1.635">
        <ele>47.7</ele>
        <time>2020-06-22T13:56:53Z</time>
      </trkpt>
      <trkpt lat="50.66732" lon="1.635">
        <ele>47.7</ele>
        <time>2020-06-22T13:56:54Z</time>
      </trkpt>
      <trkpt lat="50.66733" lon="1.63501">
        <ele>47.7</ele>
        <time>2020-06-22T13:56:55Z</time>
      </trkpt>
      <trkpt lat="50.66733" lon="1.635">
        <ele>47.7</ele>
        <time>2020-06-22T13:56:56Z</time>
      </trkpt>
      <trkpt lat="50.66733" lon="1.63501">
        <ele>47.7</ele>
        <time>2020-06-22T13:56:57Z</time>
      </trkpt>
      <trkpt lat="50.66733" lon="1.63501">
        <ele>47.7</ele>
        <time>2020-06-22T13:56:58Z</time>
      </trkpt>
      <trkpt lat="50.66733" lon="1.63501">
        <ele>47.7</ele>
        <time>2020-06-22T13:56:59Z</time>
      </trkpt>
      <trkpt lat="50.66732" lon="1.63501">
        <ele>47.7</ele>
        <time>2020-06-22T13:57:00Z</time>
      </trkpt>
      <trkpt lat="50.66732" lon="1.63502">
        <ele>47.7</ele>
        <time>2020-06-22T13:57:01Z</time>
      </trkpt>
      <trkpt lat="50.66733" lon="1.635">
        <ele>47.7</ele>
        <time>2020-06-22T13:57:02Z</time>
      </trkpt>
      <trkpt lat="50.66734" lon="1.63499">
        <ele>47.9</ele>
        <time>2020-06-22T13:57:03Z</time>
      </trkpt>
      <trkpt lat="50.66735" lon="1.63498">
        <ele>47.9</ele>
        <time>2020-06-22T13:57:04Z</time>
      </trkpt>
      <trkpt lat="50.66735" lon="1.63497">
        <ele>47.9</ele>
        <time>2020-06-22T13:57:05Z</time>
      </trkpt>
      <trkpt lat="50.66736" lon="1.63496">
        <ele>47.9</ele>
        <time>2020-06-22T13:57:06Z</time>
      </trkpt>
      <trkpt lat="50.66737" lon="1.63496">
        <ele>47.7</ele>
        <time>2020-06-22T13:57:07Z</time>
      </trkpt>
      <trkpt lat="50.66737" lon="1.63497">
        <ele>47.7</ele>
        <time>2020-06-22T13:57:08Z</time>
      </trkpt>
      <trkpt lat="50.66737" lon="1.63497">
        <ele>47.7</ele>
        <time>2020-06-22T13:57:09Z</time>
      </trkpt>
      <trkpt lat="50.66737" lon="1.63499">
        <ele>47.3</ele>
        <time>2020-06-22T13:57:10Z</time>
      </trkpt>
      <trkpt lat="50.66738" lon="1.63499">
        <ele>47.3</ele>
        <time>2020-06-22T13:57:11Z</time>
      </trkpt>
      <trkpt lat="50.66738" lon="1.63499">
        <ele>47.3</ele>
        <time>2020-06-22T13:57:12Z</time>
      </trkpt>
      <trkpt lat="50.66738" lon="1.63499">
        <ele>47.3</ele>
        <time>2020-06-22T13:57:13Z</time>
      </trkpt>
      <trkpt lat="50.66738" lon="1.63499">
        <ele>47.3</ele>
        <time>2020-06-22T13:57:14Z</time>
      </trkpt>
      <trkpt lat="50.66738" lon="1.63499">
        <ele>47.3</ele>
        <time>2020-06-22T13:57:15Z</time>
      </trkpt>
      <trkpt lat="50.66738" lon="1.63499">
        <ele>47.3</ele>
        <time>2020-06-22T13:57:16Z</time>
      </trkpt>
      <trkpt lat="50.66738" lon="1.63498">
        <ele>47.7</ele>
        <time>2020-06-22T13:57:17Z</time>
      </trkpt>
      <trkpt lat="50.66739" lon="1.63498">
        <ele>47.7</ele>
        <time>2020-06-22T13:57:18Z</time>
      </trkpt>
      <trkpt lat="50.66739" lon="1.63499">
        <ele>47.7</ele>
        <time>2020-06-22T13:57:19Z</time>
      </trkpt>
      <trkpt lat="50.66739" lon="1.63499">
        <ele>47.3</ele>
        <time>2020-06-22T13:57:20Z</time>
      </trkpt>
      <trkpt lat="50.66739" lon="1.63499">
        <ele>47.4</ele>
        <time>2020-06-22T13:57:21Z</time>
      </trkpt>
      <trkpt lat="50.6674" lon="1.63499">
        <ele>47.1</ele>
        <time>2020-06-22T13:57:22Z</time>
      </trkpt>
      <trkpt lat="50.6674" lon="1.63499">
        <ele>47.1</ele>
        <time>2020-06-22T13:57:23Z</time>
      </trkpt>
      <trkpt lat="50.66741" lon="1.635">
        <ele>47.1</ele>
        <time>2020-06-22T13:57:24Z</time>
      </trkpt>
      <trkpt lat="50.6674" lon="1.635">
        <ele>47.1</ele>
        <time>2020-06-22T13:57:25Z</time>
      </trkpt>
      <trkpt lat="50.66742" lon="1.63501">
        <ele>46.8</ele>
        <time>2020-06-22T13:57:26Z</time>
      </trkpt>
      <trkpt lat="50.66742" lon="1.63501">
        <ele>46.8</ele>
        <time>2020-06-22T13:57:27Z</time>
      </trkpt>
      <trkpt lat="50.66742" lon="1.63501">
        <ele>46.8</ele>
        <time>2020-06-22T13:57:28Z</time>
      </trkpt>
      <trkpt lat="50.66742" lon="1.635">
        <ele>46.8</ele>
        <time>2020-06-22T13:57:29Z</time>
      </trkpt>
      <trkpt lat="50.66742" lon="1.635">
        <ele>46.8</ele>
        <time>2020-06-22T13:57:30Z</time>
      </trkpt>
      <trkpt lat="50.66742" lon="1.63499">
        <ele>46.8</ele>
        <time>2020-06-22T13:57:31Z</time>
      </trkpt>
      <trkpt lat="50.66742" lon="1.63499">
        <ele>46.8</ele>
        <time>2020-06-22T13:57:32Z</time>
      </trkpt>
      <trkpt lat="50.66744" lon="1.63498">
        <ele>47.2</ele>
        <time>2020-06-22T13:57:33Z</time>
      </trkpt>
      <trkpt lat="50.66745" lon="1.63496">
        <ele>46.9</ele>
        <time>2020-06-22T13:57:34Z</time>
      </trkpt>
      <trkpt lat="50.66745" lon="1.63497">
        <ele>46.9</ele>
        <time>2020-06-22T13:57:35Z</time>
      </trkpt>
      <trkpt lat="50.66745" lon="1.63497">
        <ele>46.9</ele>
        <time>2020-06-22T13:57:36Z</time>
      </trkpt>
      <trkpt lat="50.66745" lon="1.63497">
        <ele>46.9</ele>
        <time>2020-06-22T13:57:37Z</time>
      </trkpt>
      <trkpt lat="50.66745" lon="1.63497">
        <ele>46.9</ele>
        <time>2020-06-22T13:57:38Z</time>
      </trkpt>
      <trkpt lat="50.66745" lon="1.63497">
        <ele>46.9</ele>
        <time>2020-06-22T13:57:39Z</time>
      </trkpt>
      <trkpt lat="50.66745" lon="1.63497">
        <ele>46.9</ele>
        <time>2020-06-22T13:57:40Z</time>
      </trkpt>
      <trkpt lat="50.66746" lon="1.63497">
        <ele>46.9</ele>
        <time>2020-06-22T13:57:41Z</time>
      </trkpt>
      <trkpt lat="50.66746" lon="1.63498">
        <ele>46.9</ele>
        <time>2020-06-22T13:57:42Z</time>
      </trkpt>
      <trkpt lat="50.66747" lon="1.63498">
        <ele>46.9</ele>
        <time>2020-06-22T13:57:43Z</time>
      </trkpt>
      <trkpt lat="50.66747" lon="1.63499">
        <ele>46.9</ele>
        <time>2020-06-22T13:57:44Z</time>
      </trkpt>
      <trkpt lat="50.66747" lon="1.63499">
        <ele>46.9</ele>
        <time>2020-06-22T13:57:45Z</time>
      </trkpt>
      <trkpt lat="50.66744" lon="1.63489">
        <ele>47.6</ele>
        <time>2020-06-22T13:57:56Z</time>
      </trkpt>
      <trkpt lat="50.66744" lon="1.63489">
        <ele>47.6</ele>
        <time>2020-06-22T13:57:57Z</time>
      </trkpt>
      <trkpt lat="50.66745" lon="1.63488">
        <ele>47.6</ele>
        <time>2020-06-22T13:57:58Z</time>
      </trkpt>
      <trkpt lat="50.66745" lon="1.63489">
        <ele>47.6</ele>
        <time>2020-06-22T13:57:59Z</time>
      </trkpt>
      <trkpt lat="50.66745" lon="1.6349">
        <ele>47.6</ele>
        <time>2020-06-22T13:58:00Z</time>
      </trkpt>
      <trkpt lat="50.66745" lon="1.6349">
        <ele>47.3</ele>
        <time>2020-06-22T13:58:01Z</time>
      </trkpt>
      <trkpt lat="50.66744" lon="1.63489">
        <ele>47.9</ele>
        <time>2020-06-22T13:58:02Z</time>
      </trkpt>
      <trkpt lat="50.66744" lon="1.63489">
        <ele>47.9</ele>
        <time>2020-06-22T13:58:03Z</time>
      </trkpt>
      <trkpt lat="50.66744" lon="1.63488">
        <ele>47.9</ele>
        <time>2020-06-22T13:58:04Z</time>
      </trkpt>
      <trkpt lat="50.66743" lon="1.63488">
        <ele>47.9</ele>
        <time>2020-06-22T13:58:05Z</time>
      </trkpt>
      <trkpt lat="50.66744" lon="1.63487">
        <ele>47.9</ele>
        <time>2020-06-22T13:58:06Z</time>
      </trkpt>
      <trkpt lat="50.66744" lon="1.63486">
        <ele>48.3</ele>
        <time>2020-06-22T13:58:07Z</time>
      </trkpt>
      <trkpt lat="50.66744" lon="1.63485">
        <ele>48.3</ele>
        <time>2020-06-22T13:58:08Z</time>
      </trkpt>
      <trkpt lat="50.66744" lon="1.63485">
        <ele>48.3</ele>
        <time>2020-06-22T13:58:09Z</time>
      </trkpt>
      <trkpt lat="50.66744" lon="1.63486">
        <ele>47.9</ele>
        <time>2020-06-22T13:58:10Z</time>
      </trkpt>
      <trkpt lat="50.66744" lon="1.63486">
        <ele>47.9</ele>
        <time>2020-06-22T13:58:11Z</time>
      </trkpt>
      <trkpt lat="50.66744" lon="1.63486">
        <ele>47.9</ele>
        <time>2020-06-22T13:58:12Z</time>
      </trkpt>
      <trkpt lat="50.66744" lon="1.63486">
        <ele>47.9</ele>
        <time>2020-06-22T13:58:13Z</time>
      </trkpt>
      <trkpt lat="50.66744" lon="1.63486">
        <ele>47.9</ele>
        <time>2020-06-22T13:58:14Z</time>
      </trkpt>
      <trkpt lat="50.66744" lon="1.63486">
        <ele>47.9</ele>
        <time>2020-06-22T13:58:15Z</time>
      </trkpt>
      <trkpt lat="50.66744" lon="1.63485">
        <ele>48.3</ele>
        <time>2020-06-22T13:58:16Z</time>
      </trkpt>
      <trkpt lat="50.66744" lon="1.63484">
        <ele>48</ele>
        <time>2020-06-22T13:58:17Z</time>
      </trkpt>
      <trkpt lat="50.66745" lon="1.63483">
        <ele>48</ele>
        <time>2020-06-22T13:58:18Z</time>
      </trkpt>
      <trkpt lat="50.66745" lon="1.63484">
        <ele>48</ele>
        <time>2020-06-22T13:58:19Z</time>
      </trkpt>
      <trkpt lat="50.66745" lon="1.63485">
        <ele>48</ele>
        <time>2020-06-22T13:58:20Z</time>
      </trkpt>
      <trkpt lat="50.66745" lon="1.63485">
        <ele>48</ele>
        <time>2020-06-22T13:58:21Z</time>
      </trkpt>
      <trkpt lat="50.66745" lon="1.63485">
        <ele>48</ele>
        <time>2020-06-22T13:58:22Z</time>
      </trkpt>
      <trkpt lat="50.6675" lon="1.63482">
        <ele>48.1</ele>
        <time>2020-06-22T13:58:36Z</time>
      </trkpt>
      <trkpt lat="50.6675" lon="1.63481">
        <ele>47.8</ele>
        <time>2020-06-22T13:58:37Z</time>
      </trkpt>
      <trkpt lat="50.66751" lon="1.6348">
        <ele>47.8</ele>
        <time>2020-06-22T13:58:38Z</time>
      </trkpt>
      <trkpt lat="50.66752" lon="1.63479">
        <ele>47.8</ele>
        <time>2020-06-22T13:58:39Z</time>
      </trkpt>
      <trkpt lat="50.66752" lon="1.63477">
        <ele>48.2</ele>
        <time>2020-06-22T13:58:40Z</time>
      </trkpt>
      <trkpt lat="50.66753" lon="1.63475">
        <ele>47.9</ele>
        <time>2020-06-22T13:58:41Z</time>
      </trkpt>
      <trkpt lat="50.66753" lon="1.63474">
        <ele>47.9</ele>
        <time>2020-06-22T13:58:42Z</time>
      </trkpt>
      <trkpt lat="50.66754" lon="1.63471">
        <ele>48.3</ele>
        <time>2020-06-22T13:58:43Z</time>
      </trkpt>
      <trkpt lat="50.66754" lon="1.63469">
        <ele>48.3</ele>
        <time>2020-06-22T13:58:44Z</time>
      </trkpt>
      <trkpt lat="50.66754" lon="1.63468">
        <ele>48.8</ele>
        <time>2020-06-22T13:58:45Z</time>
      </trkpt>
      <trkpt lat="50.66754" lon="1.63467">
        <ele>48.8</ele>
        <time>2020-06-22T13:58:46Z</time>
      </trkpt>
      <trkpt lat="50.66754" lon="1.63468">
        <ele>48.8</ele>
        <time>2020-06-22T13:58:47Z</time>
      </trkpt>
      <trkpt lat="50.66754" lon="1.63468">
        <ele>48.8</ele>
        <time>2020-06-22T13:58:48Z</time>
      </trkpt>
      <trkpt lat="50.66755" lon="1.63464">
        <ele>48.9</ele>
        <time>2020-06-22T13:58:49Z</time>
      </trkpt>
      <trkpt lat="50.66756" lon="1.63461">
        <ele>48.9</ele>
        <time>2020-06-22T13:58:50Z</time>
      </trkpt>
      <trkpt lat="50.66757" lon="1.63459">
        <ele>49.4</ele>
        <time>2020-06-22T13:58:51Z</time>
      </trkpt>
      <trkpt lat="50.66756" lon="1.63457">
        <ele>49.4</ele>
        <time>2020-06-22T13:58:52Z</time>
      </trkpt>
      <trkpt lat="50.66756" lon="1.63456">
        <ele>49.4</ele>
        <time>2020-06-22T13:58:53Z</time>
      </trkpt>
      <trkpt lat="50.66756" lon="1.63456">
        <ele>49.8</ele>
        <time>2020-06-22T13:58:54Z</time>
      </trkpt>
      <trkpt lat="50.66756" lon="1.63455">
        <ele>49.8</ele>
        <time>2020-06-22T13:58:55Z</time>
      </trkpt>
      <trkpt lat="50.66756" lon="1.63454">
        <ele>49.8</ele>
        <time>2020-06-22T13:58:56Z</time>
      </trkpt>
      <trkpt lat="50.66756" lon="1.63453">
        <ele>49.8</ele>
        <time>2020-06-22T13:58:57Z</time>
      </trkpt>
      <trkpt lat="50.66757" lon="1.6345">
        <ele>50.3</ele>
        <time>2020-06-22T13:58:58Z</time>
      </trkpt>
      <trkpt lat="50.66757" lon="1.6345">
        <ele>50.3</ele>
        <time>2020-06-22T13:58:59Z</time>
      </trkpt>
      <trkpt lat="50.66757" lon="1.63451">
        <ele>50.3</ele>
        <time>2020-06-22T13:59:00Z</time>
      </trkpt>
      <trkpt lat="50.66757" lon="1.63453">
        <ele>49.8</ele>
        <time>2020-06-22T13:59:01Z</time>
      </trkpt>
      <trkpt lat="50.66756" lon="1.63452">
        <ele>49.8</ele>
        <time>2020-06-22T13:59:02Z</time>
      </trkpt>
      <trkpt lat="50.66756" lon="1.63452">
        <ele>49.8</ele>
        <time>2020-06-22T13:59:03Z</time>
      </trkpt>
      <trkpt lat="50.66756" lon="1.63452">
        <ele>49.8</ele>
        <time>2020-06-22T13:59:04Z</time>
      </trkpt>
      <trkpt lat="50.66756" lon="1.63451">
        <ele>50.3</ele>
        <time>2020-06-22T13:59:05Z</time>
      </trkpt>
      <trkpt lat="50.66755" lon="1.63449">
        <ele>50.6</ele>
        <time>2020-06-22T13:59:06Z</time>
      </trkpt>
      <trkpt lat="50.66754" lon="1.63451">
        <ele>50.6</ele>
        <time>2020-06-22T13:59:07Z</time>
      </trkpt>
      <trkpt lat="50.66754" lon="1.63453">
        <ele>50.1</ele>
        <time>2020-06-22T13:59:08Z</time>
      </trkpt>
      <trkpt lat="50.66754" lon="1.63454">
        <ele>50.1</ele>
        <time>2020-06-22T13:59:09Z</time>
      </trkpt>
      <trkpt lat="50.66754" lon="1.63454">
        <ele>50.1</ele>
        <time>2020-06-22T13:59:10Z</time>
      </trkpt>
      <trkpt lat="50.66754" lon="1.63455">
        <ele>50.1</ele>
        <time>2020-06-22T13:59:11Z</time>
      </trkpt>
      <trkpt lat="50.66753" lon="1.63457">
        <ele>49.7</ele>
        <time>2020-06-22T13:59:12Z</time>
      </trkpt>
      <trkpt lat="50.66753" lon="1.6346">
        <ele>49.7</ele>
        <time>2020-06-22T13:59:13Z</time>
      </trkpt>
      <trkpt lat="50.66752" lon="1.63461">
        <ele>49.5</ele>
        <time>2020-06-22T13:59:14Z</time>
      </trkpt>
      <trkpt lat="50.66751" lon="1.63462">
        <ele>49.5</ele>
        <time>2020-06-22T13:59:15Z</time>
      </trkpt>
      <trkpt lat="50.66751" lon="1.63464">
        <ele>49.5</ele>
        <time>2020-06-22T13:59:16Z</time>
      </trkpt>
      <trkpt lat="50.66751" lon="1.63464">
        <ele>49.5</ele>
        <time>2020-06-22T13:59:17Z</time>
      </trkpt>
      <trkpt lat="50.6675" lon="1.63466">
        <ele>49.3</ele>
        <time>2020-06-22T13:59:18Z</time>
      </trkpt>
      <trkpt lat="50.66749" lon="1.63467">
        <ele>49.3</ele>
        <time>2020-06-22T13:59:19Z</time>
      </trkpt>
      <trkpt lat="50.66748" lon="1.63468">
        <ele>49.3</ele>
        <time>2020-06-22T13:59:20Z</time>
      </trkpt>
      <trkpt lat="50.66748" lon="1.63469">
        <ele>49.3</ele>
        <time>2020-06-22T13:59:21Z</time>
      </trkpt>
      <trkpt lat="50.66747" lon="1.6347">
        <ele>49.2</ele>
        <time>2020-06-22T13:59:22Z</time>
      </trkpt>
      <trkpt lat="50.66746" lon="1.63472">
        <ele>49.2</ele>
        <time>2020-06-22T13:59:23Z</time>
      </trkpt>
      <trkpt lat="50.66745" lon="1.63473">
        <ele>48.8</ele>
        <time>2020-06-22T13:59:24Z</time>
      </trkpt>
      <trkpt lat="50.66743" lon="1.63475">
        <ele>49.1</ele>
        <time>2020-06-22T13:59:25Z</time>
      </trkpt>
      <trkpt lat="50.66743" lon="1.63477">
        <ele>49.1</ele>
        <time>2020-06-22T13:59:26Z</time>
      </trkpt>
      <trkpt lat="50.66742" lon="1.63478">
        <ele>48.7</ele>
        <time>2020-06-22T13:59:27Z</time>
      </trkpt>
      <trkpt lat="50.66741" lon="1.6348">
        <ele>49</ele>
        <time>2020-06-22T13:59:28Z</time>
      </trkpt>
      <trkpt lat="50.66741" lon="1.63482">
        <ele>48.6</ele>
        <time>2020-06-22T13:59:29Z</time>
      </trkpt>
      <trkpt lat="50.66741" lon="1.63483">
        <ele>48.6</ele>
        <time>2020-06-22T13:59:30Z</time>
      </trkpt>
      <trkpt lat="50.66741" lon="1.63485">
        <ele>48.6</ele>
        <time>2020-06-22T13:59:31Z</time>
      </trkpt>
      <trkpt lat="50.66741" lon="1.63486">
        <ele>48.6</ele>
        <time>2020-06-22T13:59:32Z</time>
      </trkpt>
      <trkpt lat="50.6674" lon="1.63488">
        <ele>48.2</ele>
        <time>2020-06-22T13:59:33Z</time>
      </trkpt>
      <trkpt lat="50.6674" lon="1.63491">
        <ele>47.8</ele>
        <time>2020-06-22T13:59:34Z</time>
      </trkpt>
      <trkpt lat="50.6674" lon="1.63492">
        <ele>47.8</ele>
        <time>2020-06-22T13:59:35Z</time>
      </trkpt>
      <trkpt lat="50.6674" lon="1.63493">
        <ele>47.8</ele>
        <time>2020-06-22T13:59:36Z</time>
      </trkpt>
      <trkpt lat="50.66741" lon="1.63492">
        <ele>47.8</ele>
        <time>2020-06-22T13:59:37Z</time>
      </trkpt>
      <trkpt lat="50.66741" lon="1.63491">
        <ele>47.8</ele>
        <time>2020-06-22T13:59:38Z</time>
      </trkpt>
      <trkpt lat="50.66741" lon="1.6349">
        <ele>48.2</ele>
        <time>2020-06-22T13:59:39Z</time>
      </trkpt>
      <trkpt lat="50.66742" lon="1.63489">
        <ele>47.9</ele>
        <time>2020-06-22T13:59:40Z</time>
      </trkpt>
      <trkpt lat="50.66742" lon="1.63489">
        <ele>48.2</ele>
        <time>2020-06-22T13:59:41Z</time>
      </trkpt>
      <trkpt lat="50.66741" lon="1.6349">
        <ele>48.2</ele>
        <time>2020-06-22T13:59:42Z</time>
      </trkpt>
      <trkpt lat="50.66741" lon="1.6349">
        <ele>48.2</ele>
        <time>2020-06-22T13:59:43Z</time>
      </trkpt>
      <trkpt lat="50.66741" lon="1.63491">
        <ele>47.8</ele>
        <time>2020-06-22T13:59:44Z</time>
      </trkpt>
      <trkpt lat="50.6674" lon="1.63492">
        <ele>47.8</ele>
        <time>2020-06-22T13:59:45Z</time>
      </trkpt>
      <trkpt lat="50.66739" lon="1.63492">
        <ele>47.8</ele>
        <time>2020-06-22T13:59:46Z</time>
      </trkpt>
      <trkpt lat="50.66739" lon="1.63493">
        <ele>47.8</ele>
        <time>2020-06-22T13:59:47Z</time>
      </trkpt>
      <trkpt lat="50.66739" lon="1.63495">
        <ele>47.4</ele>
        <time>2020-06-22T13:59:48Z</time>
      </trkpt>
      <trkpt lat="50.6674" lon="1.63495">
        <ele>47.4</ele>
        <time>2020-06-22T13:59:49Z</time>
      </trkpt>
      <trkpt lat="50.66739" lon="1.63496">
        <ele>47.4</ele>
        <time>2020-06-22T13:59:50Z</time>
      </trkpt>
      <trkpt lat="50.6674" lon="1.63495">
        <ele>47.4</ele>
        <time>2020-06-22T13:59:51Z</time>
      </trkpt>
      <trkpt lat="50.6674" lon="1.63494">
        <ele>47.8</ele>
        <time>2020-06-22T13:59:52Z</time>
      </trkpt>
      <trkpt lat="50.6674" lon="1.63494">
        <ele>47.8</ele>
        <time>2020-06-22T13:59:53Z</time>
      </trkpt>
      <trkpt lat="50.6674" lon="1.63495">
        <ele>47.4</ele>
        <time>2020-06-22T13:59:54Z</time>
      </trkpt>
      <trkpt lat="50.6674" lon="1.63496">
        <ele>47.4</ele>
        <time>2020-06-22T13:59:55Z</time>
      </trkpt>
      <trkpt lat="50.6674" lon="1.63499">
        <ele>47.4</ele>
        <time>2020-06-22T13:59:56Z</time>
      </trkpt>
      <trkpt lat="50.6674" lon="1.63498">
        <ele>47.4</ele>
        <time>2020-06-22T13:59:57Z</time>
      </trkpt>
      <trkpt lat="50.6674" lon="1.63498">
        <ele>47.4</ele>
        <time>2020-06-22T13:59:58Z</time>
      </trkpt>
      <trkpt lat="50.6674" lon="1.63499">
        <ele>47.1</ele>
        <time>2020-06-22T13:59:59Z</time>
      </trkpt>
      <trkpt lat="50.66741" lon="1.63501">
        <ele>47.1</ele>
        <time>2020-06-22T14:00:00Z</time>
      </trkpt>
      <trkpt lat="50.66741" lon="1.63503">
        <ele>47.1</ele>
        <time>2020-06-22T14:00:01Z</time>
      </trkpt>
      <trkpt lat="50.66742" lon="1.63504">
        <ele>46.5</ele>
        <time>2020-06-22T14:00:02Z</time>
      </trkpt>
      <trkpt lat="50.66743" lon="1.63505">
        <ele>46.5</ele>
        <time>2020-06-22T14:00:03Z</time>
      </trkpt>
      <trkpt lat="50.66744" lon="1.63507">
        <ele>46.5</ele>
        <time>2020-06-22T14:00:04Z</time>
      </trkpt>
      <trkpt lat="50.66745" lon="1.63508">
        <ele>46</ele>
        <time>2020-06-22T14:00:05Z</time>
      </trkpt>
      <trkpt lat="50.66747" lon="1.63507">
        <ele>46.3</ele>
        <time>2020-06-22T14:00:06Z</time>
      </trkpt>
      <trkpt lat="50.66748" lon="1.63508">
        <ele>45.8</ele>
        <time>2020-06-22T14:00:07Z</time>
      </trkpt>
      <trkpt lat="50.66749" lon="1.63509">
        <ele>45.8</ele>
        <time>2020-06-22T14:00:08Z</time>
      </trkpt>
      <trkpt lat="50.66749" lon="1.6351">
        <ele>45.8</ele>
        <time>2020-06-22T14:00:09Z</time>
      </trkpt>
      <trkpt lat="50.66749" lon="1.63509">
        <ele>45.8</ele>
        <time>2020-06-22T14:00:10Z</time>
      </trkpt>
      <trkpt lat="50.66749" lon="1.63509">
        <ele>45.8</ele>
        <time>2020-06-22T14:00:11Z</time>
      </trkpt>
      <trkpt lat="50.66749" lon="1.63509">
        <ele>45.8</ele>
        <time>2020-06-22T14:00:12Z</time>
      </trkpt>
      <trkpt lat="50.66748" lon="1.63509">
        <ele>45.8</ele>
        <time>2020-06-22T14:00:13Z</time>
      </trkpt>
      <trkpt lat="50.66749" lon="1.6351">
        <ele>45.8</ele>
        <time>2020-06-22T14:00:14Z</time>
      </trkpt>
      <trkpt lat="50.66752" lon="1.63511">
        <ele>45.5</ele>
        <time>2020-06-22T14:00:15Z</time>
      </trkpt>
      <trkpt lat="50.66755" lon="1.63512">
        <ele>45.3</ele>
        <time>2020-06-22T14:00:16Z</time>
      </trkpt>
      <trkpt lat="50.66755" lon="1.63513">
        <ele>44.9</ele>
        <time>2020-06-22T14:00:17Z</time>
      </trkpt>
      <trkpt lat="50.66758" lon="1.63513">
        <ele>44.9</ele>
        <time>2020-06-22T14:00:18Z</time>
      </trkpt>
      <trkpt lat="50.66758" lon="1.63514">
        <ele>44.7</ele>
        <time>2020-06-22T14:00:19Z</time>
      </trkpt>
      <trkpt lat="50.66759" lon="1.63516">
        <ele>44.7</ele>
        <time>2020-06-22T14:00:20Z</time>
      </trkpt>
      <trkpt lat="50.66759" lon="1.63516">
        <ele>44.7</ele>
        <time>2020-06-22T14:00:21Z</time>
      </trkpt>
      <trkpt lat="50.66759" lon="1.63517">
        <ele>44.5</ele>
        <time>2020-06-22T14:00:22Z</time>
      </trkpt>
      <trkpt lat="50.66759" lon="1.63517">
        <ele>44.5</ele>
        <time>2020-06-22T14:00:23Z</time>
      </trkpt>
      <trkpt lat="50.66758" lon="1.63517">
        <ele>44.5</ele>
        <time>2020-06-22T14:00:24Z</time>
      </trkpt>
      <trkpt lat="50.66758" lon="1.63517">
        <ele>44.5</ele>
        <time>2020-06-22T14:00:25Z</time>
      </trkpt>
      <trkpt lat="50.66758" lon="1.63516">
        <ele>44.7</ele>
        <time>2020-06-22T14:00:26Z</time>
      </trkpt>
      <trkpt lat="50.66758" lon="1.63517">
        <ele>44.7</ele>
        <time>2020-06-22T14:00:27Z</time>
      </trkpt>
      <trkpt lat="50.66757" lon="1.63517">
        <ele>44.7</ele>
        <time>2020-06-22T14:00:28Z</time>
      </trkpt>
      <trkpt lat="50.66756" lon="1.63517">
        <ele>44.7</ele>
        <time>2020-06-22T14:00:29Z</time>
      </trkpt>
      <trkpt lat="50.66756" lon="1.63516">
        <ele>44.9</ele>
        <time>2020-06-22T14:00:30Z</time>
      </trkpt>
      <trkpt lat="50.66756" lon="1.63516">
        <ele>44.9</ele>
        <time>2020-06-22T14:00:31Z</time>
      </trkpt>
      <trkpt lat="50.66755" lon="1.63515">
        <ele>45.1</ele>
        <time>2020-06-22T14:00:32Z</time>
      </trkpt>
      <trkpt lat="50.66755" lon="1.63515">
        <ele>45.1</ele>
        <time>2020-06-22T14:00:33Z</time>
      </trkpt>
      <trkpt lat="50.66755" lon="1.63524">
        <ele>44.8</ele>
        <time>2020-06-22T14:00:41Z</time>
      </trkpt>
      <trkpt lat="50.66755" lon="1.63526">
        <ele>44.7</ele>
        <time>2020-06-22T14:00:42Z</time>
      </trkpt>
      <trkpt lat="50.66755" lon="1.63528">
        <ele>44.7</ele>
        <time>2020-06-22T14:00:43Z</time>
      </trkpt>
      <trkpt lat="50.66756" lon="1.63531">
        <ele>44.4</ele>
        <time>2020-06-22T14:00:44Z</time>
      </trkpt>
      <trkpt lat="50.66756" lon="1.63531">
        <ele>44.4</ele>
        <time>2020-06-22T14:00:45Z</time>
      </trkpt>
      <trkpt lat="50.66756" lon="1.6353">
        <ele>44.4</ele>
        <time>2020-06-22T14:00:46Z</time>
      </trkpt>
      <trkpt lat="50.66756" lon="1.63531">
        <ele>44.4</ele>
        <time>2020-06-22T14:00:47Z</time>
      </trkpt>
      <trkpt lat="50.66756" lon="1.63531">
        <ele>44.4</ele>
        <time>2020-06-22T14:00:48Z</time>
      </trkpt>
      <trkpt lat="50.66756" lon="1.63531">
        <ele>44.4</ele>
        <time>2020-06-22T14:00:49Z</time>
      </trkpt>
      <trkpt lat="50.66757" lon="1.63533">
        <ele>44.4</ele>
        <time>2020-06-22T14:00:50Z</time>
      </trkpt>
      <trkpt lat="50.66756" lon="1.63534">
        <ele>44.3</ele>
        <time>2020-06-22T14:00:51Z</time>
      </trkpt>
      <trkpt lat="50.66756" lon="1.63534">
        <ele>44.3</ele>
        <time>2020-06-22T14:00:52Z</time>
      </trkpt>
      <trkpt lat="50.66757" lon="1.63534">
        <ele>44.3</ele>
        <time>2020-06-22T14:00:53Z</time>
      </trkpt>
      <trkpt lat="50.66757" lon="1.63535">
        <ele>44.3</ele>
        <time>2020-06-22T14:00:54Z</time>
      </trkpt>
      <trkpt lat="50.66778" lon="1.63565">
        <ele>43.5</ele>
        <time>2020-06-22T14:34:16Z</time>
      </trkpt>
      <trkpt lat="50.66778" lon="1.63567">
        <ele>43.5</ele>
        <time>2020-06-22T14:34:17Z</time>
      </trkpt>
      <trkpt lat="50.66778" lon="1.63568">
        <ele>43.6</ele>
        <time>2020-06-22T14:34:18Z</time>
      </trkpt>
      <trkpt lat="50.66778" lon="1.63569">
        <ele>43.6</ele>
        <time>2020-06-22T14:34:19Z</time>
      </trkpt>
      <trkpt lat="50.66778" lon="1.6357">
        <ele>43.6</ele>
        <time>2020-06-22T14:34:20Z</time>
      </trkpt>
      <trkpt lat="50.66778" lon="1.6357">
        <ele>43.6</ele>
        <time>2020-06-22T14:34:21Z</time>
      </trkpt>
      <trkpt lat="50.66778" lon="1.6357">
        <ele>43.6</ele>
        <time>2020-06-22T14:34:22Z</time>
      </trkpt>
      <trkpt lat="50.66778" lon="1.6357">
        <ele>43.6</ele>
        <time>2020-06-22T14:34:23Z</time>
      </trkpt>
      <trkpt lat="50.66778" lon="1.6357">
        <ele>43.6</ele>
        <time>2020-06-22T14:34:24Z</time>
      </trkpt>
      <trkpt lat="50.66778" lon="1.6357">
        <ele>43.6</ele>
        <time>2020-06-22T14:34:25Z</time>
      </trkpt>
      <trkpt lat="50.66778" lon="1.6357">
        <ele>43.6</ele>
        <time>2020-06-22T14:34:26Z</time>
      </trkpt>
      <trkpt lat="50.66778" lon="1.6357">
        <ele>43.6</ele>
        <time>2020-06-22T14:34:27Z</time>
      </trkpt>
      <trkpt lat="50.66778" lon="1.6357">
        <ele>43.6</ele>
        <time>2020-06-22T14:34:28Z</time>
      </trkpt>
      <trkpt lat="50.66778" lon="1.6357">
        <ele>43.6</ele>
        <time>2020-06-22T14:34:29Z</time>
      </trkpt>
      <trkpt lat="50.66778" lon="1.6357">
        <ele>43.6</ele>
        <time>2020-06-22T14:34:30Z</time>
      </trkpt>
      <trkpt lat="50.66778" lon="1.6357">
        <ele>43.6</ele>
        <time>2020-06-22T14:34:31Z</time>
      </trkpt>
      <trkpt lat="50.66782" lon="1.63568">
        <ele>43.5</ele>
        <time>2020-06-22T16:34:42Z</time>
      </trkpt>
      <trkpt lat="50.66782" lon="1.63569">
        <ele>43.5</ele>
        <time>2020-06-22T16:34:43Z</time>
      </trkpt>
      <trkpt lat="50.66783" lon="1.63569">
        <ele>43.4</ele>
        <time>2020-06-22T16:34:44Z</time>
      </trkpt>
      <trkpt lat="50.66782" lon="1.63569">
        <ele>43.5</ele>
        <time>2020-06-22T16:34:45Z</time>
      </trkpt>
      <trkpt lat="50.66782" lon="1.63569">
        <ele>43.5</ele>
        <time>2020-06-22T16:34:46Z</time>
      </trkpt>
      <trkpt lat="50.66783" lon="1.63569">
        <ele>43.4</ele>
        <time>2020-06-22T16:34:47Z</time>
      </trkpt>
      <trkpt lat="50.66783" lon="1.63569">
        <ele>43.4</ele>
        <time>2020-06-22T16:34:48Z</time>
      </trkpt>
      <trkpt lat="50.66784" lon="1.63568">
        <ele>43.4</ele>
        <time>2020-06-22T16:34:49Z</time>
      </trkpt>
      <trkpt lat="50.66785" lon="1.63566">
        <ele>43.3</ele>
        <time>2020-06-22T16:34:50Z</time>
      </trkpt>
      <trkpt lat="50.66786" lon="1.63566">
        <ele>43.2</ele>
        <time>2020-06-22T16:34:51Z</time>
      </trkpt>
      <trkpt lat="50.66786" lon="1.63566">
        <ele>43.2</ele>
        <time>2020-06-22T16:34:52Z</time>
      </trkpt>
      <trkpt lat="50.66785" lon="1.63566">
        <ele>43.3</ele>
        <time>2020-06-22T16:34:53Z</time>
      </trkpt>
      <trkpt lat="50.66785" lon="1.63564">
        <ele>43.3</ele>
        <time>2020-06-22T16:34:54Z</time>
      </trkpt>
      <trkpt lat="50.66785" lon="1.63564">
        <ele>43.3</ele>
        <time>2020-06-22T16:34:55Z</time>
      </trkpt>
      <trkpt lat="50.66785" lon="1.63563">
        <ele>43.3</ele>
        <time>2020-06-22T16:34:56Z</time>
      </trkpt>
      <trkpt lat="50.66785" lon="1.63563">
        <ele>43.2</ele>
        <time>2020-06-22T16:34:57Z</time>
      </trkpt>
      <trkpt lat="50.66786" lon="1.63563">
        <ele>43.2</ele>
        <time>2020-06-22T16:34:58Z</time>
      </trkpt>
      <trkpt lat="50.66787" lon="1.63562">
        <ele>43.1</ele>
        <time>2020-06-22T16:34:59Z</time>
      </trkpt>
      <trkpt lat="50.66787" lon="1.6356">
        <ele>43.1</ele>
        <time>2020-06-22T16:35:00Z</time>
      </trkpt>
      <trkpt lat="50.66788" lon="1.6356">
        <ele>43.1</ele>
        <time>2020-06-22T16:35:01Z</time>
      </trkpt>
      <trkpt lat="50.66788" lon="1.6356">
        <ele>43.1</ele>
        <time>2020-06-22T16:35:02Z</time>
      </trkpt>
      <trkpt lat="50.66789" lon="1.6356">
        <ele>43.1</ele>
        <time>2020-06-22T16:35:03Z</time>
      </trkpt>
      <trkpt lat="50.66789" lon="1.6356">
        <ele>43.1</ele>
        <time>2020-06-22T16:35:04Z</time>
      </trkpt>
      <trkpt lat="50.66789" lon="1.6356">
        <ele>43.1</ele>
        <time>2020-06-22T16:35:05Z</time>
      </trkpt>
      <trkpt lat="50.66789" lon="1.6356">
        <ele>43.1</ele>
        <time>2020-06-22T16:35:06Z</time>
      </trkpt>
      <trkpt lat="50.66789" lon="1.6356">
        <ele>43.1</ele>
        <time>2020-06-22T16:35:07Z</time>
      </trkpt>
      <trkpt lat="50.668" lon="1.63563">
        <ele>42.8</ele>
        <time>2020-06-22T16:59:59Z</time>
      </trkpt>
      <trkpt lat="50.668" lon="1.63563">
        <ele>42.8</ele>
        <time>2020-06-22T17:00:00Z</time>
      </trkpt>
      <trkpt lat="50.66799" lon="1.63563">
        <ele>42.8</ele>
        <time>2020-06-22T17:00:01Z</time>
      </trkpt>
      <trkpt lat="50.66799" lon="1.63563">
        <ele>42.8</ele>
        <time>2020-06-22T17:00:02Z</time>
      </trkpt>
      <trkpt lat="50.66799" lon="1.63563">
        <ele>42.8</ele>
        <time>2020-06-22T17:00:03Z</time>
      </trkpt>
      <trkpt lat="50.66799" lon="1.63563">
        <ele>42.8</ele>
        <time>2020-06-22T17:00:04Z</time>
      </trkpt>
      <trkpt lat="50.668" lon="1.63562">
        <ele>42.8</ele>
        <time>2020-06-22T17:00:05Z</time>
      </trkpt>
      <trkpt lat="50.66801" lon="1.63561">
        <ele>42.8</ele>
        <time>2020-06-22T17:00:06Z</time>
      </trkpt>
      <trkpt lat="50.66801" lon="1.6356">
        <ele>42.8</ele>
        <time>2020-06-22T17:00:07Z</time>
      </trkpt>
      <trkpt lat="50.66801" lon="1.63561">
        <ele>42.8</ele>
        <time>2020-06-22T17:00:08Z</time>
      </trkpt>
      <trkpt lat="50.66801" lon="1.63561">
        <ele>42.8</ele>
        <time>2020-06-22T17:00:09Z</time>
      </trkpt>
      <trkpt lat="50.668" lon="1.6356">
        <ele>42.8</ele>
        <time>2020-06-22T17:00:10Z</time>
      </trkpt>
      <trkpt lat="50.66801" lon="1.6356">
        <ele>42.8</ele>
        <time>2020-06-22T17:00:11Z</time>
      </trkpt>
      <trkpt lat="50.668" lon="1.6356">
        <ele>42.8</ele>
        <time>2020-06-22T17:00:12Z</time>
      </trkpt>
      <trkpt lat="50.668" lon="1.6356">
        <ele>42.8</ele>
        <time>2020-06-22T17:00:13Z</time>
      </trkpt>
      <trkpt lat="50.668" lon="1.63561">
        <ele>42.8</ele>
        <time>2020-06-22T17:00:14Z</time>
      </trkpt>
      <trkpt lat="50.66799" lon="1.63562">
        <ele>42.8</ele>
        <time>2020-06-22T17:00:15Z</time>
      </trkpt>
      <trkpt lat="50.66799" lon="1.63561">
        <ele>42.8</ele>
        <time>2020-06-22T17:00:16Z</time>
      </trkpt>
      <trkpt lat="50.66799" lon="1.63562">
        <ele>42.9</ele>
        <time>2020-06-22T17:00:17Z</time>
      </trkpt>
      <trkpt lat="50.66798" lon="1.63561">
        <ele>42.9</ele>
        <time>2020-06-22T17:00:18Z</time>
      </trkpt>
      <trkpt lat="50.66797" lon="1.63562">
        <ele>42.9</ele>
        <time>2020-06-22T17:00:19Z</time>
      </trkpt>
      <trkpt lat="50.66796" lon="1.63562">
        <ele>42.9</ele>
        <time>2020-06-22T17:00:20Z</time>
      </trkpt>
      <trkpt lat="50.66795" lon="1.63561">
        <ele>42.9</ele>
        <time>2020-06-22T17:00:21Z</time>
      </trkpt>
      <trkpt lat="50.66794" lon="1.63561">
        <ele>42.9</ele>
        <time>2020-06-22T17:00:22Z</time>
      </trkpt>
      <trkpt lat="50.66793" lon="1.63562">
        <ele>43</ele>
        <time>2020-06-22T17:00:23Z</time>
      </trkpt>
      <trkpt lat="50.66792" lon="1.6356">
        <ele>43</ele>
        <time>2020-06-22T17:00:24Z</time>
      </trkpt>
      <trkpt lat="50.66791" lon="1.6356">
        <ele>43</ele>
        <time>2020-06-22T17:00:25Z</time>
      </trkpt>
      <trkpt lat="50.66791" lon="1.6356">
        <ele>43.1</ele>
        <time>2020-06-22T17:00:26Z</time>
      </trkpt>
      <trkpt lat="50.6679" lon="1.63559">
        <ele>43.1</ele>
        <time>2020-06-22T17:00:27Z</time>
      </trkpt>
      <trkpt lat="50.6679" lon="1.63559">
        <ele>43</ele>
        <time>2020-06-22T17:00:28Z</time>
      </trkpt>
      <trkpt lat="50.6679" lon="1.63559">
        <ele>43</ele>
        <time>2020-06-22T17:00:29Z</time>
      </trkpt>
      <trkpt lat="50.66789" lon="1.63558">
        <ele>43</ele>
        <time>2020-06-22T17:00:30Z</time>
      </trkpt>
      <trkpt lat="50.66789" lon="1.63558">
        <ele>43</ele>
        <time>2020-06-22T17:00:31Z</time>
      </trkpt>
      <trkpt lat="50.66788" lon="1.63558">
        <ele>43</ele>
        <time>2020-06-22T17:00:32Z</time>
      </trkpt>
      <trkpt lat="50.66787" lon="1.63557">
        <ele>43.1</ele>
        <time>2020-06-22T17:00:33Z</time>
      </trkpt>
      <trkpt lat="50.66786" lon="1.63556">
        <ele>43.1</ele>
        <time>2020-06-22T17:00:34Z</time>
      </trkpt>
      <trkpt lat="50.66785" lon="1.63556">
        <ele>43.1</ele>
        <time>2020-06-22T17:00:35Z</time>
      </trkpt>
      <trkpt lat="50.66785" lon="1.63555">
        <ele>43.2</ele>
        <time>2020-06-22T17:00:36Z</time>
      </trkpt>
      <trkpt lat="50.66785" lon="1.63555">
        <ele>43.2</ele>
        <time>2020-06-22T17:00:37Z</time>
      </trkpt>
      <trkpt lat="50.66784" lon="1.63555">
        <ele>43.2</ele>
        <time>2020-06-22T17:00:38Z</time>
      </trkpt>
      <trkpt lat="50.66784" lon="1.63555">
        <ele>43.1</ele>
        <time>2020-06-22T17:00:39Z</time>
      </trkpt>
      <trkpt lat="50.66783" lon="1.63553">
        <ele>43.1</ele>
        <time>2020-06-22T17:00:40Z</time>
      </trkpt>
      <trkpt lat="50.66782" lon="1.63554">
        <ele>43.2</ele>
        <time>2020-06-22T17:00:41Z</time>
      </trkpt>
      <trkpt lat="50.66781" lon="1.63555">
        <ele>43.3</ele>
        <time>2020-06-22T17:00:42Z</time>
      </trkpt>
      <trkpt lat="50.66781" lon="1.63556">
        <ele>43.3</ele>
        <time>2020-06-22T17:00:43Z</time>
      </trkpt>
      <trkpt lat="50.6678" lon="1.63556">
        <ele>43.4</ele>
        <time>2020-06-22T17:00:44Z</time>
      </trkpt>
      <trkpt lat="50.66779" lon="1.63557">
        <ele>43.4</ele>
        <time>2020-06-22T17:00:45Z</time>
      </trkpt>
      <trkpt lat="50.66778" lon="1.63557">
        <ele>43.4</ele>
        <time>2020-06-22T17:00:46Z</time>
      </trkpt>
      <trkpt lat="50.66778" lon="1.63557">
        <ele>43.4</ele>
        <time>2020-06-22T17:00:47Z</time>
      </trkpt>
      <trkpt lat="50.66777" lon="1.63557">
        <ele>43.5</ele>
        <time>2020-06-22T17:00:48Z</time>
      </trkpt>
      <trkpt lat="50.66776" lon="1.63558">
        <ele>43.5</ele>
        <time>2020-06-22T17:00:49Z</time>
      </trkpt>
      <trkpt lat="50.66776" lon="1.63557">
        <ele>43.5</ele>
        <time>2020-06-22T17:00:50Z</time>
      </trkpt>
      <trkpt lat="50.66776" lon="1.63557">
        <ele>43.5</ele>
        <time>2020-06-22T17:00:51Z</time>
      </trkpt>
      <trkpt lat="50.66776" lon="1.63557">
        <ele>43.5</ele>
        <time>2020-06-22T17:00:52Z</time>
      </trkpt>
      <trkpt lat="50.66776" lon="1.63557">
        <ele>43.5</ele>
        <time>2020-06-22T17:00:53Z</time>
      </trkpt>
      <trkpt lat="50.66777" lon="1.63556">
        <ele>43.5</ele>
        <time>2020-06-22T17:00:54Z</time>
      </trkpt>
      <trkpt lat="50.66777" lon="1.63556">
        <ele>43.5</ele>
        <time>2020-06-22T17:00:55Z</time>
      </trkpt>
      <trkpt lat="50.66777" lon="1.63556">
        <ele>43.4</ele>
        <time>2020-06-22T17:00:56Z</time>
      </trkpt>
      <trkpt lat="50.66778" lon="1.63556">
        <ele>43.4</ele>
        <time>2020-06-22T17:00:57Z</time>
      </trkpt>
      <trkpt lat="50.66778" lon="1.63556">
        <ele>43.4</ele>
        <time>2020-06-22T17:00:58Z</time>
      </trkpt>
      <trkpt lat="50.66779" lon="1.63555">
        <ele>43.4</ele>
        <time>2020-06-22T17:00:59Z</time>
      </trkpt>
      <trkpt lat="50.66779" lon="1.63555">
        <ele>43.4</ele>
        <time>2020-06-22T17:01:00Z</time>
      </trkpt>
      <trkpt lat="50.66779" lon="1.63555">
        <ele>43.4</ele>
        <time>2020-06-22T17:01:01Z</time>
      </trkpt>
      <trkpt lat="50.66796" lon="1.63415">
        <ele>51.5</ele>
        <time>2020-06-22T17:20:11Z</time>
      </trkpt>
      <trkpt lat="50.66797" lon="1.63412">
        <ele>51.9</ele>
        <time>2020-06-22T17:20:12Z</time>
      </trkpt>
      <trkpt lat="50.66798" lon="1.63411">
        <ele>51.9</ele>
        <time>2020-06-22T17:20:13Z</time>
      </trkpt>
      <trkpt lat="50.66795" lon="1.63414">
        <ele>51.5</ele>
        <time>2020-06-22T17:20:14Z</time>
      </trkpt>
      <trkpt lat="50.66793" lon="1.63417">
        <ele>51.7</ele>
        <time>2020-06-22T17:20:15Z</time>
      </trkpt>
      <trkpt lat="50.66793" lon="1.63416">
        <ele>51.7</ele>
        <time>2020-06-22T17:20:16Z</time>
      </trkpt>
      <trkpt lat="50.66793" lon="1.63415">
        <ele>51.7</ele>
        <time>2020-06-22T17:20:17Z</time>
      </trkpt>
      <trkpt lat="50.66795" lon="1.63413">
        <ele>52.1</ele>
        <time>2020-06-22T17:20:18Z</time>
      </trkpt>
      <trkpt lat="50.66796" lon="1.63411">
        <ele>52.1</ele>
        <time>2020-06-22T17:20:19Z</time>
      </trkpt>
      <trkpt lat="50.66797" lon="1.6341">
        <ele>51.9</ele>
        <time>2020-06-22T17:20:20Z</time>
      </trkpt>
      <trkpt lat="50.66799" lon="1.63405">
        <ele>52.4</ele>
        <time>2020-06-22T17:20:21Z</time>
      </trkpt>
      <trkpt lat="50.668" lon="1.63403">
        <ele>53.1</ele>
        <time>2020-06-22T17:20:22Z</time>
      </trkpt>
      <trkpt lat="50.668" lon="1.63402">
        <ele>53.1</ele>
        <time>2020-06-22T17:20:23Z</time>
      </trkpt>
      <trkpt lat="50.668" lon="1.63401">
        <ele>53.1</ele>
        <time>2020-06-22T17:20:24Z</time>
      </trkpt>
      <trkpt lat="50.668" lon="1.63399">
        <ele>53.8</ele>
        <time>2020-06-22T17:20:25Z</time>
      </trkpt>
      <trkpt lat="50.66799" lon="1.63399">
        <ele>53.8</ele>
        <time>2020-06-22T17:20:26Z</time>
      </trkpt>
      <trkpt lat="50.668" lon="1.634">
        <ele>53.8</ele>
        <time>2020-06-22T17:20:27Z</time>
      </trkpt>
      <trkpt lat="50.66801" lon="1.63403">
        <ele>53.1</ele>
        <time>2020-06-22T17:20:28Z</time>
      </trkpt>
      <trkpt lat="50.66802" lon="1.63406">
        <ele>52.3</ele>
        <time>2020-06-22T17:20:29Z</time>
      </trkpt>
      <trkpt lat="50.66803" lon="1.63409">
        <ele>51.6</ele>
        <time>2020-06-22T17:20:30Z</time>
      </trkpt>
      <trkpt lat="50.66804" lon="1.63412">
        <ele>51.6</ele>
        <time>2020-06-22T17:20:31Z</time>
      </trkpt>
      <trkpt lat="50.66805" lon="1.63415">
        <ele>50.8</ele>
        <time>2020-06-22T17:20:32Z</time>
      </trkpt>
      <trkpt lat="50.66806" lon="1.63418">
        <ele>50.1</ele>
        <time>2020-06-22T17:20:33Z</time>
      </trkpt>
      <trkpt lat="50.66807" lon="1.63421">
        <ele>49.9</ele>
        <time>2020-06-22T17:20:34Z</time>
      </trkpt>
      <trkpt lat="50.66808" lon="1.63424">
        <ele>49.3</ele>
        <time>2020-06-22T17:20:35Z</time>
      </trkpt>
      <trkpt lat="50.66809" lon="1.63427">
        <ele>48.6</ele>
        <time>2020-06-22T17:20:36Z</time>
      </trkpt>
      <trkpt lat="50.66811" lon="1.6343">
        <ele>48.5</ele>
        <time>2020-06-22T17:20:37Z</time>
      </trkpt>
      <trkpt lat="50.66812" lon="1.63433">
        <ele>47.8</ele>
        <time>2020-06-22T17:21:00Z</time>
      </trkpt>
      <trkpt lat="50.66813" lon="1.63436">
        <ele>47.1</ele>
        <time>2020-06-22T17:21:01Z</time>
      </trkpt>
      <trkpt lat="50.66814" lon="1.63439">
        <ele>47.1</ele>
        <time>2020-06-22T17:21:02Z</time>
      </trkpt>
      <trkpt lat="50.66815" lon="1.63442">
        <ele>46.5</ele>
        <time>2020-06-22T17:21:03Z</time>
      </trkpt>
      <trkpt lat="50.66816" lon="1.63445">
        <ele>45.8</ele>
        <time>2020-06-22T17:21:04Z</time>
      </trkpt>
      <trkpt lat="50.66817" lon="1.63448">
        <ele>45.3</ele>
        <time>2020-06-22T17:21:05Z</time>
      </trkpt>
      <trkpt lat="50.66818" lon="1.63451">
        <ele>45.2</ele>
        <time>2020-06-22T17:21:06Z</time>
      </trkpt>
      <trkpt lat="50.66819" lon="1.63453">
        <ele>44.7</ele>
        <time>2020-06-22T17:21:07Z</time>
      </trkpt>
      <trkpt lat="50.6682" lon="1.63456">
        <ele>44.3</ele>
        <time>2020-06-22T17:21:08Z</time>
      </trkpt>
      <trkpt lat="50.66821" lon="1.63459">
        <ele>44.2</ele>
        <time>2020-06-22T17:21:09Z</time>
      </trkpt>
      <trkpt lat="50.66823" lon="1.63462">
        <ele>43.8</ele>
        <time>2020-06-22T17:21:10Z</time>
      </trkpt>
      <trkpt lat="50.66824" lon="1.63465">
        <ele>43.5</ele>
        <time>2020-06-22T17:21:11Z</time>
      </trkpt>
      <trkpt lat="50.66825" lon="1.63468">
        <ele>43.5</ele>
        <time>2020-06-22T17:32:28Z</time>
      </trkpt>
      <trkpt lat="50.66826" lon="1.63471">
        <ele>43.2</ele>
        <time>2020-06-22T17:32:29Z</time>
      </trkpt>
      <trkpt lat="50.66827" lon="1.63474">
        <ele>42.9</ele>
        <time>2020-06-22T17:32:30Z</time>
      </trkpt>
      <trkpt lat="50.66826" lon="1.63475">
        <ele>42.9</ele>
        <time>2020-06-22T17:32:31Z</time>
      </trkpt>
      <trkpt lat="50.66826" lon="1.63474">
        <ele>42.9</ele>
        <time>2020-06-22T17:32:32Z</time>
      </trkpt>
      <trkpt lat="50.66825" lon="1.63471">
        <ele>43.2</ele>
        <time>2020-06-22T17:32:33Z</time>
      </trkpt>
      <trkpt lat="50.66825" lon="1.6347">
        <ele>43.2</ele>
        <time>2020-06-22T17:32:34Z</time>
      </trkpt>
      <trkpt lat="50.66823" lon="1.6347">
        <ele>43.2</ele>
        <time>2020-06-22T17:32:35Z</time>
      </trkpt>
      <trkpt lat="50.66821" lon="1.63469">
        <ele>43.2</ele>
        <time>2020-06-22T17:32:36Z</time>
      </trkpt>
      <trkpt lat="50.6682" lon="1.63467">
        <ele>43.5</ele>
        <time>2020-06-22T17:32:37Z</time>
      </trkpt>
      <trkpt lat="50.66819" lon="1.63466">
        <ele>43.5</ele>
        <time>2020-06-22T17:32:38Z</time>
      </trkpt>
      <trkpt lat="50.66819" lon="1.63464">
        <ele>43.9</ele>
        <time>2020-06-22T17:32:39Z</time>
      </trkpt>
      <trkpt lat="50.66816" lon="1.63465">
        <ele>43.5</ele>
        <time>2020-06-22T17:32:40Z</time>
      </trkpt>
      <trkpt lat="50.66814" lon="1.63466">
        <ele>43.6</ele>
        <time>2020-06-22T17:32:41Z</time>
      </trkpt>
      <trkpt lat="50.66813" lon="1.63465">
        <ele>43.6</ele>
        <time>2020-06-22T17:32:42Z</time>
      </trkpt>
      <trkpt lat="50.66812" lon="1.63464">
        <ele>44.1</ele>
        <time>2020-06-22T17:32:43Z</time>
      </trkpt>
      <trkpt lat="50.66812" lon="1.63463">
        <ele>44.1</ele>
        <time>2020-06-22T17:32:44Z</time>
      </trkpt>
      <trkpt lat="50.66812" lon="1.63462">
        <ele>44.1</ele>
        <time>2020-06-22T17:32:45Z</time>
      </trkpt>
      <trkpt lat="50.66811" lon="1.63462">
        <ele>44.1</ele>
        <time>2020-06-22T17:32:46Z</time>
      </trkpt>
      <trkpt lat="50.66811" lon="1.63461">
        <ele>44.1</ele>
        <time>2020-06-22T17:32:47Z</time>
      </trkpt>
      <trkpt lat="50.66809" lon="1.63462">
        <ele>44.2</ele>
        <time>2020-06-22T17:32:48Z</time>
      </trkpt>
      <trkpt lat="50.66808" lon="1.63464">
        <ele>44.2</ele>
        <time>2020-06-22T17:32:49Z</time>
      </trkpt>
      <trkpt lat="50.66807" lon="1.63466">
        <ele>43.9</ele>
        <time>2020-06-22T17:32:50Z</time>
      </trkpt>
      <trkpt lat="50.66805" lon="1.63468">
        <ele>43.9</ele>
        <time>2020-06-22T17:32:51Z</time>
      </trkpt>
      <trkpt lat="50.66804" lon="1.63469">
        <ele>43.7</ele>
        <time>2020-06-22T17:32:52Z</time>
      </trkpt>
      <trkpt lat="50.66803" lon="1.63465">
        <ele>44.1</ele>
        <time>2020-06-22T17:32:53Z</time>
      </trkpt>
      <trkpt lat="50.66802" lon="1.63463">
        <ele>44.5</ele>
        <time>2020-06-22T17:32:54Z</time>
      </trkpt>
      <trkpt lat="50.66802" lon="1.63463">
        <ele>44.5</ele>
        <time>2020-06-22T17:32:55Z</time>
      </trkpt>
      <trkpt lat="50.66802" lon="1.63461">
        <ele>44.5</ele>
        <time>2020-06-22T17:32:56Z</time>
      </trkpt>
      <trkpt lat="50.66802" lon="1.6346">
        <ele>44.9</ele>
        <time>2020-06-22T17:32:57Z</time>
      </trkpt>
      <trkpt lat="50.66803" lon="1.63459">
        <ele>44.9</ele>
        <time>2020-06-22T17:32:58Z</time>
      </trkpt>
      <trkpt lat="50.66802" lon="1.63461">
        <ele>44.5</ele>
        <time>2020-06-22T17:32:59Z</time>
      </trkpt>
      <trkpt lat="50.66802" lon="1.63462">
        <ele>44.5</ele>
        <time>2020-06-22T17:33:00Z</time>
      </trkpt>
      <trkpt lat="50.66801" lon="1.63464">
        <ele>44.6</ele>
        <time>2020-06-22T17:33:01Z</time>
      </trkpt>
      <trkpt lat="50.66801" lon="1.63465">
        <ele>44.2</ele>
        <time>2020-06-22T17:33:02Z</time>
      </trkpt>
      <trkpt lat="50.668" lon="1.63467">
        <ele>44.2</ele>
        <time>2020-06-22T17:33:03Z</time>
      </trkpt>
      <trkpt lat="50.668" lon="1.63469">
        <ele>44.2</ele>
        <time>2020-06-22T17:33:04Z</time>
      </trkpt>
      <trkpt lat="50.66799" lon="1.6347">
        <ele>43.9</ele>
        <time>2020-06-22T17:33:05Z</time>
      </trkpt>
      <trkpt lat="50.66799" lon="1.63472">
        <ele>43.9</ele>
        <time>2020-06-22T17:33:06Z</time>
      </trkpt>
      <trkpt lat="50.66798" lon="1.63474">
        <ele>43.7</ele>
        <time>2020-06-22T17:33:07Z</time>
      </trkpt>
      <trkpt lat="50.66797" lon="1.63477">
        <ele>43.7</ele>
        <time>2020-06-22T17:33:08Z</time>
      </trkpt>
      <trkpt lat="50.66796" lon="1.63479">
        <ele>43.6</ele>
        <time>2020-06-22T17:33:09Z</time>
      </trkpt>
      <trkpt lat="50.66794" lon="1.63483">
        <ele>43.3</ele>
        <time>2020-06-22T17:33:10Z</time>
      </trkpt>
      <trkpt lat="50.66794" lon="1.63485">
        <ele>43.3</ele>
        <time>2020-06-22T17:33:11Z</time>
      </trkpt>
      <trkpt lat="50.66794" lon="1.63485">
        <ele>43.3</ele>
        <time>2020-06-22T17:33:12Z</time>
      </trkpt>
      <trkpt lat="50.66794" lon="1.63484">
        <ele>43.3</ele>
        <time>2020-06-22T17:33:13Z</time>
      </trkpt>
      <trkpt lat="50.66793" lon="1.63483">
        <ele>43.5</ele>
        <time>2020-06-22T17:33:14Z</time>
      </trkpt>
      <trkpt lat="50.66793" lon="1.63481">
        <ele>43.8</ele>
        <time>2020-06-22T17:33:15Z</time>
      </trkpt>
      <trkpt lat="50.66793" lon="1.63481">
        <ele>43.8</ele>
        <time>2020-06-22T17:33:16Z</time>
      </trkpt>
      <trkpt lat="50.66793" lon="1.6348">
        <ele>43.8</ele>
        <time>2020-06-22T17:33:17Z</time>
      </trkpt>
      <trkpt lat="50.66793" lon="1.63482">
        <ele>43.8</ele>
        <time>2020-06-22T17:33:18Z</time>
      </trkpt>
      <trkpt lat="50.66792" lon="1.63482">
        <ele>43.5</ele>
        <time>2020-06-22T17:33:19Z</time>
      </trkpt>
      <trkpt lat="50.66792" lon="1.63483">
        <ele>43.5</ele>
        <time>2020-06-22T17:33:20Z</time>
      </trkpt>
      <trkpt lat="50.66792" lon="1.63482">
        <ele>43.5</ele>
        <time>2020-06-22T17:33:21Z</time>
      </trkpt>
      <trkpt lat="50.66792" lon="1.63482">
        <ele>43.5</ele>
        <time>2020-06-22T17:33:22Z</time>
      </trkpt>
      <trkpt lat="50.66792" lon="1.63483">
        <ele>43.5</ele>
        <time>2020-06-22T17:33:23Z</time>
      </trkpt>
      <trkpt lat="50.66792" lon="1.63483">
        <ele>43.5</ele>
        <time>2020-06-22T17:33:24Z</time>
      </trkpt>
      <trkpt lat="50.66791" lon="1.63485">
        <ele>43.5</ele>
        <time>2020-06-22T17:33:25Z</time>
      </trkpt>
      <trkpt lat="50.6679" lon="1.6349">
        <ele>43.4</ele>
        <time>2020-06-22T17:33:26Z</time>
      </trkpt>
      <trkpt lat="50.6679" lon="1.63495">
        <ele>43.1</ele>
        <time>2020-06-22T17:33:27Z</time>
      </trkpt>
      <trkpt lat="50.66789" lon="1.63496">
        <ele>43.1</ele>
        <time>2020-06-22T17:33:28Z</time>
      </trkpt>
      <trkpt lat="50.66789" lon="1.63497">
        <ele>43.1</ele>
        <time>2020-06-22T17:33:29Z</time>
      </trkpt>
      <trkpt lat="50.6679" lon="1.63497">
        <ele>43.1</ele>
        <time>2020-06-22T17:33:30Z</time>
      </trkpt>
      <trkpt lat="50.6679" lon="1.63497">
        <ele>43.1</ele>
        <time>2020-06-22T17:33:31Z</time>
      </trkpt>
      <trkpt lat="50.6679" lon="1.63497">
        <ele>43.1</ele>
        <time>2020-06-22T17:33:32Z</time>
      </trkpt>
      <trkpt lat="50.6679" lon="1.63498">
        <ele>43.1</ele>
        <time>2020-06-22T17:33:33Z</time>
      </trkpt>
      <trkpt lat="50.66791" lon="1.63498">
        <ele>42.9</ele>
        <time>2020-06-22T17:33:34Z</time>
      </trkpt>
      <trkpt lat="50.66791" lon="1.63498">
        <ele>42.9</ele>
        <time>2020-06-22T17:33:35Z</time>
      </trkpt>
      <trkpt lat="50.66791" lon="1.63498">
        <ele>42.9</ele>
        <time>2020-06-22T17:33:36Z</time>
      </trkpt>
      <trkpt lat="50.66791" lon="1.63499">
        <ele>42.9</ele>
        <time>2020-06-22T17:33:37Z</time>
      </trkpt>
      <trkpt lat="50.66792" lon="1.63499">
        <ele>42.9</ele>
        <time>2020-06-22T17:33:38Z</time>
      </trkpt>
      <trkpt lat="50.66792" lon="1.63499">
        <ele>42.8</ele>
        <time>2020-06-22T17:33:39Z</time>
      </trkpt>
      <trkpt lat="50.66792" lon="1.63499">
        <ele>42.8</ele>
        <time>2020-06-22T17:33:40Z</time>
      </trkpt>
      <trkpt lat="50.66793" lon="1.63499">
        <ele>42.8</ele>
        <time>2020-06-22T17:33:41Z</time>
      </trkpt>
      <trkpt lat="50.66793" lon="1.635">
        <ele>42.8</ele>
        <time>2020-06-22T17:33:42Z</time>
      </trkpt>
      <trkpt lat="50.66793" lon="1.635">
        <ele>42.8</ele>
        <time>2020-06-22T17:33:43Z</time>
      </trkpt>
      <trkpt lat="50.66794" lon="1.63499">
        <ele>42.6</ele>
        <time>2020-06-22T17:33:44Z</time>
      </trkpt>
      <trkpt lat="50.66795" lon="1.63499">
        <ele>42.8</ele>
        <time>2020-06-22T17:33:45Z</time>
      </trkpt>
      <trkpt lat="50.66782" lon="1.63523">
        <ele>43</ele>
        <time>2020-06-22T17:39:58Z</time>
      </trkpt>
      <trkpt lat="50.66791" lon="1.63524">
        <ele>43</ele>
        <time>2020-06-22T17:39:59Z</time>
      </trkpt>
      <trkpt lat="50.66789" lon="1.63522">
        <ele>43</ele>
        <time>2020-06-22T17:40:00Z</time>
      </trkpt>
      <trkpt lat="50.66793" lon="1.63522">
        <ele>43</ele>
        <time>2020-06-22T17:40:01Z</time>
      </trkpt>
      <trkpt lat="50.66794" lon="1.63527">
        <ele>43</ele>
        <time>2020-06-22T17:40:02Z</time>
      </trkpt>
      <trkpt lat="50.66792" lon="1.63522">
        <ele>43</ele>
        <time>2020-06-22T17:40:03Z</time>
      </trkpt>
      <trkpt lat="50.66791" lon="1.63522">
        <ele>43.1</ele>
        <time>2020-06-22T17:40:05Z</time>
      </trkpt>
      <trkpt lat="50.6679" lon="1.63519">
        <ele>43.1</ele>
        <time>2020-06-22T17:40:06Z</time>
      </trkpt>
      <trkpt lat="50.66789" lon="1.63516">
        <ele>43.1</ele>
        <time>2020-06-22T17:40:07Z</time>
      </trkpt>
      <trkpt lat="50.66789" lon="1.63515">
        <ele>43.1</ele>
        <time>2020-06-22T17:40:08Z</time>
      </trkpt>
      <trkpt lat="50.66789" lon="1.63516">
        <ele>43.1</ele>
        <time>2020-06-22T17:40:09Z</time>
      </trkpt>
      <trkpt lat="50.66788" lon="1.63516">
        <ele>43.1</ele>
        <time>2020-06-22T17:40:10Z</time>
      </trkpt>
      <trkpt lat="50.66788" lon="1.63516">
        <ele>43.1</ele>
        <time>2020-06-22T17:40:11Z</time>
      </trkpt>
      <trkpt lat="50.66788" lon="1.63517">
        <ele>43.1</ele>
        <time>2020-06-22T17:40:12Z</time>
      </trkpt>
      <trkpt lat="50.66787" lon="1.63518">
        <ele>43.1</ele>
        <time>2020-06-22T17:40:13Z</time>
      </trkpt>
      <trkpt lat="50.66787" lon="1.63518">
        <ele>43.1</ele>
        <time>2020-06-22T17:40:14Z</time>
      </trkpt>
      <trkpt lat="50.66802" lon="1.63526">
        <ele>43.3</ele>
        <time>2020-06-22T17:46:55Z</time>
      </trkpt>
      <trkpt lat="50.66803" lon="1.63525">
        <ele>43.4</ele>
        <time>2020-06-22T17:46:56Z</time>
      </trkpt>
      <trkpt lat="50.66804" lon="1.63525">
        <ele>43.4</ele>
        <time>2020-06-22T17:46:57Z</time>
      </trkpt>
      <trkpt lat="50.66805" lon="1.63524">
        <ele>43.4</ele>
        <time>2020-06-22T17:46:58Z</time>
      </trkpt>
      <trkpt lat="50.66806" lon="1.63523">
        <ele>43.4</ele>
        <time>2020-06-22T17:46:59Z</time>
      </trkpt>
      <trkpt lat="50.66806" lon="1.63523">
        <ele>43.4</ele>
        <time>2020-06-22T17:47:00Z</time>
      </trkpt>
      <trkpt lat="50.66807" lon="1.63523">
        <ele>43.4</ele>
        <time>2020-06-22T17:47:01Z</time>
      </trkpt>
      <trkpt lat="50.66808" lon="1.63522">
        <ele>43.4</ele>
        <time>2020-06-22T17:47:02Z</time>
      </trkpt>
      <trkpt lat="50.66808" lon="1.63522">
        <ele>43.4</ele>
        <time>2020-06-22T17:47:03Z</time>
      </trkpt>
      <trkpt lat="50.66809" lon="1.63522">
        <ele>43.4</ele>
        <time>2020-06-22T17:47:04Z</time>
      </trkpt>
      <trkpt lat="50.66809" lon="1.63521">
        <ele>43.5</ele>
        <time>2020-06-22T17:47:05Z</time>
      </trkpt>
      <trkpt lat="50.6681" lon="1.63521">
        <ele>43.5</ele>
        <time>2020-06-22T17:47:06Z</time>
      </trkpt>
      <trkpt lat="50.66811" lon="1.63521">
        <ele>43.5</ele>
        <time>2020-06-22T17:47:07Z</time>
      </trkpt>
      <trkpt lat="50.66811" lon="1.63521">
        <ele>43.5</ele>
        <time>2020-06-22T17:47:23Z</time>
      </trkpt>
      <trkpt lat="50.66812" lon="1.6352">
        <ele>43.5</ele>
        <time>2020-06-22T17:47:24Z</time>
      </trkpt>
      <trkpt lat="50.66813" lon="1.63518">
        <ele>43.5</ele>
        <time>2020-06-22T17:47:25Z</time>
      </trkpt>
      <trkpt lat="50.66814" lon="1.63517">
        <ele>43.5</ele>
        <time>2020-06-22T17:47:26Z</time>
      </trkpt>
      <trkpt lat="50.66815" lon="1.63515">
        <ele>43.6</ele>
        <time>2020-06-22T17:47:27Z</time>
      </trkpt>
      <trkpt lat="50.66816" lon="1.63514">
        <ele>43.6</ele>
        <time>2020-06-22T17:47:28Z</time>
      </trkpt>
      <trkpt lat="50.66819" lon="1.63516">
        <ele>43.7</ele>
        <time>2020-06-22T17:47:29Z</time>
      </trkpt>
      <trkpt lat="50.6682" lon="1.63517">
        <ele>43.7</ele>
        <time>2020-06-22T17:47:30Z</time>
      </trkpt>
      <trkpt lat="50.66823" lon="1.63519">
        <ele>43.7</ele>
        <time>2020-06-22T17:47:31Z</time>
      </trkpt>
      <trkpt lat="50.66824" lon="1.63519">
        <ele>43.7</ele>
        <time>2020-06-22T17:47:32Z</time>
      </trkpt>
      <trkpt lat="50.66827" lon="1.6352">
        <ele>43.8</ele>
        <time>2020-06-22T17:47:33Z</time>
      </trkpt>
      <trkpt lat="50.66831" lon="1.6352">
        <ele>43.9</ele>
        <time>2020-06-22T17:47:34Z</time>
      </trkpt>
      <trkpt lat="50.66834" lon="1.63521">
        <ele>43.9</ele>
        <time>2020-06-22T17:47:35Z</time>
      </trkpt>
      <trkpt lat="50.66838" lon="1.63522">
        <ele>44</ele>
        <time>2020-06-22T17:47:36Z</time>
      </trkpt>
      <trkpt lat="50.66843" lon="1.63523">
        <ele>44.1</ele>
        <time>2020-06-22T17:47:37Z</time>
      </trkpt>
      <trkpt lat="50.66848" lon="1.63524">
        <ele>44.2</ele>
        <time>2020-06-22T17:47:38Z</time>
      </trkpt>
      <trkpt lat="50.66851" lon="1.63525">
        <ele>44.2</ele>
        <time>2020-06-22T17:47:39Z</time>
      </trkpt>
      <trkpt lat="50.66856" lon="1.63525">
        <ele>44.3</ele>
        <time>2020-06-22T17:47:40Z</time>
      </trkpt>
      <trkpt lat="50.6686" lon="1.63526">
        <ele>44.4</ele>
        <time>2020-06-22T17:47:41Z</time>
      </trkpt>
      <trkpt lat="50.66865" lon="1.63526">
        <ele>44.5</ele>
        <time>2020-06-22T17:47:42Z</time>
      </trkpt>
      <trkpt lat="50.6687" lon="1.63526">
        <ele>44.6</ele>
        <time>2020-06-22T17:47:43Z</time>
      </trkpt>
      <trkpt lat="50.66874" lon="1.63526">
        <ele>44.7</ele>
        <time>2020-06-22T17:47:44Z</time>
      </trkpt>
      <trkpt lat="50.66879" lon="1.63527">
        <ele>44.8</ele>
        <time>2020-06-22T17:47:45Z</time>
      </trkpt>
      <trkpt lat="50.66884" lon="1.63527">
        <ele>44.9</ele>
        <time>2020-06-22T17:47:46Z</time>
      </trkpt>
      <trkpt lat="50.66887" lon="1.63529">
        <ele>45</ele>
        <time>2020-06-22T17:47:47Z</time>
      </trkpt>
      <trkpt lat="50.66892" lon="1.63531">
        <ele>45</ele>
        <time>2020-06-22T17:47:48Z</time>
      </trkpt>
      <trkpt lat="50.66896" lon="1.63533">
        <ele>45.1</ele>
        <time>2020-06-22T17:47:49Z</time>
      </trkpt>
      <trkpt lat="50.66901" lon="1.63534">
        <ele>45.1</ele>
        <time>2020-06-22T17:47:50Z</time>
      </trkpt>
      <trkpt lat="50.66905" lon="1.63535">
        <ele>45.1</ele>
        <time>2020-06-22T17:47:51Z</time>
      </trkpt>
      <trkpt lat="50.6691" lon="1.63537">
        <ele>45.1</ele>
        <time>2020-06-22T17:47:52Z</time>
      </trkpt>
      <trkpt lat="50.66914" lon="1.63539">
        <ele>45.1</ele>
        <time>2020-06-22T17:47:53Z</time>
      </trkpt>
      <trkpt lat="50.6692" lon="1.63541">
        <ele>45.1</ele>
        <time>2020-06-22T17:47:54Z</time>
      </trkpt>
      <trkpt lat="50.66925" lon="1.63542">
        <ele>45.1</ele>
        <time>2020-06-22T17:47:55Z</time>
      </trkpt>
      <trkpt lat="50.66929" lon="1.63544">
        <ele>45.1</ele>
        <time>2020-06-22T17:47:56Z</time>
      </trkpt>
      <trkpt lat="50.66935" lon="1.63544">
        <ele>45.1</ele>
        <time>2020-06-22T17:47:57Z</time>
      </trkpt>
      <trkpt lat="50.66941" lon="1.63546">
        <ele>45.1</ele>
        <time>2020-06-22T17:47:58Z</time>
      </trkpt>
      <trkpt lat="50.66946" lon="1.63548">
        <ele>45</ele>
        <time>2020-06-22T17:47:59Z</time>
      </trkpt>
      <trkpt lat="50.66951" lon="1.63549">
        <ele>45</ele>
        <time>2020-06-22T17:48:00Z</time>
      </trkpt>
      <trkpt lat="50.66957" lon="1.63551">
        <ele>45</ele>
        <time>2020-06-22T17:48:01Z</time>
      </trkpt>
      <trkpt lat="50.66962" lon="1.63552">
        <ele>44.9</ele>
        <time>2020-06-22T17:48:02Z</time>
      </trkpt>
      <trkpt lat="50.66966" lon="1.63554">
        <ele>44.9</ele>
        <time>2020-06-22T17:48:03Z</time>
      </trkpt>
      <trkpt lat="50.66971" lon="1.63556">
        <ele>44.8</ele>
        <time>2020-06-22T17:48:04Z</time>
      </trkpt>
      <trkpt lat="50.66975" lon="1.63556">
        <ele>44.7</ele>
        <time>2020-06-22T17:48:05Z</time>
      </trkpt>
      <trkpt lat="50.66979" lon="1.63558">
        <ele>44.7</ele>
        <time>2020-06-22T17:48:06Z</time>
      </trkpt>
      <trkpt lat="50.66984" lon="1.6356">
        <ele>44.6</ele>
        <time>2020-06-22T17:48:07Z</time>
      </trkpt>
      <trkpt lat="50.66988" lon="1.63563">
        <ele>44.6</ele>
        <time>2020-06-22T17:48:08Z</time>
      </trkpt>
      <trkpt lat="50.66992" lon="1.63565">
        <ele>44.5</ele>
        <time>2020-06-22T17:48:09Z</time>
      </trkpt>
      <trkpt lat="50.66996" lon="1.63569">
        <ele>44.4</ele>
        <time>2020-06-22T17:48:10Z</time>
      </trkpt>
      <trkpt lat="50.67001" lon="1.63572">
        <ele>44.3</ele>
        <time>2020-06-22T17:48:11Z</time>
      </trkpt>
      <trkpt lat="50.67006" lon="1.63575">
        <ele>44.2</ele>
        <time>2020-06-22T17:48:12Z</time>
      </trkpt>
      <trkpt lat="50.67011" lon="1.63577">
        <ele>44.1</ele>
        <time>2020-06-22T17:48:13Z</time>
      </trkpt>
      <trkpt lat="50.67016" lon="1.63582">
        <ele>44</ele>
        <time>2020-06-22T17:48:14Z</time>
      </trkpt>
      <trkpt lat="50.67021" lon="1.63585">
        <ele>43.8</ele>
        <time>2020-06-22T17:48:15Z</time>
      </trkpt>
      <trkpt lat="50.67026" lon="1.63589">
        <ele>43.7</ele>
        <time>2020-06-22T17:48:16Z</time>
      </trkpt>
      <trkpt lat="50.67031" lon="1.63593">
        <ele>43.5</ele>
        <time>2020-06-22T17:48:17Z</time>
      </trkpt>
      <trkpt lat="50.67036" lon="1.63597">
        <ele>43.4</ele>
        <time>2020-06-22T17:48:18Z</time>
      </trkpt>
      <trkpt lat="50.67042" lon="1.636">
        <ele>43.2</ele>
        <time>2020-06-22T17:48:19Z</time>
      </trkpt>
      <trkpt lat="50.67048" lon="1.63604">
        <ele>43</ele>
        <time>2020-06-22T17:48:20Z</time>
      </trkpt>
      <trkpt lat="50.67053" lon="1.63607">
        <ele>42.9</ele>
        <time>2020-06-22T17:48:21Z</time>
      </trkpt>
      <trkpt lat="50.67059" lon="1.6361">
        <ele>42.7</ele>
        <time>2020-06-22T17:48:22Z</time>
      </trkpt>
      <trkpt lat="50.67065" lon="1.63614">
        <ele>42.4</ele>
        <time>2020-06-22T17:48:23Z</time>
      </trkpt>
      <trkpt lat="50.67071" lon="1.63617">
        <ele>42.2</ele>
        <time>2020-06-22T17:48:24Z</time>
      </trkpt>
      <trkpt lat="50.67077" lon="1.6362">
        <ele>42</ele>
        <time>2020-06-22T17:48:25Z</time>
      </trkpt>
      <trkpt lat="50.67084" lon="1.63622">
        <ele>41.7</ele>
        <time>2020-06-22T17:48:26Z</time>
      </trkpt>
      <trkpt lat="50.67091" lon="1.63624">
        <ele>41.5</ele>
        <time>2020-06-22T17:48:27Z</time>
      </trkpt>
      <trkpt lat="50.67098" lon="1.63627">
        <ele>41.3</ele>
        <time>2020-06-22T17:48:28Z</time>
      </trkpt>
      <trkpt lat="50.67103" lon="1.63629">
        <ele>41.1</ele>
        <time>2020-06-22T17:48:29Z</time>
      </trkpt>
      <trkpt lat="50.6711" lon="1.63631">
        <ele>40.8</ele>
        <time>2020-06-22T17:48:30Z</time>
      </trkpt>
      <trkpt lat="50.67115" lon="1.63633">
        <ele>40.6</ele>
        <time>2020-06-22T17:48:31Z</time>
      </trkpt>
      <trkpt lat="50.67122" lon="1.63636">
        <ele>40.2</ele>
        <time>2020-06-22T17:48:32Z</time>
      </trkpt>
      <trkpt lat="50.67129" lon="1.63639">
        <ele>39.9</ele>
        <time>2020-06-22T17:48:33Z</time>
      </trkpt>
      <trkpt lat="50.67135" lon="1.63641">
        <ele>39.6</ele>
        <time>2020-06-22T17:48:34Z</time>
      </trkpt>
      <trkpt lat="50.67142" lon="1.63643">
        <ele>39.4</ele>
        <time>2020-06-22T17:48:35Z</time>
      </trkpt>
      <trkpt lat="50.6715" lon="1.63645">
        <ele>39.1</ele>
        <time>2020-06-22T17:48:36Z</time>
      </trkpt>
      <trkpt lat="50.67158" lon="1.63649">
        <ele>38.8</ele>
        <time>2020-06-22T17:48:37Z</time>
      </trkpt>
      <trkpt lat="50.67166" lon="1.6365">
        <ele>38.6</ele>
        <time>2020-06-22T17:48:38Z</time>
      </trkpt>
      <trkpt lat="50.67174" lon="1.63653">
        <ele>38.3</ele>
        <time>2020-06-22T17:48:39Z</time>
      </trkpt>
      <trkpt lat="50.67182" lon="1.63655">
        <ele>38.1</ele>
        <time>2020-06-22T17:48:40Z</time>
      </trkpt>
      <trkpt lat="50.67189" lon="1.63658">
        <ele>37.9</ele>
        <time>2020-06-22T17:48:41Z</time>
      </trkpt>
      <trkpt lat="50.67196" lon="1.63659">
        <ele>37.8</ele>
        <time>2020-06-22T17:48:42Z</time>
      </trkpt>
      <trkpt lat="50.67203" lon="1.63661">
        <ele>37.6</ele>
        <time>2020-06-22T17:48:43Z</time>
      </trkpt>
      <trkpt lat="50.67211" lon="1.63663">
        <ele>37.5</ele>
        <time>2020-06-22T17:48:44Z</time>
      </trkpt>
      <trkpt lat="50.67219" lon="1.63666">
        <ele>37.3</ele>
        <time>2020-06-22T17:48:45Z</time>
      </trkpt>
      <trkpt lat="50.67226" lon="1.63668">
        <ele>37.1</ele>
        <time>2020-06-22T17:48:46Z</time>
      </trkpt>
      <trkpt lat="50.67233" lon="1.63671">
        <ele>37</ele>
        <time>2020-06-22T17:48:47Z</time>
      </trkpt>
      <trkpt lat="50.67241" lon="1.63674">
        <ele>36.7</ele>
        <time>2020-06-22T17:48:48Z</time>
      </trkpt>
      <trkpt lat="50.67248" lon="1.63677">
        <ele>36.5</ele>
        <time>2020-06-22T17:48:49Z</time>
      </trkpt>
      <trkpt lat="50.67255" lon="1.63679">
        <ele>36.3</ele>
        <time>2020-06-22T17:48:50Z</time>
      </trkpt>
      <trkpt lat="50.67263" lon="1.63682">
        <ele>36.1</ele>
        <time>2020-06-22T17:48:51Z</time>
      </trkpt>
      <trkpt lat="50.6727" lon="1.63682">
        <ele>35.9</ele>
        <time>2020-06-22T17:48:52Z</time>
      </trkpt>
      <trkpt lat="50.67277" lon="1.63685">
        <ele>35.6</ele>
        <time>2020-06-22T17:48:53Z</time>
      </trkpt>
      <trkpt lat="50.67285" lon="1.63689">
        <ele>35.3</ele>
        <time>2020-06-22T17:48:54Z</time>
      </trkpt>
      <trkpt lat="50.67292" lon="1.63691">
        <ele>35</ele>
        <time>2020-06-22T17:48:55Z</time>
      </trkpt>
      <trkpt lat="50.67299" lon="1.63693">
        <ele>34.7</ele>
        <time>2020-06-22T17:48:56Z</time>
      </trkpt>
      <trkpt lat="50.67307" lon="1.63694">
        <ele>34.4</ele>
        <time>2020-06-22T17:48:57Z</time>
      </trkpt>
      <trkpt lat="50.67314" lon="1.63695">
        <ele>34.1</ele>
        <time>2020-06-22T17:48:58Z</time>
      </trkpt>
      <trkpt lat="50.67322" lon="1.63696">
        <ele>33.6</ele>
        <time>2020-06-22T17:48:59Z</time>
      </trkpt>
      <trkpt lat="50.67331" lon="1.63697">
        <ele>33.1</ele>
        <time>2020-06-22T17:49:00Z</time>
      </trkpt>
      <trkpt lat="50.67339" lon="1.63697">
        <ele>32.5</ele>
        <time>2020-06-22T17:49:01Z</time>
      </trkpt>
      <trkpt lat="50.67348" lon="1.63697">
        <ele>31.9</ele>
        <time>2020-06-22T17:49:02Z</time>
      </trkpt>
      <trkpt lat="50.67358" lon="1.63694">
        <ele>31.3</ele>
        <time>2020-06-22T17:49:03Z</time>
      </trkpt>
      <trkpt lat="50.67367" lon="1.63691">
        <ele>30.7</ele>
        <time>2020-06-22T17:49:04Z</time>
      </trkpt>
      <trkpt lat="50.67376" lon="1.63688">
        <ele>30.2</ele>
        <time>2020-06-22T17:49:05Z</time>
      </trkpt>
      <trkpt lat="50.67385" lon="1.63684">
        <ele>29.8</ele>
        <time>2020-06-22T17:49:06Z</time>
      </trkpt>
      <trkpt lat="50.67395" lon="1.63682">
        <ele>29.4</ele>
        <time>2020-06-22T17:49:07Z</time>
      </trkpt>
      <trkpt lat="50.67405" lon="1.63679">
        <ele>28.8</ele>
        <time>2020-06-22T17:49:08Z</time>
      </trkpt>
      <trkpt lat="50.67415" lon="1.63676">
        <ele>28</ele>
        <time>2020-06-22T17:49:09Z</time>
      </trkpt>
      <trkpt lat="50.67426" lon="1.63673">
        <ele>27</ele>
        <time>2020-06-22T17:49:10Z</time>
      </trkpt>
      <trkpt lat="50.67436" lon="1.6367">
        <ele>25.9</ele>
        <time>2020-06-22T17:49:11Z</time>
      </trkpt>
      <trkpt lat="50.67448" lon="1.63667">
        <ele>24.8</ele>
        <time>2020-06-22T17:49:12Z</time>
      </trkpt>
      <trkpt lat="50.67459" lon="1.63665">
        <ele>23.8</ele>
        <time>2020-06-22T17:49:13Z</time>
      </trkpt>
      <trkpt lat="50.67471" lon="1.63662">
        <ele>22.7</ele>
        <time>2020-06-22T17:49:14Z</time>
      </trkpt>
      <trkpt lat="50.67482" lon="1.63658">
        <ele>21.6</ele>
        <time>2020-06-22T17:49:15Z</time>
      </trkpt>
      <trkpt lat="50.67494" lon="1.63654">
        <ele>20.5</ele>
        <time>2020-06-22T17:49:16Z</time>
      </trkpt>
      <trkpt lat="50.67506" lon="1.63649">
        <ele>19.3</ele>
        <time>2020-06-22T17:49:17Z</time>
      </trkpt>
      <trkpt lat="50.67518" lon="1.63643">
        <ele>18</ele>
        <time>2020-06-22T17:49:18Z</time>
      </trkpt>
      <trkpt lat="50.6753" lon="1.63637">
        <ele>16.8</ele>
        <time>2020-06-22T17:49:19Z</time>
      </trkpt>
      <trkpt lat="50.67541" lon="1.63629">
        <ele>15.6</ele>
        <time>2020-06-22T17:49:20Z</time>
      </trkpt>
      <trkpt lat="50.67553" lon="1.63621">
        <ele>14.5</ele>
        <time>2020-06-22T17:49:21Z</time>
      </trkpt>
      <trkpt lat="50.67564" lon="1.63612">
        <ele>13.4</ele>
        <time>2020-06-22T17:49:22Z</time>
      </trkpt>
      <trkpt lat="50.67576" lon="1.63604">
        <ele>12.5</ele>
        <time>2020-06-22T17:49:23Z</time>
      </trkpt>
      <trkpt lat="50.67587" lon="1.63595">
        <ele>11.8</ele>
        <time>2020-06-22T17:49:24Z</time>
      </trkpt>
      <trkpt lat="50.67598" lon="1.63587">
        <ele>11.5</ele>
        <time>2020-06-22T17:49:25Z</time>
      </trkpt>
      <trkpt lat="50.67609" lon="1.63578">
        <ele>11.3</ele>
        <time>2020-06-22T17:49:26Z</time>
      </trkpt>
      <trkpt lat="50.67619" lon="1.63569">
        <ele>11.1</ele>
        <time>2020-06-22T17:49:27Z</time>
      </trkpt>
      <trkpt lat="50.67628" lon="1.6356">
        <ele>10.9</ele>
        <time>2020-06-22T17:49:28Z</time>
      </trkpt>
      <trkpt lat="50.67637" lon="1.63551">
        <ele>10.8</ele>
        <time>2020-06-22T17:49:29Z</time>
      </trkpt>
      <trkpt lat="50.67645" lon="1.63541">
        <ele>10.7</ele>
        <time>2020-06-22T17:49:30Z</time>
      </trkpt>
      <trkpt lat="50.67653" lon="1.63532">
        <ele>10.5</ele>
        <time>2020-06-22T17:49:31Z</time>
      </trkpt>
      <trkpt lat="50.67661" lon="1.63522">
        <ele>10.4</ele>
        <time>2020-06-22T17:49:32Z</time>
      </trkpt>
      <trkpt lat="50.67669" lon="1.63514">
        <ele>10.3</ele>
        <time>2020-06-22T17:49:33Z</time>
      </trkpt>
      <trkpt lat="50.67677" lon="1.63506">
        <ele>10.2</ele>
        <time>2020-06-22T17:49:34Z</time>
      </trkpt>
      <trkpt lat="50.67684" lon="1.63497">
        <ele>10.1</ele>
        <time>2020-06-22T17:49:35Z</time>
      </trkpt>
      <trkpt lat="50.67692" lon="1.63488">
        <ele>10</ele>
        <time>2020-06-22T17:49:36Z</time>
      </trkpt>
      <trkpt lat="50.677" lon="1.6348">
        <ele>9.9</ele>
        <time>2020-06-22T17:49:37Z</time>
      </trkpt>
      <trkpt lat="50.67707" lon="1.63472">
        <ele>9.9</ele>
        <time>2020-06-22T17:49:38Z</time>
      </trkpt>
      <trkpt lat="50.67715" lon="1.63465">
        <ele>9.8</ele>
        <time>2020-06-22T17:49:39Z</time>
      </trkpt>
      <trkpt lat="50.67723" lon="1.63457">
        <ele>9.8</ele>
        <time>2020-06-22T17:49:40Z</time>
      </trkpt>
      <trkpt lat="50.6773" lon="1.6345">
        <ele>9.8</ele>
        <time>2020-06-22T17:49:41Z</time>
      </trkpt>
      <trkpt lat="50.67737" lon="1.63443">
        <ele>9.8</ele>
        <time>2020-06-22T17:49:42Z</time>
      </trkpt>
      <trkpt lat="50.67744" lon="1.63436">
        <ele>9.9</ele>
        <time>2020-06-22T17:49:43Z</time>
      </trkpt>
      <trkpt lat="50.6775" lon="1.63429">
        <ele>9.9</ele>
        <time>2020-06-22T17:49:44Z</time>
      </trkpt>
      <trkpt lat="50.67757" lon="1.63423">
        <ele>9.9</ele>
        <time>2020-06-22T17:49:45Z</time>
      </trkpt>
      <trkpt lat="50.67763" lon="1.63417">
        <ele>9.9</ele>
        <time>2020-06-22T17:49:46Z</time>
      </trkpt>
      <trkpt lat="50.67769" lon="1.63411">
        <ele>9.8</ele>
        <time>2020-06-22T17:49:47Z</time>
      </trkpt>
      <trkpt lat="50.67775" lon="1.63405">
        <ele>9.8</ele>
        <time>2020-06-22T17:49:48Z</time>
      </trkpt>
      <trkpt lat="50.67781" lon="1.63399">
        <ele>9.8</ele>
        <time>2020-06-22T17:49:49Z</time>
      </trkpt>
      <trkpt lat="50.67786" lon="1.63393">
        <ele>9.8</ele>
        <time>2020-06-22T17:49:50Z</time>
      </trkpt>
      <trkpt lat="50.67792" lon="1.63389">
        <ele>9.9</ele>
        <time>2020-06-22T17:49:51Z</time>
      </trkpt>
      <trkpt lat="50.67799" lon="1.63388">
        <ele>9.9</ele>
        <time>2020-06-22T17:49:52Z</time>
      </trkpt>
      <trkpt lat="50.67805" lon="1.63386">
        <ele>9.9</ele>
        <time>2020-06-22T17:49:53Z</time>
      </trkpt>
      <trkpt lat="50.6781" lon="1.63385">
        <ele>10</ele>
        <time>2020-06-22T17:49:54Z</time>
      </trkpt>
      <trkpt lat="50.67814" lon="1.63383">
        <ele>10.1</ele>
        <time>2020-06-22T17:49:55Z</time>
      </trkpt>
      <trkpt lat="50.67818" lon="1.6338">
        <ele>10.2</ele>
        <time>2020-06-22T17:49:56Z</time>
      </trkpt>
      <trkpt lat="50.67822" lon="1.63378">
        <ele>10.2</ele>
        <time>2020-06-22T17:49:57Z</time>
      </trkpt>
      <trkpt lat="50.67827" lon="1.63374">
        <ele>10.3</ele>
        <time>2020-06-22T17:49:58Z</time>
      </trkpt>
      <trkpt lat="50.67831" lon="1.6337">
        <ele>10.4</ele>
        <time>2020-06-22T17:49:59Z</time>
      </trkpt>
      <trkpt lat="50.67836" lon="1.63365">
        <ele>10.5</ele>
        <time>2020-06-22T17:50:00Z</time>
      </trkpt>
      <trkpt lat="50.6784" lon="1.63362">
        <ele>10.7</ele>
        <time>2020-06-22T17:50:01Z</time>
      </trkpt>
      <trkpt lat="50.67845" lon="1.63358">
        <ele>10.9</ele>
        <time>2020-06-22T17:50:02Z</time>
      </trkpt>
      <trkpt lat="50.67851" lon="1.63357">
        <ele>11</ele>
        <time>2020-06-22T17:50:03Z</time>
      </trkpt>
      <trkpt lat="50.67856" lon="1.63354">
        <ele>11.2</ele>
        <time>2020-06-22T17:50:04Z</time>
      </trkpt>
      <trkpt lat="50.6786" lon="1.63351">
        <ele>11.4</ele>
        <time>2020-06-22T17:50:05Z</time>
      </trkpt>
      <trkpt lat="50.67865" lon="1.63348">
        <ele>11.6</ele>
        <time>2020-06-22T17:50:06Z</time>
      </trkpt>
      <trkpt lat="50.67869" lon="1.63346">
        <ele>11.8</ele>
        <time>2020-06-22T17:50:07Z</time>
      </trkpt>
      <trkpt lat="50.67873" lon="1.63345">
        <ele>12</ele>
        <time>2020-06-22T17:50:08Z</time>
      </trkpt>
      <trkpt lat="50.67877" lon="1.63343">
        <ele>12.2</ele>
        <time>2020-06-22T17:50:09Z</time>
      </trkpt>
      <trkpt lat="50.67881" lon="1.63342">
        <ele>12.4</ele>
        <time>2020-06-22T17:50:10Z</time>
      </trkpt>
      <trkpt lat="50.67885" lon="1.63342">
        <ele>12.5</ele>
        <time>2020-06-22T17:50:11Z</time>
      </trkpt>
      <trkpt lat="50.67889" lon="1.63342">
        <ele>12.6</ele>
        <time>2020-06-22T17:50:12Z</time>
      </trkpt>
      <trkpt lat="50.67892" lon="1.63341">
        <ele>12.7</ele>
        <time>2020-06-22T17:50:13Z</time>
      </trkpt>
      <trkpt lat="50.67896" lon="1.63341">
        <ele>12.8</ele>
        <time>2020-06-22T17:50:14Z</time>
      </trkpt>
      <trkpt lat="50.679" lon="1.63342">
        <ele>12.9</ele>
        <time>2020-06-22T17:50:15Z</time>
      </trkpt>
      <trkpt lat="50.67904" lon="1.63341">
        <ele>13</ele>
        <time>2020-06-22T17:50:16Z</time>
      </trkpt>
      <trkpt lat="50.67908" lon="1.6334">
        <ele>13.1</ele>
        <time>2020-06-22T17:50:17Z</time>
      </trkpt>
      <trkpt lat="50.67912" lon="1.63339">
        <ele>13.2</ele>
        <time>2020-06-22T17:50:18Z</time>
      </trkpt>
      <trkpt lat="50.67916" lon="1.63339">
        <ele>13.2</ele>
        <time>2020-06-22T17:50:19Z</time>
      </trkpt>
      <trkpt lat="50.6792" lon="1.63338">
        <ele>13.4</ele>
        <time>2020-06-22T17:50:20Z</time>
      </trkpt>
      <trkpt lat="50.67924" lon="1.63337">
        <ele>13.5</ele>
        <time>2020-06-22T17:50:21Z</time>
      </trkpt>
      <trkpt lat="50.67928" lon="1.63339">
        <ele>13.5</ele>
        <time>2020-06-22T17:50:22Z</time>
      </trkpt>
      <trkpt lat="50.67932" lon="1.63339">
        <ele>13.6</ele>
        <time>2020-06-22T17:50:23Z</time>
      </trkpt>
      <trkpt lat="50.67938" lon="1.63341">
        <ele>13.7</ele>
        <time>2020-06-22T17:50:24Z</time>
      </trkpt>
      <trkpt lat="50.67942" lon="1.63341">
        <ele>13.8</ele>
        <time>2020-06-22T17:50:25Z</time>
      </trkpt>
      <trkpt lat="50.67946" lon="1.63341">
        <ele>13.9</ele>
        <time>2020-06-22T17:50:26Z</time>
      </trkpt>
      <trkpt lat="50.67952" lon="1.63339">
        <ele>13.9</ele>
        <time>2020-06-22T17:50:27Z</time>
      </trkpt>
      <trkpt lat="50.67958" lon="1.63338">
        <ele>14</ele>
        <time>2020-06-22T17:50:28Z</time>
      </trkpt>
      <trkpt lat="50.67964" lon="1.63337">
        <ele>14</ele>
        <time>2020-06-22T17:50:29Z</time>
      </trkpt>
      <trkpt lat="50.67969" lon="1.63336">
        <ele>14.1</ele>
        <time>2020-06-22T17:50:30Z</time>
      </trkpt>
      <trkpt lat="50.67975" lon="1.63336">
        <ele>14.1</ele>
        <time>2020-06-22T17:50:31Z</time>
      </trkpt>
      <trkpt lat="50.67981" lon="1.63336">
        <ele>14.1</ele>
        <time>2020-06-22T17:50:32Z</time>
      </trkpt>
      <trkpt lat="50.67986" lon="1.63337">
        <ele>14.1</ele>
        <time>2020-06-22T17:50:33Z</time>
      </trkpt>
      <trkpt lat="50.67992" lon="1.63337">
        <ele>14.1</ele>
        <time>2020-06-22T17:50:34Z</time>
      </trkpt>
      <trkpt lat="50.67998" lon="1.63337">
        <ele>14.1</ele>
        <time>2020-06-22T17:50:35Z</time>
      </trkpt>
      <trkpt lat="50.68003" lon="1.63336">
        <ele>14.1</ele>
        <time>2020-06-22T17:50:36Z</time>
      </trkpt>
      <trkpt lat="50.6801" lon="1.63335">
        <ele>14</ele>
        <time>2020-06-22T17:50:37Z</time>
      </trkpt>
      <trkpt lat="50.68017" lon="1.63336">
        <ele>14</ele>
        <time>2020-06-22T17:50:38Z</time>
      </trkpt>
      <trkpt lat="50.68023" lon="1.63336">
        <ele>13.9</ele>
        <time>2020-06-22T17:50:39Z</time>
      </trkpt>
      <trkpt lat="50.68029" lon="1.63336">
        <ele>13.9</ele>
        <time>2020-06-22T17:50:40Z</time>
      </trkpt>
      <trkpt lat="50.68036" lon="1.63336">
        <ele>13.8</ele>
        <time>2020-06-22T17:50:41Z</time>
      </trkpt>
      <trkpt lat="50.68042" lon="1.63336">
        <ele>13.8</ele>
        <time>2020-06-22T17:50:42Z</time>
      </trkpt>
      <trkpt lat="50.6805" lon="1.63335">
        <ele>13.6</ele>
        <time>2020-06-22T17:50:43Z</time>
      </trkpt>
      <trkpt lat="50.68057" lon="1.63334">
        <ele>13.4</ele>
        <time>2020-06-22T17:50:44Z</time>
      </trkpt>
      <trkpt lat="50.68063" lon="1.63334">
        <ele>13.3</ele>
        <time>2020-06-22T17:50:45Z</time>
      </trkpt>
      <trkpt lat="50.68068" lon="1.63335">
        <ele>13.2</ele>
        <time>2020-06-22T17:50:46Z</time>
      </trkpt>
      <trkpt lat="50.68075" lon="1.63335">
        <ele>13.1</ele>
        <time>2020-06-22T17:50:47Z</time>
      </trkpt>
      <trkpt lat="50.68082" lon="1.63335">
        <ele>12.9</ele>
        <time>2020-06-22T17:50:48Z</time>
      </trkpt>
      <trkpt lat="50.68089" lon="1.63335">
        <ele>12.7</ele>
        <time>2020-06-22T17:50:49Z</time>
      </trkpt>
      <trkpt lat="50.68096" lon="1.63335">
        <ele>12.5</ele>
        <time>2020-06-22T17:50:50Z</time>
      </trkpt>
      <trkpt lat="50.68103" lon="1.63335">
        <ele>12.3</ele>
        <time>2020-06-22T17:50:51Z</time>
      </trkpt>
      <trkpt lat="50.68111" lon="1.63334">
        <ele>12.1</ele>
        <time>2020-06-22T17:50:52Z</time>
      </trkpt>
      <trkpt lat="50.68118" lon="1.63334">
        <ele>11.9</ele>
        <time>2020-06-22T17:50:53Z</time>
      </trkpt>
      <trkpt lat="50.68125" lon="1.63334">
        <ele>11.6</ele>
        <time>2020-06-22T17:50:54Z</time>
      </trkpt>
      <trkpt lat="50.68132" lon="1.63334">
        <ele>11.3</ele>
        <time>2020-06-22T17:50:55Z</time>
      </trkpt>
      <trkpt lat="50.6814" lon="1.63333">
        <ele>11.1</ele>
        <time>2020-06-22T17:50:56Z</time>
      </trkpt>
      <trkpt lat="50.68148" lon="1.63333">
        <ele>10.8</ele>
        <time>2020-06-22T17:50:57Z</time>
      </trkpt>
      <trkpt lat="50.68156" lon="1.63332">
        <ele>10.5</ele>
        <time>2020-06-22T17:50:58Z</time>
      </trkpt>
      <trkpt lat="50.68165" lon="1.63331">
        <ele>10.3</ele>
        <time>2020-06-22T17:50:59Z</time>
      </trkpt>
      <trkpt lat="50.68173" lon="1.63331">
        <ele>10</ele>
        <time>2020-06-22T17:51:00Z</time>
      </trkpt>
      <trkpt lat="50.68181" lon="1.63329">
        <ele>9.8</ele>
        <time>2020-06-22T17:51:01Z</time>
      </trkpt>
      <trkpt lat="50.6819" lon="1.63329">
        <ele>9.6</ele>
        <time>2020-06-22T17:51:02Z</time>
      </trkpt>
      <trkpt lat="50.68198" lon="1.63327">
        <ele>9.4</ele>
        <time>2020-06-22T17:51:03Z</time>
      </trkpt>
      <trkpt lat="50.68206" lon="1.63325">
        <ele>9.2</ele>
        <time>2020-06-22T17:51:04Z</time>
      </trkpt>
      <trkpt lat="50.68214" lon="1.63324">
        <ele>9</ele>
        <time>2020-06-22T17:51:05Z</time>
      </trkpt>
      <trkpt lat="50.68222" lon="1.63321">
        <ele>8.9</ele>
        <time>2020-06-22T17:51:06Z</time>
      </trkpt>
      <trkpt lat="50.68229" lon="1.63317">
        <ele>8.8</ele>
        <time>2020-06-22T17:51:07Z</time>
      </trkpt>
      <trkpt lat="50.68237" lon="1.63314">
        <ele>8.7</ele>
        <time>2020-06-22T17:51:08Z</time>
      </trkpt>
      <trkpt lat="50.68244" lon="1.63311">
        <ele>8.7</ele>
        <time>2020-06-22T17:51:09Z</time>
      </trkpt>
      <trkpt lat="50.68252" lon="1.63308">
        <ele>8.6</ele>
        <time>2020-06-22T17:51:10Z</time>
      </trkpt>
      <trkpt lat="50.68259" lon="1.63304">
        <ele>8.6</ele>
        <time>2020-06-22T17:51:11Z</time>
      </trkpt>
      <trkpt lat="50.68265" lon="1.63301">
        <ele>8.5</ele>
        <time>2020-06-22T17:51:12Z</time>
      </trkpt>
      <trkpt lat="50.68272" lon="1.63296">
        <ele>8.5</ele>
        <time>2020-06-22T17:51:13Z</time>
      </trkpt>
      <trkpt lat="50.68278" lon="1.63292">
        <ele>8.5</ele>
        <time>2020-06-22T17:51:14Z</time>
      </trkpt>
      <trkpt lat="50.68285" lon="1.63288">
        <ele>8.5</ele>
        <time>2020-06-22T17:51:15Z</time>
      </trkpt>
      <trkpt lat="50.68291" lon="1.63284">
        <ele>8.6</ele>
        <time>2020-06-22T17:51:16Z</time>
      </trkpt>
      <trkpt lat="50.68296" lon="1.6328">
        <ele>8.6</ele>
        <time>2020-06-22T17:51:17Z</time>
      </trkpt>
      <trkpt lat="50.68302" lon="1.63276">
        <ele>8.6</ele>
        <time>2020-06-22T17:51:18Z</time>
      </trkpt>
      <trkpt lat="50.68308" lon="1.63275">
        <ele>8.6</ele>
        <time>2020-06-22T17:51:19Z</time>
      </trkpt>
      <trkpt lat="50.68315" lon="1.63278">
        <ele>8.6</ele>
        <time>2020-06-22T17:51:20Z</time>
      </trkpt>
      <trkpt lat="50.68321" lon="1.63282">
        <ele>8.8</ele>
        <time>2020-06-22T17:51:21Z</time>
      </trkpt>
      <trkpt lat="50.68328" lon="1.63285">
        <ele>8.9</ele>
        <time>2020-06-22T17:51:22Z</time>
      </trkpt>
      <trkpt lat="50.68335" lon="1.63283">
        <ele>8.8</ele>
        <time>2020-06-22T17:51:23Z</time>
      </trkpt>
      <trkpt lat="50.68341" lon="1.63278">
        <ele>8.8</ele>
        <time>2020-06-22T17:51:24Z</time>
      </trkpt>
      <trkpt lat="50.68346" lon="1.63271">
        <ele>8.7</ele>
        <time>2020-06-22T17:51:25Z</time>
      </trkpt>
      <trkpt lat="50.6835" lon="1.63263">
        <ele>8.7</ele>
        <time>2020-06-22T17:51:26Z</time>
      </trkpt>
      <trkpt lat="50.68354" lon="1.63254">
        <ele>8.7</ele>
        <time>2020-06-22T17:51:27Z</time>
      </trkpt>
      <trkpt lat="50.68358" lon="1.63244">
        <ele>8.6</ele>
        <time>2020-06-22T17:51:28Z</time>
      </trkpt>
      <trkpt lat="50.68362" lon="1.63234">
        <ele>8.5</ele>
        <time>2020-06-22T17:51:29Z</time>
      </trkpt>
      <trkpt lat="50.68367" lon="1.63226">
        <ele>8.5</ele>
        <time>2020-06-22T17:51:30Z</time>
      </trkpt>
      <trkpt lat="50.68372" lon="1.63218">
        <ele>8.4</ele>
        <time>2020-06-22T17:51:31Z</time>
      </trkpt>
      <trkpt lat="50.68377" lon="1.6321">
        <ele>8.4</ele>
        <time>2020-06-22T17:51:32Z</time>
      </trkpt>
      <trkpt lat="50.68381" lon="1.63202">
        <ele>8.4</ele>
        <time>2020-06-22T17:51:33Z</time>
      </trkpt>
      <trkpt lat="50.68386" lon="1.63193">
        <ele>8.3</ele>
        <time>2020-06-22T17:51:34Z</time>
      </trkpt>
      <trkpt lat="50.6839" lon="1.63185">
        <ele>8.4</ele>
        <time>2020-06-22T17:51:35Z</time>
      </trkpt>
      <trkpt lat="50.68394" lon="1.63176">
        <ele>8.4</ele>
        <time>2020-06-22T17:51:36Z</time>
      </trkpt>
      <trkpt lat="50.68398" lon="1.63167">
        <ele>8.4</ele>
        <time>2020-06-22T17:51:37Z</time>
      </trkpt>
      <trkpt lat="50.68401" lon="1.63158">
        <ele>8.4</ele>
        <time>2020-06-22T17:51:38Z</time>
      </trkpt>
      <trkpt lat="50.68404" lon="1.63149">
        <ele>8.4</ele>
        <time>2020-06-22T17:51:39Z</time>
      </trkpt>
      <trkpt lat="50.68407" lon="1.6314">
        <ele>8.4</ele>
        <time>2020-06-22T17:51:40Z</time>
      </trkpt>
      <trkpt lat="50.6841" lon="1.63131">
        <ele>8.4</ele>
        <time>2020-06-22T17:51:41Z</time>
      </trkpt>
      <trkpt lat="50.68413" lon="1.63122">
        <ele>8.4</ele>
        <time>2020-06-22T17:51:42Z</time>
      </trkpt>
      <trkpt lat="50.68416" lon="1.63114">
        <ele>8.4</ele>
        <time>2020-06-22T17:51:43Z</time>
      </trkpt>
      <trkpt lat="50.68419" lon="1.63105">
        <ele>8.4</ele>
        <time>2020-06-22T17:51:44Z</time>
      </trkpt>
      <trkpt lat="50.68423" lon="1.63096">
        <ele>8.4</ele>
        <time>2020-06-22T17:51:45Z</time>
      </trkpt>
      <trkpt lat="50.68426" lon="1.63087">
        <ele>8.3</ele>
        <time>2020-06-22T17:51:46Z</time>
      </trkpt>
      <trkpt lat="50.68429" lon="1.63079">
        <ele>8.3</ele>
        <time>2020-06-22T17:51:47Z</time>
      </trkpt>
      <trkpt lat="50.68433" lon="1.6307">
        <ele>8.2</ele>
        <time>2020-06-22T17:51:48Z</time>
      </trkpt>
      <trkpt lat="50.68437" lon="1.63061">
        <ele>8.2</ele>
        <time>2020-06-22T17:51:49Z</time>
      </trkpt>
      <trkpt lat="50.6844" lon="1.63051">
        <ele>8.2</ele>
        <time>2020-06-22T17:51:50Z</time>
      </trkpt>
      <trkpt lat="50.68443" lon="1.63041">
        <ele>8.1</ele>
        <time>2020-06-22T17:51:51Z</time>
      </trkpt>
      <trkpt lat="50.68447" lon="1.63031">
        <ele>8.1</ele>
        <time>2020-06-22T17:51:52Z</time>
      </trkpt>
      <trkpt lat="50.6845" lon="1.63021">
        <ele>8.1</ele>
        <time>2020-06-22T17:51:53Z</time>
      </trkpt>
      <trkpt lat="50.68453" lon="1.63011">
        <ele>8</ele>
        <time>2020-06-22T17:51:54Z</time>
      </trkpt>
      <trkpt lat="50.68457" lon="1.63001">
        <ele>7.9</ele>
        <time>2020-06-22T17:51:55Z</time>
      </trkpt>
      <trkpt lat="50.6846" lon="1.62991">
        <ele>7.8</ele>
        <time>2020-06-22T17:51:56Z</time>
      </trkpt>
      <trkpt lat="50.68464" lon="1.62981">
        <ele>7.8</ele>
        <time>2020-06-22T17:51:57Z</time>
      </trkpt>
      <trkpt lat="50.68468" lon="1.62971">
        <ele>7.8</ele>
        <time>2020-06-22T17:51:58Z</time>
      </trkpt>
      <trkpt lat="50.68472" lon="1.62962">
        <ele>7.8</ele>
        <time>2020-06-22T17:51:59Z</time>
      </trkpt>
      <trkpt lat="50.68476" lon="1.62953">
        <ele>7.8</ele>
        <time>2020-06-22T17:52:00Z</time>
      </trkpt>
      <trkpt lat="50.6848" lon="1.62944">
        <ele>7.8</ele>
        <time>2020-06-22T17:52:01Z</time>
      </trkpt>
      <trkpt lat="50.68482" lon="1.62933">
        <ele>7.7</ele>
        <time>2020-06-22T17:52:02Z</time>
      </trkpt>
      <trkpt lat="50.68486" lon="1.62922">
        <ele>7.7</ele>
        <time>2020-06-22T17:52:03Z</time>
      </trkpt>
      <trkpt lat="50.68488" lon="1.62911">
        <ele>7.7</ele>
        <time>2020-06-22T17:52:04Z</time>
      </trkpt>
      <trkpt lat="50.68491" lon="1.62901">
        <ele>7.7</ele>
        <time>2020-06-22T17:52:05Z</time>
      </trkpt>
      <trkpt lat="50.68495" lon="1.62891">
        <ele>7.7</ele>
        <time>2020-06-22T17:52:06Z</time>
      </trkpt>
      <trkpt lat="50.68498" lon="1.6288">
        <ele>7.7</ele>
        <time>2020-06-22T17:52:07Z</time>
      </trkpt>
      <trkpt lat="50.68502" lon="1.62871">
        <ele>7.8</ele>
        <time>2020-06-22T17:52:08Z</time>
      </trkpt>
      <trkpt lat="50.68506" lon="1.62862">
        <ele>7.9</ele>
        <time>2020-06-22T17:52:09Z</time>
      </trkpt>
      <trkpt lat="50.68509" lon="1.62853">
        <ele>7.9</ele>
        <time>2020-06-22T17:52:10Z</time>
      </trkpt>
      <trkpt lat="50.68512" lon="1.62842">
        <ele>8</ele>
        <time>2020-06-22T17:52:11Z</time>
      </trkpt>
      <trkpt lat="50.68515" lon="1.62832">
        <ele>8.1</ele>
        <time>2020-06-22T17:52:12Z</time>
      </trkpt>
      <trkpt lat="50.68518" lon="1.62823">
        <ele>8.1</ele>
        <time>2020-06-22T17:52:13Z</time>
      </trkpt>
      <trkpt lat="50.68519" lon="1.62812">
        <ele>8.2</ele>
        <time>2020-06-22T17:52:14Z</time>
      </trkpt>
      <trkpt lat="50.68523" lon="1.62803">
        <ele>8.3</ele>
        <time>2020-06-22T17:52:15Z</time>
      </trkpt>
      <trkpt lat="50.68526" lon="1.62794">
        <ele>8.5</ele>
        <time>2020-06-22T17:52:16Z</time>
      </trkpt>
      <trkpt lat="50.68529" lon="1.62786">
        <ele>8.5</ele>
        <time>2020-06-22T17:52:17Z</time>
      </trkpt>
      <trkpt lat="50.68533" lon="1.62778">
        <ele>8.6</ele>
        <time>2020-06-22T17:52:18Z</time>
      </trkpt>
      <trkpt lat="50.68537" lon="1.6277">
        <ele>8.7</ele>
        <time>2020-06-22T17:52:19Z</time>
      </trkpt>
      <trkpt lat="50.68541" lon="1.62763">
        <ele>8.8</ele>
        <time>2020-06-22T17:52:20Z</time>
      </trkpt>
      <trkpt lat="50.68545" lon="1.62756">
        <ele>8.9</ele>
        <time>2020-06-22T17:52:21Z</time>
      </trkpt>
      <trkpt lat="50.6855" lon="1.62749">
        <ele>9</ele>
        <time>2020-06-22T17:52:22Z</time>
      </trkpt>
      <trkpt lat="50.68554" lon="1.62744">
        <ele>9</ele>
        <time>2020-06-22T17:52:23Z</time>
      </trkpt>
      <trkpt lat="50.6856" lon="1.62738">
        <ele>9.1</ele>
        <time>2020-06-22T17:52:24Z</time>
      </trkpt>
      <trkpt lat="50.68565" lon="1.62732">
        <ele>9.2</ele>
        <time>2020-06-22T17:52:25Z</time>
      </trkpt>
      <trkpt lat="50.68571" lon="1.62728">
        <ele>9.2</ele>
        <time>2020-06-22T17:52:26Z</time>
      </trkpt>
      <trkpt lat="50.68577" lon="1.62723">
        <ele>9.2</ele>
        <time>2020-06-22T17:52:27Z</time>
      </trkpt>
      <trkpt lat="50.68582" lon="1.62719">
        <ele>9.2</ele>
        <time>2020-06-22T17:52:28Z</time>
      </trkpt>
      <trkpt lat="50.68588" lon="1.62715">
        <ele>9.2</ele>
        <time>2020-06-22T17:52:29Z</time>
      </trkpt>
      <trkpt lat="50.68594" lon="1.62712">
        <ele>9.2</ele>
        <time>2020-06-22T17:52:30Z</time>
      </trkpt>
      <trkpt lat="50.686" lon="1.62709">
        <ele>9.2</ele>
        <time>2020-06-22T17:52:31Z</time>
      </trkpt>
      <trkpt lat="50.68605" lon="1.62707">
        <ele>9.2</ele>
        <time>2020-06-22T17:52:32Z</time>
      </trkpt>
      <trkpt lat="50.68609" lon="1.62705">
        <ele>9.1</ele>
        <time>2020-06-22T17:52:33Z</time>
      </trkpt>
      <trkpt lat="50.68614" lon="1.62702">
        <ele>9.1</ele>
        <time>2020-06-22T17:52:34Z</time>
      </trkpt>
      <trkpt lat="50.68621" lon="1.62697">
        <ele>9.1</ele>
        <time>2020-06-22T17:52:35Z</time>
      </trkpt>
      <trkpt lat="50.68625" lon="1.62692">
        <ele>9</ele>
        <time>2020-06-22T17:52:36Z</time>
      </trkpt>
      <trkpt lat="50.6863" lon="1.62687">
        <ele>9</ele>
        <time>2020-06-22T17:52:37Z</time>
      </trkpt>
      <trkpt lat="50.68636" lon="1.62684">
        <ele>8.9</ele>
        <time>2020-06-22T17:52:38Z</time>
      </trkpt>
      <trkpt lat="50.68642" lon="1.62682">
        <ele>8.9</ele>
        <time>2020-06-22T17:52:39Z</time>
      </trkpt>
      <trkpt lat="50.68649" lon="1.6268">
        <ele>8.8</ele>
        <time>2020-06-22T17:52:40Z</time>
      </trkpt>
      <trkpt lat="50.68655" lon="1.62676">
        <ele>8.8</ele>
        <time>2020-06-22T17:52:41Z</time>
      </trkpt>
      <trkpt lat="50.68659" lon="1.62675">
        <ele>8.7</ele>
        <time>2020-06-22T17:52:42Z</time>
      </trkpt>
      <trkpt lat="50.68665" lon="1.62673">
        <ele>8.7</ele>
        <time>2020-06-22T17:52:43Z</time>
      </trkpt>
      <trkpt lat="50.68671" lon="1.6267">
        <ele>8.6</ele>
        <time>2020-06-22T17:52:44Z</time>
      </trkpt>
      <trkpt lat="50.68677" lon="1.62668">
        <ele>8.6</ele>
        <time>2020-06-22T17:52:45Z</time>
      </trkpt>
      <trkpt lat="50.68684" lon="1.62666">
        <ele>8.5</ele>
        <time>2020-06-22T17:52:46Z</time>
      </trkpt>
      <trkpt lat="50.68692" lon="1.62662">
        <ele>8.3</ele>
        <time>2020-06-22T17:52:47Z</time>
      </trkpt>
      <trkpt lat="50.68697" lon="1.62659">
        <ele>8.3</ele>
        <time>2020-06-22T17:52:48Z</time>
      </trkpt>
      <trkpt lat="50.68704" lon="1.62655">
        <ele>8.2</ele>
        <time>2020-06-22T17:52:49Z</time>
      </trkpt>
      <trkpt lat="50.68711" lon="1.62651">
        <ele>8.1</ele>
        <time>2020-06-22T17:52:50Z</time>
      </trkpt>
      <trkpt lat="50.68716" lon="1.62648">
        <ele>8.1</ele>
        <time>2020-06-22T17:52:51Z</time>
      </trkpt>
      <trkpt lat="50.68723" lon="1.62644">
        <ele>8</ele>
        <time>2020-06-22T17:52:52Z</time>
      </trkpt>
      <trkpt lat="50.68729" lon="1.6264">
        <ele>8</ele>
        <time>2020-06-22T17:52:53Z</time>
      </trkpt>
      <trkpt lat="50.68737" lon="1.62637">
        <ele>8</ele>
        <time>2020-06-22T17:52:54Z</time>
      </trkpt>
      <trkpt lat="50.68744" lon="1.62633">
        <ele>8</ele>
        <time>2020-06-22T17:52:55Z</time>
      </trkpt>
      <trkpt lat="50.6875" lon="1.62629">
        <ele>7.9</ele>
        <time>2020-06-22T17:52:56Z</time>
      </trkpt>
      <trkpt lat="50.68756" lon="1.62624">
        <ele>7.9</ele>
        <time>2020-06-22T17:52:57Z</time>
      </trkpt>
      <trkpt lat="50.68762" lon="1.62619">
        <ele>7.9</ele>
        <time>2020-06-22T17:52:58Z</time>
      </trkpt>
      <trkpt lat="50.68768" lon="1.62613">
        <ele>7.9</ele>
        <time>2020-06-22T17:52:59Z</time>
      </trkpt>
      <trkpt lat="50.68774" lon="1.62607">
        <ele>7.8</ele>
        <time>2020-06-22T17:53:00Z</time>
      </trkpt>
      <trkpt lat="50.68781" lon="1.62601">
        <ele>7.8</ele>
        <time>2020-06-22T17:53:01Z</time>
      </trkpt>
      <trkpt lat="50.68787" lon="1.62595">
        <ele>7.9</ele>
        <time>2020-06-22T17:53:02Z</time>
      </trkpt>
      <trkpt lat="50.68793" lon="1.62588">
        <ele>7.9</ele>
        <time>2020-06-22T17:53:03Z</time>
      </trkpt>
      <trkpt lat="50.688" lon="1.62582">
        <ele>8</ele>
        <time>2020-06-22T17:53:04Z</time>
      </trkpt>
      <trkpt lat="50.68807" lon="1.62577">
        <ele>8</ele>
        <time>2020-06-22T17:53:05Z</time>
      </trkpt>
      <trkpt lat="50.68813" lon="1.62571">
        <ele>8</ele>
        <time>2020-06-22T17:53:06Z</time>
      </trkpt>
      <trkpt lat="50.6882" lon="1.62566">
        <ele>8</ele>
        <time>2020-06-22T17:53:07Z</time>
      </trkpt>
      <trkpt lat="50.68827" lon="1.6256">
        <ele>8</ele>
        <time>2020-06-22T17:53:08Z</time>
      </trkpt>
      <trkpt lat="50.68833" lon="1.62553">
        <ele>7.9</ele>
        <time>2020-06-22T17:53:09Z</time>
      </trkpt>
      <trkpt lat="50.6884" lon="1.62547">
        <ele>7.9</ele>
        <time>2020-06-22T17:53:10Z</time>
      </trkpt>
      <trkpt lat="50.68847" lon="1.6254">
        <ele>7.9</ele>
        <time>2020-06-22T17:53:11Z</time>
      </trkpt>
      <trkpt lat="50.68854" lon="1.62534">
        <ele>7.9</ele>
        <time>2020-06-22T17:53:12Z</time>
      </trkpt>
      <trkpt lat="50.6886" lon="1.62527">
        <ele>7.9</ele>
        <time>2020-06-22T17:53:13Z</time>
      </trkpt>
      <trkpt lat="50.68867" lon="1.62522">
        <ele>7.8</ele>
        <time>2020-06-22T17:53:14Z</time>
      </trkpt>
      <trkpt lat="50.68874" lon="1.62516">
        <ele>7.8</ele>
        <time>2020-06-22T17:53:15Z</time>
      </trkpt>
      <trkpt lat="50.68881" lon="1.62511">
        <ele>7.8</ele>
        <time>2020-06-22T17:53:16Z</time>
      </trkpt>
      <trkpt lat="50.68887" lon="1.62505">
        <ele>7.7</ele>
        <time>2020-06-22T17:53:17Z</time>
      </trkpt>
      <trkpt lat="50.68894" lon="1.62499">
        <ele>7.7</ele>
        <time>2020-06-22T17:53:18Z</time>
      </trkpt>
      <trkpt lat="50.689" lon="1.62493">
        <ele>7.6</ele>
        <time>2020-06-22T17:53:19Z</time>
      </trkpt>
      <trkpt lat="50.68907" lon="1.62487">
        <ele>7.6</ele>
        <time>2020-06-22T17:53:20Z</time>
      </trkpt>
      <trkpt lat="50.68913" lon="1.62482">
        <ele>7.6</ele>
        <time>2020-06-22T17:53:21Z</time>
      </trkpt>
      <trkpt lat="50.68919" lon="1.62475">
        <ele>7.5</ele>
        <time>2020-06-22T17:53:22Z</time>
      </trkpt>
      <trkpt lat="50.68926" lon="1.62469">
        <ele>7.5</ele>
        <time>2020-06-22T17:53:23Z</time>
      </trkpt>
      <trkpt lat="50.68932" lon="1.62464">
        <ele>7.5</ele>
        <time>2020-06-22T17:53:24Z</time>
      </trkpt>
      <trkpt lat="50.68939" lon="1.62459">
        <ele>7.5</ele>
        <time>2020-06-22T17:53:25Z</time>
      </trkpt>
      <trkpt lat="50.68946" lon="1.62454">
        <ele>7.5</ele>
        <time>2020-06-22T17:53:26Z</time>
      </trkpt>
      <trkpt lat="50.68952" lon="1.62448">
        <ele>7.5</ele>
        <time>2020-06-22T17:53:27Z</time>
      </trkpt>
      <trkpt lat="50.68958" lon="1.62441">
        <ele>7.4</ele>
        <time>2020-06-22T17:53:28Z</time>
      </trkpt>
      <trkpt lat="50.68963" lon="1.62435">
        <ele>7.4</ele>
        <time>2020-06-22T17:53:29Z</time>
      </trkpt>
      <trkpt lat="50.6897" lon="1.62429">
        <ele>7.4</ele>
        <time>2020-06-22T17:53:30Z</time>
      </trkpt>
      <trkpt lat="50.68976" lon="1.62424">
        <ele>7.4</ele>
        <time>2020-06-22T17:53:31Z</time>
      </trkpt>
      <trkpt lat="50.68983" lon="1.62419">
        <ele>7.4</ele>
        <time>2020-06-22T17:53:32Z</time>
      </trkpt>
      <trkpt lat="50.68989" lon="1.62414">
        <ele>7.4</ele>
        <time>2020-06-22T17:53:33Z</time>
      </trkpt>
      <trkpt lat="50.68995" lon="1.62409">
        <ele>7.4</ele>
        <time>2020-06-22T17:53:34Z</time>
      </trkpt>
      <trkpt lat="50.69002" lon="1.62404">
        <ele>7.4</ele>
        <time>2020-06-22T17:53:35Z</time>
      </trkpt>
      <trkpt lat="50.69008" lon="1.62399">
        <ele>7.4</ele>
        <time>2020-06-22T17:53:36Z</time>
      </trkpt>
      <trkpt lat="50.69014" lon="1.62393">
        <ele>7.5</ele>
        <time>2020-06-22T17:53:37Z</time>
      </trkpt>
      <trkpt lat="50.6902" lon="1.62388">
        <ele>7.5</ele>
        <time>2020-06-22T17:53:38Z</time>
      </trkpt>
      <trkpt lat="50.69026" lon="1.62383">
        <ele>7.5</ele>
        <time>2020-06-22T17:53:39Z</time>
      </trkpt>
      <trkpt lat="50.69032" lon="1.62378">
        <ele>7.6</ele>
        <time>2020-06-22T17:53:40Z</time>
      </trkpt>
      <trkpt lat="50.69039" lon="1.62373">
        <ele>7.6</ele>
        <time>2020-06-22T17:53:41Z</time>
      </trkpt>
      <trkpt lat="50.69044" lon="1.62367">
        <ele>7.7</ele>
        <time>2020-06-22T17:53:42Z</time>
      </trkpt>
      <trkpt lat="50.69051" lon="1.62362">
        <ele>7.7</ele>
        <time>2020-06-22T17:53:43Z</time>
      </trkpt>
      <trkpt lat="50.69057" lon="1.62358">
        <ele>7.8</ele>
        <time>2020-06-22T17:53:44Z</time>
      </trkpt>
      <trkpt lat="50.69063" lon="1.62352">
        <ele>7.9</ele>
        <time>2020-06-22T17:53:45Z</time>
      </trkpt>
      <trkpt lat="50.69069" lon="1.62347">
        <ele>8</ele>
        <time>2020-06-22T17:53:46Z</time>
      </trkpt>
      <trkpt lat="50.69074" lon="1.62341">
        <ele>8</ele>
        <time>2020-06-22T17:53:47Z</time>
      </trkpt>
      <trkpt lat="50.69079" lon="1.62335">
        <ele>8</ele>
        <time>2020-06-22T17:53:48Z</time>
      </trkpt>
      <trkpt lat="50.69083" lon="1.62328">
        <ele>8</ele>
        <time>2020-06-22T17:53:49Z</time>
      </trkpt>
      <trkpt lat="50.69088" lon="1.6232">
        <ele>8</ele>
        <time>2020-06-22T17:53:50Z</time>
      </trkpt>
      <trkpt lat="50.69092" lon="1.62313">
        <ele>8</ele>
        <time>2020-06-22T17:53:51Z</time>
      </trkpt>
      <trkpt lat="50.69096" lon="1.62305">
        <ele>8</ele>
        <time>2020-06-22T17:53:52Z</time>
      </trkpt>
      <trkpt lat="50.691" lon="1.62297">
        <ele>8</ele>
        <time>2020-06-22T17:53:53Z</time>
      </trkpt>
      <trkpt lat="50.69102" lon="1.62288">
        <ele>7.9</ele>
        <time>2020-06-22T17:53:54Z</time>
      </trkpt>
      <trkpt lat="50.69106" lon="1.6228">
        <ele>7.9</ele>
        <time>2020-06-22T17:53:55Z</time>
      </trkpt>
      <trkpt lat="50.69109" lon="1.62271">
        <ele>7.8</ele>
        <time>2020-06-22T17:53:56Z</time>
      </trkpt>
      <trkpt lat="50.69112" lon="1.62262">
        <ele>7.8</ele>
        <time>2020-06-22T17:53:57Z</time>
      </trkpt>
      <trkpt lat="50.69115" lon="1.62253">
        <ele>7.8</ele>
        <time>2020-06-22T17:53:58Z</time>
      </trkpt>
      <trkpt lat="50.69118" lon="1.62244">
        <ele>7.7</ele>
        <time>2020-06-22T17:53:59Z</time>
      </trkpt>
      <trkpt lat="50.69122" lon="1.62235">
        <ele>7.7</ele>
        <time>2020-06-22T17:54:00Z</time>
      </trkpt>
      <trkpt lat="50.69125" lon="1.62225">
        <ele>7.7</ele>
        <time>2020-06-22T17:54:01Z</time>
      </trkpt>
      <trkpt lat="50.6913" lon="1.62216">
        <ele>7.7</ele>
        <time>2020-06-22T17:54:02Z</time>
      </trkpt>
      <trkpt lat="50.69133" lon="1.62207">
        <ele>7.7</ele>
        <time>2020-06-22T17:54:03Z</time>
      </trkpt>
      <trkpt lat="50.69137" lon="1.62199">
        <ele>7.7</ele>
        <time>2020-06-22T17:54:04Z</time>
      </trkpt>
      <trkpt lat="50.6914" lon="1.62191">
        <ele>7.6</ele>
        <time>2020-06-22T17:54:05Z</time>
      </trkpt>
      <trkpt lat="50.69144" lon="1.62183">
        <ele>7.6</ele>
        <time>2020-06-22T17:54:06Z</time>
      </trkpt>
      <trkpt lat="50.69147" lon="1.62176">
        <ele>7.6</ele>
        <time>2020-06-22T17:54:07Z</time>
      </trkpt>
      <trkpt lat="50.6915" lon="1.6217">
        <ele>7.6</ele>
        <time>2020-06-22T17:54:08Z</time>
      </trkpt>
      <trkpt lat="50.69153" lon="1.62163">
        <ele>7.5</ele>
        <time>2020-06-22T17:54:09Z</time>
      </trkpt>
      <trkpt lat="50.69156" lon="1.62156">
        <ele>7.5</ele>
        <time>2020-06-22T17:54:10Z</time>
      </trkpt>
      <trkpt lat="50.69159" lon="1.62149">
        <ele>7.5</ele>
        <time>2020-06-22T17:54:11Z</time>
      </trkpt>
      <trkpt lat="50.69161" lon="1.62142">
        <ele>7.5</ele>
        <time>2020-06-22T17:54:12Z</time>
      </trkpt>
      <trkpt lat="50.69164" lon="1.62136">
        <ele>7.5</ele>
        <time>2020-06-22T17:54:13Z</time>
      </trkpt>
      <trkpt lat="50.69167" lon="1.62129">
        <ele>7.5</ele>
        <time>2020-06-22T17:54:14Z</time>
      </trkpt>
      <trkpt lat="50.6917" lon="1.62123">
        <ele>7.5</ele>
        <time>2020-06-22T17:54:15Z</time>
      </trkpt>
      <trkpt lat="50.69172" lon="1.62117">
        <ele>7.4</ele>
        <time>2020-06-22T17:54:16Z</time>
      </trkpt>
      <trkpt lat="50.69175" lon="1.6211">
        <ele>7.4</ele>
        <time>2020-06-22T17:54:17Z</time>
      </trkpt>
      <trkpt lat="50.69178" lon="1.62102">
        <ele>7.4</ele>
        <time>2020-06-22T17:54:18Z</time>
      </trkpt>
      <trkpt lat="50.69181" lon="1.62094">
        <ele>7.4</ele>
        <time>2020-06-22T17:54:19Z</time>
      </trkpt>
      <trkpt lat="50.69184" lon="1.62087">
        <ele>7.4</ele>
        <time>2020-06-22T17:54:20Z</time>
      </trkpt>
      <trkpt lat="50.69187" lon="1.6208">
        <ele>7.4</ele>
        <time>2020-06-22T17:54:21Z</time>
      </trkpt>
      <trkpt lat="50.69189" lon="1.62074">
        <ele>7.4</ele>
        <time>2020-06-22T17:54:22Z</time>
      </trkpt>
      <trkpt lat="50.69192" lon="1.62067">
        <ele>7.4</ele>
        <time>2020-06-22T17:54:23Z</time>
      </trkpt>
      <trkpt lat="50.69194" lon="1.62058">
        <ele>7.4</ele>
        <time>2020-06-22T17:54:24Z</time>
      </trkpt>
      <trkpt lat="50.69197" lon="1.62053">
        <ele>7.4</ele>
        <time>2020-06-22T17:54:25Z</time>
      </trkpt>
      <trkpt lat="50.692" lon="1.62046">
        <ele>7.4</ele>
        <time>2020-06-22T17:54:26Z</time>
      </trkpt>
      <trkpt lat="50.69203" lon="1.6204">
        <ele>7.4</ele>
        <time>2020-06-22T17:54:27Z</time>
      </trkpt>
      <trkpt lat="50.69206" lon="1.62034">
        <ele>7.4</ele>
        <time>2020-06-22T17:54:28Z</time>
      </trkpt>
      <trkpt lat="50.69209" lon="1.62026">
        <ele>7.4</ele>
        <time>2020-06-22T17:54:29Z</time>
      </trkpt>
      <trkpt lat="50.69212" lon="1.62019">
        <ele>7.5</ele>
        <time>2020-06-22T17:54:30Z</time>
      </trkpt>
      <trkpt lat="50.69215" lon="1.62011">
        <ele>7.5</ele>
        <time>2020-06-22T17:54:31Z</time>
      </trkpt>
      <trkpt lat="50.69217" lon="1.62005">
        <ele>7.6</ele>
        <time>2020-06-22T17:54:32Z</time>
      </trkpt>
      <trkpt lat="50.6922" lon="1.61998">
        <ele>7.6</ele>
        <time>2020-06-22T17:54:33Z</time>
      </trkpt>
      <trkpt lat="50.69222" lon="1.61992">
        <ele>7.7</ele>
        <time>2020-06-22T17:54:34Z</time>
      </trkpt>
      <trkpt lat="50.69225" lon="1.61985">
        <ele>7.7</ele>
        <time>2020-06-22T17:54:35Z</time>
      </trkpt>
      <trkpt lat="50.69228" lon="1.61979">
        <ele>7.8</ele>
        <time>2020-06-22T17:54:36Z</time>
      </trkpt>
      <trkpt lat="50.69231" lon="1.61972">
        <ele>7.9</ele>
        <time>2020-06-22T17:54:37Z</time>
      </trkpt>
      <trkpt lat="50.69234" lon="1.61965">
        <ele>8</ele>
        <time>2020-06-22T17:54:38Z</time>
      </trkpt>
      <trkpt lat="50.69237" lon="1.61959">
        <ele>8.1</ele>
        <time>2020-06-22T17:54:39Z</time>
      </trkpt>
      <trkpt lat="50.69239" lon="1.6195">
        <ele>8.1</ele>
        <time>2020-06-22T17:54:40Z</time>
      </trkpt>
      <trkpt lat="50.69241" lon="1.61944">
        <ele>8.2</ele>
        <time>2020-06-22T17:54:41Z</time>
      </trkpt>
      <trkpt lat="50.69244" lon="1.61938">
        <ele>8.3</ele>
        <time>2020-06-22T17:54:42Z</time>
      </trkpt>
      <trkpt lat="50.69246" lon="1.61932">
        <ele>8.4</ele>
        <time>2020-06-22T17:54:43Z</time>
      </trkpt>
      <trkpt lat="50.69248" lon="1.61926">
        <ele>8.5</ele>
        <time>2020-06-22T17:54:44Z</time>
      </trkpt>
      <trkpt lat="50.6925" lon="1.61921">
        <ele>8.6</ele>
        <time>2020-06-22T17:54:45Z</time>
      </trkpt>
      <trkpt lat="50.69253" lon="1.61916">
        <ele>8.7</ele>
        <time>2020-06-22T17:54:46Z</time>
      </trkpt>
      <trkpt lat="50.69256" lon="1.6191">
        <ele>8.9</ele>
        <time>2020-06-22T17:54:47Z</time>
      </trkpt>
      <trkpt lat="50.69259" lon="1.61904">
        <ele>9.1</ele>
        <time>2020-06-22T17:54:48Z</time>
      </trkpt>
      <trkpt lat="50.69262" lon="1.61897">
        <ele>9.3</ele>
        <time>2020-06-22T17:54:49Z</time>
      </trkpt>
      <trkpt lat="50.69264" lon="1.61892">
        <ele>9.5</ele>
        <time>2020-06-22T17:54:50Z</time>
      </trkpt>
      <trkpt lat="50.69266" lon="1.61887">
        <ele>9.7</ele>
        <time>2020-06-22T17:54:51Z</time>
      </trkpt>
      <trkpt lat="50.69269" lon="1.61882">
        <ele>10</ele>
        <time>2020-06-22T17:54:52Z</time>
      </trkpt>
      <trkpt lat="50.69271" lon="1.61877">
        <ele>10.2</ele>
        <time>2020-06-22T17:54:53Z</time>
      </trkpt>
      <trkpt lat="50.69273" lon="1.61873">
        <ele>10.5</ele>
        <time>2020-06-22T17:54:54Z</time>
      </trkpt>
      <trkpt lat="50.69275" lon="1.61868">
        <ele>10.8</ele>
        <time>2020-06-22T17:54:55Z</time>
      </trkpt>
      <trkpt lat="50.69276" lon="1.61866">
        <ele>10.9</ele>
        <time>2020-06-22T17:54:56Z</time>
      </trkpt>
      <trkpt lat="50.69278" lon="1.61862">
        <ele>11.1</ele>
        <time>2020-06-22T17:54:57Z</time>
      </trkpt>
      <trkpt lat="50.69279" lon="1.61858">
        <ele>11.3</ele>
        <time>2020-06-22T17:54:58Z</time>
      </trkpt>
      <trkpt lat="50.69282" lon="1.61853">
        <ele>11.6</ele>
        <time>2020-06-22T17:54:59Z</time>
      </trkpt>
      <trkpt lat="50.69283" lon="1.6185">
        <ele>11.8</ele>
        <time>2020-06-22T17:55:00Z</time>
      </trkpt>
      <trkpt lat="50.69285" lon="1.61845">
        <ele>12.1</ele>
        <time>2020-06-22T17:55:01Z</time>
      </trkpt>
      <trkpt lat="50.69287" lon="1.61841">
        <ele>12.3</ele>
        <time>2020-06-22T17:55:02Z</time>
      </trkpt>
      <trkpt lat="50.6929" lon="1.61835">
        <ele>12.7</ele>
        <time>2020-06-22T17:55:03Z</time>
      </trkpt>
      <trkpt lat="50.69291" lon="1.6183">
        <ele>13</ele>
        <time>2020-06-22T17:55:04Z</time>
      </trkpt>
      <trkpt lat="50.69293" lon="1.61824">
        <ele>13.3</ele>
        <time>2020-06-22T17:55:05Z</time>
      </trkpt>
      <trkpt lat="50.69294" lon="1.61822">
        <ele>13.4</ele>
        <time>2020-06-22T17:55:06Z</time>
      </trkpt>
      <trkpt lat="50.69296" lon="1.61816">
        <ele>13.8</ele>
        <time>2020-06-22T17:55:07Z</time>
      </trkpt>
      <trkpt lat="50.69299" lon="1.6181">
        <ele>14.1</ele>
        <time>2020-06-22T17:55:08Z</time>
      </trkpt>
      <trkpt lat="50.69302" lon="1.61804">
        <ele>14.5</ele>
        <time>2020-06-22T17:55:09Z</time>
      </trkpt>
      <trkpt lat="50.69305" lon="1.61798">
        <ele>14.9</ele>
        <time>2020-06-22T17:55:10Z</time>
      </trkpt>
      <trkpt lat="50.69307" lon="1.61794">
        <ele>15.2</ele>
        <time>2020-06-22T17:55:11Z</time>
      </trkpt>
      <trkpt lat="50.69309" lon="1.61788">
        <ele>15.5</ele>
        <time>2020-06-22T17:55:12Z</time>
      </trkpt>
      <trkpt lat="50.69311" lon="1.61783">
        <ele>15.8</ele>
        <time>2020-06-22T17:55:13Z</time>
      </trkpt>
      <trkpt lat="50.69313" lon="1.61778">
        <ele>16.2</ele>
        <time>2020-06-22T17:55:14Z</time>
      </trkpt>
      <trkpt lat="50.69315" lon="1.61772">
        <ele>16.5</ele>
        <time>2020-06-22T17:55:15Z</time>
      </trkpt>
      <trkpt lat="50.69318" lon="1.61765">
        <ele>16.9</ele>
        <time>2020-06-22T17:55:16Z</time>
      </trkpt>
      <trkpt lat="50.6932" lon="1.6176">
        <ele>17.2</ele>
        <time>2020-06-22T17:55:17Z</time>
      </trkpt>
      <trkpt lat="50.69323" lon="1.61754">
        <ele>17.6</ele>
        <time>2020-06-22T17:55:18Z</time>
      </trkpt>
      <trkpt lat="50.69325" lon="1.6175">
        <ele>18</ele>
        <time>2020-06-22T17:55:19Z</time>
      </trkpt>
      <trkpt lat="50.69328" lon="1.61744">
        <ele>18.3</ele>
        <time>2020-06-22T17:55:20Z</time>
      </trkpt>
      <trkpt lat="50.6933" lon="1.61739">
        <ele>18.6</ele>
        <time>2020-06-22T17:55:21Z</time>
      </trkpt>
      <trkpt lat="50.69332" lon="1.61733">
        <ele>19</ele>
        <time>2020-06-22T17:55:22Z</time>
      </trkpt>
      <trkpt lat="50.69334" lon="1.61727">
        <ele>19.4</ele>
        <time>2020-06-22T17:55:23Z</time>
      </trkpt>
      <trkpt lat="50.69337" lon="1.61722">
        <ele>19.8</ele>
        <time>2020-06-22T17:55:24Z</time>
      </trkpt>
      <trkpt lat="50.69339" lon="1.61715">
        <ele>20.2</ele>
        <time>2020-06-22T17:55:25Z</time>
      </trkpt>
      <trkpt lat="50.69341" lon="1.61711">
        <ele>20.5</ele>
        <time>2020-06-22T17:55:26Z</time>
      </trkpt>
      <trkpt lat="50.69344" lon="1.61704">
        <ele>20.9</ele>
        <time>2020-06-22T17:55:27Z</time>
      </trkpt>
      <trkpt lat="50.69346" lon="1.61698">
        <ele>21.3</ele>
        <time>2020-06-22T17:55:28Z</time>
      </trkpt>
      <trkpt lat="50.69348" lon="1.61692">
        <ele>21.6</ele>
        <time>2020-06-22T17:55:29Z</time>
      </trkpt>
      <trkpt lat="50.69351" lon="1.61684">
        <ele>22.1</ele>
        <time>2020-06-22T17:55:30Z</time>
      </trkpt>
      <trkpt lat="50.69353" lon="1.61679">
        <ele>22.3</ele>
        <time>2020-06-22T17:55:31Z</time>
      </trkpt>
      <trkpt lat="50.69354" lon="1.61674">
        <ele>22.6</ele>
        <time>2020-06-22T17:55:32Z</time>
      </trkpt>
      <trkpt lat="50.69356" lon="1.61668">
        <ele>23</ele>
        <time>2020-06-22T17:55:33Z</time>
      </trkpt>
      <trkpt lat="50.69357" lon="1.61662">
        <ele>23.4</ele>
        <time>2020-06-22T17:55:34Z</time>
      </trkpt>
      <trkpt lat="50.69359" lon="1.61657">
        <ele>23.7</ele>
        <time>2020-06-22T17:55:35Z</time>
      </trkpt>
      <trkpt lat="50.69361" lon="1.61653">
        <ele>24.1</ele>
        <time>2020-06-22T17:55:36Z</time>
      </trkpt>
      <trkpt lat="50.69363" lon="1.61648">
        <ele>24.4</ele>
        <time>2020-06-22T17:55:37Z</time>
      </trkpt>
      <trkpt lat="50.69363" lon="1.61646">
        <ele>24.5</ele>
        <time>2020-06-22T17:55:38Z</time>
      </trkpt>
      <trkpt lat="50.69364" lon="1.61639">
        <ele>25</ele>
        <time>2020-06-22T17:55:39Z</time>
      </trkpt>
      <trkpt lat="50.69366" lon="1.61634">
        <ele>25.4</ele>
        <time>2020-06-22T17:55:40Z</time>
      </trkpt>
      <trkpt lat="50.69366" lon="1.61632">
        <ele>25.5</ele>
        <time>2020-06-22T17:55:41Z</time>
      </trkpt>
      <trkpt lat="50.69367" lon="1.61628">
        <ele>25.8</ele>
        <time>2020-06-22T17:55:42Z</time>
      </trkpt>
      <trkpt lat="50.69368" lon="1.61626">
        <ele>25.9</ele>
        <time>2020-06-22T17:55:43Z</time>
      </trkpt>
      <trkpt lat="50.69369" lon="1.61621">
        <ele>26.3</ele>
        <time>2020-06-22T17:55:44Z</time>
      </trkpt>
      <trkpt lat="50.69372" lon="1.61618">
        <ele>26.6</ele>
        <time>2020-06-22T17:55:45Z</time>
      </trkpt>
      <trkpt lat="50.69373" lon="1.61615">
        <ele>26.8</ele>
        <time>2020-06-22T17:55:46Z</time>
      </trkpt>
      <trkpt lat="50.69374" lon="1.61613">
        <ele>26.9</ele>
        <time>2020-06-22T17:55:47Z</time>
      </trkpt>
      <trkpt lat="50.69377" lon="1.61609">
        <ele>27.3</ele>
        <time>2020-06-22T17:55:48Z</time>
      </trkpt>
      <trkpt lat="50.69378" lon="1.61608">
        <ele>27.4</ele>
        <time>2020-06-22T17:55:49Z</time>
      </trkpt>
      <trkpt lat="50.69379" lon="1.61603">
        <ele>27.7</ele>
        <time>2020-06-22T17:55:50Z</time>
      </trkpt>
      <trkpt lat="50.69381" lon="1.61599">
        <ele>28</ele>
        <time>2020-06-22T17:55:51Z</time>
      </trkpt>
      <trkpt lat="50.69383" lon="1.61594">
        <ele>28.4</ele>
        <time>2020-06-22T17:55:52Z</time>
      </trkpt>
      <trkpt lat="50.69383" lon="1.61592">
        <ele>28.5</ele>
        <time>2020-06-22T17:55:53Z</time>
      </trkpt>
      <trkpt lat="50.69385" lon="1.61587">
        <ele>28.9</ele>
        <time>2020-06-22T17:55:54Z</time>
      </trkpt>
      <trkpt lat="50.69386" lon="1.61586">
        <ele>29</ele>
        <time>2020-06-22T17:55:55Z</time>
      </trkpt>
      <trkpt lat="50.69387" lon="1.61582">
        <ele>29.2</ele>
        <time>2020-06-22T17:55:56Z</time>
      </trkpt>
      <trkpt lat="50.69389" lon="1.61579">
        <ele>29.5</ele>
        <time>2020-06-22T17:55:57Z</time>
      </trkpt>
      <trkpt lat="50.6939" lon="1.61578">
        <ele>29.6</ele>
        <time>2020-06-22T17:55:58Z</time>
      </trkpt>
      <trkpt lat="50.69391" lon="1.61576">
        <ele>29.7</ele>
        <time>2020-06-22T17:55:59Z</time>
      </trkpt>
      <trkpt lat="50.69392" lon="1.61575">
        <ele>29.8</ele>
        <time>2020-06-22T17:56:00Z</time>
      </trkpt>
      <trkpt lat="50.69394" lon="1.61569">
        <ele>30.1</ele>
        <time>2020-06-22T17:56:01Z</time>
      </trkpt>
      <trkpt lat="50.69394" lon="1.61567">
        <ele>30.3</ele>
        <time>2020-06-22T17:56:02Z</time>
      </trkpt>
      <trkpt lat="50.69396" lon="1.61563">
        <ele>30.5</ele>
        <time>2020-06-22T17:56:03Z</time>
      </trkpt>
      <trkpt lat="50.69398" lon="1.61559">
        <ele>30.8</ele>
        <time>2020-06-22T17:56:04Z</time>
      </trkpt>
      <trkpt lat="50.69398" lon="1.61555">
        <ele>31</ele>
        <time>2020-06-22T17:56:05Z</time>
      </trkpt>
      <trkpt lat="50.69399" lon="1.61553">
        <ele>31.2</ele>
        <time>2020-06-22T17:56:06Z</time>
      </trkpt>
      <trkpt lat="50.69401" lon="1.61549">
        <ele>31.4</ele>
        <time>2020-06-22T17:56:07Z</time>
      </trkpt>
      <trkpt lat="50.69402" lon="1.61545">
        <ele>31.7</ele>
        <time>2020-06-22T17:56:08Z</time>
      </trkpt>
      <trkpt lat="50.69405" lon="1.61539">
        <ele>32</ele>
        <time>2020-06-22T17:56:09Z</time>
      </trkpt>
      <trkpt lat="50.69406" lon="1.61537">
        <ele>32.2</ele>
        <time>2020-06-22T17:56:10Z</time>
      </trkpt>
      <trkpt lat="50.69407" lon="1.61532">
        <ele>32.4</ele>
        <time>2020-06-22T17:56:11Z</time>
      </trkpt>
      <trkpt lat="50.69409" lon="1.61528">
        <ele>32.7</ele>
        <time>2020-06-22T17:56:12Z</time>
      </trkpt>
      <trkpt lat="50.69411" lon="1.61524">
        <ele>32.9</ele>
        <time>2020-06-22T17:56:13Z</time>
      </trkpt>
      <trkpt lat="50.69412" lon="1.61523">
        <ele>33</ele>
        <time>2020-06-22T17:56:14Z</time>
      </trkpt>
      <trkpt lat="50.69413" lon="1.61519">
        <ele>33.3</ele>
        <time>2020-06-22T17:56:15Z</time>
      </trkpt>
      <trkpt lat="50.69415" lon="1.61515">
        <ele>33.5</ele>
        <time>2020-06-22T17:56:16Z</time>
      </trkpt>
      <trkpt lat="50.69417" lon="1.61511">
        <ele>33.7</ele>
        <time>2020-06-22T17:56:17Z</time>
      </trkpt>
      <trkpt lat="50.69419" lon="1.61507">
        <ele>34</ele>
        <time>2020-06-22T17:56:18Z</time>
      </trkpt>
      <trkpt lat="50.6942" lon="1.61506">
        <ele>34.1</ele>
        <time>2020-06-22T17:56:19Z</time>
      </trkpt>
      <trkpt lat="50.69422" lon="1.61503">
        <ele>34.3</ele>
        <time>2020-06-22T17:56:20Z</time>
      </trkpt>
      <trkpt lat="50.69423" lon="1.61501">
        <ele>34.4</ele>
        <time>2020-06-22T17:56:21Z</time>
      </trkpt>
      <trkpt lat="50.69425" lon="1.61498">
        <ele>34.7</ele>
        <time>2020-06-22T17:56:22Z</time>
      </trkpt>
      <trkpt lat="50.69427" lon="1.61494">
        <ele>34.9</ele>
        <time>2020-06-22T17:56:23Z</time>
      </trkpt>
      <trkpt lat="50.69429" lon="1.61491">
        <ele>35.2</ele>
        <time>2020-06-22T17:56:24Z</time>
      </trkpt>
      <trkpt lat="50.69431" lon="1.61487">
        <ele>35.4</ele>
        <time>2020-06-22T17:56:25Z</time>
      </trkpt>
      <trkpt lat="50.69432" lon="1.61485">
        <ele>35.5</ele>
        <time>2020-06-22T17:56:26Z</time>
      </trkpt>
      <trkpt lat="50.69435" lon="1.61483">
        <ele>35.7</ele>
        <time>2020-06-22T17:56:27Z</time>
      </trkpt>
      <trkpt lat="50.69438" lon="1.6148">
        <ele>35.9</ele>
        <time>2020-06-22T17:56:28Z</time>
      </trkpt>
      <trkpt lat="50.69439" lon="1.61479">
        <ele>35.9</ele>
        <time>2020-06-22T17:56:29Z</time>
      </trkpt>
      <trkpt lat="50.69441" lon="1.61476">
        <ele>36.1</ele>
        <time>2020-06-22T17:56:30Z</time>
      </trkpt>
      <trkpt lat="50.69443" lon="1.61475">
        <ele>36.1</ele>
        <time>2020-06-22T17:56:31Z</time>
      </trkpt>
      <trkpt lat="50.69446" lon="1.61472">
        <ele>36.3</ele>
        <time>2020-06-22T17:56:32Z</time>
      </trkpt>
      <trkpt lat="50.6945" lon="1.61468">
        <ele>36.5</ele>
        <time>2020-06-22T17:56:33Z</time>
      </trkpt>
      <trkpt lat="50.69453" lon="1.61463">
        <ele>36.7</ele>
        <time>2020-06-22T17:56:34Z</time>
      </trkpt>
      <trkpt lat="50.69456" lon="1.6146">
        <ele>36.8</ele>
        <time>2020-06-22T17:56:35Z</time>
      </trkpt>
      <trkpt lat="50.69459" lon="1.61457">
        <ele>36.9</ele>
        <time>2020-06-22T17:56:36Z</time>
      </trkpt>
      <trkpt lat="50.69463" lon="1.61454">
        <ele>37</ele>
        <time>2020-06-22T17:56:37Z</time>
      </trkpt>
      <trkpt lat="50.69466" lon="1.61453">
        <ele>37.1</ele>
        <time>2020-06-22T17:56:38Z</time>
      </trkpt>
      <trkpt lat="50.6947" lon="1.61451">
        <ele>37.1</ele>
        <time>2020-06-22T17:56:39Z</time>
      </trkpt>
      <trkpt lat="50.69473" lon="1.61449">
        <ele>37.1</ele>
        <time>2020-06-22T17:56:40Z</time>
      </trkpt>
      <trkpt lat="50.69476" lon="1.61448">
        <ele>37.2</ele>
        <time>2020-06-22T17:56:41Z</time>
      </trkpt>
      <trkpt lat="50.6948" lon="1.61447">
        <ele>37.2</ele>
        <time>2020-06-22T17:56:42Z</time>
      </trkpt>
      <trkpt lat="50.69483" lon="1.61446">
        <ele>37.2</ele>
        <time>2020-06-22T17:56:43Z</time>
      </trkpt>
      <trkpt lat="50.69487" lon="1.61445">
        <ele>37.2</ele>
        <time>2020-06-22T17:56:44Z</time>
      </trkpt>
      <trkpt lat="50.69491" lon="1.61444">
        <ele>37.3</ele>
        <time>2020-06-22T17:56:45Z</time>
      </trkpt>
      <trkpt lat="50.69494" lon="1.61443">
        <ele>37.3</ele>
        <time>2020-06-22T17:56:46Z</time>
      </trkpt>
      <trkpt lat="50.69498" lon="1.61442">
        <ele>37.4</ele>
        <time>2020-06-22T17:56:47Z</time>
      </trkpt>
      <trkpt lat="50.69501" lon="1.61442">
        <ele>37.4</ele>
        <time>2020-06-22T17:56:48Z</time>
      </trkpt>
      <trkpt lat="50.69503" lon="1.61442">
        <ele>37.4</ele>
        <time>2020-06-22T17:56:49Z</time>
      </trkpt>
      <trkpt lat="50.69506" lon="1.61442">
        <ele>37.5</ele>
        <time>2020-06-22T17:56:50Z</time>
      </trkpt>
      <trkpt lat="50.6951" lon="1.61441">
        <ele>37.5</ele>
        <time>2020-06-22T17:56:51Z</time>
      </trkpt>
      <trkpt lat="50.69514" lon="1.6144">
        <ele>37.6</ele>
        <time>2020-06-22T17:56:52Z</time>
      </trkpt>
      <trkpt lat="50.69517" lon="1.61439">
        <ele>37.6</ele>
        <time>2020-06-22T17:56:53Z</time>
      </trkpt>
      <trkpt lat="50.6952" lon="1.61439">
        <ele>37.6</ele>
        <time>2020-06-22T17:56:54Z</time>
      </trkpt>
      <trkpt lat="50.69524" lon="1.61439">
        <ele>37.6</ele>
        <time>2020-06-22T17:56:55Z</time>
      </trkpt>
      <trkpt lat="50.69527" lon="1.61438">
        <ele>37.6</ele>
        <time>2020-06-22T17:56:56Z</time>
      </trkpt>
      <trkpt lat="50.69533" lon="1.61437">
        <ele>37.6</ele>
        <time>2020-06-22T17:56:57Z</time>
      </trkpt>
      <trkpt lat="50.69537" lon="1.61436">
        <ele>37.6</ele>
        <time>2020-06-22T17:56:58Z</time>
      </trkpt>
      <trkpt lat="50.69542" lon="1.61433">
        <ele>37.5</ele>
        <time>2020-06-22T17:56:59Z</time>
      </trkpt>
      <trkpt lat="50.69545" lon="1.61435">
        <ele>37.5</ele>
        <time>2020-06-22T17:57:00Z</time>
      </trkpt>
      <trkpt lat="50.69548" lon="1.61433">
        <ele>37.3</ele>
        <time>2020-06-22T17:57:01Z</time>
      </trkpt>
      <trkpt lat="50.69552" lon="1.61433">
        <ele>37.3</ele>
        <time>2020-06-22T17:57:02Z</time>
      </trkpt>
      <trkpt lat="50.69556" lon="1.61433">
        <ele>37.2</ele>
        <time>2020-06-22T17:57:03Z</time>
      </trkpt>
      <trkpt lat="50.6956" lon="1.61432">
        <ele>37.1</ele>
        <time>2020-06-22T17:57:04Z</time>
      </trkpt>
      <trkpt lat="50.69561" lon="1.61431">
        <ele>37.1</ele>
        <time>2020-06-22T17:57:05Z</time>
      </trkpt>
      <trkpt lat="50.69566" lon="1.6143">
        <ele>37</ele>
        <time>2020-06-22T17:57:06Z</time>
      </trkpt>
      <trkpt lat="50.69571" lon="1.61427">
        <ele>36.8</ele>
        <time>2020-06-22T17:57:07Z</time>
      </trkpt>
      <trkpt lat="50.69576" lon="1.61424">
        <ele>36.7</ele>
        <time>2020-06-22T17:57:08Z</time>
      </trkpt>
      <trkpt lat="50.69582" lon="1.61422">
        <ele>36.7</ele>
        <time>2020-06-22T17:57:09Z</time>
      </trkpt>
      <trkpt lat="50.69588" lon="1.61423">
        <ele>36.7</ele>
        <time>2020-06-22T17:57:10Z</time>
      </trkpt>
      <trkpt lat="50.69592" lon="1.61425">
        <ele>36.7</ele>
        <time>2020-06-22T17:57:11Z</time>
      </trkpt>
      <trkpt lat="50.69598" lon="1.61427">
        <ele>36.8</ele>
        <time>2020-06-22T17:57:12Z</time>
      </trkpt>
      <trkpt lat="50.69603" lon="1.61428">
        <ele>36.8</ele>
        <time>2020-06-22T17:57:13Z</time>
      </trkpt>
      <trkpt lat="50.69607" lon="1.61427">
        <ele>36.9</ele>
        <time>2020-06-22T17:57:14Z</time>
      </trkpt>
      <trkpt lat="50.69611" lon="1.61425">
        <ele>36.9</ele>
        <time>2020-06-22T17:57:15Z</time>
      </trkpt>
      <trkpt lat="50.69616" lon="1.61424">
        <ele>37</ele>
        <time>2020-06-22T17:57:16Z</time>
      </trkpt>
      <trkpt lat="50.69621" lon="1.61424">
        <ele>37</ele>
        <time>2020-06-22T17:57:17Z</time>
      </trkpt>
      <trkpt lat="50.69624" lon="1.61424">
        <ele>37</ele>
        <time>2020-06-22T17:57:18Z</time>
      </trkpt>
      <trkpt lat="50.69629" lon="1.61423">
        <ele>37</ele>
        <time>2020-06-22T17:57:19Z</time>
      </trkpt>
      <trkpt lat="50.69633" lon="1.61422">
        <ele>37.1</ele>
        <time>2020-06-22T17:57:20Z</time>
      </trkpt>
      <trkpt lat="50.69636" lon="1.61422">
        <ele>37.1</ele>
        <time>2020-06-22T17:57:21Z</time>
      </trkpt>
      <trkpt lat="50.69639" lon="1.61419">
        <ele>37.1</ele>
        <time>2020-06-22T17:57:22Z</time>
      </trkpt>
      <trkpt lat="50.69641" lon="1.61418">
        <ele>37.1</ele>
        <time>2020-06-22T17:57:23Z</time>
      </trkpt>
      <trkpt lat="50.69644" lon="1.61417">
        <ele>37.2</ele>
        <time>2020-06-22T17:57:24Z</time>
      </trkpt>
      <trkpt lat="50.69648" lon="1.61415">
        <ele>37.2</ele>
        <time>2020-06-22T17:57:25Z</time>
      </trkpt>
      <trkpt lat="50.69652" lon="1.61413">
        <ele>37.2</ele>
        <time>2020-06-22T17:57:26Z</time>
      </trkpt>
      <trkpt lat="50.69656" lon="1.61411">
        <ele>37.2</ele>
        <time>2020-06-22T17:57:27Z</time>
      </trkpt>
      <trkpt lat="50.69659" lon="1.61408">
        <ele>37.2</ele>
        <time>2020-06-22T17:57:28Z</time>
      </trkpt>
      <trkpt lat="50.69664" lon="1.61406">
        <ele>37.2</ele>
        <time>2020-06-22T17:57:29Z</time>
      </trkpt>
      <trkpt lat="50.69669" lon="1.61403">
        <ele>37.1</ele>
        <time>2020-06-22T17:57:30Z</time>
      </trkpt>
      <trkpt lat="50.69675" lon="1.61401">
        <ele>37</ele>
        <time>2020-06-22T17:57:31Z</time>
      </trkpt>
      <trkpt lat="50.6968" lon="1.61399">
        <ele>36.9</ele>
        <time>2020-06-22T17:57:32Z</time>
      </trkpt>
      <trkpt lat="50.69684" lon="1.61397">
        <ele>36.9</ele>
        <time>2020-06-22T17:57:33Z</time>
      </trkpt>
      <trkpt lat="50.69689" lon="1.61395">
        <ele>36.6</ele>
        <time>2020-06-22T17:57:34Z</time>
      </trkpt>
      <trkpt lat="50.69694" lon="1.61393">
        <ele>36.5</ele>
        <time>2020-06-22T17:57:35Z</time>
      </trkpt>
      <trkpt lat="50.69697" lon="1.6139">
        <ele>36.3</ele>
        <time>2020-06-22T17:57:36Z</time>
      </trkpt>
      <trkpt lat="50.69702" lon="1.61388">
        <ele>36.1</ele>
        <time>2020-06-22T17:57:37Z</time>
      </trkpt>
      <trkpt lat="50.69707" lon="1.61385">
        <ele>35.9</ele>
        <time>2020-06-22T17:57:38Z</time>
      </trkpt>
      <trkpt lat="50.69713" lon="1.61382">
        <ele>35.5</ele>
        <time>2020-06-22T17:57:39Z</time>
      </trkpt>
      <trkpt lat="50.69719" lon="1.61379">
        <ele>35.1</ele>
        <time>2020-06-22T17:57:40Z</time>
      </trkpt>
      <trkpt lat="50.69725" lon="1.61375">
        <ele>34.7</ele>
        <time>2020-06-22T17:57:41Z</time>
      </trkpt>
      <trkpt lat="50.69731" lon="1.61371">
        <ele>34.3</ele>
        <time>2020-06-22T17:57:42Z</time>
      </trkpt>
      <trkpt lat="50.69737" lon="1.61367">
        <ele>33.7</ele>
        <time>2020-06-22T17:57:43Z</time>
      </trkpt>
      <trkpt lat="50.69745" lon="1.61362">
        <ele>33.1</ele>
        <time>2020-06-22T17:57:44Z</time>
      </trkpt>
      <trkpt lat="50.69753" lon="1.61358">
        <ele>32.4</ele>
        <time>2020-06-22T17:57:45Z</time>
      </trkpt>
      <trkpt lat="50.69762" lon="1.61355">
        <ele>31.5</ele>
        <time>2020-06-22T17:57:46Z</time>
      </trkpt>
      <trkpt lat="50.69771" lon="1.61351">
        <ele>30.8</ele>
        <time>2020-06-22T17:57:47Z</time>
      </trkpt>
      <trkpt lat="50.6978" lon="1.61347">
        <ele>30</ele>
        <time>2020-06-22T17:57:48Z</time>
      </trkpt>
      <trkpt lat="50.69788" lon="1.61344">
        <ele>29.3</ele>
        <time>2020-06-22T17:57:49Z</time>
      </trkpt>
      <trkpt lat="50.69797" lon="1.61341">
        <ele>28.5</ele>
        <time>2020-06-22T17:57:50Z</time>
      </trkpt>
      <trkpt lat="50.69805" lon="1.6134">
        <ele>27.9</ele>
        <time>2020-06-22T17:57:51Z</time>
      </trkpt>
      <trkpt lat="50.69813" lon="1.61338">
        <ele>27.2</ele>
        <time>2020-06-22T17:57:52Z</time>
      </trkpt>
      <trkpt lat="50.69822" lon="1.61337">
        <ele>26.5</ele>
        <time>2020-06-22T17:57:53Z</time>
      </trkpt>
      <trkpt lat="50.69831" lon="1.61335">
        <ele>25.7</ele>
        <time>2020-06-22T17:57:54Z</time>
      </trkpt>
      <trkpt lat="50.6984" lon="1.61332">
        <ele>24.8</ele>
        <time>2020-06-22T17:57:55Z</time>
      </trkpt>
      <trkpt lat="50.69849" lon="1.6133">
        <ele>24</ele>
        <time>2020-06-22T17:57:56Z</time>
      </trkpt>
      <trkpt lat="50.69859" lon="1.61327">
        <ele>23.1</ele>
        <time>2020-06-22T17:57:57Z</time>
      </trkpt>
      <trkpt lat="50.69869" lon="1.61325">
        <ele>22.3</ele>
        <time>2020-06-22T17:57:58Z</time>
      </trkpt>
      <trkpt lat="50.69879" lon="1.61323">
        <ele>22</ele>
        <time>2020-06-22T17:57:59Z</time>
      </trkpt>
      <trkpt lat="50.69888" lon="1.61321">
        <ele>22</ele>
        <time>2020-06-22T17:58:00Z</time>
      </trkpt>
      <trkpt lat="50.69905" lon="1.61317">
        <ele>22.1</ele>
        <time>2020-06-22T17:58:01Z</time>
      </trkpt>
      <trkpt lat="50.69911" lon="1.61315">
        <ele>22.3</ele>
        <time>2020-06-22T17:58:02Z</time>
      </trkpt>
      <trkpt lat="50.69917" lon="1.61313">
        <ele>22.4</ele>
        <time>2020-06-22T17:58:03Z</time>
      </trkpt>
      <trkpt lat="50.69926" lon="1.61312">
        <ele>22.6</ele>
        <time>2020-06-22T17:58:04Z</time>
      </trkpt>
      <trkpt lat="50.69934" lon="1.61311">
        <ele>22.7</ele>
        <time>2020-06-22T17:58:05Z</time>
      </trkpt>
      <trkpt lat="50.69941" lon="1.6131">
        <ele>22.9</ele>
        <time>2020-06-22T17:58:06Z</time>
      </trkpt>
      <trkpt lat="50.69949" lon="1.61313">
        <ele>23</ele>
        <time>2020-06-22T17:58:07Z</time>
      </trkpt>
      <trkpt lat="50.69955" lon="1.61313">
        <ele>23.2</ele>
        <time>2020-06-22T17:58:08Z</time>
      </trkpt>
      <trkpt lat="50.69961" lon="1.61313">
        <ele>23.2</ele>
        <time>2020-06-22T17:58:09Z</time>
      </trkpt>
      <trkpt lat="50.69967" lon="1.61314">
        <ele>23.3</ele>
        <time>2020-06-22T17:58:10Z</time>
      </trkpt>
      <trkpt lat="50.69973" lon="1.61315">
        <ele>23.4</ele>
        <time>2020-06-22T17:58:11Z</time>
      </trkpt>
      <trkpt lat="50.69978" lon="1.61317">
        <ele>23.5</ele>
        <time>2020-06-22T17:58:12Z</time>
      </trkpt>
      <trkpt lat="50.69984" lon="1.61319">
        <ele>23.5</ele>
        <time>2020-06-22T17:58:13Z</time>
      </trkpt>
      <trkpt lat="50.69989" lon="1.6132">
        <ele>23.6</ele>
        <time>2020-06-22T17:58:14Z</time>
      </trkpt>
      <trkpt lat="50.69994" lon="1.61323">
        <ele>23.7</ele>
        <time>2020-06-22T17:58:15Z</time>
      </trkpt>
      <trkpt lat="50.7" lon="1.61324">
        <ele>23.8</ele>
        <time>2020-06-22T17:58:16Z</time>
      </trkpt>
      <trkpt lat="50.70005" lon="1.61324">
        <ele>23.9</ele>
        <time>2020-06-22T17:58:17Z</time>
      </trkpt>
      <trkpt lat="50.7001" lon="1.61325">
        <ele>23.9</ele>
        <time>2020-06-22T17:58:18Z</time>
      </trkpt>
      <trkpt lat="50.70014" lon="1.61326">
        <ele>23.9</ele>
        <time>2020-06-22T17:58:19Z</time>
      </trkpt>
      <trkpt lat="50.70018" lon="1.61327">
        <ele>23.9</ele>
        <time>2020-06-22T17:58:20Z</time>
      </trkpt>
      <trkpt lat="50.70023" lon="1.61328">
        <ele>23.9</ele>
        <time>2020-06-22T17:58:21Z</time>
      </trkpt>
      <trkpt lat="50.70027" lon="1.61329">
        <ele>23.8</ele>
        <time>2020-06-22T17:58:22Z</time>
      </trkpt>
      <trkpt lat="50.70032" lon="1.61329">
        <ele>23.7</ele>
        <time>2020-06-22T17:58:23Z</time>
      </trkpt>
      <trkpt lat="50.70038" lon="1.61328">
        <ele>23.6</ele>
        <time>2020-06-22T17:58:24Z</time>
      </trkpt>
      <trkpt lat="50.70044" lon="1.61326">
        <ele>23.5</ele>
        <time>2020-06-22T17:58:25Z</time>
      </trkpt>
      <trkpt lat="50.7005" lon="1.61325">
        <ele>23.4</ele>
        <time>2020-06-22T17:58:26Z</time>
      </trkpt>
      <trkpt lat="50.70056" lon="1.61324">
        <ele>23.2</ele>
        <time>2020-06-22T17:58:27Z</time>
      </trkpt>
      <trkpt lat="50.70063" lon="1.61324">
        <ele>23.1</ele>
        <time>2020-06-22T17:58:28Z</time>
      </trkpt>
      <trkpt lat="50.7007" lon="1.61322">
        <ele>22.8</ele>
        <time>2020-06-22T17:58:29Z</time>
      </trkpt>
      <trkpt lat="50.70078" lon="1.61321">
        <ele>22.6</ele>
        <time>2020-06-22T17:58:30Z</time>
      </trkpt>
      <trkpt lat="50.70085" lon="1.6132">
        <ele>22.4</ele>
        <time>2020-06-22T17:58:31Z</time>
      </trkpt>
      <trkpt lat="50.70092" lon="1.6132">
        <ele>22.2</ele>
        <time>2020-06-22T17:58:32Z</time>
      </trkpt>
      <trkpt lat="50.70099" lon="1.6132">
        <ele>22.1</ele>
        <time>2020-06-22T17:58:33Z</time>
      </trkpt>
      <trkpt lat="50.70106" lon="1.6132">
        <ele>21.9</ele>
        <time>2020-06-22T17:58:34Z</time>
      </trkpt>
      <trkpt lat="50.70113" lon="1.61318">
        <ele>21.8</ele>
        <time>2020-06-22T17:58:35Z</time>
      </trkpt>
      <trkpt lat="50.7012" lon="1.61316">
        <ele>21.7</ele>
        <time>2020-06-22T17:58:36Z</time>
      </trkpt>
      <trkpt lat="50.70126" lon="1.61315">
        <ele>21.5</ele>
        <time>2020-06-22T17:58:37Z</time>
      </trkpt>
      <trkpt lat="50.70133" lon="1.61312">
        <ele>21.4</ele>
        <time>2020-06-22T17:58:38Z</time>
      </trkpt>
      <trkpt lat="50.70139" lon="1.61311">
        <ele>21.3</ele>
        <time>2020-06-22T17:58:39Z</time>
      </trkpt>
      <trkpt lat="50.70146" lon="1.61308">
        <ele>21.1</ele>
        <time>2020-06-22T17:58:40Z</time>
      </trkpt>
      <trkpt lat="50.70151" lon="1.61306">
        <ele>21</ele>
        <time>2020-06-22T17:58:41Z</time>
      </trkpt>
      <trkpt lat="50.70156" lon="1.61301">
        <ele>20.9</ele>
        <time>2020-06-22T17:58:42Z</time>
      </trkpt>
      <trkpt lat="50.70162" lon="1.613">
        <ele>20.8</ele>
        <time>2020-06-22T17:58:43Z</time>
      </trkpt>
      <trkpt lat="50.70167" lon="1.61299">
        <ele>20.7</ele>
        <time>2020-06-22T17:58:44Z</time>
      </trkpt>
      <trkpt lat="50.70173" lon="1.61299">
        <ele>20.6</ele>
        <time>2020-06-22T17:58:45Z</time>
      </trkpt>
      <trkpt lat="50.7018" lon="1.61299">
        <ele>20.5</ele>
        <time>2020-06-22T17:58:46Z</time>
      </trkpt>
      <trkpt lat="50.70187" lon="1.61302">
        <ele>20.4</ele>
        <time>2020-06-22T17:58:47Z</time>
      </trkpt>
      <trkpt lat="50.70194" lon="1.61304">
        <ele>20.3</ele>
        <time>2020-06-22T17:58:48Z</time>
      </trkpt>
      <trkpt lat="50.70201" lon="1.61306">
        <ele>20.1</ele>
        <time>2020-06-22T17:58:49Z</time>
      </trkpt>
      <trkpt lat="50.70207" lon="1.61307">
        <ele>20</ele>
        <time>2020-06-22T17:58:50Z</time>
      </trkpt>
      <trkpt lat="50.70212" lon="1.61308">
        <ele>19.9</ele>
        <time>2020-06-22T17:58:51Z</time>
      </trkpt>
      <trkpt lat="50.70218" lon="1.61309">
        <ele>19.7</ele>
        <time>2020-06-22T17:58:52Z</time>
      </trkpt>
      <trkpt lat="50.70225" lon="1.61312">
        <ele>19.5</ele>
        <time>2020-06-22T17:58:53Z</time>
      </trkpt>
      <trkpt lat="50.7023" lon="1.61314">
        <ele>19.4</ele>
        <time>2020-06-22T17:58:54Z</time>
      </trkpt>
      <trkpt lat="50.70236" lon="1.61316">
        <ele>19.2</ele>
        <time>2020-06-22T17:58:55Z</time>
      </trkpt>
      <trkpt lat="50.70241" lon="1.61318">
        <ele>19.1</ele>
        <time>2020-06-22T17:58:56Z</time>
      </trkpt>
      <trkpt lat="50.70246" lon="1.6132">
        <ele>18.9</ele>
        <time>2020-06-22T17:58:57Z</time>
      </trkpt>
      <trkpt lat="50.70251" lon="1.61322">
        <ele>18.7</ele>
        <time>2020-06-22T17:58:58Z</time>
      </trkpt>
      <trkpt lat="50.70257" lon="1.61325">
        <ele>18.5</ele>
        <time>2020-06-22T17:58:59Z</time>
      </trkpt>
      <trkpt lat="50.70262" lon="1.61327">
        <ele>18.3</ele>
        <time>2020-06-22T17:59:00Z</time>
      </trkpt>
      <trkpt lat="50.70268" lon="1.6133">
        <ele>18.1</ele>
        <time>2020-06-22T17:59:01Z</time>
      </trkpt>
      <trkpt lat="50.70273" lon="1.61332">
        <ele>17.9</ele>
        <time>2020-06-22T17:59:02Z</time>
      </trkpt>
      <trkpt lat="50.70279" lon="1.61334">
        <ele>17.7</ele>
        <time>2020-06-22T17:59:03Z</time>
      </trkpt>
      <trkpt lat="50.70285" lon="1.61334">
        <ele>17.5</ele>
        <time>2020-06-22T17:59:04Z</time>
      </trkpt>
      <trkpt lat="50.70291" lon="1.61337">
        <ele>17.2</ele>
        <time>2020-06-22T17:59:05Z</time>
      </trkpt>
      <trkpt lat="50.70297" lon="1.61339">
        <ele>17</ele>
        <time>2020-06-22T17:59:06Z</time>
      </trkpt>
      <trkpt lat="50.70303" lon="1.61342">
        <ele>16.7</ele>
        <time>2020-06-22T17:59:07Z</time>
      </trkpt>
      <trkpt lat="50.70308" lon="1.61343">
        <ele>16.5</ele>
        <time>2020-06-22T17:59:08Z</time>
      </trkpt>
      <trkpt lat="50.70314" lon="1.61344">
        <ele>16.2</ele>
        <time>2020-06-22T17:59:09Z</time>
      </trkpt>
      <trkpt lat="50.7032" lon="1.61346">
        <ele>16</ele>
        <time>2020-06-22T17:59:10Z</time>
      </trkpt>
      <trkpt lat="50.70325" lon="1.61348">
        <ele>15.7</ele>
        <time>2020-06-22T17:59:11Z</time>
      </trkpt>
      <trkpt lat="50.7033" lon="1.61349">
        <ele>15.5</ele>
        <time>2020-06-22T17:59:12Z</time>
      </trkpt>
      <trkpt lat="50.70335" lon="1.6135">
        <ele>15.2</ele>
        <time>2020-06-22T17:59:13Z</time>
      </trkpt>
      <trkpt lat="50.70339" lon="1.61349">
        <ele>15</ele>
        <time>2020-06-22T17:59:14Z</time>
      </trkpt>
      <trkpt lat="50.70341" lon="1.61347">
        <ele>14.8</ele>
        <time>2020-06-22T17:59:15Z</time>
      </trkpt>
      <trkpt lat="50.70344" lon="1.61346">
        <ele>14.2</ele>
        <time>2020-06-22T17:59:16Z</time>
      </trkpt>
      <trkpt lat="50.70348" lon="1.61348">
        <ele>14.2</ele>
        <time>2020-06-22T17:59:17Z</time>
      </trkpt>
      <trkpt lat="50.70349" lon="1.61349">
        <ele>14.2</ele>
        <time>2020-06-22T17:59:18Z</time>
      </trkpt>
      <trkpt lat="50.70352" lon="1.61351">
        <ele>14.3</ele>
        <time>2020-06-22T17:59:19Z</time>
      </trkpt>
      <trkpt lat="50.70355" lon="1.61354">
        <ele>14.2</ele>
        <time>2020-06-22T17:59:20Z</time>
      </trkpt>
      <trkpt lat="50.70358" lon="1.61357">
        <ele>14.1</ele>
        <time>2020-06-22T17:59:21Z</time>
      </trkpt>
      <trkpt lat="50.70361" lon="1.61361">
        <ele>13.9</ele>
        <time>2020-06-22T17:59:22Z</time>
      </trkpt>
      <trkpt lat="50.70364" lon="1.61364">
        <ele>13.8</ele>
        <time>2020-06-22T17:59:23Z</time>
      </trkpt>
      <trkpt lat="50.70368" lon="1.61368">
        <ele>13.6</ele>
        <time>2020-06-22T17:59:24Z</time>
      </trkpt>
      <trkpt lat="50.70373" lon="1.61372">
        <ele>13.3</ele>
        <time>2020-06-22T17:59:25Z</time>
      </trkpt>
      <trkpt lat="50.70378" lon="1.61375">
        <ele>13</ele>
        <time>2020-06-22T17:59:26Z</time>
      </trkpt>
      <trkpt lat="50.70385" lon="1.61377">
        <ele>12.6</ele>
        <time>2020-06-22T17:59:27Z</time>
      </trkpt>
      <trkpt lat="50.70391" lon="1.6138">
        <ele>12.2</ele>
        <time>2020-06-22T17:59:28Z</time>
      </trkpt>
      <trkpt lat="50.70398" lon="1.61383">
        <ele>11.7</ele>
        <time>2020-06-22T17:59:29Z</time>
      </trkpt>
      <trkpt lat="50.70406" lon="1.61383">
        <ele>11.2</ele>
        <time>2020-06-22T17:59:30Z</time>
      </trkpt>
      <trkpt lat="50.70413" lon="1.61385">
        <ele>10.7</ele>
        <time>2020-06-22T17:59:31Z</time>
      </trkpt>
      <trkpt lat="50.70421" lon="1.61386">
        <ele>10.2</ele>
        <time>2020-06-22T17:59:32Z</time>
      </trkpt>
      <trkpt lat="50.70429" lon="1.61386">
        <ele>9.7</ele>
        <time>2020-06-22T17:59:33Z</time>
      </trkpt>
      <trkpt lat="50.70438" lon="1.61386">
        <ele>8.8</ele>
        <time>2020-06-22T17:59:34Z</time>
      </trkpt>
      <trkpt lat="50.70447" lon="1.61385">
        <ele>8.9</ele>
        <time>2020-06-22T17:59:35Z</time>
      </trkpt>
      <trkpt lat="50.70455" lon="1.61382">
        <ele>9.2</ele>
        <time>2020-06-22T17:59:36Z</time>
      </trkpt>
      <trkpt lat="50.70463" lon="1.61379">
        <ele>8.8</ele>
        <time>2020-06-22T17:59:37Z</time>
      </trkpt>
      <trkpt lat="50.70471" lon="1.61377">
        <ele>8.5</ele>
        <time>2020-06-22T17:59:38Z</time>
      </trkpt>
      <trkpt lat="50.70479" lon="1.61373">
        <ele>8.1</ele>
        <time>2020-06-22T17:59:39Z</time>
      </trkpt>
      <trkpt lat="50.70487" lon="1.6137">
        <ele>7.5</ele>
        <time>2020-06-22T17:59:40Z</time>
      </trkpt>
      <trkpt lat="50.70494" lon="1.61365">
        <ele>7.5</ele>
        <time>2020-06-22T17:59:41Z</time>
      </trkpt>
      <trkpt lat="50.70501" lon="1.61363">
        <ele>8.2</ele>
        <time>2020-06-22T17:59:42Z</time>
      </trkpt>
      <trkpt lat="50.70507" lon="1.61363">
        <ele>8.2</ele>
        <time>2020-06-22T17:59:43Z</time>
      </trkpt>
      <trkpt lat="50.70513" lon="1.61367">
        <ele>8.8</ele>
        <time>2020-06-22T17:59:44Z</time>
      </trkpt>
      <trkpt lat="50.70518" lon="1.61372">
        <ele>8.9</ele>
        <time>2020-06-22T17:59:45Z</time>
      </trkpt>
      <trkpt lat="50.70522" lon="1.61377">
        <ele>8.9</ele>
        <time>2020-06-22T17:59:46Z</time>
      </trkpt>
      <trkpt lat="50.70527" lon="1.6138">
        <ele>9.2</ele>
        <time>2020-06-22T17:59:47Z</time>
      </trkpt>
      <trkpt lat="50.70532" lon="1.61381">
        <ele>9.3</ele>
        <time>2020-06-22T17:59:48Z</time>
      </trkpt>
      <trkpt lat="50.70538" lon="1.61379">
        <ele>9.4</ele>
        <time>2020-06-22T17:59:49Z</time>
      </trkpt>
      <trkpt lat="50.70543" lon="1.61375">
        <ele>9.5</ele>
        <time>2020-06-22T17:59:50Z</time>
      </trkpt>
      <trkpt lat="50.70546" lon="1.61369">
        <ele>9.5</ele>
        <time>2020-06-22T17:59:51Z</time>
      </trkpt>
      <trkpt lat="50.7055" lon="1.61362">
        <ele>9.5</ele>
        <time>2020-06-22T17:59:52Z</time>
      </trkpt>
      <trkpt lat="50.70552" lon="1.61354">
        <ele>9.4</ele>
        <time>2020-06-22T17:59:53Z</time>
      </trkpt>
      <trkpt lat="50.70555" lon="1.61347">
        <ele>9.3</ele>
        <time>2020-06-22T17:59:54Z</time>
      </trkpt>
      <trkpt lat="50.70559" lon="1.6134">
        <ele>9.2</ele>
        <time>2020-06-22T17:59:55Z</time>
      </trkpt>
      <trkpt lat="50.70564" lon="1.61335">
        <ele>9.1</ele>
        <time>2020-06-22T17:59:56Z</time>
      </trkpt>
      <trkpt lat="50.7057" lon="1.61332">
        <ele>9</ele>
        <time>2020-06-22T17:59:57Z</time>
      </trkpt>
      <trkpt lat="50.70575" lon="1.6133">
        <ele>8.9</ele>
        <time>2020-06-22T17:59:58Z</time>
      </trkpt>
      <trkpt lat="50.70581" lon="1.61327">
        <ele>8.8</ele>
        <time>2020-06-22T17:59:59Z</time>
      </trkpt>
      <trkpt lat="50.70585" lon="1.61323">
        <ele>8.6</ele>
        <time>2020-06-22T18:00:00Z</time>
      </trkpt>
      <trkpt lat="50.70591" lon="1.6132">
        <ele>8.5</ele>
        <time>2020-06-22T18:00:01Z</time>
      </trkpt>
      <trkpt lat="50.70596" lon="1.61317">
        <ele>8.4</ele>
        <time>2020-06-22T18:00:02Z</time>
      </trkpt>
      <trkpt lat="50.70602" lon="1.61314">
        <ele>8.4</ele>
        <time>2020-06-22T18:00:03Z</time>
      </trkpt>
      <trkpt lat="50.70606" lon="1.6131">
        <ele>8.4</ele>
        <time>2020-06-22T18:00:04Z</time>
      </trkpt>
      <trkpt lat="50.70611" lon="1.61305">
        <ele>8.4</ele>
        <time>2020-06-22T18:00:05Z</time>
      </trkpt>
      <trkpt lat="50.70616" lon="1.613">
        <ele>8.4</ele>
        <time>2020-06-22T18:00:06Z</time>
      </trkpt>
      <trkpt lat="50.7062" lon="1.61294">
        <ele>8.4</ele>
        <time>2020-06-22T18:00:07Z</time>
      </trkpt>
      <trkpt lat="50.70625" lon="1.6129">
        <ele>8.4</ele>
        <time>2020-06-22T18:00:08Z</time>
      </trkpt>
      <trkpt lat="50.7063" lon="1.61286">
        <ele>8.3</ele>
        <time>2020-06-22T18:00:09Z</time>
      </trkpt>
      <trkpt lat="50.70634" lon="1.61281">
        <ele>8.3</ele>
        <time>2020-06-22T18:00:10Z</time>
      </trkpt>
      <trkpt lat="50.70638" lon="1.61276">
        <ele>8.3</ele>
        <time>2020-06-22T18:00:11Z</time>
      </trkpt>
      <trkpt lat="50.70643" lon="1.61271">
        <ele>8.3</ele>
        <time>2020-06-22T18:00:12Z</time>
      </trkpt>
      <trkpt lat="50.70648" lon="1.61267">
        <ele>8.3</ele>
        <time>2020-06-22T18:00:13Z</time>
      </trkpt>
      <trkpt lat="50.70651" lon="1.61262">
        <ele>8.4</ele>
        <time>2020-06-22T18:00:14Z</time>
      </trkpt>
      <trkpt lat="50.70655" lon="1.61257">
        <ele>8.3</ele>
        <time>2020-06-22T18:00:15Z</time>
      </trkpt>
      <trkpt lat="50.70659" lon="1.61251">
        <ele>8.3</ele>
        <time>2020-06-22T18:00:16Z</time>
      </trkpt>
      <trkpt lat="50.70663" lon="1.61246">
        <ele>8.1</ele>
        <time>2020-06-22T18:00:17Z</time>
      </trkpt>
      <trkpt lat="50.70668" lon="1.61242">
        <ele>8</ele>
        <time>2020-06-22T18:00:18Z</time>
      </trkpt>
      <trkpt lat="50.70673" lon="1.61236">
        <ele>7.9</ele>
        <time>2020-06-22T18:00:19Z</time>
      </trkpt>
      <trkpt lat="50.70678" lon="1.6123">
        <ele>7.8</ele>
        <time>2020-06-22T18:00:20Z</time>
      </trkpt>
      <trkpt lat="50.70682" lon="1.61225">
        <ele>7.8</ele>
        <time>2020-06-22T18:00:21Z</time>
      </trkpt>
      <trkpt lat="50.70686" lon="1.6122">
        <ele>7.8</ele>
        <time>2020-06-22T18:00:22Z</time>
      </trkpt>
      <trkpt lat="50.7069" lon="1.61215">
        <ele>7.7</ele>
        <time>2020-06-22T18:00:23Z</time>
      </trkpt>
      <trkpt lat="50.70695" lon="1.6121">
        <ele>7.7</ele>
        <time>2020-06-22T18:00:24Z</time>
      </trkpt>
      <trkpt lat="50.70699" lon="1.61206">
        <ele>7.7</ele>
        <time>2020-06-22T18:00:25Z</time>
      </trkpt>
      <trkpt lat="50.70704" lon="1.61202">
        <ele>7.7</ele>
        <time>2020-06-22T18:00:26Z</time>
      </trkpt>
      <trkpt lat="50.70708" lon="1.61197">
        <ele>7.7</ele>
        <time>2020-06-22T18:00:27Z</time>
      </trkpt>
      <trkpt lat="50.70713" lon="1.61193">
        <ele>7.6</ele>
        <time>2020-06-22T18:00:28Z</time>
      </trkpt>
      <trkpt lat="50.70717" lon="1.61187">
        <ele>7.6</ele>
        <time>2020-06-22T18:00:29Z</time>
      </trkpt>
      <trkpt lat="50.70721" lon="1.61182">
        <ele>7.6</ele>
        <time>2020-06-22T18:00:30Z</time>
      </trkpt>
      <trkpt lat="50.70725" lon="1.61177">
        <ele>7.5</ele>
        <time>2020-06-22T18:00:31Z</time>
      </trkpt>
      <trkpt lat="50.70729" lon="1.61172">
        <ele>7.5</ele>
        <time>2020-06-22T18:00:32Z</time>
      </trkpt>
      <trkpt lat="50.70734" lon="1.61168">
        <ele>7.4</ele>
        <time>2020-06-22T18:00:33Z</time>
      </trkpt>
      <trkpt lat="50.70738" lon="1.61162">
        <ele>7.4</ele>
        <time>2020-06-22T18:00:34Z</time>
      </trkpt>
      <trkpt lat="50.70742" lon="1.61157">
        <ele>7.3</ele>
        <time>2020-06-22T18:00:35Z</time>
      </trkpt>
      <trkpt lat="50.70746" lon="1.61152">
        <ele>7.3</ele>
        <time>2020-06-22T18:00:36Z</time>
      </trkpt>
      <trkpt lat="50.70751" lon="1.61148">
        <ele>7.2</ele>
        <time>2020-06-22T18:00:37Z</time>
      </trkpt>
      <trkpt lat="50.70755" lon="1.61143">
        <ele>7.2</ele>
        <time>2020-06-22T18:00:38Z</time>
      </trkpt>
      <trkpt lat="50.70759" lon="1.61139">
        <ele>7.2</ele>
        <time>2020-06-22T18:00:39Z</time>
      </trkpt>
      <trkpt lat="50.70764" lon="1.61135">
        <ele>7.1</ele>
        <time>2020-06-22T18:00:40Z</time>
      </trkpt>
      <trkpt lat="50.70768" lon="1.61131">
        <ele>7.1</ele>
        <time>2020-06-22T18:00:41Z</time>
      </trkpt>
      <trkpt lat="50.70773" lon="1.61127">
        <ele>7.1</ele>
        <time>2020-06-22T18:00:42Z</time>
      </trkpt>
      <trkpt lat="50.70778" lon="1.61122">
        <ele>7.1</ele>
        <time>2020-06-22T18:00:43Z</time>
      </trkpt>
      <trkpt lat="50.70782" lon="1.61116">
        <ele>7.1</ele>
        <time>2020-06-22T18:00:44Z</time>
      </trkpt>
      <trkpt lat="50.70787" lon="1.61111">
        <ele>7.1</ele>
        <time>2020-06-22T18:00:45Z</time>
      </trkpt>
      <trkpt lat="50.70791" lon="1.61104">
        <ele>7.1</ele>
        <time>2020-06-22T18:00:46Z</time>
      </trkpt>
      <trkpt lat="50.70796" lon="1.61099">
        <ele>7.1</ele>
        <time>2020-06-22T18:00:47Z</time>
      </trkpt>
      <trkpt lat="50.70801" lon="1.61094">
        <ele>7.1</ele>
        <time>2020-06-22T18:00:48Z</time>
      </trkpt>
      <trkpt lat="50.70805" lon="1.61089">
        <ele>7.1</ele>
        <time>2020-06-22T18:00:49Z</time>
      </trkpt>
      <trkpt lat="50.7081" lon="1.61084">
        <ele>7.1</ele>
        <time>2020-06-22T18:00:50Z</time>
      </trkpt>
      <trkpt lat="50.70814" lon="1.6108">
        <ele>7.1</ele>
        <time>2020-06-22T18:00:51Z</time>
      </trkpt>
      <trkpt lat="50.70819" lon="1.61074">
        <ele>7.1</ele>
        <time>2020-06-22T18:00:52Z</time>
      </trkpt>
      <trkpt lat="50.70823" lon="1.6107">
        <ele>7.1</ele>
        <time>2020-06-22T18:00:53Z</time>
      </trkpt>
      <trkpt lat="50.70827" lon="1.61065">
        <ele>7.1</ele>
        <time>2020-06-22T18:00:54Z</time>
      </trkpt>
      <trkpt lat="50.70831" lon="1.61061">
        <ele>7</ele>
        <time>2020-06-22T18:00:55Z</time>
      </trkpt>
      <trkpt lat="50.70835" lon="1.61058">
        <ele>7</ele>
        <time>2020-06-22T18:00:56Z</time>
      </trkpt>
      <trkpt lat="50.70839" lon="1.61055">
        <ele>7</ele>
        <time>2020-06-22T18:00:57Z</time>
      </trkpt>
      <trkpt lat="50.70844" lon="1.61052">
        <ele>7</ele>
        <time>2020-06-22T18:00:58Z</time>
      </trkpt>
      <trkpt lat="50.70849" lon="1.61049">
        <ele>7</ele>
        <time>2020-06-22T18:00:59Z</time>
      </trkpt>
      <trkpt lat="50.70853" lon="1.61045">
        <ele>7</ele>
        <time>2020-06-22T18:01:00Z</time>
      </trkpt>
      <trkpt lat="50.70858" lon="1.6104">
        <ele>7</ele>
        <time>2020-06-22T18:01:01Z</time>
      </trkpt>
      <trkpt lat="50.70862" lon="1.61035">
        <ele>7</ele>
        <time>2020-06-22T18:01:02Z</time>
      </trkpt>
      <trkpt lat="50.70867" lon="1.6103">
        <ele>6.9</ele>
        <time>2020-06-22T18:01:03Z</time>
      </trkpt>
      <trkpt lat="50.70872" lon="1.61025">
        <ele>6.9</ele>
        <time>2020-06-22T18:01:04Z</time>
      </trkpt>
      <trkpt lat="50.70876" lon="1.6102">
        <ele>6.9</ele>
        <time>2020-06-22T18:01:05Z</time>
      </trkpt>
      <trkpt lat="50.70882" lon="1.61017">
        <ele>6.8</ele>
        <time>2020-06-22T18:01:06Z</time>
      </trkpt>
      <trkpt lat="50.70887" lon="1.61013">
        <ele>6.8</ele>
        <time>2020-06-22T18:01:07Z</time>
      </trkpt>
      <trkpt lat="50.70892" lon="1.61009">
        <ele>6.7</ele>
        <time>2020-06-22T18:01:08Z</time>
      </trkpt>
      <trkpt lat="50.70897" lon="1.61005">
        <ele>6.7</ele>
        <time>2020-06-22T18:01:09Z</time>
      </trkpt>
      <trkpt lat="50.70902" lon="1.61001">
        <ele>6.7</ele>
        <time>2020-06-22T18:01:10Z</time>
      </trkpt>
      <trkpt lat="50.70908" lon="1.60997">
        <ele>6.6</ele>
        <time>2020-06-22T18:01:11Z</time>
      </trkpt>
      <trkpt lat="50.70914" lon="1.60994">
        <ele>6.6</ele>
        <time>2020-06-22T18:01:12Z</time>
      </trkpt>
      <trkpt lat="50.70919" lon="1.6099">
        <ele>6.6</ele>
        <time>2020-06-22T18:01:13Z</time>
      </trkpt>
      <trkpt lat="50.70924" lon="1.60984">
        <ele>6.5</ele>
        <time>2020-06-22T18:01:14Z</time>
      </trkpt>
      <trkpt lat="50.7093" lon="1.60979">
        <ele>6.5</ele>
        <time>2020-06-22T18:01:15Z</time>
      </trkpt>
      <trkpt lat="50.70936" lon="1.60974">
        <ele>6.5</ele>
        <time>2020-06-22T18:01:16Z</time>
      </trkpt>
      <trkpt lat="50.70941" lon="1.60969">
        <ele>6.4</ele>
        <time>2020-06-22T18:01:17Z</time>
      </trkpt>
      <trkpt lat="50.70947" lon="1.60965">
        <ele>6.4</ele>
        <time>2020-06-22T18:01:18Z</time>
      </trkpt>
      <trkpt lat="50.70953" lon="1.60961">
        <ele>6.4</ele>
        <time>2020-06-22T18:01:19Z</time>
      </trkpt>
      <trkpt lat="50.7096" lon="1.60957">
        <ele>6.3</ele>
        <time>2020-06-22T18:01:20Z</time>
      </trkpt>
      <trkpt lat="50.70966" lon="1.60953">
        <ele>6.3</ele>
        <time>2020-06-22T18:01:21Z</time>
      </trkpt>
      <trkpt lat="50.70972" lon="1.60949">
        <ele>6.2</ele>
        <time>2020-06-22T18:01:22Z</time>
      </trkpt>
      <trkpt lat="50.70978" lon="1.60945">
        <ele>6.2</ele>
        <time>2020-06-22T18:01:23Z</time>
      </trkpt>
      <trkpt lat="50.70984" lon="1.60941">
        <ele>6.2</ele>
        <time>2020-06-22T18:01:24Z</time>
      </trkpt>
      <trkpt lat="50.7099" lon="1.60936">
        <ele>6.1</ele>
        <time>2020-06-22T18:01:25Z</time>
      </trkpt>
      <trkpt lat="50.70996" lon="1.60932">
        <ele>6.1</ele>
        <time>2020-06-22T18:01:26Z</time>
      </trkpt>
      <trkpt lat="50.71002" lon="1.60928">
        <ele>6.1</ele>
        <time>2020-06-22T18:01:27Z</time>
      </trkpt>
      <trkpt lat="50.71008" lon="1.60924">
        <ele>6.1</ele>
        <time>2020-06-22T18:01:28Z</time>
      </trkpt>
      <trkpt lat="50.71014" lon="1.6092">
        <ele>6.1</ele>
        <time>2020-06-22T18:01:29Z</time>
      </trkpt>
      <trkpt lat="50.7102" lon="1.60916">
        <ele>6.2</ele>
        <time>2020-06-22T18:01:30Z</time>
      </trkpt>
      <trkpt lat="50.71026" lon="1.60912">
        <ele>6.1</ele>
        <time>2020-06-22T18:01:31Z</time>
      </trkpt>
      <trkpt lat="50.71032" lon="1.60908">
        <ele>6.1</ele>
        <time>2020-06-22T18:01:32Z</time>
      </trkpt>
      <trkpt lat="50.71038" lon="1.60905">
        <ele>6</ele>
        <time>2020-06-22T18:01:33Z</time>
      </trkpt>
      <trkpt lat="50.71045" lon="1.60903">
        <ele>6</ele>
        <time>2020-06-22T18:01:34Z</time>
      </trkpt>
      <trkpt lat="50.71052" lon="1.60902">
        <ele>6</ele>
        <time>2020-06-22T18:01:35Z</time>
      </trkpt>
      <trkpt lat="50.71058" lon="1.60899">
        <ele>6</ele>
        <time>2020-06-22T18:01:36Z</time>
      </trkpt>
      <trkpt lat="50.71065" lon="1.60895">
        <ele>6</ele>
        <time>2020-06-22T18:01:37Z</time>
      </trkpt>
      <trkpt lat="50.71072" lon="1.60892">
        <ele>6</ele>
        <time>2020-06-22T18:01:38Z</time>
      </trkpt>
      <trkpt lat="50.71078" lon="1.60888">
        <ele>6</ele>
        <time>2020-06-22T18:01:39Z</time>
      </trkpt>
      <trkpt lat="50.71084" lon="1.60885">
        <ele>6</ele>
        <time>2020-06-22T18:01:40Z</time>
      </trkpt>
      <trkpt lat="50.71091" lon="1.60883">
        <ele>6</ele>
        <time>2020-06-22T18:01:41Z</time>
      </trkpt>
      <trkpt lat="50.71097" lon="1.6088">
        <ele>5.9</ele>
        <time>2020-06-22T18:01:42Z</time>
      </trkpt>
      <trkpt lat="50.71104" lon="1.60877">
        <ele>5.9</ele>
        <time>2020-06-22T18:01:43Z</time>
      </trkpt>
      <trkpt lat="50.71111" lon="1.60874">
        <ele>5.9</ele>
        <time>2020-06-22T18:01:44Z</time>
      </trkpt>
      <trkpt lat="50.71118" lon="1.60871">
        <ele>5.9</ele>
        <time>2020-06-22T18:01:45Z</time>
      </trkpt>
      <trkpt lat="50.71125" lon="1.60869">
        <ele>5.9</ele>
        <time>2020-06-22T18:01:46Z</time>
      </trkpt>
      <trkpt lat="50.71132" lon="1.60866">
        <ele>5.9</ele>
        <time>2020-06-22T18:01:47Z</time>
      </trkpt>
      <trkpt lat="50.71139" lon="1.60863">
        <ele>5.9</ele>
        <time>2020-06-22T18:01:48Z</time>
      </trkpt>
      <trkpt lat="50.71145" lon="1.60859">
        <ele>5.9</ele>
        <time>2020-06-22T18:01:49Z</time>
      </trkpt>
      <trkpt lat="50.71152" lon="1.60856">
        <ele>5.9</ele>
        <time>2020-06-22T18:01:50Z</time>
      </trkpt>
      <trkpt lat="50.71158" lon="1.60853">
        <ele>5.8</ele>
        <time>2020-06-22T18:01:51Z</time>
      </trkpt>
      <trkpt lat="50.71165" lon="1.6085">
        <ele>5.8</ele>
        <time>2020-06-22T18:01:52Z</time>
      </trkpt>
      <trkpt lat="50.71171" lon="1.60845">
        <ele>5.8</ele>
        <time>2020-06-22T18:01:53Z</time>
      </trkpt>
      <trkpt lat="50.71178" lon="1.60841">
        <ele>5.8</ele>
        <time>2020-06-22T18:01:54Z</time>
      </trkpt>
      <trkpt lat="50.71184" lon="1.60837">
        <ele>5.8</ele>
        <time>2020-06-22T18:01:56Z</time>
      </trkpt>
      <trkpt lat="50.7119" lon="1.60833">
        <ele>5.8</ele>
        <time>2020-06-22T18:01:57Z</time>
      </trkpt>
      <trkpt lat="50.71196" lon="1.60828">
        <ele>5.8</ele>
        <time>2020-06-22T18:01:58Z</time>
      </trkpt>
      <trkpt lat="50.71202" lon="1.60823">
        <ele>5.8</ele>
        <time>2020-06-22T18:01:59Z</time>
      </trkpt>
      <trkpt lat="50.71208" lon="1.60819">
        <ele>5.7</ele>
        <time>2020-06-22T18:02:00Z</time>
      </trkpt>
      <trkpt lat="50.71214" lon="1.60816">
        <ele>5.7</ele>
        <time>2020-06-22T18:02:01Z</time>
      </trkpt>
      <trkpt lat="50.7122" lon="1.60812">
        <ele>5.7</ele>
        <time>2020-06-22T18:02:02Z</time>
      </trkpt>
      <trkpt lat="50.71227" lon="1.60807">
        <ele>5.7</ele>
        <time>2020-06-22T18:02:03Z</time>
      </trkpt>
      <trkpt lat="50.71233" lon="1.60803">
        <ele>5.6</ele>
        <time>2020-06-22T18:02:04Z</time>
      </trkpt>
      <trkpt lat="50.7124" lon="1.60799">
        <ele>5.6</ele>
        <time>2020-06-22T18:02:05Z</time>
      </trkpt>
      <trkpt lat="50.71247" lon="1.60797">
        <ele>5.6</ele>
        <time>2020-06-22T18:02:06Z</time>
      </trkpt>
      <trkpt lat="50.71254" lon="1.60797">
        <ele>5.6</ele>
        <time>2020-06-22T18:02:07Z</time>
      </trkpt>
      <trkpt lat="50.71261" lon="1.60795">
        <ele>5.6</ele>
        <time>2020-06-22T18:02:08Z</time>
      </trkpt>
      <trkpt lat="50.71268" lon="1.60792">
        <ele>5.5</ele>
        <time>2020-06-22T18:02:09Z</time>
      </trkpt>
      <trkpt lat="50.71275" lon="1.60789">
        <ele>5.5</ele>
        <time>2020-06-22T18:02:10Z</time>
      </trkpt>
      <trkpt lat="50.71282" lon="1.60786">
        <ele>5.6</ele>
        <time>2020-06-22T18:02:11Z</time>
      </trkpt>
      <trkpt lat="50.71288" lon="1.60782">
        <ele>5.6</ele>
        <time>2020-06-22T18:02:12Z</time>
      </trkpt>
      <trkpt lat="50.71295" lon="1.6078">
        <ele>5.7</ele>
        <time>2020-06-22T18:02:13Z</time>
      </trkpt>
      <trkpt lat="50.71302" lon="1.60777">
        <ele>5.7</ele>
        <time>2020-06-22T18:02:14Z</time>
      </trkpt>
      <trkpt lat="50.71309" lon="1.60777">
        <ele>5.7</ele>
        <time>2020-06-22T18:02:15Z</time>
      </trkpt>
      <trkpt lat="50.71316" lon="1.60776">
        <ele>5.7</ele>
        <time>2020-06-22T18:02:16Z</time>
      </trkpt>
      <trkpt lat="50.71323" lon="1.60776">
        <ele>5.8</ele>
        <time>2020-06-22T18:02:17Z</time>
      </trkpt>
      <trkpt lat="50.7133" lon="1.60773">
        <ele>5.9</ele>
        <time>2020-06-22T18:02:18Z</time>
      </trkpt>
      <trkpt lat="50.71338" lon="1.60769">
        <ele>6.1</ele>
        <time>2020-06-22T18:02:19Z</time>
      </trkpt>
      <trkpt lat="50.71345" lon="1.60766">
        <ele>6.3</ele>
        <time>2020-06-22T18:02:20Z</time>
      </trkpt>
      <trkpt lat="50.71353" lon="1.60763">
        <ele>6.7</ele>
        <time>2020-06-22T18:02:21Z</time>
      </trkpt>
      <trkpt lat="50.7136" lon="1.60759">
        <ele>7.1</ele>
        <time>2020-06-22T18:02:22Z</time>
      </trkpt>
      <trkpt lat="50.71367" lon="1.60757">
        <ele>7.5</ele>
        <time>2020-06-22T18:02:23Z</time>
      </trkpt>
      <trkpt lat="50.71374" lon="1.60755">
        <ele>7.9</ele>
        <time>2020-06-22T18:02:24Z</time>
      </trkpt>
      <trkpt lat="50.7138" lon="1.60751">
        <ele>8.3</ele>
        <time>2020-06-22T18:02:25Z</time>
      </trkpt>
      <trkpt lat="50.71385" lon="1.60748">
        <ele>8.7</ele>
        <time>2020-06-22T18:02:26Z</time>
      </trkpt>
      <trkpt lat="50.71391" lon="1.60746">
        <ele>9.1</ele>
        <time>2020-06-22T18:02:27Z</time>
      </trkpt>
      <trkpt lat="50.71397" lon="1.60744">
        <ele>9.5</ele>
        <time>2020-06-22T18:02:28Z</time>
      </trkpt>
      <trkpt lat="50.71402" lon="1.60743">
        <ele>9.8</ele>
        <time>2020-06-22T18:02:29Z</time>
      </trkpt>
      <trkpt lat="50.71407" lon="1.60742">
        <ele>10.1</ele>
        <time>2020-06-22T18:02:30Z</time>
      </trkpt>
      <trkpt lat="50.71412" lon="1.60741">
        <ele>10.4</ele>
        <time>2020-06-22T18:02:31Z</time>
      </trkpt>
      <trkpt lat="50.71416" lon="1.60739">
        <ele>10.7</ele>
        <time>2020-06-22T18:02:32Z</time>
      </trkpt>
      <trkpt lat="50.7142" lon="1.60738">
        <ele>10.8</ele>
        <time>2020-06-22T18:02:33Z</time>
      </trkpt>
      <trkpt lat="50.71423" lon="1.60737">
        <ele>11</ele>
        <time>2020-06-22T18:02:34Z</time>
      </trkpt>
      <trkpt lat="50.71426" lon="1.60736">
        <ele>11</ele>
        <time>2020-06-22T18:02:35Z</time>
      </trkpt>
      <trkpt lat="50.71428" lon="1.60735">
        <ele>11.1</ele>
        <time>2020-06-22T18:02:36Z</time>
      </trkpt>
      <trkpt lat="50.71432" lon="1.60736">
        <ele>11.2</ele>
        <time>2020-06-22T18:02:37Z</time>
      </trkpt>
      <trkpt lat="50.71433" lon="1.60736">
        <ele>11.2</ele>
        <time>2020-06-22T18:02:38Z</time>
      </trkpt>
      <trkpt lat="50.71436" lon="1.60738">
        <ele>11.2</ele>
        <time>2020-06-22T18:02:39Z</time>
      </trkpt>
      <trkpt lat="50.71438" lon="1.60741">
        <ele>11.2</ele>
        <time>2020-06-22T18:02:40Z</time>
      </trkpt>
      <trkpt lat="50.71439" lon="1.60742">
        <ele>11.2</ele>
        <time>2020-06-22T18:02:41Z</time>
      </trkpt>
      <trkpt lat="50.71441" lon="1.60746">
        <ele>11.2</ele>
        <time>2020-06-22T18:02:42Z</time>
      </trkpt>
      <trkpt lat="50.71442" lon="1.60751">
        <ele>11.2</ele>
        <time>2020-06-22T18:02:43Z</time>
      </trkpt>
      <trkpt lat="50.71443" lon="1.60757">
        <ele>11.2</ele>
        <time>2020-06-22T18:02:44Z</time>
      </trkpt>
      <trkpt lat="50.71443" lon="1.60759">
        <ele>11.2</ele>
        <time>2020-06-22T18:02:45Z</time>
      </trkpt>
      <trkpt lat="50.71444" lon="1.60765">
        <ele>11.2</ele>
        <time>2020-06-22T18:02:46Z</time>
      </trkpt>
      <trkpt lat="50.71445" lon="1.60766">
        <ele>11.2</ele>
        <time>2020-06-22T18:02:47Z</time>
      </trkpt>
      <trkpt lat="50.71446" lon="1.60771">
        <ele>11.1</ele>
        <time>2020-06-22T18:02:48Z</time>
      </trkpt>
      <trkpt lat="50.71447" lon="1.60776">
        <ele>11</ele>
        <time>2020-06-22T18:02:49Z</time>
      </trkpt>
      <trkpt lat="50.7145" lon="1.60787">
        <ele>10.9</ele>
        <time>2020-06-22T18:02:50Z</time>
      </trkpt>
      <trkpt lat="50.71452" lon="1.60793">
        <ele>10.7</ele>
        <time>2020-06-22T18:02:51Z</time>
      </trkpt>
      <trkpt lat="50.71454" lon="1.608">
        <ele>10.6</ele>
        <time>2020-06-22T18:02:52Z</time>
      </trkpt>
      <trkpt lat="50.71458" lon="1.60807">
        <ele>10.4</ele>
        <time>2020-06-22T18:02:53Z</time>
      </trkpt>
      <trkpt lat="50.71461" lon="1.60813">
        <ele>10.3</ele>
        <time>2020-06-22T18:02:54Z</time>
      </trkpt>
      <trkpt lat="50.71464" lon="1.6082">
        <ele>10.1</ele>
        <time>2020-06-22T18:02:55Z</time>
      </trkpt>
      <trkpt lat="50.71468" lon="1.60827">
        <ele>10</ele>
        <time>2020-06-22T18:02:56Z</time>
      </trkpt>
      <trkpt lat="50.71471" lon="1.60833">
        <ele>9.8</ele>
        <time>2020-06-22T18:02:57Z</time>
      </trkpt>
      <trkpt lat="50.71474" lon="1.60838">
        <ele>9.7</ele>
        <time>2020-06-22T18:02:58Z</time>
      </trkpt>
      <trkpt lat="50.71477" lon="1.60842">
        <ele>9.6</ele>
        <time>2020-06-22T18:02:59Z</time>
      </trkpt>
      <trkpt lat="50.71479" lon="1.60846">
        <ele>9.5</ele>
        <time>2020-06-22T18:03:00Z</time>
      </trkpt>
      <trkpt lat="50.71482" lon="1.60849">
        <ele>9.4</ele>
        <time>2020-06-22T18:03:01Z</time>
      </trkpt>
      <trkpt lat="50.71484" lon="1.60853">
        <ele>9.3</ele>
        <time>2020-06-22T18:03:02Z</time>
      </trkpt>
      <trkpt lat="50.71487" lon="1.60857">
        <ele>9.2</ele>
        <time>2020-06-22T18:03:03Z</time>
      </trkpt>
      <trkpt lat="50.7149" lon="1.60861">
        <ele>9.1</ele>
        <time>2020-06-22T18:03:04Z</time>
      </trkpt>
      <trkpt lat="50.71491" lon="1.60862">
        <ele>9.1</ele>
        <time>2020-06-22T18:03:05Z</time>
      </trkpt>
      <trkpt lat="50.71494" lon="1.60865">
        <ele>9.1</ele>
        <time>2020-06-22T18:03:06Z</time>
      </trkpt>
      <trkpt lat="50.71497" lon="1.60868">
        <ele>8.9</ele>
        <time>2020-06-22T18:03:07Z</time>
      </trkpt>
      <trkpt lat="50.71499" lon="1.60872">
        <ele>8.9</ele>
        <time>2020-06-22T18:03:08Z</time>
      </trkpt>
      <trkpt lat="50.71502" lon="1.60869">
        <ele>8.9</ele>
        <time>2020-06-22T18:03:09Z</time>
      </trkpt>
      <trkpt lat="50.71503" lon="1.60867">
        <ele>8.8</ele>
        <time>2020-06-22T18:03:10Z</time>
      </trkpt>
      <trkpt lat="50.71501" lon="1.60863">
        <ele>8.8</ele>
        <time>2020-06-22T18:03:11Z</time>
      </trkpt>
      <trkpt lat="50.715" lon="1.60862">
        <ele>8.8</ele>
        <time>2020-06-22T18:03:12Z</time>
      </trkpt>
      <trkpt lat="50.71498" lon="1.60859">
        <ele>8.8</ele>
        <time>2020-06-22T18:03:13Z</time>
      </trkpt>
      <trkpt lat="50.71494" lon="1.60855">
        <ele>8.7</ele>
        <time>2020-06-22T18:03:14Z</time>
      </trkpt>
      <trkpt lat="50.7149" lon="1.6085">
        <ele>8.5</ele>
        <time>2020-06-22T18:03:15Z</time>
      </trkpt>
      <trkpt lat="50.71486" lon="1.60846">
        <ele>8.6</ele>
        <time>2020-06-22T18:03:16Z</time>
      </trkpt>
      <trkpt lat="50.71482" lon="1.60838">
        <ele>8.7</ele>
        <time>2020-06-22T18:03:17Z</time>
      </trkpt>
      <trkpt lat="50.71478" lon="1.60831">
        <ele>8.8</ele>
        <time>2020-06-22T18:03:18Z</time>
      </trkpt>
      <trkpt lat="50.71474" lon="1.60822">
        <ele>8.9</ele>
        <time>2020-06-22T18:03:19Z</time>
      </trkpt>
      <trkpt lat="50.71469" lon="1.60815">
        <ele>9.1</ele>
        <time>2020-06-22T18:03:20Z</time>
      </trkpt>
      <trkpt lat="50.71466" lon="1.60809">
        <ele>9.3</ele>
        <time>2020-06-22T18:03:21Z</time>
      </trkpt>
      <trkpt lat="50.71463" lon="1.60802">
        <ele>9.5</ele>
        <time>2020-06-22T18:03:22Z</time>
      </trkpt>
      <trkpt lat="50.7146" lon="1.60794">
        <ele>9.7</ele>
        <time>2020-06-22T18:03:23Z</time>
      </trkpt>
      <trkpt lat="50.71458" lon="1.60788">
        <ele>9.9</ele>
        <time>2020-06-22T18:03:24Z</time>
      </trkpt>
      <trkpt lat="50.71455" lon="1.60781">
        <ele>10.2</ele>
        <time>2020-06-22T18:03:25Z</time>
      </trkpt>
      <trkpt lat="50.71453" lon="1.60775">
        <ele>10.4</ele>
        <time>2020-06-22T18:03:26Z</time>
      </trkpt>
      <trkpt lat="50.71452" lon="1.60769">
        <ele>10.5</ele>
        <time>2020-06-22T18:03:27Z</time>
      </trkpt>
      <trkpt lat="50.7145" lon="1.60764">
        <ele>10.7</ele>
        <time>2020-06-22T18:03:28Z</time>
      </trkpt>
      <trkpt lat="50.71449" lon="1.60759">
        <ele>10.8</ele>
        <time>2020-06-22T18:03:29Z</time>
      </trkpt>
      <trkpt lat="50.71449" lon="1.60755">
        <ele>10.9</ele>
        <time>2020-06-22T18:03:30Z</time>
      </trkpt>
      <trkpt lat="50.71448" lon="1.60751">
        <ele>11</ele>
        <time>2020-06-22T18:03:31Z</time>
      </trkpt>
      <trkpt lat="50.71449" lon="1.60744">
        <ele>11.1</ele>
        <time>2020-06-22T18:03:32Z</time>
      </trkpt>
      <trkpt lat="50.71452" lon="1.60739">
        <ele>11.2</ele>
        <time>2020-06-22T18:03:33Z</time>
      </trkpt>
      <trkpt lat="50.71452" lon="1.60735">
        <ele>11.2</ele>
        <time>2020-06-22T18:03:34Z</time>
      </trkpt>
      <trkpt lat="50.71454" lon="1.60731">
        <ele>11.1</ele>
        <time>2020-06-22T18:03:35Z</time>
      </trkpt>
      <trkpt lat="50.71455" lon="1.60729">
        <ele>11.1</ele>
        <time>2020-06-22T18:03:36Z</time>
      </trkpt>
      <trkpt lat="50.71456" lon="1.60724">
        <ele>11.1</ele>
        <time>2020-06-22T18:03:37Z</time>
      </trkpt>
      <trkpt lat="50.71458" lon="1.6072">
        <ele>11</ele>
        <time>2020-06-22T18:03:38Z</time>
      </trkpt>
      <trkpt lat="50.7146" lon="1.60716">
        <ele>11</ele>
        <time>2020-06-22T18:03:39Z</time>
      </trkpt>
      <trkpt lat="50.71462" lon="1.60712">
        <ele>10.9</ele>
        <time>2020-06-22T18:03:40Z</time>
      </trkpt>
      <trkpt lat="50.71466" lon="1.60709">
        <ele>10.8</ele>
        <time>2020-06-22T18:03:41Z</time>
      </trkpt>
      <trkpt lat="50.71469" lon="1.60707">
        <ele>10.6</ele>
        <time>2020-06-22T18:03:42Z</time>
      </trkpt>
      <trkpt lat="50.71473" lon="1.60704">
        <ele>10.4</ele>
        <time>2020-06-22T18:03:43Z</time>
      </trkpt>
      <trkpt lat="50.71478" lon="1.60702">
        <ele>10.2</ele>
        <time>2020-06-22T18:03:44Z</time>
      </trkpt>
      <trkpt lat="50.71483" lon="1.607">
        <ele>9.9</ele>
        <time>2020-06-22T18:03:45Z</time>
      </trkpt>
      <trkpt lat="50.71488" lon="1.60697">
        <ele>9.6</ele>
        <time>2020-06-22T18:03:46Z</time>
      </trkpt>
      <trkpt lat="50.71493" lon="1.60694">
        <ele>9.2</ele>
        <time>2020-06-22T18:03:47Z</time>
      </trkpt>
      <trkpt lat="50.71499" lon="1.60691">
        <ele>8.8</ele>
        <time>2020-06-22T18:03:48Z</time>
      </trkpt>
      <trkpt lat="50.71504" lon="1.60687">
        <ele>8.4</ele>
        <time>2020-06-22T18:03:49Z</time>
      </trkpt>
      <trkpt lat="50.71511" lon="1.60685">
        <ele>8</ele>
        <time>2020-06-22T18:03:50Z</time>
      </trkpt>
      <trkpt lat="50.71518" lon="1.60684">
        <ele>7.6</ele>
        <time>2020-06-22T18:03:51Z</time>
      </trkpt>
      <trkpt lat="50.71524" lon="1.6068">
        <ele>7.2</ele>
        <time>2020-06-22T18:03:52Z</time>
      </trkpt>
      <trkpt lat="50.71532" lon="1.60677">
        <ele>6.9</ele>
        <time>2020-06-22T18:03:53Z</time>
      </trkpt>
      <trkpt lat="50.71539" lon="1.60674">
        <ele>6.6</ele>
        <time>2020-06-22T18:03:54Z</time>
      </trkpt>
      <trkpt lat="50.71545" lon="1.60671">
        <ele>6.4</ele>
        <time>2020-06-22T18:03:55Z</time>
      </trkpt>
      <trkpt lat="50.71552" lon="1.60668">
        <ele>6.3</ele>
        <time>2020-06-22T18:03:56Z</time>
      </trkpt>
      <trkpt lat="50.71559" lon="1.60665">
        <ele>6.1</ele>
        <time>2020-06-22T18:03:57Z</time>
      </trkpt>
      <trkpt lat="50.71565" lon="1.60662">
        <ele>6</ele>
        <time>2020-06-22T18:03:58Z</time>
      </trkpt>
      <trkpt lat="50.71571" lon="1.60657">
        <ele>6</ele>
        <time>2020-06-22T18:03:59Z</time>
      </trkpt>
      <trkpt lat="50.71576" lon="1.60653">
        <ele>5.9</ele>
        <time>2020-06-22T18:04:00Z</time>
      </trkpt>
      <trkpt lat="50.71581" lon="1.60648">
        <ele>5.9</ele>
        <time>2020-06-22T18:04:01Z</time>
      </trkpt>
      <trkpt lat="50.71586" lon="1.60644">
        <ele>5.8</ele>
        <time>2020-06-22T18:04:02Z</time>
      </trkpt>
      <trkpt lat="50.71592" lon="1.60641">
        <ele>5.8</ele>
        <time>2020-06-22T18:04:03Z</time>
      </trkpt>
      <trkpt lat="50.71597" lon="1.60638">
        <ele>5.8</ele>
        <time>2020-06-22T18:04:04Z</time>
      </trkpt>
      <trkpt lat="50.71602" lon="1.60633">
        <ele>5.8</ele>
        <time>2020-06-22T18:04:05Z</time>
      </trkpt>
      <trkpt lat="50.71606" lon="1.60629">
        <ele>5.9</ele>
        <time>2020-06-22T18:04:06Z</time>
      </trkpt>
      <trkpt lat="50.71611" lon="1.60624">
        <ele>5.9</ele>
        <time>2020-06-22T18:04:07Z</time>
      </trkpt>
      <trkpt lat="50.71617" lon="1.60623">
        <ele>6</ele>
        <time>2020-06-22T18:04:08Z</time>
      </trkpt>
      <trkpt lat="50.71622" lon="1.6062">
        <ele>6</ele>
        <time>2020-06-22T18:04:09Z</time>
      </trkpt>
      <trkpt lat="50.71627" lon="1.60617">
        <ele>5.9</ele>
        <time>2020-06-22T18:04:10Z</time>
      </trkpt>
      <trkpt lat="50.71633" lon="1.60613">
        <ele>5.9</ele>
        <time>2020-06-22T18:04:11Z</time>
      </trkpt>
      <trkpt lat="50.71638" lon="1.6061">
        <ele>5.9</ele>
        <time>2020-06-22T18:04:12Z</time>
      </trkpt>
      <trkpt lat="50.71644" lon="1.60605">
        <ele>5.9</ele>
        <time>2020-06-22T18:04:13Z</time>
      </trkpt>
      <trkpt lat="50.71649" lon="1.606">
        <ele>5.9</ele>
        <time>2020-06-22T18:04:14Z</time>
      </trkpt>
      <trkpt lat="50.71655" lon="1.60596">
        <ele>5.9</ele>
        <time>2020-06-22T18:04:15Z</time>
      </trkpt>
      <trkpt lat="50.71661" lon="1.60593">
        <ele>5.9</ele>
        <time>2020-06-22T18:04:16Z</time>
      </trkpt>
      <trkpt lat="50.71667" lon="1.6059">
        <ele>5.9</ele>
        <time>2020-06-22T18:04:17Z</time>
      </trkpt>
      <trkpt lat="50.71673" lon="1.60587">
        <ele>5.9</ele>
        <time>2020-06-22T18:04:18Z</time>
      </trkpt>
      <trkpt lat="50.71679" lon="1.60584">
        <ele>5.9</ele>
        <time>2020-06-22T18:04:19Z</time>
      </trkpt>
      <trkpt lat="50.71685" lon="1.60581">
        <ele>5.9</ele>
        <time>2020-06-22T18:04:20Z</time>
      </trkpt>
      <trkpt lat="50.71692" lon="1.60579">
        <ele>5.9</ele>
        <time>2020-06-22T18:04:21Z</time>
      </trkpt>
      <trkpt lat="50.71698" lon="1.60576">
        <ele>6</ele>
        <time>2020-06-22T18:04:22Z</time>
      </trkpt>
      <trkpt lat="50.71704" lon="1.60573">
        <ele>6</ele>
        <time>2020-06-22T18:04:23Z</time>
      </trkpt>
      <trkpt lat="50.7171" lon="1.6057">
        <ele>6</ele>
        <time>2020-06-22T18:04:24Z</time>
      </trkpt>
      <trkpt lat="50.71716" lon="1.60567">
        <ele>6</ele>
        <time>2020-06-22T18:04:25Z</time>
      </trkpt>
      <trkpt lat="50.71722" lon="1.60564">
        <ele>6.1</ele>
        <time>2020-06-22T18:04:26Z</time>
      </trkpt>
      <trkpt lat="50.71728" lon="1.60561">
        <ele>6.1</ele>
        <time>2020-06-22T18:04:27Z</time>
      </trkpt>
      <trkpt lat="50.71734" lon="1.60557">
        <ele>6.1</ele>
        <time>2020-06-22T18:04:28Z</time>
      </trkpt>
      <trkpt lat="50.7174" lon="1.60554">
        <ele>6.2</ele>
        <time>2020-06-22T18:04:29Z</time>
      </trkpt>
      <trkpt lat="50.71747" lon="1.60552">
        <ele>6.2</ele>
        <time>2020-06-22T18:04:30Z</time>
      </trkpt>
      <trkpt lat="50.71753" lon="1.60549">
        <ele>6.2</ele>
        <time>2020-06-22T18:04:31Z</time>
      </trkpt>
      <trkpt lat="50.71759" lon="1.60546">
        <ele>6.2</ele>
        <time>2020-06-22T18:04:32Z</time>
      </trkpt>
      <trkpt lat="50.71765" lon="1.60542">
        <ele>6.1</ele>
        <time>2020-06-22T18:04:33Z</time>
      </trkpt>
      <trkpt lat="50.71772" lon="1.6054">
        <ele>6.1</ele>
        <time>2020-06-22T18:04:34Z</time>
      </trkpt>
      <trkpt lat="50.71778" lon="1.60536">
        <ele>6.1</ele>
        <time>2020-06-22T18:04:35Z</time>
      </trkpt>
      <trkpt lat="50.71785" lon="1.60534">
        <ele>6.1</ele>
        <time>2020-06-22T18:04:36Z</time>
      </trkpt>
      <trkpt lat="50.71792" lon="1.60531">
        <ele>6.1</ele>
        <time>2020-06-22T18:04:37Z</time>
      </trkpt>
      <trkpt lat="50.71799" lon="1.60528">
        <ele>6</ele>
        <time>2020-06-22T18:04:38Z</time>
      </trkpt>
      <trkpt lat="50.71806" lon="1.60524">
        <ele>6</ele>
        <time>2020-06-22T18:04:39Z</time>
      </trkpt>
      <trkpt lat="50.71813" lon="1.6052">
        <ele>5.9</ele>
        <time>2020-06-22T18:04:40Z</time>
      </trkpt>
      <trkpt lat="50.71819" lon="1.60517">
        <ele>5.9</ele>
        <time>2020-06-22T18:04:41Z</time>
      </trkpt>
      <trkpt lat="50.71826" lon="1.60513">
        <ele>5.9</ele>
        <time>2020-06-22T18:04:42Z</time>
      </trkpt>
      <trkpt lat="50.71833" lon="1.60509">
        <ele>5.8</ele>
        <time>2020-06-22T18:04:43Z</time>
      </trkpt>
      <trkpt lat="50.7184" lon="1.60506">
        <ele>5.8</ele>
        <time>2020-06-22T18:04:44Z</time>
      </trkpt>
      <trkpt lat="50.71847" lon="1.60503">
        <ele>5.8</ele>
        <time>2020-06-22T18:04:45Z</time>
      </trkpt>
      <trkpt lat="50.71854" lon="1.605">
        <ele>5.9</ele>
        <time>2020-06-22T18:04:46Z</time>
      </trkpt>
      <trkpt lat="50.71861" lon="1.60497">
        <ele>5.9</ele>
        <time>2020-06-22T18:04:47Z</time>
      </trkpt>
      <trkpt lat="50.71867" lon="1.60494">
        <ele>5.8</ele>
        <time>2020-06-22T18:04:48Z</time>
      </trkpt>
      <trkpt lat="50.71873" lon="1.6049">
        <ele>5.8</ele>
        <time>2020-06-22T18:04:49Z</time>
      </trkpt>
      <trkpt lat="50.7188" lon="1.60488">
        <ele>5.8</ele>
        <time>2020-06-22T18:04:50Z</time>
      </trkpt>
      <trkpt lat="50.71886" lon="1.60488">
        <ele>5.8</ele>
        <time>2020-06-22T18:04:51Z</time>
      </trkpt>
      <trkpt lat="50.71893" lon="1.60491">
        <ele>5.8</ele>
        <time>2020-06-22T18:04:52Z</time>
      </trkpt>
      <trkpt lat="50.71899" lon="1.60495">
        <ele>5.8</ele>
        <time>2020-06-22T18:04:53Z</time>
      </trkpt>
      <trkpt lat="50.71906" lon="1.60495">
        <ele>6.4</ele>
        <time>2020-06-22T18:04:54Z</time>
      </trkpt>
      <trkpt lat="50.71911" lon="1.60491">
        <ele>6.5</ele>
        <time>2020-06-22T18:04:55Z</time>
      </trkpt>
      <trkpt lat="50.71915" lon="1.60484">
        <ele>6.4</ele>
        <time>2020-06-22T18:04:56Z</time>
      </trkpt>
      <trkpt lat="50.71917" lon="1.60476">
        <ele>6.3</ele>
        <time>2020-06-22T18:04:57Z</time>
      </trkpt>
      <trkpt lat="50.7192" lon="1.60468">
        <ele>6.3</ele>
        <time>2020-06-22T18:04:58Z</time>
      </trkpt>
      <trkpt lat="50.71925" lon="1.60462">
        <ele>6.2</ele>
        <time>2020-06-22T18:04:59Z</time>
      </trkpt>
      <trkpt lat="50.71931" lon="1.60456">
        <ele>6.2</ele>
        <time>2020-06-22T18:05:00Z</time>
      </trkpt>
      <trkpt lat="50.71936" lon="1.60453">
        <ele>6.1</ele>
        <time>2020-06-22T18:05:01Z</time>
      </trkpt>
      <trkpt lat="50.71942" lon="1.60449">
        <ele>6.1</ele>
        <time>2020-06-22T18:05:02Z</time>
      </trkpt>
      <trkpt lat="50.71948" lon="1.60446">
        <ele>6.1</ele>
        <time>2020-06-22T18:05:03Z</time>
      </trkpt>
      <trkpt lat="50.71955" lon="1.60442">
        <ele>6.1</ele>
        <time>2020-06-22T18:05:04Z</time>
      </trkpt>
      <trkpt lat="50.71962" lon="1.60438">
        <ele>6</ele>
        <time>2020-06-22T18:05:05Z</time>
      </trkpt>
      <trkpt lat="50.71968" lon="1.60435">
        <ele>6</ele>
        <time>2020-06-22T18:05:06Z</time>
      </trkpt>
      <trkpt lat="50.71974" lon="1.60432">
        <ele>6</ele>
        <time>2020-06-22T18:05:07Z</time>
      </trkpt>
      <trkpt lat="50.71979" lon="1.60429">
        <ele>6</ele>
        <time>2020-06-22T18:05:08Z</time>
      </trkpt>
      <trkpt lat="50.71986" lon="1.60425">
        <ele>6.1</ele>
        <time>2020-06-22T18:05:09Z</time>
      </trkpt>
      <trkpt lat="50.71992" lon="1.60421">
        <ele>6.2</ele>
        <time>2020-06-22T18:05:10Z</time>
      </trkpt>
      <trkpt lat="50.71998" lon="1.60417">
        <ele>6.2</ele>
        <time>2020-06-22T18:05:11Z</time>
      </trkpt>
      <trkpt lat="50.72004" lon="1.60412">
        <ele>6.3</ele>
        <time>2020-06-22T18:05:12Z</time>
      </trkpt>
      <trkpt lat="50.72011" lon="1.60408">
        <ele>6.3</ele>
        <time>2020-06-22T18:05:13Z</time>
      </trkpt>
      <trkpt lat="50.72016" lon="1.60403">
        <ele>6.3</ele>
        <time>2020-06-22T18:05:14Z</time>
      </trkpt>
      <trkpt lat="50.72022" lon="1.60399">
        <ele>6.3</ele>
        <time>2020-06-22T18:05:15Z</time>
      </trkpt>
      <trkpt lat="50.72028" lon="1.60394">
        <ele>6.3</ele>
        <time>2020-06-22T18:05:16Z</time>
      </trkpt>
      <trkpt lat="50.72034" lon="1.60391">
        <ele>6.3</ele>
        <time>2020-06-22T18:05:17Z</time>
      </trkpt>
      <trkpt lat="50.7204" lon="1.60387">
        <ele>6.4</ele>
        <time>2020-06-22T18:05:18Z</time>
      </trkpt>
      <trkpt lat="50.72046" lon="1.60382">
        <ele>6.4</ele>
        <time>2020-06-22T18:05:19Z</time>
      </trkpt>
      <trkpt lat="50.72052" lon="1.60378">
        <ele>6.4</ele>
        <time>2020-06-22T18:05:20Z</time>
      </trkpt>
      <trkpt lat="50.72058" lon="1.60373">
        <ele>6.5</ele>
        <time>2020-06-22T18:05:21Z</time>
      </trkpt>
      <trkpt lat="50.72064" lon="1.60369">
        <ele>6.5</ele>
        <time>2020-06-22T18:05:22Z</time>
      </trkpt>
      <trkpt lat="50.7207" lon="1.60365">
        <ele>6.5</ele>
        <time>2020-06-22T18:05:23Z</time>
      </trkpt>
      <trkpt lat="50.72075" lon="1.60361">
        <ele>6.5</ele>
        <time>2020-06-22T18:05:24Z</time>
      </trkpt>
      <trkpt lat="50.72081" lon="1.60356">
        <ele>6.5</ele>
        <time>2020-06-22T18:05:25Z</time>
      </trkpt>
      <trkpt lat="50.72086" lon="1.60352">
        <ele>6.6</ele>
        <time>2020-06-22T18:05:26Z</time>
      </trkpt>
      <trkpt lat="50.72092" lon="1.60348">
        <ele>6.6</ele>
        <time>2020-06-22T18:05:27Z</time>
      </trkpt>
      <trkpt lat="50.72098" lon="1.60344">
        <ele>6.6</ele>
        <time>2020-06-22T18:05:28Z</time>
      </trkpt>
      <trkpt lat="50.72104" lon="1.60339">
        <ele>6.6</ele>
        <time>2020-06-22T18:05:29Z</time>
      </trkpt>
      <trkpt lat="50.7211" lon="1.60334">
        <ele>6.7</ele>
        <time>2020-06-22T18:05:30Z</time>
      </trkpt>
      <trkpt lat="50.72115" lon="1.60331">
        <ele>6.8</ele>
        <time>2020-06-22T18:05:31Z</time>
      </trkpt>
      <trkpt lat="50.72119" lon="1.60328">
        <ele>6.8</ele>
        <time>2020-06-22T18:05:32Z</time>
      </trkpt>
      <trkpt lat="50.72125" lon="1.60323">
        <ele>6.9</ele>
        <time>2020-06-22T18:05:33Z</time>
      </trkpt>
      <trkpt lat="50.72129" lon="1.60319">
        <ele>6.9</ele>
        <time>2020-06-22T18:05:34Z</time>
      </trkpt>
      <trkpt lat="50.72133" lon="1.60314">
        <ele>6.9</ele>
        <time>2020-06-22T18:05:35Z</time>
      </trkpt>
      <trkpt lat="50.72135" lon="1.6031">
        <ele>7</ele>
        <time>2020-06-22T18:05:36Z</time>
      </trkpt>
      <trkpt lat="50.72138" lon="1.60306">
        <ele>7</ele>
        <time>2020-06-22T18:05:37Z</time>
      </trkpt>
      <trkpt lat="50.72141" lon="1.60303">
        <ele>7.1</ele>
        <time>2020-06-22T18:05:38Z</time>
      </trkpt>
      <trkpt lat="50.72144" lon="1.60301">
        <ele>7.1</ele>
        <time>2020-06-22T18:05:39Z</time>
      </trkpt>
      <trkpt lat="50.72148" lon="1.60297">
        <ele>7.1</ele>
        <time>2020-06-22T18:05:40Z</time>
      </trkpt>
      <trkpt lat="50.72151" lon="1.60296">
        <ele>7.1</ele>
        <time>2020-06-22T18:05:41Z</time>
      </trkpt>
      <trkpt lat="50.72152" lon="1.60296">
        <ele>7.1</ele>
        <time>2020-06-22T18:05:42Z</time>
      </trkpt>
      <trkpt lat="50.72155" lon="1.60294">
        <ele>7.2</ele>
        <time>2020-06-22T18:05:43Z</time>
      </trkpt>
      <trkpt lat="50.72157" lon="1.60293">
        <ele>7.2</ele>
        <time>2020-06-22T18:05:44Z</time>
      </trkpt>
      <trkpt lat="50.72159" lon="1.6029">
        <ele>7.2</ele>
        <time>2020-06-22T18:05:45Z</time>
      </trkpt>
      <trkpt lat="50.72162" lon="1.60286">
        <ele>7.2</ele>
        <time>2020-06-22T18:05:46Z</time>
      </trkpt>
      <trkpt lat="50.72165" lon="1.60283">
        <ele>7.3</ele>
        <time>2020-06-22T18:05:47Z</time>
      </trkpt>
      <trkpt lat="50.72168" lon="1.6028">
        <ele>7.3</ele>
        <time>2020-06-22T18:05:48Z</time>
      </trkpt>
      <trkpt lat="50.72172" lon="1.60278">
        <ele>7.3</ele>
        <time>2020-06-22T18:05:49Z</time>
      </trkpt>
      <trkpt lat="50.72176" lon="1.60274">
        <ele>7.2</ele>
        <time>2020-06-22T18:05:50Z</time>
      </trkpt>
      <trkpt lat="50.72181" lon="1.60271">
        <ele>7.1</ele>
        <time>2020-06-22T18:05:51Z</time>
      </trkpt>
      <trkpt lat="50.72185" lon="1.60267">
        <ele>7.1</ele>
        <time>2020-06-22T18:05:52Z</time>
      </trkpt>
      <trkpt lat="50.72191" lon="1.60264">
        <ele>6.9</ele>
        <time>2020-06-22T18:05:53Z</time>
      </trkpt>
      <trkpt lat="50.72195" lon="1.6026">
        <ele>6.9</ele>
        <time>2020-06-22T18:05:54Z</time>
      </trkpt>
      <trkpt lat="50.72201" lon="1.60257">
        <ele>6.8</ele>
        <time>2020-06-22T18:05:55Z</time>
      </trkpt>
      <trkpt lat="50.72206" lon="1.60254">
        <ele>6.8</ele>
        <time>2020-06-22T18:05:56Z</time>
      </trkpt>
      <trkpt lat="50.72212" lon="1.60251">
        <ele>6.7</ele>
        <time>2020-06-22T18:05:57Z</time>
      </trkpt>
      <trkpt lat="50.72217" lon="1.60247">
        <ele>6.7</ele>
        <time>2020-06-22T18:05:58Z</time>
      </trkpt>
      <trkpt lat="50.72224" lon="1.60243">
        <ele>6.6</ele>
        <time>2020-06-22T18:05:59Z</time>
      </trkpt>
      <trkpt lat="50.72229" lon="1.60239">
        <ele>6.6</ele>
        <time>2020-06-22T18:06:00Z</time>
      </trkpt>
      <trkpt lat="50.72235" lon="1.60238">
        <ele>6.6</ele>
        <time>2020-06-22T18:06:01Z</time>
      </trkpt>
      <trkpt lat="50.72242" lon="1.60233">
        <ele>6.6</ele>
        <time>2020-06-22T18:06:02Z</time>
      </trkpt>
      <trkpt lat="50.72248" lon="1.60228">
        <ele>6.6</ele>
        <time>2020-06-22T18:06:03Z</time>
      </trkpt>
      <trkpt lat="50.72253" lon="1.60223">
        <ele>6.6</ele>
        <time>2020-06-22T18:06:04Z</time>
      </trkpt>
      <trkpt lat="50.72259" lon="1.60219">
        <ele>6.5</ele>
        <time>2020-06-22T18:06:05Z</time>
      </trkpt>
      <trkpt lat="50.72264" lon="1.60217">
        <ele>6.5</ele>
        <time>2020-06-22T18:06:06Z</time>
      </trkpt>
      <trkpt lat="50.7227" lon="1.60214">
        <ele>6.5</ele>
        <time>2020-06-22T18:06:07Z</time>
      </trkpt>
      <trkpt lat="50.72276" lon="1.60211">
        <ele>6.5</ele>
        <time>2020-06-22T18:06:08Z</time>
      </trkpt>
      <trkpt lat="50.72281" lon="1.60207">
        <ele>6.7</ele>
        <time>2020-06-22T18:06:09Z</time>
      </trkpt>
      <trkpt lat="50.72286" lon="1.60205">
        <ele>6.6</ele>
        <time>2020-06-22T18:06:10Z</time>
      </trkpt>
      <trkpt lat="50.72293" lon="1.60201">
        <ele>6.5</ele>
        <time>2020-06-22T18:06:11Z</time>
      </trkpt>
      <trkpt lat="50.72299" lon="1.60198">
        <ele>6.5</ele>
        <time>2020-06-22T18:06:12Z</time>
      </trkpt>
      <trkpt lat="50.72306" lon="1.60196">
        <ele>6.7</ele>
        <time>2020-06-22T18:06:13Z</time>
      </trkpt>
      <trkpt lat="50.72312" lon="1.60194">
        <ele>6.7</ele>
        <time>2020-06-22T18:06:14Z</time>
      </trkpt>
      <trkpt lat="50.72317" lon="1.60194">
        <ele>6.7</ele>
        <time>2020-06-22T18:06:15Z</time>
      </trkpt>
      <trkpt lat="50.72324" lon="1.60191">
        <ele>6.7</ele>
        <time>2020-06-22T18:06:16Z</time>
      </trkpt>
      <trkpt lat="50.72329" lon="1.6019">
        <ele>6.8</ele>
        <time>2020-06-22T18:06:17Z</time>
      </trkpt>
      <trkpt lat="50.72334" lon="1.60189">
        <ele>6.9</ele>
        <time>2020-06-22T18:06:18Z</time>
      </trkpt>
      <trkpt lat="50.7234" lon="1.60189">
        <ele>6.9</ele>
        <time>2020-06-22T18:06:19Z</time>
      </trkpt>
      <trkpt lat="50.72346" lon="1.60188">
        <ele>7</ele>
        <time>2020-06-22T18:06:20Z</time>
      </trkpt>
      <trkpt lat="50.72351" lon="1.60187">
        <ele>7</ele>
        <time>2020-06-22T18:06:21Z</time>
      </trkpt>
      <trkpt lat="50.72356" lon="1.60186">
        <ele>7.1</ele>
        <time>2020-06-22T18:06:22Z</time>
      </trkpt>
      <trkpt lat="50.72361" lon="1.60185">
        <ele>7.1</ele>
        <time>2020-06-22T18:06:23Z</time>
      </trkpt>
      <trkpt lat="50.72367" lon="1.60184">
        <ele>7.2</ele>
        <time>2020-06-22T18:06:24Z</time>
      </trkpt>
      <trkpt lat="50.72373" lon="1.60183">
        <ele>7.2</ele>
        <time>2020-06-22T18:06:25Z</time>
      </trkpt>
      <trkpt lat="50.72378" lon="1.60182">
        <ele>7.1</ele>
        <time>2020-06-22T18:06:26Z</time>
      </trkpt>
      <trkpt lat="50.72384" lon="1.6018">
        <ele>7.1</ele>
        <time>2020-06-22T18:06:27Z</time>
      </trkpt>
      <trkpt lat="50.7239" lon="1.60179">
        <ele>7.1</ele>
        <time>2020-06-22T18:06:28Z</time>
      </trkpt>
      <trkpt lat="50.72396" lon="1.60178">
        <ele>7</ele>
        <time>2020-06-22T18:06:29Z</time>
      </trkpt>
      <trkpt lat="50.72402" lon="1.60177">
        <ele>6.9</ele>
        <time>2020-06-22T18:06:30Z</time>
      </trkpt>
      <trkpt lat="50.72407" lon="1.60176">
        <ele>6.9</ele>
        <time>2020-06-22T18:06:31Z</time>
      </trkpt>
      <trkpt lat="50.72413" lon="1.60176">
        <ele>6.8</ele>
        <time>2020-06-22T18:06:32Z</time>
      </trkpt>
      <trkpt lat="50.72419" lon="1.60175">
        <ele>6.8</ele>
        <time>2020-06-22T18:06:33Z</time>
      </trkpt>
      <trkpt lat="50.72424" lon="1.60173">
        <ele>6.7</ele>
        <time>2020-06-22T18:06:34Z</time>
      </trkpt>
      <trkpt lat="50.72431" lon="1.60171">
        <ele>6.7</ele>
        <time>2020-06-22T18:06:35Z</time>
      </trkpt>
      <trkpt lat="50.72436" lon="1.6017">
        <ele>6.6</ele>
        <time>2020-06-22T18:06:36Z</time>
      </trkpt>
      <trkpt lat="50.72441" lon="1.60168">
        <ele>6.6</ele>
        <time>2020-06-22T18:06:37Z</time>
      </trkpt>
      <trkpt lat="50.72446" lon="1.60169">
        <ele>6.6</ele>
        <time>2020-06-22T18:06:38Z</time>
      </trkpt>
      <trkpt lat="50.72448" lon="1.60169">
        <ele>6.6</ele>
        <time>2020-06-22T18:06:39Z</time>
      </trkpt>
      <trkpt lat="50.72451" lon="1.60171">
        <ele>7.3</ele>
        <time>2020-06-22T18:06:40Z</time>
      </trkpt>
      <trkpt lat="50.72454" lon="1.60173">
        <ele>7.3</ele>
        <time>2020-06-22T18:06:41Z</time>
      </trkpt>
      <trkpt lat="50.72457" lon="1.60177">
        <ele>7.3</ele>
        <time>2020-06-22T18:06:42Z</time>
      </trkpt>
      <trkpt lat="50.7246" lon="1.6018">
        <ele>7.3</ele>
        <time>2020-06-22T18:06:43Z</time>
      </trkpt>
      <trkpt lat="50.72461" lon="1.60182">
        <ele>7.3</ele>
        <time>2020-06-22T18:06:44Z</time>
      </trkpt>
      <trkpt lat="50.72462" lon="1.60187">
        <ele>7.3</ele>
        <time>2020-06-22T18:06:45Z</time>
      </trkpt>
      <trkpt lat="50.72462" lon="1.60188">
        <ele>7.3</ele>
        <time>2020-06-22T18:06:46Z</time>
      </trkpt>
      <trkpt lat="50.72463" lon="1.60189">
        <ele>7.3</ele>
        <time>2020-06-22T18:06:47Z</time>
      </trkpt>
      <trkpt lat="50.72464" lon="1.60189">
        <ele>7.3</ele>
        <time>2020-06-22T18:06:48Z</time>
      </trkpt>
      <trkpt lat="50.72464" lon="1.60188">
        <ele>7.3</ele>
        <time>2020-06-22T18:06:49Z</time>
      </trkpt>
      <trkpt lat="50.72465" lon="1.60187">
        <ele>7.3</ele>
        <time>2020-06-22T18:06:50Z</time>
      </trkpt>
      <trkpt lat="50.72464" lon="1.60187">
        <ele>7.3</ele>
        <time>2020-06-22T18:06:51Z</time>
      </trkpt>
      <trkpt lat="50.72464" lon="1.60187">
        <ele>7.3</ele>
        <time>2020-06-22T18:06:52Z</time>
      </trkpt>
      <trkpt lat="50.72464" lon="1.60187">
        <ele>7.3</ele>
        <time>2020-06-22T18:06:53Z</time>
      </trkpt>
      <trkpt lat="50.72464" lon="1.60187">
        <ele>7.3</ele>
        <time>2020-06-22T18:06:54Z</time>
      </trkpt>
      <trkpt lat="50.72464" lon="1.60187">
        <ele>7.3</ele>
        <time>2020-06-22T18:06:55Z</time>
      </trkpt>
      <trkpt lat="50.72465" lon="1.60187">
        <ele>7.3</ele>
        <time>2020-06-22T18:06:56Z</time>
      </trkpt>
      <trkpt lat="50.72468" lon="1.60192">
        <ele>7.4</ele>
        <time>2020-06-22T18:07:02Z</time>
      </trkpt>
      <trkpt lat="50.7247" lon="1.60194">
        <ele>7.5</ele>
        <time>2020-06-22T18:07:03Z</time>
      </trkpt>
      <trkpt lat="50.72472" lon="1.60198">
        <ele>7.6</ele>
        <time>2020-06-22T18:07:04Z</time>
      </trkpt>
      <trkpt lat="50.72473" lon="1.60199">
        <ele>7.7</ele>
        <time>2020-06-22T18:07:05Z</time>
      </trkpt>
      <trkpt lat="50.72474" lon="1.60203">
        <ele>7.8</ele>
        <time>2020-06-22T18:07:06Z</time>
      </trkpt>
      <trkpt lat="50.72477" lon="1.60207">
        <ele>8</ele>
        <time>2020-06-22T18:07:07Z</time>
      </trkpt>
      <trkpt lat="50.72479" lon="1.60211">
        <ele>8.1</ele>
        <time>2020-06-22T18:07:08Z</time>
      </trkpt>
      <trkpt lat="50.72481" lon="1.60214">
        <ele>8.3</ele>
        <time>2020-06-22T18:07:09Z</time>
      </trkpt>
      <trkpt lat="50.72483" lon="1.60218">
        <ele>8.4</ele>
        <time>2020-06-22T18:07:10Z</time>
      </trkpt>
      <trkpt lat="50.72484" lon="1.6022">
        <ele>8.5</ele>
        <time>2020-06-22T18:07:11Z</time>
      </trkpt>
      <trkpt lat="50.72487" lon="1.60224">
        <ele>8.6</ele>
        <time>2020-06-22T18:07:12Z</time>
      </trkpt>
      <trkpt lat="50.7249" lon="1.60228">
        <ele>8.8</ele>
        <time>2020-06-22T18:07:13Z</time>
      </trkpt>
      <trkpt lat="50.72492" lon="1.60233">
        <ele>9</ele>
        <time>2020-06-22T18:07:14Z</time>
      </trkpt>
      <trkpt lat="50.72495" lon="1.60238">
        <ele>9.2</ele>
        <time>2020-06-22T18:07:15Z</time>
      </trkpt>
      <trkpt lat="50.72497" lon="1.60245">
        <ele>9.3</ele>
        <time>2020-06-22T18:07:16Z</time>
      </trkpt>
      <trkpt lat="50.725" lon="1.6025">
        <ele>9.3</ele>
        <time>2020-06-22T18:07:17Z</time>
      </trkpt>
      <trkpt lat="50.72504" lon="1.60256">
        <ele>9.3</ele>
        <time>2020-06-22T18:07:18Z</time>
      </trkpt>
      <trkpt lat="50.72508" lon="1.60263">
        <ele>9.3</ele>
        <time>2020-06-22T18:07:19Z</time>
      </trkpt>
      <trkpt lat="50.72512" lon="1.6027">
        <ele>9.3</ele>
        <time>2020-06-22T18:07:20Z</time>
      </trkpt>
      <trkpt lat="50.72516" lon="1.60278">
        <ele>9.4</ele>
        <time>2020-06-22T18:07:21Z</time>
      </trkpt>
      <trkpt lat="50.7252" lon="1.60284">
        <ele>9.4</ele>
        <time>2020-06-22T18:07:22Z</time>
      </trkpt>
      <trkpt lat="50.72523" lon="1.60291">
        <ele>9.5</ele>
        <time>2020-06-22T18:07:23Z</time>
      </trkpt>
      <trkpt lat="50.72526" lon="1.60299">
        <ele>9.6</ele>
        <time>2020-06-22T18:07:24Z</time>
      </trkpt>
      <trkpt lat="50.72529" lon="1.60306">
        <ele>9.7</ele>
        <time>2020-06-22T18:07:25Z</time>
      </trkpt>
      <trkpt lat="50.72534" lon="1.60311">
        <ele>9.7</ele>
        <time>2020-06-22T18:07:26Z</time>
      </trkpt>
      <trkpt lat="50.72537" lon="1.60318">
        <ele>9.8</ele>
        <time>2020-06-22T18:07:27Z</time>
      </trkpt>
      <trkpt lat="50.7254" lon="1.60325">
        <ele>9.9</ele>
        <time>2020-06-22T18:07:28Z</time>
      </trkpt>
      <trkpt lat="50.72543" lon="1.6033">
        <ele>10</ele>
        <time>2020-06-22T18:07:29Z</time>
      </trkpt>
      <trkpt lat="50.72545" lon="1.60334">
        <ele>10</ele>
        <time>2020-06-22T18:07:30Z</time>
      </trkpt>
      <trkpt lat="50.72547" lon="1.60338">
        <ele>10.1</ele>
        <time>2020-06-22T18:07:31Z</time>
      </trkpt>
      <trkpt lat="50.7255" lon="1.60343">
        <ele>10.2</ele>
        <time>2020-06-22T18:07:32Z</time>
      </trkpt>
      <trkpt lat="50.72552" lon="1.60348">
        <ele>10.2</ele>
        <time>2020-06-22T18:07:33Z</time>
      </trkpt>
      <trkpt lat="50.72554" lon="1.60353">
        <ele>10.3</ele>
        <time>2020-06-22T18:07:34Z</time>
      </trkpt>
      <trkpt lat="50.72557" lon="1.60355">
        <ele>10.4</ele>
        <time>2020-06-22T18:07:35Z</time>
      </trkpt>
      <trkpt lat="50.72561" lon="1.60354">
        <ele>10.6</ele>
        <time>2020-06-22T18:07:36Z</time>
      </trkpt>
      <trkpt lat="50.72564" lon="1.6035">
        <ele>10.7</ele>
        <time>2020-06-22T18:07:37Z</time>
      </trkpt>
      <trkpt lat="50.72567" lon="1.60346">
        <ele>10.9</ele>
        <time>2020-06-22T18:07:38Z</time>
      </trkpt>
      <trkpt lat="50.72569" lon="1.60343">
        <ele>11</ele>
        <time>2020-06-22T18:07:39Z</time>
      </trkpt>
      <trkpt lat="50.7257" lon="1.60341">
        <ele>11</ele>
        <time>2020-06-22T18:07:40Z</time>
      </trkpt>
      <trkpt lat="50.72571" lon="1.60339">
        <ele>11.1</ele>
        <time>2020-06-22T18:07:41Z</time>
      </trkpt>
      <trkpt lat="50.72574" lon="1.60334">
        <ele>11.3</ele>
        <time>2020-06-22T18:07:42Z</time>
      </trkpt>
      <trkpt lat="50.72575" lon="1.60332">
        <ele>11.4</ele>
        <time>2020-06-22T18:07:43Z</time>
      </trkpt>
      <trkpt lat="50.72577" lon="1.60328">
        <ele>11.5</ele>
        <time>2020-06-22T18:07:44Z</time>
      </trkpt>
      <trkpt lat="50.7258" lon="1.60323">
        <ele>11.7</ele>
        <time>2020-06-22T18:07:45Z</time>
      </trkpt>
      <trkpt lat="50.72579" lon="1.60318">
        <ele>11.8</ele>
        <time>2020-06-22T18:07:46Z</time>
      </trkpt>
      <trkpt lat="50.72581" lon="1.60314">
        <ele>11.9</ele>
        <time>2020-06-22T18:07:47Z</time>
      </trkpt>
      <trkpt lat="50.72584" lon="1.6031">
        <ele>12.1</ele>
        <time>2020-06-22T18:07:48Z</time>
      </trkpt>
      <trkpt lat="50.72587" lon="1.60306">
        <ele>12.2</ele>
        <time>2020-06-22T18:07:49Z</time>
      </trkpt>
      <trkpt lat="50.7259" lon="1.60302">
        <ele>12.4</ele>
        <time>2020-06-22T18:07:50Z</time>
      </trkpt>
      <trkpt lat="50.72592" lon="1.60298">
        <ele>12.5</ele>
        <time>2020-06-22T18:07:51Z</time>
      </trkpt>
      <trkpt lat="50.72595" lon="1.60294">
        <ele>12.6</ele>
        <time>2020-06-22T18:07:52Z</time>
      </trkpt>
      <trkpt lat="50.72596" lon="1.60292">
        <ele>12.7</ele>
        <time>2020-06-22T18:07:53Z</time>
      </trkpt>
      <trkpt lat="50.726" lon="1.6029">
        <ele>12.8</ele>
        <time>2020-06-22T18:07:54Z</time>
      </trkpt>
      <trkpt lat="50.72602" lon="1.6029">
        <ele>12.9</ele>
        <time>2020-06-22T18:07:55Z</time>
      </trkpt>
      <trkpt lat="50.72608" lon="1.60297">
        <ele>13.1</ele>
        <time>2020-06-22T18:07:56Z</time>
      </trkpt>
      <trkpt lat="50.72611" lon="1.60296">
        <ele>13.2</ele>
        <time>2020-06-22T18:07:57Z</time>
      </trkpt>
      <trkpt lat="50.72612" lon="1.60296">
        <ele>13.2</ele>
        <time>2020-06-22T18:07:58Z</time>
      </trkpt>
      <trkpt lat="50.72615" lon="1.60295">
        <ele>13.6</ele>
        <time>2020-06-22T18:07:59Z</time>
      </trkpt>
      <trkpt lat="50.72618" lon="1.603">
        <ele>14.1</ele>
        <time>2020-06-22T18:08:00Z</time>
      </trkpt>
      <trkpt lat="50.72622" lon="1.60298">
        <ele>14.6</ele>
        <time>2020-06-22T18:08:01Z</time>
      </trkpt>
      <trkpt lat="50.72624" lon="1.60296">
        <ele>14.8</ele>
        <time>2020-06-22T18:08:02Z</time>
      </trkpt>
      <trkpt lat="50.72627" lon="1.60295">
        <ele>15.1</ele>
        <time>2020-06-22T18:08:03Z</time>
      </trkpt>
      <trkpt lat="50.72629" lon="1.60293">
        <ele>15.4</ele>
        <time>2020-06-22T18:08:04Z</time>
      </trkpt>
      <trkpt lat="50.72633" lon="1.60292">
        <ele>15.8</ele>
        <time>2020-06-22T18:08:05Z</time>
      </trkpt>
      <trkpt lat="50.72635" lon="1.60291">
        <ele>15.9</ele>
        <time>2020-06-22T18:08:06Z</time>
      </trkpt>
      <trkpt lat="50.72638" lon="1.6029">
        <ele>16.2</ele>
        <time>2020-06-22T18:08:07Z</time>
      </trkpt>
      <trkpt lat="50.72642" lon="1.60292">
        <ele>16.7</ele>
        <time>2020-06-22T18:08:08Z</time>
      </trkpt>
      <trkpt lat="50.72644" lon="1.60294">
        <ele>16.9</ele>
        <time>2020-06-22T18:08:09Z</time>
      </trkpt>
      <trkpt lat="50.72648" lon="1.60296">
        <ele>17.3</ele>
        <time>2020-06-22T18:08:10Z</time>
      </trkpt>
      <trkpt lat="50.72651" lon="1.60297">
        <ele>17.6</ele>
        <time>2020-06-22T18:08:11Z</time>
      </trkpt>
      <trkpt lat="50.72654" lon="1.60296">
        <ele>18.2</ele>
        <time>2020-06-22T18:08:12Z</time>
      </trkpt>
      <trkpt lat="50.72657" lon="1.60295">
        <ele>18.6</ele>
        <time>2020-06-22T18:08:13Z</time>
      </trkpt>
      <trkpt lat="50.72658" lon="1.60294">
        <ele>18.7</ele>
        <time>2020-06-22T18:08:14Z</time>
      </trkpt>
      <trkpt lat="50.72661" lon="1.60292">
        <ele>19</ele>
        <time>2020-06-22T18:08:15Z</time>
      </trkpt>
      <trkpt lat="50.72661" lon="1.60291">
        <ele>19.2</ele>
        <time>2020-06-22T18:08:16Z</time>
      </trkpt>
      <trkpt lat="50.72664" lon="1.6029">
        <ele>19.9</ele>
        <time>2020-06-22T18:08:17Z</time>
      </trkpt>
      <trkpt lat="50.72665" lon="1.60289">
        <ele>19.9</ele>
        <time>2020-06-22T18:08:18Z</time>
      </trkpt>
      <trkpt lat="50.72668" lon="1.60287">
        <ele>20</ele>
        <time>2020-06-22T18:08:19Z</time>
      </trkpt>
      <trkpt lat="50.72671" lon="1.60285">
        <ele>20.1</ele>
        <time>2020-06-22T18:08:20Z</time>
      </trkpt>
      <trkpt lat="50.72673" lon="1.60283">
        <ele>20.2</ele>
        <time>2020-06-22T18:08:21Z</time>
      </trkpt>
      <trkpt lat="50.72676" lon="1.60282">
        <ele>20.5</ele>
        <time>2020-06-22T18:08:22Z</time>
      </trkpt>
      <trkpt lat="50.7268" lon="1.60282">
        <ele>21</ele>
        <time>2020-06-22T18:08:23Z</time>
      </trkpt>
      <trkpt lat="50.72681" lon="1.60281">
        <ele>21.1</ele>
        <time>2020-06-22T18:08:24Z</time>
      </trkpt>
      <trkpt lat="50.72684" lon="1.60279">
        <ele>21.5</ele>
        <time>2020-06-22T18:08:25Z</time>
      </trkpt>
      <trkpt lat="50.72686" lon="1.60278">
        <ele>21.7</ele>
        <time>2020-06-22T18:08:26Z</time>
      </trkpt>
      <trkpt lat="50.7269" lon="1.60278">
        <ele>22.1</ele>
        <time>2020-06-22T18:08:27Z</time>
      </trkpt>
      <trkpt lat="50.72693" lon="1.60275">
        <ele>22.5</ele>
        <time>2020-06-22T18:08:28Z</time>
      </trkpt>
      <trkpt lat="50.72694" lon="1.60274">
        <ele>22.7</ele>
        <time>2020-06-22T18:08:29Z</time>
      </trkpt>
      <trkpt lat="50.72697" lon="1.60273">
        <ele>23</ele>
        <time>2020-06-22T18:08:30Z</time>
      </trkpt>
      <trkpt lat="50.72699" lon="1.60273">
        <ele>23.2</ele>
        <time>2020-06-22T18:08:31Z</time>
      </trkpt>
      <trkpt lat="50.72704" lon="1.60277">
        <ele>23.8</ele>
        <time>2020-06-22T18:08:32Z</time>
      </trkpt>
      <trkpt lat="50.72709" lon="1.60279">
        <ele>24.3</ele>
        <time>2020-06-22T18:08:33Z</time>
      </trkpt>
      <trkpt lat="50.72712" lon="1.6028">
        <ele>24.6</ele>
        <time>2020-06-22T18:08:34Z</time>
      </trkpt>
      <trkpt lat="50.72713" lon="1.60281">
        <ele>24.8</ele>
        <time>2020-06-22T18:08:35Z</time>
      </trkpt>
      <trkpt lat="50.72716" lon="1.60282">
        <ele>25.2</ele>
        <time>2020-06-22T18:08:36Z</time>
      </trkpt>
      <trkpt lat="50.72716" lon="1.60282">
        <ele>25.2</ele>
        <time>2020-06-22T18:08:37Z</time>
      </trkpt>
      <trkpt lat="50.72719" lon="1.6028">
        <ele>25.5</ele>
        <time>2020-06-22T18:08:38Z</time>
      </trkpt>
      <trkpt lat="50.72722" lon="1.60277">
        <ele>25.8</ele>
        <time>2020-06-22T18:08:39Z</time>
      </trkpt>
      <trkpt lat="50.72723" lon="1.60276">
        <ele>25.9</ele>
        <time>2020-06-22T18:08:40Z</time>
      </trkpt>
      <trkpt lat="50.72726" lon="1.60275">
        <ele>26.2</ele>
        <time>2020-06-22T18:08:41Z</time>
      </trkpt>
      <trkpt lat="50.72727" lon="1.60275">
        <ele>26.3</ele>
        <time>2020-06-22T18:08:42Z</time>
      </trkpt>
      <trkpt lat="50.7273" lon="1.60274">
        <ele>26.5</ele>
        <time>2020-06-22T18:08:43Z</time>
      </trkpt>
      <trkpt lat="50.72731" lon="1.60273">
        <ele>26.6</ele>
        <time>2020-06-22T18:08:44Z</time>
      </trkpt>
      <trkpt lat="50.72734" lon="1.60272">
        <ele>26.9</ele>
        <time>2020-06-22T18:08:45Z</time>
      </trkpt>
      <trkpt lat="50.72736" lon="1.60272">
        <ele>27</ele>
        <time>2020-06-22T18:08:46Z</time>
      </trkpt>
      <trkpt lat="50.72739" lon="1.60272">
        <ele>27.4</ele>
        <time>2020-06-22T18:08:47Z</time>
      </trkpt>
      <trkpt lat="50.72742" lon="1.6027">
        <ele>27.7</ele>
        <time>2020-06-22T18:08:48Z</time>
      </trkpt>
      <trkpt lat="50.72743" lon="1.6027">
        <ele>27.8</ele>
        <time>2020-06-22T18:08:49Z</time>
      </trkpt>
      <trkpt lat="50.72746" lon="1.60266">
        <ele>28.1</ele>
        <time>2020-06-22T18:08:50Z</time>
      </trkpt>
      <trkpt lat="50.72747" lon="1.60265">
        <ele>28.2</ele>
        <time>2020-06-22T18:08:51Z</time>
      </trkpt>
      <trkpt lat="50.72749" lon="1.60262">
        <ele>28.4</ele>
        <time>2020-06-22T18:08:52Z</time>
      </trkpt>
      <trkpt lat="50.72752" lon="1.60261">
        <ele>28.7</ele>
        <time>2020-06-22T18:08:53Z</time>
      </trkpt>
      <trkpt lat="50.72755" lon="1.60259">
        <ele>29</ele>
        <time>2020-06-22T18:08:54Z</time>
      </trkpt>
      <trkpt lat="50.72758" lon="1.60256">
        <ele>29.3</ele>
        <time>2020-06-22T18:08:55Z</time>
      </trkpt>
      <trkpt lat="50.72759" lon="1.60255">
        <ele>29.4</ele>
        <time>2020-06-22T18:08:56Z</time>
      </trkpt>
      <trkpt lat="50.72762" lon="1.60252">
        <ele>29.7</ele>
        <time>2020-06-22T18:08:57Z</time>
      </trkpt>
      <trkpt lat="50.72765" lon="1.60248">
        <ele>30</ele>
        <time>2020-06-22T18:08:58Z</time>
      </trkpt>
      <trkpt lat="50.72766" lon="1.60246">
        <ele>30.1</ele>
        <time>2020-06-22T18:08:59Z</time>
      </trkpt>
      <trkpt lat="50.72768" lon="1.60244">
        <ele>30.3</ele>
        <time>2020-06-22T18:09:00Z</time>
      </trkpt>
      <trkpt lat="50.72771" lon="1.60242">
        <ele>30.6</ele>
        <time>2020-06-22T18:09:01Z</time>
      </trkpt>
      <trkpt lat="50.72774" lon="1.60238">
        <ele>30.9</ele>
        <time>2020-06-22T18:09:02Z</time>
      </trkpt>
      <trkpt lat="50.72775" lon="1.60237">
        <ele>31</ele>
        <time>2020-06-22T18:09:03Z</time>
      </trkpt>
      <trkpt lat="50.72777" lon="1.60234">
        <ele>31.3</ele>
        <time>2020-06-22T18:09:04Z</time>
      </trkpt>
      <trkpt lat="50.7278" lon="1.6023">
        <ele>31.6</ele>
        <time>2020-06-22T18:09:05Z</time>
      </trkpt>
      <trkpt lat="50.72782" lon="1.60228">
        <ele>31.9</ele>
        <time>2020-06-22T18:09:06Z</time>
      </trkpt>
      <trkpt lat="50.72785" lon="1.60225">
        <ele>32.1</ele>
        <time>2020-06-22T18:09:07Z</time>
      </trkpt>
      <trkpt lat="50.72788" lon="1.60224">
        <ele>32.4</ele>
        <time>2020-06-22T18:09:08Z</time>
      </trkpt>
      <trkpt lat="50.7279" lon="1.6022">
        <ele>32.6</ele>
        <time>2020-06-22T18:09:09Z</time>
      </trkpt>
      <trkpt lat="50.72793" lon="1.60219">
        <ele>32.8</ele>
        <time>2020-06-22T18:09:10Z</time>
      </trkpt>
      <trkpt lat="50.72794" lon="1.60218">
        <ele>32.9</ele>
        <time>2020-06-22T18:09:11Z</time>
      </trkpt>
      <trkpt lat="50.72797" lon="1.60216">
        <ele>33.2</ele>
        <time>2020-06-22T18:09:12Z</time>
      </trkpt>
      <trkpt lat="50.72799" lon="1.60215">
        <ele>33.4</ele>
        <time>2020-06-22T18:09:13Z</time>
      </trkpt>
      <trkpt lat="50.72802" lon="1.60212">
        <ele>33.6</ele>
        <time>2020-06-22T18:09:14Z</time>
      </trkpt>
      <trkpt lat="50.72803" lon="1.60211">
        <ele>33.7</ele>
        <time>2020-06-22T18:09:15Z</time>
      </trkpt>
      <trkpt lat="50.72806" lon="1.60209">
        <ele>34</ele>
        <time>2020-06-22T18:09:16Z</time>
      </trkpt>
      <trkpt lat="50.72809" lon="1.60207">
        <ele>34.2</ele>
        <time>2020-06-22T18:09:17Z</time>
      </trkpt>
      <trkpt lat="50.72813" lon="1.60205">
        <ele>34.6</ele>
        <time>2020-06-22T18:09:18Z</time>
      </trkpt>
      <trkpt lat="50.72814" lon="1.60205">
        <ele>34.7</ele>
        <time>2020-06-22T18:09:19Z</time>
      </trkpt>
      <trkpt lat="50.72817" lon="1.60202">
        <ele>35</ele>
        <time>2020-06-22T18:09:20Z</time>
      </trkpt>
      <trkpt lat="50.72819" lon="1.60201">
        <ele>35.1</ele>
        <time>2020-06-22T18:09:21Z</time>
      </trkpt>
      <trkpt lat="50.72822" lon="1.60199">
        <ele>35.4</ele>
        <time>2020-06-22T18:09:22Z</time>
      </trkpt>
      <trkpt lat="50.72825" lon="1.60196">
        <ele>35.7</ele>
        <time>2020-06-22T18:09:23Z</time>
      </trkpt>
      <trkpt lat="50.72826" lon="1.60195">
        <ele>35.7</ele>
        <time>2020-06-22T18:09:24Z</time>
      </trkpt>
      <trkpt lat="50.72829" lon="1.60192">
        <ele>36</ele>
        <time>2020-06-22T18:09:25Z</time>
      </trkpt>
      <trkpt lat="50.7283" lon="1.6019">
        <ele>36.2</ele>
        <time>2020-06-22T18:09:26Z</time>
      </trkpt>
      <trkpt lat="50.72834" lon="1.60189">
        <ele>36.5</ele>
        <time>2020-06-22T18:09:27Z</time>
      </trkpt>
      <trkpt lat="50.72836" lon="1.60188">
        <ele>36.6</ele>
        <time>2020-06-22T18:09:28Z</time>
      </trkpt>
      <trkpt lat="50.72839" lon="1.60189">
        <ele>36.8</ele>
        <time>2020-06-22T18:09:29Z</time>
      </trkpt>
      <trkpt lat="50.72842" lon="1.60188">
        <ele>37.2</ele>
        <time>2020-06-22T18:09:30Z</time>
      </trkpt>
      <trkpt lat="50.72844" lon="1.60188">
        <ele>37.3</ele>
        <time>2020-06-22T18:09:31Z</time>
      </trkpt>
      <trkpt lat="50.72848" lon="1.60187">
        <ele>37.6</ele>
        <time>2020-06-22T18:09:32Z</time>
      </trkpt>
      <trkpt lat="50.72849" lon="1.60186">
        <ele>37.7</ele>
        <time>2020-06-22T18:09:33Z</time>
      </trkpt>
      <trkpt lat="50.72852" lon="1.60185">
        <ele>37.9</ele>
        <time>2020-06-22T18:09:34Z</time>
      </trkpt>
      <trkpt lat="50.72856" lon="1.60184">
        <ele>38.2</ele>
        <time>2020-06-22T18:09:35Z</time>
      </trkpt>
      <trkpt lat="50.72857" lon="1.60184">
        <ele>38.4</ele>
        <time>2020-06-22T18:09:36Z</time>
      </trkpt>
      <trkpt lat="50.7286" lon="1.60182">
        <ele>38.7</ele>
        <time>2020-06-22T18:09:37Z</time>
      </trkpt>
      <trkpt lat="50.72864" lon="1.60182">
        <ele>39</ele>
        <time>2020-06-22T18:09:38Z</time>
      </trkpt>
      <trkpt lat="50.72867" lon="1.6018">
        <ele>39.3</ele>
        <time>2020-06-22T18:09:39Z</time>
      </trkpt>
      <trkpt lat="50.7287" lon="1.60179">
        <ele>39.6</ele>
        <time>2020-06-22T18:09:40Z</time>
      </trkpt>
      <trkpt lat="50.72873" lon="1.60176">
        <ele>40.1</ele>
        <time>2020-06-22T18:09:41Z</time>
      </trkpt>
      <trkpt lat="50.72874" lon="1.60175">
        <ele>40.2</ele>
        <time>2020-06-22T18:09:42Z</time>
      </trkpt>
      <trkpt lat="50.72878" lon="1.60173">
        <ele>40.5</ele>
        <time>2020-06-22T18:09:43Z</time>
      </trkpt>
      <trkpt lat="50.72879" lon="1.60173">
        <ele>40.5</ele>
        <time>2020-06-22T18:09:44Z</time>
      </trkpt>
      <trkpt lat="50.72882" lon="1.60172">
        <ele>40.7</ele>
        <time>2020-06-22T18:09:45Z</time>
      </trkpt>
      <trkpt lat="50.72886" lon="1.60173">
        <ele>41</ele>
        <time>2020-06-22T18:09:46Z</time>
      </trkpt>
      <trkpt lat="50.7289" lon="1.60176">
        <ele>41.3</ele>
        <time>2020-06-22T18:09:47Z</time>
      </trkpt>
      <trkpt lat="50.72894" lon="1.6018">
        <ele>41.6</ele>
        <time>2020-06-22T18:09:48Z</time>
      </trkpt>
      <trkpt lat="50.72896" lon="1.60181">
        <ele>41.8</ele>
        <time>2020-06-22T18:09:49Z</time>
      </trkpt>
      <trkpt lat="50.729" lon="1.60179">
        <ele>42.3</ele>
        <time>2020-06-22T18:09:50Z</time>
      </trkpt>
      <trkpt lat="50.72901" lon="1.60178">
        <ele>42.5</ele>
        <time>2020-06-22T18:09:51Z</time>
      </trkpt>
      <trkpt lat="50.72904" lon="1.60176">
        <ele>42.9</ele>
        <time>2020-06-22T18:09:52Z</time>
      </trkpt>
      <trkpt lat="50.72905" lon="1.60176">
        <ele>43</ele>
        <time>2020-06-22T18:09:53Z</time>
      </trkpt>
      <trkpt lat="50.72909" lon="1.60174">
        <ele>43.4</ele>
        <time>2020-06-22T18:09:54Z</time>
      </trkpt>
      <trkpt lat="50.7291" lon="1.60173">
        <ele>43.5</ele>
        <time>2020-06-22T18:09:55Z</time>
      </trkpt>
      <trkpt lat="50.72913" lon="1.6017">
        <ele>43.9</ele>
        <time>2020-06-22T18:09:56Z</time>
      </trkpt>
      <trkpt lat="50.72915" lon="1.60169">
        <ele>44.2</ele>
        <time>2020-06-22T18:09:57Z</time>
      </trkpt>
      <trkpt lat="50.72918" lon="1.60167">
        <ele>44.5</ele>
        <time>2020-06-22T18:09:58Z</time>
      </trkpt>
      <trkpt lat="50.7292" lon="1.60166">
        <ele>44.7</ele>
        <time>2020-06-22T18:09:59Z</time>
      </trkpt>
      <trkpt lat="50.72922" lon="1.60163">
        <ele>45</ele>
        <time>2020-06-22T18:10:00Z</time>
      </trkpt>
      <trkpt lat="50.72925" lon="1.6016">
        <ele>45.3</ele>
        <time>2020-06-22T18:10:01Z</time>
      </trkpt>
      <trkpt lat="50.72926" lon="1.6016">
        <ele>45.4</ele>
        <time>2020-06-22T18:10:02Z</time>
      </trkpt>
      <trkpt lat="50.72928" lon="1.60157">
        <ele>45.8</ele>
        <time>2020-06-22T18:10:03Z</time>
      </trkpt>
      <trkpt lat="50.72931" lon="1.60154">
        <ele>46.1</ele>
        <time>2020-06-22T18:10:04Z</time>
      </trkpt>
      <trkpt lat="50.72932" lon="1.60153">
        <ele>46.2</ele>
        <time>2020-06-22T18:10:05Z</time>
      </trkpt>
      <trkpt lat="50.72934" lon="1.60153">
        <ele>46.6</ele>
        <time>2020-06-22T18:10:06Z</time>
      </trkpt>
      <trkpt lat="50.72935" lon="1.60152">
        <ele>46.7</ele>
        <time>2020-06-22T18:10:07Z</time>
      </trkpt>
      <trkpt lat="50.72938" lon="1.60151">
        <ele>47</ele>
        <time>2020-06-22T18:10:08Z</time>
      </trkpt>
      <trkpt lat="50.7294" lon="1.6015">
        <ele>47.2</ele>
        <time>2020-06-22T18:10:09Z</time>
      </trkpt>
      <trkpt lat="50.72943" lon="1.60148">
        <ele>47.6</ele>
        <time>2020-06-22T18:10:10Z</time>
      </trkpt>
      <trkpt lat="50.72946" lon="1.60147">
        <ele>48</ele>
        <time>2020-06-22T18:10:11Z</time>
      </trkpt>
      <trkpt lat="50.72947" lon="1.60147">
        <ele>48.1</ele>
        <time>2020-06-22T18:10:12Z</time>
      </trkpt>
      <trkpt lat="50.7295" lon="1.60147">
        <ele>48.5</ele>
        <time>2020-06-22T18:10:13Z</time>
      </trkpt>
      <trkpt lat="50.72951" lon="1.60148">
        <ele>48.6</ele>
        <time>2020-06-22T18:10:14Z</time>
      </trkpt>
      <trkpt lat="50.72955" lon="1.60156">
        <ele>49.5</ele>
        <time>2020-06-22T18:10:15Z</time>
      </trkpt>
      <trkpt lat="50.72957" lon="1.60156">
        <ele>49.7</ele>
        <time>2020-06-22T18:10:16Z</time>
      </trkpt>
      <trkpt lat="50.72959" lon="1.60157">
        <ele>49.9</ele>
        <time>2020-06-22T18:10:17Z</time>
      </trkpt>
      <trkpt lat="50.72963" lon="1.60155">
        <ele>50.4</ele>
        <time>2020-06-22T18:10:18Z</time>
      </trkpt>
      <trkpt lat="50.72964" lon="1.60154">
        <ele>50.5</ele>
        <time>2020-06-22T18:10:19Z</time>
      </trkpt>
      <trkpt lat="50.72967" lon="1.60151">
        <ele>50.9</ele>
        <time>2020-06-22T18:10:20Z</time>
      </trkpt>
      <trkpt lat="50.7297" lon="1.60149">
        <ele>51.2</ele>
        <time>2020-06-22T18:10:21Z</time>
      </trkpt>
      <trkpt lat="50.72973" lon="1.60146">
        <ele>51.6</ele>
        <time>2020-06-22T18:10:22Z</time>
      </trkpt>
      <trkpt lat="50.72976" lon="1.60145">
        <ele>51.9</ele>
        <time>2020-06-22T18:10:23Z</time>
      </trkpt>
      <trkpt lat="50.72977" lon="1.60145">
        <ele>52</ele>
        <time>2020-06-22T18:10:24Z</time>
      </trkpt>
      <trkpt lat="50.72981" lon="1.60145">
        <ele>52.4</ele>
        <time>2020-06-22T18:10:25Z</time>
      </trkpt>
      <trkpt lat="50.72982" lon="1.60145">
        <ele>52.5</ele>
        <time>2020-06-22T18:10:26Z</time>
      </trkpt>
      <trkpt lat="50.72986" lon="1.60145">
        <ele>52.9</ele>
        <time>2020-06-22T18:10:27Z</time>
      </trkpt>
      <trkpt lat="50.72988" lon="1.60145">
        <ele>53.1</ele>
        <time>2020-06-22T18:10:28Z</time>
      </trkpt>
      <trkpt lat="50.72992" lon="1.60145">
        <ele>53.6</ele>
        <time>2020-06-22T18:10:29Z</time>
      </trkpt>
      <trkpt lat="50.72994" lon="1.60145">
        <ele>53.7</ele>
        <time>2020-06-22T18:10:30Z</time>
      </trkpt>
      <trkpt lat="50.72998" lon="1.60144">
        <ele>54.6</ele>
        <time>2020-06-22T18:10:31Z</time>
      </trkpt>
      <trkpt lat="50.73001" lon="1.60142">
        <ele>55</ele>
        <time>2020-06-22T18:10:32Z</time>
      </trkpt>
      <trkpt lat="50.73002" lon="1.60142">
        <ele>55.1</ele>
        <time>2020-06-22T18:10:33Z</time>
      </trkpt>
      <trkpt lat="50.73005" lon="1.60142">
        <ele>55.6</ele>
        <time>2020-06-22T18:10:34Z</time>
      </trkpt>
      <trkpt lat="50.73006" lon="1.60142">
        <ele>55.7</ele>
        <time>2020-06-22T18:10:35Z</time>
      </trkpt>
      <trkpt lat="50.7301" lon="1.60142">
        <ele>56.3</ele>
        <time>2020-06-22T18:10:36Z</time>
      </trkpt>
      <trkpt lat="50.73012" lon="1.60142">
        <ele>56.5</ele>
        <time>2020-06-22T18:10:37Z</time>
      </trkpt>
      <trkpt lat="50.73015" lon="1.60143">
        <ele>56.9</ele>
        <time>2020-06-22T18:10:38Z</time>
      </trkpt>
      <trkpt lat="50.73017" lon="1.60144">
        <ele>57.1</ele>
        <time>2020-06-22T18:10:39Z</time>
      </trkpt>
      <trkpt lat="50.73019" lon="1.60144">
        <ele>57.4</ele>
        <time>2020-06-22T18:10:40Z</time>
      </trkpt>
      <trkpt lat="50.7302" lon="1.60144">
        <ele>57.5</ele>
        <time>2020-06-22T18:10:41Z</time>
      </trkpt>
      <trkpt lat="50.73021" lon="1.60144">
        <ele>57.7</ele>
        <time>2020-06-22T18:10:42Z</time>
      </trkpt>
      <trkpt lat="50.73025" lon="1.60143">
        <ele>58.1</ele>
        <time>2020-06-22T18:10:43Z</time>
      </trkpt>
      <trkpt lat="50.73026" lon="1.60143">
        <ele>58.2</ele>
        <time>2020-06-22T18:10:44Z</time>
      </trkpt>
      <trkpt lat="50.73028" lon="1.60143">
        <ele>58.4</ele>
        <time>2020-06-22T18:10:45Z</time>
      </trkpt>
      <trkpt lat="50.73029" lon="1.60143">
        <ele>58.6</ele>
        <time>2020-06-22T18:10:46Z</time>
      </trkpt>
      <trkpt lat="50.73032" lon="1.60142">
        <ele>58.9</ele>
        <time>2020-06-22T18:10:47Z</time>
      </trkpt>
      <trkpt lat="50.73036" lon="1.60141">
        <ele>59.5</ele>
        <time>2020-06-22T18:10:48Z</time>
      </trkpt>
      <trkpt lat="50.73038" lon="1.60141">
        <ele>59.7</ele>
        <time>2020-06-22T18:10:49Z</time>
      </trkpt>
      <trkpt lat="50.7304" lon="1.6014">
        <ele>60</ele>
        <time>2020-06-22T18:10:50Z</time>
      </trkpt>
      <trkpt lat="50.73044" lon="1.60139">
        <ele>60.4</ele>
        <time>2020-06-22T18:10:51Z</time>
      </trkpt>
      <trkpt lat="50.73044" lon="1.6014">
        <ele>60.5</ele>
        <time>2020-06-22T18:10:52Z</time>
      </trkpt>
      <trkpt lat="50.73047" lon="1.60139">
        <ele>60.8</ele>
        <time>2020-06-22T18:10:53Z</time>
      </trkpt>
      <trkpt lat="50.73048" lon="1.60138">
        <ele>60.9</ele>
        <time>2020-06-22T18:10:54Z</time>
      </trkpt>
      <trkpt lat="50.73051" lon="1.60139">
        <ele>61.1</ele>
        <time>2020-06-22T18:10:55Z</time>
      </trkpt>
      <trkpt lat="50.73052" lon="1.6014">
        <ele>61.2</ele>
        <time>2020-06-22T18:10:56Z</time>
      </trkpt>
      <trkpt lat="50.73054" lon="1.60138">
        <ele>61.4</ele>
        <time>2020-06-22T18:10:57Z</time>
      </trkpt>
      <trkpt lat="50.73055" lon="1.60138">
        <ele>61.5</ele>
        <time>2020-06-22T18:10:58Z</time>
      </trkpt>
      <trkpt lat="50.73058" lon="1.60138">
        <ele>61.8</ele>
        <time>2020-06-22T18:10:59Z</time>
      </trkpt>
      <trkpt lat="50.73059" lon="1.60137">
        <ele>61.9</ele>
        <time>2020-06-22T18:11:00Z</time>
      </trkpt>
      <trkpt lat="50.73061" lon="1.60137">
        <ele>62.2</ele>
        <time>2020-06-22T18:11:01Z</time>
      </trkpt>
      <trkpt lat="50.73063" lon="1.60138">
        <ele>62.3</ele>
        <time>2020-06-22T18:11:02Z</time>
      </trkpt>
      <trkpt lat="50.73066" lon="1.60138">
        <ele>62.6</ele>
        <time>2020-06-22T18:11:03Z</time>
      </trkpt>
      <trkpt lat="50.73067" lon="1.60138">
        <ele>62.7</ele>
        <time>2020-06-22T18:11:04Z</time>
      </trkpt>
      <trkpt lat="50.7307" lon="1.60138">
        <ele>63</ele>
        <time>2020-06-22T18:11:05Z</time>
      </trkpt>
      <trkpt lat="50.73071" lon="1.60138">
        <ele>63</ele>
        <time>2020-06-22T18:11:06Z</time>
      </trkpt>
      <trkpt lat="50.73074" lon="1.60137">
        <ele>63.3</ele>
        <time>2020-06-22T18:11:07Z</time>
      </trkpt>
      <trkpt lat="50.73078" lon="1.60138">
        <ele>63.6</ele>
        <time>2020-06-22T18:11:08Z</time>
      </trkpt>
      <trkpt lat="50.73081" lon="1.60139">
        <ele>63.8</ele>
        <time>2020-06-22T18:11:09Z</time>
      </trkpt>
      <trkpt lat="50.73084" lon="1.60138">
        <ele>64</ele>
        <time>2020-06-22T18:11:10Z</time>
      </trkpt>
      <trkpt lat="50.73088" lon="1.60137">
        <ele>64.3</ele>
        <time>2020-06-22T18:11:11Z</time>
      </trkpt>
      <trkpt lat="50.73092" lon="1.60137">
        <ele>64.5</ele>
        <time>2020-06-22T18:11:12Z</time>
      </trkpt>
      <trkpt lat="50.73095" lon="1.60137">
        <ele>64.6</ele>
        <time>2020-06-22T18:11:13Z</time>
      </trkpt>
      <trkpt lat="50.73098" lon="1.60136">
        <ele>64.8</ele>
        <time>2020-06-22T18:11:14Z</time>
      </trkpt>
      <trkpt lat="50.731" lon="1.60136">
        <ele>64.9</ele>
        <time>2020-06-22T18:11:15Z</time>
      </trkpt>
      <trkpt lat="50.73103" lon="1.60136">
        <ele>65</ele>
        <time>2020-06-22T18:11:16Z</time>
      </trkpt>
      <trkpt lat="50.73103" lon="1.60136">
        <ele>65</ele>
        <time>2020-06-22T18:11:17Z</time>
      </trkpt>
      <trkpt lat="50.73107" lon="1.60135">
        <ele>65.1</ele>
        <time>2020-06-22T18:11:18Z</time>
      </trkpt>
      <trkpt lat="50.73108" lon="1.60134">
        <ele>65.1</ele>
        <time>2020-06-22T18:11:19Z</time>
      </trkpt>
      <trkpt lat="50.73111" lon="1.60134">
        <ele>65.1</ele>
        <time>2020-06-22T18:11:20Z</time>
      </trkpt>
      <trkpt lat="50.73114" lon="1.60132">
        <ele>65.2</ele>
        <time>2020-06-22T18:11:21Z</time>
      </trkpt>
      <trkpt lat="50.73118" lon="1.60131">
        <ele>65.2</ele>
        <time>2020-06-22T18:11:22Z</time>
      </trkpt>
      <trkpt lat="50.73119" lon="1.60129">
        <ele>65.2</ele>
        <time>2020-06-22T18:11:23Z</time>
      </trkpt>
      <trkpt lat="50.73122" lon="1.60128">
        <ele>65.2</ele>
        <time>2020-06-22T18:11:24Z</time>
      </trkpt>
      <trkpt lat="50.73124" lon="1.60128">
        <ele>65.3</ele>
        <time>2020-06-22T18:11:25Z</time>
      </trkpt>
      <trkpt lat="50.73127" lon="1.60126">
        <ele>65.3</ele>
        <time>2020-06-22T18:11:26Z</time>
      </trkpt>
      <trkpt lat="50.73128" lon="1.60126">
        <ele>65.3</ele>
        <time>2020-06-22T18:11:27Z</time>
      </trkpt>
      <trkpt lat="50.73132" lon="1.60125">
        <ele>65.4</ele>
        <time>2020-06-22T18:11:28Z</time>
      </trkpt>
      <trkpt lat="50.73133" lon="1.60124">
        <ele>65.4</ele>
        <time>2020-06-22T18:11:29Z</time>
      </trkpt>
      <trkpt lat="50.73136" lon="1.60122">
        <ele>65.5</ele>
        <time>2020-06-22T18:11:30Z</time>
      </trkpt>
      <trkpt lat="50.73139" lon="1.6012">
        <ele>65.5</ele>
        <time>2020-06-22T18:11:31Z</time>
      </trkpt>
      <trkpt lat="50.7314" lon="1.60119">
        <ele>65.5</ele>
        <time>2020-06-22T18:11:32Z</time>
      </trkpt>
      <trkpt lat="50.73143" lon="1.60116">
        <ele>65.5</ele>
        <time>2020-06-22T18:11:33Z</time>
      </trkpt>
      <trkpt lat="50.73145" lon="1.60114">
        <ele>65.6</ele>
        <time>2020-06-22T18:11:34Z</time>
      </trkpt>
      <trkpt lat="50.73148" lon="1.60114">
        <ele>65.6</ele>
        <time>2020-06-22T18:11:35Z</time>
      </trkpt>
      <trkpt lat="50.73151" lon="1.60111">
        <ele>65.6</ele>
        <time>2020-06-22T18:11:36Z</time>
      </trkpt>
      <trkpt lat="50.73154" lon="1.60108">
        <ele>65.6</ele>
        <time>2020-06-22T18:11:37Z</time>
      </trkpt>
      <trkpt lat="50.73157" lon="1.60105">
        <ele>65.6</ele>
        <time>2020-06-22T18:11:38Z</time>
      </trkpt>
      <trkpt lat="50.73161" lon="1.60104">
        <ele>65.6</ele>
        <time>2020-06-22T18:11:39Z</time>
      </trkpt>
      <trkpt lat="50.73164" lon="1.60101">
        <ele>65.6</ele>
        <time>2020-06-22T18:11:40Z</time>
      </trkpt>
      <trkpt lat="50.73168" lon="1.60099">
        <ele>65.7</ele>
        <time>2020-06-22T18:11:41Z</time>
      </trkpt>
      <trkpt lat="50.73171" lon="1.60096">
        <ele>65.7</ele>
        <time>2020-06-22T18:11:42Z</time>
      </trkpt>
      <trkpt lat="50.73175" lon="1.60095">
        <ele>65.7</ele>
        <time>2020-06-22T18:11:43Z</time>
      </trkpt>
      <trkpt lat="50.73178" lon="1.60092">
        <ele>65.7</ele>
        <time>2020-06-22T18:11:44Z</time>
      </trkpt>
      <trkpt lat="50.73181" lon="1.6009">
        <ele>65.7</ele>
        <time>2020-06-22T18:11:45Z</time>
      </trkpt>
      <trkpt lat="50.73185" lon="1.60088">
        <ele>65.7</ele>
        <time>2020-06-22T18:11:46Z</time>
      </trkpt>
      <trkpt lat="50.73187" lon="1.60086">
        <ele>65.7</ele>
        <time>2020-06-22T18:11:47Z</time>
      </trkpt>
      <trkpt lat="50.73191" lon="1.60083">
        <ele>65.8</ele>
        <time>2020-06-22T18:11:48Z</time>
      </trkpt>
      <trkpt lat="50.73195" lon="1.6008">
        <ele>65.8</ele>
        <time>2020-06-22T18:11:49Z</time>
      </trkpt>
      <trkpt lat="50.73199" lon="1.60076">
        <ele>65.8</ele>
        <time>2020-06-22T18:11:50Z</time>
      </trkpt>
      <trkpt lat="50.73203" lon="1.60074">
        <ele>65.8</ele>
        <time>2020-06-22T18:11:51Z</time>
      </trkpt>
      <trkpt lat="50.73208" lon="1.60071">
        <ele>65.8</ele>
        <time>2020-06-22T18:11:52Z</time>
      </trkpt>
      <trkpt lat="50.73212" lon="1.60068">
        <ele>65.9</ele>
        <time>2020-06-22T18:11:53Z</time>
      </trkpt>
      <trkpt lat="50.73216" lon="1.60066">
        <ele>65.9</ele>
        <time>2020-06-22T18:11:54Z</time>
      </trkpt>
      <trkpt lat="50.73219" lon="1.60064">
        <ele>65.9</ele>
        <time>2020-06-22T18:11:55Z</time>
      </trkpt>
      <trkpt lat="50.73223" lon="1.60062">
        <ele>65.9</ele>
        <time>2020-06-22T18:11:56Z</time>
      </trkpt>
      <trkpt lat="50.73227" lon="1.60059">
        <ele>66</ele>
        <time>2020-06-22T18:11:57Z</time>
      </trkpt>
      <trkpt lat="50.73231" lon="1.60057">
        <ele>66</ele>
        <time>2020-06-22T18:11:58Z</time>
      </trkpt>
      <trkpt lat="50.73235" lon="1.60055">
        <ele>66.1</ele>
        <time>2020-06-22T18:11:59Z</time>
      </trkpt>
      <trkpt lat="50.73238" lon="1.60052">
        <ele>66.1</ele>
        <time>2020-06-22T18:12:00Z</time>
      </trkpt>
      <trkpt lat="50.73242" lon="1.60051">
        <ele>66.2</ele>
        <time>2020-06-22T18:12:01Z</time>
      </trkpt>
      <trkpt lat="50.73246" lon="1.60048">
        <ele>66.2</ele>
        <time>2020-06-22T18:12:02Z</time>
      </trkpt>
      <trkpt lat="50.7325" lon="1.60046">
        <ele>66.3</ele>
        <time>2020-06-22T18:12:03Z</time>
      </trkpt>
      <trkpt lat="50.73254" lon="1.60045">
        <ele>66.3</ele>
        <time>2020-06-22T18:12:04Z</time>
      </trkpt>
      <trkpt lat="50.73259" lon="1.60047">
        <ele>66.4</ele>
        <time>2020-06-22T18:12:05Z</time>
      </trkpt>
      <trkpt lat="50.73262" lon="1.60047">
        <ele>66.3</ele>
        <time>2020-06-22T18:12:06Z</time>
      </trkpt>
      <trkpt lat="50.73264" lon="1.60043">
        <ele>66.2</ele>
        <time>2020-06-22T18:12:07Z</time>
      </trkpt>
      <trkpt lat="50.73267" lon="1.60039">
        <ele>66.1</ele>
        <time>2020-06-22T18:12:08Z</time>
      </trkpt>
      <trkpt lat="50.7327" lon="1.60035">
        <ele>66</ele>
        <time>2020-06-22T18:12:09Z</time>
      </trkpt>
      <trkpt lat="50.73274" lon="1.6003">
        <ele>65.9</ele>
        <time>2020-06-22T18:12:10Z</time>
      </trkpt>
      <trkpt lat="50.73279" lon="1.60027">
        <ele>65.7</ele>
        <time>2020-06-22T18:12:11Z</time>
      </trkpt>
      <trkpt lat="50.73284" lon="1.60025">
        <ele>65.6</ele>
        <time>2020-06-22T18:12:12Z</time>
      </trkpt>
      <trkpt lat="50.73288" lon="1.60022">
        <ele>65.5</ele>
        <time>2020-06-22T18:12:13Z</time>
      </trkpt>
      <trkpt lat="50.73292" lon="1.6002">
        <ele>65.4</ele>
        <time>2020-06-22T18:12:14Z</time>
      </trkpt>
      <trkpt lat="50.73296" lon="1.60018">
        <ele>65.3</ele>
        <time>2020-06-22T18:12:15Z</time>
      </trkpt>
      <trkpt lat="50.733" lon="1.60013">
        <ele>65.2</ele>
        <time>2020-06-22T18:12:16Z</time>
      </trkpt>
      <trkpt lat="50.73304" lon="1.60008">
        <ele>65.1</ele>
        <time>2020-06-22T18:12:17Z</time>
      </trkpt>
      <trkpt lat="50.73309" lon="1.60006">
        <ele>65</ele>
        <time>2020-06-22T18:12:18Z</time>
      </trkpt>
      <trkpt lat="50.73312" lon="1.60003">
        <ele>64.9</ele>
        <time>2020-06-22T18:12:19Z</time>
      </trkpt>
      <trkpt lat="50.73316" lon="1.6">
        <ele>64.9</ele>
        <time>2020-06-22T18:12:20Z</time>
      </trkpt>
      <trkpt lat="50.7332" lon="1.59998">
        <ele>64.9</ele>
        <time>2020-06-22T18:12:21Z</time>
      </trkpt>
      <trkpt lat="50.73324" lon="1.59995">
        <ele>64.9</ele>
        <time>2020-06-22T18:12:22Z</time>
      </trkpt>
      <trkpt lat="50.73329" lon="1.59994">
        <ele>64.9</ele>
        <time>2020-06-22T18:12:23Z</time>
      </trkpt>
      <trkpt lat="50.73333" lon="1.59991">
        <ele>64.8</ele>
        <time>2020-06-22T18:12:24Z</time>
      </trkpt>
      <trkpt lat="50.73337" lon="1.59987">
        <ele>64.8</ele>
        <time>2020-06-22T18:12:25Z</time>
      </trkpt>
      <trkpt lat="50.73341" lon="1.59984">
        <ele>64.8</ele>
        <time>2020-06-22T18:12:26Z</time>
      </trkpt>
      <trkpt lat="50.73345" lon="1.5998">
        <ele>64.7</ele>
        <time>2020-06-22T18:12:27Z</time>
      </trkpt>
      <trkpt lat="50.7335" lon="1.59977">
        <ele>64.6</ele>
        <time>2020-06-22T18:12:28Z</time>
      </trkpt>
      <trkpt lat="50.73354" lon="1.59973">
        <ele>64.5</ele>
        <time>2020-06-22T18:12:29Z</time>
      </trkpt>
      <trkpt lat="50.73358" lon="1.5997">
        <ele>64.4</ele>
        <time>2020-06-22T18:12:30Z</time>
      </trkpt>
      <trkpt lat="50.73362" lon="1.59967">
        <ele>64.3</ele>
        <time>2020-06-22T18:12:31Z</time>
      </trkpt>
      <trkpt lat="50.73366" lon="1.59964">
        <ele>64.1</ele>
        <time>2020-06-22T18:12:32Z</time>
      </trkpt>
      <trkpt lat="50.7337" lon="1.59961">
        <ele>64</ele>
        <time>2020-06-22T18:12:33Z</time>
      </trkpt>
      <trkpt lat="50.73374" lon="1.59958">
        <ele>63.9</ele>
        <time>2020-06-22T18:12:34Z</time>
      </trkpt>
      <trkpt lat="50.73378" lon="1.59955">
        <ele>63.8</ele>
        <time>2020-06-22T18:12:35Z</time>
      </trkpt>
      <trkpt lat="50.73382" lon="1.59951">
        <ele>63.7</ele>
        <time>2020-06-22T18:12:36Z</time>
      </trkpt>
      <trkpt lat="50.73387" lon="1.59948">
        <ele>63.5</ele>
        <time>2020-06-22T18:12:37Z</time>
      </trkpt>
      <trkpt lat="50.73391" lon="1.59944">
        <ele>63.4</ele>
        <time>2020-06-22T18:12:38Z</time>
      </trkpt>
      <trkpt lat="50.73395" lon="1.5994">
        <ele>63.3</ele>
        <time>2020-06-22T18:12:39Z</time>
      </trkpt>
      <trkpt lat="50.734" lon="1.59935">
        <ele>63.1</ele>
        <time>2020-06-22T18:12:40Z</time>
      </trkpt>
      <trkpt lat="50.73405" lon="1.59933">
        <ele>62.9</ele>
        <time>2020-06-22T18:12:41Z</time>
      </trkpt>
      <trkpt lat="50.7341" lon="1.59931">
        <ele>62.8</ele>
        <time>2020-06-22T18:12:42Z</time>
      </trkpt>
      <trkpt lat="50.73415" lon="1.59929">
        <ele>62.6</ele>
        <time>2020-06-22T18:12:43Z</time>
      </trkpt>
      <trkpt lat="50.7342" lon="1.59927">
        <ele>62.4</ele>
        <time>2020-06-22T18:12:44Z</time>
      </trkpt>
      <trkpt lat="50.73425" lon="1.59924">
        <ele>62.2</ele>
        <time>2020-06-22T18:12:45Z</time>
      </trkpt>
      <trkpt lat="50.7343" lon="1.59922">
        <ele>62.1</ele>
        <time>2020-06-22T18:12:46Z</time>
      </trkpt>
      <trkpt lat="50.73435" lon="1.5992">
        <ele>61.9</ele>
        <time>2020-06-22T18:12:47Z</time>
      </trkpt>
      <trkpt lat="50.73441" lon="1.59918">
        <ele>61.6</ele>
        <time>2020-06-22T18:12:48Z</time>
      </trkpt>
      <trkpt lat="50.73446" lon="1.59915">
        <ele>61.4</ele>
        <time>2020-06-22T18:12:49Z</time>
      </trkpt>
      <trkpt lat="50.73452" lon="1.59913">
        <ele>61.1</ele>
        <time>2020-06-22T18:12:50Z</time>
      </trkpt>
      <trkpt lat="50.73458" lon="1.59911">
        <ele>60.9</ele>
        <time>2020-06-22T18:12:51Z</time>
      </trkpt>
      <trkpt lat="50.73464" lon="1.5991">
        <ele>60.7</ele>
        <time>2020-06-22T18:12:52Z</time>
      </trkpt>
      <trkpt lat="50.7347" lon="1.59907">
        <ele>60.6</ele>
        <time>2020-06-22T18:12:53Z</time>
      </trkpt>
      <trkpt lat="50.73476" lon="1.59905">
        <ele>60.4</ele>
        <time>2020-06-22T18:12:54Z</time>
      </trkpt>
      <trkpt lat="50.73481" lon="1.59903">
        <ele>60.3</ele>
        <time>2020-06-22T18:12:55Z</time>
      </trkpt>
      <trkpt lat="50.73486" lon="1.599">
        <ele>60.1</ele>
        <time>2020-06-22T18:12:56Z</time>
      </trkpt>
      <trkpt lat="50.73491" lon="1.599">
        <ele>59.9</ele>
        <time>2020-06-22T18:12:57Z</time>
      </trkpt>
      <trkpt lat="50.73496" lon="1.59897">
        <ele>59.8</ele>
        <time>2020-06-22T18:12:58Z</time>
      </trkpt>
      <trkpt lat="50.735" lon="1.59895">
        <ele>59.6</ele>
        <time>2020-06-22T18:12:59Z</time>
      </trkpt>
      <trkpt lat="50.73505" lon="1.59893">
        <ele>59.3</ele>
        <time>2020-06-22T18:13:00Z</time>
      </trkpt>
      <trkpt lat="50.7351" lon="1.5989">
        <ele>59.1</ele>
        <time>2020-06-22T18:13:01Z</time>
      </trkpt>
      <trkpt lat="50.73515" lon="1.59887">
        <ele>58.9</ele>
        <time>2020-06-22T18:13:02Z</time>
      </trkpt>
      <trkpt lat="50.7352" lon="1.59885">
        <ele>58.6</ele>
        <time>2020-06-22T18:13:03Z</time>
      </trkpt>
      <trkpt lat="50.73526" lon="1.59883">
        <ele>58.3</ele>
        <time>2020-06-22T18:13:04Z</time>
      </trkpt>
      <trkpt lat="50.73533" lon="1.59879">
        <ele>57.9</ele>
        <time>2020-06-22T18:13:05Z</time>
      </trkpt>
      <trkpt lat="50.73539" lon="1.59876">
        <ele>57.6</ele>
        <time>2020-06-22T18:13:06Z</time>
      </trkpt>
      <trkpt lat="50.73546" lon="1.59873">
        <ele>57.2</ele>
        <time>2020-06-22T18:13:07Z</time>
      </trkpt>
      <trkpt lat="50.73552" lon="1.5987">
        <ele>56.8</ele>
        <time>2020-06-22T18:13:08Z</time>
      </trkpt>
      <trkpt lat="50.73558" lon="1.59867">
        <ele>56.5</ele>
        <time>2020-06-22T18:13:09Z</time>
      </trkpt>
      <trkpt lat="50.73564" lon="1.59864">
        <ele>56</ele>
        <time>2020-06-22T18:13:10Z</time>
      </trkpt>
      <trkpt lat="50.73571" lon="1.5986">
        <ele>55.5</ele>
        <time>2020-06-22T18:13:11Z</time>
      </trkpt>
      <trkpt lat="50.73578" lon="1.59858">
        <ele>54.8</ele>
        <time>2020-06-22T18:13:12Z</time>
      </trkpt>
      <trkpt lat="50.73584" lon="1.59856">
        <ele>54</ele>
        <time>2020-06-22T18:13:13Z</time>
      </trkpt>
      <trkpt lat="50.73591" lon="1.59853">
        <ele>53.2</ele>
        <time>2020-06-22T18:13:14Z</time>
      </trkpt>
      <trkpt lat="50.73599" lon="1.5985">
        <ele>52.2</ele>
        <time>2020-06-22T18:13:15Z</time>
      </trkpt>
      <trkpt lat="50.73607" lon="1.59846">
        <ele>51.2</ele>
        <time>2020-06-22T18:13:16Z</time>
      </trkpt>
      <trkpt lat="50.73616" lon="1.59843">
        <ele>50.3</ele>
        <time>2020-06-22T18:13:17Z</time>
      </trkpt>
      <trkpt lat="50.73624" lon="1.59838">
        <ele>49.2</ele>
        <time>2020-06-22T18:13:18Z</time>
      </trkpt>
      <trkpt lat="50.73634" lon="1.59833">
        <ele>48.1</ele>
        <time>2020-06-22T18:13:19Z</time>
      </trkpt>
      <trkpt lat="50.73643" lon="1.59829">
        <ele>47</ele>
        <time>2020-06-22T18:13:20Z</time>
      </trkpt>
      <trkpt lat="50.73653" lon="1.59824">
        <ele>45.8</ele>
        <time>2020-06-22T18:13:21Z</time>
      </trkpt>
      <trkpt lat="50.73663" lon="1.59819">
        <ele>44.6</ele>
        <time>2020-06-22T18:13:22Z</time>
      </trkpt>
      <trkpt lat="50.73673" lon="1.59815">
        <ele>43.4</ele>
        <time>2020-06-22T18:13:23Z</time>
      </trkpt>
      <trkpt lat="50.73684" lon="1.59811">
        <ele>42.1</ele>
        <time>2020-06-22T18:13:24Z</time>
      </trkpt>
      <trkpt lat="50.73694" lon="1.59806">
        <ele>41</ele>
        <time>2020-06-22T18:13:25Z</time>
      </trkpt>
      <trkpt lat="50.73703" lon="1.59799">
        <ele>39.9</ele>
        <time>2020-06-22T18:13:26Z</time>
      </trkpt>
      <trkpt lat="50.73712" lon="1.59792">
        <ele>38.8</ele>
        <time>2020-06-22T18:13:27Z</time>
      </trkpt>
      <trkpt lat="50.7372" lon="1.59785">
        <ele>37.7</ele>
        <time>2020-06-22T18:13:28Z</time>
      </trkpt>
      <trkpt lat="50.73729" lon="1.5978">
        <ele>36.7</ele>
        <time>2020-06-22T18:13:29Z</time>
      </trkpt>
      <trkpt lat="50.73738" lon="1.59775">
        <ele>35.6</ele>
        <time>2020-06-22T18:13:30Z</time>
      </trkpt>
      <trkpt lat="50.73747" lon="1.5977">
        <ele>34.7</ele>
        <time>2020-06-22T18:13:31Z</time>
      </trkpt>
      <trkpt lat="50.73756" lon="1.59766">
        <ele>33.8</ele>
        <time>2020-06-22T18:13:32Z</time>
      </trkpt>
      <trkpt lat="50.73765" lon="1.59763">
        <ele>33</ele>
        <time>2020-06-22T18:13:33Z</time>
      </trkpt>
      <trkpt lat="50.73774" lon="1.5976">
        <ele>32.3</ele>
        <time>2020-06-22T18:13:34Z</time>
      </trkpt>
      <trkpt lat="50.73783" lon="1.59757">
        <ele>31.6</ele>
        <time>2020-06-22T18:13:35Z</time>
      </trkpt>
      <trkpt lat="50.73791" lon="1.59756">
        <ele>31.1</ele>
        <time>2020-06-22T18:13:36Z</time>
      </trkpt>
      <trkpt lat="50.73799" lon="1.59756">
        <ele>30.6</ele>
        <time>2020-06-22T18:13:37Z</time>
      </trkpt>
      <trkpt lat="50.73808" lon="1.59755">
        <ele>30.1</ele>
        <time>2020-06-22T18:13:38Z</time>
      </trkpt>
      <trkpt lat="50.73816" lon="1.59754">
        <ele>29.7</ele>
        <time>2020-06-22T18:13:39Z</time>
      </trkpt>
      <trkpt lat="50.73824" lon="1.59752">
        <ele>29.2</ele>
        <time>2020-06-22T18:13:40Z</time>
      </trkpt>
      <trkpt lat="50.73832" lon="1.59751">
        <ele>28.8</ele>
        <time>2020-06-22T18:13:41Z</time>
      </trkpt>
      <trkpt lat="50.7384" lon="1.5975">
        <ele>28.3</ele>
        <time>2020-06-22T18:13:42Z</time>
      </trkpt>
      <trkpt lat="50.73848" lon="1.5975">
        <ele>27.8</ele>
        <time>2020-06-22T18:13:43Z</time>
      </trkpt>
      <trkpt lat="50.73856" lon="1.5975">
        <ele>27.3</ele>
        <time>2020-06-22T18:13:44Z</time>
      </trkpt>
      <trkpt lat="50.73863" lon="1.59746">
        <ele>26.9</ele>
        <time>2020-06-22T18:13:45Z</time>
      </trkpt>
      <trkpt lat="50.73871" lon="1.59744">
        <ele>26.4</ele>
        <time>2020-06-22T18:13:46Z</time>
      </trkpt>
      <trkpt lat="50.73879" lon="1.59741">
        <ele>25.8</ele>
        <time>2020-06-22T18:13:47Z</time>
      </trkpt>
      <trkpt lat="50.73886" lon="1.59738">
        <ele>25.4</ele>
        <time>2020-06-22T18:13:48Z</time>
      </trkpt>
      <trkpt lat="50.73893" lon="1.59736">
        <ele>25.1</ele>
        <time>2020-06-22T18:13:49Z</time>
      </trkpt>
      <trkpt lat="50.739" lon="1.59731">
        <ele>24.7</ele>
        <time>2020-06-22T18:13:50Z</time>
      </trkpt>
      <trkpt lat="50.73907" lon="1.59727">
        <ele>24.4</ele>
        <time>2020-06-22T18:13:51Z</time>
      </trkpt>
      <trkpt lat="50.73914" lon="1.59721">
        <ele>24</ele>
        <time>2020-06-22T18:13:52Z</time>
      </trkpt>
      <trkpt lat="50.73921" lon="1.59714">
        <ele>23.7</ele>
        <time>2020-06-22T18:13:53Z</time>
      </trkpt>
      <trkpt lat="50.73928" lon="1.59708">
        <ele>23.3</ele>
        <time>2020-06-22T18:13:54Z</time>
      </trkpt>
      <trkpt lat="50.73934" lon="1.597">
        <ele>23</ele>
        <time>2020-06-22T18:13:55Z</time>
      </trkpt>
      <trkpt lat="50.73941" lon="1.59692">
        <ele>22.7</ele>
        <time>2020-06-22T18:13:56Z</time>
      </trkpt>
      <trkpt lat="50.73948" lon="1.59685">
        <ele>22.3</ele>
        <time>2020-06-22T18:13:57Z</time>
      </trkpt>
      <trkpt lat="50.73954" lon="1.59677">
        <ele>22.1</ele>
        <time>2020-06-22T18:13:58Z</time>
      </trkpt>
      <trkpt lat="50.7396" lon="1.59669">
        <ele>21.9</ele>
        <time>2020-06-22T18:13:59Z</time>
      </trkpt>
      <trkpt lat="50.73967" lon="1.59661">
        <ele>21.7</ele>
        <time>2020-06-22T18:14:00Z</time>
      </trkpt>
      <trkpt lat="50.73973" lon="1.59653">
        <ele>21.5</ele>
        <time>2020-06-22T18:14:01Z</time>
      </trkpt>
      <trkpt lat="50.7398" lon="1.59646">
        <ele>21.3</ele>
        <time>2020-06-22T18:14:02Z</time>
      </trkpt>
      <trkpt lat="50.73987" lon="1.59639">
        <ele>21</ele>
        <time>2020-06-22T18:14:03Z</time>
      </trkpt>
      <trkpt lat="50.73993" lon="1.59631">
        <ele>20.7</ele>
        <time>2020-06-22T18:14:04Z</time>
      </trkpt>
      <trkpt lat="50.73999" lon="1.59623">
        <ele>20.5</ele>
        <time>2020-06-22T18:14:05Z</time>
      </trkpt>
      <trkpt lat="50.74005" lon="1.59615">
        <ele>20.2</ele>
        <time>2020-06-22T18:14:06Z</time>
      </trkpt>
      <trkpt lat="50.74011" lon="1.59606">
        <ele>19.9</ele>
        <time>2020-06-22T18:14:07Z</time>
      </trkpt>
      <trkpt lat="50.74018" lon="1.59599">
        <ele>19.6</ele>
        <time>2020-06-22T18:14:08Z</time>
      </trkpt>
      <trkpt lat="50.74023" lon="1.5959">
        <ele>19.3</ele>
        <time>2020-06-22T18:14:09Z</time>
      </trkpt>
      <trkpt lat="50.74029" lon="1.59581">
        <ele>19.1</ele>
        <time>2020-06-22T18:14:10Z</time>
      </trkpt>
      <trkpt lat="50.74035" lon="1.59573">
        <ele>19</ele>
        <time>2020-06-22T18:14:11Z</time>
      </trkpt>
      <trkpt lat="50.7404" lon="1.59566">
        <ele>18.9</ele>
        <time>2020-06-22T18:14:12Z</time>
      </trkpt>
      <trkpt lat="50.74046" lon="1.59559">
        <ele>19</ele>
        <time>2020-06-22T18:14:13Z</time>
      </trkpt>
      <trkpt lat="50.74051" lon="1.59553">
        <ele>19</ele>
        <time>2020-06-22T18:14:14Z</time>
      </trkpt>
      <trkpt lat="50.74057" lon="1.59548">
        <ele>19.5</ele>
        <time>2020-06-22T18:14:15Z</time>
      </trkpt>
      <trkpt lat="50.74063" lon="1.59549">
        <ele>19.8</ele>
        <time>2020-06-22T18:14:16Z</time>
      </trkpt>
      <trkpt lat="50.74069" lon="1.59552">
        <ele>20.1</ele>
        <time>2020-06-22T18:14:17Z</time>
      </trkpt>
      <trkpt lat="50.74073" lon="1.59556">
        <ele>20.9</ele>
        <time>2020-06-22T18:14:18Z</time>
      </trkpt>
      <trkpt lat="50.74078" lon="1.5956">
        <ele>20.9</ele>
        <time>2020-06-22T18:14:19Z</time>
      </trkpt>
      <trkpt lat="50.74082" lon="1.59563">
        <ele>21.9</ele>
        <time>2020-06-22T18:14:20Z</time>
      </trkpt>
      <trkpt lat="50.74086" lon="1.59567">
        <ele>22.2</ele>
        <time>2020-06-22T18:14:21Z</time>
      </trkpt>
      <trkpt lat="50.7409" lon="1.5957">
        <ele>22.5</ele>
        <time>2020-06-22T18:14:22Z</time>
      </trkpt>
      <trkpt lat="50.74094" lon="1.59573">
        <ele>22.8</ele>
        <time>2020-06-22T18:14:23Z</time>
      </trkpt>
      <trkpt lat="50.74097" lon="1.59576">
        <ele>23</ele>
        <time>2020-06-22T18:14:24Z</time>
      </trkpt>
      <trkpt lat="50.74099" lon="1.59579">
        <ele>23.2</ele>
        <time>2020-06-22T18:14:25Z</time>
      </trkpt>
      <trkpt lat="50.74103" lon="1.59579">
        <ele>23.5</ele>
        <time>2020-06-22T18:14:26Z</time>
      </trkpt>
      <trkpt lat="50.74106" lon="1.59581">
        <ele>23.7</ele>
        <time>2020-06-22T18:14:27Z</time>
      </trkpt>
      <trkpt lat="50.74109" lon="1.59585">
        <ele>23.9</ele>
        <time>2020-06-22T18:14:28Z</time>
      </trkpt>
      <trkpt lat="50.74112" lon="1.59587">
        <ele>24.2</ele>
        <time>2020-06-22T18:14:29Z</time>
      </trkpt>
      <trkpt lat="50.74115" lon="1.5959">
        <ele>24.4</ele>
        <time>2020-06-22T18:14:30Z</time>
      </trkpt>
      <trkpt lat="50.74118" lon="1.59593">
        <ele>24.7</ele>
        <time>2020-06-22T18:14:31Z</time>
      </trkpt>
      <trkpt lat="50.74121" lon="1.59596">
        <ele>25</ele>
        <time>2020-06-22T18:14:32Z</time>
      </trkpt>
      <trkpt lat="50.74124" lon="1.59599">
        <ele>25.2</ele>
        <time>2020-06-22T18:14:33Z</time>
      </trkpt>
      <trkpt lat="50.74127" lon="1.59601">
        <ele>25.5</ele>
        <time>2020-06-22T18:14:34Z</time>
      </trkpt>
      <trkpt lat="50.74131" lon="1.59602">
        <ele>25.7</ele>
        <time>2020-06-22T18:14:35Z</time>
      </trkpt>
      <trkpt lat="50.74134" lon="1.59604">
        <ele>26</ele>
        <time>2020-06-22T18:14:36Z</time>
      </trkpt>
      <trkpt lat="50.74137" lon="1.59606">
        <ele>26.2</ele>
        <time>2020-06-22T18:14:37Z</time>
      </trkpt>
      <trkpt lat="50.74141" lon="1.59608">
        <ele>26.5</ele>
        <time>2020-06-22T18:14:38Z</time>
      </trkpt>
      <trkpt lat="50.74144" lon="1.5961">
        <ele>26.7</ele>
        <time>2020-06-22T18:14:39Z</time>
      </trkpt>
      <trkpt lat="50.74147" lon="1.59613">
        <ele>26.9</ele>
        <time>2020-06-22T18:14:40Z</time>
      </trkpt>
      <trkpt lat="50.74149" lon="1.59616">
        <ele>27.1</ele>
        <time>2020-06-22T18:14:41Z</time>
      </trkpt>
      <trkpt lat="50.74151" lon="1.59619">
        <ele>27.3</ele>
        <time>2020-06-22T18:14:42Z</time>
      </trkpt>
      <trkpt lat="50.74154" lon="1.59622">
        <ele>27.5</ele>
        <time>2020-06-22T18:14:43Z</time>
      </trkpt>
      <trkpt lat="50.74157" lon="1.59625">
        <ele>27.7</ele>
        <time>2020-06-22T18:14:44Z</time>
      </trkpt>
      <trkpt lat="50.74162" lon="1.59628">
        <ele>28</ele>
        <time>2020-06-22T18:14:45Z</time>
      </trkpt>
      <trkpt lat="50.74165" lon="1.5963">
        <ele>28.2</ele>
        <time>2020-06-22T18:14:46Z</time>
      </trkpt>
      <trkpt lat="50.74168" lon="1.59633">
        <ele>28.4</ele>
        <time>2020-06-22T18:14:47Z</time>
      </trkpt>
      <trkpt lat="50.74171" lon="1.59637">
        <ele>28.7</ele>
        <time>2020-06-22T18:14:48Z</time>
      </trkpt>
      <trkpt lat="50.74173" lon="1.59638">
        <ele>28.8</ele>
        <time>2020-06-22T18:14:49Z</time>
      </trkpt>
      <trkpt lat="50.74175" lon="1.59641">
        <ele>29</ele>
        <time>2020-06-22T18:14:50Z</time>
      </trkpt>
      <trkpt lat="50.74179" lon="1.59643">
        <ele>29.2</ele>
        <time>2020-06-22T18:14:51Z</time>
      </trkpt>
      <trkpt lat="50.74182" lon="1.59646">
        <ele>29.4</ele>
        <time>2020-06-22T18:14:52Z</time>
      </trkpt>
      <trkpt lat="50.74185" lon="1.59649">
        <ele>29.7</ele>
        <time>2020-06-22T18:14:53Z</time>
      </trkpt>
      <trkpt lat="50.74188" lon="1.59651">
        <ele>29.9</ele>
        <time>2020-06-22T18:14:54Z</time>
      </trkpt>
      <trkpt lat="50.74192" lon="1.59653">
        <ele>30.1</ele>
        <time>2020-06-22T18:14:55Z</time>
      </trkpt>
      <trkpt lat="50.74196" lon="1.59655">
        <ele>30.3</ele>
        <time>2020-06-22T18:14:56Z</time>
      </trkpt>
      <trkpt lat="50.74199" lon="1.59657">
        <ele>30.5</ele>
        <time>2020-06-22T18:14:57Z</time>
      </trkpt>
      <trkpt lat="50.74202" lon="1.59659">
        <ele>30.7</ele>
        <time>2020-06-22T18:14:58Z</time>
      </trkpt>
      <trkpt lat="50.74206" lon="1.59662">
        <ele>30.9</ele>
        <time>2020-06-22T18:14:59Z</time>
      </trkpt>
      <trkpt lat="50.74209" lon="1.59665">
        <ele>31.1</ele>
        <time>2020-06-22T18:15:00Z</time>
      </trkpt>
      <trkpt lat="50.74212" lon="1.59667">
        <ele>31.3</ele>
        <time>2020-06-22T18:15:01Z</time>
      </trkpt>
      <trkpt lat="50.74216" lon="1.59669">
        <ele>31.6</ele>
        <time>2020-06-22T18:15:02Z</time>
      </trkpt>
      <trkpt lat="50.74219" lon="1.59672">
        <ele>31.8</ele>
        <time>2020-06-22T18:15:03Z</time>
      </trkpt>
      <trkpt lat="50.74223" lon="1.59675">
        <ele>32</ele>
        <time>2020-06-22T18:15:04Z</time>
      </trkpt>
      <trkpt lat="50.74226" lon="1.59678">
        <ele>32.2</ele>
        <time>2020-06-22T18:15:05Z</time>
      </trkpt>
      <trkpt lat="50.74229" lon="1.5968">
        <ele>32.4</ele>
        <time>2020-06-22T18:15:06Z</time>
      </trkpt>
      <trkpt lat="50.74233" lon="1.59683">
        <ele>32.6</ele>
        <time>2020-06-22T18:15:07Z</time>
      </trkpt>
      <trkpt lat="50.74237" lon="1.59685">
        <ele>32.8</ele>
        <time>2020-06-22T18:15:08Z</time>
      </trkpt>
      <trkpt lat="50.74238" lon="1.59686">
        <ele>32.9</ele>
        <time>2020-06-22T18:15:09Z</time>
      </trkpt>
      <trkpt lat="50.74241" lon="1.59689">
        <ele>33.1</ele>
        <time>2020-06-22T18:15:10Z</time>
      </trkpt>
      <trkpt lat="50.74243" lon="1.5969">
        <ele>33.2</ele>
        <time>2020-06-22T18:15:11Z</time>
      </trkpt>
      <trkpt lat="50.74246" lon="1.59692">
        <ele>33.4</ele>
        <time>2020-06-22T18:15:12Z</time>
      </trkpt>
      <trkpt lat="50.74249" lon="1.59695">
        <ele>33.6</ele>
        <time>2020-06-22T18:15:13Z</time>
      </trkpt>
      <trkpt lat="50.74253" lon="1.59698">
        <ele>33.8</ele>
        <time>2020-06-22T18:15:14Z</time>
      </trkpt>
      <trkpt lat="50.74256" lon="1.597">
        <ele>34</ele>
        <time>2020-06-22T18:15:15Z</time>
      </trkpt>
      <trkpt lat="50.74259" lon="1.59702">
        <ele>34.1</ele>
        <time>2020-06-22T18:15:16Z</time>
      </trkpt>
      <trkpt lat="50.74263" lon="1.59704">
        <ele>34.3</ele>
        <time>2020-06-22T18:15:17Z</time>
      </trkpt>
      <trkpt lat="50.74265" lon="1.59705">
        <ele>34.5</ele>
        <time>2020-06-22T18:15:18Z</time>
      </trkpt>
      <trkpt lat="50.74268" lon="1.59707">
        <ele>34.6</ele>
        <time>2020-06-22T18:15:19Z</time>
      </trkpt>
      <trkpt lat="50.74272" lon="1.59709">
        <ele>34.8</ele>
        <time>2020-06-22T18:15:20Z</time>
      </trkpt>
      <trkpt lat="50.74273" lon="1.5971">
        <ele>34.9</ele>
        <time>2020-06-22T18:15:21Z</time>
      </trkpt>
      <trkpt lat="50.74277" lon="1.59711">
        <ele>35.1</ele>
        <time>2020-06-22T18:15:22Z</time>
      </trkpt>
      <trkpt lat="50.74279" lon="1.59712">
        <ele>35.3</ele>
        <time>2020-06-22T18:15:23Z</time>
      </trkpt>
      <trkpt lat="50.74283" lon="1.59713">
        <ele>35.5</ele>
        <time>2020-06-22T18:15:24Z</time>
      </trkpt>
      <trkpt lat="50.74287" lon="1.59715">
        <ele>35.7</ele>
        <time>2020-06-22T18:15:25Z</time>
      </trkpt>
      <trkpt lat="50.7429" lon="1.59717">
        <ele>35.9</ele>
        <time>2020-06-22T18:15:26Z</time>
      </trkpt>
      <trkpt lat="50.74294" lon="1.59719">
        <ele>36</ele>
        <time>2020-06-22T18:15:27Z</time>
      </trkpt>
      <trkpt lat="50.74297" lon="1.59721">
        <ele>36.2</ele>
        <time>2020-06-22T18:15:28Z</time>
      </trkpt>
      <trkpt lat="50.743" lon="1.59723">
        <ele>36.3</ele>
        <time>2020-06-22T18:15:29Z</time>
      </trkpt>
      <trkpt lat="50.74303" lon="1.59725">
        <ele>36.5</ele>
        <time>2020-06-22T18:15:30Z</time>
      </trkpt>
      <trkpt lat="50.74306" lon="1.59727">
        <ele>36.7</ele>
        <time>2020-06-22T18:15:31Z</time>
      </trkpt>
      <trkpt lat="50.7431" lon="1.59729">
        <ele>36.9</ele>
        <time>2020-06-22T18:15:32Z</time>
      </trkpt>
      <trkpt lat="50.74314" lon="1.59731">
        <ele>37.1</ele>
        <time>2020-06-22T18:15:33Z</time>
      </trkpt>
      <trkpt lat="50.74317" lon="1.59733">
        <ele>37.3</ele>
        <time>2020-06-22T18:15:34Z</time>
      </trkpt>
      <trkpt lat="50.7432" lon="1.59735">
        <ele>37.5</ele>
        <time>2020-06-22T18:15:35Z</time>
      </trkpt>
      <trkpt lat="50.74323" lon="1.59737">
        <ele>37.7</ele>
        <time>2020-06-22T18:15:36Z</time>
      </trkpt>
      <trkpt lat="50.74326" lon="1.59738">
        <ele>37.9</ele>
        <time>2020-06-22T18:15:37Z</time>
      </trkpt>
      <trkpt lat="50.74329" lon="1.59739">
        <ele>38</ele>
        <time>2020-06-22T18:15:38Z</time>
      </trkpt>
      <trkpt lat="50.74332" lon="1.5974">
        <ele>38.2</ele>
        <time>2020-06-22T18:15:39Z</time>
      </trkpt>
      <trkpt lat="50.74335" lon="1.5974">
        <ele>38.4</ele>
        <time>2020-06-22T18:15:40Z</time>
      </trkpt>
      <trkpt lat="50.74338" lon="1.59742">
        <ele>38.6</ele>
        <time>2020-06-22T18:15:41Z</time>
      </trkpt>
      <trkpt lat="50.74341" lon="1.59744">
        <ele>38.7</ele>
        <time>2020-06-22T18:15:42Z</time>
      </trkpt>
      <trkpt lat="50.74346" lon="1.59745">
        <ele>39</ele>
        <time>2020-06-22T18:15:43Z</time>
      </trkpt>
      <trkpt lat="50.74347" lon="1.59746">
        <ele>39.1</ele>
        <time>2020-06-22T18:15:44Z</time>
      </trkpt>
      <trkpt lat="50.7435" lon="1.59747">
        <ele>39.3</ele>
        <time>2020-06-22T18:15:45Z</time>
      </trkpt>
      <trkpt lat="50.74354" lon="1.5975">
        <ele>39.4</ele>
        <time>2020-06-22T18:15:46Z</time>
      </trkpt>
      <trkpt lat="50.74356" lon="1.59751">
        <ele>39.6</ele>
        <time>2020-06-22T18:15:47Z</time>
      </trkpt>
      <trkpt lat="50.7436" lon="1.59752">
        <ele>39.8</ele>
        <time>2020-06-22T18:15:48Z</time>
      </trkpt>
      <trkpt lat="50.74363" lon="1.59753">
        <ele>40</ele>
        <time>2020-06-22T18:15:49Z</time>
      </trkpt>
      <trkpt lat="50.74366" lon="1.59753">
        <ele>40.1</ele>
        <time>2020-06-22T18:15:50Z</time>
      </trkpt>
      <trkpt lat="50.74369" lon="1.59754">
        <ele>40.3</ele>
        <time>2020-06-22T18:15:51Z</time>
      </trkpt>
      <trkpt lat="50.74372" lon="1.59755">
        <ele>40.4</ele>
        <time>2020-06-22T18:15:52Z</time>
      </trkpt>
      <trkpt lat="50.74375" lon="1.59756">
        <ele>40.6</ele>
        <time>2020-06-22T18:15:53Z</time>
      </trkpt>
      <trkpt lat="50.74378" lon="1.59758">
        <ele>40.8</ele>
        <time>2020-06-22T18:15:54Z</time>
      </trkpt>
      <trkpt lat="50.74382" lon="1.59759">
        <ele>41</ele>
        <time>2020-06-22T18:15:55Z</time>
      </trkpt>
      <trkpt lat="50.74385" lon="1.59759">
        <ele>41.2</ele>
        <time>2020-06-22T18:15:56Z</time>
      </trkpt>
      <trkpt lat="50.74388" lon="1.59761">
        <ele>41.3</ele>
        <time>2020-06-22T18:15:57Z</time>
      </trkpt>
      <trkpt lat="50.74391" lon="1.59762">
        <ele>41.5</ele>
        <time>2020-06-22T18:15:58Z</time>
      </trkpt>
      <trkpt lat="50.74395" lon="1.59764">
        <ele>41.7</ele>
        <time>2020-06-22T18:15:59Z</time>
      </trkpt>
      <trkpt lat="50.74399" lon="1.59765">
        <ele>41.9</ele>
        <time>2020-06-22T18:16:00Z</time>
      </trkpt>
      <trkpt lat="50.74403" lon="1.59766">
        <ele>42.1</ele>
        <time>2020-06-22T18:16:01Z</time>
      </trkpt>
      <trkpt lat="50.74407" lon="1.59768">
        <ele>42.4</ele>
        <time>2020-06-22T18:16:02Z</time>
      </trkpt>
      <trkpt lat="50.7441" lon="1.5977">
        <ele>42.5</ele>
        <time>2020-06-22T18:16:03Z</time>
      </trkpt>
      <trkpt lat="50.74414" lon="1.59772">
        <ele>42.7</ele>
        <time>2020-06-22T18:16:04Z</time>
      </trkpt>
      <trkpt lat="50.74417" lon="1.59772">
        <ele>42.9</ele>
        <time>2020-06-22T18:16:05Z</time>
      </trkpt>
      <trkpt lat="50.74421" lon="1.59774">
        <ele>43.1</ele>
        <time>2020-06-22T18:16:06Z</time>
      </trkpt>
      <trkpt lat="50.74425" lon="1.59774">
        <ele>43.3</ele>
        <time>2020-06-22T18:16:07Z</time>
      </trkpt>
      <trkpt lat="50.74429" lon="1.59775">
        <ele>43.5</ele>
        <time>2020-06-22T18:16:08Z</time>
      </trkpt>
      <trkpt lat="50.74431" lon="1.59775">
        <ele>43.6</ele>
        <time>2020-06-22T18:16:09Z</time>
      </trkpt>
      <trkpt lat="50.74434" lon="1.59774">
        <ele>43.8</ele>
        <time>2020-06-22T18:16:10Z</time>
      </trkpt>
      <trkpt lat="50.74438" lon="1.59775">
        <ele>44</ele>
        <time>2020-06-22T18:16:11Z</time>
      </trkpt>
      <trkpt lat="50.74441" lon="1.59775">
        <ele>44.1</ele>
        <time>2020-06-22T18:16:12Z</time>
      </trkpt>
      <trkpt lat="50.74443" lon="1.59777">
        <ele>44.3</ele>
        <time>2020-06-22T18:16:13Z</time>
      </trkpt>
      <trkpt lat="50.74447" lon="1.59779">
        <ele>44.5</ele>
        <time>2020-06-22T18:16:14Z</time>
      </trkpt>
      <trkpt lat="50.74449" lon="1.5978">
        <ele>44.6</ele>
        <time>2020-06-22T18:16:15Z</time>
      </trkpt>
      <trkpt lat="50.74452" lon="1.59782">
        <ele>44.8</ele>
        <time>2020-06-22T18:16:16Z</time>
      </trkpt>
      <trkpt lat="50.74456" lon="1.59783">
        <ele>45</ele>
        <time>2020-06-22T18:16:17Z</time>
      </trkpt>
      <trkpt lat="50.7446" lon="1.59783">
        <ele>45.4</ele>
        <time>2020-06-22T18:16:18Z</time>
      </trkpt>
      <trkpt lat="50.74462" lon="1.59783">
        <ele>45.6</ele>
        <time>2020-06-22T18:16:19Z</time>
      </trkpt>
      <trkpt lat="50.74466" lon="1.59784">
        <ele>45.7</ele>
        <time>2020-06-22T18:16:20Z</time>
      </trkpt>
      <trkpt lat="50.74469" lon="1.59784">
        <ele>45.9</ele>
        <time>2020-06-22T18:16:21Z</time>
      </trkpt>
      <trkpt lat="50.74472" lon="1.59784">
        <ele>46.1</ele>
        <time>2020-06-22T18:16:22Z</time>
      </trkpt>
      <trkpt lat="50.74476" lon="1.59785">
        <ele>46.3</ele>
        <time>2020-06-22T18:16:23Z</time>
      </trkpt>
      <trkpt lat="50.74479" lon="1.59786">
        <ele>46.5</ele>
        <time>2020-06-22T18:16:24Z</time>
      </trkpt>
      <trkpt lat="50.74483" lon="1.59787">
        <ele>46.7</ele>
        <time>2020-06-22T18:16:25Z</time>
      </trkpt>
      <trkpt lat="50.74486" lon="1.59787">
        <ele>46.9</ele>
        <time>2020-06-22T18:16:26Z</time>
      </trkpt>
      <trkpt lat="50.74489" lon="1.59789">
        <ele>47.1</ele>
        <time>2020-06-22T18:16:27Z</time>
      </trkpt>
      <trkpt lat="50.74493" lon="1.59789">
        <ele>47.2</ele>
        <time>2020-06-22T18:16:28Z</time>
      </trkpt>
      <trkpt lat="50.74497" lon="1.5979">
        <ele>47.4</ele>
        <time>2020-06-22T18:16:29Z</time>
      </trkpt>
      <trkpt lat="50.74502" lon="1.5979">
        <ele>47.6</ele>
        <time>2020-06-22T18:16:30Z</time>
      </trkpt>
      <trkpt lat="50.74506" lon="1.59791">
        <ele>47.8</ele>
        <time>2020-06-22T18:16:31Z</time>
      </trkpt>
      <trkpt lat="50.74507" lon="1.59792">
        <ele>47.9</ele>
        <time>2020-06-22T18:16:32Z</time>
      </trkpt>
      <trkpt lat="50.7451" lon="1.59792">
        <ele>48</ele>
        <time>2020-06-22T18:16:33Z</time>
      </trkpt>
      <trkpt lat="50.74513" lon="1.59793">
        <ele>48.2</ele>
        <time>2020-06-22T18:16:34Z</time>
      </trkpt>
      <trkpt lat="50.74516" lon="1.59794">
        <ele>48.3</ele>
        <time>2020-06-22T18:16:35Z</time>
      </trkpt>
      <trkpt lat="50.74519" lon="1.59794">
        <ele>48.5</ele>
        <time>2020-06-22T18:16:36Z</time>
      </trkpt>
      <trkpt lat="50.74522" lon="1.59794">
        <ele>48.6</ele>
        <time>2020-06-22T18:16:37Z</time>
      </trkpt>
      <trkpt lat="50.74525" lon="1.59794">
        <ele>48.8</ele>
        <time>2020-06-22T18:16:38Z</time>
      </trkpt>
      <trkpt lat="50.74528" lon="1.59795">
        <ele>48.9</ele>
        <time>2020-06-22T18:16:39Z</time>
      </trkpt>
      <trkpt lat="50.74531" lon="1.59795">
        <ele>49.1</ele>
        <time>2020-06-22T18:16:40Z</time>
      </trkpt>
      <trkpt lat="50.74535" lon="1.59795">
        <ele>49.2</ele>
        <time>2020-06-22T18:16:41Z</time>
      </trkpt>
      <trkpt lat="50.74538" lon="1.59795">
        <ele>49.4</ele>
        <time>2020-06-22T18:16:42Z</time>
      </trkpt>
      <trkpt lat="50.74541" lon="1.59795">
        <ele>49.5</ele>
        <time>2020-06-22T18:16:43Z</time>
      </trkpt>
      <trkpt lat="50.74544" lon="1.59795">
        <ele>49.7</ele>
        <time>2020-06-22T18:16:44Z</time>
      </trkpt>
      <trkpt lat="50.74547" lon="1.59796">
        <ele>49.8</ele>
        <time>2020-06-22T18:16:45Z</time>
      </trkpt>
      <trkpt lat="50.7455" lon="1.59797">
        <ele>49.9</ele>
        <time>2020-06-22T18:16:46Z</time>
      </trkpt>
      <trkpt lat="50.74554" lon="1.59799">
        <ele>50.1</ele>
        <time>2020-06-22T18:16:47Z</time>
      </trkpt>
      <trkpt lat="50.74557" lon="1.59799">
        <ele>50.2</ele>
        <time>2020-06-22T18:16:48Z</time>
      </trkpt>
      <trkpt lat="50.7456" lon="1.598">
        <ele>50.4</ele>
        <time>2020-06-22T18:16:49Z</time>
      </trkpt>
      <trkpt lat="50.74563" lon="1.59801">
        <ele>50.5</ele>
        <time>2020-06-22T18:16:50Z</time>
      </trkpt>
      <trkpt lat="50.74567" lon="1.59801">
        <ele>50.6</ele>
        <time>2020-06-22T18:16:51Z</time>
      </trkpt>
      <trkpt lat="50.7457" lon="1.59802">
        <ele>50.8</ele>
        <time>2020-06-22T18:16:52Z</time>
      </trkpt>
      <trkpt lat="50.74573" lon="1.59803">
        <ele>50.9</ele>
        <time>2020-06-22T18:16:53Z</time>
      </trkpt>
      <trkpt lat="50.74576" lon="1.59801">
        <ele>51</ele>
        <time>2020-06-22T18:16:54Z</time>
      </trkpt>
      <trkpt lat="50.7458" lon="1.59802">
        <ele>51.2</ele>
        <time>2020-06-22T18:16:55Z</time>
      </trkpt>
      <trkpt lat="50.74585" lon="1.59804">
        <ele>51.3</ele>
        <time>2020-06-22T18:16:56Z</time>
      </trkpt>
      <trkpt lat="50.74589" lon="1.59805">
        <ele>51.5</ele>
        <time>2020-06-22T18:16:57Z</time>
      </trkpt>
      <trkpt lat="50.74594" lon="1.59806">
        <ele>51.7</ele>
        <time>2020-06-22T18:16:58Z</time>
      </trkpt>
      <trkpt lat="50.74598" lon="1.59807">
        <ele>51.8</ele>
        <time>2020-06-22T18:16:59Z</time>
      </trkpt>
      <trkpt lat="50.74602" lon="1.59808">
        <ele>51.9</ele>
        <time>2020-06-22T18:17:00Z</time>
      </trkpt>
      <trkpt lat="50.74605" lon="1.59808">
        <ele>52</ele>
        <time>2020-06-22T18:17:01Z</time>
      </trkpt>
      <trkpt lat="50.7461" lon="1.59809">
        <ele>52.1</ele>
        <time>2020-06-22T18:17:02Z</time>
      </trkpt>
      <trkpt lat="50.74615" lon="1.59809">
        <ele>52.2</ele>
        <time>2020-06-22T18:17:03Z</time>
      </trkpt>
      <trkpt lat="50.74619" lon="1.5981">
        <ele>52.4</ele>
        <time>2020-06-22T18:17:04Z</time>
      </trkpt>
      <trkpt lat="50.74624" lon="1.59811">
        <ele>52.5</ele>
        <time>2020-06-22T18:17:05Z</time>
      </trkpt>
      <trkpt lat="50.74628" lon="1.59813">
        <ele>52.6</ele>
        <time>2020-06-22T18:17:06Z</time>
      </trkpt>
      <trkpt lat="50.74632" lon="1.59814">
        <ele>52.7</ele>
        <time>2020-06-22T18:17:07Z</time>
      </trkpt>
      <trkpt lat="50.74636" lon="1.59814">
        <ele>52.8</ele>
        <time>2020-06-22T18:17:08Z</time>
      </trkpt>
      <trkpt lat="50.74641" lon="1.59815">
        <ele>52.9</ele>
        <time>2020-06-22T18:17:09Z</time>
      </trkpt>
      <trkpt lat="50.74645" lon="1.59815">
        <ele>52.9</ele>
        <time>2020-06-22T18:17:10Z</time>
      </trkpt>
      <trkpt lat="50.74649" lon="1.59815">
        <ele>53</ele>
        <time>2020-06-22T18:17:11Z</time>
      </trkpt>
      <trkpt lat="50.74653" lon="1.59815">
        <ele>53.1</ele>
        <time>2020-06-22T18:17:12Z</time>
      </trkpt>
      <trkpt lat="50.74658" lon="1.59816">
        <ele>53.1</ele>
        <time>2020-06-22T18:17:13Z</time>
      </trkpt>
      <trkpt lat="50.74662" lon="1.59817">
        <ele>53.2</ele>
        <time>2020-06-22T18:17:14Z</time>
      </trkpt>
      <trkpt lat="50.74667" lon="1.59817">
        <ele>53.2</ele>
        <time>2020-06-22T18:17:15Z</time>
      </trkpt>
      <trkpt lat="50.74672" lon="1.59817">
        <ele>53.3</ele>
        <time>2020-06-22T18:17:16Z</time>
      </trkpt>
      <trkpt lat="50.74677" lon="1.59818">
        <ele>53.4</ele>
        <time>2020-06-22T18:17:17Z</time>
      </trkpt>
      <trkpt lat="50.74682" lon="1.59819">
        <ele>53.4</ele>
        <time>2020-06-22T18:17:18Z</time>
      </trkpt>
      <trkpt lat="50.74687" lon="1.5982">
        <ele>53.5</ele>
        <time>2020-06-22T18:17:19Z</time>
      </trkpt>
      <trkpt lat="50.74692" lon="1.59821">
        <ele>53.5</ele>
        <time>2020-06-22T18:17:20Z</time>
      </trkpt>
      <trkpt lat="50.74697" lon="1.59823">
        <ele>53.6</ele>
        <time>2020-06-22T18:17:21Z</time>
      </trkpt>
      <trkpt lat="50.74701" lon="1.59822">
        <ele>53.6</ele>
        <time>2020-06-22T18:17:22Z</time>
      </trkpt>
      <trkpt lat="50.74705" lon="1.59824">
        <ele>53.7</ele>
        <time>2020-06-22T18:17:23Z</time>
      </trkpt>
      <trkpt lat="50.74709" lon="1.59825">
        <ele>53.7</ele>
        <time>2020-06-22T18:17:24Z</time>
      </trkpt>
      <trkpt lat="50.74713" lon="1.59825">
        <ele>53.7</ele>
        <time>2020-06-22T18:17:25Z</time>
      </trkpt>
      <trkpt lat="50.74718" lon="1.59826">
        <ele>53.7</ele>
        <time>2020-06-22T18:17:26Z</time>
      </trkpt>
      <trkpt lat="50.74723" lon="1.59827">
        <ele>53.8</ele>
        <time>2020-06-22T18:17:27Z</time>
      </trkpt>
      <trkpt lat="50.74728" lon="1.59828">
        <ele>53.8</ele>
        <time>2020-06-22T18:17:28Z</time>
      </trkpt>
      <trkpt lat="50.74732" lon="1.59829">
        <ele>53.9</ele>
        <time>2020-06-22T18:17:29Z</time>
      </trkpt>
      <trkpt lat="50.74737" lon="1.5983">
        <ele>53.9</ele>
        <time>2020-06-22T18:17:30Z</time>
      </trkpt>
      <trkpt lat="50.74741" lon="1.59831">
        <ele>53.9</ele>
        <time>2020-06-22T18:17:31Z</time>
      </trkpt>
      <trkpt lat="50.74746" lon="1.59832">
        <ele>54</ele>
        <time>2020-06-22T18:17:32Z</time>
      </trkpt>
      <trkpt lat="50.7475" lon="1.59833">
        <ele>54.1</ele>
        <time>2020-06-22T18:17:33Z</time>
      </trkpt>
      <trkpt lat="50.74754" lon="1.59834">
        <ele>54.2</ele>
        <time>2020-06-22T18:17:34Z</time>
      </trkpt>
      <trkpt lat="50.74759" lon="1.59835">
        <ele>54.3</ele>
        <time>2020-06-22T18:17:35Z</time>
      </trkpt>
      <trkpt lat="50.74764" lon="1.59837">
        <ele>54.4</ele>
        <time>2020-06-22T18:17:36Z</time>
      </trkpt>
      <trkpt lat="50.74769" lon="1.59838">
        <ele>54.5</ele>
        <time>2020-06-22T18:17:37Z</time>
      </trkpt>
      <trkpt lat="50.74773" lon="1.59839">
        <ele>54.6</ele>
        <time>2020-06-22T18:17:38Z</time>
      </trkpt>
      <trkpt lat="50.74778" lon="1.5984">
        <ele>54.7</ele>
        <time>2020-06-22T18:17:39Z</time>
      </trkpt>
      <trkpt lat="50.74782" lon="1.59842">
        <ele>54.8</ele>
        <time>2020-06-22T18:17:40Z</time>
      </trkpt>
      <trkpt lat="50.74785" lon="1.59844">
        <ele>54.8</ele>
        <time>2020-06-22T18:17:41Z</time>
      </trkpt>
      <trkpt lat="50.74789" lon="1.59848">
        <ele>54.9</ele>
        <time>2020-06-22T18:17:42Z</time>
      </trkpt>
      <trkpt lat="50.74791" lon="1.59854">
        <ele>55</ele>
        <time>2020-06-22T18:17:43Z</time>
      </trkpt>
      <trkpt lat="50.74793" lon="1.5986">
        <ele>55.1</ele>
        <time>2020-06-22T18:17:44Z</time>
      </trkpt>
      <trkpt lat="50.74795" lon="1.59867">
        <ele>55.2</ele>
        <time>2020-06-22T18:17:45Z</time>
      </trkpt>
      <trkpt lat="50.74796" lon="1.59874">
        <ele>55.3</ele>
        <time>2020-06-22T18:17:46Z</time>
      </trkpt>
      <trkpt lat="50.74798" lon="1.5988">
        <ele>55.5</ele>
        <time>2020-06-22T18:17:47Z</time>
      </trkpt>
      <trkpt lat="50.74799" lon="1.59886">
        <ele>55.6</ele>
        <time>2020-06-22T18:17:48Z</time>
      </trkpt>
      <trkpt lat="50.74801" lon="1.5989">
        <ele>55.7</ele>
        <time>2020-06-22T18:17:49Z</time>
      </trkpt>
      <trkpt lat="50.74803" lon="1.59895">
        <ele>55.8</ele>
        <time>2020-06-22T18:17:50Z</time>
      </trkpt>
      <trkpt lat="50.74805" lon="1.59899">
        <ele>55.9</ele>
        <time>2020-06-22T18:17:51Z</time>
      </trkpt>
      <trkpt lat="50.74807" lon="1.59903">
        <ele>56</ele>
        <time>2020-06-22T18:17:52Z</time>
      </trkpt>
      <trkpt lat="50.7481" lon="1.59906">
        <ele>56.2</ele>
        <time>2020-06-22T18:17:53Z</time>
      </trkpt>
      <trkpt lat="50.74812" lon="1.59909">
        <ele>56.3</ele>
        <time>2020-06-22T18:17:54Z</time>
      </trkpt>
      <trkpt lat="50.74815" lon="1.59913">
        <ele>56.4</ele>
        <time>2020-06-22T18:17:55Z</time>
      </trkpt>
      <trkpt lat="50.74817" lon="1.59918">
        <ele>56.5</ele>
        <time>2020-06-22T18:17:56Z</time>
      </trkpt>
      <trkpt lat="50.74819" lon="1.59919">
        <ele>56.5</ele>
        <time>2020-06-22T18:17:57Z</time>
      </trkpt>
      <trkpt lat="50.74822" lon="1.59919">
        <ele>56.6</ele>
        <time>2020-06-22T18:17:58Z</time>
      </trkpt>
      <trkpt lat="50.74824" lon="1.5992">
        <ele>56.7</ele>
        <time>2020-06-22T18:17:59Z</time>
      </trkpt>
      <trkpt lat="50.74827" lon="1.59921">
        <ele>56.8</ele>
        <time>2020-06-22T18:18:00Z</time>
      </trkpt>
      <trkpt lat="50.7483" lon="1.59922">
        <ele>56.8</ele>
        <time>2020-06-22T18:18:01Z</time>
      </trkpt>
      <trkpt lat="50.74833" lon="1.59923">
        <ele>56.8</ele>
        <time>2020-06-22T18:18:02Z</time>
      </trkpt>
      <trkpt lat="50.74836" lon="1.59922">
        <ele>56.7</ele>
        <time>2020-06-22T18:18:03Z</time>
      </trkpt>
      <trkpt lat="50.74837" lon="1.59918">
        <ele>56.7</ele>
        <time>2020-06-22T18:18:04Z</time>
      </trkpt>
      <trkpt lat="50.74838" lon="1.59914">
        <ele>56.7</ele>
        <time>2020-06-22T18:18:05Z</time>
      </trkpt>
      <trkpt lat="50.74839" lon="1.59909">
        <ele>56.7</ele>
        <time>2020-06-22T18:18:06Z</time>
      </trkpt>
      <trkpt lat="50.74842" lon="1.59904">
        <ele>56.6</ele>
        <time>2020-06-22T18:18:07Z</time>
      </trkpt>
      <trkpt lat="50.74844" lon="1.59899">
        <ele>56.6</ele>
        <time>2020-06-22T18:18:08Z</time>
      </trkpt>
      <trkpt lat="50.74847" lon="1.59894">
        <ele>56.6</ele>
        <time>2020-06-22T18:18:09Z</time>
      </trkpt>
      <trkpt lat="50.74848" lon="1.59888">
        <ele>56.5</ele>
        <time>2020-06-22T18:18:10Z</time>
      </trkpt>
      <trkpt lat="50.74851" lon="1.59884">
        <ele>56.5</ele>
        <time>2020-06-22T18:18:11Z</time>
      </trkpt>
      <trkpt lat="50.74853" lon="1.5988">
        <ele>56.5</ele>
        <time>2020-06-22T18:18:12Z</time>
      </trkpt>
      <trkpt lat="50.74855" lon="1.59876">
        <ele>56.5</ele>
        <time>2020-06-22T18:18:13Z</time>
      </trkpt>
      <trkpt lat="50.74859" lon="1.59876">
        <ele>56.4</ele>
        <time>2020-06-22T18:18:14Z</time>
      </trkpt>
      <trkpt lat="50.74863" lon="1.59875">
        <ele>56.3</ele>
        <time>2020-06-22T18:18:15Z</time>
      </trkpt>
      <trkpt lat="50.74868" lon="1.59874">
        <ele>56.2</ele>
        <time>2020-06-22T18:18:16Z</time>
      </trkpt>
      <trkpt lat="50.74872" lon="1.59875">
        <ele>56.1</ele>
        <time>2020-06-22T18:18:17Z</time>
      </trkpt>
      <trkpt lat="50.74877" lon="1.59877">
        <ele>56.1</ele>
        <time>2020-06-22T18:18:18Z</time>
      </trkpt>
      <trkpt lat="50.74881" lon="1.59879">
        <ele>56</ele>
        <time>2020-06-22T18:18:19Z</time>
      </trkpt>
      <trkpt lat="50.74885" lon="1.59881">
        <ele>56</ele>
        <time>2020-06-22T18:18:20Z</time>
      </trkpt>
      <trkpt lat="50.74888" lon="1.59882">
        <ele>56</ele>
        <time>2020-06-22T18:18:21Z</time>
      </trkpt>
      <trkpt lat="50.74892" lon="1.59884">
        <ele>56</ele>
        <time>2020-06-22T18:18:22Z</time>
      </trkpt>
      <trkpt lat="50.74896" lon="1.59887">
        <ele>56</ele>
        <time>2020-06-22T18:18:23Z</time>
      </trkpt>
      <trkpt lat="50.74899" lon="1.5989">
        <ele>56</ele>
        <time>2020-06-22T18:18:24Z</time>
      </trkpt>
      <trkpt lat="50.74903" lon="1.59893">
        <ele>56.1</ele>
        <time>2020-06-22T18:18:25Z</time>
      </trkpt>
      <trkpt lat="50.74906" lon="1.59897">
        <ele>56.1</ele>
        <time>2020-06-22T18:18:26Z</time>
      </trkpt>
      <trkpt lat="50.7491" lon="1.599">
        <ele>56.2</ele>
        <time>2020-06-22T18:18:27Z</time>
      </trkpt>
      <trkpt lat="50.74913" lon="1.59905">
        <ele>56.2</ele>
        <time>2020-06-22T18:18:28Z</time>
      </trkpt>
      <trkpt lat="50.74917" lon="1.59908">
        <ele>56.3</ele>
        <time>2020-06-22T18:18:29Z</time>
      </trkpt>
      <trkpt lat="50.74921" lon="1.59912">
        <ele>56.4</ele>
        <time>2020-06-22T18:18:30Z</time>
      </trkpt>
      <trkpt lat="50.74925" lon="1.59916">
        <ele>56.4</ele>
        <time>2020-06-22T18:18:31Z</time>
      </trkpt>
      <trkpt lat="50.74928" lon="1.5992">
        <ele>56.5</ele>
        <time>2020-06-22T18:18:32Z</time>
      </trkpt>
      <trkpt lat="50.74932" lon="1.59924">
        <ele>56.6</ele>
        <time>2020-06-22T18:18:33Z</time>
      </trkpt>
      <trkpt lat="50.74936" lon="1.59928">
        <ele>56.6</ele>
        <time>2020-06-22T18:18:34Z</time>
      </trkpt>
      <trkpt lat="50.7494" lon="1.59932">
        <ele>56.7</ele>
        <time>2020-06-22T18:18:35Z</time>
      </trkpt>
      <trkpt lat="50.74943" lon="1.59936">
        <ele>56.7</ele>
        <time>2020-06-22T18:18:36Z</time>
      </trkpt>
      <trkpt lat="50.74948" lon="1.5994">
        <ele>56.8</ele>
        <time>2020-06-22T18:18:37Z</time>
      </trkpt>
      <trkpt lat="50.74951" lon="1.59945">
        <ele>56.8</ele>
        <time>2020-06-22T18:18:38Z</time>
      </trkpt>
      <trkpt lat="50.74954" lon="1.59948">
        <ele>56.9</ele>
        <time>2020-06-22T18:18:39Z</time>
      </trkpt>
      <trkpt lat="50.74958" lon="1.59951">
        <ele>56.9</ele>
        <time>2020-06-22T18:18:40Z</time>
      </trkpt>
      <trkpt lat="50.74961" lon="1.59956">
        <ele>57</ele>
        <time>2020-06-22T18:18:41Z</time>
      </trkpt>
      <trkpt lat="50.74964" lon="1.59961">
        <ele>57.1</ele>
        <time>2020-06-22T18:18:42Z</time>
      </trkpt>
      <trkpt lat="50.74967" lon="1.59966">
        <ele>57.1</ele>
        <time>2020-06-22T18:18:43Z</time>
      </trkpt>
      <trkpt lat="50.74971" lon="1.59972">
        <ele>57.2</ele>
        <time>2020-06-22T18:18:44Z</time>
      </trkpt>
      <trkpt lat="50.74975" lon="1.59977">
        <ele>57.2</ele>
        <time>2020-06-22T18:18:45Z</time>
      </trkpt>
      <trkpt lat="50.74978" lon="1.59983">
        <ele>57.3</ele>
        <time>2020-06-22T18:18:46Z</time>
      </trkpt>
      <trkpt lat="50.74982" lon="1.5999">
        <ele>57.3</ele>
        <time>2020-06-22T18:18:47Z</time>
      </trkpt>
      <trkpt lat="50.74985" lon="1.59996">
        <ele>57.3</ele>
        <time>2020-06-22T18:18:48Z</time>
      </trkpt>
      <trkpt lat="50.74989" lon="1.60003">
        <ele>57.3</ele>
        <time>2020-06-22T18:18:49Z</time>
      </trkpt>
      <trkpt lat="50.74994" lon="1.60009">
        <ele>57.4</ele>
        <time>2020-06-22T18:18:50Z</time>
      </trkpt>
      <trkpt lat="50.74998" lon="1.60015">
        <ele>57.4</ele>
        <time>2020-06-22T18:18:51Z</time>
      </trkpt>
      <trkpt lat="50.75002" lon="1.6002">
        <ele>57.4</ele>
        <time>2020-06-22T18:18:52Z</time>
      </trkpt>
      <trkpt lat="50.75005" lon="1.60025">
        <ele>57.4</ele>
        <time>2020-06-22T18:18:53Z</time>
      </trkpt>
      <trkpt lat="50.75009" lon="1.60031">
        <ele>57.4</ele>
        <time>2020-06-22T18:18:54Z</time>
      </trkpt>
      <trkpt lat="50.75013" lon="1.60036">
        <ele>57.4</ele>
        <time>2020-06-22T18:18:55Z</time>
      </trkpt>
      <trkpt lat="50.75016" lon="1.60044">
        <ele>57.3</ele>
        <time>2020-06-22T18:18:56Z</time>
      </trkpt>
      <trkpt lat="50.7502" lon="1.6005">
        <ele>57.3</ele>
        <time>2020-06-22T18:18:57Z</time>
      </trkpt>
      <trkpt lat="50.75022" lon="1.60055">
        <ele>57.2</ele>
        <time>2020-06-22T18:18:58Z</time>
      </trkpt>
      <trkpt lat="50.75026" lon="1.60059">
        <ele>57.2</ele>
        <time>2020-06-22T18:18:59Z</time>
      </trkpt>
      <trkpt lat="50.7503" lon="1.60063">
        <ele>57.1</ele>
        <time>2020-06-22T18:19:00Z</time>
      </trkpt>
      <trkpt lat="50.75035" lon="1.60068">
        <ele>57</ele>
        <time>2020-06-22T18:19:01Z</time>
      </trkpt>
      <trkpt lat="50.75039" lon="1.60072">
        <ele>56.9</ele>
        <time>2020-06-22T18:19:02Z</time>
      </trkpt>
      <trkpt lat="50.75044" lon="1.60078">
        <ele>56.8</ele>
        <time>2020-06-22T18:19:03Z</time>
      </trkpt>
      <trkpt lat="50.75049" lon="1.60083">
        <ele>56.7</ele>
        <time>2020-06-22T18:19:04Z</time>
      </trkpt>
      <trkpt lat="50.75053" lon="1.60087">
        <ele>56.6</ele>
        <time>2020-06-22T18:19:05Z</time>
      </trkpt>
      <trkpt lat="50.75058" lon="1.60091">
        <ele>56.4</ele>
        <time>2020-06-22T18:19:06Z</time>
      </trkpt>
      <trkpt lat="50.75063" lon="1.60093">
        <ele>56.3</ele>
        <time>2020-06-22T18:19:07Z</time>
      </trkpt>
      <trkpt lat="50.75068" lon="1.60097">
        <ele>56.2</ele>
        <time>2020-06-22T18:19:08Z</time>
      </trkpt>
      <trkpt lat="50.75073" lon="1.60101">
        <ele>56</ele>
        <time>2020-06-22T18:19:09Z</time>
      </trkpt>
      <trkpt lat="50.75079" lon="1.60104">
        <ele>55.7</ele>
        <time>2020-06-22T18:19:10Z</time>
      </trkpt>
      <trkpt lat="50.75085" lon="1.60109">
        <ele>55.5</ele>
        <time>2020-06-22T18:19:11Z</time>
      </trkpt>
      <trkpt lat="50.7509" lon="1.60114">
        <ele>55.3</ele>
        <time>2020-06-22T18:19:12Z</time>
      </trkpt>
      <trkpt lat="50.75095" lon="1.60116">
        <ele>55.1</ele>
        <time>2020-06-22T18:19:13Z</time>
      </trkpt>
      <trkpt lat="50.75101" lon="1.60121">
        <ele>54.8</ele>
        <time>2020-06-22T18:19:14Z</time>
      </trkpt>
      <trkpt lat="50.75107" lon="1.60125">
        <ele>54.6</ele>
        <time>2020-06-22T18:19:15Z</time>
      </trkpt>
      <trkpt lat="50.75112" lon="1.60129">
        <ele>54.3</ele>
        <time>2020-06-22T18:19:16Z</time>
      </trkpt>
      <trkpt lat="50.75119" lon="1.60132">
        <ele>54</ele>
        <time>2020-06-22T18:19:17Z</time>
      </trkpt>
      <trkpt lat="50.75126" lon="1.60136">
        <ele>53.7</ele>
        <time>2020-06-22T18:19:18Z</time>
      </trkpt>
      <trkpt lat="50.75131" lon="1.60141">
        <ele>53.4</ele>
        <time>2020-06-22T18:19:19Z</time>
      </trkpt>
      <trkpt lat="50.75138" lon="1.60146">
        <ele>53.1</ele>
        <time>2020-06-22T18:19:20Z</time>
      </trkpt>
      <trkpt lat="50.75144" lon="1.6015">
        <ele>52.8</ele>
        <time>2020-06-22T18:19:21Z</time>
      </trkpt>
      <trkpt lat="50.75151" lon="1.60154">
        <ele>52.5</ele>
        <time>2020-06-22T18:19:22Z</time>
      </trkpt>
      <trkpt lat="50.75158" lon="1.60159">
        <ele>52.1</ele>
        <time>2020-06-22T18:19:23Z</time>
      </trkpt>
      <trkpt lat="50.75165" lon="1.60164">
        <ele>51.8</ele>
        <time>2020-06-22T18:19:24Z</time>
      </trkpt>
      <trkpt lat="50.75172" lon="1.60168">
        <ele>51.4</ele>
        <time>2020-06-22T18:19:25Z</time>
      </trkpt>
      <trkpt lat="50.7518" lon="1.60173">
        <ele>51.1</ele>
        <time>2020-06-22T18:19:26Z</time>
      </trkpt>
      <trkpt lat="50.75187" lon="1.60177">
        <ele>50.8</ele>
        <time>2020-06-22T18:19:27Z</time>
      </trkpt>
      <trkpt lat="50.75194" lon="1.60182">
        <ele>50.4</ele>
        <time>2020-06-22T18:19:28Z</time>
      </trkpt>
      <trkpt lat="50.75201" lon="1.60186">
        <ele>50</ele>
        <time>2020-06-22T18:19:29Z</time>
      </trkpt>
      <trkpt lat="50.75208" lon="1.60191">
        <ele>49.6</ele>
        <time>2020-06-22T18:19:30Z</time>
      </trkpt>
      <trkpt lat="50.75216" lon="1.60195">
        <ele>49.3</ele>
        <time>2020-06-22T18:19:31Z</time>
      </trkpt>
      <trkpt lat="50.75224" lon="1.602">
        <ele>49</ele>
        <time>2020-06-22T18:19:32Z</time>
      </trkpt>
      <trkpt lat="50.75231" lon="1.60204">
        <ele>48.7</ele>
        <time>2020-06-22T18:19:33Z</time>
      </trkpt>
      <trkpt lat="50.75239" lon="1.60209">
        <ele>48.4</ele>
        <time>2020-06-22T18:19:34Z</time>
      </trkpt>
      <trkpt lat="50.75247" lon="1.60214">
        <ele>48.1</ele>
        <time>2020-06-22T18:19:35Z</time>
      </trkpt>
      <trkpt lat="50.75254" lon="1.60219">
        <ele>47.8</ele>
        <time>2020-06-22T18:19:36Z</time>
      </trkpt>
      <trkpt lat="50.75262" lon="1.60224">
        <ele>47.4</ele>
        <time>2020-06-22T18:19:37Z</time>
      </trkpt>
      <trkpt lat="50.7527" lon="1.60229">
        <ele>47.1</ele>
        <time>2020-06-22T18:19:38Z</time>
      </trkpt>
      <trkpt lat="50.75278" lon="1.60234">
        <ele>46.8</ele>
        <time>2020-06-22T18:19:39Z</time>
      </trkpt>
      <trkpt lat="50.75286" lon="1.60239">
        <ele>46.4</ele>
        <time>2020-06-22T18:19:40Z</time>
      </trkpt>
      <trkpt lat="50.75294" lon="1.60244">
        <ele>46.1</ele>
        <time>2020-06-22T18:19:41Z</time>
      </trkpt>
      <trkpt lat="50.75303" lon="1.6025">
        <ele>45.7</ele>
        <time>2020-06-22T18:19:42Z</time>
      </trkpt>
      <trkpt lat="50.75311" lon="1.60256">
        <ele>45.3</ele>
        <time>2020-06-22T18:19:43Z</time>
      </trkpt>
      <trkpt lat="50.75319" lon="1.60262">
        <ele>45</ele>
        <time>2020-06-22T18:19:44Z</time>
      </trkpt>
      <trkpt lat="50.75328" lon="1.60267">
        <ele>44.6</ele>
        <time>2020-06-22T18:19:45Z</time>
      </trkpt>
      <trkpt lat="50.75337" lon="1.60271">
        <ele>44.3</ele>
        <time>2020-06-22T18:19:46Z</time>
      </trkpt>
      <trkpt lat="50.75346" lon="1.60277">
        <ele>43.9</ele>
        <time>2020-06-22T18:19:47Z</time>
      </trkpt>
      <trkpt lat="50.75355" lon="1.60283">
        <ele>43.5</ele>
        <time>2020-06-22T18:19:48Z</time>
      </trkpt>
      <trkpt lat="50.75365" lon="1.6029">
        <ele>43.1</ele>
        <time>2020-06-22T18:19:49Z</time>
      </trkpt>
      <trkpt lat="50.75374" lon="1.60296">
        <ele>42.8</ele>
        <time>2020-06-22T18:19:50Z</time>
      </trkpt>
      <trkpt lat="50.75383" lon="1.60303">
        <ele>42.4</ele>
        <time>2020-06-22T18:19:51Z</time>
      </trkpt>
      <trkpt lat="50.75393" lon="1.60309">
        <ele>42</ele>
        <time>2020-06-22T18:19:52Z</time>
      </trkpt>
      <trkpt lat="50.75403" lon="1.60315">
        <ele>41.6</ele>
        <time>2020-06-22T18:19:53Z</time>
      </trkpt>
      <trkpt lat="50.75413" lon="1.60321">
        <ele>41.1</ele>
        <time>2020-06-22T18:19:54Z</time>
      </trkpt>
      <trkpt lat="50.75422" lon="1.60327">
        <ele>40.6</ele>
        <time>2020-06-22T18:19:55Z</time>
      </trkpt>
      <trkpt lat="50.75432" lon="1.60333">
        <ele>40</ele>
        <time>2020-06-22T18:19:56Z</time>
      </trkpt>
      <trkpt lat="50.75442" lon="1.60339">
        <ele>39.6</ele>
        <time>2020-06-22T18:19:57Z</time>
      </trkpt>
      <trkpt lat="50.75452" lon="1.60345">
        <ele>39</ele>
        <time>2020-06-22T18:19:58Z</time>
      </trkpt>
      <trkpt lat="50.75462" lon="1.60351">
        <ele>38.5</ele>
        <time>2020-06-22T18:19:59Z</time>
      </trkpt>
      <trkpt lat="50.75471" lon="1.60357">
        <ele>38</ele>
        <time>2020-06-22T18:20:00Z</time>
      </trkpt>
      <trkpt lat="50.7548" lon="1.60363">
        <ele>37.6</ele>
        <time>2020-06-22T18:20:01Z</time>
      </trkpt>
      <trkpt lat="50.75489" lon="1.60369">
        <ele>37.2</ele>
        <time>2020-06-22T18:20:02Z</time>
      </trkpt>
      <trkpt lat="50.75497" lon="1.60374">
        <ele>36.8</ele>
        <time>2020-06-22T18:20:03Z</time>
      </trkpt>
      <trkpt lat="50.75504" lon="1.6038">
        <ele>36.5</ele>
        <time>2020-06-22T18:20:04Z</time>
      </trkpt>
      <trkpt lat="50.75511" lon="1.60385">
        <ele>36.2</ele>
        <time>2020-06-22T18:20:05Z</time>
      </trkpt>
      <trkpt lat="50.75517" lon="1.6039">
        <ele>36</ele>
        <time>2020-06-22T18:20:06Z</time>
      </trkpt>
      <trkpt lat="50.75523" lon="1.60395">
        <ele>35.7</ele>
        <time>2020-06-22T18:20:07Z</time>
      </trkpt>
      <trkpt lat="50.75528" lon="1.60398">
        <ele>35.3</ele>
        <time>2020-06-22T18:20:08Z</time>
      </trkpt>
      <trkpt lat="50.75532" lon="1.60402">
        <ele>34.8</ele>
        <time>2020-06-22T18:20:09Z</time>
      </trkpt>
      <trkpt lat="50.75534" lon="1.60407">
        <ele>34.9</ele>
        <time>2020-06-22T18:20:10Z</time>
      </trkpt>
      <trkpt lat="50.75535" lon="1.60413">
        <ele>34.9</ele>
        <time>2020-06-22T18:20:11Z</time>
      </trkpt>
      <trkpt lat="50.75537" lon="1.60417">
        <ele>34.9</ele>
        <time>2020-06-22T18:20:12Z</time>
      </trkpt>
      <trkpt lat="50.7554" lon="1.60419">
        <ele>34.7</ele>
        <time>2020-06-22T18:20:13Z</time>
      </trkpt>
      <trkpt lat="50.75543" lon="1.60421">
        <ele>34.7</ele>
        <time>2020-06-22T18:20:14Z</time>
      </trkpt>
      <trkpt lat="50.75547" lon="1.60423">
        <ele>34.7</ele>
        <time>2020-06-22T18:20:15Z</time>
      </trkpt>
      <trkpt lat="50.75551" lon="1.60425">
        <ele>33.7</ele>
        <time>2020-06-22T18:20:16Z</time>
      </trkpt>
      <trkpt lat="50.75554" lon="1.60428">
        <ele>33.5</ele>
        <time>2020-06-22T18:20:17Z</time>
      </trkpt>
      <trkpt lat="50.75558" lon="1.60431">
        <ele>33.2</ele>
        <time>2020-06-22T18:20:18Z</time>
      </trkpt>
      <trkpt lat="50.75563" lon="1.60434">
        <ele>32.8</ele>
        <time>2020-06-22T18:20:19Z</time>
      </trkpt>
      <trkpt lat="50.75567" lon="1.60435">
        <ele>32.5</ele>
        <time>2020-06-22T18:20:20Z</time>
      </trkpt>
      <trkpt lat="50.75572" lon="1.60434">
        <ele>32.1</ele>
        <time>2020-06-22T18:20:21Z</time>
      </trkpt>
      <trkpt lat="50.75578" lon="1.60433">
        <ele>31.7</ele>
        <time>2020-06-22T18:20:22Z</time>
      </trkpt>
      <trkpt lat="50.75583" lon="1.60436">
        <ele>31.4</ele>
        <time>2020-06-22T18:20:23Z</time>
      </trkpt>
      <trkpt lat="50.75588" lon="1.60439">
        <ele>31</ele>
        <time>2020-06-22T18:20:24Z</time>
      </trkpt>
      <trkpt lat="50.75594" lon="1.60442">
        <ele>30.6</ele>
        <time>2020-06-22T18:20:25Z</time>
      </trkpt>
      <trkpt lat="50.75599" lon="1.60443">
        <ele>30.3</ele>
        <time>2020-06-22T18:20:26Z</time>
      </trkpt>
      <trkpt lat="50.75605" lon="1.60447">
        <ele>29.9</ele>
        <time>2020-06-22T18:20:27Z</time>
      </trkpt>
      <trkpt lat="50.7561" lon="1.6045">
        <ele>29.5</ele>
        <time>2020-06-22T18:20:28Z</time>
      </trkpt>
      <trkpt lat="50.75616" lon="1.60454">
        <ele>29.2</ele>
        <time>2020-06-22T18:20:29Z</time>
      </trkpt>
      <trkpt lat="50.75623" lon="1.60459">
        <ele>28.8</ele>
        <time>2020-06-22T18:20:30Z</time>
      </trkpt>
      <trkpt lat="50.75629" lon="1.60462">
        <ele>28.4</ele>
        <time>2020-06-22T18:20:31Z</time>
      </trkpt>
      <trkpt lat="50.75635" lon="1.60466">
        <ele>28</ele>
        <time>2020-06-22T18:20:32Z</time>
      </trkpt>
      <trkpt lat="50.75642" lon="1.6047">
        <ele>27.6</ele>
        <time>2020-06-22T18:20:33Z</time>
      </trkpt>
      <trkpt lat="50.75649" lon="1.60474">
        <ele>27.2</ele>
        <time>2020-06-22T18:20:34Z</time>
      </trkpt>
      <trkpt lat="50.75656" lon="1.60479">
        <ele>26.8</ele>
        <time>2020-06-22T18:20:35Z</time>
      </trkpt>
      <trkpt lat="50.75663" lon="1.60484">
        <ele>26.3</ele>
        <time>2020-06-22T18:20:36Z</time>
      </trkpt>
      <trkpt lat="50.75671" lon="1.60489">
        <ele>25.9</ele>
        <time>2020-06-22T18:20:37Z</time>
      </trkpt>
      <trkpt lat="50.75678" lon="1.60493">
        <ele>25.6</ele>
        <time>2020-06-22T18:20:38Z</time>
      </trkpt>
      <trkpt lat="50.75686" lon="1.60498">
        <ele>25.2</ele>
        <time>2020-06-22T18:20:39Z</time>
      </trkpt>
      <trkpt lat="50.75693" lon="1.60503">
        <ele>24.9</ele>
        <time>2020-06-22T18:20:40Z</time>
      </trkpt>
      <trkpt lat="50.75701" lon="1.60508">
        <ele>24.5</ele>
        <time>2020-06-22T18:20:41Z</time>
      </trkpt>
      <trkpt lat="50.75709" lon="1.60513">
        <ele>24.2</ele>
        <time>2020-06-22T18:20:42Z</time>
      </trkpt>
      <trkpt lat="50.75716" lon="1.60517">
        <ele>23.9</ele>
        <time>2020-06-22T18:20:43Z</time>
      </trkpt>
      <trkpt lat="50.75724" lon="1.60522">
        <ele>23.6</ele>
        <time>2020-06-22T18:20:44Z</time>
      </trkpt>
      <trkpt lat="50.75732" lon="1.60527">
        <ele>23.3</ele>
        <time>2020-06-22T18:20:45Z</time>
      </trkpt>
      <trkpt lat="50.7574" lon="1.60532">
        <ele>23</ele>
        <time>2020-06-22T18:20:46Z</time>
      </trkpt>
      <trkpt lat="50.75748" lon="1.60538">
        <ele>22.8</ele>
        <time>2020-06-22T18:20:47Z</time>
      </trkpt>
      <trkpt lat="50.75755" lon="1.60543">
        <ele>22.7</ele>
        <time>2020-06-22T18:20:48Z</time>
      </trkpt>
      <trkpt lat="50.75762" lon="1.60547">
        <ele>22.6</ele>
        <time>2020-06-22T18:20:49Z</time>
      </trkpt>
      <trkpt lat="50.75769" lon="1.60552">
        <ele>22.5</ele>
        <time>2020-06-22T18:20:50Z</time>
      </trkpt>
      <trkpt lat="50.75776" lon="1.60556">
        <ele>22.4</ele>
        <time>2020-06-22T18:20:51Z</time>
      </trkpt>
      <trkpt lat="50.75783" lon="1.6056">
        <ele>22.4</ele>
        <time>2020-06-22T18:20:52Z</time>
      </trkpt>
      <trkpt lat="50.7579" lon="1.60564">
        <ele>22.4</ele>
        <time>2020-06-22T18:20:53Z</time>
      </trkpt>
      <trkpt lat="50.75797" lon="1.60568">
        <ele>22.4</ele>
        <time>2020-06-22T18:20:54Z</time>
      </trkpt>
      <trkpt lat="50.75804" lon="1.60572">
        <ele>22.4</ele>
        <time>2020-06-22T18:20:55Z</time>
      </trkpt>
      <trkpt lat="50.75811" lon="1.60575">
        <ele>22.4</ele>
        <time>2020-06-22T18:20:56Z</time>
      </trkpt>
      <trkpt lat="50.75819" lon="1.60578">
        <ele>22.4</ele>
        <time>2020-06-22T18:20:57Z</time>
      </trkpt>
      <trkpt lat="50.75826" lon="1.60582">
        <ele>22.4</ele>
        <time>2020-06-22T18:20:58Z</time>
      </trkpt>
      <trkpt lat="50.75833" lon="1.60585">
        <ele>22.4</ele>
        <time>2020-06-22T18:20:59Z</time>
      </trkpt>
      <trkpt lat="50.7584" lon="1.60587">
        <ele>22.5</ele>
        <time>2020-06-22T18:21:00Z</time>
      </trkpt>
      <trkpt lat="50.75847" lon="1.60589">
        <ele>22.5</ele>
        <time>2020-06-22T18:21:01Z</time>
      </trkpt>
      <trkpt lat="50.75854" lon="1.60592">
        <ele>22.6</ele>
        <time>2020-06-22T18:21:02Z</time>
      </trkpt>
      <trkpt lat="50.75861" lon="1.60594">
        <ele>22.6</ele>
        <time>2020-06-22T18:21:03Z</time>
      </trkpt>
      <trkpt lat="50.75868" lon="1.60597">
        <ele>22.7</ele>
        <time>2020-06-22T18:21:04Z</time>
      </trkpt>
      <trkpt lat="50.75875" lon="1.606">
        <ele>22.7</ele>
        <time>2020-06-22T18:21:05Z</time>
      </trkpt>
      <trkpt lat="50.75882" lon="1.60602">
        <ele>22.8</ele>
        <time>2020-06-22T18:21:06Z</time>
      </trkpt>
      <trkpt lat="50.75889" lon="1.60605">
        <ele>22.8</ele>
        <time>2020-06-22T18:21:07Z</time>
      </trkpt>
      <trkpt lat="50.75896" lon="1.60607">
        <ele>22.9</ele>
        <time>2020-06-22T18:21:08Z</time>
      </trkpt>
      <trkpt lat="50.75903" lon="1.60608">
        <ele>22.9</ele>
        <time>2020-06-22T18:21:09Z</time>
      </trkpt>
      <trkpt lat="50.7591" lon="1.60609">
        <ele>22.9</ele>
        <time>2020-06-22T18:21:10Z</time>
      </trkpt>
      <trkpt lat="50.75918" lon="1.6061">
        <ele>23</ele>
        <time>2020-06-22T18:21:11Z</time>
      </trkpt>
      <trkpt lat="50.75925" lon="1.6061">
        <ele>23</ele>
        <time>2020-06-22T18:21:12Z</time>
      </trkpt>
      <trkpt lat="50.75932" lon="1.60611">
        <ele>23</ele>
        <time>2020-06-22T18:21:13Z</time>
      </trkpt>
      <trkpt lat="50.75938" lon="1.60611">
        <ele>23</ele>
        <time>2020-06-22T18:21:14Z</time>
      </trkpt>
      <trkpt lat="50.75945" lon="1.60612">
        <ele>23</ele>
        <time>2020-06-22T18:21:15Z</time>
      </trkpt>
      <trkpt lat="50.75951" lon="1.60614">
        <ele>23</ele>
        <time>2020-06-22T18:21:16Z</time>
      </trkpt>
      <trkpt lat="50.75958" lon="1.60614">
        <ele>23</ele>
        <time>2020-06-22T18:21:17Z</time>
      </trkpt>
      <trkpt lat="50.75965" lon="1.60615">
        <ele>23</ele>
        <time>2020-06-22T18:21:18Z</time>
      </trkpt>
      <trkpt lat="50.75971" lon="1.60616">
        <ele>22.9</ele>
        <time>2020-06-22T18:21:19Z</time>
      </trkpt>
      <trkpt lat="50.75978" lon="1.60616">
        <ele>22.9</ele>
        <time>2020-06-22T18:21:20Z</time>
      </trkpt>
      <trkpt lat="50.75985" lon="1.60617">
        <ele>22.9</ele>
        <time>2020-06-22T18:21:21Z</time>
      </trkpt>
      <trkpt lat="50.75992" lon="1.60617">
        <ele>23</ele>
        <time>2020-06-22T18:21:22Z</time>
      </trkpt>
      <trkpt lat="50.75998" lon="1.60617">
        <ele>23</ele>
        <time>2020-06-22T18:21:23Z</time>
      </trkpt>
      <trkpt lat="50.76005" lon="1.60618">
        <ele>23.1</ele>
        <time>2020-06-22T18:21:24Z</time>
      </trkpt>
      <trkpt lat="50.76012" lon="1.60619">
        <ele>23.1</ele>
        <time>2020-06-22T18:21:25Z</time>
      </trkpt>
      <trkpt lat="50.76018" lon="1.60619">
        <ele>23.1</ele>
        <time>2020-06-22T18:21:26Z</time>
      </trkpt>
      <trkpt lat="50.76025" lon="1.60621">
        <ele>23.2</ele>
        <time>2020-06-22T18:21:27Z</time>
      </trkpt>
      <trkpt lat="50.76031" lon="1.60621">
        <ele>23.2</ele>
        <time>2020-06-22T18:21:28Z</time>
      </trkpt>
      <trkpt lat="50.76037" lon="1.60621">
        <ele>23.2</ele>
        <time>2020-06-22T18:21:29Z</time>
      </trkpt>
      <trkpt lat="50.76043" lon="1.60621">
        <ele>23.2</ele>
        <time>2020-06-22T18:21:30Z</time>
      </trkpt>
      <trkpt lat="50.76049" lon="1.60623">
        <ele>23.2</ele>
        <time>2020-06-22T18:21:31Z</time>
      </trkpt>
      <trkpt lat="50.76054" lon="1.60625">
        <ele>23.2</ele>
        <time>2020-06-22T18:21:32Z</time>
      </trkpt>
      <trkpt lat="50.7606" lon="1.60627">
        <ele>23.2</ele>
        <time>2020-06-22T18:21:33Z</time>
      </trkpt>
      <trkpt lat="50.76066" lon="1.60628">
        <ele>23.2</ele>
        <time>2020-06-22T18:21:34Z</time>
      </trkpt>
      <trkpt lat="50.76071" lon="1.60628">
        <ele>23.2</ele>
        <time>2020-06-22T18:21:35Z</time>
      </trkpt>
      <trkpt lat="50.76076" lon="1.6063">
        <ele>23.2</ele>
        <time>2020-06-22T18:21:36Z</time>
      </trkpt>
      <trkpt lat="50.76081" lon="1.60631">
        <ele>23.2</ele>
        <time>2020-06-22T18:21:37Z</time>
      </trkpt>
      <trkpt lat="50.76085" lon="1.60633">
        <ele>23.2</ele>
        <time>2020-06-22T18:21:38Z</time>
      </trkpt>
      <trkpt lat="50.76089" lon="1.60635">
        <ele>23.2</ele>
        <time>2020-06-22T18:21:39Z</time>
      </trkpt>
      <trkpt lat="50.76093" lon="1.60636">
        <ele>23.2</ele>
        <time>2020-06-22T18:21:40Z</time>
      </trkpt>
      <trkpt lat="50.76096" lon="1.60637">
        <ele>23.2</ele>
        <time>2020-06-22T18:21:41Z</time>
      </trkpt>
      <trkpt lat="50.76099" lon="1.60639">
        <ele>23.2</ele>
        <time>2020-06-22T18:21:42Z</time>
      </trkpt>
      <trkpt lat="50.76102" lon="1.60639">
        <ele>23.2</ele>
        <time>2020-06-22T18:21:43Z</time>
      </trkpt>
      <trkpt lat="50.76105" lon="1.6064">
        <ele>23.2</ele>
        <time>2020-06-22T18:21:44Z</time>
      </trkpt>
      <trkpt lat="50.76107" lon="1.60641">
        <ele>23.1</ele>
        <time>2020-06-22T18:21:45Z</time>
      </trkpt>
      <trkpt lat="50.76112" lon="1.6064">
        <ele>23</ele>
        <time>2020-06-22T18:21:46Z</time>
      </trkpt>
      <trkpt lat="50.76113" lon="1.6064">
        <ele>23</ele>
        <time>2020-06-22T18:21:47Z</time>
      </trkpt>
      <trkpt lat="50.76116" lon="1.60637">
        <ele>22.9</ele>
        <time>2020-06-22T18:21:48Z</time>
      </trkpt>
      <trkpt lat="50.7612" lon="1.60636">
        <ele>22.7</ele>
        <time>2020-06-22T18:21:49Z</time>
      </trkpt>
      <trkpt lat="50.76123" lon="1.60637">
        <ele>22.6</ele>
        <time>2020-06-22T18:21:50Z</time>
      </trkpt>
      <trkpt lat="50.76127" lon="1.60638">
        <ele>22.4</ele>
        <time>2020-06-22T18:21:51Z</time>
      </trkpt>
      <trkpt lat="50.76131" lon="1.60641">
        <ele>22.3</ele>
        <time>2020-06-22T18:21:52Z</time>
      </trkpt>
      <trkpt lat="50.76135" lon="1.60642">
        <ele>22.1</ele>
        <time>2020-06-22T18:21:53Z</time>
      </trkpt>
      <trkpt lat="50.76139" lon="1.60645">
        <ele>21.9</ele>
        <time>2020-06-22T18:21:54Z</time>
      </trkpt>
      <trkpt lat="50.76143" lon="1.60648">
        <ele>21.6</ele>
        <time>2020-06-22T18:21:55Z</time>
      </trkpt>
      <trkpt lat="50.76148" lon="1.60652">
        <ele>21.3</ele>
        <time>2020-06-22T18:21:56Z</time>
      </trkpt>
      <trkpt lat="50.76153" lon="1.60656">
        <ele>22.3</ele>
        <time>2020-06-22T18:21:57Z</time>
      </trkpt>
      <trkpt lat="50.76158" lon="1.60662">
        <ele>21.8</ele>
        <time>2020-06-22T18:21:58Z</time>
      </trkpt>
      <trkpt lat="50.76164" lon="1.60667">
        <ele>21.4</ele>
        <time>2020-06-22T18:21:59Z</time>
      </trkpt>
      <trkpt lat="50.76169" lon="1.60671">
        <ele>20.9</ele>
        <time>2020-06-22T18:22:00Z</time>
      </trkpt>
      <trkpt lat="50.76176" lon="1.60675">
        <ele>20.4</ele>
        <time>2020-06-22T18:22:01Z</time>
      </trkpt>
      <trkpt lat="50.76183" lon="1.60678">
        <ele>19.9</ele>
        <time>2020-06-22T18:22:02Z</time>
      </trkpt>
      <trkpt lat="50.7619" lon="1.60681">
        <ele>19.4</ele>
        <time>2020-06-22T18:22:03Z</time>
      </trkpt>
      <trkpt lat="50.76197" lon="1.60684">
        <ele>18.8</ele>
        <time>2020-06-22T18:22:04Z</time>
      </trkpt>
      <trkpt lat="50.76205" lon="1.60689">
        <ele>18.2</ele>
        <time>2020-06-22T18:22:05Z</time>
      </trkpt>
      <trkpt lat="50.76212" lon="1.60692">
        <ele>17.6</ele>
        <time>2020-06-22T18:22:06Z</time>
      </trkpt>
      <trkpt lat="50.7622" lon="1.60697">
        <ele>17</ele>
        <time>2020-06-22T18:22:07Z</time>
      </trkpt>
      <trkpt lat="50.76228" lon="1.607">
        <ele>16.5</ele>
        <time>2020-06-22T18:22:08Z</time>
      </trkpt>
      <trkpt lat="50.76236" lon="1.60704">
        <ele>15.9</ele>
        <time>2020-06-22T18:22:09Z</time>
      </trkpt>
      <trkpt lat="50.76244" lon="1.60708">
        <ele>15.4</ele>
        <time>2020-06-22T18:22:10Z</time>
      </trkpt>
      <trkpt lat="50.76253" lon="1.60712">
        <ele>14.8</ele>
        <time>2020-06-22T18:22:11Z</time>
      </trkpt>
      <trkpt lat="50.76262" lon="1.60716">
        <ele>14.3</ele>
        <time>2020-06-22T18:22:12Z</time>
      </trkpt>
      <trkpt lat="50.7627" lon="1.60721">
        <ele>13.7</ele>
        <time>2020-06-22T18:22:13Z</time>
      </trkpt>
      <trkpt lat="50.76279" lon="1.60724">
        <ele>13.1</ele>
        <time>2020-06-22T18:22:14Z</time>
      </trkpt>
      <trkpt lat="50.76288" lon="1.60728">
        <ele>12.5</ele>
        <time>2020-06-22T18:22:15Z</time>
      </trkpt>
      <trkpt lat="50.76297" lon="1.60731">
        <ele>11.9</ele>
        <time>2020-06-22T18:22:16Z</time>
      </trkpt>
      <trkpt lat="50.76306" lon="1.60735">
        <ele>11.4</ele>
        <time>2020-06-22T18:22:17Z</time>
      </trkpt>
      <trkpt lat="50.76315" lon="1.60739">
        <ele>11</ele>
        <time>2020-06-22T18:22:18Z</time>
      </trkpt>
      <trkpt lat="50.76324" lon="1.60744">
        <ele>10.5</ele>
        <time>2020-06-22T18:22:19Z</time>
      </trkpt>
      <trkpt lat="50.76333" lon="1.60748">
        <ele>10.1</ele>
        <time>2020-06-22T18:22:20Z</time>
      </trkpt>
      <trkpt lat="50.76342" lon="1.60753">
        <ele>9.7</ele>
        <time>2020-06-22T18:22:21Z</time>
      </trkpt>
      <trkpt lat="50.76352" lon="1.60758">
        <ele>9.3</ele>
        <time>2020-06-22T18:22:22Z</time>
      </trkpt>
      <trkpt lat="50.76361" lon="1.60762">
        <ele>9</ele>
        <time>2020-06-22T18:22:23Z</time>
      </trkpt>
      <trkpt lat="50.7637" lon="1.60767">
        <ele>8.6</ele>
        <time>2020-06-22T18:22:24Z</time>
      </trkpt>
      <trkpt lat="50.7638" lon="1.60772">
        <ele>8.6</ele>
        <time>2020-06-22T18:22:25Z</time>
      </trkpt>
      <trkpt lat="50.76388" lon="1.60777">
        <ele>8.5</ele>
        <time>2020-06-22T18:22:26Z</time>
      </trkpt>
      <trkpt lat="50.76397" lon="1.60781">
        <ele>8.5</ele>
        <time>2020-06-22T18:22:27Z</time>
      </trkpt>
      <trkpt lat="50.76406" lon="1.60785">
        <ele>8.5</ele>
        <time>2020-06-22T18:22:28Z</time>
      </trkpt>
      <trkpt lat="50.76414" lon="1.6079">
        <ele>8.5</ele>
        <time>2020-06-22T18:22:29Z</time>
      </trkpt>
      <trkpt lat="50.76422" lon="1.60794">
        <ele>8.6</ele>
        <time>2020-06-22T18:22:30Z</time>
      </trkpt>
      <trkpt lat="50.7643" lon="1.60799">
        <ele>8.8</ele>
        <time>2020-06-22T18:22:31Z</time>
      </trkpt>
      <trkpt lat="50.76438" lon="1.60804">
        <ele>9</ele>
        <time>2020-06-22T18:22:32Z</time>
      </trkpt>
      <trkpt lat="50.76444" lon="1.6081">
        <ele>9.3</ele>
        <time>2020-06-22T18:22:33Z</time>
      </trkpt>
      <trkpt lat="50.7645" lon="1.60816">
        <ele>9.6</ele>
        <time>2020-06-22T18:22:34Z</time>
      </trkpt>
      <trkpt lat="50.76456" lon="1.60822">
        <ele>10</ele>
        <time>2020-06-22T18:22:35Z</time>
      </trkpt>
      <trkpt lat="50.76461" lon="1.60827">
        <ele>9.9</ele>
        <time>2020-06-22T18:22:36Z</time>
      </trkpt>
      <trkpt lat="50.76467" lon="1.60832">
        <ele>9.8</ele>
        <time>2020-06-22T18:22:37Z</time>
      </trkpt>
      <trkpt lat="50.76471" lon="1.60837">
        <ele>9.8</ele>
        <time>2020-06-22T18:22:38Z</time>
      </trkpt>
      <trkpt lat="50.76475" lon="1.60843">
        <ele>9.6</ele>
        <time>2020-06-22T18:22:39Z</time>
      </trkpt>
      <trkpt lat="50.76479" lon="1.60846">
        <ele>9.7</ele>
        <time>2020-06-22T18:22:40Z</time>
      </trkpt>
      <trkpt lat="50.76484" lon="1.60851">
        <ele>9.7</ele>
        <time>2020-06-22T18:22:41Z</time>
      </trkpt>
      <trkpt lat="50.76488" lon="1.60856">
        <ele>9.7</ele>
        <time>2020-06-22T18:22:42Z</time>
      </trkpt>
      <trkpt lat="50.76491" lon="1.60863">
        <ele>9.8</ele>
        <time>2020-06-22T18:22:43Z</time>
      </trkpt>
      <trkpt lat="50.76495" lon="1.60867">
        <ele>9.9</ele>
        <time>2020-06-22T18:22:44Z</time>
      </trkpt>
      <trkpt lat="50.765" lon="1.60872">
        <ele>9.9</ele>
        <time>2020-06-22T18:22:45Z</time>
      </trkpt>
      <trkpt lat="50.76503" lon="1.60878">
        <ele>10</ele>
        <time>2020-06-22T18:22:46Z</time>
      </trkpt>
      <trkpt lat="50.76508" lon="1.60883">
        <ele>10.1</ele>
        <time>2020-06-22T18:22:47Z</time>
      </trkpt>
      <trkpt lat="50.76511" lon="1.60889">
        <ele>10.2</ele>
        <time>2020-06-22T18:22:48Z</time>
      </trkpt>
      <trkpt lat="50.76515" lon="1.60894">
        <ele>10.3</ele>
        <time>2020-06-22T18:22:49Z</time>
      </trkpt>
      <trkpt lat="50.76517" lon="1.60901">
        <ele>10.4</ele>
        <time>2020-06-22T18:22:50Z</time>
      </trkpt>
      <trkpt lat="50.7652" lon="1.60907">
        <ele>11.3</ele>
        <time>2020-06-22T18:22:51Z</time>
      </trkpt>
      <trkpt lat="50.76523" lon="1.60911">
        <ele>11.4</ele>
        <time>2020-06-22T18:22:52Z</time>
      </trkpt>
      <trkpt lat="50.76527" lon="1.60915">
        <ele>11.4</ele>
        <time>2020-06-22T18:22:53Z</time>
      </trkpt>
      <trkpt lat="50.7653" lon="1.6092">
        <ele>11.5</ele>
        <time>2020-06-22T18:22:54Z</time>
      </trkpt>
      <trkpt lat="50.76534" lon="1.60925">
        <ele>11.5</ele>
        <time>2020-06-22T18:22:55Z</time>
      </trkpt>
      <trkpt lat="50.76538" lon="1.6093">
        <ele>11.6</ele>
        <time>2020-06-22T18:22:56Z</time>
      </trkpt>
      <trkpt lat="50.76542" lon="1.60936">
        <ele>11.7</ele>
        <time>2020-06-22T18:22:57Z</time>
      </trkpt>
      <trkpt lat="50.76545" lon="1.60942">
        <ele>11.7</ele>
        <time>2020-06-22T18:22:58Z</time>
      </trkpt>
      <trkpt lat="50.76548" lon="1.60948">
        <ele>11.8</ele>
        <time>2020-06-22T18:22:59Z</time>
      </trkpt>
      <trkpt lat="50.76551" lon="1.60953">
        <ele>11.8</ele>
        <time>2020-06-22T18:23:00Z</time>
      </trkpt>
      <trkpt lat="50.76554" lon="1.60959">
        <ele>11.8</ele>
        <time>2020-06-22T18:23:01Z</time>
      </trkpt>
      <trkpt lat="50.76557" lon="1.60964">
        <ele>11.8</ele>
        <time>2020-06-22T18:23:02Z</time>
      </trkpt>
      <trkpt lat="50.7656" lon="1.60969">
        <ele>11.8</ele>
        <time>2020-06-22T18:23:03Z</time>
      </trkpt>
      <trkpt lat="50.76564" lon="1.60974">
        <ele>11.8</ele>
        <time>2020-06-22T18:23:04Z</time>
      </trkpt>
      <trkpt lat="50.76566" lon="1.6098">
        <ele>11.8</ele>
        <time>2020-06-22T18:23:05Z</time>
      </trkpt>
      <trkpt lat="50.76569" lon="1.60985">
        <ele>11.8</ele>
        <time>2020-06-22T18:23:06Z</time>
      </trkpt>
      <trkpt lat="50.76572" lon="1.60991">
        <ele>11.8</ele>
        <time>2020-06-22T18:23:07Z</time>
      </trkpt>
      <trkpt lat="50.76574" lon="1.60996">
        <ele>11.8</ele>
        <time>2020-06-22T18:23:08Z</time>
      </trkpt>
      <trkpt lat="50.76577" lon="1.61001">
        <ele>11.8</ele>
        <time>2020-06-22T18:23:09Z</time>
      </trkpt>
      <trkpt lat="50.7658" lon="1.61006">
        <ele>11.8</ele>
        <time>2020-06-22T18:23:10Z</time>
      </trkpt>
      <trkpt lat="50.76584" lon="1.61011">
        <ele>11.8</ele>
        <time>2020-06-22T18:23:11Z</time>
      </trkpt>
      <trkpt lat="50.76588" lon="1.61016">
        <ele>11.8</ele>
        <time>2020-06-22T18:23:12Z</time>
      </trkpt>
      <trkpt lat="50.76592" lon="1.6102">
        <ele>11.8</ele>
        <time>2020-06-22T18:23:13Z</time>
      </trkpt>
      <trkpt lat="50.76595" lon="1.61023">
        <ele>11.8</ele>
        <time>2020-06-22T18:23:14Z</time>
      </trkpt>
      <trkpt lat="50.76598" lon="1.61026">
        <ele>11.8</ele>
        <time>2020-06-22T18:23:15Z</time>
      </trkpt>
      <trkpt lat="50.76602" lon="1.61029">
        <ele>11.8</ele>
        <time>2020-06-22T18:23:16Z</time>
      </trkpt>
      <trkpt lat="50.76606" lon="1.61031">
        <ele>11.8</ele>
        <time>2020-06-22T18:23:17Z</time>
      </trkpt>
      <trkpt lat="50.76609" lon="1.61034">
        <ele>11.7</ele>
        <time>2020-06-22T18:23:18Z</time>
      </trkpt>
      <trkpt lat="50.76612" lon="1.61036">
        <ele>11.7</ele>
        <time>2020-06-22T18:23:19Z</time>
      </trkpt>
      <trkpt lat="50.76615" lon="1.61039">
        <ele>11.7</ele>
        <time>2020-06-22T18:23:20Z</time>
      </trkpt>
      <trkpt lat="50.76617" lon="1.61042">
        <ele>11.7</ele>
        <time>2020-06-22T18:23:21Z</time>
      </trkpt>
      <trkpt lat="50.7662" lon="1.61045">
        <ele>11.7</ele>
        <time>2020-06-22T18:23:22Z</time>
      </trkpt>
      <trkpt lat="50.76621" lon="1.61046">
        <ele>11.7</ele>
        <time>2020-06-22T18:23:23Z</time>
      </trkpt>
      <trkpt lat="50.76624" lon="1.6105">
        <ele>11.7</ele>
        <time>2020-06-22T18:23:24Z</time>
      </trkpt>
      <trkpt lat="50.76624" lon="1.61051">
        <ele>11.7</ele>
        <time>2020-06-22T18:23:25Z</time>
      </trkpt>
      <trkpt lat="50.76625" lon="1.61053">
        <ele>11.7</ele>
        <time>2020-06-22T18:23:26Z</time>
      </trkpt>
      <trkpt lat="50.76626" lon="1.61055">
        <ele>11.7</ele>
        <time>2020-06-22T18:23:27Z</time>
      </trkpt>
      <trkpt lat="50.76628" lon="1.6106">
        <ele>11.7</ele>
        <time>2020-06-22T18:23:28Z</time>
      </trkpt>
      <trkpt lat="50.76627" lon="1.61062">
        <ele>11.7</ele>
        <time>2020-06-22T18:23:29Z</time>
      </trkpt>
      <trkpt lat="50.76626" lon="1.61066">
        <ele>11.7</ele>
        <time>2020-06-22T18:23:30Z</time>
      </trkpt>
      <trkpt lat="50.76625" lon="1.61072">
        <ele>11.7</ele>
        <time>2020-06-22T18:23:31Z</time>
      </trkpt>
      <trkpt lat="50.76625" lon="1.61073">
        <ele>11.7</ele>
        <time>2020-06-22T18:23:32Z</time>
      </trkpt>
      <trkpt lat="50.76626" lon="1.61075">
        <ele>11.7</ele>
        <time>2020-06-22T18:23:33Z</time>
      </trkpt>
      <trkpt lat="50.76627" lon="1.61077">
        <ele>11.6</ele>
        <time>2020-06-22T18:23:34Z</time>
      </trkpt>
      <trkpt lat="50.76629" lon="1.6108">
        <ele>11.6</ele>
        <time>2020-06-22T18:23:35Z</time>
      </trkpt>
      <trkpt lat="50.7663" lon="1.6108">
        <ele>11.6</ele>
        <time>2020-06-22T18:23:36Z</time>
      </trkpt>
      <trkpt lat="50.76633" lon="1.61084">
        <ele>11.5</ele>
        <time>2020-06-22T18:23:37Z</time>
      </trkpt>
      <trkpt lat="50.76634" lon="1.61086">
        <ele>11.5</ele>
        <time>2020-06-22T18:23:38Z</time>
      </trkpt>
      <trkpt lat="50.76637" lon="1.61089">
        <ele>11.4</ele>
        <time>2020-06-22T18:23:39Z</time>
      </trkpt>
      <trkpt lat="50.76639" lon="1.61092">
        <ele>11.3</ele>
        <time>2020-06-22T18:23:40Z</time>
      </trkpt>
      <trkpt lat="50.76642" lon="1.61094">
        <ele>11.2</ele>
        <time>2020-06-22T18:23:41Z</time>
      </trkpt>
      <trkpt lat="50.76645" lon="1.61096">
        <ele>11.1</ele>
        <time>2020-06-22T18:23:42Z</time>
      </trkpt>
      <trkpt lat="50.76648" lon="1.61097">
        <ele>11</ele>
        <time>2020-06-22T18:23:43Z</time>
      </trkpt>
      <trkpt lat="50.76652" lon="1.61099">
        <ele>10.8</ele>
        <time>2020-06-22T18:23:44Z</time>
      </trkpt>
      <trkpt lat="50.76655" lon="1.61098">
        <ele>10.7</ele>
        <time>2020-06-22T18:23:45Z</time>
      </trkpt>
      <trkpt lat="50.76658" lon="1.611">
        <ele>10.5</ele>
        <time>2020-06-22T18:23:46Z</time>
      </trkpt>
      <trkpt lat="50.76661" lon="1.61101">
        <ele>10.4</ele>
        <time>2020-06-22T18:23:47Z</time>
      </trkpt>
      <trkpt lat="50.76663" lon="1.61104">
        <ele>10.2</ele>
        <time>2020-06-22T18:23:48Z</time>
      </trkpt>
      <trkpt lat="50.76666" lon="1.61107">
        <ele>10</ele>
        <time>2020-06-22T18:23:49Z</time>
      </trkpt>
      <trkpt lat="50.76669" lon="1.61113">
        <ele>9.9</ele>
        <time>2020-06-22T18:23:50Z</time>
      </trkpt>
      <trkpt lat="50.76671" lon="1.61114">
        <ele>9.8</ele>
        <time>2020-06-22T18:23:51Z</time>
      </trkpt>
      <trkpt lat="50.76675" lon="1.61116">
        <ele>9.8</ele>
        <time>2020-06-22T18:23:52Z</time>
      </trkpt>
      <trkpt lat="50.76678" lon="1.61121">
        <ele>9.6</ele>
        <time>2020-06-22T18:23:53Z</time>
      </trkpt>
      <trkpt lat="50.76683" lon="1.61124">
        <ele>9.5</ele>
        <time>2020-06-22T18:23:54Z</time>
      </trkpt>
      <trkpt lat="50.76688" lon="1.61127">
        <ele>9.3</ele>
        <time>2020-06-22T18:23:55Z</time>
      </trkpt>
      <trkpt lat="50.76692" lon="1.61131">
        <ele>9.1</ele>
        <time>2020-06-22T18:23:56Z</time>
      </trkpt>
      <trkpt lat="50.76697" lon="1.61134">
        <ele>9</ele>
        <time>2020-06-22T18:23:57Z</time>
      </trkpt>
      <trkpt lat="50.76701" lon="1.61138">
        <ele>8.9</ele>
        <time>2020-06-22T18:23:58Z</time>
      </trkpt>
      <trkpt lat="50.76706" lon="1.61139">
        <ele>8.9</ele>
        <time>2020-06-22T18:23:59Z</time>
      </trkpt>
      <trkpt lat="50.76711" lon="1.6114">
        <ele>8.8</ele>
        <time>2020-06-22T18:24:00Z</time>
      </trkpt>
      <trkpt lat="50.76716" lon="1.6114">
        <ele>8.6</ele>
        <time>2020-06-22T18:24:01Z</time>
      </trkpt>
      <trkpt lat="50.76721" lon="1.61142">
        <ele>8.5</ele>
        <time>2020-06-22T18:24:02Z</time>
      </trkpt>
      <trkpt lat="50.76727" lon="1.61143">
        <ele>8.3</ele>
        <time>2020-06-22T18:24:03Z</time>
      </trkpt>
      <trkpt lat="50.76732" lon="1.61144">
        <ele>8.2</ele>
        <time>2020-06-22T18:24:04Z</time>
      </trkpt>
      <trkpt lat="50.76737" lon="1.61144">
        <ele>8</ele>
        <time>2020-06-22T18:24:05Z</time>
      </trkpt>
      <trkpt lat="50.76743" lon="1.61144">
        <ele>7.9</ele>
        <time>2020-06-22T18:24:06Z</time>
      </trkpt>
      <trkpt lat="50.76748" lon="1.61144">
        <ele>7.7</ele>
        <time>2020-06-22T18:24:07Z</time>
      </trkpt>
      <trkpt lat="50.76754" lon="1.61143">
        <ele>7.7</ele>
        <time>2020-06-22T18:24:08Z</time>
      </trkpt>
      <trkpt lat="50.76759" lon="1.61142">
        <ele>7.7</ele>
        <time>2020-06-22T18:24:09Z</time>
      </trkpt>
      <trkpt lat="50.76765" lon="1.61141">
        <ele>7.7</ele>
        <time>2020-06-22T18:24:10Z</time>
      </trkpt>
      <trkpt lat="50.76771" lon="1.61141">
        <ele>7.7</ele>
        <time>2020-06-22T18:24:11Z</time>
      </trkpt>
      <trkpt lat="50.76777" lon="1.61142">
        <ele>7.8</ele>
        <time>2020-06-22T18:24:12Z</time>
      </trkpt>
      <trkpt lat="50.76782" lon="1.61143">
        <ele>7.8</ele>
        <time>2020-06-22T18:24:13Z</time>
      </trkpt>
      <trkpt lat="50.76787" lon="1.61144">
        <ele>7.8</ele>
        <time>2020-06-22T18:24:14Z</time>
      </trkpt>
      <trkpt lat="50.76792" lon="1.61144">
        <ele>7.9</ele>
        <time>2020-06-22T18:24:15Z</time>
      </trkpt>
      <trkpt lat="50.76797" lon="1.61144">
        <ele>7.9</ele>
        <time>2020-06-22T18:24:16Z</time>
      </trkpt>
      <trkpt lat="50.76802" lon="1.61144">
        <ele>7.9</ele>
        <time>2020-06-22T18:24:17Z</time>
      </trkpt>
      <trkpt lat="50.76806" lon="1.61143">
        <ele>8</ele>
        <time>2020-06-22T18:24:18Z</time>
      </trkpt>
      <trkpt lat="50.76811" lon="1.61144">
        <ele>8</ele>
        <time>2020-06-22T18:24:19Z</time>
      </trkpt>
      <trkpt lat="50.76815" lon="1.61144">
        <ele>8</ele>
        <time>2020-06-22T18:24:20Z</time>
      </trkpt>
      <trkpt lat="50.7682" lon="1.61145">
        <ele>8</ele>
        <time>2020-06-22T18:24:21Z</time>
      </trkpt>
      <trkpt lat="50.76824" lon="1.61144">
        <ele>8</ele>
        <time>2020-06-22T18:24:22Z</time>
      </trkpt>
      <trkpt lat="50.76829" lon="1.61144">
        <ele>8</ele>
        <time>2020-06-22T18:24:23Z</time>
      </trkpt>
      <trkpt lat="50.76833" lon="1.61143">
        <ele>8</ele>
        <time>2020-06-22T18:24:24Z</time>
      </trkpt>
      <trkpt lat="50.76838" lon="1.61143">
        <ele>8</ele>
        <time>2020-06-22T18:24:25Z</time>
      </trkpt>
      <trkpt lat="50.76842" lon="1.61144">
        <ele>8.1</ele>
        <time>2020-06-22T18:24:26Z</time>
      </trkpt>
      <trkpt lat="50.76846" lon="1.61144">
        <ele>8.1</ele>
        <time>2020-06-22T18:24:27Z</time>
      </trkpt>
      <trkpt lat="50.7685" lon="1.61144">
        <ele>8.1</ele>
        <time>2020-06-22T18:24:28Z</time>
      </trkpt>
      <trkpt lat="50.76854" lon="1.61144">
        <ele>8.1</ele>
        <time>2020-06-22T18:24:29Z</time>
      </trkpt>
      <trkpt lat="50.76859" lon="1.61143">
        <ele>8.1</ele>
        <time>2020-06-22T18:24:30Z</time>
      </trkpt>
      <trkpt lat="50.76863" lon="1.61144">
        <ele>8.1</ele>
        <time>2020-06-22T18:24:31Z</time>
      </trkpt>
      <trkpt lat="50.76868" lon="1.61144">
        <ele>8.2</ele>
        <time>2020-06-22T18:24:32Z</time>
      </trkpt>
      <trkpt lat="50.76872" lon="1.61145">
        <ele>8.2</ele>
        <time>2020-06-22T18:24:33Z</time>
      </trkpt>
      <trkpt lat="50.76877" lon="1.61145">
        <ele>8.2</ele>
        <time>2020-06-22T18:24:34Z</time>
      </trkpt>
      <trkpt lat="50.76881" lon="1.61147">
        <ele>8.2</ele>
        <time>2020-06-22T18:24:35Z</time>
      </trkpt>
      <trkpt lat="50.76885" lon="1.61151">
        <ele>8.2</ele>
        <time>2020-06-22T18:24:36Z</time>
      </trkpt>
      <trkpt lat="50.7689" lon="1.61153">
        <ele>8.2</ele>
        <time>2020-06-22T18:24:37Z</time>
      </trkpt>
      <trkpt lat="50.76894" lon="1.61153">
        <ele>8.2</ele>
        <time>2020-06-22T18:24:38Z</time>
      </trkpt>
      <trkpt lat="50.76898" lon="1.61156">
        <ele>8.2</ele>
        <time>2020-06-22T18:24:39Z</time>
      </trkpt>
      <trkpt lat="50.76902" lon="1.61156">
        <ele>8.2</ele>
        <time>2020-06-22T18:24:40Z</time>
      </trkpt>
      <trkpt lat="50.76906" lon="1.61155">
        <ele>8.2</ele>
        <time>2020-06-22T18:24:41Z</time>
      </trkpt>
      <trkpt lat="50.7691" lon="1.61154">
        <ele>8.1</ele>
        <time>2020-06-22T18:24:42Z</time>
      </trkpt>
      <trkpt lat="50.76914" lon="1.61153">
        <ele>8.1</ele>
        <time>2020-06-22T18:24:43Z</time>
      </trkpt>
      <trkpt lat="50.76919" lon="1.61154">
        <ele>8</ele>
        <time>2020-06-22T18:24:44Z</time>
      </trkpt>
      <trkpt lat="50.76923" lon="1.61155">
        <ele>8</ele>
        <time>2020-06-22T18:24:45Z</time>
      </trkpt>
      <trkpt lat="50.76927" lon="1.61154">
        <ele>7.9</ele>
        <time>2020-06-22T18:24:46Z</time>
      </trkpt>
      <trkpt lat="50.76931" lon="1.61156">
        <ele>7.8</ele>
        <time>2020-06-22T18:24:47Z</time>
      </trkpt>
      <trkpt lat="50.76935" lon="1.61154">
        <ele>7.8</ele>
        <time>2020-06-22T18:24:48Z</time>
      </trkpt>
      <trkpt lat="50.7694" lon="1.61152">
        <ele>7.7</ele>
        <time>2020-06-22T18:24:49Z</time>
      </trkpt>
      <trkpt lat="50.76944" lon="1.61151">
        <ele>7.7</ele>
        <time>2020-06-22T18:24:50Z</time>
      </trkpt>
      <trkpt lat="50.76948" lon="1.61152">
        <ele>7.7</ele>
        <time>2020-06-22T18:24:51Z</time>
      </trkpt>
      <trkpt lat="50.76952" lon="1.61153">
        <ele>7.6</ele>
        <time>2020-06-22T18:24:52Z</time>
      </trkpt>
      <trkpt lat="50.76955" lon="1.61161">
        <ele>7.6</ele>
        <time>2020-06-22T18:24:53Z</time>
      </trkpt>
      <trkpt lat="50.76958" lon="1.61165">
        <ele>7.5</ele>
        <time>2020-06-22T18:24:54Z</time>
      </trkpt>
      <trkpt lat="50.76962" lon="1.61165">
        <ele>7.5</ele>
        <time>2020-06-22T18:24:55Z</time>
      </trkpt>
      <trkpt lat="50.76966" lon="1.61166">
        <ele>7.5</ele>
        <time>2020-06-22T18:24:56Z</time>
      </trkpt>
      <trkpt lat="50.76969" lon="1.61168">
        <ele>7.5</ele>
        <time>2020-06-22T18:24:57Z</time>
      </trkpt>
      <trkpt lat="50.76973" lon="1.61171">
        <ele>7.4</ele>
        <time>2020-06-22T18:24:58Z</time>
      </trkpt>
      <trkpt lat="50.76977" lon="1.61173">
        <ele>7.4</ele>
        <time>2020-06-22T18:24:59Z</time>
      </trkpt>
      <trkpt lat="50.7698" lon="1.61175">
        <ele>7.4</ele>
        <time>2020-06-22T18:25:00Z</time>
      </trkpt>
      <trkpt lat="50.76984" lon="1.61176">
        <ele>7.3</ele>
        <time>2020-06-22T18:25:01Z</time>
      </trkpt>
      <trkpt lat="50.76988" lon="1.61176">
        <ele>7.4</ele>
        <time>2020-06-22T18:25:02Z</time>
      </trkpt>
      <trkpt lat="50.76992" lon="1.61176">
        <ele>7.4</ele>
        <time>2020-06-22T18:25:03Z</time>
      </trkpt>
      <trkpt lat="50.76995" lon="1.61177">
        <ele>7.5</ele>
        <time>2020-06-22T18:25:04Z</time>
      </trkpt>
      <trkpt lat="50.76999" lon="1.61178">
        <ele>7.5</ele>
        <time>2020-06-22T18:25:05Z</time>
      </trkpt>
      <trkpt lat="50.77002" lon="1.61177">
        <ele>7.5</ele>
        <time>2020-06-22T18:25:06Z</time>
      </trkpt>
      <trkpt lat="50.77006" lon="1.61176">
        <ele>7.6</ele>
        <time>2020-06-22T18:25:07Z</time>
      </trkpt>
      <trkpt lat="50.7701" lon="1.61175">
        <ele>7.7</ele>
        <time>2020-06-22T18:25:08Z</time>
      </trkpt>
      <trkpt lat="50.77013" lon="1.61174">
        <ele>7.7</ele>
        <time>2020-06-22T18:25:09Z</time>
      </trkpt>
      <trkpt lat="50.77016" lon="1.61174">
        <ele>7.7</ele>
        <time>2020-06-22T18:25:10Z</time>
      </trkpt>
      <trkpt lat="50.7702" lon="1.61174">
        <ele>7.7</ele>
        <time>2020-06-22T18:25:11Z</time>
      </trkpt>
      <trkpt lat="50.77023" lon="1.61173">
        <ele>7.7</ele>
        <time>2020-06-22T18:25:12Z</time>
      </trkpt>
      <trkpt lat="50.77026" lon="1.61173">
        <ele>7.7</ele>
        <time>2020-06-22T18:25:13Z</time>
      </trkpt>
      <trkpt lat="50.77029" lon="1.61173">
        <ele>7.7</ele>
        <time>2020-06-22T18:25:14Z</time>
      </trkpt>
      <trkpt lat="50.77033" lon="1.61174">
        <ele>7.7</ele>
        <time>2020-06-22T18:25:15Z</time>
      </trkpt>
      <trkpt lat="50.77036" lon="1.61176">
        <ele>7.7</ele>
        <time>2020-06-22T18:25:16Z</time>
      </trkpt>
      <trkpt lat="50.7704" lon="1.61178">
        <ele>7.7</ele>
        <time>2020-06-22T18:25:17Z</time>
      </trkpt>
      <trkpt lat="50.77044" lon="1.61178">
        <ele>7.7</ele>
        <time>2020-06-22T18:25:18Z</time>
      </trkpt>
      <trkpt lat="50.77048" lon="1.61178">
        <ele>7.7</ele>
        <time>2020-06-22T18:25:19Z</time>
      </trkpt>
      <trkpt lat="50.77052" lon="1.61179">
        <ele>7.8</ele>
        <time>2020-06-22T18:25:20Z</time>
      </trkpt>
      <trkpt lat="50.77055" lon="1.6118">
        <ele>7.9</ele>
        <time>2020-06-22T18:25:21Z</time>
      </trkpt>
      <trkpt lat="50.77058" lon="1.61181">
        <ele>8</ele>
        <time>2020-06-22T18:25:22Z</time>
      </trkpt>
      <trkpt lat="50.77061" lon="1.61182">
        <ele>8.1</ele>
        <time>2020-06-22T18:25:23Z</time>
      </trkpt>
      <trkpt lat="50.77064" lon="1.61183">
        <ele>8.2</ele>
        <time>2020-06-22T18:25:24Z</time>
      </trkpt>
      <trkpt lat="50.77067" lon="1.61186">
        <ele>8.3</ele>
        <time>2020-06-22T18:25:25Z</time>
      </trkpt>
      <trkpt lat="50.7707" lon="1.61188">
        <ele>8.4</ele>
        <time>2020-06-22T18:25:26Z</time>
      </trkpt>
      <trkpt lat="50.77073" lon="1.61188">
        <ele>8.5</ele>
        <time>2020-06-22T18:25:27Z</time>
      </trkpt>
      <trkpt lat="50.77077" lon="1.61189">
        <ele>8.6</ele>
        <time>2020-06-22T18:25:28Z</time>
      </trkpt>
      <trkpt lat="50.7708" lon="1.61189">
        <ele>8.8</ele>
        <time>2020-06-22T18:25:29Z</time>
      </trkpt>
      <trkpt lat="50.77083" lon="1.6119">
        <ele>9</ele>
        <time>2020-06-22T18:25:30Z</time>
      </trkpt>
      <trkpt lat="50.77086" lon="1.6119">
        <ele>9.1</ele>
        <time>2020-06-22T18:25:31Z</time>
      </trkpt>
      <trkpt lat="50.77089" lon="1.61192">
        <ele>9.3</ele>
        <time>2020-06-22T18:25:32Z</time>
      </trkpt>
      <trkpt lat="50.77093" lon="1.61192">
        <ele>9.5</ele>
        <time>2020-06-22T18:25:33Z</time>
      </trkpt>
      <trkpt lat="50.77096" lon="1.61193">
        <ele>9.7</ele>
        <time>2020-06-22T18:25:34Z</time>
      </trkpt>
      <trkpt lat="50.771" lon="1.61194">
        <ele>9.9</ele>
        <time>2020-06-22T18:25:35Z</time>
      </trkpt>
      <trkpt lat="50.77103" lon="1.61196">
        <ele>10.1</ele>
        <time>2020-06-22T18:25:36Z</time>
      </trkpt>
      <trkpt lat="50.77107" lon="1.61197">
        <ele>10.4</ele>
        <time>2020-06-22T18:25:37Z</time>
      </trkpt>
      <trkpt lat="50.77111" lon="1.61199">
        <ele>10.6</ele>
        <time>2020-06-22T18:25:38Z</time>
      </trkpt>
      <trkpt lat="50.77115" lon="1.61201">
        <ele>10.9</ele>
        <time>2020-06-22T18:25:39Z</time>
      </trkpt>
      <trkpt lat="50.77119" lon="1.61203">
        <ele>11.2</ele>
        <time>2020-06-22T18:25:40Z</time>
      </trkpt>
      <trkpt lat="50.77123" lon="1.61205">
        <ele>11.4</ele>
        <time>2020-06-22T18:25:41Z</time>
      </trkpt>
      <trkpt lat="50.77126" lon="1.61206">
        <ele>11.7</ele>
        <time>2020-06-22T18:25:42Z</time>
      </trkpt>
      <trkpt lat="50.7713" lon="1.61206">
        <ele>11.8</ele>
        <time>2020-06-22T18:25:43Z</time>
      </trkpt>
      <trkpt lat="50.77133" lon="1.61207">
        <ele>12.1</ele>
        <time>2020-06-22T18:25:44Z</time>
      </trkpt>
      <trkpt lat="50.77139" lon="1.6121">
        <ele>12.4</ele>
        <time>2020-06-22T18:25:45Z</time>
      </trkpt>
      <trkpt lat="50.77144" lon="1.61213">
        <ele>12.7</ele>
        <time>2020-06-22T18:25:46Z</time>
      </trkpt>
      <trkpt lat="50.77146" lon="1.61214">
        <ele>12.9</ele>
        <time>2020-06-22T18:25:47Z</time>
      </trkpt>
      <trkpt lat="50.77149" lon="1.61216">
        <ele>13.1</ele>
        <time>2020-06-22T18:25:48Z</time>
      </trkpt>
      <trkpt lat="50.77153" lon="1.61219">
        <ele>13.3</ele>
        <time>2020-06-22T18:25:49Z</time>
      </trkpt>
      <trkpt lat="50.77155" lon="1.6122">
        <ele>13.5</ele>
        <time>2020-06-22T18:25:50Z</time>
      </trkpt>
      <trkpt lat="50.77158" lon="1.61222">
        <ele>13.7</ele>
        <time>2020-06-22T18:25:51Z</time>
      </trkpt>
      <trkpt lat="50.77162" lon="1.61224">
        <ele>13.9</ele>
        <time>2020-06-22T18:25:52Z</time>
      </trkpt>
      <trkpt lat="50.77165" lon="1.61225">
        <ele>14.2</ele>
        <time>2020-06-22T18:25:53Z</time>
      </trkpt>
      <trkpt lat="50.77169" lon="1.61226">
        <ele>14.4</ele>
        <time>2020-06-22T18:25:54Z</time>
      </trkpt>
      <trkpt lat="50.77173" lon="1.61227">
        <ele>14.6</ele>
        <time>2020-06-22T18:25:55Z</time>
      </trkpt>
      <trkpt lat="50.77176" lon="1.61227">
        <ele>14.9</ele>
        <time>2020-06-22T18:25:56Z</time>
      </trkpt>
      <trkpt lat="50.77179" lon="1.61227">
        <ele>15</ele>
        <time>2020-06-22T18:25:57Z</time>
      </trkpt>
      <trkpt lat="50.77182" lon="1.61226">
        <ele>15.1</ele>
        <time>2020-06-22T18:25:58Z</time>
      </trkpt>
      <trkpt lat="50.77186" lon="1.61225">
        <ele>15.2</ele>
        <time>2020-06-22T18:25:59Z</time>
      </trkpt>
      <trkpt lat="50.77189" lon="1.61223">
        <ele>15.3</ele>
        <time>2020-06-22T18:26:00Z</time>
      </trkpt>
      <trkpt lat="50.77192" lon="1.61223">
        <ele>15.4</ele>
        <time>2020-06-22T18:26:01Z</time>
      </trkpt>
      <trkpt lat="50.77194" lon="1.61223">
        <ele>15.4</ele>
        <time>2020-06-22T18:26:02Z</time>
      </trkpt>
      <trkpt lat="50.77197" lon="1.61221">
        <ele>15.6</ele>
        <time>2020-06-22T18:26:03Z</time>
      </trkpt>
      <trkpt lat="50.77201" lon="1.61219">
        <ele>15.6</ele>
        <time>2020-06-22T18:26:04Z</time>
      </trkpt>
      <trkpt lat="50.77206" lon="1.61215">
        <ele>15.7</ele>
        <time>2020-06-22T18:26:05Z</time>
      </trkpt>
      <trkpt lat="50.7721" lon="1.61211">
        <ele>15.8</ele>
        <time>2020-06-22T18:26:06Z</time>
      </trkpt>
      <trkpt lat="50.77213" lon="1.61208">
        <ele>15.9</ele>
        <time>2020-06-22T18:26:07Z</time>
      </trkpt>
      <trkpt lat="50.77217" lon="1.61204">
        <ele>16.1</ele>
        <time>2020-06-22T18:26:08Z</time>
      </trkpt>
      <trkpt lat="50.7722" lon="1.61201">
        <ele>16.2</ele>
        <time>2020-06-22T18:26:09Z</time>
      </trkpt>
      <trkpt lat="50.77224" lon="1.61198">
        <ele>16.4</ele>
        <time>2020-06-22T18:26:10Z</time>
      </trkpt>
      <trkpt lat="50.77227" lon="1.61196">
        <ele>16.5</ele>
        <time>2020-06-22T18:26:11Z</time>
      </trkpt>
      <trkpt lat="50.7723" lon="1.61193">
        <ele>16.7</ele>
        <time>2020-06-22T18:26:12Z</time>
      </trkpt>
      <trkpt lat="50.77234" lon="1.6119">
        <ele>16.9</ele>
        <time>2020-06-22T18:26:13Z</time>
      </trkpt>
      <trkpt lat="50.77238" lon="1.61186">
        <ele>17.2</ele>
        <time>2020-06-22T18:26:14Z</time>
      </trkpt>
      <trkpt lat="50.77241" lon="1.61183">
        <ele>17.4</ele>
        <time>2020-06-22T18:26:15Z</time>
      </trkpt>
      <trkpt lat="50.77244" lon="1.6118">
        <ele>17.6</ele>
        <time>2020-06-22T18:26:16Z</time>
      </trkpt>
      <trkpt lat="50.77247" lon="1.61178">
        <ele>17.7</ele>
        <time>2020-06-22T18:26:17Z</time>
      </trkpt>
      <trkpt lat="50.77249" lon="1.61176">
        <ele>17.9</ele>
        <time>2020-06-22T18:26:18Z</time>
      </trkpt>
      <trkpt lat="50.77252" lon="1.61174">
        <ele>18.1</ele>
        <time>2020-06-22T18:26:19Z</time>
      </trkpt>
      <trkpt lat="50.77255" lon="1.61172">
        <ele>18.3</ele>
        <time>2020-06-22T18:26:20Z</time>
      </trkpt>
      <trkpt lat="50.77258" lon="1.6117">
        <ele>18.5</ele>
        <time>2020-06-22T18:26:21Z</time>
      </trkpt>
      <trkpt lat="50.77261" lon="1.6117">
        <ele>18.6</ele>
        <time>2020-06-22T18:26:22Z</time>
      </trkpt>
      <trkpt lat="50.77264" lon="1.61169">
        <ele>18.8</ele>
        <time>2020-06-22T18:26:23Z</time>
      </trkpt>
      <trkpt lat="50.77268" lon="1.61167">
        <ele>19.1</ele>
        <time>2020-06-22T18:26:24Z</time>
      </trkpt>
      <trkpt lat="50.77273" lon="1.61166">
        <ele>19.4</ele>
        <time>2020-06-22T18:26:25Z</time>
      </trkpt>
      <trkpt lat="50.77277" lon="1.61164">
        <ele>19.6</ele>
        <time>2020-06-22T18:26:26Z</time>
      </trkpt>
      <trkpt lat="50.7728" lon="1.61163">
        <ele>19.7</ele>
        <time>2020-06-22T18:26:27Z</time>
      </trkpt>
      <trkpt lat="50.77284" lon="1.61162">
        <ele>19.9</ele>
        <time>2020-06-22T18:26:28Z</time>
      </trkpt>
      <trkpt lat="50.77288" lon="1.61162">
        <ele>20.1</ele>
        <time>2020-06-22T18:26:29Z</time>
      </trkpt>
      <trkpt lat="50.77291" lon="1.61162">
        <ele>20.3</ele>
        <time>2020-06-22T18:26:30Z</time>
      </trkpt>
      <trkpt lat="50.77294" lon="1.61163">
        <ele>20.4</ele>
        <time>2020-06-22T18:26:31Z</time>
      </trkpt>
      <trkpt lat="50.77297" lon="1.61164">
        <ele>20.6</ele>
        <time>2020-06-22T18:26:32Z</time>
      </trkpt>
      <trkpt lat="50.77301" lon="1.61167">
        <ele>20.7</ele>
        <time>2020-06-22T18:26:33Z</time>
      </trkpt>
      <trkpt lat="50.77304" lon="1.61169">
        <ele>20.9</ele>
        <time>2020-06-22T18:26:34Z</time>
      </trkpt>
      <trkpt lat="50.77307" lon="1.61173">
        <ele>21.1</ele>
        <time>2020-06-22T18:26:35Z</time>
      </trkpt>
      <trkpt lat="50.77309" lon="1.61176">
        <ele>21.2</ele>
        <time>2020-06-22T18:26:36Z</time>
      </trkpt>
      <trkpt lat="50.77313" lon="1.61179">
        <ele>21.4</ele>
        <time>2020-06-22T18:26:37Z</time>
      </trkpt>
      <trkpt lat="50.77315" lon="1.61183">
        <ele>21.6</ele>
        <time>2020-06-22T18:26:38Z</time>
      </trkpt>
      <trkpt lat="50.77318" lon="1.61185">
        <ele>21.7</ele>
        <time>2020-06-22T18:26:39Z</time>
      </trkpt>
      <trkpt lat="50.77319" lon="1.61191">
        <ele>21.9</ele>
        <time>2020-06-22T18:26:40Z</time>
      </trkpt>
      <trkpt lat="50.77319" lon="1.61194">
        <ele>22</ele>
        <time>2020-06-22T18:26:41Z</time>
      </trkpt>
      <trkpt lat="50.77322" lon="1.61198">
        <ele>22.1</ele>
        <time>2020-06-22T18:26:42Z</time>
      </trkpt>
      <trkpt lat="50.77324" lon="1.61201">
        <ele>22.3</ele>
        <time>2020-06-22T18:26:43Z</time>
      </trkpt>
      <trkpt lat="50.77327" lon="1.61206">
        <ele>22.5</ele>
        <time>2020-06-22T18:26:44Z</time>
      </trkpt>
      <trkpt lat="50.77328" lon="1.6121">
        <ele>22.7</ele>
        <time>2020-06-22T18:26:45Z</time>
      </trkpt>
      <trkpt lat="50.77331" lon="1.61213">
        <ele>22.8</ele>
        <time>2020-06-22T18:26:46Z</time>
      </trkpt>
      <trkpt lat="50.77333" lon="1.61216">
        <ele>23</ele>
        <time>2020-06-22T18:26:47Z</time>
      </trkpt>
      <trkpt lat="50.77335" lon="1.6122">
        <ele>23.2</ele>
        <time>2020-06-22T18:26:48Z</time>
      </trkpt>
      <trkpt lat="50.77338" lon="1.61224">
        <ele>23.4</ele>
        <time>2020-06-22T18:26:49Z</time>
      </trkpt>
      <trkpt lat="50.77342" lon="1.61227">
        <ele>23.6</ele>
        <time>2020-06-22T18:26:50Z</time>
      </trkpt>
      <trkpt lat="50.77343" lon="1.61229">
        <ele>23.7</ele>
        <time>2020-06-22T18:26:51Z</time>
      </trkpt>
      <trkpt lat="50.77346" lon="1.61233">
        <ele>23.9</ele>
        <time>2020-06-22T18:26:52Z</time>
      </trkpt>
      <trkpt lat="50.77349" lon="1.61236">
        <ele>24.2</ele>
        <time>2020-06-22T18:26:53Z</time>
      </trkpt>
      <trkpt lat="50.77352" lon="1.61238">
        <ele>24.3</ele>
        <time>2020-06-22T18:26:54Z</time>
      </trkpt>
      <trkpt lat="50.77354" lon="1.61239">
        <ele>24.4</ele>
        <time>2020-06-22T18:26:55Z</time>
      </trkpt>
      <trkpt lat="50.77357" lon="1.61239">
        <ele>24.5</ele>
        <time>2020-06-22T18:26:56Z</time>
      </trkpt>
      <trkpt lat="50.77361" lon="1.61239">
        <ele>24.6</ele>
        <time>2020-06-22T18:26:57Z</time>
      </trkpt>
      <trkpt lat="50.77365" lon="1.61239">
        <ele>24.8</ele>
        <time>2020-06-22T18:26:58Z</time>
      </trkpt>
      <trkpt lat="50.7737" lon="1.61239">
        <ele>24.9</ele>
        <time>2020-06-22T18:26:59Z</time>
      </trkpt>
      <trkpt lat="50.77374" lon="1.61239">
        <ele>25</ele>
        <time>2020-06-22T18:27:00Z</time>
      </trkpt>
      <trkpt lat="50.77378" lon="1.61239">
        <ele>25.1</ele>
        <time>2020-06-22T18:27:01Z</time>
      </trkpt>
      <trkpt lat="50.77382" lon="1.61238">
        <ele>25.2</ele>
        <time>2020-06-22T18:27:02Z</time>
      </trkpt>
      <trkpt lat="50.77387" lon="1.61237">
        <ele>25.3</ele>
        <time>2020-06-22T18:27:03Z</time>
      </trkpt>
      <trkpt lat="50.7739" lon="1.61235">
        <ele>25.4</ele>
        <time>2020-06-22T18:27:04Z</time>
      </trkpt>
      <trkpt lat="50.77395" lon="1.61232">
        <ele>25.6</ele>
        <time>2020-06-22T18:27:05Z</time>
      </trkpt>
      <trkpt lat="50.77398" lon="1.61231">
        <ele>25.6</ele>
        <time>2020-06-22T18:27:06Z</time>
      </trkpt>
      <trkpt lat="50.77402" lon="1.61228">
        <ele>25.7</ele>
        <time>2020-06-22T18:27:07Z</time>
      </trkpt>
      <trkpt lat="50.77406" lon="1.61226">
        <ele>25.8</ele>
        <time>2020-06-22T18:27:08Z</time>
      </trkpt>
      <trkpt lat="50.77411" lon="1.61224">
        <ele>25.9</ele>
        <time>2020-06-22T18:27:09Z</time>
      </trkpt>
      <trkpt lat="50.77413" lon="1.61222">
        <ele>26</ele>
        <time>2020-06-22T18:27:10Z</time>
      </trkpt>
      <trkpt lat="50.77417" lon="1.61219">
        <ele>26.1</ele>
        <time>2020-06-22T18:27:11Z</time>
      </trkpt>
      <trkpt lat="50.7742" lon="1.61217">
        <ele>26.2</ele>
        <time>2020-06-22T18:27:12Z</time>
      </trkpt>
      <trkpt lat="50.77424" lon="1.61215">
        <ele>26.3</ele>
        <time>2020-06-22T18:27:13Z</time>
      </trkpt>
      <trkpt lat="50.77428" lon="1.61213">
        <ele>26.4</ele>
        <time>2020-06-22T18:27:14Z</time>
      </trkpt>
      <trkpt lat="50.77432" lon="1.61211">
        <ele>26.6</ele>
        <time>2020-06-22T18:27:15Z</time>
      </trkpt>
      <trkpt lat="50.77436" lon="1.61209">
        <ele>26.7</ele>
        <time>2020-06-22T18:27:16Z</time>
      </trkpt>
      <trkpt lat="50.7744" lon="1.61207">
        <ele>26.8</ele>
        <time>2020-06-22T18:27:17Z</time>
      </trkpt>
      <trkpt lat="50.77443" lon="1.61205">
        <ele>26.8</ele>
        <time>2020-06-22T18:27:18Z</time>
      </trkpt>
      <trkpt lat="50.77447" lon="1.61203">
        <ele>26.9</ele>
        <time>2020-06-22T18:27:19Z</time>
      </trkpt>
      <trkpt lat="50.77451" lon="1.612">
        <ele>27</ele>
        <time>2020-06-22T18:27:20Z</time>
      </trkpt>
      <trkpt lat="50.77454" lon="1.61199">
        <ele>27</ele>
        <time>2020-06-22T18:27:21Z</time>
      </trkpt>
      <trkpt lat="50.77458" lon="1.61197">
        <ele>27.1</ele>
        <time>2020-06-22T18:27:22Z</time>
      </trkpt>
      <trkpt lat="50.77462" lon="1.61195">
        <ele>27.2</ele>
        <time>2020-06-22T18:27:23Z</time>
      </trkpt>
      <trkpt lat="50.77466" lon="1.61193">
        <ele>27.3</ele>
        <time>2020-06-22T18:27:24Z</time>
      </trkpt>
      <trkpt lat="50.7747" lon="1.61191">
        <ele>27.4</ele>
        <time>2020-06-22T18:27:25Z</time>
      </trkpt>
      <trkpt lat="50.77473" lon="1.61188">
        <ele>27.5</ele>
        <time>2020-06-22T18:27:26Z</time>
      </trkpt>
      <trkpt lat="50.77477" lon="1.61186">
        <ele>27.7</ele>
        <time>2020-06-22T18:27:27Z</time>
      </trkpt>
      <trkpt lat="50.77481" lon="1.61184">
        <ele>27.8</ele>
        <time>2020-06-22T18:27:28Z</time>
      </trkpt>
      <trkpt lat="50.77485" lon="1.61183">
        <ele>27.9</ele>
        <time>2020-06-22T18:27:29Z</time>
      </trkpt>
      <trkpt lat="50.77488" lon="1.61182">
        <ele>28</ele>
        <time>2020-06-22T18:27:30Z</time>
      </trkpt>
      <trkpt lat="50.77492" lon="1.61179">
        <ele>28.1</ele>
        <time>2020-06-22T18:27:31Z</time>
      </trkpt>
      <trkpt lat="50.77496" lon="1.61176">
        <ele>28.2</ele>
        <time>2020-06-22T18:27:32Z</time>
      </trkpt>
      <trkpt lat="50.775" lon="1.61174">
        <ele>28.3</ele>
        <time>2020-06-22T18:27:33Z</time>
      </trkpt>
      <trkpt lat="50.77504" lon="1.61172">
        <ele>28.4</ele>
        <time>2020-06-22T18:27:34Z</time>
      </trkpt>
      <trkpt lat="50.77507" lon="1.6117">
        <ele>28.5</ele>
        <time>2020-06-22T18:27:35Z</time>
      </trkpt>
      <trkpt lat="50.77511" lon="1.61166">
        <ele>28.7</ele>
        <time>2020-06-22T18:27:36Z</time>
      </trkpt>
      <trkpt lat="50.77512" lon="1.61165">
        <ele>28.7</ele>
        <time>2020-06-22T18:27:37Z</time>
      </trkpt>
      <trkpt lat="50.77516" lon="1.61162">
        <ele>28.8</ele>
        <time>2020-06-22T18:27:38Z</time>
      </trkpt>
      <trkpt lat="50.77519" lon="1.61159">
        <ele>28.9</ele>
        <time>2020-06-22T18:27:39Z</time>
      </trkpt>
      <trkpt lat="50.77523" lon="1.61158">
        <ele>29</ele>
        <time>2020-06-22T18:27:40Z</time>
      </trkpt>
      <trkpt lat="50.77527" lon="1.61155">
        <ele>29.1</ele>
        <time>2020-06-22T18:27:41Z</time>
      </trkpt>
      <trkpt lat="50.77529" lon="1.61152">
        <ele>29.1</ele>
        <time>2020-06-22T18:27:42Z</time>
      </trkpt>
      <trkpt lat="50.77532" lon="1.6115">
        <ele>29.2</ele>
        <time>2020-06-22T18:27:43Z</time>
      </trkpt>
      <trkpt lat="50.77537" lon="1.61148">
        <ele>29.3</ele>
        <time>2020-06-22T18:27:44Z</time>
      </trkpt>
      <trkpt lat="50.77541" lon="1.61145">
        <ele>29.3</ele>
        <time>2020-06-22T18:27:45Z</time>
      </trkpt>
      <trkpt lat="50.77545" lon="1.61145">
        <ele>29.4</ele>
        <time>2020-06-22T18:27:46Z</time>
      </trkpt>
      <trkpt lat="50.77549" lon="1.61143">
        <ele>29.5</ele>
        <time>2020-06-22T18:27:47Z</time>
      </trkpt>
      <trkpt lat="50.77554" lon="1.61142">
        <ele>29.6</ele>
        <time>2020-06-22T18:27:48Z</time>
      </trkpt>
      <trkpt lat="50.77559" lon="1.61142">
        <ele>29.7</ele>
        <time>2020-06-22T18:27:49Z</time>
      </trkpt>
      <trkpt lat="50.77563" lon="1.61141">
        <ele>29.8</ele>
        <time>2020-06-22T18:27:50Z</time>
      </trkpt>
      <trkpt lat="50.77567" lon="1.6114">
        <ele>29.9</ele>
        <time>2020-06-22T18:27:51Z</time>
      </trkpt>
      <trkpt lat="50.77571" lon="1.61141">
        <ele>29.9</ele>
        <time>2020-06-22T18:27:52Z</time>
      </trkpt>
      <trkpt lat="50.77575" lon="1.61142">
        <ele>30</ele>
        <time>2020-06-22T18:27:53Z</time>
      </trkpt>
      <trkpt lat="50.77579" lon="1.61144">
        <ele>30.1</ele>
        <time>2020-06-22T18:27:54Z</time>
      </trkpt>
      <trkpt lat="50.77583" lon="1.61145">
        <ele>30.2</ele>
        <time>2020-06-22T18:27:55Z</time>
      </trkpt>
      <trkpt lat="50.77587" lon="1.61149">
        <ele>30.3</ele>
        <time>2020-06-22T18:27:56Z</time>
      </trkpt>
      <trkpt lat="50.7759" lon="1.61152">
        <ele>30.5</ele>
        <time>2020-06-22T18:27:57Z</time>
      </trkpt>
      <trkpt lat="50.77594" lon="1.61154">
        <ele>30.8</ele>
        <time>2020-06-22T18:27:58Z</time>
      </trkpt>
      <trkpt lat="50.77598" lon="1.61158">
        <ele>31</ele>
        <time>2020-06-22T18:27:59Z</time>
      </trkpt>
      <trkpt lat="50.77602" lon="1.61162">
        <ele>31.2</ele>
        <time>2020-06-22T18:28:00Z</time>
      </trkpt>
      <trkpt lat="50.77605" lon="1.61166">
        <ele>31.5</ele>
        <time>2020-06-22T18:28:01Z</time>
      </trkpt>
      <trkpt lat="50.77608" lon="1.61169">
        <ele>31.7</ele>
        <time>2020-06-22T18:28:02Z</time>
      </trkpt>
      <trkpt lat="50.7761" lon="1.61172">
        <ele>31.8</ele>
        <time>2020-06-22T18:28:03Z</time>
      </trkpt>
      <trkpt lat="50.77613" lon="1.61175">
        <ele>32</ele>
        <time>2020-06-22T18:28:04Z</time>
      </trkpt>
      <trkpt lat="50.77616" lon="1.6118">
        <ele>32.2</ele>
        <time>2020-06-22T18:28:05Z</time>
      </trkpt>
      <trkpt lat="50.77618" lon="1.61183">
        <ele>32.4</ele>
        <time>2020-06-22T18:28:06Z</time>
      </trkpt>
      <trkpt lat="50.7762" lon="1.61187">
        <ele>32.6</ele>
        <time>2020-06-22T18:28:07Z</time>
      </trkpt>
      <trkpt lat="50.77623" lon="1.61193">
        <ele>32.9</ele>
        <time>2020-06-22T18:28:08Z</time>
      </trkpt>
      <trkpt lat="50.77625" lon="1.61197">
        <ele>33.1</ele>
        <time>2020-06-22T18:28:09Z</time>
      </trkpt>
      <trkpt lat="50.77627" lon="1.61202">
        <ele>33.4</ele>
        <time>2020-06-22T18:28:10Z</time>
      </trkpt>
      <trkpt lat="50.77629" lon="1.61207">
        <ele>33.6</ele>
        <time>2020-06-22T18:28:11Z</time>
      </trkpt>
      <trkpt lat="50.7763" lon="1.61208">
        <ele>33.7</ele>
        <time>2020-06-22T18:28:12Z</time>
      </trkpt>
      <trkpt lat="50.77632" lon="1.61212">
        <ele>33.9</ele>
        <time>2020-06-22T18:28:13Z</time>
      </trkpt>
      <trkpt lat="50.77635" lon="1.61216">
        <ele>34.2</ele>
        <time>2020-06-22T18:28:14Z</time>
      </trkpt>
      <trkpt lat="50.77636" lon="1.61218">
        <ele>34.4</ele>
        <time>2020-06-22T18:28:15Z</time>
      </trkpt>
      <trkpt lat="50.77638" lon="1.61222">
        <ele>34.7</ele>
        <time>2020-06-22T18:28:16Z</time>
      </trkpt>
      <trkpt lat="50.77639" lon="1.61223">
        <ele>34.8</ele>
        <time>2020-06-22T18:28:17Z</time>
      </trkpt>
      <trkpt lat="50.7764" lon="1.61227">
        <ele>35</ele>
        <time>2020-06-22T18:28:18Z</time>
      </trkpt>
      <trkpt lat="50.77643" lon="1.61231">
        <ele>35.4</ele>
        <time>2020-06-22T18:28:19Z</time>
      </trkpt>
      <trkpt lat="50.77645" lon="1.61234">
        <ele>35.6</ele>
        <time>2020-06-22T18:28:20Z</time>
      </trkpt>
      <trkpt lat="50.77648" lon="1.61238">
        <ele>35.9</ele>
        <time>2020-06-22T18:28:21Z</time>
      </trkpt>
      <trkpt lat="50.77649" lon="1.61242">
        <ele>36.2</ele>
        <time>2020-06-22T18:28:22Z</time>
      </trkpt>
      <trkpt lat="50.77652" lon="1.61245">
        <ele>36.4</ele>
        <time>2020-06-22T18:28:23Z</time>
      </trkpt>
      <trkpt lat="50.77655" lon="1.6125">
        <ele>36.8</ele>
        <time>2020-06-22T18:28:24Z</time>
      </trkpt>
      <trkpt lat="50.77658" lon="1.61253">
        <ele>37</ele>
        <time>2020-06-22T18:28:25Z</time>
      </trkpt>
      <trkpt lat="50.77661" lon="1.61256">
        <ele>37.3</ele>
        <time>2020-06-22T18:28:26Z</time>
      </trkpt>
      <trkpt lat="50.77665" lon="1.61258">
        <ele>37.6</ele>
        <time>2020-06-22T18:28:27Z</time>
      </trkpt>
      <trkpt lat="50.77666" lon="1.61259">
        <ele>37.7</ele>
        <time>2020-06-22T18:28:28Z</time>
      </trkpt>
      <trkpt lat="50.77669" lon="1.6126">
        <ele>37.9</ele>
        <time>2020-06-22T18:28:29Z</time>
      </trkpt>
      <trkpt lat="50.77672" lon="1.61261">
        <ele>38.1</ele>
        <time>2020-06-22T18:28:30Z</time>
      </trkpt>
      <trkpt lat="50.77677" lon="1.61261">
        <ele>38.4</ele>
        <time>2020-06-22T18:28:31Z</time>
      </trkpt>
      <trkpt lat="50.77678" lon="1.61262">
        <ele>38.5</ele>
        <time>2020-06-22T18:28:32Z</time>
      </trkpt>
      <trkpt lat="50.77682" lon="1.61263">
        <ele>38.8</ele>
        <time>2020-06-22T18:28:33Z</time>
      </trkpt>
      <trkpt lat="50.77684" lon="1.61263">
        <ele>38.9</ele>
        <time>2020-06-22T18:28:34Z</time>
      </trkpt>
      <trkpt lat="50.77688" lon="1.61264">
        <ele>39.1</ele>
        <time>2020-06-22T18:28:35Z</time>
      </trkpt>
      <trkpt lat="50.77691" lon="1.61265">
        <ele>39.3</ele>
        <time>2020-06-22T18:28:36Z</time>
      </trkpt>
      <trkpt lat="50.77694" lon="1.61265">
        <ele>39.5</ele>
        <time>2020-06-22T18:28:37Z</time>
      </trkpt>
      <trkpt lat="50.77698" lon="1.61264">
        <ele>39.8</ele>
        <time>2020-06-22T18:28:38Z</time>
      </trkpt>
      <trkpt lat="50.77701" lon="1.61263">
        <ele>40</ele>
        <time>2020-06-22T18:28:39Z</time>
      </trkpt>
      <trkpt lat="50.77704" lon="1.61262">
        <ele>40.2</ele>
        <time>2020-06-22T18:28:40Z</time>
      </trkpt>
      <trkpt lat="50.77708" lon="1.6126">
        <ele>40.4</ele>
        <time>2020-06-22T18:28:41Z</time>
      </trkpt>
      <trkpt lat="50.77711" lon="1.61256">
        <ele>40.7</ele>
        <time>2020-06-22T18:28:42Z</time>
      </trkpt>
      <trkpt lat="50.77715" lon="1.61252">
        <ele>40.9</ele>
        <time>2020-06-22T18:28:43Z</time>
      </trkpt>
      <trkpt lat="50.77718" lon="1.61248">
        <ele>41.1</ele>
        <time>2020-06-22T18:28:44Z</time>
      </trkpt>
      <trkpt lat="50.7772" lon="1.61244">
        <ele>41.3</ele>
        <time>2020-06-22T18:28:45Z</time>
      </trkpt>
      <trkpt lat="50.77722" lon="1.6124">
        <ele>41.5</ele>
        <time>2020-06-22T18:28:46Z</time>
      </trkpt>
      <trkpt lat="50.77724" lon="1.61236">
        <ele>41.7</ele>
        <time>2020-06-22T18:28:47Z</time>
      </trkpt>
      <trkpt lat="50.77726" lon="1.61231">
        <ele>41.9</ele>
        <time>2020-06-22T18:28:48Z</time>
      </trkpt>
      <trkpt lat="50.77728" lon="1.61226">
        <ele>42.1</ele>
        <time>2020-06-22T18:28:49Z</time>
      </trkpt>
      <trkpt lat="50.77729" lon="1.6122">
        <ele>42.3</ele>
        <time>2020-06-22T18:28:50Z</time>
      </trkpt>
      <trkpt lat="50.7773" lon="1.61214">
        <ele>42.6</ele>
        <time>2020-06-22T18:28:51Z</time>
      </trkpt>
      <trkpt lat="50.77732" lon="1.61207">
        <ele>42.6</ele>
        <time>2020-06-22T18:28:52Z</time>
      </trkpt>
      <trkpt lat="50.77733" lon="1.61201">
        <ele>42.7</ele>
        <time>2020-06-22T18:28:53Z</time>
      </trkpt>
      <trkpt lat="50.77734" lon="1.61196">
        <ele>42.8</ele>
        <time>2020-06-22T18:28:54Z</time>
      </trkpt>
      <trkpt lat="50.77736" lon="1.6119">
        <ele>42.8</ele>
        <time>2020-06-22T18:28:55Z</time>
      </trkpt>
      <trkpt lat="50.77737" lon="1.61184">
        <ele>42.9</ele>
        <time>2020-06-22T18:28:56Z</time>
      </trkpt>
      <trkpt lat="50.77739" lon="1.61178">
        <ele>43</ele>
        <time>2020-06-22T18:28:57Z</time>
      </trkpt>
      <trkpt lat="50.77741" lon="1.61171">
        <ele>43</ele>
        <time>2020-06-22T18:28:58Z</time>
      </trkpt>
      <trkpt lat="50.77742" lon="1.61162">
        <ele>43.1</ele>
        <time>2020-06-22T18:28:59Z</time>
      </trkpt>
      <trkpt lat="50.77742" lon="1.61155">
        <ele>43.1</ele>
        <time>2020-06-22T18:29:00Z</time>
      </trkpt>
      <trkpt lat="50.77743" lon="1.6115">
        <ele>43.2</ele>
        <time>2020-06-22T18:29:01Z</time>
      </trkpt>
      <trkpt lat="50.77743" lon="1.61145">
        <ele>43.2</ele>
        <time>2020-06-22T18:29:02Z</time>
      </trkpt>
      <trkpt lat="50.77743" lon="1.61139">
        <ele>43.2</ele>
        <time>2020-06-22T18:29:03Z</time>
      </trkpt>
      <trkpt lat="50.77744" lon="1.61135">
        <ele>43.3</ele>
        <time>2020-06-22T18:29:04Z</time>
      </trkpt>
      <trkpt lat="50.77745" lon="1.6113">
        <ele>43.3</ele>
        <time>2020-06-22T18:29:05Z</time>
      </trkpt>
      <trkpt lat="50.77745" lon="1.61124">
        <ele>43.3</ele>
        <time>2020-06-22T18:29:06Z</time>
      </trkpt>
      <trkpt lat="50.77748" lon="1.6112">
        <ele>43.3</ele>
        <time>2020-06-22T18:29:07Z</time>
      </trkpt>
      <trkpt lat="50.77752" lon="1.61119">
        <ele>43.3</ele>
        <time>2020-06-22T18:29:08Z</time>
      </trkpt>
      <trkpt lat="50.77756" lon="1.61119">
        <ele>43.4</ele>
        <time>2020-06-22T18:29:09Z</time>
      </trkpt>
      <trkpt lat="50.77761" lon="1.61116">
        <ele>43.4</ele>
        <time>2020-06-22T18:29:10Z</time>
      </trkpt>
      <trkpt lat="50.77765" lon="1.61113">
        <ele>43.5</ele>
        <time>2020-06-22T18:29:11Z</time>
      </trkpt>
      <trkpt lat="50.77769" lon="1.61109">
        <ele>43.6</ele>
        <time>2020-06-22T18:29:12Z</time>
      </trkpt>
      <trkpt lat="50.77772" lon="1.61103">
        <ele>43.9</ele>
        <time>2020-06-22T18:29:13Z</time>
      </trkpt>
      <trkpt lat="50.77775" lon="1.61097">
        <ele>43.8</ele>
        <time>2020-06-22T18:29:14Z</time>
      </trkpt>
      <trkpt lat="50.77777" lon="1.61091">
        <ele>43.7</ele>
        <time>2020-06-22T18:29:15Z</time>
      </trkpt>
      <trkpt lat="50.77779" lon="1.61086">
        <ele>43.5</ele>
        <time>2020-06-22T18:29:16Z</time>
      </trkpt>
      <trkpt lat="50.77782" lon="1.61081">
        <ele>43.4</ele>
        <time>2020-06-22T18:29:17Z</time>
      </trkpt>
      <trkpt lat="50.77786" lon="1.61079">
        <ele>43.3</ele>
        <time>2020-06-22T18:29:18Z</time>
      </trkpt>
      <trkpt lat="50.77789" lon="1.61075">
        <ele>43.3</ele>
        <time>2020-06-22T18:29:19Z</time>
      </trkpt>
      <trkpt lat="50.77793" lon="1.61071">
        <ele>43.2</ele>
        <time>2020-06-22T18:29:20Z</time>
      </trkpt>
      <trkpt lat="50.77798" lon="1.61068">
        <ele>43.1</ele>
        <time>2020-06-22T18:29:21Z</time>
      </trkpt>
      <trkpt lat="50.77803" lon="1.61065">
        <ele>42.9</ele>
        <time>2020-06-22T18:29:22Z</time>
      </trkpt>
      <trkpt lat="50.7781" lon="1.61059">
        <ele>42.8</ele>
        <time>2020-06-22T18:29:23Z</time>
      </trkpt>
      <trkpt lat="50.77814" lon="1.61057">
        <ele>42.7</ele>
        <time>2020-06-22T18:29:24Z</time>
      </trkpt>
      <trkpt lat="50.77818" lon="1.61053">
        <ele>42.7</ele>
        <time>2020-06-22T18:29:25Z</time>
      </trkpt>
      <trkpt lat="50.77822" lon="1.6105">
        <ele>42.7</ele>
        <time>2020-06-22T18:29:26Z</time>
      </trkpt>
      <trkpt lat="50.77826" lon="1.61047">
        <ele>42.6</ele>
        <time>2020-06-22T18:29:27Z</time>
      </trkpt>
      <trkpt lat="50.7783" lon="1.61042">
        <ele>42.6</ele>
        <time>2020-06-22T18:29:28Z</time>
      </trkpt>
      <trkpt lat="50.77832" lon="1.61041">
        <ele>42.5</ele>
        <time>2020-06-22T18:29:29Z</time>
      </trkpt>
      <trkpt lat="50.77836" lon="1.61038">
        <ele>42.5</ele>
        <time>2020-06-22T18:29:30Z</time>
      </trkpt>
      <trkpt lat="50.7784" lon="1.61035">
        <ele>42.4</ele>
        <time>2020-06-22T18:29:31Z</time>
      </trkpt>
      <trkpt lat="50.77844" lon="1.61032">
        <ele>42.3</ele>
        <time>2020-06-22T18:29:32Z</time>
      </trkpt>
      <trkpt lat="50.77849" lon="1.61029">
        <ele>42.3</ele>
        <time>2020-06-22T18:29:33Z</time>
      </trkpt>
      <trkpt lat="50.77854" lon="1.61025">
        <ele>42.1</ele>
        <time>2020-06-22T18:29:34Z</time>
      </trkpt>
      <trkpt lat="50.77858" lon="1.61021">
        <ele>42</ele>
        <time>2020-06-22T18:29:35Z</time>
      </trkpt>
      <trkpt lat="50.77863" lon="1.61017">
        <ele>41.8</ele>
        <time>2020-06-22T18:29:36Z</time>
      </trkpt>
      <trkpt lat="50.77868" lon="1.61013">
        <ele>41.7</ele>
        <time>2020-06-22T18:29:37Z</time>
      </trkpt>
      <trkpt lat="50.77872" lon="1.61009">
        <ele>41.5</ele>
        <time>2020-06-22T18:29:38Z</time>
      </trkpt>
      <trkpt lat="50.77875" lon="1.61004">
        <ele>41.4</ele>
        <time>2020-06-22T18:29:39Z</time>
      </trkpt>
      <trkpt lat="50.7788" lon="1.61">
        <ele>41.2</ele>
        <time>2020-06-22T18:29:40Z</time>
      </trkpt>
      <trkpt lat="50.77885" lon="1.60995">
        <ele>40.9</ele>
        <time>2020-06-22T18:29:41Z</time>
      </trkpt>
      <trkpt lat="50.7789" lon="1.60991">
        <ele>40.6</ele>
        <time>2020-06-22T18:29:42Z</time>
      </trkpt>
      <trkpt lat="50.77896" lon="1.60987">
        <ele>40.1</ele>
        <time>2020-06-22T18:29:43Z</time>
      </trkpt>
      <trkpt lat="50.779" lon="1.60982">
        <ele>40</ele>
        <time>2020-06-22T18:29:44Z</time>
      </trkpt>
      <trkpt lat="50.77905" lon="1.60977">
        <ele>39.6</ele>
        <time>2020-06-22T18:29:45Z</time>
      </trkpt>
      <trkpt lat="50.77911" lon="1.60972">
        <ele>39.2</ele>
        <time>2020-06-22T18:29:46Z</time>
      </trkpt>
      <trkpt lat="50.77916" lon="1.60967">
        <ele>38.9</ele>
        <time>2020-06-22T18:29:47Z</time>
      </trkpt>
      <trkpt lat="50.77922" lon="1.60961">
        <ele>38.5</ele>
        <time>2020-06-22T18:29:48Z</time>
      </trkpt>
      <trkpt lat="50.77928" lon="1.60956">
        <ele>38.1</ele>
        <time>2020-06-22T18:29:49Z</time>
      </trkpt>
      <trkpt lat="50.77935" lon="1.6095">
        <ele>37.7</ele>
        <time>2020-06-22T18:29:50Z</time>
      </trkpt>
      <trkpt lat="50.77941" lon="1.60945">
        <ele>37.2</ele>
        <time>2020-06-22T18:29:51Z</time>
      </trkpt>
      <trkpt lat="50.77948" lon="1.60938">
        <ele>36.7</ele>
        <time>2020-06-22T18:29:52Z</time>
      </trkpt>
      <trkpt lat="50.77955" lon="1.60932">
        <ele>36.1</ele>
        <time>2020-06-22T18:29:53Z</time>
      </trkpt>
      <trkpt lat="50.77963" lon="1.60927">
        <ele>35.4</ele>
        <time>2020-06-22T18:29:54Z</time>
      </trkpt>
      <trkpt lat="50.77971" lon="1.60923">
        <ele>34.7</ele>
        <time>2020-06-22T18:29:55Z</time>
      </trkpt>
      <trkpt lat="50.77979" lon="1.6092">
        <ele>34</ele>
        <time>2020-06-22T18:29:56Z</time>
      </trkpt>
      <trkpt lat="50.77988" lon="1.60919">
        <ele>33.2</ele>
        <time>2020-06-22T18:29:57Z</time>
      </trkpt>
      <trkpt lat="50.77998" lon="1.60918">
        <ele>32.3</ele>
        <time>2020-06-22T18:29:58Z</time>
      </trkpt>
      <trkpt lat="50.78008" lon="1.60917">
        <ele>31.5</ele>
        <time>2020-06-22T18:29:59Z</time>
      </trkpt>
      <trkpt lat="50.78018" lon="1.60917">
        <ele>30.6</ele>
        <time>2020-06-22T18:30:00Z</time>
      </trkpt>
      <trkpt lat="50.78029" lon="1.60918">
        <ele>29.8</ele>
        <time>2020-06-22T18:30:01Z</time>
      </trkpt>
      <trkpt lat="50.7804" lon="1.60918">
        <ele>29</ele>
        <time>2020-06-22T18:30:02Z</time>
      </trkpt>
      <trkpt lat="50.78051" lon="1.60918">
        <ele>28.5</ele>
        <time>2020-06-22T18:30:03Z</time>
      </trkpt>
      <trkpt lat="50.78062" lon="1.60918">
        <ele>27.9</ele>
        <time>2020-06-22T18:30:04Z</time>
      </trkpt>
      <trkpt lat="50.78073" lon="1.60918">
        <ele>27.4</ele>
        <time>2020-06-22T18:30:05Z</time>
      </trkpt>
      <trkpt lat="50.78084" lon="1.60917">
        <ele>26.9</ele>
        <time>2020-06-22T18:30:06Z</time>
      </trkpt>
      <trkpt lat="50.78094" lon="1.60917">
        <ele>26.6</ele>
        <time>2020-06-22T18:30:07Z</time>
      </trkpt>
      <trkpt lat="50.78105" lon="1.60916">
        <ele>26.3</ele>
        <time>2020-06-22T18:30:08Z</time>
      </trkpt>
      <trkpt lat="50.78116" lon="1.60917">
        <ele>26.1</ele>
        <time>2020-06-22T18:30:09Z</time>
      </trkpt>
      <trkpt lat="50.78126" lon="1.60916">
        <ele>26</ele>
        <time>2020-06-22T18:30:10Z</time>
      </trkpt>
      <trkpt lat="50.78136" lon="1.60916">
        <ele>25.9</ele>
        <time>2020-06-22T18:30:11Z</time>
      </trkpt>
      <trkpt lat="50.78145" lon="1.60915">
        <ele>25.7</ele>
        <time>2020-06-22T18:30:12Z</time>
      </trkpt>
      <trkpt lat="50.78155" lon="1.60913">
        <ele>25.6</ele>
        <time>2020-06-22T18:30:13Z</time>
      </trkpt>
      <trkpt lat="50.78164" lon="1.60911">
        <ele>25.5</ele>
        <time>2020-06-22T18:30:14Z</time>
      </trkpt>
      <trkpt lat="50.78174" lon="1.60909">
        <ele>25.3</ele>
        <time>2020-06-22T18:30:15Z</time>
      </trkpt>
      <trkpt lat="50.78182" lon="1.60907">
        <ele>25.2</ele>
        <time>2020-06-22T18:30:16Z</time>
      </trkpt>
      <trkpt lat="50.78191" lon="1.60904">
        <ele>25.1</ele>
        <time>2020-06-22T18:30:17Z</time>
      </trkpt>
      <trkpt lat="50.78199" lon="1.60901">
        <ele>25</ele>
        <time>2020-06-22T18:30:18Z</time>
      </trkpt>
      <trkpt lat="50.78207" lon="1.60898">
        <ele>24.9</ele>
        <time>2020-06-22T18:30:19Z</time>
      </trkpt>
      <trkpt lat="50.78215" lon="1.60895">
        <ele>24.8</ele>
        <time>2020-06-22T18:30:20Z</time>
      </trkpt>
      <trkpt lat="50.78223" lon="1.60892">
        <ele>24.7</ele>
        <time>2020-06-22T18:30:21Z</time>
      </trkpt>
      <trkpt lat="50.7823" lon="1.60889">
        <ele>24.7</ele>
        <time>2020-06-22T18:30:22Z</time>
      </trkpt>
      <trkpt lat="50.78237" lon="1.60885">
        <ele>24.6</ele>
        <time>2020-06-22T18:30:23Z</time>
      </trkpt>
      <trkpt lat="50.78244" lon="1.60883">
        <ele>24.5</ele>
        <time>2020-06-22T18:30:24Z</time>
      </trkpt>
      <trkpt lat="50.78251" lon="1.60881">
        <ele>24.5</ele>
        <time>2020-06-22T18:30:25Z</time>
      </trkpt>
      <trkpt lat="50.78258" lon="1.60878">
        <ele>24.4</ele>
        <time>2020-06-22T18:30:26Z</time>
      </trkpt>
      <trkpt lat="50.78264" lon="1.60876">
        <ele>24.4</ele>
        <time>2020-06-22T18:30:27Z</time>
      </trkpt>
      <trkpt lat="50.7827" lon="1.60873">
        <ele>24.3</ele>
        <time>2020-06-22T18:30:28Z</time>
      </trkpt>
      <trkpt lat="50.78277" lon="1.6087">
        <ele>24.2</ele>
        <time>2020-06-22T18:30:29Z</time>
      </trkpt>
      <trkpt lat="50.78283" lon="1.60866">
        <ele>24.2</ele>
        <time>2020-06-22T18:30:30Z</time>
      </trkpt>
      <trkpt lat="50.78289" lon="1.60863">
        <ele>24.1</ele>
        <time>2020-06-22T18:30:31Z</time>
      </trkpt>
      <trkpt lat="50.78294" lon="1.6086">
        <ele>24</ele>
        <time>2020-06-22T18:30:32Z</time>
      </trkpt>
      <trkpt lat="50.783" lon="1.60856">
        <ele>23.9</ele>
        <time>2020-06-22T18:30:33Z</time>
      </trkpt>
      <trkpt lat="50.78305" lon="1.6085">
        <ele>23.8</ele>
        <time>2020-06-22T18:30:34Z</time>
      </trkpt>
      <trkpt lat="50.7831" lon="1.60844">
        <ele>23.7</ele>
        <time>2020-06-22T18:30:35Z</time>
      </trkpt>
      <trkpt lat="50.78315" lon="1.60839">
        <ele>23.6</ele>
        <time>2020-06-22T18:30:36Z</time>
      </trkpt>
      <trkpt lat="50.7832" lon="1.60833">
        <ele>23.5</ele>
        <time>2020-06-22T18:30:37Z</time>
      </trkpt>
      <trkpt lat="50.78324" lon="1.60826">
        <ele>23.4</ele>
        <time>2020-06-22T18:30:38Z</time>
      </trkpt>
      <trkpt lat="50.78328" lon="1.60819">
        <ele>23.4</ele>
        <time>2020-06-22T18:30:39Z</time>
      </trkpt>
      <trkpt lat="50.78332" lon="1.60812">
        <ele>23.4</ele>
        <time>2020-06-22T18:30:40Z</time>
      </trkpt>
      <trkpt lat="50.78336" lon="1.60806">
        <ele>23.3</ele>
        <time>2020-06-22T18:30:41Z</time>
      </trkpt>
      <trkpt lat="50.7834" lon="1.60799">
        <ele>23.2</ele>
        <time>2020-06-22T18:30:42Z</time>
      </trkpt>
      <trkpt lat="50.78344" lon="1.60792">
        <ele>23.2</ele>
        <time>2020-06-22T18:30:43Z</time>
      </trkpt>
      <trkpt lat="50.78348" lon="1.60786">
        <ele>23.1</ele>
        <time>2020-06-22T18:30:44Z</time>
      </trkpt>
      <trkpt lat="50.78352" lon="1.60779">
        <ele>23</ele>
        <time>2020-06-22T18:30:45Z</time>
      </trkpt>
      <trkpt lat="50.78356" lon="1.60773">
        <ele>22.9</ele>
        <time>2020-06-22T18:30:46Z</time>
      </trkpt>
      <trkpt lat="50.7836" lon="1.60766">
        <ele>22.9</ele>
        <time>2020-06-22T18:30:47Z</time>
      </trkpt>
      <trkpt lat="50.78363" lon="1.60758">
        <ele>22.8</ele>
        <time>2020-06-22T18:30:48Z</time>
      </trkpt>
      <trkpt lat="50.78367" lon="1.60751">
        <ele>22.8</ele>
        <time>2020-06-22T18:30:49Z</time>
      </trkpt>
      <trkpt lat="50.78371" lon="1.60744">
        <ele>22.8</ele>
        <time>2020-06-22T18:30:50Z</time>
      </trkpt>
      <trkpt lat="50.78376" lon="1.60736">
        <ele>22.6</ele>
        <time>2020-06-22T18:30:51Z</time>
      </trkpt>
      <trkpt lat="50.7838" lon="1.60728">
        <ele>22.5</ele>
        <time>2020-06-22T18:30:52Z</time>
      </trkpt>
      <trkpt lat="50.78384" lon="1.60721">
        <ele>22.3</ele>
        <time>2020-06-22T18:30:53Z</time>
      </trkpt>
      <trkpt lat="50.78389" lon="1.60713">
        <ele>22.2</ele>
        <time>2020-06-22T18:30:54Z</time>
      </trkpt>
      <trkpt lat="50.78393" lon="1.60705">
        <ele>22</ele>
        <time>2020-06-22T18:30:55Z</time>
      </trkpt>
      <trkpt lat="50.78398" lon="1.60697">
        <ele>21.9</ele>
        <time>2020-06-22T18:30:56Z</time>
      </trkpt>
      <trkpt lat="50.78402" lon="1.60689">
        <ele>21.7</ele>
        <time>2020-06-22T18:30:57Z</time>
      </trkpt>
      <trkpt lat="50.78406" lon="1.60681">
        <ele>21.5</ele>
        <time>2020-06-22T18:30:58Z</time>
      </trkpt>
      <trkpt lat="50.78411" lon="1.60673">
        <ele>21.3</ele>
        <time>2020-06-22T18:30:59Z</time>
      </trkpt>
      <trkpt lat="50.78415" lon="1.60665">
        <ele>21.2</ele>
        <time>2020-06-22T18:31:00Z</time>
      </trkpt>
      <trkpt lat="50.7842" lon="1.60657">
        <ele>21</ele>
        <time>2020-06-22T18:31:01Z</time>
      </trkpt>
      <trkpt lat="50.78425" lon="1.60649">
        <ele>20.8</ele>
        <time>2020-06-22T18:31:02Z</time>
      </trkpt>
      <trkpt lat="50.78429" lon="1.60642">
        <ele>20.7</ele>
        <time>2020-06-22T18:31:03Z</time>
      </trkpt>
      <trkpt lat="50.78434" lon="1.60634">
        <ele>20.5</ele>
        <time>2020-06-22T18:31:04Z</time>
      </trkpt>
      <trkpt lat="50.78439" lon="1.60627">
        <ele>20.4</ele>
        <time>2020-06-22T18:31:05Z</time>
      </trkpt>
      <trkpt lat="50.78444" lon="1.6062">
        <ele>20.2</ele>
        <time>2020-06-22T18:31:06Z</time>
      </trkpt>
      <trkpt lat="50.7845" lon="1.60614">
        <ele>20</ele>
        <time>2020-06-22T18:31:07Z</time>
      </trkpt>
      <trkpt lat="50.78455" lon="1.60607">
        <ele>19.8</ele>
        <time>2020-06-22T18:31:08Z</time>
      </trkpt>
      <trkpt lat="50.78461" lon="1.60601">
        <ele>19.6</ele>
        <time>2020-06-22T18:31:09Z</time>
      </trkpt>
      <trkpt lat="50.78466" lon="1.60594">
        <ele>19.4</ele>
        <time>2020-06-22T18:31:10Z</time>
      </trkpt>
      <trkpt lat="50.78471" lon="1.60588">
        <ele>19.2</ele>
        <time>2020-06-22T18:31:11Z</time>
      </trkpt>
      <trkpt lat="50.78477" lon="1.60582">
        <ele>19</ele>
        <time>2020-06-22T18:31:12Z</time>
      </trkpt>
      <trkpt lat="50.78483" lon="1.60576">
        <ele>18.8</ele>
        <time>2020-06-22T18:31:13Z</time>
      </trkpt>
      <trkpt lat="50.78489" lon="1.60571">
        <ele>18.6</ele>
        <time>2020-06-22T18:31:14Z</time>
      </trkpt>
      <trkpt lat="50.78495" lon="1.60566">
        <ele>18.4</ele>
        <time>2020-06-22T18:31:15Z</time>
      </trkpt>
      <trkpt lat="50.78501" lon="1.60562">
        <ele>18.2</ele>
        <time>2020-06-22T18:31:16Z</time>
      </trkpt>
      <trkpt lat="50.78508" lon="1.60558">
        <ele>18</ele>
        <time>2020-06-22T18:31:17Z</time>
      </trkpt>
      <trkpt lat="50.78514" lon="1.60554">
        <ele>17.8</ele>
        <time>2020-06-22T18:31:18Z</time>
      </trkpt>
      <trkpt lat="50.7852" lon="1.6055">
        <ele>17.6</ele>
        <time>2020-06-22T18:31:19Z</time>
      </trkpt>
      <trkpt lat="50.78527" lon="1.60547">
        <ele>17.4</ele>
        <time>2020-06-22T18:31:20Z</time>
      </trkpt>
      <trkpt lat="50.78534" lon="1.60544">
        <ele>17.2</ele>
        <time>2020-06-22T18:31:21Z</time>
      </trkpt>
      <trkpt lat="50.7854" lon="1.60542">
        <ele>17</ele>
        <time>2020-06-22T18:31:22Z</time>
      </trkpt>
      <trkpt lat="50.78547" lon="1.6054">
        <ele>16.7</ele>
        <time>2020-06-22T18:31:23Z</time>
      </trkpt>
      <trkpt lat="50.78554" lon="1.60538">
        <ele>16.6</ele>
        <time>2020-06-22T18:31:24Z</time>
      </trkpt>
      <trkpt lat="50.78561" lon="1.60535">
        <ele>16.4</ele>
        <time>2020-06-22T18:31:25Z</time>
      </trkpt>
      <trkpt lat="50.78568" lon="1.60534">
        <ele>16.2</ele>
        <time>2020-06-22T18:31:26Z</time>
      </trkpt>
      <trkpt lat="50.78575" lon="1.60534">
        <ele>16</ele>
        <time>2020-06-22T18:31:27Z</time>
      </trkpt>
      <trkpt lat="50.78582" lon="1.60533">
        <ele>15.8</ele>
        <time>2020-06-22T18:31:28Z</time>
      </trkpt>
      <trkpt lat="50.78589" lon="1.60533">
        <ele>15.6</ele>
        <time>2020-06-22T18:31:29Z</time>
      </trkpt>
      <trkpt lat="50.78596" lon="1.60533">
        <ele>15.4</ele>
        <time>2020-06-22T18:31:30Z</time>
      </trkpt>
      <trkpt lat="50.78603" lon="1.60534">
        <ele>15.2</ele>
        <time>2020-06-22T18:31:31Z</time>
      </trkpt>
      <trkpt lat="50.7861" lon="1.60534">
        <ele>15.1</ele>
        <time>2020-06-22T18:31:32Z</time>
      </trkpt>
      <trkpt lat="50.78617" lon="1.60535">
        <ele>14.9</ele>
        <time>2020-06-22T18:31:33Z</time>
      </trkpt>
      <trkpt lat="50.78624" lon="1.60537">
        <ele>14.7</ele>
        <time>2020-06-22T18:31:34Z</time>
      </trkpt>
      <trkpt lat="50.78631" lon="1.60539">
        <ele>14.5</ele>
        <time>2020-06-22T18:31:35Z</time>
      </trkpt>
      <trkpt lat="50.78637" lon="1.6054">
        <ele>14.3</ele>
        <time>2020-06-22T18:31:36Z</time>
      </trkpt>
      <trkpt lat="50.78644" lon="1.60541">
        <ele>14.1</ele>
        <time>2020-06-22T18:31:37Z</time>
      </trkpt>
      <trkpt lat="50.78651" lon="1.60543">
        <ele>13.9</ele>
        <time>2020-06-22T18:31:38Z</time>
      </trkpt>
      <trkpt lat="50.78658" lon="1.60545">
        <ele>13.8</ele>
        <time>2020-06-22T18:31:39Z</time>
      </trkpt>
      <trkpt lat="50.78665" lon="1.60546">
        <ele>13.6</ele>
        <time>2020-06-22T18:31:40Z</time>
      </trkpt>
      <trkpt lat="50.78672" lon="1.60548">
        <ele>13.5</ele>
        <time>2020-06-22T18:31:41Z</time>
      </trkpt>
      <trkpt lat="50.78678" lon="1.60552">
        <ele>13.4</ele>
        <time>2020-06-22T18:31:42Z</time>
      </trkpt>
      <trkpt lat="50.78684" lon="1.60556">
        <ele>13.3</ele>
        <time>2020-06-22T18:31:43Z</time>
      </trkpt>
      <trkpt lat="50.7869" lon="1.60562">
        <ele>13.3</ele>
        <time>2020-06-22T18:31:44Z</time>
      </trkpt>
      <trkpt lat="50.78695" lon="1.6057">
        <ele>13.2</ele>
        <time>2020-06-22T18:31:45Z</time>
      </trkpt>
      <trkpt lat="50.78699" lon="1.60578">
        <ele>13.2</ele>
        <time>2020-06-22T18:31:46Z</time>
      </trkpt>
      <trkpt lat="50.78703" lon="1.60586">
        <ele>13.2</ele>
        <time>2020-06-22T18:31:47Z</time>
      </trkpt>
      <trkpt lat="50.78706" lon="1.60594">
        <ele>13.2</ele>
        <time>2020-06-22T18:31:48Z</time>
      </trkpt>
      <trkpt lat="50.78708" lon="1.60604">
        <ele>13.1</ele>
        <time>2020-06-22T18:31:49Z</time>
      </trkpt>
      <trkpt lat="50.7871" lon="1.60613">
        <ele>13.1</ele>
        <time>2020-06-22T18:31:50Z</time>
      </trkpt>
      <trkpt lat="50.78712" lon="1.60622">
        <ele>13</ele>
        <time>2020-06-22T18:31:51Z</time>
      </trkpt>
      <trkpt lat="50.78714" lon="1.60631">
        <ele>13</ele>
        <time>2020-06-22T18:31:52Z</time>
      </trkpt>
      <trkpt lat="50.78715" lon="1.6064">
        <ele>12.9</ele>
        <time>2020-06-22T18:31:53Z</time>
      </trkpt>
      <trkpt lat="50.78716" lon="1.60649">
        <ele>12.8</ele>
        <time>2020-06-22T18:31:54Z</time>
      </trkpt>
      <trkpt lat="50.78717" lon="1.60658">
        <ele>12.8</ele>
        <time>2020-06-22T18:31:55Z</time>
      </trkpt>
      <trkpt lat="50.78719" lon="1.60666">
        <ele>12.7</ele>
        <time>2020-06-22T18:31:56Z</time>
      </trkpt>
      <trkpt lat="50.78721" lon="1.60674">
        <ele>12.7</ele>
        <time>2020-06-22T18:31:57Z</time>
      </trkpt>
      <trkpt lat="50.78723" lon="1.60683">
        <ele>12.7</ele>
        <time>2020-06-22T18:31:58Z</time>
      </trkpt>
      <trkpt lat="50.78724" lon="1.60691">
        <ele>12.6</ele>
        <time>2020-06-22T18:31:59Z</time>
      </trkpt>
      <trkpt lat="50.78726" lon="1.60699">
        <ele>12.6</ele>
        <time>2020-06-22T18:32:00Z</time>
      </trkpt>
      <trkpt lat="50.78728" lon="1.60708">
        <ele>12.6</ele>
        <time>2020-06-22T18:32:01Z</time>
      </trkpt>
      <trkpt lat="50.7873" lon="1.60717">
        <ele>12.5</ele>
        <time>2020-06-22T18:32:02Z</time>
      </trkpt>
      <trkpt lat="50.78732" lon="1.60726">
        <ele>12.5</ele>
        <time>2020-06-22T18:32:03Z</time>
      </trkpt>
      <trkpt lat="50.78735" lon="1.60734">
        <ele>12.5</ele>
        <time>2020-06-22T18:32:04Z</time>
      </trkpt>
      <trkpt lat="50.78739" lon="1.60743">
        <ele>12.4</ele>
        <time>2020-06-22T18:32:05Z</time>
      </trkpt>
      <trkpt lat="50.78743" lon="1.6075">
        <ele>12.3</ele>
        <time>2020-06-22T18:32:06Z</time>
      </trkpt>
      <trkpt lat="50.78747" lon="1.60758">
        <ele>12.3</ele>
        <time>2020-06-22T18:32:07Z</time>
      </trkpt>
      <trkpt lat="50.78753" lon="1.60765">
        <ele>12.2</ele>
        <time>2020-06-22T18:32:08Z</time>
      </trkpt>
      <trkpt lat="50.78758" lon="1.6077">
        <ele>12.2</ele>
        <time>2020-06-22T18:32:09Z</time>
      </trkpt>
      <trkpt lat="50.78764" lon="1.60776">
        <ele>12.1</ele>
        <time>2020-06-22T18:32:10Z</time>
      </trkpt>
      <trkpt lat="50.7877" lon="1.60781">
        <ele>12</ele>
        <time>2020-06-22T18:32:11Z</time>
      </trkpt>
      <trkpt lat="50.78776" lon="1.60787">
        <ele>12</ele>
        <time>2020-06-22T18:32:12Z</time>
      </trkpt>
      <trkpt lat="50.78782" lon="1.60792">
        <ele>11.9</ele>
        <time>2020-06-22T18:32:13Z</time>
      </trkpt>
      <trkpt lat="50.78788" lon="1.60797">
        <ele>11.9</ele>
        <time>2020-06-22T18:32:14Z</time>
      </trkpt>
      <trkpt lat="50.78794" lon="1.60802">
        <ele>11.9</ele>
        <time>2020-06-22T18:32:15Z</time>
      </trkpt>
      <trkpt lat="50.788" lon="1.60807">
        <ele>11.8</ele>
        <time>2020-06-22T18:32:16Z</time>
      </trkpt>
      <trkpt lat="50.78806" lon="1.60812">
        <ele>11.8</ele>
        <time>2020-06-22T18:32:17Z</time>
      </trkpt>
      <trkpt lat="50.78812" lon="1.60817">
        <ele>11.8</ele>
        <time>2020-06-22T18:32:18Z</time>
      </trkpt>
      <trkpt lat="50.78818" lon="1.60822">
        <ele>11.8</ele>
        <time>2020-06-22T18:32:19Z</time>
      </trkpt>
      <trkpt lat="50.78824" lon="1.60827">
        <ele>11.8</ele>
        <time>2020-06-22T18:32:20Z</time>
      </trkpt>
      <trkpt lat="50.7883" lon="1.60832">
        <ele>11.9</ele>
        <time>2020-06-22T18:32:21Z</time>
      </trkpt>
      <trkpt lat="50.78836" lon="1.60838">
        <ele>11.9</ele>
        <time>2020-06-22T18:32:22Z</time>
      </trkpt>
      <trkpt lat="50.78841" lon="1.60843">
        <ele>11.9</ele>
        <time>2020-06-22T18:32:23Z</time>
      </trkpt>
      <trkpt lat="50.78847" lon="1.60848">
        <ele>11.9</ele>
        <time>2020-06-22T18:32:24Z</time>
      </trkpt>
      <trkpt lat="50.78853" lon="1.60853">
        <ele>12</ele>
        <time>2020-06-22T18:32:25Z</time>
      </trkpt>
      <trkpt lat="50.78859" lon="1.60858">
        <ele>12</ele>
        <time>2020-06-22T18:32:26Z</time>
      </trkpt>
      <trkpt lat="50.78865" lon="1.60863">
        <ele>12</ele>
        <time>2020-06-22T18:32:27Z</time>
      </trkpt>
      <trkpt lat="50.7887" lon="1.60868">
        <ele>12.1</ele>
        <time>2020-06-22T18:32:28Z</time>
      </trkpt>
      <trkpt lat="50.78876" lon="1.60874">
        <ele>12.1</ele>
        <time>2020-06-22T18:32:29Z</time>
      </trkpt>
      <trkpt lat="50.78882" lon="1.60879">
        <ele>12.1</ele>
        <time>2020-06-22T18:32:30Z</time>
      </trkpt>
      <trkpt lat="50.78888" lon="1.60884">
        <ele>12.1</ele>
        <time>2020-06-22T18:32:31Z</time>
      </trkpt>
      <trkpt lat="50.78893" lon="1.6089">
        <ele>12.2</ele>
        <time>2020-06-22T18:32:32Z</time>
      </trkpt>
      <trkpt lat="50.78899" lon="1.60895">
        <ele>12.2</ele>
        <time>2020-06-22T18:32:33Z</time>
      </trkpt>
      <trkpt lat="50.78904" lon="1.609">
        <ele>12.2</ele>
        <time>2020-06-22T18:32:34Z</time>
      </trkpt>
      <trkpt lat="50.7891" lon="1.60906">
        <ele>12.3</ele>
        <time>2020-06-22T18:32:35Z</time>
      </trkpt>
      <trkpt lat="50.78915" lon="1.60911">
        <ele>12.3</ele>
        <time>2020-06-22T18:32:36Z</time>
      </trkpt>
      <trkpt lat="50.78921" lon="1.60916">
        <ele>12.3</ele>
        <time>2020-06-22T18:32:37Z</time>
      </trkpt>
      <trkpt lat="50.78927" lon="1.60921">
        <ele>12.3</ele>
        <time>2020-06-22T18:32:38Z</time>
      </trkpt>
      <trkpt lat="50.78932" lon="1.60926">
        <ele>12.3</ele>
        <time>2020-06-22T18:32:39Z</time>
      </trkpt>
      <trkpt lat="50.78937" lon="1.60931">
        <ele>12.3</ele>
        <time>2020-06-22T18:32:40Z</time>
      </trkpt>
      <trkpt lat="50.78943" lon="1.60936">
        <ele>12.4</ele>
        <time>2020-06-22T18:32:41Z</time>
      </trkpt>
      <trkpt lat="50.78948" lon="1.60941">
        <ele>12.4</ele>
        <time>2020-06-22T18:32:42Z</time>
      </trkpt>
      <trkpt lat="50.78954" lon="1.60947">
        <ele>12.4</ele>
        <time>2020-06-22T18:32:43Z</time>
      </trkpt>
      <trkpt lat="50.78959" lon="1.60952">
        <ele>12.5</ele>
        <time>2020-06-22T18:32:44Z</time>
      </trkpt>
      <trkpt lat="50.78965" lon="1.60958">
        <ele>12.6</ele>
        <time>2020-06-22T18:32:45Z</time>
      </trkpt>
      <trkpt lat="50.78971" lon="1.60964">
        <ele>12.7</ele>
        <time>2020-06-22T18:32:46Z</time>
      </trkpt>
      <trkpt lat="50.78977" lon="1.6097">
        <ele>12.6</ele>
        <time>2020-06-22T18:32:47Z</time>
      </trkpt>
      <trkpt lat="50.78983" lon="1.60975">
        <ele>12.5</ele>
        <time>2020-06-22T18:32:48Z</time>
      </trkpt>
      <trkpt lat="50.78988" lon="1.6098">
        <ele>12.5</ele>
        <time>2020-06-22T18:32:49Z</time>
      </trkpt>
      <trkpt lat="50.78994" lon="1.60985">
        <ele>12.5</ele>
        <time>2020-06-22T18:32:50Z</time>
      </trkpt>
      <trkpt lat="50.79" lon="1.60991">
        <ele>12.4</ele>
        <time>2020-06-22T18:32:51Z</time>
      </trkpt>
      <trkpt lat="50.79006" lon="1.60996">
        <ele>12.4</ele>
        <time>2020-06-22T18:32:52Z</time>
      </trkpt>
      <trkpt lat="50.79012" lon="1.61001">
        <ele>12.4</ele>
        <time>2020-06-22T18:32:53Z</time>
      </trkpt>
      <trkpt lat="50.79018" lon="1.61005">
        <ele>12.5</ele>
        <time>2020-06-22T18:32:54Z</time>
      </trkpt>
      <trkpt lat="50.79024" lon="1.6101">
        <ele>12.6</ele>
        <time>2020-06-22T18:32:55Z</time>
      </trkpt>
      <trkpt lat="50.79031" lon="1.61013">
        <ele>12.7</ele>
        <time>2020-06-22T18:32:56Z</time>
      </trkpt>
      <trkpt lat="50.79037" lon="1.61017">
        <ele>12.8</ele>
        <time>2020-06-22T18:32:57Z</time>
      </trkpt>
      <trkpt lat="50.79044" lon="1.61019">
        <ele>13</ele>
        <time>2020-06-22T18:32:58Z</time>
      </trkpt>
      <trkpt lat="50.7905" lon="1.6102">
        <ele>13.2</ele>
        <time>2020-06-22T18:32:59Z</time>
      </trkpt>
      <trkpt lat="50.79057" lon="1.61022">
        <ele>13.4</ele>
        <time>2020-06-22T18:33:00Z</time>
      </trkpt>
      <trkpt lat="50.79063" lon="1.61023">
        <ele>13.6</ele>
        <time>2020-06-22T18:33:01Z</time>
      </trkpt>
      <trkpt lat="50.79069" lon="1.61024">
        <ele>13.8</ele>
        <time>2020-06-22T18:33:02Z</time>
      </trkpt>
      <trkpt lat="50.79076" lon="1.61025">
        <ele>14</ele>
        <time>2020-06-22T18:33:03Z</time>
      </trkpt>
      <trkpt lat="50.79082" lon="1.61026">
        <ele>14.2</ele>
        <time>2020-06-22T18:33:04Z</time>
      </trkpt>
      <trkpt lat="50.79089" lon="1.61026">
        <ele>14.5</ele>
        <time>2020-06-22T18:33:05Z</time>
      </trkpt>
      <trkpt lat="50.79095" lon="1.61027">
        <ele>14.8</ele>
        <time>2020-06-22T18:33:06Z</time>
      </trkpt>
      <trkpt lat="50.79101" lon="1.61028">
        <ele>14.8</ele>
        <time>2020-06-22T18:33:07Z</time>
      </trkpt>
      <trkpt lat="50.79107" lon="1.61029">
        <ele>14.9</ele>
        <time>2020-06-22T18:33:08Z</time>
      </trkpt>
      <trkpt lat="50.79113" lon="1.61031">
        <ele>15.2</ele>
        <time>2020-06-22T18:33:09Z</time>
      </trkpt>
      <trkpt lat="50.79118" lon="1.61032">
        <ele>15.5</ele>
        <time>2020-06-22T18:33:10Z</time>
      </trkpt>
      <trkpt lat="50.79124" lon="1.61033">
        <ele>15.8</ele>
        <time>2020-06-22T18:33:11Z</time>
      </trkpt>
      <trkpt lat="50.7913" lon="1.61033">
        <ele>16.1</ele>
        <time>2020-06-22T18:33:12Z</time>
      </trkpt>
      <trkpt lat="50.79135" lon="1.61034">
        <ele>16.3</ele>
        <time>2020-06-22T18:33:13Z</time>
      </trkpt>
      <trkpt lat="50.79141" lon="1.61034">
        <ele>16.6</ele>
        <time>2020-06-22T18:33:14Z</time>
      </trkpt>
      <trkpt lat="50.79146" lon="1.61035">
        <ele>16.9</ele>
        <time>2020-06-22T18:33:15Z</time>
      </trkpt>
      <trkpt lat="50.79151" lon="1.61036">
        <ele>17.2</ele>
        <time>2020-06-22T18:33:16Z</time>
      </trkpt>
      <trkpt lat="50.79155" lon="1.61037">
        <ele>17.5</ele>
        <time>2020-06-22T18:33:17Z</time>
      </trkpt>
      <trkpt lat="50.7916" lon="1.61038">
        <ele>17.8</ele>
        <time>2020-06-22T18:33:18Z</time>
      </trkpt>
      <trkpt lat="50.79165" lon="1.61039">
        <ele>18.1</ele>
        <time>2020-06-22T18:33:19Z</time>
      </trkpt>
      <trkpt lat="50.79169" lon="1.6104">
        <ele>18.4</ele>
        <time>2020-06-22T18:33:20Z</time>
      </trkpt>
      <trkpt lat="50.79174" lon="1.61041">
        <ele>18.7</ele>
        <time>2020-06-22T18:33:21Z</time>
      </trkpt>
      <trkpt lat="50.79178" lon="1.61042">
        <ele>19</ele>
        <time>2020-06-22T18:33:22Z</time>
      </trkpt>
      <trkpt lat="50.79182" lon="1.61043">
        <ele>19.3</ele>
        <time>2020-06-22T18:33:23Z</time>
      </trkpt>
      <trkpt lat="50.79186" lon="1.61043">
        <ele>19.5</ele>
        <time>2020-06-22T18:33:24Z</time>
      </trkpt>
      <trkpt lat="50.7919" lon="1.61044">
        <ele>19.8</ele>
        <time>2020-06-22T18:33:25Z</time>
      </trkpt>
      <trkpt lat="50.79193" lon="1.61045">
        <ele>20</ele>
        <time>2020-06-22T18:33:26Z</time>
      </trkpt>
      <trkpt lat="50.79197" lon="1.61046">
        <ele>20.2</ele>
        <time>2020-06-22T18:33:27Z</time>
      </trkpt>
      <trkpt lat="50.792" lon="1.61047">
        <ele>20.4</ele>
        <time>2020-06-22T18:33:28Z</time>
      </trkpt>
      <trkpt lat="50.79204" lon="1.61049">
        <ele>20.7</ele>
        <time>2020-06-22T18:33:29Z</time>
      </trkpt>
      <trkpt lat="50.79207" lon="1.61051">
        <ele>20.9</ele>
        <time>2020-06-22T18:33:30Z</time>
      </trkpt>
      <trkpt lat="50.79211" lon="1.61053">
        <ele>21.1</ele>
        <time>2020-06-22T18:33:31Z</time>
      </trkpt>
      <trkpt lat="50.79214" lon="1.61055">
        <ele>21.4</ele>
        <time>2020-06-22T18:33:32Z</time>
      </trkpt>
      <trkpt lat="50.79218" lon="1.61058">
        <ele>21.6</ele>
        <time>2020-06-22T18:33:33Z</time>
      </trkpt>
      <trkpt lat="50.79221" lon="1.61061">
        <ele>21.8</ele>
        <time>2020-06-22T18:33:34Z</time>
      </trkpt>
      <trkpt lat="50.79224" lon="1.61063">
        <ele>21.9</ele>
        <time>2020-06-22T18:33:35Z</time>
      </trkpt>
      <trkpt lat="50.79229" lon="1.61067">
        <ele>22.1</ele>
        <time>2020-06-22T18:33:36Z</time>
      </trkpt>
      <trkpt lat="50.79232" lon="1.61071">
        <ele>22.2</ele>
        <time>2020-06-22T18:33:37Z</time>
      </trkpt>
      <trkpt lat="50.79235" lon="1.61074">
        <ele>22.6</ele>
        <time>2020-06-22T18:33:38Z</time>
      </trkpt>
      <trkpt lat="50.79238" lon="1.61079">
        <ele>22.9</ele>
        <time>2020-06-22T18:33:39Z</time>
      </trkpt>
      <trkpt lat="50.79242" lon="1.61084">
        <ele>23</ele>
        <time>2020-06-22T18:33:40Z</time>
      </trkpt>
      <trkpt lat="50.79245" lon="1.61089">
        <ele>23.2</ele>
        <time>2020-06-22T18:33:41Z</time>
      </trkpt>
      <trkpt lat="50.79249" lon="1.61094">
        <ele>23.3</ele>
        <time>2020-06-22T18:33:42Z</time>
      </trkpt>
      <trkpt lat="50.79251" lon="1.61098">
        <ele>23.4</ele>
        <time>2020-06-22T18:33:43Z</time>
      </trkpt>
      <trkpt lat="50.79254" lon="1.61104">
        <ele>23.6</ele>
        <time>2020-06-22T18:33:44Z</time>
      </trkpt>
      <trkpt lat="50.79257" lon="1.6111">
        <ele>23.7</ele>
        <time>2020-06-22T18:33:45Z</time>
      </trkpt>
      <trkpt lat="50.7926" lon="1.61116">
        <ele>23.7</ele>
        <time>2020-06-22T18:33:46Z</time>
      </trkpt>
      <trkpt lat="50.79263" lon="1.61122">
        <ele>23.8</ele>
        <time>2020-06-22T18:33:47Z</time>
      </trkpt>
      <trkpt lat="50.79266" lon="1.61129">
        <ele>23.9</ele>
        <time>2020-06-22T18:33:48Z</time>
      </trkpt>
      <trkpt lat="50.79269" lon="1.61137">
        <ele>23.9</ele>
        <time>2020-06-22T18:33:49Z</time>
      </trkpt>
      <trkpt lat="50.79272" lon="1.61144">
        <ele>23.9</ele>
        <time>2020-06-22T18:33:50Z</time>
      </trkpt>
      <trkpt lat="50.79275" lon="1.61153">
        <ele>23.9</ele>
        <time>2020-06-22T18:33:51Z</time>
      </trkpt>
      <trkpt lat="50.79278" lon="1.61161">
        <ele>23.9</ele>
        <time>2020-06-22T18:33:52Z</time>
      </trkpt>
      <trkpt lat="50.79281" lon="1.6117">
        <ele>23.8</ele>
        <time>2020-06-22T18:33:53Z</time>
      </trkpt>
      <trkpt lat="50.79283" lon="1.61178">
        <ele>23.7</ele>
        <time>2020-06-22T18:33:54Z</time>
      </trkpt>
      <trkpt lat="50.79285" lon="1.61184">
        <ele>23.7</ele>
        <time>2020-06-22T18:33:55Z</time>
      </trkpt>
      <trkpt lat="50.79287" lon="1.61192">
        <ele>23.6</ele>
        <time>2020-06-22T18:33:56Z</time>
      </trkpt>
      <trkpt lat="50.7929" lon="1.612">
        <ele>23.5</ele>
        <time>2020-06-22T18:33:57Z</time>
      </trkpt>
      <trkpt lat="50.79293" lon="1.61208">
        <ele>23.4</ele>
        <time>2020-06-22T18:33:58Z</time>
      </trkpt>
      <trkpt lat="50.79297" lon="1.61217">
        <ele>23.2</ele>
        <time>2020-06-22T18:33:59Z</time>
      </trkpt>
      <trkpt lat="50.79301" lon="1.61225">
        <ele>23</ele>
        <time>2020-06-22T18:34:00Z</time>
      </trkpt>
      <trkpt lat="50.79307" lon="1.61232">
        <ele>22.7</ele>
        <time>2020-06-22T18:34:01Z</time>
      </trkpt>
      <trkpt lat="50.79312" lon="1.61238">
        <ele>22.4</ele>
        <time>2020-06-22T18:34:02Z</time>
      </trkpt>
      <trkpt lat="50.79319" lon="1.61242">
        <ele>22.1</ele>
        <time>2020-06-22T18:34:03Z</time>
      </trkpt>
      <trkpt lat="50.79326" lon="1.61244">
        <ele>21.6</ele>
        <time>2020-06-22T18:34:04Z</time>
      </trkpt>
      <trkpt lat="50.79334" lon="1.61246">
        <ele>21.1</ele>
        <time>2020-06-22T18:34:05Z</time>
      </trkpt>
      <trkpt lat="50.79342" lon="1.61247">
        <ele>20.5</ele>
        <time>2020-06-22T18:34:06Z</time>
      </trkpt>
      <trkpt lat="50.79351" lon="1.61247">
        <ele>19.9</ele>
        <time>2020-06-22T18:34:07Z</time>
      </trkpt>
      <trkpt lat="50.7936" lon="1.61247">
        <ele>19.3</ele>
        <time>2020-06-22T18:34:08Z</time>
      </trkpt>
      <trkpt lat="50.79369" lon="1.61247">
        <ele>18.6</ele>
        <time>2020-06-22T18:34:09Z</time>
      </trkpt>
      <trkpt lat="50.79379" lon="1.61248">
        <ele>18</ele>
        <time>2020-06-22T18:34:10Z</time>
      </trkpt>
      <trkpt lat="50.79388" lon="1.61248">
        <ele>17.3</ele>
        <time>2020-06-22T18:34:11Z</time>
      </trkpt>
      <trkpt lat="50.79398" lon="1.61249">
        <ele>16.6</ele>
        <time>2020-06-22T18:34:12Z</time>
      </trkpt>
      <trkpt lat="50.79408" lon="1.61249">
        <ele>15.9</ele>
        <time>2020-06-22T18:34:13Z</time>
      </trkpt>
      <trkpt lat="50.79418" lon="1.6125">
        <ele>15.2</ele>
        <time>2020-06-22T18:34:14Z</time>
      </trkpt>
      <trkpt lat="50.79428" lon="1.6125">
        <ele>14.6</ele>
        <time>2020-06-22T18:34:15Z</time>
      </trkpt>
      <trkpt lat="50.79438" lon="1.61251">
        <ele>14</ele>
        <time>2020-06-22T18:34:16Z</time>
      </trkpt>
      <trkpt lat="50.79449" lon="1.61252">
        <ele>13.3</ele>
        <time>2020-06-22T18:34:17Z</time>
      </trkpt>
      <trkpt lat="50.79459" lon="1.61253">
        <ele>12.6</ele>
        <time>2020-06-22T18:34:18Z</time>
      </trkpt>
      <trkpt lat="50.7947" lon="1.61253">
        <ele>11.9</ele>
        <time>2020-06-22T18:34:19Z</time>
      </trkpt>
      <trkpt lat="50.7948" lon="1.61254">
        <ele>11.3</ele>
        <time>2020-06-22T18:34:20Z</time>
      </trkpt>
      <trkpt lat="50.7949" lon="1.61254">
        <ele>10.5</ele>
        <time>2020-06-22T18:34:21Z</time>
      </trkpt>
      <trkpt lat="50.79501" lon="1.61255">
        <ele>9.8</ele>
        <time>2020-06-22T18:34:22Z</time>
      </trkpt>
      <trkpt lat="50.79511" lon="1.61256">
        <ele>9.2</ele>
        <time>2020-06-22T18:34:23Z</time>
      </trkpt>
      <trkpt lat="50.79522" lon="1.61257">
        <ele>8.6</ele>
        <time>2020-06-22T18:34:24Z</time>
      </trkpt>
      <trkpt lat="50.79532" lon="1.61258">
        <ele>8.1</ele>
        <time>2020-06-22T18:34:25Z</time>
      </trkpt>
      <trkpt lat="50.79542" lon="1.61258">
        <ele>7.7</ele>
        <time>2020-06-22T18:34:26Z</time>
      </trkpt>
      <trkpt lat="50.79552" lon="1.61259">
        <ele>7.4</ele>
        <time>2020-06-22T18:34:27Z</time>
      </trkpt>
      <trkpt lat="50.79562" lon="1.61259">
        <ele>7.2</ele>
        <time>2020-06-22T18:34:28Z</time>
      </trkpt>
      <trkpt lat="50.79572" lon="1.6126">
        <ele>7</ele>
        <time>2020-06-22T18:34:29Z</time>
      </trkpt>
      <trkpt lat="50.79581" lon="1.6126">
        <ele>6.9</ele>
        <time>2020-06-22T18:34:30Z</time>
      </trkpt>
      <trkpt lat="50.7959" lon="1.61261">
        <ele>6.8</ele>
        <time>2020-06-22T18:34:31Z</time>
      </trkpt>
      <trkpt lat="50.79599" lon="1.61262">
        <ele>6.8</ele>
        <time>2020-06-22T18:34:32Z</time>
      </trkpt>
      <trkpt lat="50.79607" lon="1.61262">
        <ele>6.8</ele>
        <time>2020-06-22T18:34:33Z</time>
      </trkpt>
      <trkpt lat="50.79616" lon="1.61263">
        <ele>6.8</ele>
        <time>2020-06-22T18:34:34Z</time>
      </trkpt>
      <trkpt lat="50.79624" lon="1.61264">
        <ele>6.8</ele>
        <time>2020-06-22T18:34:35Z</time>
      </trkpt>
      <trkpt lat="50.79631" lon="1.61264">
        <ele>6.9</ele>
        <time>2020-06-22T18:34:36Z</time>
      </trkpt>
      <trkpt lat="50.79638" lon="1.61265">
        <ele>7</ele>
        <time>2020-06-22T18:34:37Z</time>
      </trkpt>
      <trkpt lat="50.79645" lon="1.61266">
        <ele>7.1</ele>
        <time>2020-06-22T18:34:38Z</time>
      </trkpt>
      <trkpt lat="50.79652" lon="1.61266">
        <ele>7.2</ele>
        <time>2020-06-22T18:34:39Z</time>
      </trkpt>
      <trkpt lat="50.79659" lon="1.61267">
        <ele>7.3</ele>
        <time>2020-06-22T18:34:40Z</time>
      </trkpt>
      <trkpt lat="50.79665" lon="1.61268">
        <ele>7.4</ele>
        <time>2020-06-22T18:34:41Z</time>
      </trkpt>
      <trkpt lat="50.79672" lon="1.61269">
        <ele>7.5</ele>
        <time>2020-06-22T18:34:42Z</time>
      </trkpt>
      <trkpt lat="50.79678" lon="1.6127">
        <ele>7.5</ele>
        <time>2020-06-22T18:34:43Z</time>
      </trkpt>
      <trkpt lat="50.79685" lon="1.61271">
        <ele>7.6</ele>
        <time>2020-06-22T18:34:44Z</time>
      </trkpt>
      <trkpt lat="50.79692" lon="1.61273">
        <ele>7.6</ele>
        <time>2020-06-22T18:34:45Z</time>
      </trkpt>
      <trkpt lat="50.79698" lon="1.61275">
        <ele>7.6</ele>
        <time>2020-06-22T18:34:46Z</time>
      </trkpt>
      <trkpt lat="50.79704" lon="1.6128">
        <ele>7.6</ele>
        <time>2020-06-22T18:34:47Z</time>
      </trkpt>
      <trkpt lat="50.7971" lon="1.61284">
        <ele>7.6</ele>
        <time>2020-06-22T18:34:48Z</time>
      </trkpt>
      <trkpt lat="50.79716" lon="1.61288">
        <ele>7.6</ele>
        <time>2020-06-22T18:34:49Z</time>
      </trkpt>
      <trkpt lat="50.79722" lon="1.61292">
        <ele>7.5</ele>
        <time>2020-06-22T18:34:50Z</time>
      </trkpt>
      <trkpt lat="50.79728" lon="1.61298">
        <ele>7.5</ele>
        <time>2020-06-22T18:34:51Z</time>
      </trkpt>
      <trkpt lat="50.79734" lon="1.61304">
        <ele>7.4</ele>
        <time>2020-06-22T18:34:52Z</time>
      </trkpt>
      <trkpt lat="50.79739" lon="1.61311">
        <ele>7.3</ele>
        <time>2020-06-22T18:34:53Z</time>
      </trkpt>
      <trkpt lat="50.79745" lon="1.61319">
        <ele>7.3</ele>
        <time>2020-06-22T18:34:54Z</time>
      </trkpt>
      <trkpt lat="50.7975" lon="1.61327">
        <ele>7.2</ele>
        <time>2020-06-22T18:34:55Z</time>
      </trkpt>
      <trkpt lat="50.79754" lon="1.61336">
        <ele>7.2</ele>
        <time>2020-06-22T18:34:56Z</time>
      </trkpt>
      <trkpt lat="50.7976" lon="1.61343">
        <ele>7.1</ele>
        <time>2020-06-22T18:34:57Z</time>
      </trkpt>
      <trkpt lat="50.79765" lon="1.61352">
        <ele>7.1</ele>
        <time>2020-06-22T18:34:58Z</time>
      </trkpt>
      <trkpt lat="50.7977" lon="1.6136">
        <ele>7.1</ele>
        <time>2020-06-22T18:34:59Z</time>
      </trkpt>
      <trkpt lat="50.79775" lon="1.61369">
        <ele>7</ele>
        <time>2020-06-22T18:35:00Z</time>
      </trkpt>
      <trkpt lat="50.7978" lon="1.61377">
        <ele>7</ele>
        <time>2020-06-22T18:35:01Z</time>
      </trkpt>
      <trkpt lat="50.79785" lon="1.61385">
        <ele>7</ele>
        <time>2020-06-22T18:35:02Z</time>
      </trkpt>
      <trkpt lat="50.7979" lon="1.61393">
        <ele>7</ele>
        <time>2020-06-22T18:35:03Z</time>
      </trkpt>
      <trkpt lat="50.79796" lon="1.614">
        <ele>7</ele>
        <time>2020-06-22T18:35:04Z</time>
      </trkpt>
      <trkpt lat="50.79802" lon="1.61406">
        <ele>6.9</ele>
        <time>2020-06-22T18:35:05Z</time>
      </trkpt>
      <trkpt lat="50.79808" lon="1.61412">
        <ele>6.9</ele>
        <time>2020-06-22T18:35:06Z</time>
      </trkpt>
      <trkpt lat="50.79814" lon="1.61418">
        <ele>6.8</ele>
        <time>2020-06-22T18:35:07Z</time>
      </trkpt>
      <trkpt lat="50.7982" lon="1.61424">
        <ele>6.8</ele>
        <time>2020-06-22T18:35:08Z</time>
      </trkpt>
      <trkpt lat="50.79827" lon="1.6143">
        <ele>6.8</ele>
        <time>2020-06-22T18:35:09Z</time>
      </trkpt>
      <trkpt lat="50.79833" lon="1.61435">
        <ele>6.8</ele>
        <time>2020-06-22T18:35:10Z</time>
      </trkpt>
      <trkpt lat="50.7984" lon="1.6144">
        <ele>6.8</ele>
        <time>2020-06-22T18:35:11Z</time>
      </trkpt>
      <trkpt lat="50.79846" lon="1.61446">
        <ele>6.8</ele>
        <time>2020-06-22T18:35:12Z</time>
      </trkpt>
      <trkpt lat="50.79853" lon="1.6145">
        <ele>6.8</ele>
        <time>2020-06-22T18:35:13Z</time>
      </trkpt>
      <trkpt lat="50.7986" lon="1.61455">
        <ele>6.8</ele>
        <time>2020-06-22T18:35:14Z</time>
      </trkpt>
      <trkpt lat="50.79866" lon="1.6146">
        <ele>6.9</ele>
        <time>2020-06-22T18:35:15Z</time>
      </trkpt>
      <trkpt lat="50.79873" lon="1.61466">
        <ele>6.9</ele>
        <time>2020-06-22T18:35:16Z</time>
      </trkpt>
      <trkpt lat="50.79879" lon="1.61471">
        <ele>6.9</ele>
        <time>2020-06-22T18:35:17Z</time>
      </trkpt>
      <trkpt lat="50.79886" lon="1.61476">
        <ele>6.9</ele>
        <time>2020-06-22T18:35:18Z</time>
      </trkpt>
      <trkpt lat="50.79892" lon="1.61481">
        <ele>6.9</ele>
        <time>2020-06-22T18:35:19Z</time>
      </trkpt>
      <trkpt lat="50.79898" lon="1.61487">
        <ele>6.9</ele>
        <time>2020-06-22T18:35:20Z</time>
      </trkpt>
      <trkpt lat="50.79904" lon="1.61492">
        <ele>7</ele>
        <time>2020-06-22T18:35:21Z</time>
      </trkpt>
      <trkpt lat="50.79911" lon="1.61496">
        <ele>7</ele>
        <time>2020-06-22T18:35:22Z</time>
      </trkpt>
      <trkpt lat="50.79917" lon="1.61501">
        <ele>7</ele>
        <time>2020-06-22T18:35:23Z</time>
      </trkpt>
      <trkpt lat="50.79923" lon="1.61507">
        <ele>7</ele>
        <time>2020-06-22T18:35:24Z</time>
      </trkpt>
      <trkpt lat="50.79929" lon="1.61512">
        <ele>7</ele>
        <time>2020-06-22T18:35:25Z</time>
      </trkpt>
      <trkpt lat="50.79936" lon="1.61518">
        <ele>7</ele>
        <time>2020-06-22T18:35:26Z</time>
      </trkpt>
      <trkpt lat="50.79942" lon="1.61524">
        <ele>7</ele>
        <time>2020-06-22T18:35:27Z</time>
      </trkpt>
      <trkpt lat="50.79949" lon="1.61529">
        <ele>7.1</ele>
        <time>2020-06-22T18:35:28Z</time>
      </trkpt>
      <trkpt lat="50.79955" lon="1.61534">
        <ele>7.1</ele>
        <time>2020-06-22T18:35:29Z</time>
      </trkpt>
      <trkpt lat="50.79961" lon="1.61539">
        <ele>7.2</ele>
        <time>2020-06-22T18:35:30Z</time>
      </trkpt>
      <trkpt lat="50.79967" lon="1.61543">
        <ele>7.2</ele>
        <time>2020-06-22T18:35:31Z</time>
      </trkpt>
      <trkpt lat="50.79973" lon="1.61548">
        <ele>7.3</ele>
        <time>2020-06-22T18:35:32Z</time>
      </trkpt>
      <trkpt lat="50.79979" lon="1.61553">
        <ele>7.4</ele>
        <time>2020-06-22T18:35:33Z</time>
      </trkpt>
      <trkpt lat="50.79984" lon="1.61557">
        <ele>7.5</ele>
        <time>2020-06-22T18:35:34Z</time>
      </trkpt>
      <trkpt lat="50.7999" lon="1.61562">
        <ele>7.5</ele>
        <time>2020-06-22T18:35:35Z</time>
      </trkpt>
      <trkpt lat="50.79996" lon="1.61567">
        <ele>7.7</ele>
        <time>2020-06-22T18:35:36Z</time>
      </trkpt>
      <trkpt lat="50.80001" lon="1.61572">
        <ele>7.8</ele>
        <time>2020-06-22T18:35:37Z</time>
      </trkpt>
      <trkpt lat="50.80007" lon="1.61577">
        <ele>8</ele>
        <time>2020-06-22T18:35:38Z</time>
      </trkpt>
      <trkpt lat="50.80013" lon="1.61582">
        <ele>8.1</ele>
        <time>2020-06-22T18:35:39Z</time>
      </trkpt>
      <trkpt lat="50.80019" lon="1.61587">
        <ele>8.2</ele>
        <time>2020-06-22T18:35:40Z</time>
      </trkpt>
      <trkpt lat="50.80025" lon="1.6159">
        <ele>8.1</ele>
        <time>2020-06-22T18:35:41Z</time>
      </trkpt>
      <trkpt lat="50.8003" lon="1.61594">
        <ele>8.1</ele>
        <time>2020-06-22T18:35:42Z</time>
      </trkpt>
      <trkpt lat="50.80036" lon="1.61596">
        <ele>8</ele>
        <time>2020-06-22T18:35:43Z</time>
      </trkpt>
      <trkpt lat="50.80042" lon="1.61597">
        <ele>8</ele>
        <time>2020-06-22T18:35:44Z</time>
      </trkpt>
      <trkpt lat="50.80049" lon="1.61598">
        <ele>7.9</ele>
        <time>2020-06-22T18:35:45Z</time>
      </trkpt>
      <trkpt lat="50.80055" lon="1.61599">
        <ele>7.9</ele>
        <time>2020-06-22T18:35:46Z</time>
      </trkpt>
      <trkpt lat="50.80062" lon="1.61599">
        <ele>7.9</ele>
        <time>2020-06-22T18:35:47Z</time>
      </trkpt>
      <trkpt lat="50.80068" lon="1.61598">
        <ele>7.8</ele>
        <time>2020-06-22T18:35:48Z</time>
      </trkpt>
      <trkpt lat="50.80075" lon="1.61595">
        <ele>7.8</ele>
        <time>2020-06-22T18:35:49Z</time>
      </trkpt>
      <trkpt lat="50.80081" lon="1.6159">
        <ele>7.8</ele>
        <time>2020-06-22T18:35:50Z</time>
      </trkpt>
      <trkpt lat="50.80086" lon="1.61583">
        <ele>7.7</ele>
        <time>2020-06-22T18:35:51Z</time>
      </trkpt>
      <trkpt lat="50.80092" lon="1.61576">
        <ele>7.7</ele>
        <time>2020-06-22T18:35:52Z</time>
      </trkpt>
      <trkpt lat="50.80098" lon="1.6157">
        <ele>7.7</ele>
        <time>2020-06-22T18:35:53Z</time>
      </trkpt>
      <trkpt lat="50.80104" lon="1.61564">
        <ele>7.6</ele>
        <time>2020-06-22T18:35:54Z</time>
      </trkpt>
      <trkpt lat="50.8011" lon="1.61557">
        <ele>7.6</ele>
        <time>2020-06-22T18:35:55Z</time>
      </trkpt>
      <trkpt lat="50.80116" lon="1.6155">
        <ele>7.5</ele>
        <time>2020-06-22T18:35:56Z</time>
      </trkpt>
      <trkpt lat="50.80122" lon="1.61543">
        <ele>7.5</ele>
        <time>2020-06-22T18:35:57Z</time>
      </trkpt>
      <trkpt lat="50.80129" lon="1.61537">
        <ele>7.5</ele>
        <time>2020-06-22T18:35:58Z</time>
      </trkpt>
      <trkpt lat="50.80135" lon="1.61531">
        <ele>7.5</ele>
        <time>2020-06-22T18:35:59Z</time>
      </trkpt>
      <trkpt lat="50.8014" lon="1.61525">
        <ele>7.6</ele>
        <time>2020-06-22T18:36:00Z</time>
      </trkpt>
      <trkpt lat="50.80146" lon="1.61519">
        <ele>7.6</ele>
        <time>2020-06-22T18:36:01Z</time>
      </trkpt>
      <trkpt lat="50.80152" lon="1.61513">
        <ele>7.7</ele>
        <time>2020-06-22T18:36:02Z</time>
      </trkpt>
      <trkpt lat="50.80157" lon="1.61507">
        <ele>7.8</ele>
        <time>2020-06-22T18:36:03Z</time>
      </trkpt>
      <trkpt lat="50.80163" lon="1.61502">
        <ele>7.9</ele>
        <time>2020-06-22T18:36:04Z</time>
      </trkpt>
      <trkpt lat="50.80169" lon="1.61497">
        <ele>8</ele>
        <time>2020-06-22T18:36:05Z</time>
      </trkpt>
      <trkpt lat="50.80174" lon="1.61491">
        <ele>8.1</ele>
        <time>2020-06-22T18:36:06Z</time>
      </trkpt>
      <trkpt lat="50.80178" lon="1.61486">
        <ele>8.2</ele>
        <time>2020-06-22T18:36:07Z</time>
      </trkpt>
      <trkpt lat="50.80183" lon="1.6148">
        <ele>8.3</ele>
        <time>2020-06-22T18:36:08Z</time>
      </trkpt>
      <trkpt lat="50.80188" lon="1.61475">
        <ele>8.4</ele>
        <time>2020-06-22T18:36:09Z</time>
      </trkpt>
      <trkpt lat="50.80193" lon="1.6147">
        <ele>8.5</ele>
        <time>2020-06-22T18:36:10Z</time>
      </trkpt>
      <trkpt lat="50.80198" lon="1.61465">
        <ele>8.6</ele>
        <time>2020-06-22T18:36:11Z</time>
      </trkpt>
      <trkpt lat="50.80203" lon="1.61462">
        <ele>8.6</ele>
        <time>2020-06-22T18:36:12Z</time>
      </trkpt>
      <trkpt lat="50.80209" lon="1.61457">
        <ele>8.8</ele>
        <time>2020-06-22T18:36:13Z</time>
      </trkpt>
      <trkpt lat="50.80214" lon="1.61454">
        <ele>8.9</ele>
        <time>2020-06-22T18:36:14Z</time>
      </trkpt>
      <trkpt lat="50.8022" lon="1.6145">
        <ele>9</ele>
        <time>2020-06-22T18:36:15Z</time>
      </trkpt>
      <trkpt lat="50.80226" lon="1.61449">
        <ele>9.1</ele>
        <time>2020-06-22T18:36:16Z</time>
      </trkpt>
      <trkpt lat="50.80233" lon="1.61448">
        <ele>9.3</ele>
        <time>2020-06-22T18:36:17Z</time>
      </trkpt>
      <trkpt lat="50.80239" lon="1.61448">
        <ele>9.3</ele>
        <time>2020-06-22T18:36:18Z</time>
      </trkpt>
      <trkpt lat="50.80245" lon="1.6145">
        <ele>9.4</ele>
        <time>2020-06-22T18:36:19Z</time>
      </trkpt>
      <trkpt lat="50.80251" lon="1.61452">
        <ele>9.6</ele>
        <time>2020-06-22T18:36:20Z</time>
      </trkpt>
      <trkpt lat="50.80258" lon="1.61453">
        <ele>9.7</ele>
        <time>2020-06-22T18:36:21Z</time>
      </trkpt>
      <trkpt lat="50.80264" lon="1.61455">
        <ele>9.8</ele>
        <time>2020-06-22T18:36:22Z</time>
      </trkpt>
      <trkpt lat="50.8027" lon="1.61457">
        <ele>9.9</ele>
        <time>2020-06-22T18:36:23Z</time>
      </trkpt>
      <trkpt lat="50.80276" lon="1.61459">
        <ele>9.9</ele>
        <time>2020-06-22T18:36:24Z</time>
      </trkpt>
      <trkpt lat="50.80281" lon="1.61461">
        <ele>10</ele>
        <time>2020-06-22T18:36:25Z</time>
      </trkpt>
      <trkpt lat="50.80287" lon="1.61463">
        <ele>10.1</ele>
        <time>2020-06-22T18:36:26Z</time>
      </trkpt>
      <trkpt lat="50.80291" lon="1.61465">
        <ele>10.2</ele>
        <time>2020-06-22T18:36:27Z</time>
      </trkpt>
      <trkpt lat="50.80297" lon="1.61467">
        <ele>10.4</ele>
        <time>2020-06-22T18:36:28Z</time>
      </trkpt>
      <trkpt lat="50.80302" lon="1.61468">
        <ele>10.5</ele>
        <time>2020-06-22T18:36:29Z</time>
      </trkpt>
      <trkpt lat="50.80309" lon="1.6147">
        <ele>10.8</ele>
        <time>2020-06-22T18:36:30Z</time>
      </trkpt>
      <trkpt lat="50.80315" lon="1.61472">
        <ele>11</ele>
        <time>2020-06-22T18:36:31Z</time>
      </trkpt>
      <trkpt lat="50.80319" lon="1.61474">
        <ele>11.1</ele>
        <time>2020-06-22T18:36:32Z</time>
      </trkpt>
      <trkpt lat="50.80323" lon="1.61477">
        <ele>11.2</ele>
        <time>2020-06-22T18:36:33Z</time>
      </trkpt>
      <trkpt lat="50.80329" lon="1.61479">
        <ele>11.3</ele>
        <time>2020-06-22T18:36:34Z</time>
      </trkpt>
      <trkpt lat="50.80334" lon="1.61482">
        <ele>11.3</ele>
        <time>2020-06-22T18:36:35Z</time>
      </trkpt>
      <trkpt lat="50.8034" lon="1.61485">
        <ele>11.6</ele>
        <time>2020-06-22T18:36:36Z</time>
      </trkpt>
      <trkpt lat="50.80345" lon="1.61487">
        <ele>11.8</ele>
        <time>2020-06-22T18:36:37Z</time>
      </trkpt>
      <trkpt lat="50.8035" lon="1.6149">
        <ele>11.9</ele>
        <time>2020-06-22T18:36:38Z</time>
      </trkpt>
      <trkpt lat="50.80355" lon="1.61493">
        <ele>12.2</ele>
        <time>2020-06-22T18:36:39Z</time>
      </trkpt>
      <trkpt lat="50.8036" lon="1.61496">
        <ele>12.3</ele>
        <time>2020-06-22T18:36:40Z</time>
      </trkpt>
      <trkpt lat="50.80363" lon="1.61499">
        <ele>12.3</ele>
        <time>2020-06-22T18:36:41Z</time>
      </trkpt>
      <trkpt lat="50.80367" lon="1.61499">
        <ele>12.5</ele>
        <time>2020-06-22T18:36:42Z</time>
      </trkpt>
      <trkpt lat="50.8037" lon="1.61501">
        <ele>12.6</ele>
        <time>2020-06-22T18:36:43Z</time>
      </trkpt>
      <trkpt lat="50.80374" lon="1.61503">
        <ele>12.8</ele>
        <time>2020-06-22T18:36:44Z</time>
      </trkpt>
      <trkpt lat="50.80378" lon="1.61505">
        <ele>13.1</ele>
        <time>2020-06-22T18:36:45Z</time>
      </trkpt>
      <trkpt lat="50.80382" lon="1.61508">
        <ele>13.3</ele>
        <time>2020-06-22T18:36:46Z</time>
      </trkpt>
      <trkpt lat="50.80386" lon="1.61512">
        <ele>13.5</ele>
        <time>2020-06-22T18:36:47Z</time>
      </trkpt>
      <trkpt lat="50.80389" lon="1.61515">
        <ele>13.7</ele>
        <time>2020-06-22T18:36:48Z</time>
      </trkpt>
      <trkpt lat="50.80392" lon="1.61518">
        <ele>13.9</ele>
        <time>2020-06-22T18:36:49Z</time>
      </trkpt>
      <trkpt lat="50.80396" lon="1.61524">
        <ele>14.1</ele>
        <time>2020-06-22T18:36:50Z</time>
      </trkpt>
      <trkpt lat="50.80398" lon="1.61529">
        <ele>14.3</ele>
        <time>2020-06-22T18:36:51Z</time>
      </trkpt>
      <trkpt lat="50.80401" lon="1.61536">
        <ele>14.6</ele>
        <time>2020-06-22T18:36:52Z</time>
      </trkpt>
      <trkpt lat="50.80404" lon="1.61541">
        <ele>14.8</ele>
        <time>2020-06-22T18:36:53Z</time>
      </trkpt>
      <trkpt lat="50.80406" lon="1.61546">
        <ele>15</ele>
        <time>2020-06-22T18:36:54Z</time>
      </trkpt>
      <trkpt lat="50.80409" lon="1.61552">
        <ele>15.3</ele>
        <time>2020-06-22T18:36:55Z</time>
      </trkpt>
      <trkpt lat="50.80412" lon="1.61559">
        <ele>15.5</ele>
        <time>2020-06-22T18:36:56Z</time>
      </trkpt>
      <trkpt lat="50.80415" lon="1.61565">
        <ele>15.7</ele>
        <time>2020-06-22T18:36:57Z</time>
      </trkpt>
      <trkpt lat="50.80418" lon="1.6157">
        <ele>15.9</ele>
        <time>2020-06-22T18:36:58Z</time>
      </trkpt>
      <trkpt lat="50.80421" lon="1.61575">
        <ele>16.1</ele>
        <time>2020-06-22T18:36:59Z</time>
      </trkpt>
      <trkpt lat="50.80423" lon="1.61578">
        <ele>16.2</ele>
        <time>2020-06-22T18:37:00Z</time>
      </trkpt>
      <trkpt lat="50.80427" lon="1.61582">
        <ele>16.4</ele>
        <time>2020-06-22T18:37:01Z</time>
      </trkpt>
      <trkpt lat="50.80428" lon="1.61585">
        <ele>16.5</ele>
        <time>2020-06-22T18:37:02Z</time>
      </trkpt>
      <trkpt lat="50.80431" lon="1.6159">
        <ele>16.6</ele>
        <time>2020-06-22T18:37:03Z</time>
      </trkpt>
      <trkpt lat="50.80433" lon="1.61593">
        <ele>16.8</ele>
        <time>2020-06-22T18:37:04Z</time>
      </trkpt>
      <trkpt lat="50.80435" lon="1.61597">
        <ele>16.9</ele>
        <time>2020-06-22T18:37:05Z</time>
      </trkpt>
      <trkpt lat="50.80438" lon="1.61602">
        <ele>17</ele>
        <time>2020-06-22T18:37:06Z</time>
      </trkpt>
      <trkpt lat="50.8044" lon="1.61607">
        <ele>17.2</ele>
        <time>2020-06-22T18:37:07Z</time>
      </trkpt>
      <trkpt lat="50.80442" lon="1.61611">
        <ele>17.3</ele>
        <time>2020-06-22T18:37:08Z</time>
      </trkpt>
      <trkpt lat="50.80445" lon="1.61615">
        <ele>17.5</ele>
        <time>2020-06-22T18:37:09Z</time>
      </trkpt>
      <trkpt lat="50.80449" lon="1.6162">
        <ele>17.6</ele>
        <time>2020-06-22T18:37:10Z</time>
      </trkpt>
      <trkpt lat="50.80452" lon="1.61625">
        <ele>17.8</ele>
        <time>2020-06-22T18:37:11Z</time>
      </trkpt>
      <trkpt lat="50.80455" lon="1.6163">
        <ele>18</ele>
        <time>2020-06-22T18:37:12Z</time>
      </trkpt>
      <trkpt lat="50.80459" lon="1.61633">
        <ele>18.1</ele>
        <time>2020-06-22T18:37:13Z</time>
      </trkpt>
      <trkpt lat="50.80462" lon="1.61638">
        <ele>18.2</ele>
        <time>2020-06-22T18:37:14Z</time>
      </trkpt>
      <trkpt lat="50.80465" lon="1.61642">
        <ele>18.3</ele>
        <time>2020-06-22T18:37:15Z</time>
      </trkpt>
      <trkpt lat="50.80467" lon="1.61646">
        <ele>18.4</ele>
        <time>2020-06-22T18:37:16Z</time>
      </trkpt>
      <trkpt lat="50.8047" lon="1.61651">
        <ele>18.4</ele>
        <time>2020-06-22T18:37:17Z</time>
      </trkpt>
      <trkpt lat="50.80473" lon="1.61655">
        <ele>18.5</ele>
        <time>2020-06-22T18:37:18Z</time>
      </trkpt>
      <trkpt lat="50.80476" lon="1.61661">
        <ele>18.5</ele>
        <time>2020-06-22T18:37:19Z</time>
      </trkpt>
      <trkpt lat="50.8048" lon="1.61665">
        <ele>18.7</ele>
        <time>2020-06-22T18:37:20Z</time>
      </trkpt>
      <trkpt lat="50.80483" lon="1.6167">
        <ele>18.7</ele>
        <time>2020-06-22T18:37:21Z</time>
      </trkpt>
      <trkpt lat="50.80487" lon="1.61676">
        <ele>18.8</ele>
        <time>2020-06-22T18:37:22Z</time>
      </trkpt>
      <trkpt lat="50.80491" lon="1.61681">
        <ele>19</ele>
        <time>2020-06-22T18:37:23Z</time>
      </trkpt>
      <trkpt lat="50.80495" lon="1.61687">
        <ele>19.1</ele>
        <time>2020-06-22T18:37:24Z</time>
      </trkpt>
      <trkpt lat="50.805" lon="1.61692">
        <ele>19.2</ele>
        <time>2020-06-22T18:37:25Z</time>
      </trkpt>
      <trkpt lat="50.80505" lon="1.61696">
        <ele>19.3</ele>
        <time>2020-06-22T18:37:26Z</time>
      </trkpt>
      <trkpt lat="50.80511" lon="1.61698">
        <ele>19.4</ele>
        <time>2020-06-22T18:37:27Z</time>
      </trkpt>
      <trkpt lat="50.80516" lon="1.61698">
        <ele>19.4</ele>
        <time>2020-06-22T18:37:28Z</time>
      </trkpt>
      <trkpt lat="50.8052" lon="1.61699">
        <ele>19.5</ele>
        <time>2020-06-22T18:37:29Z</time>
      </trkpt>
      <trkpt lat="50.80525" lon="1.61699">
        <ele>19.5</ele>
        <time>2020-06-22T18:37:30Z</time>
      </trkpt>
      <trkpt lat="50.8053" lon="1.61699">
        <ele>19.6</ele>
        <time>2020-06-22T18:37:31Z</time>
      </trkpt>
      <trkpt lat="50.80535" lon="1.617">
        <ele>19.7</ele>
        <time>2020-06-22T18:37:32Z</time>
      </trkpt>
      <trkpt lat="50.8054" lon="1.61699">
        <ele>19.7</ele>
        <time>2020-06-22T18:37:33Z</time>
      </trkpt>
      <trkpt lat="50.80544" lon="1.61698">
        <ele>19.8</ele>
        <time>2020-06-22T18:37:34Z</time>
      </trkpt>
      <trkpt lat="50.80548" lon="1.61695">
        <ele>19.8</ele>
        <time>2020-06-22T18:37:35Z</time>
      </trkpt>
      <trkpt lat="50.80553" lon="1.61691">
        <ele>19.9</ele>
        <time>2020-06-22T18:37:36Z</time>
      </trkpt>
      <trkpt lat="50.80557" lon="1.61686">
        <ele>20</ele>
        <time>2020-06-22T18:37:37Z</time>
      </trkpt>
      <trkpt lat="50.80561" lon="1.61681">
        <ele>20.1</ele>
        <time>2020-06-22T18:37:38Z</time>
      </trkpt>
      <trkpt lat="50.80565" lon="1.61677">
        <ele>20.2</ele>
        <time>2020-06-22T18:37:39Z</time>
      </trkpt>
      <trkpt lat="50.80568" lon="1.61672">
        <ele>20.3</ele>
        <time>2020-06-22T18:37:40Z</time>
      </trkpt>
      <trkpt lat="50.80571" lon="1.61667">
        <ele>20.4</ele>
        <time>2020-06-22T18:37:41Z</time>
      </trkpt>
      <trkpt lat="50.80575" lon="1.61661">
        <ele>20.5</ele>
        <time>2020-06-22T18:37:42Z</time>
      </trkpt>
      <trkpt lat="50.80577" lon="1.61655">
        <ele>20.6</ele>
        <time>2020-06-22T18:37:43Z</time>
      </trkpt>
      <trkpt lat="50.80579" lon="1.61648">
        <ele>20.7</ele>
        <time>2020-06-22T18:37:44Z</time>
      </trkpt>
      <trkpt lat="50.80582" lon="1.61641">
        <ele>20.8</ele>
        <time>2020-06-22T18:37:45Z</time>
      </trkpt>
      <trkpt lat="50.80584" lon="1.61633">
        <ele>20.9</ele>
        <time>2020-06-22T18:37:46Z</time>
      </trkpt>
      <trkpt lat="50.80586" lon="1.61625">
        <ele>21.1</ele>
        <time>2020-06-22T18:37:47Z</time>
      </trkpt>
      <trkpt lat="50.80587" lon="1.61615">
        <ele>21.2</ele>
        <time>2020-06-22T18:37:48Z</time>
      </trkpt>
      <trkpt lat="50.80587" lon="1.61607">
        <ele>21.4</ele>
        <time>2020-06-22T18:37:49Z</time>
      </trkpt>
      <trkpt lat="50.80588" lon="1.61598">
        <ele>21.5</ele>
        <time>2020-06-22T18:37:50Z</time>
      </trkpt>
      <trkpt lat="50.80589" lon="1.6159">
        <ele>21.6</ele>
        <time>2020-06-22T18:37:51Z</time>
      </trkpt>
      <trkpt lat="50.8059" lon="1.61583">
        <ele>21.7</ele>
        <time>2020-06-22T18:37:52Z</time>
      </trkpt>
      <trkpt lat="50.80592" lon="1.61577">
        <ele>22</ele>
        <time>2020-06-22T18:37:53Z</time>
      </trkpt>
      <trkpt lat="50.80594" lon="1.61571">
        <ele>22.1</ele>
        <time>2020-06-22T18:37:54Z</time>
      </trkpt>
      <trkpt lat="50.80596" lon="1.61564">
        <ele>22.3</ele>
        <time>2020-06-22T18:37:55Z</time>
      </trkpt>
      <trkpt lat="50.80599" lon="1.61557">
        <ele>22.5</ele>
        <time>2020-06-22T18:37:56Z</time>
      </trkpt>
      <trkpt lat="50.80602" lon="1.6155">
        <ele>22.7</ele>
        <time>2020-06-22T18:37:57Z</time>
      </trkpt>
      <trkpt lat="50.80604" lon="1.61545">
        <ele>23</ele>
        <time>2020-06-22T18:37:58Z</time>
      </trkpt>
      <trkpt lat="50.80607" lon="1.61539">
        <ele>23</ele>
        <time>2020-06-22T18:37:59Z</time>
      </trkpt>
      <trkpt lat="50.8061" lon="1.61534">
        <ele>23.1</ele>
        <time>2020-06-22T18:38:00Z</time>
      </trkpt>
      <trkpt lat="50.80614" lon="1.61529">
        <ele>23.2</ele>
        <time>2020-06-22T18:38:01Z</time>
      </trkpt>
      <trkpt lat="50.80618" lon="1.61525">
        <ele>23.2</ele>
        <time>2020-06-22T18:38:02Z</time>
      </trkpt>
      <trkpt lat="50.80623" lon="1.61519">
        <ele>23.3</ele>
        <time>2020-06-22T18:38:03Z</time>
      </trkpt>
      <trkpt lat="50.80626" lon="1.61514">
        <ele>23.4</ele>
        <time>2020-06-22T18:38:04Z</time>
      </trkpt>
      <trkpt lat="50.8063" lon="1.61509">
        <ele>23.5</ele>
        <time>2020-06-22T18:38:05Z</time>
      </trkpt>
      <trkpt lat="50.80634" lon="1.61505">
        <ele>23.6</ele>
        <time>2020-06-22T18:38:06Z</time>
      </trkpt>
      <trkpt lat="50.80639" lon="1.615">
        <ele>23.6</ele>
        <time>2020-06-22T18:38:07Z</time>
      </trkpt>
      <trkpt lat="50.80643" lon="1.61494">
        <ele>23.7</ele>
        <time>2020-06-22T18:38:08Z</time>
      </trkpt>
      <trkpt lat="50.80647" lon="1.61489">
        <ele>23.9</ele>
        <time>2020-06-22T18:38:09Z</time>
      </trkpt>
      <trkpt lat="50.80653" lon="1.61484">
        <ele>24</ele>
        <time>2020-06-22T18:38:10Z</time>
      </trkpt>
      <trkpt lat="50.80659" lon="1.61477">
        <ele>24.2</ele>
        <time>2020-06-22T18:38:11Z</time>
      </trkpt>
      <trkpt lat="50.80665" lon="1.61471">
        <ele>24.3</ele>
        <time>2020-06-22T18:38:12Z</time>
      </trkpt>
      <trkpt lat="50.8067" lon="1.61465">
        <ele>24.4</ele>
        <time>2020-06-22T18:38:13Z</time>
      </trkpt>
      <trkpt lat="50.80673" lon="1.61461">
        <ele>24.5</ele>
        <time>2020-06-22T18:38:14Z</time>
      </trkpt>
      <trkpt lat="50.80678" lon="1.61456">
        <ele>24.6</ele>
        <time>2020-06-22T18:38:15Z</time>
      </trkpt>
      <trkpt lat="50.80682" lon="1.61451">
        <ele>24.7</ele>
        <time>2020-06-22T18:38:16Z</time>
      </trkpt>
      <trkpt lat="50.80687" lon="1.61446">
        <ele>24.9</ele>
        <time>2020-06-22T18:38:17Z</time>
      </trkpt>
      <trkpt lat="50.80692" lon="1.61441">
        <ele>25.1</ele>
        <time>2020-06-22T18:38:18Z</time>
      </trkpt>
      <trkpt lat="50.80697" lon="1.61436">
        <ele>25.2</ele>
        <time>2020-06-22T18:38:19Z</time>
      </trkpt>
      <trkpt lat="50.80701" lon="1.61431">
        <ele>25.4</ele>
        <time>2020-06-22T18:38:20Z</time>
      </trkpt>
      <trkpt lat="50.80706" lon="1.61426">
        <ele>25.6</ele>
        <time>2020-06-22T18:38:21Z</time>
      </trkpt>
      <trkpt lat="50.80711" lon="1.6142">
        <ele>25.8</ele>
        <time>2020-06-22T18:38:22Z</time>
      </trkpt>
      <trkpt lat="50.80716" lon="1.61414">
        <ele>26.1</ele>
        <time>2020-06-22T18:38:23Z</time>
      </trkpt>
      <trkpt lat="50.80719" lon="1.61409">
        <ele>26.3</ele>
        <time>2020-06-22T18:38:24Z</time>
      </trkpt>
      <trkpt lat="50.80725" lon="1.61401">
        <ele>26.6</ele>
        <time>2020-06-22T18:38:25Z</time>
      </trkpt>
      <trkpt lat="50.80728" lon="1.61397">
        <ele>26.8</ele>
        <time>2020-06-22T18:38:26Z</time>
      </trkpt>
      <trkpt lat="50.80731" lon="1.61392">
        <ele>26.9</ele>
        <time>2020-06-22T18:38:27Z</time>
      </trkpt>
      <trkpt lat="50.80735" lon="1.61386">
        <ele>27.2</ele>
        <time>2020-06-22T18:38:28Z</time>
      </trkpt>
      <trkpt lat="50.80738" lon="1.61382">
        <ele>27.3</ele>
        <time>2020-06-22T18:38:29Z</time>
      </trkpt>
      <trkpt lat="50.80741" lon="1.61378">
        <ele>27.5</ele>
        <time>2020-06-22T18:38:30Z</time>
      </trkpt>
      <trkpt lat="50.80744" lon="1.61373">
        <ele>27.7</ele>
        <time>2020-06-22T18:38:31Z</time>
      </trkpt>
      <trkpt lat="50.80747" lon="1.61369">
        <ele>27.8</ele>
        <time>2020-06-22T18:38:32Z</time>
      </trkpt>
      <trkpt lat="50.8075" lon="1.61365">
        <ele>28</ele>
        <time>2020-06-22T18:38:33Z</time>
      </trkpt>
      <trkpt lat="50.80753" lon="1.61361">
        <ele>28.1</ele>
        <time>2020-06-22T18:38:34Z</time>
      </trkpt>
      <trkpt lat="50.80756" lon="1.61356">
        <ele>28.3</ele>
        <time>2020-06-22T18:38:35Z</time>
      </trkpt>
      <trkpt lat="50.8076" lon="1.61351">
        <ele>28.5</ele>
        <time>2020-06-22T18:38:36Z</time>
      </trkpt>
      <trkpt lat="50.80763" lon="1.61346">
        <ele>28.7</ele>
        <time>2020-06-22T18:38:37Z</time>
      </trkpt>
      <trkpt lat="50.80767" lon="1.61341">
        <ele>28.8</ele>
        <time>2020-06-22T18:38:38Z</time>
      </trkpt>
      <trkpt lat="50.80771" lon="1.61336">
        <ele>29</ele>
        <time>2020-06-22T18:38:39Z</time>
      </trkpt>
      <trkpt lat="50.80774" lon="1.61331">
        <ele>29.1</ele>
        <time>2020-06-22T18:38:40Z</time>
      </trkpt>
      <trkpt lat="50.80778" lon="1.61326">
        <ele>29.2</ele>
        <time>2020-06-22T18:38:41Z</time>
      </trkpt>
      <trkpt lat="50.80783" lon="1.61321">
        <ele>29.3</ele>
        <time>2020-06-22T18:38:42Z</time>
      </trkpt>
      <trkpt lat="50.80787" lon="1.61316">
        <ele>29.3</ele>
        <time>2020-06-22T18:38:43Z</time>
      </trkpt>
      <trkpt lat="50.8079" lon="1.61311">
        <ele>29.4</ele>
        <time>2020-06-22T18:38:44Z</time>
      </trkpt>
      <trkpt lat="50.80794" lon="1.61306">
        <ele>29.4</ele>
        <time>2020-06-22T18:38:45Z</time>
      </trkpt>
      <trkpt lat="50.80797" lon="1.613">
        <ele>29.5</ele>
        <time>2020-06-22T18:38:46Z</time>
      </trkpt>
      <trkpt lat="50.80801" lon="1.61293">
        <ele>29.6</ele>
        <time>2020-06-22T18:38:47Z</time>
      </trkpt>
      <trkpt lat="50.80805" lon="1.61288">
        <ele>29.7</ele>
        <time>2020-06-22T18:38:48Z</time>
      </trkpt>
      <trkpt lat="50.80809" lon="1.6128">
        <ele>29.8</ele>
        <time>2020-06-22T18:38:49Z</time>
      </trkpt>
      <trkpt lat="50.80813" lon="1.61273">
        <ele>29.9</ele>
        <time>2020-06-22T18:38:50Z</time>
      </trkpt>
      <trkpt lat="50.80815" lon="1.61267">
        <ele>29.9</ele>
        <time>2020-06-22T18:38:51Z</time>
      </trkpt>
      <trkpt lat="50.80819" lon="1.61261">
        <ele>30</ele>
        <time>2020-06-22T18:38:52Z</time>
      </trkpt>
      <trkpt lat="50.80823" lon="1.61253">
        <ele>30</ele>
        <time>2020-06-22T18:38:53Z</time>
      </trkpt>
      <trkpt lat="50.80826" lon="1.61246">
        <ele>30.1</ele>
        <time>2020-06-22T18:38:54Z</time>
      </trkpt>
      <trkpt lat="50.8083" lon="1.61239">
        <ele>30.1</ele>
        <time>2020-06-22T18:38:55Z</time>
      </trkpt>
      <trkpt lat="50.80834" lon="1.61233">
        <ele>30.2</ele>
        <time>2020-06-22T18:38:56Z</time>
      </trkpt>
      <trkpt lat="50.80837" lon="1.61226">
        <ele>30.2</ele>
        <time>2020-06-22T18:38:57Z</time>
      </trkpt>
      <trkpt lat="50.8084" lon="1.61219">
        <ele>30.2</ele>
        <time>2020-06-22T18:38:58Z</time>
      </trkpt>
      <trkpt lat="50.80843" lon="1.61212">
        <ele>30.3</ele>
        <time>2020-06-22T18:38:59Z</time>
      </trkpt>
      <trkpt lat="50.80848" lon="1.61203">
        <ele>30.3</ele>
        <time>2020-06-22T18:39:00Z</time>
      </trkpt>
      <trkpt lat="50.80851" lon="1.61197">
        <ele>30.3</ele>
        <time>2020-06-22T18:39:01Z</time>
      </trkpt>
      <trkpt lat="50.80854" lon="1.6119">
        <ele>30.3</ele>
        <time>2020-06-22T18:39:02Z</time>
      </trkpt>
      <trkpt lat="50.80858" lon="1.61183">
        <ele>30.3</ele>
        <time>2020-06-22T18:39:03Z</time>
      </trkpt>
      <trkpt lat="50.80862" lon="1.61175">
        <ele>30.3</ele>
        <time>2020-06-22T18:39:04Z</time>
      </trkpt>
      <trkpt lat="50.80865" lon="1.61169">
        <ele>30.3</ele>
        <time>2020-06-22T18:39:05Z</time>
      </trkpt>
      <trkpt lat="50.80869" lon="1.61161">
        <ele>30.3</ele>
        <time>2020-06-22T18:39:06Z</time>
      </trkpt>
      <trkpt lat="50.80872" lon="1.61154">
        <ele>30.3</ele>
        <time>2020-06-22T18:39:07Z</time>
      </trkpt>
      <trkpt lat="50.80876" lon="1.61147">
        <ele>30.2</ele>
        <time>2020-06-22T18:39:08Z</time>
      </trkpt>
      <trkpt lat="50.80879" lon="1.6114">
        <ele>30.2</ele>
        <time>2020-06-22T18:39:09Z</time>
      </trkpt>
      <trkpt lat="50.80883" lon="1.61132">
        <ele>30.2</ele>
        <time>2020-06-22T18:39:10Z</time>
      </trkpt>
      <trkpt lat="50.80887" lon="1.61123">
        <ele>30.2</ele>
        <time>2020-06-22T18:39:11Z</time>
      </trkpt>
      <trkpt lat="50.8089" lon="1.61116">
        <ele>30.1</ele>
        <time>2020-06-22T18:39:12Z</time>
      </trkpt>
      <trkpt lat="50.80894" lon="1.61108">
        <ele>30.1</ele>
        <time>2020-06-22T18:39:13Z</time>
      </trkpt>
      <trkpt lat="50.80898" lon="1.61101">
        <ele>30.1</ele>
        <time>2020-06-22T18:39:14Z</time>
      </trkpt>
      <trkpt lat="50.80902" lon="1.61094">
        <ele>30</ele>
        <time>2020-06-22T18:39:15Z</time>
      </trkpt>
      <trkpt lat="50.80906" lon="1.61088">
        <ele>30</ele>
        <time>2020-06-22T18:39:16Z</time>
      </trkpt>
      <trkpt lat="50.8091" lon="1.6108">
        <ele>30</ele>
        <time>2020-06-22T18:39:17Z</time>
      </trkpt>
      <trkpt lat="50.80914" lon="1.61072">
        <ele>30</ele>
        <time>2020-06-22T18:39:18Z</time>
      </trkpt>
      <trkpt lat="50.80918" lon="1.61066">
        <ele>29.9</ele>
        <time>2020-06-22T18:39:19Z</time>
      </trkpt>
      <trkpt lat="50.80922" lon="1.61058">
        <ele>29.9</ele>
        <time>2020-06-22T18:39:20Z</time>
      </trkpt>
      <trkpt lat="50.80926" lon="1.6105">
        <ele>29.9</ele>
        <time>2020-06-22T18:39:21Z</time>
      </trkpt>
      <trkpt lat="50.8093" lon="1.61043">
        <ele>29.9</ele>
        <time>2020-06-22T18:39:22Z</time>
      </trkpt>
      <trkpt lat="50.80935" lon="1.61036">
        <ele>29.9</ele>
        <time>2020-06-22T18:39:23Z</time>
      </trkpt>
      <trkpt lat="50.8094" lon="1.61028">
        <ele>29.8</ele>
        <time>2020-06-22T18:39:24Z</time>
      </trkpt>
      <trkpt lat="50.80945" lon="1.61022">
        <ele>29.8</ele>
        <time>2020-06-22T18:39:25Z</time>
      </trkpt>
      <trkpt lat="50.8095" lon="1.61015">
        <ele>29.8</ele>
        <time>2020-06-22T18:39:26Z</time>
      </trkpt>
      <trkpt lat="50.80956" lon="1.61007">
        <ele>29.9</ele>
        <time>2020-06-22T18:39:27Z</time>
      </trkpt>
      <trkpt lat="50.80961" lon="1.61001">
        <ele>29.9</ele>
        <time>2020-06-22T18:39:28Z</time>
      </trkpt>
      <trkpt lat="50.80966" lon="1.60994">
        <ele>29.9</ele>
        <time>2020-06-22T18:39:29Z</time>
      </trkpt>
      <trkpt lat="50.80971" lon="1.60986">
        <ele>30</ele>
        <time>2020-06-22T18:39:30Z</time>
      </trkpt>
      <trkpt lat="50.80976" lon="1.60979">
        <ele>30.1</ele>
        <time>2020-06-22T18:39:31Z</time>
      </trkpt>
      <trkpt lat="50.80981" lon="1.60972">
        <ele>30.1</ele>
        <time>2020-06-22T18:39:32Z</time>
      </trkpt>
      <trkpt lat="50.80985" lon="1.60964">
        <ele>30.2</ele>
        <time>2020-06-22T18:39:33Z</time>
      </trkpt>
      <trkpt lat="50.8099" lon="1.60956">
        <ele>30.3</ele>
        <time>2020-06-22T18:39:34Z</time>
      </trkpt>
      <trkpt lat="50.80994" lon="1.60949">
        <ele>30.4</ele>
        <time>2020-06-22T18:39:35Z</time>
      </trkpt>
      <trkpt lat="50.80999" lon="1.60941">
        <ele>30.6</ele>
        <time>2020-06-22T18:39:36Z</time>
      </trkpt>
      <trkpt lat="50.81004" lon="1.60933">
        <ele>30.7</ele>
        <time>2020-06-22T18:39:37Z</time>
      </trkpt>
      <trkpt lat="50.81009" lon="1.60927">
        <ele>30.9</ele>
        <time>2020-06-22T18:39:38Z</time>
      </trkpt>
      <trkpt lat="50.81015" lon="1.60919">
        <ele>31</ele>
        <time>2020-06-22T18:39:39Z</time>
      </trkpt>
      <trkpt lat="50.81019" lon="1.60911">
        <ele>31.2</ele>
        <time>2020-06-22T18:39:40Z</time>
      </trkpt>
      <trkpt lat="50.81024" lon="1.60904">
        <ele>31.3</ele>
        <time>2020-06-22T18:39:41Z</time>
      </trkpt>
      <trkpt lat="50.81028" lon="1.60897">
        <ele>31.4</ele>
        <time>2020-06-22T18:39:42Z</time>
      </trkpt>
      <trkpt lat="50.81032" lon="1.60891">
        <ele>31.6</ele>
        <time>2020-06-22T18:39:43Z</time>
      </trkpt>
      <trkpt lat="50.81036" lon="1.60883">
        <ele>31.7</ele>
        <time>2020-06-22T18:39:44Z</time>
      </trkpt>
      <trkpt lat="50.81039" lon="1.60877">
        <ele>31.7</ele>
        <time>2020-06-22T18:39:45Z</time>
      </trkpt>
      <trkpt lat="50.81042" lon="1.60872">
        <ele>31.8</ele>
        <time>2020-06-22T18:39:46Z</time>
      </trkpt>
      <trkpt lat="50.81045" lon="1.60866">
        <ele>31.8</ele>
        <time>2020-06-22T18:39:47Z</time>
      </trkpt>
      <trkpt lat="50.81049" lon="1.6086">
        <ele>31.8</ele>
        <time>2020-06-22T18:39:48Z</time>
      </trkpt>
      <trkpt lat="50.81053" lon="1.60854">
        <ele>31.8</ele>
        <time>2020-06-22T18:39:49Z</time>
      </trkpt>
      <trkpt lat="50.81057" lon="1.6085">
        <ele>31.8</ele>
        <time>2020-06-22T18:39:50Z</time>
      </trkpt>
      <trkpt lat="50.81061" lon="1.60843">
        <ele>31.7</ele>
        <time>2020-06-22T18:39:51Z</time>
      </trkpt>
      <trkpt lat="50.81066" lon="1.60837">
        <ele>31.7</ele>
        <time>2020-06-22T18:39:52Z</time>
      </trkpt>
      <trkpt lat="50.8107" lon="1.6083">
        <ele>31.6</ele>
        <time>2020-06-22T18:39:53Z</time>
      </trkpt>
      <trkpt lat="50.81075" lon="1.60824">
        <ele>31.5</ele>
        <time>2020-06-22T18:39:54Z</time>
      </trkpt>
      <trkpt lat="50.81079" lon="1.60819">
        <ele>31.4</ele>
        <time>2020-06-22T18:39:55Z</time>
      </trkpt>
      <trkpt lat="50.81084" lon="1.60812">
        <ele>31.3</ele>
        <time>2020-06-22T18:39:56Z</time>
      </trkpt>
      <trkpt lat="50.8109" lon="1.60804">
        <ele>31.2</ele>
        <time>2020-06-22T18:39:57Z</time>
      </trkpt>
      <trkpt lat="50.81094" lon="1.60799">
        <ele>31.2</ele>
        <time>2020-06-22T18:39:58Z</time>
      </trkpt>
      <trkpt lat="50.811" lon="1.60793">
        <ele>31.1</ele>
        <time>2020-06-22T18:39:59Z</time>
      </trkpt>
      <trkpt lat="50.81105" lon="1.60788">
        <ele>31</ele>
        <time>2020-06-22T18:40:00Z</time>
      </trkpt>
      <trkpt lat="50.8111" lon="1.60782">
        <ele>31</ele>
        <time>2020-06-22T18:40:01Z</time>
      </trkpt>
      <trkpt lat="50.81115" lon="1.60775">
        <ele>30.9</ele>
        <time>2020-06-22T18:40:02Z</time>
      </trkpt>
      <trkpt lat="50.81119" lon="1.60769">
        <ele>30.9</ele>
        <time>2020-06-22T18:40:03Z</time>
      </trkpt>
      <trkpt lat="50.81123" lon="1.60762">
        <ele>30.8</ele>
        <time>2020-06-22T18:40:04Z</time>
      </trkpt>
      <trkpt lat="50.81128" lon="1.60756">
        <ele>30.7</ele>
        <time>2020-06-22T18:40:05Z</time>
      </trkpt>
      <trkpt lat="50.81131" lon="1.60749">
        <ele>30.7</ele>
        <time>2020-06-22T18:40:06Z</time>
      </trkpt>
      <trkpt lat="50.81135" lon="1.60745">
        <ele>30.7</ele>
        <time>2020-06-22T18:40:07Z</time>
      </trkpt>
      <trkpt lat="50.8114" lon="1.60742">
        <ele>30.7</ele>
        <time>2020-06-22T18:40:08Z</time>
      </trkpt>
      <trkpt lat="50.81143" lon="1.60739">
        <ele>30.7</ele>
        <time>2020-06-22T18:40:09Z</time>
      </trkpt>
      <trkpt lat="50.81147" lon="1.60737">
        <ele>30.7</ele>
        <time>2020-06-22T18:40:10Z</time>
      </trkpt>
      <trkpt lat="50.8115" lon="1.60734">
        <ele>30.6</ele>
        <time>2020-06-22T18:40:11Z</time>
      </trkpt>
      <trkpt lat="50.81153" lon="1.60732">
        <ele>30.6</ele>
        <time>2020-06-22T18:40:12Z</time>
      </trkpt>
      <trkpt lat="50.81155" lon="1.60729">
        <ele>30.6</ele>
        <time>2020-06-22T18:40:13Z</time>
      </trkpt>
      <trkpt lat="50.81158" lon="1.60726">
        <ele>30.5</ele>
        <time>2020-06-22T18:40:14Z</time>
      </trkpt>
      <trkpt lat="50.8116" lon="1.60725">
        <ele>30.5</ele>
        <time>2020-06-22T18:40:15Z</time>
      </trkpt>
      <trkpt lat="50.81163" lon="1.60723">
        <ele>30.5</ele>
        <time>2020-06-22T18:40:16Z</time>
      </trkpt>
      <trkpt lat="50.81166" lon="1.60721">
        <ele>30.4</ele>
        <time>2020-06-22T18:40:17Z</time>
      </trkpt>
      <trkpt lat="50.8117" lon="1.60717">
        <ele>30.4</ele>
        <time>2020-06-22T18:40:18Z</time>
      </trkpt>
      <trkpt lat="50.81173" lon="1.60714">
        <ele>30.3</ele>
        <time>2020-06-22T18:40:19Z</time>
      </trkpt>
      <trkpt lat="50.81176" lon="1.60711">
        <ele>30.3</ele>
        <time>2020-06-22T18:40:20Z</time>
      </trkpt>
      <trkpt lat="50.8118" lon="1.60706">
        <ele>30.3</ele>
        <time>2020-06-22T18:40:21Z</time>
      </trkpt>
      <trkpt lat="50.81184" lon="1.60703">
        <ele>30.2</ele>
        <time>2020-06-22T18:40:22Z</time>
      </trkpt>
      <trkpt lat="50.81187" lon="1.607">
        <ele>30.2</ele>
        <time>2020-06-22T18:40:23Z</time>
      </trkpt>
      <trkpt lat="50.81191" lon="1.60698">
        <ele>30.2</ele>
        <time>2020-06-22T18:40:24Z</time>
      </trkpt>
      <trkpt lat="50.81195" lon="1.60694">
        <ele>30.1</ele>
        <time>2020-06-22T18:40:25Z</time>
      </trkpt>
      <trkpt lat="50.81201" lon="1.6069">
        <ele>30</ele>
        <time>2020-06-22T18:40:26Z</time>
      </trkpt>
      <trkpt lat="50.81205" lon="1.60687">
        <ele>30</ele>
        <time>2020-06-22T18:40:27Z</time>
      </trkpt>
      <trkpt lat="50.81208" lon="1.60684">
        <ele>30</ele>
        <time>2020-06-22T18:40:28Z</time>
      </trkpt>
      <trkpt lat="50.81211" lon="1.60681">
        <ele>29.9</ele>
        <time>2020-06-22T18:40:29Z</time>
      </trkpt>
      <trkpt lat="50.81216" lon="1.60678">
        <ele>29.8</ele>
        <time>2020-06-22T18:40:30Z</time>
      </trkpt>
      <trkpt lat="50.8122" lon="1.60675">
        <ele>29.8</ele>
        <time>2020-06-22T18:40:31Z</time>
      </trkpt>
      <trkpt lat="50.81223" lon="1.60671">
        <ele>29.7</ele>
        <time>2020-06-22T18:40:32Z</time>
      </trkpt>
      <trkpt lat="50.81227" lon="1.60667">
        <ele>29.6</ele>
        <time>2020-06-22T18:40:33Z</time>
      </trkpt>
      <trkpt lat="50.81231" lon="1.60663">
        <ele>29.6</ele>
        <time>2020-06-22T18:40:34Z</time>
      </trkpt>
      <trkpt lat="50.81235" lon="1.60658">
        <ele>29.4</ele>
        <time>2020-06-22T18:40:35Z</time>
      </trkpt>
      <trkpt lat="50.81239" lon="1.60653">
        <ele>29.3</ele>
        <time>2020-06-22T18:40:36Z</time>
      </trkpt>
      <trkpt lat="50.81244" lon="1.60649">
        <ele>29.2</ele>
        <time>2020-06-22T18:40:37Z</time>
      </trkpt>
      <trkpt lat="50.81248" lon="1.60645">
        <ele>29.1</ele>
        <time>2020-06-22T18:40:38Z</time>
      </trkpt>
      <trkpt lat="50.81251" lon="1.60642">
        <ele>28.9</ele>
        <time>2020-06-22T18:40:39Z</time>
      </trkpt>
      <trkpt lat="50.81255" lon="1.60638">
        <ele>28.8</ele>
        <time>2020-06-22T18:40:40Z</time>
      </trkpt>
      <trkpt lat="50.8126" lon="1.60633">
        <ele>28.6</ele>
        <time>2020-06-22T18:40:41Z</time>
      </trkpt>
      <trkpt lat="50.81265" lon="1.60627">
        <ele>28.4</ele>
        <time>2020-06-22T18:40:42Z</time>
      </trkpt>
      <trkpt lat="50.8127" lon="1.60622">
        <ele>28.2</ele>
        <time>2020-06-22T18:40:43Z</time>
      </trkpt>
      <trkpt lat="50.81276" lon="1.60616">
        <ele>28</ele>
        <time>2020-06-22T18:40:44Z</time>
      </trkpt>
      <trkpt lat="50.81281" lon="1.60611">
        <ele>27.8</ele>
        <time>2020-06-22T18:40:45Z</time>
      </trkpt>
      <trkpt lat="50.81287" lon="1.60606">
        <ele>27.5</ele>
        <time>2020-06-22T18:40:46Z</time>
      </trkpt>
      <trkpt lat="50.81292" lon="1.60601">
        <ele>27.3</ele>
        <time>2020-06-22T18:40:47Z</time>
      </trkpt>
      <trkpt lat="50.81298" lon="1.60596">
        <ele>27</ele>
        <time>2020-06-22T18:40:48Z</time>
      </trkpt>
      <trkpt lat="50.81304" lon="1.60591">
        <ele>26.8</ele>
        <time>2020-06-22T18:40:49Z</time>
      </trkpt>
      <trkpt lat="50.8131" lon="1.60586">
        <ele>26.5</ele>
        <time>2020-06-22T18:40:50Z</time>
      </trkpt>
      <trkpt lat="50.81316" lon="1.60581">
        <ele>26.3</ele>
        <time>2020-06-22T18:40:51Z</time>
      </trkpt>
      <trkpt lat="50.81322" lon="1.60576">
        <ele>26</ele>
        <time>2020-06-22T18:40:52Z</time>
      </trkpt>
      <trkpt lat="50.81327" lon="1.60572">
        <ele>25.8</ele>
        <time>2020-06-22T18:40:53Z</time>
      </trkpt>
      <trkpt lat="50.81333" lon="1.60566">
        <ele>25.6</ele>
        <time>2020-06-22T18:40:54Z</time>
      </trkpt>
      <trkpt lat="50.81339" lon="1.60561">
        <ele>25.4</ele>
        <time>2020-06-22T18:40:55Z</time>
      </trkpt>
      <trkpt lat="50.81345" lon="1.60556">
        <ele>25.2</ele>
        <time>2020-06-22T18:40:56Z</time>
      </trkpt>
      <trkpt lat="50.8135" lon="1.60551">
        <ele>25</ele>
        <time>2020-06-22T18:40:57Z</time>
      </trkpt>
      <trkpt lat="50.81356" lon="1.60547">
        <ele>24.7</ele>
        <time>2020-06-22T18:40:58Z</time>
      </trkpt>
      <trkpt lat="50.81363" lon="1.60541">
        <ele>24.5</ele>
        <time>2020-06-22T18:40:59Z</time>
      </trkpt>
      <trkpt lat="50.81368" lon="1.60536">
        <ele>24.3</ele>
        <time>2020-06-22T18:41:00Z</time>
      </trkpt>
      <trkpt lat="50.81373" lon="1.6053">
        <ele>24.1</ele>
        <time>2020-06-22T18:41:01Z</time>
      </trkpt>
      <trkpt lat="50.81379" lon="1.60524">
        <ele>23.9</ele>
        <time>2020-06-22T18:41:02Z</time>
      </trkpt>
      <trkpt lat="50.81385" lon="1.60518">
        <ele>23.7</ele>
        <time>2020-06-22T18:41:03Z</time>
      </trkpt>
      <trkpt lat="50.81391" lon="1.60512">
        <ele>23.6</ele>
        <time>2020-06-22T18:41:04Z</time>
      </trkpt>
      <trkpt lat="50.81398" lon="1.60507">
        <ele>23.4</ele>
        <time>2020-06-22T18:41:05Z</time>
      </trkpt>
      <trkpt lat="50.81404" lon="1.60501">
        <ele>23.2</ele>
        <time>2020-06-22T18:41:06Z</time>
      </trkpt>
      <trkpt lat="50.81411" lon="1.60496">
        <ele>23.1</ele>
        <time>2020-06-22T18:41:07Z</time>
      </trkpt>
      <trkpt lat="50.81417" lon="1.6049">
        <ele>23</ele>
        <time>2020-06-22T18:41:08Z</time>
      </trkpt>
      <trkpt lat="50.81423" lon="1.60485">
        <ele>22.9</ele>
        <time>2020-06-22T18:41:09Z</time>
      </trkpt>
      <trkpt lat="50.81429" lon="1.60479">
        <ele>22.9</ele>
        <time>2020-06-22T18:41:10Z</time>
      </trkpt>
      <trkpt lat="50.81436" lon="1.60474">
        <ele>22.8</ele>
        <time>2020-06-22T18:41:11Z</time>
      </trkpt>
      <trkpt lat="50.81442" lon="1.60468">
        <ele>22.7</ele>
        <time>2020-06-22T18:41:12Z</time>
      </trkpt>
      <trkpt lat="50.81448" lon="1.60462">
        <ele>22.6</ele>
        <time>2020-06-22T18:41:13Z</time>
      </trkpt>
      <trkpt lat="50.81454" lon="1.60455">
        <ele>22.5</ele>
        <time>2020-06-22T18:41:14Z</time>
      </trkpt>
      <trkpt lat="50.8146" lon="1.60449">
        <ele>22.4</ele>
        <time>2020-06-22T18:41:15Z</time>
      </trkpt>
      <trkpt lat="50.81466" lon="1.60443">
        <ele>22.4</ele>
        <time>2020-06-22T18:41:16Z</time>
      </trkpt>
      <trkpt lat="50.81473" lon="1.60438">
        <ele>22.3</ele>
        <time>2020-06-22T18:41:17Z</time>
      </trkpt>
      <trkpt lat="50.81479" lon="1.60432">
        <ele>22.3</ele>
        <time>2020-06-22T18:41:18Z</time>
      </trkpt>
      <trkpt lat="50.81485" lon="1.60426">
        <ele>22.2</ele>
        <time>2020-06-22T18:41:19Z</time>
      </trkpt>
      <trkpt lat="50.81492" lon="1.60422">
        <ele>22.1</ele>
        <time>2020-06-22T18:41:20Z</time>
      </trkpt>
      <trkpt lat="50.81498" lon="1.60416">
        <ele>22.1</ele>
        <time>2020-06-22T18:41:21Z</time>
      </trkpt>
      <trkpt lat="50.81504" lon="1.60411">
        <ele>22</ele>
        <time>2020-06-22T18:41:22Z</time>
      </trkpt>
      <trkpt lat="50.81511" lon="1.60404">
        <ele>21.8</ele>
        <time>2020-06-22T18:41:23Z</time>
      </trkpt>
      <trkpt lat="50.81517" lon="1.60398">
        <ele>21.6</ele>
        <time>2020-06-22T18:41:24Z</time>
      </trkpt>
      <trkpt lat="50.81523" lon="1.60393">
        <ele>21.4</ele>
        <time>2020-06-22T18:41:25Z</time>
      </trkpt>
      <trkpt lat="50.81528" lon="1.60387">
        <ele>21.2</ele>
        <time>2020-06-22T18:41:26Z</time>
      </trkpt>
      <trkpt lat="50.81534" lon="1.60381">
        <ele>21.1</ele>
        <time>2020-06-22T18:41:27Z</time>
      </trkpt>
      <trkpt lat="50.8154" lon="1.60376">
        <ele>21</ele>
        <time>2020-06-22T18:41:28Z</time>
      </trkpt>
      <trkpt lat="50.81546" lon="1.6037">
        <ele>20.9</ele>
        <time>2020-06-22T18:41:29Z</time>
      </trkpt>
      <trkpt lat="50.81552" lon="1.60365">
        <ele>20.9</ele>
        <time>2020-06-22T18:41:30Z</time>
      </trkpt>
      <trkpt lat="50.81558" lon="1.6036">
        <ele>20.8</ele>
        <time>2020-06-22T18:41:31Z</time>
      </trkpt>
      <trkpt lat="50.81563" lon="1.60354">
        <ele>20.7</ele>
        <time>2020-06-22T18:41:32Z</time>
      </trkpt>
      <trkpt lat="50.81569" lon="1.60348">
        <ele>20.7</ele>
        <time>2020-06-22T18:41:33Z</time>
      </trkpt>
      <trkpt lat="50.81575" lon="1.60343">
        <ele>20.6</ele>
        <time>2020-06-22T18:41:34Z</time>
      </trkpt>
      <trkpt lat="50.81581" lon="1.60338">
        <ele>20.5</ele>
        <time>2020-06-22T18:41:35Z</time>
      </trkpt>
      <trkpt lat="50.81587" lon="1.60332">
        <ele>20.5</ele>
        <time>2020-06-22T18:41:36Z</time>
      </trkpt>
      <trkpt lat="50.81593" lon="1.60327">
        <ele>20.4</ele>
        <time>2020-06-22T18:41:37Z</time>
      </trkpt>
      <trkpt lat="50.81599" lon="1.60322">
        <ele>20.4</ele>
        <time>2020-06-22T18:41:38Z</time>
      </trkpt>
      <trkpt lat="50.81605" lon="1.60316">
        <ele>20.3</ele>
        <time>2020-06-22T18:41:39Z</time>
      </trkpt>
      <trkpt lat="50.8161" lon="1.6031">
        <ele>20.3</ele>
        <time>2020-06-22T18:41:40Z</time>
      </trkpt>
      <trkpt lat="50.81616" lon="1.60305">
        <ele>20.3</ele>
        <time>2020-06-22T18:41:41Z</time>
      </trkpt>
      <trkpt lat="50.81622" lon="1.60299">
        <ele>20.3</ele>
        <time>2020-06-22T18:41:42Z</time>
      </trkpt>
      <trkpt lat="50.81628" lon="1.60294">
        <ele>20.3</ele>
        <time>2020-06-22T18:41:43Z</time>
      </trkpt>
      <trkpt lat="50.81633" lon="1.60288">
        <ele>20.3</ele>
        <time>2020-06-22T18:41:44Z</time>
      </trkpt>
      <trkpt lat="50.81638" lon="1.60281">
        <ele>20.2</ele>
        <time>2020-06-22T18:41:45Z</time>
      </trkpt>
      <trkpt lat="50.81643" lon="1.60275">
        <ele>20.2</ele>
        <time>2020-06-22T18:41:46Z</time>
      </trkpt>
      <trkpt lat="50.81648" lon="1.60268">
        <ele>20.1</ele>
        <time>2020-06-22T18:41:47Z</time>
      </trkpt>
      <trkpt lat="50.81653" lon="1.60261">
        <ele>20.1</ele>
        <time>2020-06-22T18:41:48Z</time>
      </trkpt>
      <trkpt lat="50.81658" lon="1.60254">
        <ele>20.1</ele>
        <time>2020-06-22T18:41:49Z</time>
      </trkpt>
      <trkpt lat="50.81663" lon="1.60247">
        <ele>20.1</ele>
        <time>2020-06-22T18:41:50Z</time>
      </trkpt>
      <trkpt lat="50.81667" lon="1.60239">
        <ele>20</ele>
        <time>2020-06-22T18:41:51Z</time>
      </trkpt>
      <trkpt lat="50.81672" lon="1.60231">
        <ele>20</ele>
        <time>2020-06-22T18:41:52Z</time>
      </trkpt>
      <trkpt lat="50.81675" lon="1.60223">
        <ele>20</ele>
        <time>2020-06-22T18:41:53Z</time>
      </trkpt>
      <trkpt lat="50.81679" lon="1.60215">
        <ele>20</ele>
        <time>2020-06-22T18:41:54Z</time>
      </trkpt>
      <trkpt lat="50.81683" lon="1.60207">
        <ele>20</ele>
        <time>2020-06-22T18:41:55Z</time>
      </trkpt>
      <trkpt lat="50.81687" lon="1.60198">
        <ele>20</ele>
        <time>2020-06-22T18:41:56Z</time>
      </trkpt>
      <trkpt lat="50.81691" lon="1.6019">
        <ele>20</ele>
        <time>2020-06-22T18:41:57Z</time>
      </trkpt>
      <trkpt lat="50.81695" lon="1.60182">
        <ele>19.9</ele>
        <time>2020-06-22T18:41:58Z</time>
      </trkpt>
      <trkpt lat="50.81699" lon="1.60174">
        <ele>19.9</ele>
        <time>2020-06-22T18:41:59Z</time>
      </trkpt>
      <trkpt lat="50.81703" lon="1.60166">
        <ele>19.8</ele>
        <time>2020-06-22T18:42:00Z</time>
      </trkpt>
      <trkpt lat="50.81707" lon="1.60157">
        <ele>19.8</ele>
        <time>2020-06-22T18:42:01Z</time>
      </trkpt>
      <trkpt lat="50.81711" lon="1.60148">
        <ele>19.7</ele>
        <time>2020-06-22T18:42:02Z</time>
      </trkpt>
      <trkpt lat="50.81714" lon="1.60139">
        <ele>19.7</ele>
        <time>2020-06-22T18:42:03Z</time>
      </trkpt>
      <trkpt lat="50.81718" lon="1.6013">
        <ele>19.7</ele>
        <time>2020-06-22T18:42:04Z</time>
      </trkpt>
      <trkpt lat="50.81722" lon="1.60121">
        <ele>19.6</ele>
        <time>2020-06-22T18:42:05Z</time>
      </trkpt>
      <trkpt lat="50.81725" lon="1.60113">
        <ele>19.6</ele>
        <time>2020-06-22T18:42:06Z</time>
      </trkpt>
      <trkpt lat="50.81729" lon="1.60105">
        <ele>19.5</ele>
        <time>2020-06-22T18:42:07Z</time>
      </trkpt>
      <trkpt lat="50.81733" lon="1.60097">
        <ele>19.4</ele>
        <time>2020-06-22T18:42:08Z</time>
      </trkpt>
      <trkpt lat="50.81737" lon="1.60089">
        <ele>19.3</ele>
        <time>2020-06-22T18:42:09Z</time>
      </trkpt>
      <trkpt lat="50.8174" lon="1.60081">
        <ele>19.2</ele>
        <time>2020-06-22T18:42:10Z</time>
      </trkpt>
      <trkpt lat="50.81744" lon="1.60074">
        <ele>19.2</ele>
        <time>2020-06-22T18:42:11Z</time>
      </trkpt>
      <trkpt lat="50.81748" lon="1.60067">
        <ele>19.2</ele>
        <time>2020-06-22T18:42:12Z</time>
      </trkpt>
      <trkpt lat="50.81751" lon="1.60059">
        <ele>19.1</ele>
        <time>2020-06-22T18:42:13Z</time>
      </trkpt>
      <trkpt lat="50.81755" lon="1.60053">
        <ele>19.1</ele>
        <time>2020-06-22T18:42:14Z</time>
      </trkpt>
      <trkpt lat="50.81758" lon="1.60046">
        <ele>19.1</ele>
        <time>2020-06-22T18:42:15Z</time>
      </trkpt>
      <trkpt lat="50.81761" lon="1.60039">
        <ele>19</ele>
        <time>2020-06-22T18:42:16Z</time>
      </trkpt>
      <trkpt lat="50.81765" lon="1.60033">
        <ele>19</ele>
        <time>2020-06-22T18:42:17Z</time>
      </trkpt>
      <trkpt lat="50.81768" lon="1.60026">
        <ele>19</ele>
        <time>2020-06-22T18:42:18Z</time>
      </trkpt>
      <trkpt lat="50.81771" lon="1.60019">
        <ele>19</ele>
        <time>2020-06-22T18:42:19Z</time>
      </trkpt>
      <trkpt lat="50.81775" lon="1.60013">
        <ele>18.9</ele>
        <time>2020-06-22T18:42:20Z</time>
      </trkpt>
      <trkpt lat="50.81778" lon="1.60006">
        <ele>18.9</ele>
        <time>2020-06-22T18:42:21Z</time>
      </trkpt>
      <trkpt lat="50.81781" lon="1.59999">
        <ele>18.9</ele>
        <time>2020-06-22T18:42:22Z</time>
      </trkpt>
      <trkpt lat="50.81784" lon="1.59991">
        <ele>18.8</ele>
        <time>2020-06-22T18:42:23Z</time>
      </trkpt>
      <trkpt lat="50.81787" lon="1.59983">
        <ele>18.8</ele>
        <time>2020-06-22T18:42:24Z</time>
      </trkpt>
      <trkpt lat="50.8179" lon="1.59976">
        <ele>18.7</ele>
        <time>2020-06-22T18:42:25Z</time>
      </trkpt>
      <trkpt lat="50.81794" lon="1.59968">
        <ele>18.7</ele>
        <time>2020-06-22T18:42:26Z</time>
      </trkpt>
      <trkpt lat="50.81797" lon="1.59961">
        <ele>18.7</ele>
        <time>2020-06-22T18:42:27Z</time>
      </trkpt>
      <trkpt lat="50.818" lon="1.59953">
        <ele>18.7</ele>
        <time>2020-06-22T18:42:28Z</time>
      </trkpt>
      <trkpt lat="50.81803" lon="1.59945">
        <ele>18.6</ele>
        <time>2020-06-22T18:42:29Z</time>
      </trkpt>
      <trkpt lat="50.81807" lon="1.59938">
        <ele>18.5</ele>
        <time>2020-06-22T18:42:30Z</time>
      </trkpt>
      <trkpt lat="50.81811" lon="1.59931">
        <ele>18.4</ele>
        <time>2020-06-22T18:42:31Z</time>
      </trkpt>
      <trkpt lat="50.81815" lon="1.59924">
        <ele>18.3</ele>
        <time>2020-06-22T18:42:32Z</time>
      </trkpt>
      <trkpt lat="50.81819" lon="1.59916">
        <ele>18.2</ele>
        <time>2020-06-22T18:42:33Z</time>
      </trkpt>
      <trkpt lat="50.81823" lon="1.59909">
        <ele>18.1</ele>
        <time>2020-06-22T18:42:34Z</time>
      </trkpt>
      <trkpt lat="50.81828" lon="1.59902">
        <ele>18</ele>
        <time>2020-06-22T18:42:35Z</time>
      </trkpt>
      <trkpt lat="50.81832" lon="1.59895">
        <ele>17.9</ele>
        <time>2020-06-22T18:42:36Z</time>
      </trkpt>
      <trkpt lat="50.81836" lon="1.59887">
        <ele>17.9</ele>
        <time>2020-06-22T18:42:37Z</time>
      </trkpt>
      <trkpt lat="50.81841" lon="1.59879">
        <ele>17.8</ele>
        <time>2020-06-22T18:42:38Z</time>
      </trkpt>
      <trkpt lat="50.81845" lon="1.59872">
        <ele>17.7</ele>
        <time>2020-06-22T18:42:39Z</time>
      </trkpt>
      <trkpt lat="50.8185" lon="1.59864">
        <ele>17.6</ele>
        <time>2020-06-22T18:42:40Z</time>
      </trkpt>
      <trkpt lat="50.81855" lon="1.59857">
        <ele>17.5</ele>
        <time>2020-06-22T18:42:41Z</time>
      </trkpt>
      <trkpt lat="50.8186" lon="1.5985">
        <ele>17.3</ele>
        <time>2020-06-22T18:42:42Z</time>
      </trkpt>
      <trkpt lat="50.81865" lon="1.59842">
        <ele>17.2</ele>
        <time>2020-06-22T18:42:43Z</time>
      </trkpt>
      <trkpt lat="50.8187" lon="1.59834">
        <ele>17.1</ele>
        <time>2020-06-22T18:42:44Z</time>
      </trkpt>
      <trkpt lat="50.81874" lon="1.59826">
        <ele>16.9</ele>
        <time>2020-06-22T18:42:45Z</time>
      </trkpt>
      <trkpt lat="50.81879" lon="1.59819">
        <ele>16.8</ele>
        <time>2020-06-22T18:42:46Z</time>
      </trkpt>
      <trkpt lat="50.81883" lon="1.59811">
        <ele>16.6</ele>
        <time>2020-06-22T18:42:47Z</time>
      </trkpt>
      <trkpt lat="50.81888" lon="1.59803">
        <ele>16.5</ele>
        <time>2020-06-22T18:42:48Z</time>
      </trkpt>
      <trkpt lat="50.81892" lon="1.59796">
        <ele>16.4</ele>
        <time>2020-06-22T18:42:49Z</time>
      </trkpt>
      <trkpt lat="50.81897" lon="1.59789">
        <ele>16.2</ele>
        <time>2020-06-22T18:42:50Z</time>
      </trkpt>
      <trkpt lat="50.81902" lon="1.59782">
        <ele>16.1</ele>
        <time>2020-06-22T18:42:51Z</time>
      </trkpt>
      <trkpt lat="50.81906" lon="1.59774">
        <ele>16</ele>
        <time>2020-06-22T18:42:52Z</time>
      </trkpt>
      <trkpt lat="50.81911" lon="1.59767">
        <ele>15.8</ele>
        <time>2020-06-22T18:42:53Z</time>
      </trkpt>
      <trkpt lat="50.81915" lon="1.5976">
        <ele>15.7</ele>
        <time>2020-06-22T18:42:54Z</time>
      </trkpt>
      <trkpt lat="50.8192" lon="1.59752">
        <ele>15.6</ele>
        <time>2020-06-22T18:42:55Z</time>
      </trkpt>
      <trkpt lat="50.81924" lon="1.59744">
        <ele>15.4</ele>
        <time>2020-06-22T18:42:56Z</time>
      </trkpt>
      <trkpt lat="50.81929" lon="1.59737">
        <ele>15.3</ele>
        <time>2020-06-22T18:42:57Z</time>
      </trkpt>
      <trkpt lat="50.81933" lon="1.5973">
        <ele>15.2</ele>
        <time>2020-06-22T18:42:58Z</time>
      </trkpt>
      <trkpt lat="50.81938" lon="1.59723">
        <ele>15.1</ele>
        <time>2020-06-22T18:42:59Z</time>
      </trkpt>
      <trkpt lat="50.81943" lon="1.59716">
        <ele>14.9</ele>
        <time>2020-06-22T18:43:00Z</time>
      </trkpt>
      <trkpt lat="50.81947" lon="1.5971">
        <ele>14.9</ele>
        <time>2020-06-22T18:43:01Z</time>
      </trkpt>
      <trkpt lat="50.81952" lon="1.59703">
        <ele>14.8</ele>
        <time>2020-06-22T18:43:02Z</time>
      </trkpt>
      <trkpt lat="50.81956" lon="1.59697">
        <ele>14.6</ele>
        <time>2020-06-22T18:43:03Z</time>
      </trkpt>
      <trkpt lat="50.81961" lon="1.5969">
        <ele>14.4</ele>
        <time>2020-06-22T18:43:04Z</time>
      </trkpt>
      <trkpt lat="50.81965" lon="1.59683">
        <ele>14.2</ele>
        <time>2020-06-22T18:43:05Z</time>
      </trkpt>
      <trkpt lat="50.81969" lon="1.59676">
        <ele>14</ele>
        <time>2020-06-22T18:43:06Z</time>
      </trkpt>
      <trkpt lat="50.81973" lon="1.59668">
        <ele>13.8</ele>
        <time>2020-06-22T18:43:07Z</time>
      </trkpt>
      <trkpt lat="50.81978" lon="1.59661">
        <ele>13.5</ele>
        <time>2020-06-22T18:43:08Z</time>
      </trkpt>
      <trkpt lat="50.81982" lon="1.59654">
        <ele>13.1</ele>
        <time>2020-06-22T18:43:09Z</time>
      </trkpt>
      <trkpt lat="50.81987" lon="1.59647">
        <ele>12.8</ele>
        <time>2020-06-22T18:43:10Z</time>
      </trkpt>
      <trkpt lat="50.81993" lon="1.59641">
        <ele>12.4</ele>
        <time>2020-06-22T18:43:11Z</time>
      </trkpt>
      <trkpt lat="50.81998" lon="1.59633">
        <ele>11.9</ele>
        <time>2020-06-22T18:43:12Z</time>
      </trkpt>
      <trkpt lat="50.82003" lon="1.59626">
        <ele>11.4</ele>
        <time>2020-06-22T18:43:13Z</time>
      </trkpt>
      <trkpt lat="50.82009" lon="1.59619">
        <ele>10.9</ele>
        <time>2020-06-22T18:43:14Z</time>
      </trkpt>
      <trkpt lat="50.82015" lon="1.59611">
        <ele>10.3</ele>
        <time>2020-06-22T18:43:15Z</time>
      </trkpt>
      <trkpt lat="50.82022" lon="1.59604">
        <ele>9.6</ele>
        <time>2020-06-22T18:43:16Z</time>
      </trkpt>
      <trkpt lat="50.82029" lon="1.59597">
        <ele>8.3</ele>
        <time>2020-06-22T18:43:17Z</time>
      </trkpt>
      <trkpt lat="50.82037" lon="1.59589">
        <ele>7.7</ele>
        <time>2020-06-22T18:43:18Z</time>
      </trkpt>
      <trkpt lat="50.82045" lon="1.59582">
        <ele>7.5</ele>
        <time>2020-06-22T18:43:19Z</time>
      </trkpt>
      <trkpt lat="50.82053" lon="1.59576">
        <ele>7.3</ele>
        <time>2020-06-22T18:43:20Z</time>
      </trkpt>
      <trkpt lat="50.82062" lon="1.59569">
        <ele>7.3</ele>
        <time>2020-06-22T18:43:21Z</time>
      </trkpt>
      <trkpt lat="50.8207" lon="1.59562">
        <ele>7.2</ele>
        <time>2020-06-22T18:43:22Z</time>
      </trkpt>
      <trkpt lat="50.82079" lon="1.59556">
        <ele>6.9</ele>
        <time>2020-06-22T18:43:23Z</time>
      </trkpt>
      <trkpt lat="50.82085" lon="1.59547">
        <ele>6.6</ele>
        <time>2020-06-22T18:43:24Z</time>
      </trkpt>
      <trkpt lat="50.82092" lon="1.59537">
        <ele>6.4</ele>
        <time>2020-06-22T18:43:25Z</time>
      </trkpt>
      <trkpt lat="50.82097" lon="1.59528">
        <ele>6.2</ele>
        <time>2020-06-22T18:43:26Z</time>
      </trkpt>
      <trkpt lat="50.82104" lon="1.59519">
        <ele>6</ele>
        <time>2020-06-22T18:43:27Z</time>
      </trkpt>
      <trkpt lat="50.8211" lon="1.5951">
        <ele>5.9</ele>
        <time>2020-06-22T18:43:28Z</time>
      </trkpt>
      <trkpt lat="50.82115" lon="1.59501">
        <ele>5.8</ele>
        <time>2020-06-22T18:43:29Z</time>
      </trkpt>
      <trkpt lat="50.82121" lon="1.59494">
        <ele>5.7</ele>
        <time>2020-06-22T18:43:30Z</time>
      </trkpt>
      <trkpt lat="50.82126" lon="1.59485">
        <ele>5.6</ele>
        <time>2020-06-22T18:43:31Z</time>
      </trkpt>
      <trkpt lat="50.82131" lon="1.59477">
        <ele>5.6</ele>
        <time>2020-06-22T18:43:32Z</time>
      </trkpt>
      <trkpt lat="50.82136" lon="1.59469">
        <ele>5.6</ele>
        <time>2020-06-22T18:43:33Z</time>
      </trkpt>
      <trkpt lat="50.82141" lon="1.59462">
        <ele>5.6</ele>
        <time>2020-06-22T18:43:34Z</time>
      </trkpt>
      <trkpt lat="50.82146" lon="1.59455">
        <ele>5.6</ele>
        <time>2020-06-22T18:43:35Z</time>
      </trkpt>
      <trkpt lat="50.82151" lon="1.59449">
        <ele>5.6</ele>
        <time>2020-06-22T18:43:36Z</time>
      </trkpt>
      <trkpt lat="50.82157" lon="1.59443">
        <ele>5.7</ele>
        <time>2020-06-22T18:43:37Z</time>
      </trkpt>
      <trkpt lat="50.82162" lon="1.59437">
        <ele>5.8</ele>
        <time>2020-06-22T18:43:38Z</time>
      </trkpt>
      <trkpt lat="50.82168" lon="1.59434">
        <ele>5.9</ele>
        <time>2020-06-22T18:43:39Z</time>
      </trkpt>
      <trkpt lat="50.82175" lon="1.59432">
        <ele>6</ele>
        <time>2020-06-22T18:43:40Z</time>
      </trkpt>
      <trkpt lat="50.8218" lon="1.59429">
        <ele>6.1</ele>
        <time>2020-06-22T18:43:41Z</time>
      </trkpt>
      <trkpt lat="50.82186" lon="1.59425">
        <ele>6.3</ele>
        <time>2020-06-22T18:43:42Z</time>
      </trkpt>
      <trkpt lat="50.82191" lon="1.59419">
        <ele>6.4</ele>
        <time>2020-06-22T18:43:43Z</time>
      </trkpt>
      <trkpt lat="50.82197" lon="1.59414">
        <ele>6.6</ele>
        <time>2020-06-22T18:43:44Z</time>
      </trkpt>
      <trkpt lat="50.82202" lon="1.59411">
        <ele>6.7</ele>
        <time>2020-06-22T18:43:45Z</time>
      </trkpt>
      <trkpt lat="50.82208" lon="1.59407">
        <ele>6.9</ele>
        <time>2020-06-22T18:43:46Z</time>
      </trkpt>
      <trkpt lat="50.82214" lon="1.59404">
        <ele>7</ele>
        <time>2020-06-22T18:43:47Z</time>
      </trkpt>
      <trkpt lat="50.82219" lon="1.594">
        <ele>7.1</ele>
        <time>2020-06-22T18:43:48Z</time>
      </trkpt>
      <trkpt lat="50.82224" lon="1.59395">
        <ele>7.3</ele>
        <time>2020-06-22T18:43:49Z</time>
      </trkpt>
      <trkpt lat="50.82229" lon="1.59393">
        <ele>7.4</ele>
        <time>2020-06-22T18:43:50Z</time>
      </trkpt>
      <trkpt lat="50.82234" lon="1.59391">
        <ele>7.6</ele>
        <time>2020-06-22T18:43:51Z</time>
      </trkpt>
      <trkpt lat="50.82238" lon="1.59387">
        <ele>7.8</ele>
        <time>2020-06-22T18:43:52Z</time>
      </trkpt>
      <trkpt lat="50.82243" lon="1.59384">
        <ele>8</ele>
        <time>2020-06-22T18:43:53Z</time>
      </trkpt>
      <trkpt lat="50.82248" lon="1.59381">
        <ele>8.2</ele>
        <time>2020-06-22T18:43:54Z</time>
      </trkpt>
      <trkpt lat="50.82252" lon="1.59378">
        <ele>8.4</ele>
        <time>2020-06-22T18:43:55Z</time>
      </trkpt>
      <trkpt lat="50.82257" lon="1.59374">
        <ele>8.6</ele>
        <time>2020-06-22T18:43:56Z</time>
      </trkpt>
      <trkpt lat="50.82263" lon="1.59371">
        <ele>8.8</ele>
        <time>2020-06-22T18:43:57Z</time>
      </trkpt>
      <trkpt lat="50.82268" lon="1.59368">
        <ele>9</ele>
        <time>2020-06-22T18:43:58Z</time>
      </trkpt>
      <trkpt lat="50.82274" lon="1.59366">
        <ele>9.2</ele>
        <time>2020-06-22T18:43:59Z</time>
      </trkpt>
      <trkpt lat="50.82279" lon="1.59363">
        <ele>9.4</ele>
        <time>2020-06-22T18:44:00Z</time>
      </trkpt>
      <trkpt lat="50.82284" lon="1.5936">
        <ele>9.6</ele>
        <time>2020-06-22T18:44:01Z</time>
      </trkpt>
      <trkpt lat="50.82288" lon="1.59357">
        <ele>9.8</ele>
        <time>2020-06-22T18:44:02Z</time>
      </trkpt>
      <trkpt lat="50.82293" lon="1.59353">
        <ele>10</ele>
        <time>2020-06-22T18:44:03Z</time>
      </trkpt>
      <trkpt lat="50.82298" lon="1.59349">
        <ele>10.2</ele>
        <time>2020-06-22T18:44:04Z</time>
      </trkpt>
      <trkpt lat="50.82304" lon="1.59345">
        <ele>10.4</ele>
        <time>2020-06-22T18:44:05Z</time>
      </trkpt>
      <trkpt lat="50.82309" lon="1.59341">
        <ele>10.6</ele>
        <time>2020-06-22T18:44:06Z</time>
      </trkpt>
      <trkpt lat="50.82314" lon="1.59336">
        <ele>10.8</ele>
        <time>2020-06-22T18:44:07Z</time>
      </trkpt>
      <trkpt lat="50.82319" lon="1.59332">
        <ele>10.9</ele>
        <time>2020-06-22T18:44:08Z</time>
      </trkpt>
      <trkpt lat="50.82324" lon="1.59329">
        <ele>11</ele>
        <time>2020-06-22T18:44:09Z</time>
      </trkpt>
      <trkpt lat="50.82329" lon="1.59325">
        <ele>11.1</ele>
        <time>2020-06-22T18:44:10Z</time>
      </trkpt>
      <trkpt lat="50.82334" lon="1.59321">
        <ele>11.1</ele>
        <time>2020-06-22T18:44:11Z</time>
      </trkpt>
      <trkpt lat="50.82338" lon="1.59318">
        <ele>11.2</ele>
        <time>2020-06-22T18:44:12Z</time>
      </trkpt>
      <trkpt lat="50.82343" lon="1.59314">
        <ele>11.3</ele>
        <time>2020-06-22T18:44:13Z</time>
      </trkpt>
      <trkpt lat="50.82348" lon="1.59311">
        <ele>11.3</ele>
        <time>2020-06-22T18:44:14Z</time>
      </trkpt>
      <trkpt lat="50.82351" lon="1.59307">
        <ele>11.4</ele>
        <time>2020-06-22T18:44:15Z</time>
      </trkpt>
      <trkpt lat="50.82356" lon="1.59304">
        <ele>11.5</ele>
        <time>2020-06-22T18:44:16Z</time>
      </trkpt>
      <trkpt lat="50.82361" lon="1.593">
        <ele>11.6</ele>
        <time>2020-06-22T18:44:17Z</time>
      </trkpt>
      <trkpt lat="50.82366" lon="1.59296">
        <ele>11.8</ele>
        <time>2020-06-22T18:44:18Z</time>
      </trkpt>
      <trkpt lat="50.82371" lon="1.59292">
        <ele>11.9</ele>
        <time>2020-06-22T18:44:19Z</time>
      </trkpt>
      <trkpt lat="50.82376" lon="1.59291">
        <ele>12</ele>
        <time>2020-06-22T18:44:20Z</time>
      </trkpt>
      <trkpt lat="50.8238" lon="1.59288">
        <ele>12.1</ele>
        <time>2020-06-22T18:44:21Z</time>
      </trkpt>
      <trkpt lat="50.82385" lon="1.59285">
        <ele>12.2</ele>
        <time>2020-06-22T18:44:22Z</time>
      </trkpt>
      <trkpt lat="50.82388" lon="1.59285">
        <ele>12.3</ele>
        <time>2020-06-22T18:44:23Z</time>
      </trkpt>
      <trkpt lat="50.82392" lon="1.59284">
        <ele>12.3</ele>
        <time>2020-06-22T18:44:24Z</time>
      </trkpt>
      <trkpt lat="50.82396" lon="1.59282">
        <ele>12.4</ele>
        <time>2020-06-22T18:44:25Z</time>
      </trkpt>
      <trkpt lat="50.824" lon="1.59282">
        <ele>12.4</ele>
        <time>2020-06-22T18:44:26Z</time>
      </trkpt>
      <trkpt lat="50.82403" lon="1.59286">
        <ele>12.4</ele>
        <time>2020-06-22T18:44:27Z</time>
      </trkpt>
      <trkpt lat="50.82405" lon="1.59293">
        <ele>12.5</ele>
        <time>2020-06-22T18:44:28Z</time>
      </trkpt>
      <trkpt lat="50.82407" lon="1.59303">
        <ele>12.5</ele>
        <time>2020-06-22T18:44:29Z</time>
      </trkpt>
      <trkpt lat="50.82408" lon="1.59314">
        <ele>12.5</ele>
        <time>2020-06-22T18:44:30Z</time>
      </trkpt>
      <trkpt lat="50.82409" lon="1.5932">
        <ele>12.5</ele>
        <time>2020-06-22T18:44:31Z</time>
      </trkpt>
      <trkpt lat="50.8241" lon="1.59327">
        <ele>12.5</ele>
        <time>2020-06-22T18:44:32Z</time>
      </trkpt>
      <trkpt lat="50.82411" lon="1.59333">
        <ele>12.7</ele>
        <time>2020-06-22T18:44:33Z</time>
      </trkpt>
      <trkpt lat="50.82412" lon="1.59341">
        <ele>12.7</ele>
        <time>2020-06-22T18:44:34Z</time>
      </trkpt>
      <trkpt lat="50.82413" lon="1.59346">
        <ele>12.8</ele>
        <time>2020-06-22T18:44:35Z</time>
      </trkpt>
      <trkpt lat="50.82417" lon="1.5935">
        <ele>12.8</ele>
        <time>2020-06-22T18:44:36Z</time>
      </trkpt>
      <trkpt lat="50.82421" lon="1.59352">
        <ele>12.9</ele>
        <time>2020-06-22T18:44:37Z</time>
      </trkpt>
      <trkpt lat="50.82425" lon="1.59352">
        <ele>12.9</ele>
        <time>2020-06-22T18:44:38Z</time>
      </trkpt>
      <trkpt lat="50.82429" lon="1.59353">
        <ele>13</ele>
        <time>2020-06-22T18:44:39Z</time>
      </trkpt>
      <trkpt lat="50.82435" lon="1.59352">
        <ele>13</ele>
        <time>2020-06-22T18:44:40Z</time>
      </trkpt>
      <trkpt lat="50.82439" lon="1.59351">
        <ele>13</ele>
        <time>2020-06-22T18:44:41Z</time>
      </trkpt>
      <trkpt lat="50.82443" lon="1.59348">
        <ele>13.1</ele>
        <time>2020-06-22T18:44:42Z</time>
      </trkpt>
      <trkpt lat="50.82448" lon="1.59344">
        <ele>13.1</ele>
        <time>2020-06-22T18:44:43Z</time>
      </trkpt>
      <trkpt lat="50.82451" lon="1.59339">
        <ele>13.1</ele>
        <time>2020-06-22T18:44:44Z</time>
      </trkpt>
      <trkpt lat="50.82455" lon="1.59334">
        <ele>13</ele>
        <time>2020-06-22T18:44:45Z</time>
      </trkpt>
      <trkpt lat="50.82458" lon="1.59331">
        <ele>13</ele>
        <time>2020-06-22T18:44:46Z</time>
      </trkpt>
      <trkpt lat="50.82462" lon="1.59326">
        <ele>12.9</ele>
        <time>2020-06-22T18:44:47Z</time>
      </trkpt>
      <trkpt lat="50.82466" lon="1.59321">
        <ele>12.8</ele>
        <time>2020-06-22T18:44:48Z</time>
      </trkpt>
      <trkpt lat="50.8247" lon="1.59317">
        <ele>12.7</ele>
        <time>2020-06-22T18:44:49Z</time>
      </trkpt>
      <trkpt lat="50.82475" lon="1.59312">
        <ele>12.7</ele>
        <time>2020-06-22T18:44:50Z</time>
      </trkpt>
      <trkpt lat="50.82481" lon="1.59308">
        <ele>12.6</ele>
        <time>2020-06-22T18:44:51Z</time>
      </trkpt>
      <trkpt lat="50.82486" lon="1.59303">
        <ele>12.5</ele>
        <time>2020-06-22T18:44:52Z</time>
      </trkpt>
      <trkpt lat="50.82491" lon="1.59299">
        <ele>12.5</ele>
        <time>2020-06-22T18:44:53Z</time>
      </trkpt>
      <trkpt lat="50.82495" lon="1.59294">
        <ele>12.5</ele>
        <time>2020-06-22T18:44:54Z</time>
      </trkpt>
      <trkpt lat="50.825" lon="1.59291">
        <ele>12.6</ele>
        <time>2020-06-22T18:44:55Z</time>
      </trkpt>
      <trkpt lat="50.82504" lon="1.59288">
        <ele>12.6</ele>
        <time>2020-06-22T18:44:56Z</time>
      </trkpt>
      <trkpt lat="50.82509" lon="1.59286">
        <ele>12.6</ele>
        <time>2020-06-22T18:44:57Z</time>
      </trkpt>
      <trkpt lat="50.82514" lon="1.59282">
        <ele>12.7</ele>
        <time>2020-06-22T18:44:58Z</time>
      </trkpt>
      <trkpt lat="50.82519" lon="1.59278">
        <ele>12.8</ele>
        <time>2020-06-22T18:44:59Z</time>
      </trkpt>
      <trkpt lat="50.82524" lon="1.59275">
        <ele>12.8</ele>
        <time>2020-06-22T18:45:00Z</time>
      </trkpt>
      <trkpt lat="50.8253" lon="1.5927">
        <ele>12.9</ele>
        <time>2020-06-22T18:45:01Z</time>
      </trkpt>
      <trkpt lat="50.82535" lon="1.59267">
        <ele>12.9</ele>
        <time>2020-06-22T18:45:02Z</time>
      </trkpt>
      <trkpt lat="50.82541" lon="1.59265">
        <ele>13</ele>
        <time>2020-06-22T18:45:03Z</time>
      </trkpt>
      <trkpt lat="50.82546" lon="1.59261">
        <ele>13</ele>
        <time>2020-06-22T18:45:04Z</time>
      </trkpt>
      <trkpt lat="50.82552" lon="1.59257">
        <ele>13.1</ele>
        <time>2020-06-22T18:45:05Z</time>
      </trkpt>
      <trkpt lat="50.82557" lon="1.59254">
        <ele>13.2</ele>
        <time>2020-06-22T18:45:06Z</time>
      </trkpt>
      <trkpt lat="50.82562" lon="1.5925">
        <ele>13.3</ele>
        <time>2020-06-22T18:45:07Z</time>
      </trkpt>
      <trkpt lat="50.82566" lon="1.59247">
        <ele>13.3</ele>
        <time>2020-06-22T18:45:08Z</time>
      </trkpt>
      <trkpt lat="50.82571" lon="1.59243">
        <ele>13.5</ele>
        <time>2020-06-22T18:45:09Z</time>
      </trkpt>
      <trkpt lat="50.82577" lon="1.59239">
        <ele>13.7</ele>
        <time>2020-06-22T18:45:10Z</time>
      </trkpt>
      <trkpt lat="50.82582" lon="1.59236">
        <ele>13.8</ele>
        <time>2020-06-22T18:45:11Z</time>
      </trkpt>
      <trkpt lat="50.82587" lon="1.59234">
        <ele>13.9</ele>
        <time>2020-06-22T18:45:12Z</time>
      </trkpt>
      <trkpt lat="50.82591" lon="1.59234">
        <ele>14</ele>
        <time>2020-06-22T18:45:13Z</time>
      </trkpt>
      <trkpt lat="50.82596" lon="1.59233">
        <ele>14.2</ele>
        <time>2020-06-22T18:45:14Z</time>
      </trkpt>
      <trkpt lat="50.82602" lon="1.59234">
        <ele>14.5</ele>
        <time>2020-06-22T18:45:15Z</time>
      </trkpt>
      <trkpt lat="50.82606" lon="1.59236">
        <ele>14.7</ele>
        <time>2020-06-22T18:45:16Z</time>
      </trkpt>
      <trkpt lat="50.82611" lon="1.59239">
        <ele>14.9</ele>
        <time>2020-06-22T18:45:17Z</time>
      </trkpt>
      <trkpt lat="50.82616" lon="1.59242">
        <ele>15.2</ele>
        <time>2020-06-22T18:45:18Z</time>
      </trkpt>
      <trkpt lat="50.8262" lon="1.59245">
        <ele>15.4</ele>
        <time>2020-06-22T18:45:19Z</time>
      </trkpt>
      <trkpt lat="50.82625" lon="1.59248">
        <ele>15.7</ele>
        <time>2020-06-22T18:45:20Z</time>
      </trkpt>
      <trkpt lat="50.82629" lon="1.59253">
        <ele>15.9</ele>
        <time>2020-06-22T18:45:21Z</time>
      </trkpt>
      <trkpt lat="50.82634" lon="1.59259">
        <ele>16.1</ele>
        <time>2020-06-22T18:45:22Z</time>
      </trkpt>
      <trkpt lat="50.82638" lon="1.59264">
        <ele>16.4</ele>
        <time>2020-06-22T18:45:23Z</time>
      </trkpt>
      <trkpt lat="50.82644" lon="1.59269">
        <ele>16.6</ele>
        <time>2020-06-22T18:45:24Z</time>
      </trkpt>
      <trkpt lat="50.82649" lon="1.59272">
        <ele>16.9</ele>
        <time>2020-06-22T18:45:25Z</time>
      </trkpt>
      <trkpt lat="50.82654" lon="1.59276">
        <ele>17.1</ele>
        <time>2020-06-22T18:45:26Z</time>
      </trkpt>
      <trkpt lat="50.8266" lon="1.59279">
        <ele>17.4</ele>
        <time>2020-06-22T18:45:27Z</time>
      </trkpt>
      <trkpt lat="50.82667" lon="1.59283">
        <ele>17.7</ele>
        <time>2020-06-22T18:45:28Z</time>
      </trkpt>
      <trkpt lat="50.82672" lon="1.59285">
        <ele>17.9</ele>
        <time>2020-06-22T18:45:29Z</time>
      </trkpt>
      <trkpt lat="50.82677" lon="1.59286">
        <ele>18.1</ele>
        <time>2020-06-22T18:45:30Z</time>
      </trkpt>
      <trkpt lat="50.82683" lon="1.59288">
        <ele>18.3</ele>
        <time>2020-06-22T18:45:31Z</time>
      </trkpt>
      <trkpt lat="50.82688" lon="1.59288">
        <ele>18.4</ele>
        <time>2020-06-22T18:45:32Z</time>
      </trkpt>
      <trkpt lat="50.82692" lon="1.59288">
        <ele>18.5</ele>
        <time>2020-06-22T18:45:33Z</time>
      </trkpt>
      <trkpt lat="50.82697" lon="1.59288">
        <ele>18.5</ele>
        <time>2020-06-22T18:45:34Z</time>
      </trkpt>
      <trkpt lat="50.82702" lon="1.59289">
        <ele>18.6</ele>
        <time>2020-06-22T18:45:35Z</time>
      </trkpt>
      <trkpt lat="50.82707" lon="1.59288">
        <ele>18.7</ele>
        <time>2020-06-22T18:45:36Z</time>
      </trkpt>
      <trkpt lat="50.82711" lon="1.59288">
        <ele>18.7</ele>
        <time>2020-06-22T18:45:37Z</time>
      </trkpt>
      <trkpt lat="50.82715" lon="1.59288">
        <ele>18.8</ele>
        <time>2020-06-22T18:45:38Z</time>
      </trkpt>
      <trkpt lat="50.82719" lon="1.59288">
        <ele>18.8</ele>
        <time>2020-06-22T18:45:39Z</time>
      </trkpt>
      <trkpt lat="50.82724" lon="1.59287">
        <ele>18.9</ele>
        <time>2020-06-22T18:45:40Z</time>
      </trkpt>
      <trkpt lat="50.82728" lon="1.59285">
        <ele>18.9</ele>
        <time>2020-06-22T18:45:41Z</time>
      </trkpt>
      <trkpt lat="50.82732" lon="1.59282">
        <ele>18.9</ele>
        <time>2020-06-22T18:45:42Z</time>
      </trkpt>
      <trkpt lat="50.82736" lon="1.59279">
        <ele>18.9</ele>
        <time>2020-06-22T18:45:43Z</time>
      </trkpt>
      <trkpt lat="50.8274" lon="1.59277">
        <ele>18.9</ele>
        <time>2020-06-22T18:45:44Z</time>
      </trkpt>
      <trkpt lat="50.82744" lon="1.59276">
        <ele>19</ele>
        <time>2020-06-22T18:45:45Z</time>
      </trkpt>
      <trkpt lat="50.82747" lon="1.59274">
        <ele>19</ele>
        <time>2020-06-22T18:45:46Z</time>
      </trkpt>
      <trkpt lat="50.82751" lon="1.59271">
        <ele>19</ele>
        <time>2020-06-22T18:45:47Z</time>
      </trkpt>
      <trkpt lat="50.82754" lon="1.59267">
        <ele>19</ele>
        <time>2020-06-22T18:45:48Z</time>
      </trkpt>
      <trkpt lat="50.82758" lon="1.59264">
        <ele>19</ele>
        <time>2020-06-22T18:45:49Z</time>
      </trkpt>
      <trkpt lat="50.82761" lon="1.59262">
        <ele>18.9</ele>
        <time>2020-06-22T18:45:50Z</time>
      </trkpt>
      <trkpt lat="50.82765" lon="1.5926">
        <ele>18.9</ele>
        <time>2020-06-22T18:45:51Z</time>
      </trkpt>
      <trkpt lat="50.82769" lon="1.59256">
        <ele>18.8</ele>
        <time>2020-06-22T18:45:52Z</time>
      </trkpt>
      <trkpt lat="50.82773" lon="1.59254">
        <ele>18.8</ele>
        <time>2020-06-22T18:45:53Z</time>
      </trkpt>
      <trkpt lat="50.82777" lon="1.5925">
        <ele>18.7</ele>
        <time>2020-06-22T18:45:54Z</time>
      </trkpt>
      <trkpt lat="50.82782" lon="1.59247">
        <ele>18.6</ele>
        <time>2020-06-22T18:45:55Z</time>
      </trkpt>
      <trkpt lat="50.82786" lon="1.59244">
        <ele>18.5</ele>
        <time>2020-06-22T18:45:56Z</time>
      </trkpt>
      <trkpt lat="50.8279" lon="1.5924">
        <ele>18.4</ele>
        <time>2020-06-22T18:45:57Z</time>
      </trkpt>
      <trkpt lat="50.82794" lon="1.59237">
        <ele>18.2</ele>
        <time>2020-06-22T18:45:58Z</time>
      </trkpt>
      <trkpt lat="50.82799" lon="1.59234">
        <ele>18.1</ele>
        <time>2020-06-22T18:45:59Z</time>
      </trkpt>
      <trkpt lat="50.82803" lon="1.5923">
        <ele>17.9</ele>
        <time>2020-06-22T18:46:00Z</time>
      </trkpt>
      <trkpt lat="50.82808" lon="1.59226">
        <ele>17.4</ele>
        <time>2020-06-22T18:46:01Z</time>
      </trkpt>
      <trkpt lat="50.82813" lon="1.59223">
        <ele>17.2</ele>
        <time>2020-06-22T18:46:02Z</time>
      </trkpt>
      <trkpt lat="50.82819" lon="1.59217">
        <ele>16.8</ele>
        <time>2020-06-22T18:46:03Z</time>
      </trkpt>
      <trkpt lat="50.82824" lon="1.59214">
        <ele>16.6</ele>
        <time>2020-06-22T18:46:04Z</time>
      </trkpt>
      <trkpt lat="50.8283" lon="1.5921">
        <ele>16.2</ele>
        <time>2020-06-22T18:46:05Z</time>
      </trkpt>
      <trkpt lat="50.82836" lon="1.59206">
        <ele>15.9</ele>
        <time>2020-06-22T18:46:06Z</time>
      </trkpt>
      <trkpt lat="50.82842" lon="1.59201">
        <ele>15.5</ele>
        <time>2020-06-22T18:46:07Z</time>
      </trkpt>
      <trkpt lat="50.82848" lon="1.59197">
        <ele>15.1</ele>
        <time>2020-06-22T18:46:08Z</time>
      </trkpt>
      <trkpt lat="50.82854" lon="1.59192">
        <ele>14.7</ele>
        <time>2020-06-22T18:46:09Z</time>
      </trkpt>
      <trkpt lat="50.82861" lon="1.59186">
        <ele>14.3</ele>
        <time>2020-06-22T18:46:10Z</time>
      </trkpt>
      <trkpt lat="50.82868" lon="1.5918">
        <ele>13.9</ele>
        <time>2020-06-22T18:46:11Z</time>
      </trkpt>
      <trkpt lat="50.82875" lon="1.59176">
        <ele>13.4</ele>
        <time>2020-06-22T18:46:12Z</time>
      </trkpt>
      <trkpt lat="50.82882" lon="1.5917">
        <ele>13</ele>
        <time>2020-06-22T18:46:13Z</time>
      </trkpt>
      <trkpt lat="50.82889" lon="1.59165">
        <ele>12.5</ele>
        <time>2020-06-22T18:46:14Z</time>
      </trkpt>
      <trkpt lat="50.82898" lon="1.59162">
        <ele>12</ele>
        <time>2020-06-22T18:46:15Z</time>
      </trkpt>
      <trkpt lat="50.82906" lon="1.59159">
        <ele>11.5</ele>
        <time>2020-06-22T18:46:16Z</time>
      </trkpt>
      <trkpt lat="50.82914" lon="1.59157">
        <ele>11.1</ele>
        <time>2020-06-22T18:46:17Z</time>
      </trkpt>
      <trkpt lat="50.82923" lon="1.59156">
        <ele>10.6</ele>
        <time>2020-06-22T18:46:18Z</time>
      </trkpt>
      <trkpt lat="50.82931" lon="1.59157">
        <ele>10.3</ele>
        <time>2020-06-22T18:46:19Z</time>
      </trkpt>
      <trkpt lat="50.82939" lon="1.59159">
        <ele>10</ele>
        <time>2020-06-22T18:46:20Z</time>
      </trkpt>
      <trkpt lat="50.82946" lon="1.59161">
        <ele>9.9</ele>
        <time>2020-06-22T18:46:21Z</time>
      </trkpt>
      <trkpt lat="50.82954" lon="1.59164">
        <ele>9.9</ele>
        <time>2020-06-22T18:46:22Z</time>
      </trkpt>
      <trkpt lat="50.82961" lon="1.59166">
        <ele>9.9</ele>
        <time>2020-06-22T18:46:23Z</time>
      </trkpt>
      <trkpt lat="50.82968" lon="1.59169">
        <ele>9.9</ele>
        <time>2020-06-22T18:46:24Z</time>
      </trkpt>
      <trkpt lat="50.82974" lon="1.59172">
        <ele>10</ele>
        <time>2020-06-22T18:46:25Z</time>
      </trkpt>
      <trkpt lat="50.82979" lon="1.59176">
        <ele>10.2</ele>
        <time>2020-06-22T18:46:26Z</time>
      </trkpt>
      <trkpt lat="50.82985" lon="1.59179">
        <ele>10.3</ele>
        <time>2020-06-22T18:46:27Z</time>
      </trkpt>
      <trkpt lat="50.82991" lon="1.59182">
        <ele>10.6</ele>
        <time>2020-06-22T18:46:28Z</time>
      </trkpt>
      <trkpt lat="50.82996" lon="1.59187">
        <ele>10.8</ele>
        <time>2020-06-22T18:46:29Z</time>
      </trkpt>
      <trkpt lat="50.83001" lon="1.5919">
        <ele>11.1</ele>
        <time>2020-06-22T18:46:30Z</time>
      </trkpt>
      <trkpt lat="50.83007" lon="1.59194">
        <ele>11.3</ele>
        <time>2020-06-22T18:46:31Z</time>
      </trkpt>
      <trkpt lat="50.83012" lon="1.59198">
        <ele>11.6</ele>
        <time>2020-06-22T18:46:32Z</time>
      </trkpt>
      <trkpt lat="50.83017" lon="1.592">
        <ele>11.8</ele>
        <time>2020-06-22T18:46:33Z</time>
      </trkpt>
      <trkpt lat="50.83022" lon="1.59203">
        <ele>12.1</ele>
        <time>2020-06-22T18:46:34Z</time>
      </trkpt>
      <trkpt lat="50.83027" lon="1.59207">
        <ele>12.3</ele>
        <time>2020-06-22T18:46:35Z</time>
      </trkpt>
      <trkpt lat="50.83031" lon="1.5921">
        <ele>12.5</ele>
        <time>2020-06-22T18:46:36Z</time>
      </trkpt>
      <trkpt lat="50.83036" lon="1.59212">
        <ele>12.7</ele>
        <time>2020-06-22T18:46:37Z</time>
      </trkpt>
      <trkpt lat="50.83041" lon="1.59216">
        <ele>12.9</ele>
        <time>2020-06-22T18:46:38Z</time>
      </trkpt>
      <trkpt lat="50.83045" lon="1.59219">
        <ele>13.1</ele>
        <time>2020-06-22T18:46:39Z</time>
      </trkpt>
      <trkpt lat="50.8305" lon="1.59221">
        <ele>13.3</ele>
        <time>2020-06-22T18:46:40Z</time>
      </trkpt>
      <trkpt lat="50.83054" lon="1.59224">
        <ele>13.5</ele>
        <time>2020-06-22T18:46:41Z</time>
      </trkpt>
      <trkpt lat="50.83058" lon="1.59229">
        <ele>13.7</ele>
        <time>2020-06-22T18:46:42Z</time>
      </trkpt>
      <trkpt lat="50.83063" lon="1.59233">
        <ele>13.8</ele>
        <time>2020-06-22T18:46:43Z</time>
      </trkpt>
      <trkpt lat="50.83067" lon="1.59237">
        <ele>14</ele>
        <time>2020-06-22T18:46:44Z</time>
      </trkpt>
      <trkpt lat="50.83071" lon="1.59241">
        <ele>14.2</ele>
        <time>2020-06-22T18:46:45Z</time>
      </trkpt>
      <trkpt lat="50.83076" lon="1.59243">
        <ele>14.4</ele>
        <time>2020-06-22T18:46:46Z</time>
      </trkpt>
      <trkpt lat="50.8308" lon="1.59247">
        <ele>14.6</ele>
        <time>2020-06-22T18:46:47Z</time>
      </trkpt>
      <trkpt lat="50.83085" lon="1.59249">
        <ele>14.8</ele>
        <time>2020-06-22T18:46:48Z</time>
      </trkpt>
      <trkpt lat="50.83089" lon="1.59252">
        <ele>14.9</ele>
        <time>2020-06-22T18:46:49Z</time>
      </trkpt>
      <trkpt lat="50.83093" lon="1.59255">
        <ele>15.1</ele>
        <time>2020-06-22T18:46:50Z</time>
      </trkpt>
      <trkpt lat="50.83098" lon="1.59258">
        <ele>15.3</ele>
        <time>2020-06-22T18:46:51Z</time>
      </trkpt>
      <trkpt lat="50.83102" lon="1.59261">
        <ele>15.4</ele>
        <time>2020-06-22T18:46:52Z</time>
      </trkpt>
      <trkpt lat="50.83106" lon="1.59264">
        <ele>15.5</ele>
        <time>2020-06-22T18:46:53Z</time>
      </trkpt>
      <trkpt lat="50.83111" lon="1.59268">
        <ele>15.7</ele>
        <time>2020-06-22T18:46:54Z</time>
      </trkpt>
      <trkpt lat="50.83116" lon="1.5927">
        <ele>15.8</ele>
        <time>2020-06-22T18:46:55Z</time>
      </trkpt>
      <trkpt lat="50.83121" lon="1.59273">
        <ele>16</ele>
        <time>2020-06-22T18:46:56Z</time>
      </trkpt>
      <trkpt lat="50.83126" lon="1.59276">
        <ele>16.2</ele>
        <time>2020-06-22T18:46:57Z</time>
      </trkpt>
      <trkpt lat="50.83131" lon="1.59279">
        <ele>16.4</ele>
        <time>2020-06-22T18:46:58Z</time>
      </trkpt>
      <trkpt lat="50.83136" lon="1.59283">
        <ele>16.7</ele>
        <time>2020-06-22T18:46:59Z</time>
      </trkpt>
      <trkpt lat="50.83141" lon="1.59286">
        <ele>16.9</ele>
        <time>2020-06-22T18:47:00Z</time>
      </trkpt>
      <trkpt lat="50.83145" lon="1.59289">
        <ele>17.1</ele>
        <time>2020-06-22T18:47:01Z</time>
      </trkpt>
      <trkpt lat="50.8315" lon="1.59291">
        <ele>17.3</ele>
        <time>2020-06-22T18:47:02Z</time>
      </trkpt>
      <trkpt lat="50.83155" lon="1.59294">
        <ele>17.5</ele>
        <time>2020-06-22T18:47:03Z</time>
      </trkpt>
      <trkpt lat="50.8316" lon="1.59298">
        <ele>17.7</ele>
        <time>2020-06-22T18:47:04Z</time>
      </trkpt>
      <trkpt lat="50.83165" lon="1.59302">
        <ele>18</ele>
        <time>2020-06-22T18:47:05Z</time>
      </trkpt>
      <trkpt lat="50.8317" lon="1.59305">
        <ele>18.2</ele>
        <time>2020-06-22T18:47:06Z</time>
      </trkpt>
      <trkpt lat="50.83175" lon="1.59309">
        <ele>18.4</ele>
        <time>2020-06-22T18:47:07Z</time>
      </trkpt>
      <trkpt lat="50.8318" lon="1.59311">
        <ele>18.7</ele>
        <time>2020-06-22T18:47:08Z</time>
      </trkpt>
      <trkpt lat="50.83184" lon="1.59313">
        <ele>18.9</ele>
        <time>2020-06-22T18:47:09Z</time>
      </trkpt>
      <trkpt lat="50.83189" lon="1.59317">
        <ele>19.2</ele>
        <time>2020-06-22T18:47:10Z</time>
      </trkpt>
      <trkpt lat="50.83194" lon="1.59321">
        <ele>19.5</ele>
        <time>2020-06-22T18:47:11Z</time>
      </trkpt>
      <trkpt lat="50.83198" lon="1.59324">
        <ele>19.7</ele>
        <time>2020-06-22T18:47:12Z</time>
      </trkpt>
      <trkpt lat="50.83203" lon="1.59327">
        <ele>20</ele>
        <time>2020-06-22T18:47:13Z</time>
      </trkpt>
      <trkpt lat="50.83207" lon="1.59331">
        <ele>20.3</ele>
        <time>2020-06-22T18:47:14Z</time>
      </trkpt>
      <trkpt lat="50.8321" lon="1.59334">
        <ele>20.5</ele>
        <time>2020-06-22T18:47:15Z</time>
      </trkpt>
      <trkpt lat="50.83216" lon="1.59337">
        <ele>20.7</ele>
        <time>2020-06-22T18:47:16Z</time>
      </trkpt>
      <trkpt lat="50.8322" lon="1.59339">
        <ele>21</ele>
        <time>2020-06-22T18:47:17Z</time>
      </trkpt>
      <trkpt lat="50.83225" lon="1.59343">
        <ele>21.2</ele>
        <time>2020-06-22T18:47:18Z</time>
      </trkpt>
      <trkpt lat="50.83229" lon="1.59346">
        <ele>21.5</ele>
        <time>2020-06-22T18:47:19Z</time>
      </trkpt>
      <trkpt lat="50.83234" lon="1.5935">
        <ele>21.8</ele>
        <time>2020-06-22T18:47:20Z</time>
      </trkpt>
      <trkpt lat="50.83238" lon="1.59354">
        <ele>22.1</ele>
        <time>2020-06-22T18:47:21Z</time>
      </trkpt>
      <trkpt lat="50.83242" lon="1.59356">
        <ele>22.4</ele>
        <time>2020-06-22T18:47:22Z</time>
      </trkpt>
      <trkpt lat="50.83247" lon="1.59359">
        <ele>22.6</ele>
        <time>2020-06-22T18:47:23Z</time>
      </trkpt>
      <trkpt lat="50.83251" lon="1.59362">
        <ele>22.9</ele>
        <time>2020-06-22T18:47:24Z</time>
      </trkpt>
      <trkpt lat="50.83256" lon="1.59364">
        <ele>23.1</ele>
        <time>2020-06-22T18:47:25Z</time>
      </trkpt>
      <trkpt lat="50.83259" lon="1.59366">
        <ele>23.4</ele>
        <time>2020-06-22T18:47:26Z</time>
      </trkpt>
      <trkpt lat="50.83263" lon="1.59368">
        <ele>23.6</ele>
        <time>2020-06-22T18:47:27Z</time>
      </trkpt>
      <trkpt lat="50.83267" lon="1.5937">
        <ele>23.8</ele>
        <time>2020-06-22T18:47:28Z</time>
      </trkpt>
      <trkpt lat="50.8327" lon="1.59373">
        <ele>24</ele>
        <time>2020-06-22T18:47:29Z</time>
      </trkpt>
      <trkpt lat="50.83274" lon="1.59375">
        <ele>24.2</ele>
        <time>2020-06-22T18:47:30Z</time>
      </trkpt>
      <trkpt lat="50.83279" lon="1.59377">
        <ele>24.5</ele>
        <time>2020-06-22T18:47:31Z</time>
      </trkpt>
      <trkpt lat="50.83283" lon="1.5938">
        <ele>24.8</ele>
        <time>2020-06-22T18:47:32Z</time>
      </trkpt>
      <trkpt lat="50.83287" lon="1.59383">
        <ele>25</ele>
        <time>2020-06-22T18:47:33Z</time>
      </trkpt>
      <trkpt lat="50.83291" lon="1.59385">
        <ele>25.2</ele>
        <time>2020-06-22T18:47:34Z</time>
      </trkpt>
      <trkpt lat="50.83296" lon="1.59387">
        <ele>25.5</ele>
        <time>2020-06-22T18:47:35Z</time>
      </trkpt>
      <trkpt lat="50.83301" lon="1.5939">
        <ele>25.8</ele>
        <time>2020-06-22T18:47:36Z</time>
      </trkpt>
      <trkpt lat="50.83306" lon="1.59393">
        <ele>26.1</ele>
        <time>2020-06-22T18:47:37Z</time>
      </trkpt>
      <trkpt lat="50.83311" lon="1.59395">
        <ele>26.4</ele>
        <time>2020-06-22T18:47:38Z</time>
      </trkpt>
      <trkpt lat="50.83315" lon="1.59397">
        <ele>26.6</ele>
        <time>2020-06-22T18:47:39Z</time>
      </trkpt>
      <trkpt lat="50.83319" lon="1.59398">
        <ele>26.9</ele>
        <time>2020-06-22T18:47:40Z</time>
      </trkpt>
      <trkpt lat="50.83324" lon="1.594">
        <ele>27.2</ele>
        <time>2020-06-22T18:47:41Z</time>
      </trkpt>
      <trkpt lat="50.83328" lon="1.59401">
        <ele>27.4</ele>
        <time>2020-06-22T18:47:42Z</time>
      </trkpt>
      <trkpt lat="50.83332" lon="1.59402">
        <ele>27.6</ele>
        <time>2020-06-22T18:47:43Z</time>
      </trkpt>
      <trkpt lat="50.83336" lon="1.59403">
        <ele>27.9</ele>
        <time>2020-06-22T18:47:44Z</time>
      </trkpt>
      <trkpt lat="50.8334" lon="1.59405">
        <ele>28.1</ele>
        <time>2020-06-22T18:47:45Z</time>
      </trkpt>
      <trkpt lat="50.83344" lon="1.59406">
        <ele>28.3</ele>
        <time>2020-06-22T18:47:46Z</time>
      </trkpt>
      <trkpt lat="50.83348" lon="1.59408">
        <ele>28.5</ele>
        <time>2020-06-22T18:47:47Z</time>
      </trkpt>
      <trkpt lat="50.83352" lon="1.5941">
        <ele>28.7</ele>
        <time>2020-06-22T18:47:48Z</time>
      </trkpt>
      <trkpt lat="50.83356" lon="1.5941">
        <ele>28.9</ele>
        <time>2020-06-22T18:47:49Z</time>
      </trkpt>
      <trkpt lat="50.8336" lon="1.59411">
        <ele>29.2</ele>
        <time>2020-06-22T18:47:50Z</time>
      </trkpt>
      <trkpt lat="50.83364" lon="1.59411">
        <ele>29.4</ele>
        <time>2020-06-22T18:47:51Z</time>
      </trkpt>
      <trkpt lat="50.83368" lon="1.59412">
        <ele>29.6</ele>
        <time>2020-06-22T18:47:52Z</time>
      </trkpt>
      <trkpt lat="50.83372" lon="1.59413">
        <ele>29.8</ele>
        <time>2020-06-22T18:47:53Z</time>
      </trkpt>
      <trkpt lat="50.83377" lon="1.59414">
        <ele>30</ele>
        <time>2020-06-22T18:47:54Z</time>
      </trkpt>
      <trkpt lat="50.83381" lon="1.59415">
        <ele>30.2</ele>
        <time>2020-06-22T18:47:55Z</time>
      </trkpt>
      <trkpt lat="50.83385" lon="1.59416">
        <ele>30.4</ele>
        <time>2020-06-22T18:47:56Z</time>
      </trkpt>
      <trkpt lat="50.83389" lon="1.59418">
        <ele>30.6</ele>
        <time>2020-06-22T18:47:57Z</time>
      </trkpt>
      <trkpt lat="50.83393" lon="1.59419">
        <ele>30.9</ele>
        <time>2020-06-22T18:47:58Z</time>
      </trkpt>
      <trkpt lat="50.83397" lon="1.5942">
        <ele>31.1</ele>
        <time>2020-06-22T18:47:59Z</time>
      </trkpt>
      <trkpt lat="50.83401" lon="1.59421">
        <ele>31.3</ele>
        <time>2020-06-22T18:48:00Z</time>
      </trkpt>
      <trkpt lat="50.83405" lon="1.59422">
        <ele>31.5</ele>
        <time>2020-06-22T18:48:01Z</time>
      </trkpt>
      <trkpt lat="50.83408" lon="1.59423">
        <ele>31.7</ele>
        <time>2020-06-22T18:48:02Z</time>
      </trkpt>
      <trkpt lat="50.83412" lon="1.59425">
        <ele>31.9</ele>
        <time>2020-06-22T18:48:03Z</time>
      </trkpt>
      <trkpt lat="50.83416" lon="1.59427">
        <ele>32.1</ele>
        <time>2020-06-22T18:48:04Z</time>
      </trkpt>
      <trkpt lat="50.8342" lon="1.59428">
        <ele>32.4</ele>
        <time>2020-06-22T18:48:05Z</time>
      </trkpt>
      <trkpt lat="50.83424" lon="1.59428">
        <ele>32.6</ele>
        <time>2020-06-22T18:48:06Z</time>
      </trkpt>
      <trkpt lat="50.83428" lon="1.59429">
        <ele>32.8</ele>
        <time>2020-06-22T18:48:07Z</time>
      </trkpt>
      <trkpt lat="50.83431" lon="1.59431">
        <ele>33</ele>
        <time>2020-06-22T18:48:08Z</time>
      </trkpt>
      <trkpt lat="50.83436" lon="1.59432">
        <ele>33.2</ele>
        <time>2020-06-22T18:48:09Z</time>
      </trkpt>
      <trkpt lat="50.83439" lon="1.59433">
        <ele>33.4</ele>
        <time>2020-06-22T18:48:10Z</time>
      </trkpt>
      <trkpt lat="50.83443" lon="1.59435">
        <ele>33.6</ele>
        <time>2020-06-22T18:48:11Z</time>
      </trkpt>
      <trkpt lat="50.83446" lon="1.59437">
        <ele>33.7</ele>
        <time>2020-06-22T18:48:12Z</time>
      </trkpt>
      <trkpt lat="50.8345" lon="1.59439">
        <ele>33.9</ele>
        <time>2020-06-22T18:48:13Z</time>
      </trkpt>
      <trkpt lat="50.83453" lon="1.5944">
        <ele>34.1</ele>
        <time>2020-06-22T18:48:14Z</time>
      </trkpt>
      <trkpt lat="50.83457" lon="1.59442">
        <ele>34.3</ele>
        <time>2020-06-22T18:48:15Z</time>
      </trkpt>
      <trkpt lat="50.8346" lon="1.59442">
        <ele>34.4</ele>
        <time>2020-06-22T18:48:16Z</time>
      </trkpt>
      <trkpt lat="50.83463" lon="1.59444">
        <ele>34.6</ele>
        <time>2020-06-22T18:48:17Z</time>
      </trkpt>
      <trkpt lat="50.83467" lon="1.59445">
        <ele>34.8</ele>
        <time>2020-06-22T18:48:18Z</time>
      </trkpt>
      <trkpt lat="50.8347" lon="1.59447">
        <ele>34.9</ele>
        <time>2020-06-22T18:48:19Z</time>
      </trkpt>
      <trkpt lat="50.83474" lon="1.59447">
        <ele>35.1</ele>
        <time>2020-06-22T18:48:20Z</time>
      </trkpt>
      <trkpt lat="50.83478" lon="1.59448">
        <ele>35.3</ele>
        <time>2020-06-22T18:48:21Z</time>
      </trkpt>
      <trkpt lat="50.83482" lon="1.5945">
        <ele>35.5</ele>
        <time>2020-06-22T18:48:22Z</time>
      </trkpt>
      <trkpt lat="50.83486" lon="1.59452">
        <ele>35.7</ele>
        <time>2020-06-22T18:48:23Z</time>
      </trkpt>
      <trkpt lat="50.8349" lon="1.59454">
        <ele>36</ele>
        <time>2020-06-22T18:48:24Z</time>
      </trkpt>
      <trkpt lat="50.83494" lon="1.59455">
        <ele>36.1</ele>
        <time>2020-06-22T18:48:25Z</time>
      </trkpt>
      <trkpt lat="50.83498" lon="1.59456">
        <ele>36.3</ele>
        <time>2020-06-22T18:48:26Z</time>
      </trkpt>
      <trkpt lat="50.83502" lon="1.59458">
        <ele>36.5</ele>
        <time>2020-06-22T18:48:27Z</time>
      </trkpt>
      <trkpt lat="50.83506" lon="1.5946">
        <ele>36.7</ele>
        <time>2020-06-22T18:48:28Z</time>
      </trkpt>
      <trkpt lat="50.83511" lon="1.59462">
        <ele>37</ele>
        <time>2020-06-22T18:48:29Z</time>
      </trkpt>
      <trkpt lat="50.83515" lon="1.59464">
        <ele>37.2</ele>
        <time>2020-06-22T18:48:30Z</time>
      </trkpt>
      <trkpt lat="50.83519" lon="1.59467">
        <ele>37.3</ele>
        <time>2020-06-22T18:48:31Z</time>
      </trkpt>
      <trkpt lat="50.83523" lon="1.59468">
        <ele>37.5</ele>
        <time>2020-06-22T18:48:32Z</time>
      </trkpt>
      <trkpt lat="50.83528" lon="1.59469">
        <ele>37.7</ele>
        <time>2020-06-22T18:48:33Z</time>
      </trkpt>
      <trkpt lat="50.83533" lon="1.5947">
        <ele>37.9</ele>
        <time>2020-06-22T18:48:34Z</time>
      </trkpt>
      <trkpt lat="50.83537" lon="1.59472">
        <ele>38.1</ele>
        <time>2020-06-22T18:48:35Z</time>
      </trkpt>
      <trkpt lat="50.83542" lon="1.59473">
        <ele>38.3</ele>
        <time>2020-06-22T18:48:36Z</time>
      </trkpt>
      <trkpt lat="50.83547" lon="1.59475">
        <ele>38.4</ele>
        <time>2020-06-22T18:48:37Z</time>
      </trkpt>
      <trkpt lat="50.83551" lon="1.59477">
        <ele>38.6</ele>
        <time>2020-06-22T18:48:38Z</time>
      </trkpt>
      <trkpt lat="50.83556" lon="1.59479">
        <ele>38.8</ele>
        <time>2020-06-22T18:48:39Z</time>
      </trkpt>
      <trkpt lat="50.83561" lon="1.59481">
        <ele>39</ele>
        <time>2020-06-22T18:48:40Z</time>
      </trkpt>
      <trkpt lat="50.83565" lon="1.59483">
        <ele>39.1</ele>
        <time>2020-06-22T18:48:41Z</time>
      </trkpt>
      <trkpt lat="50.83569" lon="1.59485">
        <ele>39.3</ele>
        <time>2020-06-22T18:48:42Z</time>
      </trkpt>
      <trkpt lat="50.83573" lon="1.59488">
        <ele>39.5</ele>
        <time>2020-06-22T18:48:43Z</time>
      </trkpt>
      <trkpt lat="50.83578" lon="1.5949">
        <ele>39.7</ele>
        <time>2020-06-22T18:48:44Z</time>
      </trkpt>
      <trkpt lat="50.83582" lon="1.59491">
        <ele>39.8</ele>
        <time>2020-06-22T18:48:45Z</time>
      </trkpt>
      <trkpt lat="50.83586" lon="1.59493">
        <ele>40</ele>
        <time>2020-06-22T18:48:46Z</time>
      </trkpt>
      <trkpt lat="50.83591" lon="1.59494">
        <ele>40.2</ele>
        <time>2020-06-22T18:48:47Z</time>
      </trkpt>
      <trkpt lat="50.83595" lon="1.59495">
        <ele>40.4</ele>
        <time>2020-06-22T18:48:48Z</time>
      </trkpt>
      <trkpt lat="50.83598" lon="1.59497">
        <ele>40.5</ele>
        <time>2020-06-22T18:48:49Z</time>
      </trkpt>
      <trkpt lat="50.83603" lon="1.59499">
        <ele>40.7</ele>
        <time>2020-06-22T18:48:50Z</time>
      </trkpt>
      <trkpt lat="50.83608" lon="1.59501">
        <ele>40.9</ele>
        <time>2020-06-22T18:48:51Z</time>
      </trkpt>
      <trkpt lat="50.83611" lon="1.59504">
        <ele>41</ele>
        <time>2020-06-22T18:48:52Z</time>
      </trkpt>
      <trkpt lat="50.83615" lon="1.59506">
        <ele>41.2</ele>
        <time>2020-06-22T18:48:53Z</time>
      </trkpt>
      <trkpt lat="50.83619" lon="1.59508">
        <ele>41.3</ele>
        <time>2020-06-22T18:48:54Z</time>
      </trkpt>
      <trkpt lat="50.83623" lon="1.59508">
        <ele>41.4</ele>
        <time>2020-06-22T18:48:55Z</time>
      </trkpt>
      <trkpt lat="50.83628" lon="1.5951">
        <ele>41.6</ele>
        <time>2020-06-22T18:48:56Z</time>
      </trkpt>
      <trkpt lat="50.83633" lon="1.59513">
        <ele>41.7</ele>
        <time>2020-06-22T18:48:57Z</time>
      </trkpt>
      <trkpt lat="50.83637" lon="1.59514">
        <ele>41.9</ele>
        <time>2020-06-22T18:48:58Z</time>
      </trkpt>
      <trkpt lat="50.83642" lon="1.59516">
        <ele>42</ele>
        <time>2020-06-22T18:48:59Z</time>
      </trkpt>
      <trkpt lat="50.83646" lon="1.59518">
        <ele>42.1</ele>
        <time>2020-06-22T18:49:00Z</time>
      </trkpt>
      <trkpt lat="50.8365" lon="1.59519">
        <ele>42.2</ele>
        <time>2020-06-22T18:49:01Z</time>
      </trkpt>
      <trkpt lat="50.83654" lon="1.59521">
        <ele>42.2</ele>
        <time>2020-06-22T18:49:02Z</time>
      </trkpt>
      <trkpt lat="50.83658" lon="1.59523">
        <ele>42.3</ele>
        <time>2020-06-22T18:49:03Z</time>
      </trkpt>
      <trkpt lat="50.83662" lon="1.59525">
        <ele>42.4</ele>
        <time>2020-06-22T18:49:04Z</time>
      </trkpt>
      <trkpt lat="50.83665" lon="1.59527">
        <ele>42.4</ele>
        <time>2020-06-22T18:49:05Z</time>
      </trkpt>
      <trkpt lat="50.83669" lon="1.59528">
        <ele>42.5</ele>
        <time>2020-06-22T18:49:06Z</time>
      </trkpt>
      <trkpt lat="50.83673" lon="1.59529">
        <ele>42.6</ele>
        <time>2020-06-22T18:49:07Z</time>
      </trkpt>
      <trkpt lat="50.83678" lon="1.59531">
        <ele>42.7</ele>
        <time>2020-06-22T18:49:08Z</time>
      </trkpt>
      <trkpt lat="50.83682" lon="1.59533">
        <ele>42.8</ele>
        <time>2020-06-22T18:49:09Z</time>
      </trkpt>
      <trkpt lat="50.83687" lon="1.59536">
        <ele>42.9</ele>
        <time>2020-06-22T18:49:10Z</time>
      </trkpt>
      <trkpt lat="50.83693" lon="1.59537">
        <ele>43</ele>
        <time>2020-06-22T18:49:11Z</time>
      </trkpt>
      <trkpt lat="50.83699" lon="1.5954">
        <ele>43.1</ele>
        <time>2020-06-22T18:49:12Z</time>
      </trkpt>
      <trkpt lat="50.83704" lon="1.59542">
        <ele>43.1</ele>
        <time>2020-06-22T18:49:13Z</time>
      </trkpt>
      <trkpt lat="50.83708" lon="1.59545">
        <ele>43.2</ele>
        <time>2020-06-22T18:49:14Z</time>
      </trkpt>
      <trkpt lat="50.83713" lon="1.59547">
        <ele>43.2</ele>
        <time>2020-06-22T18:49:15Z</time>
      </trkpt>
      <trkpt lat="50.83718" lon="1.59549">
        <ele>43.3</ele>
        <time>2020-06-22T18:49:16Z</time>
      </trkpt>
      <trkpt lat="50.83723" lon="1.59552">
        <ele>43.4</ele>
        <time>2020-06-22T18:49:17Z</time>
      </trkpt>
      <trkpt lat="50.83728" lon="1.59554">
        <ele>43.5</ele>
        <time>2020-06-22T18:49:18Z</time>
      </trkpt>
      <trkpt lat="50.83733" lon="1.59556">
        <ele>43.6</ele>
        <time>2020-06-22T18:49:19Z</time>
      </trkpt>
      <trkpt lat="50.83739" lon="1.59559">
        <ele>43.7</ele>
        <time>2020-06-22T18:49:20Z</time>
      </trkpt>
      <trkpt lat="50.83744" lon="1.59561">
        <ele>43.8</ele>
        <time>2020-06-22T18:49:21Z</time>
      </trkpt>
      <trkpt lat="50.83749" lon="1.59563">
        <ele>43.9</ele>
        <time>2020-06-22T18:49:22Z</time>
      </trkpt>
      <trkpt lat="50.83754" lon="1.59564">
        <ele>44</ele>
        <time>2020-06-22T18:49:23Z</time>
      </trkpt>
      <trkpt lat="50.83759" lon="1.59566">
        <ele>44.1</ele>
        <time>2020-06-22T18:49:24Z</time>
      </trkpt>
      <trkpt lat="50.83765" lon="1.59568">
        <ele>44.2</ele>
        <time>2020-06-22T18:49:25Z</time>
      </trkpt>
      <trkpt lat="50.83769" lon="1.5957">
        <ele>44.3</ele>
        <time>2020-06-22T18:49:26Z</time>
      </trkpt>
      <trkpt lat="50.83774" lon="1.59573">
        <ele>44.4</ele>
        <time>2020-06-22T18:49:27Z</time>
      </trkpt>
      <trkpt lat="50.83779" lon="1.59576">
        <ele>44.4</ele>
        <time>2020-06-22T18:49:28Z</time>
      </trkpt>
      <trkpt lat="50.83783" lon="1.5958">
        <ele>44.5</ele>
        <time>2020-06-22T18:49:29Z</time>
      </trkpt>
      <trkpt lat="50.83787" lon="1.59585">
        <ele>44.6</ele>
        <time>2020-06-22T18:49:30Z</time>
      </trkpt>
      <trkpt lat="50.83791" lon="1.5959">
        <ele>44.8</ele>
        <time>2020-06-22T18:49:31Z</time>
      </trkpt>
      <trkpt lat="50.83794" lon="1.59594">
        <ele>44.9</ele>
        <time>2020-06-22T18:49:32Z</time>
      </trkpt>
      <trkpt lat="50.83796" lon="1.596">
        <ele>45.1</ele>
        <time>2020-06-22T18:49:33Z</time>
      </trkpt>
      <trkpt lat="50.83799" lon="1.59605">
        <ele>45.2</ele>
        <time>2020-06-22T18:49:34Z</time>
      </trkpt>
      <trkpt lat="50.83803" lon="1.59611">
        <ele>45.5</ele>
        <time>2020-06-22T18:49:35Z</time>
      </trkpt>
      <trkpt lat="50.83807" lon="1.59617">
        <ele>45.7</ele>
        <time>2020-06-22T18:49:36Z</time>
      </trkpt>
      <trkpt lat="50.83811" lon="1.59623">
        <ele>45.9</ele>
        <time>2020-06-22T18:49:37Z</time>
      </trkpt>
      <trkpt lat="50.83814" lon="1.59629">
        <ele>46.1</ele>
        <time>2020-06-22T18:49:38Z</time>
      </trkpt>
      <trkpt lat="50.83816" lon="1.59635">
        <ele>46.3</ele>
        <time>2020-06-22T18:49:39Z</time>
      </trkpt>
      <trkpt lat="50.83819" lon="1.59641">
        <ele>46.5</ele>
        <time>2020-06-22T18:49:40Z</time>
      </trkpt>
      <trkpt lat="50.83822" lon="1.59649">
        <ele>46.7</ele>
        <time>2020-06-22T18:49:41Z</time>
      </trkpt>
      <trkpt lat="50.83824" lon="1.59655">
        <ele>46.9</ele>
        <time>2020-06-22T18:49:42Z</time>
      </trkpt>
      <trkpt lat="50.83827" lon="1.59661">
        <ele>47.1</ele>
        <time>2020-06-22T18:49:43Z</time>
      </trkpt>
      <trkpt lat="50.8383" lon="1.59667">
        <ele>47.3</ele>
        <time>2020-06-22T18:49:44Z</time>
      </trkpt>
      <trkpt lat="50.83832" lon="1.59674">
        <ele>47.5</ele>
        <time>2020-06-22T18:49:45Z</time>
      </trkpt>
      <trkpt lat="50.83835" lon="1.5968">
        <ele>47.7</ele>
        <time>2020-06-22T18:49:46Z</time>
      </trkpt>
      <trkpt lat="50.83837" lon="1.59685">
        <ele>47.9</ele>
        <time>2020-06-22T18:49:47Z</time>
      </trkpt>
      <trkpt lat="50.8384" lon="1.59692">
        <ele>48.2</ele>
        <time>2020-06-22T18:49:48Z</time>
      </trkpt>
      <trkpt lat="50.83842" lon="1.597">
        <ele>48.4</ele>
        <time>2020-06-22T18:49:49Z</time>
      </trkpt>
      <trkpt lat="50.83846" lon="1.59707">
        <ele>48.7</ele>
        <time>2020-06-22T18:49:50Z</time>
      </trkpt>
      <trkpt lat="50.83849" lon="1.59713">
        <ele>49</ele>
        <time>2020-06-22T18:49:51Z</time>
      </trkpt>
      <trkpt lat="50.83853" lon="1.59721">
        <ele>49.3</ele>
        <time>2020-06-22T18:49:52Z</time>
      </trkpt>
      <trkpt lat="50.83856" lon="1.59729">
        <ele>49.6</ele>
        <time>2020-06-22T18:49:53Z</time>
      </trkpt>
      <trkpt lat="50.83859" lon="1.59736">
        <ele>49.8</ele>
        <time>2020-06-22T18:49:54Z</time>
      </trkpt>
      <trkpt lat="50.83862" lon="1.59742">
        <ele>50.1</ele>
        <time>2020-06-22T18:49:55Z</time>
      </trkpt>
      <trkpt lat="50.83864" lon="1.59749">
        <ele>50.3</ele>
        <time>2020-06-22T18:49:56Z</time>
      </trkpt>
      <trkpt lat="50.83867" lon="1.59755">
        <ele>50.5</ele>
        <time>2020-06-22T18:49:57Z</time>
      </trkpt>
      <trkpt lat="50.83869" lon="1.59761">
        <ele>50.8</ele>
        <time>2020-06-22T18:49:58Z</time>
      </trkpt>
      <trkpt lat="50.83872" lon="1.59767">
        <ele>51</ele>
        <time>2020-06-22T18:49:59Z</time>
      </trkpt>
      <trkpt lat="50.83875" lon="1.59774">
        <ele>51.3</ele>
        <time>2020-06-22T18:50:00Z</time>
      </trkpt>
      <trkpt lat="50.83877" lon="1.59781">
        <ele>51.5</ele>
        <time>2020-06-22T18:50:01Z</time>
      </trkpt>
      <trkpt lat="50.83879" lon="1.59788">
        <ele>51.7</ele>
        <time>2020-06-22T18:50:02Z</time>
      </trkpt>
      <trkpt lat="50.83882" lon="1.59794">
        <ele>52</ele>
        <time>2020-06-22T18:50:03Z</time>
      </trkpt>
      <trkpt lat="50.83885" lon="1.598">
        <ele>52.2</ele>
        <time>2020-06-22T18:50:04Z</time>
      </trkpt>
      <trkpt lat="50.83887" lon="1.59806">
        <ele>52.4</ele>
        <time>2020-06-22T18:50:05Z</time>
      </trkpt>
      <trkpt lat="50.8389" lon="1.59812">
        <ele>52.5</ele>
        <time>2020-06-22T18:50:06Z</time>
      </trkpt>
      <trkpt lat="50.83892" lon="1.59817">
        <ele>52.7</ele>
        <time>2020-06-22T18:50:07Z</time>
      </trkpt>
      <trkpt lat="50.83895" lon="1.59822">
        <ele>52.7</ele>
        <time>2020-06-22T18:50:08Z</time>
      </trkpt>
      <trkpt lat="50.83897" lon="1.59826">
        <ele>52.6</ele>
        <time>2020-06-22T18:50:09Z</time>
      </trkpt>
      <trkpt lat="50.83899" lon="1.5983">
        <ele>52.6</ele>
        <time>2020-06-22T18:50:10Z</time>
      </trkpt>
      <trkpt lat="50.839" lon="1.59832">
        <ele>52.6</ele>
        <time>2020-06-22T18:50:11Z</time>
      </trkpt>
      <trkpt lat="50.83901" lon="1.59834">
        <ele>52.6</ele>
        <time>2020-06-22T18:50:12Z</time>
      </trkpt>
      <trkpt lat="50.83901" lon="1.59837">
        <ele>52.6</ele>
        <time>2020-06-22T18:50:13Z</time>
      </trkpt>
      <trkpt lat="50.83902" lon="1.59839">
        <ele>52.6</ele>
        <time>2020-06-22T18:50:14Z</time>
      </trkpt>
      <trkpt lat="50.83903" lon="1.5984">
        <ele>52.6</ele>
        <time>2020-06-22T18:50:15Z</time>
      </trkpt>
      <trkpt lat="50.83904" lon="1.59842">
        <ele>52.6</ele>
        <time>2020-06-22T18:50:16Z</time>
      </trkpt>
      <trkpt lat="50.83905" lon="1.59843">
        <ele>52.6</ele>
        <time>2020-06-22T18:50:17Z</time>
      </trkpt>
      <trkpt lat="50.83907" lon="1.59841">
        <ele>52.6</ele>
        <time>2020-06-22T18:50:18Z</time>
      </trkpt>
      <trkpt lat="50.83907" lon="1.59838">
        <ele>52.6</ele>
        <time>2020-06-22T18:50:19Z</time>
      </trkpt>
      <trkpt lat="50.83907" lon="1.59836">
        <ele>52.6</ele>
        <time>2020-06-22T18:50:20Z</time>
      </trkpt>
      <trkpt lat="50.83906" lon="1.59832">
        <ele>52.6</ele>
        <time>2020-06-22T18:50:21Z</time>
      </trkpt>
      <trkpt lat="50.83905" lon="1.5983">
        <ele>52.6</ele>
        <time>2020-06-22T18:50:22Z</time>
      </trkpt>
      <trkpt lat="50.83906" lon="1.59825">
        <ele>52.6</ele>
        <time>2020-06-22T18:50:23Z</time>
      </trkpt>
      <trkpt lat="50.83906" lon="1.59823">
        <ele>52.6</ele>
        <time>2020-06-22T18:50:24Z</time>
      </trkpt>
      <trkpt lat="50.83906" lon="1.59819">
        <ele>52.6</ele>
        <time>2020-06-22T18:50:25Z</time>
      </trkpt>
      <trkpt lat="50.83906" lon="1.59818">
        <ele>52.6</ele>
        <time>2020-06-22T18:50:26Z</time>
      </trkpt>
      <trkpt lat="50.83906" lon="1.59816">
        <ele>52.6</ele>
        <time>2020-06-22T18:50:27Z</time>
      </trkpt>
      <trkpt lat="50.83906" lon="1.59816">
        <ele>52.6</ele>
        <time>2020-06-22T18:50:28Z</time>
      </trkpt>
      <trkpt lat="50.83906" lon="1.59816">
        <ele>52.6</ele>
        <time>2020-06-22T18:50:29Z</time>
      </trkpt>
      <trkpt lat="50.83906" lon="1.59816">
        <ele>52.6</ele>
        <time>2020-06-22T18:50:30Z</time>
      </trkpt>
      <trkpt lat="50.83905" lon="1.59816">
        <ele>52.6</ele>
        <time>2020-06-22T18:50:31Z</time>
      </trkpt>
      <trkpt lat="50.83905" lon="1.59816">
        <ele>52.6</ele>
        <time>2020-06-22T18:50:32Z</time>
      </trkpt>
      <trkpt lat="50.83906" lon="1.59816">
        <ele>52.6</ele>
        <time>2020-06-22T18:50:33Z</time>
      </trkpt>
      <trkpt lat="50.83906" lon="1.59815">
        <ele>52.6</ele>
        <time>2020-06-22T18:50:34Z</time>
      </trkpt>
      <trkpt lat="50.83906" lon="1.59815">
        <ele>52.6</ele>
        <time>2020-06-22T18:50:35Z</time>
      </trkpt>
      <trkpt lat="50.83906" lon="1.59815">
        <ele>52.6</ele>
        <time>2020-06-22T18:50:36Z</time>
      </trkpt>
      <trkpt lat="50.83906" lon="1.59815">
        <ele>52.6</ele>
        <time>2020-06-22T18:50:37Z</time>
      </trkpt>
      <trkpt lat="50.8391" lon="1.59816">
        <ele>52.6</ele>
        <time>2020-06-22T18:52:20Z</time>
      </trkpt>
      <trkpt lat="50.83912" lon="1.59818">
        <ele>52.6</ele>
        <time>2020-06-22T18:52:21Z</time>
      </trkpt>
      <trkpt lat="50.83914" lon="1.5982">
        <ele>52.6</ele>
        <time>2020-06-22T18:52:22Z</time>
      </trkpt>
      <trkpt lat="50.83915" lon="1.5982">
        <ele>52.6</ele>
        <time>2020-06-22T18:52:23Z</time>
      </trkpt>
      <trkpt lat="50.83918" lon="1.59819">
        <ele>52.5</ele>
        <time>2020-06-22T18:52:24Z</time>
      </trkpt>
      <trkpt lat="50.83919" lon="1.59818">
        <ele>52.5</ele>
        <time>2020-06-22T18:52:25Z</time>
      </trkpt>
      <trkpt lat="50.83922" lon="1.59817">
        <ele>52.5</ele>
        <time>2020-06-22T18:52:26Z</time>
      </trkpt>
      <trkpt lat="50.83923" lon="1.59816">
        <ele>52.5</ele>
        <time>2020-06-22T18:52:27Z</time>
      </trkpt>
      <trkpt lat="50.83926" lon="1.59814">
        <ele>52.6</ele>
        <time>2020-06-22T18:52:28Z</time>
      </trkpt>
      <trkpt lat="50.83927" lon="1.59814">
        <ele>52.6</ele>
        <time>2020-06-22T18:52:29Z</time>
      </trkpt>
      <trkpt lat="50.8393" lon="1.59812">
        <ele>52.6</ele>
        <time>2020-06-22T18:52:30Z</time>
      </trkpt>
      <trkpt lat="50.83931" lon="1.59811">
        <ele>52.6</ele>
        <time>2020-06-22T18:52:31Z</time>
      </trkpt>
      <trkpt lat="50.83933" lon="1.59811">
        <ele>52.6</ele>
        <time>2020-06-22T18:52:32Z</time>
      </trkpt>
      <trkpt lat="50.83934" lon="1.59811">
        <ele>52.6</ele>
        <time>2020-06-22T18:52:33Z</time>
      </trkpt>
      <trkpt lat="50.83936" lon="1.59809">
        <ele>52.7</ele>
        <time>2020-06-22T18:52:34Z</time>
      </trkpt>
      <trkpt lat="50.83937" lon="1.59808">
        <ele>52.7</ele>
        <time>2020-06-22T18:52:35Z</time>
      </trkpt>
      <trkpt lat="50.83938" lon="1.59808">
        <ele>52.7</ele>
        <time>2020-06-22T18:52:36Z</time>
      </trkpt>
      <trkpt lat="50.83941" lon="1.59804">
        <ele>52.7</ele>
        <time>2020-06-22T18:52:37Z</time>
      </trkpt>
      <trkpt lat="50.83944" lon="1.598">
        <ele>52.8</ele>
        <time>2020-06-22T18:52:38Z</time>
      </trkpt>
      <trkpt lat="50.83946" lon="1.59799">
        <ele>52.8</ele>
        <time>2020-06-22T18:52:39Z</time>
      </trkpt>
      <trkpt lat="50.83949" lon="1.59794">
        <ele>52.8</ele>
        <time>2020-06-22T18:52:40Z</time>
      </trkpt>
      <trkpt lat="50.83949" lon="1.59793">
        <ele>52.9</ele>
        <time>2020-06-22T18:52:41Z</time>
      </trkpt>
      <trkpt lat="50.83951" lon="1.5979">
        <ele>52.9</ele>
        <time>2020-06-22T18:52:42Z</time>
      </trkpt>
      <trkpt lat="50.83951" lon="1.59788">
        <ele>52.9</ele>
        <time>2020-06-22T18:52:43Z</time>
      </trkpt>
      <trkpt lat="50.83954" lon="1.59785">
        <ele>52.9</ele>
        <time>2020-06-22T18:52:44Z</time>
      </trkpt>
      <trkpt lat="50.83955" lon="1.59784">
        <ele>52.9</ele>
        <time>2020-06-22T18:52:45Z</time>
      </trkpt>
      <trkpt lat="50.83958" lon="1.5978">
        <ele>53</ele>
        <time>2020-06-22T18:52:46Z</time>
      </trkpt>
      <trkpt lat="50.83959" lon="1.59779">
        <ele>53</ele>
        <time>2020-06-22T18:52:47Z</time>
      </trkpt>
      <trkpt lat="50.83961" lon="1.59775">
        <ele>53</ele>
        <time>2020-06-22T18:52:48Z</time>
      </trkpt>
      <trkpt lat="50.83964" lon="1.59773">
        <ele>53.1</ele>
        <time>2020-06-22T18:52:49Z</time>
      </trkpt>
      <trkpt lat="50.83968" lon="1.59772">
        <ele>53.1</ele>
        <time>2020-06-22T18:52:50Z</time>
      </trkpt>
      <trkpt lat="50.83971" lon="1.59771">
        <ele>53.2</ele>
        <time>2020-06-22T18:52:51Z</time>
      </trkpt>
      <trkpt lat="50.83974" lon="1.59771">
        <ele>53.2</ele>
        <time>2020-06-22T18:52:52Z</time>
      </trkpt>
      <trkpt lat="50.83978" lon="1.5977">
        <ele>53.3</ele>
        <time>2020-06-22T18:52:53Z</time>
      </trkpt>
      <trkpt lat="50.83981" lon="1.59771">
        <ele>53.4</ele>
        <time>2020-06-22T18:52:54Z</time>
      </trkpt>
      <trkpt lat="50.83984" lon="1.59772">
        <ele>53.5</ele>
        <time>2020-06-22T18:52:55Z</time>
      </trkpt>
      <trkpt lat="50.83988" lon="1.59774">
        <ele>53.7</ele>
        <time>2020-06-22T18:52:56Z</time>
      </trkpt>
      <trkpt lat="50.83992" lon="1.59777">
        <ele>53.8</ele>
        <time>2020-06-22T18:52:57Z</time>
      </trkpt>
      <trkpt lat="50.83996" lon="1.59781">
        <ele>54</ele>
        <time>2020-06-22T18:52:58Z</time>
      </trkpt>
      <trkpt lat="50.83999" lon="1.59784">
        <ele>54.2</ele>
        <time>2020-06-22T18:52:59Z</time>
      </trkpt>
      <trkpt lat="50.84003" lon="1.59787">
        <ele>54.3</ele>
        <time>2020-06-22T18:53:00Z</time>
      </trkpt>
      <trkpt lat="50.84006" lon="1.59791">
        <ele>54.4</ele>
        <time>2020-06-22T18:53:01Z</time>
      </trkpt>
      <trkpt lat="50.84009" lon="1.59794">
        <ele>54.6</ele>
        <time>2020-06-22T18:53:02Z</time>
      </trkpt>
      <trkpt lat="50.84012" lon="1.59796">
        <ele>54.7</ele>
        <time>2020-06-22T18:53:03Z</time>
      </trkpt>
      <trkpt lat="50.84016" lon="1.59798">
        <ele>54.8</ele>
        <time>2020-06-22T18:53:04Z</time>
      </trkpt>
      <trkpt lat="50.84019" lon="1.59802">
        <ele>55</ele>
        <time>2020-06-22T18:53:05Z</time>
      </trkpt>
      <trkpt lat="50.84022" lon="1.59805">
        <ele>55.1</ele>
        <time>2020-06-22T18:53:06Z</time>
      </trkpt>
      <trkpt lat="50.84024" lon="1.59807">
        <ele>55.3</ele>
        <time>2020-06-22T18:53:07Z</time>
      </trkpt>
      <trkpt lat="50.84027" lon="1.59807">
        <ele>55.4</ele>
        <time>2020-06-22T18:53:08Z</time>
      </trkpt>
      <trkpt lat="50.84031" lon="1.59808">
        <ele>55.6</ele>
        <time>2020-06-22T18:53:09Z</time>
      </trkpt>
      <trkpt lat="50.84036" lon="1.59808">
        <ele>55.8</ele>
        <time>2020-06-22T18:53:10Z</time>
      </trkpt>
      <trkpt lat="50.84041" lon="1.59809">
        <ele>56.1</ele>
        <time>2020-06-22T18:53:11Z</time>
      </trkpt>
      <trkpt lat="50.84046" lon="1.59813">
        <ele>56.3</ele>
        <time>2020-06-22T18:53:12Z</time>
      </trkpt>
      <trkpt lat="50.8405" lon="1.59815">
        <ele>56.6</ele>
        <time>2020-06-22T18:53:13Z</time>
      </trkpt>
      <trkpt lat="50.84054" lon="1.59815">
        <ele>56.7</ele>
        <time>2020-06-22T18:53:14Z</time>
      </trkpt>
      <trkpt lat="50.84059" lon="1.59816">
        <ele>56.9</ele>
        <time>2020-06-22T18:53:15Z</time>
      </trkpt>
      <trkpt lat="50.84063" lon="1.59816">
        <ele>57</ele>
        <time>2020-06-22T18:53:16Z</time>
      </trkpt>
      <trkpt lat="50.84067" lon="1.59817">
        <ele>57.1</ele>
        <time>2020-06-22T18:53:17Z</time>
      </trkpt>
      <trkpt lat="50.84071" lon="1.59817">
        <ele>57.2</ele>
        <time>2020-06-22T18:53:18Z</time>
      </trkpt>
      <trkpt lat="50.84075" lon="1.59817">
        <ele>57.3</ele>
        <time>2020-06-22T18:53:19Z</time>
      </trkpt>
      <trkpt lat="50.84078" lon="1.59819">
        <ele>57.4</ele>
        <time>2020-06-22T18:53:20Z</time>
      </trkpt>
      <trkpt lat="50.84083" lon="1.5982">
        <ele>57.4</ele>
        <time>2020-06-22T18:53:21Z</time>
      </trkpt>
      <trkpt lat="50.84086" lon="1.5982">
        <ele>57.4</ele>
        <time>2020-06-22T18:53:22Z</time>
      </trkpt>
      <trkpt lat="50.84089" lon="1.5982">
        <ele>57.4</ele>
        <time>2020-06-22T18:53:23Z</time>
      </trkpt>
      <trkpt lat="50.84093" lon="1.59818">
        <ele>57.4</ele>
        <time>2020-06-22T18:53:24Z</time>
      </trkpt>
      <trkpt lat="50.84096" lon="1.59817">
        <ele>57.4</ele>
        <time>2020-06-22T18:53:25Z</time>
      </trkpt>
      <trkpt lat="50.841" lon="1.59816">
        <ele>57.4</ele>
        <time>2020-06-22T18:53:26Z</time>
      </trkpt>
      <trkpt lat="50.84103" lon="1.59815">
        <ele>57.4</ele>
        <time>2020-06-22T18:53:27Z</time>
      </trkpt>
      <trkpt lat="50.84107" lon="1.59814">
        <ele>57.3</ele>
        <time>2020-06-22T18:53:28Z</time>
      </trkpt>
      <trkpt lat="50.84112" lon="1.59813">
        <ele>57.3</ele>
        <time>2020-06-22T18:53:29Z</time>
      </trkpt>
      <trkpt lat="50.84116" lon="1.59813">
        <ele>57.3</ele>
        <time>2020-06-22T18:53:30Z</time>
      </trkpt>
      <trkpt lat="50.84121" lon="1.59813">
        <ele>57.2</ele>
        <time>2020-06-22T18:53:31Z</time>
      </trkpt>
      <trkpt lat="50.84126" lon="1.59812">
        <ele>57.1</ele>
        <time>2020-06-22T18:53:32Z</time>
      </trkpt>
      <trkpt lat="50.84131" lon="1.59811">
        <ele>57</ele>
        <time>2020-06-22T18:53:33Z</time>
      </trkpt>
      <trkpt lat="50.84136" lon="1.5981">
        <ele>56.9</ele>
        <time>2020-06-22T18:53:34Z</time>
      </trkpt>
      <trkpt lat="50.84142" lon="1.59809">
        <ele>56.9</ele>
        <time>2020-06-22T18:53:35Z</time>
      </trkpt>
      <trkpt lat="50.84147" lon="1.59807">
        <ele>56.8</ele>
        <time>2020-06-22T18:53:36Z</time>
      </trkpt>
      <trkpt lat="50.84152" lon="1.59806">
        <ele>56.7</ele>
        <time>2020-06-22T18:53:37Z</time>
      </trkpt>
      <trkpt lat="50.84157" lon="1.59807">
        <ele>56.7</ele>
        <time>2020-06-22T18:53:38Z</time>
      </trkpt>
      <trkpt lat="50.84163" lon="1.59806">
        <ele>56.6</ele>
        <time>2020-06-22T18:53:39Z</time>
      </trkpt>
      <trkpt lat="50.84168" lon="1.59804">
        <ele>56.6</ele>
        <time>2020-06-22T18:53:40Z</time>
      </trkpt>
      <trkpt lat="50.84172" lon="1.59801">
        <ele>56.5</ele>
        <time>2020-06-22T18:53:41Z</time>
      </trkpt>
      <trkpt lat="50.84176" lon="1.59798">
        <ele>56.5</ele>
        <time>2020-06-22T18:53:42Z</time>
      </trkpt>
      <trkpt lat="50.84181" lon="1.59796">
        <ele>56.4</ele>
        <time>2020-06-22T18:53:43Z</time>
      </trkpt>
      <trkpt lat="50.84186" lon="1.59796">
        <ele>56.4</ele>
        <time>2020-06-22T18:53:44Z</time>
      </trkpt>
      <trkpt lat="50.84191" lon="1.59794">
        <ele>56.3</ele>
        <time>2020-06-22T18:53:45Z</time>
      </trkpt>
      <trkpt lat="50.84196" lon="1.59793">
        <ele>56.3</ele>
        <time>2020-06-22T18:53:46Z</time>
      </trkpt>
      <trkpt lat="50.84201" lon="1.59792">
        <ele>56.3</ele>
        <time>2020-06-22T18:53:47Z</time>
      </trkpt>
      <trkpt lat="50.84205" lon="1.5979">
        <ele>56.2</ele>
        <time>2020-06-22T18:53:48Z</time>
      </trkpt>
      <trkpt lat="50.84209" lon="1.59788">
        <ele>56.2</ele>
        <time>2020-06-22T18:53:49Z</time>
      </trkpt>
      <trkpt lat="50.84214" lon="1.59786">
        <ele>56.1</ele>
        <time>2020-06-22T18:53:50Z</time>
      </trkpt>
      <trkpt lat="50.84218" lon="1.59787">
        <ele>56.1</ele>
        <time>2020-06-22T18:53:51Z</time>
      </trkpt>
      <trkpt lat="50.84222" lon="1.59785">
        <ele>56</ele>
        <time>2020-06-22T18:53:52Z</time>
      </trkpt>
      <trkpt lat="50.84227" lon="1.59783">
        <ele>55.9</ele>
        <time>2020-06-22T18:53:53Z</time>
      </trkpt>
      <trkpt lat="50.84231" lon="1.59782">
        <ele>55.8</ele>
        <time>2020-06-22T18:53:54Z</time>
      </trkpt>
      <trkpt lat="50.84235" lon="1.5978">
        <ele>55.8</ele>
        <time>2020-06-22T18:53:55Z</time>
      </trkpt>
      <trkpt lat="50.84239" lon="1.59779">
        <ele>55.7</ele>
        <time>2020-06-22T18:53:56Z</time>
      </trkpt>
      <trkpt lat="50.84244" lon="1.59776">
        <ele>55.6</ele>
        <time>2020-06-22T18:53:57Z</time>
      </trkpt>
      <trkpt lat="50.84248" lon="1.59775">
        <ele>55.5</ele>
        <time>2020-06-22T18:53:58Z</time>
      </trkpt>
      <trkpt lat="50.84252" lon="1.59772">
        <ele>55.4</ele>
        <time>2020-06-22T18:53:59Z</time>
      </trkpt>
      <trkpt lat="50.84257" lon="1.59769">
        <ele>55.4</ele>
        <time>2020-06-22T18:54:00Z</time>
      </trkpt>
      <trkpt lat="50.84262" lon="1.59767">
        <ele>55.3</ele>
        <time>2020-06-22T18:54:01Z</time>
      </trkpt>
      <trkpt lat="50.84267" lon="1.59764">
        <ele>55.2</ele>
        <time>2020-06-22T18:54:02Z</time>
      </trkpt>
      <trkpt lat="50.84272" lon="1.59764">
        <ele>55.1</ele>
        <time>2020-06-22T18:54:03Z</time>
      </trkpt>
      <trkpt lat="50.84276" lon="1.59763">
        <ele>55</ele>
        <time>2020-06-22T18:54:04Z</time>
      </trkpt>
      <trkpt lat="50.8428" lon="1.5976">
        <ele>55</ele>
        <time>2020-06-22T18:54:05Z</time>
      </trkpt>
      <trkpt lat="50.84285" lon="1.5976">
        <ele>54.9</ele>
        <time>2020-06-22T18:54:06Z</time>
      </trkpt>
      <trkpt lat="50.8429" lon="1.59759">
        <ele>54.8</ele>
        <time>2020-06-22T18:54:07Z</time>
      </trkpt>
      <trkpt lat="50.84293" lon="1.59758">
        <ele>54.6</ele>
        <time>2020-06-22T18:54:08Z</time>
      </trkpt>
      <trkpt lat="50.84298" lon="1.59756">
        <ele>54.5</ele>
        <time>2020-06-22T18:54:09Z</time>
      </trkpt>
      <trkpt lat="50.84302" lon="1.59754">
        <ele>54.3</ele>
        <time>2020-06-22T18:54:10Z</time>
      </trkpt>
      <trkpt lat="50.84307" lon="1.59752">
        <ele>54.1</ele>
        <time>2020-06-22T18:54:11Z</time>
      </trkpt>
      <trkpt lat="50.84312" lon="1.59749">
        <ele>53.9</ele>
        <time>2020-06-22T18:54:12Z</time>
      </trkpt>
      <trkpt lat="50.84318" lon="1.59746">
        <ele>53.6</ele>
        <time>2020-06-22T18:54:13Z</time>
      </trkpt>
      <trkpt lat="50.84324" lon="1.59745">
        <ele>53.3</ele>
        <time>2020-06-22T18:54:14Z</time>
      </trkpt>
      <trkpt lat="50.8433" lon="1.59742">
        <ele>53.1</ele>
        <time>2020-06-22T18:54:15Z</time>
      </trkpt>
      <trkpt lat="50.84336" lon="1.5974">
        <ele>52.9</ele>
        <time>2020-06-22T18:54:16Z</time>
      </trkpt>
      <trkpt lat="50.84342" lon="1.59738">
        <ele>52.7</ele>
        <time>2020-06-22T18:54:17Z</time>
      </trkpt>
      <trkpt lat="50.84348" lon="1.59738">
        <ele>52.4</ele>
        <time>2020-06-22T18:54:18Z</time>
      </trkpt>
      <trkpt lat="50.84354" lon="1.59736">
        <ele>52.2</ele>
        <time>2020-06-22T18:54:19Z</time>
      </trkpt>
      <trkpt lat="50.8436" lon="1.59734">
        <ele>51.9</ele>
        <time>2020-06-22T18:54:20Z</time>
      </trkpt>
      <trkpt lat="50.84367" lon="1.59732">
        <ele>51.6</ele>
        <time>2020-06-22T18:54:21Z</time>
      </trkpt>
      <trkpt lat="50.84373" lon="1.5973">
        <ele>51.4</ele>
        <time>2020-06-22T18:54:22Z</time>
      </trkpt>
      <trkpt lat="50.8438" lon="1.59728">
        <ele>51.1</ele>
        <time>2020-06-22T18:54:23Z</time>
      </trkpt>
      <trkpt lat="50.84386" lon="1.59726">
        <ele>50.9</ele>
        <time>2020-06-22T18:54:24Z</time>
      </trkpt>
      <trkpt lat="50.84392" lon="1.59724">
        <ele>50.7</ele>
        <time>2020-06-22T18:54:25Z</time>
      </trkpt>
      <trkpt lat="50.84398" lon="1.59722">
        <ele>50.5</ele>
        <time>2020-06-22T18:54:26Z</time>
      </trkpt>
      <trkpt lat="50.84404" lon="1.59721">
        <ele>50.2</ele>
        <time>2020-06-22T18:54:27Z</time>
      </trkpt>
      <trkpt lat="50.8441" lon="1.5972">
        <ele>49.9</ele>
        <time>2020-06-22T18:54:28Z</time>
      </trkpt>
      <trkpt lat="50.84416" lon="1.59719">
        <ele>50</ele>
        <time>2020-06-22T18:54:29Z</time>
      </trkpt>
      <trkpt lat="50.84422" lon="1.59719">
        <ele>50.1</ele>
        <time>2020-06-22T18:54:30Z</time>
      </trkpt>
      <trkpt lat="50.84429" lon="1.59719">
        <ele>50.1</ele>
        <time>2020-06-22T18:54:31Z</time>
      </trkpt>
      <trkpt lat="50.84435" lon="1.5972">
        <ele>50</ele>
        <time>2020-06-22T18:54:32Z</time>
      </trkpt>
      <trkpt lat="50.84441" lon="1.59721">
        <ele>50</ele>
        <time>2020-06-22T18:54:33Z</time>
      </trkpt>
      <trkpt lat="50.84446" lon="1.59722">
        <ele>50</ele>
        <time>2020-06-22T18:54:34Z</time>
      </trkpt>
      <trkpt lat="50.84452" lon="1.59723">
        <ele>49.9</ele>
        <time>2020-06-22T18:54:35Z</time>
      </trkpt>
      <trkpt lat="50.84457" lon="1.59726">
        <ele>49.9</ele>
        <time>2020-06-22T18:54:36Z</time>
      </trkpt>
      <trkpt lat="50.84463" lon="1.59727">
        <ele>50</ele>
        <time>2020-06-22T18:54:37Z</time>
      </trkpt>
      <trkpt lat="50.84467" lon="1.59729">
        <ele>50</ele>
        <time>2020-06-22T18:54:38Z</time>
      </trkpt>
      <trkpt lat="50.84472" lon="1.59732">
        <ele>50</ele>
        <time>2020-06-22T18:54:39Z</time>
      </trkpt>
      <trkpt lat="50.84477" lon="1.59736">
        <ele>50.1</ele>
        <time>2020-06-22T18:54:40Z</time>
      </trkpt>
      <trkpt lat="50.84483" lon="1.59739">
        <ele>50.3</ele>
        <time>2020-06-22T18:54:41Z</time>
      </trkpt>
      <trkpt lat="50.84489" lon="1.59742">
        <ele>50.5</ele>
        <time>2020-06-22T18:54:42Z</time>
      </trkpt>
      <trkpt lat="50.84495" lon="1.59743">
        <ele>50.8</ele>
        <time>2020-06-22T18:54:43Z</time>
      </trkpt>
      <trkpt lat="50.84501" lon="1.59742">
        <ele>51</ele>
        <time>2020-06-22T18:54:44Z</time>
      </trkpt>
      <trkpt lat="50.84507" lon="1.5974">
        <ele>51.3</ele>
        <time>2020-06-22T18:54:45Z</time>
      </trkpt>
      <trkpt lat="50.84511" lon="1.59737">
        <ele>51.6</ele>
        <time>2020-06-22T18:54:46Z</time>
      </trkpt>
      <trkpt lat="50.84516" lon="1.59734">
        <ele>51.9</ele>
        <time>2020-06-22T18:54:47Z</time>
      </trkpt>
      <trkpt lat="50.84522" lon="1.59731">
        <ele>52.2</ele>
        <time>2020-06-22T18:54:48Z</time>
      </trkpt>
      <trkpt lat="50.84527" lon="1.59729">
        <ele>52.5</ele>
        <time>2020-06-22T18:54:49Z</time>
      </trkpt>
      <trkpt lat="50.84531" lon="1.59726">
        <ele>52.7</ele>
        <time>2020-06-22T18:54:50Z</time>
      </trkpt>
      <trkpt lat="50.84536" lon="1.59724">
        <ele>52.9</ele>
        <time>2020-06-22T18:54:51Z</time>
      </trkpt>
      <trkpt lat="50.8454" lon="1.59721">
        <ele>53.1</ele>
        <time>2020-06-22T18:54:52Z</time>
      </trkpt>
      <trkpt lat="50.84542" lon="1.59719">
        <ele>53.2</ele>
        <time>2020-06-22T18:54:53Z</time>
      </trkpt>
      <trkpt lat="50.84546" lon="1.59716">
        <ele>53.4</ele>
        <time>2020-06-22T18:54:54Z</time>
      </trkpt>
      <trkpt lat="50.84549" lon="1.59714">
        <ele>53.5</ele>
        <time>2020-06-22T18:54:55Z</time>
      </trkpt>
      <trkpt lat="50.84556" lon="1.59713">
        <ele>53.7</ele>
        <time>2020-06-22T18:54:56Z</time>
      </trkpt>
      <trkpt lat="50.8456" lon="1.59712">
        <ele>53.8</ele>
        <time>2020-06-22T18:54:57Z</time>
      </trkpt>
      <trkpt lat="50.84564" lon="1.5971">
        <ele>53.9</ele>
        <time>2020-06-22T18:54:58Z</time>
      </trkpt>
      <trkpt lat="50.84569" lon="1.59707">
        <ele>54</ele>
        <time>2020-06-22T18:54:59Z</time>
      </trkpt>
      <trkpt lat="50.84574" lon="1.59705">
        <ele>54.1</ele>
        <time>2020-06-22T18:55:00Z</time>
      </trkpt>
      <trkpt lat="50.84578" lon="1.59703">
        <ele>54.2</ele>
        <time>2020-06-22T18:55:01Z</time>
      </trkpt>
      <trkpt lat="50.84584" lon="1.59701">
        <ele>54.3</ele>
        <time>2020-06-22T18:55:02Z</time>
      </trkpt>
      <trkpt lat="50.84589" lon="1.59698">
        <ele>54.5</ele>
        <time>2020-06-22T18:55:03Z</time>
      </trkpt>
      <trkpt lat="50.84594" lon="1.59696">
        <ele>54.5</ele>
        <time>2020-06-22T18:55:04Z</time>
      </trkpt>
      <trkpt lat="50.84599" lon="1.59693">
        <ele>54.6</ele>
        <time>2020-06-22T18:55:05Z</time>
      </trkpt>
      <trkpt lat="50.84604" lon="1.59693">
        <ele>54.7</ele>
        <time>2020-06-22T18:55:06Z</time>
      </trkpt>
      <trkpt lat="50.84609" lon="1.59692">
        <ele>54.8</ele>
        <time>2020-06-22T18:55:07Z</time>
      </trkpt>
      <trkpt lat="50.84613" lon="1.59691">
        <ele>54.9</ele>
        <time>2020-06-22T18:55:08Z</time>
      </trkpt>
      <trkpt lat="50.84617" lon="1.59689">
        <ele>55</ele>
        <time>2020-06-22T18:55:09Z</time>
      </trkpt>
      <trkpt lat="50.84622" lon="1.59687">
        <ele>55.1</ele>
        <time>2020-06-22T18:55:10Z</time>
      </trkpt>
      <trkpt lat="50.84627" lon="1.59685">
        <ele>55.2</ele>
        <time>2020-06-22T18:55:11Z</time>
      </trkpt>
      <trkpt lat="50.84631" lon="1.59683">
        <ele>55.3</ele>
        <time>2020-06-22T18:55:12Z</time>
      </trkpt>
      <trkpt lat="50.84635" lon="1.5968">
        <ele>55.4</ele>
        <time>2020-06-22T18:55:13Z</time>
      </trkpt>
      <trkpt lat="50.8464" lon="1.59677">
        <ele>55.5</ele>
        <time>2020-06-22T18:55:14Z</time>
      </trkpt>
      <trkpt lat="50.84644" lon="1.59675">
        <ele>55.5</ele>
        <time>2020-06-22T18:55:15Z</time>
      </trkpt>
      <trkpt lat="50.84648" lon="1.59675">
        <ele>55.6</ele>
        <time>2020-06-22T18:55:16Z</time>
      </trkpt>
      <trkpt lat="50.84652" lon="1.59674">
        <ele>55.7</ele>
        <time>2020-06-22T18:55:17Z</time>
      </trkpt>
      <trkpt lat="50.84656" lon="1.59674">
        <ele>55.7</ele>
        <time>2020-06-22T18:55:18Z</time>
      </trkpt>
      <trkpt lat="50.84659" lon="1.59675">
        <ele>55.8</ele>
        <time>2020-06-22T18:55:19Z</time>
      </trkpt>
      <trkpt lat="50.84661" lon="1.59675">
        <ele>55.8</ele>
        <time>2020-06-22T18:55:20Z</time>
      </trkpt>
      <trkpt lat="50.84664" lon="1.59676">
        <ele>55.8</ele>
        <time>2020-06-22T18:55:21Z</time>
      </trkpt>
      <trkpt lat="50.84665" lon="1.59676">
        <ele>55.8</ele>
        <time>2020-06-22T18:55:22Z</time>
      </trkpt>
      <trkpt lat="50.84668" lon="1.59676">
        <ele>55.8</ele>
        <time>2020-06-22T18:55:23Z</time>
      </trkpt>
      <trkpt lat="50.84673" lon="1.59676">
        <ele>55.8</ele>
        <time>2020-06-22T18:55:24Z</time>
      </trkpt>
      <trkpt lat="50.84674" lon="1.59677">
        <ele>55.8</ele>
        <time>2020-06-22T18:55:25Z</time>
      </trkpt>
      <trkpt lat="50.84678" lon="1.59678">
        <ele>55.8</ele>
        <time>2020-06-22T18:55:26Z</time>
      </trkpt>
      <trkpt lat="50.84681" lon="1.5968">
        <ele>55.8</ele>
        <time>2020-06-22T18:55:27Z</time>
      </trkpt>
      <trkpt lat="50.84685" lon="1.59681">
        <ele>55.8</ele>
        <time>2020-06-22T18:55:28Z</time>
      </trkpt>
      <trkpt lat="50.84689" lon="1.5968">
        <ele>55.7</ele>
        <time>2020-06-22T18:55:29Z</time>
      </trkpt>
      <trkpt lat="50.84693" lon="1.59681">
        <ele>55.7</ele>
        <time>2020-06-22T18:55:30Z</time>
      </trkpt>
      <trkpt lat="50.84698" lon="1.59682">
        <ele>55.6</ele>
        <time>2020-06-22T18:55:31Z</time>
      </trkpt>
      <trkpt lat="50.84702" lon="1.59682">
        <ele>55.6</ele>
        <time>2020-06-22T18:55:32Z</time>
      </trkpt>
      <trkpt lat="50.84706" lon="1.59684">
        <ele>55.6</ele>
        <time>2020-06-22T18:55:33Z</time>
      </trkpt>
      <trkpt lat="50.8471" lon="1.59684">
        <ele>55.6</ele>
        <time>2020-06-22T18:55:34Z</time>
      </trkpt>
      <trkpt lat="50.84714" lon="1.59685">
        <ele>55.6</ele>
        <time>2020-06-22T18:55:35Z</time>
      </trkpt>
      <trkpt lat="50.84717" lon="1.59686">
        <ele>55.6</ele>
        <time>2020-06-22T18:55:36Z</time>
      </trkpt>
      <trkpt lat="50.84722" lon="1.59686">
        <ele>55.6</ele>
        <time>2020-06-22T18:55:37Z</time>
      </trkpt>
      <trkpt lat="50.84727" lon="1.59686">
        <ele>55.6</ele>
        <time>2020-06-22T18:55:38Z</time>
      </trkpt>
      <trkpt lat="50.84732" lon="1.59687">
        <ele>55.5</ele>
        <time>2020-06-22T18:55:39Z</time>
      </trkpt>
      <trkpt lat="50.84736" lon="1.59688">
        <ele>55.5</ele>
        <time>2020-06-22T18:55:40Z</time>
      </trkpt>
      <trkpt lat="50.84741" lon="1.59688">
        <ele>55.5</ele>
        <time>2020-06-22T18:55:41Z</time>
      </trkpt>
      <trkpt lat="50.84746" lon="1.59689">
        <ele>55.4</ele>
        <time>2020-06-22T18:55:42Z</time>
      </trkpt>
      <trkpt lat="50.8475" lon="1.59689">
        <ele>55.4</ele>
        <time>2020-06-22T18:55:43Z</time>
      </trkpt>
      <trkpt lat="50.84755" lon="1.59689">
        <ele>55.4</ele>
        <time>2020-06-22T18:55:44Z</time>
      </trkpt>
      <trkpt lat="50.8476" lon="1.59689">
        <ele>55.3</ele>
        <time>2020-06-22T18:55:45Z</time>
      </trkpt>
      <trkpt lat="50.84764" lon="1.59689">
        <ele>55.3</ele>
        <time>2020-06-22T18:55:46Z</time>
      </trkpt>
      <trkpt lat="50.84768" lon="1.5969">
        <ele>55.3</ele>
        <time>2020-06-22T18:55:47Z</time>
      </trkpt>
      <trkpt lat="50.84772" lon="1.5969">
        <ele>55.3</ele>
        <time>2020-06-22T18:55:48Z</time>
      </trkpt>
      <trkpt lat="50.84775" lon="1.59691">
        <ele>55.2</ele>
        <time>2020-06-22T18:55:49Z</time>
      </trkpt>
      <trkpt lat="50.8478" lon="1.59691">
        <ele>55.2</ele>
        <time>2020-06-22T18:55:50Z</time>
      </trkpt>
      <trkpt lat="50.84785" lon="1.59692">
        <ele>55.1</ele>
        <time>2020-06-22T18:55:51Z</time>
      </trkpt>
      <trkpt lat="50.8479" lon="1.59693">
        <ele>55.1</ele>
        <time>2020-06-22T18:55:52Z</time>
      </trkpt>
      <trkpt lat="50.84795" lon="1.59694">
        <ele>55</ele>
        <time>2020-06-22T18:55:53Z</time>
      </trkpt>
      <trkpt lat="50.84799" lon="1.59694">
        <ele>55</ele>
        <time>2020-06-22T18:55:54Z</time>
      </trkpt>
      <trkpt lat="50.84805" lon="1.59693">
        <ele>54.9</ele>
        <time>2020-06-22T18:55:55Z</time>
      </trkpt>
      <trkpt lat="50.84811" lon="1.59691">
        <ele>54.9</ele>
        <time>2020-06-22T18:55:56Z</time>
      </trkpt>
      <trkpt lat="50.84815" lon="1.59687">
        <ele>54.8</ele>
        <time>2020-06-22T18:55:57Z</time>
      </trkpt>
      <trkpt lat="50.8482" lon="1.59682">
        <ele>54.8</ele>
        <time>2020-06-22T18:55:58Z</time>
      </trkpt>
      <trkpt lat="50.84825" lon="1.59677">
        <ele>54.7</ele>
        <time>2020-06-22T18:55:59Z</time>
      </trkpt>
      <trkpt lat="50.84829" lon="1.59673">
        <ele>54.6</ele>
        <time>2020-06-22T18:56:00Z</time>
      </trkpt>
      <trkpt lat="50.84834" lon="1.59671">
        <ele>54.5</ele>
        <time>2020-06-22T18:56:01Z</time>
      </trkpt>
      <trkpt lat="50.84838" lon="1.59667">
        <ele>54.5</ele>
        <time>2020-06-22T18:56:02Z</time>
      </trkpt>
      <trkpt lat="50.84841" lon="1.59663">
        <ele>54.4</ele>
        <time>2020-06-22T18:56:03Z</time>
      </trkpt>
      <trkpt lat="50.84845" lon="1.59659">
        <ele>54.3</ele>
        <time>2020-06-22T18:56:04Z</time>
      </trkpt>
      <trkpt lat="50.84848" lon="1.59656">
        <ele>54.2</ele>
        <time>2020-06-22T18:56:05Z</time>
      </trkpt>
      <trkpt lat="50.84852" lon="1.59652">
        <ele>54.1</ele>
        <time>2020-06-22T18:56:06Z</time>
      </trkpt>
      <trkpt lat="50.84856" lon="1.5965">
        <ele>54.1</ele>
        <time>2020-06-22T18:56:07Z</time>
      </trkpt>
      <trkpt lat="50.8486" lon="1.59648">
        <ele>54</ele>
        <time>2020-06-22T18:56:08Z</time>
      </trkpt>
      <trkpt lat="50.84865" lon="1.59647">
        <ele>54</ele>
        <time>2020-06-22T18:56:09Z</time>
      </trkpt>
      <trkpt lat="50.84869" lon="1.59646">
        <ele>53.9</ele>
        <time>2020-06-22T18:56:10Z</time>
      </trkpt>
      <trkpt lat="50.84874" lon="1.59645">
        <ele>53.9</ele>
        <time>2020-06-22T18:56:11Z</time>
      </trkpt>
      <trkpt lat="50.84878" lon="1.59644">
        <ele>53.8</ele>
        <time>2020-06-22T18:56:12Z</time>
      </trkpt>
      <trkpt lat="50.84882" lon="1.59641">
        <ele>53.8</ele>
        <time>2020-06-22T18:56:13Z</time>
      </trkpt>
      <trkpt lat="50.84887" lon="1.59642">
        <ele>53.7</ele>
        <time>2020-06-22T18:56:14Z</time>
      </trkpt>
      <trkpt lat="50.84892" lon="1.59643">
        <ele>53.6</ele>
        <time>2020-06-22T18:56:15Z</time>
      </trkpt>
      <trkpt lat="50.84896" lon="1.59641">
        <ele>53.5</ele>
        <time>2020-06-22T18:56:16Z</time>
      </trkpt>
      <trkpt lat="50.849" lon="1.59641">
        <ele>53.4</ele>
        <time>2020-06-22T18:56:17Z</time>
      </trkpt>
      <trkpt lat="50.84904" lon="1.59641">
        <ele>53.3</ele>
        <time>2020-06-22T18:56:18Z</time>
      </trkpt>
      <trkpt lat="50.84909" lon="1.5964">
        <ele>53.2</ele>
        <time>2020-06-22T18:56:19Z</time>
      </trkpt>
      <trkpt lat="50.84913" lon="1.59639">
        <ele>53</ele>
        <time>2020-06-22T18:56:20Z</time>
      </trkpt>
      <trkpt lat="50.84918" lon="1.59638">
        <ele>52.9</ele>
        <time>2020-06-22T18:56:21Z</time>
      </trkpt>
      <trkpt lat="50.84923" lon="1.59639">
        <ele>52.8</ele>
        <time>2020-06-22T18:56:22Z</time>
      </trkpt>
      <trkpt lat="50.84928" lon="1.59639">
        <ele>52.7</ele>
        <time>2020-06-22T18:56:23Z</time>
      </trkpt>
      <trkpt lat="50.84933" lon="1.59638">
        <ele>52.7</ele>
        <time>2020-06-22T18:56:24Z</time>
      </trkpt>
      <trkpt lat="50.84938" lon="1.59638">
        <ele>52.6</ele>
        <time>2020-06-22T18:56:25Z</time>
      </trkpt>
      <trkpt lat="50.84944" lon="1.59636">
        <ele>52.5</ele>
        <time>2020-06-22T18:56:26Z</time>
      </trkpt>
      <trkpt lat="50.8495" lon="1.59633">
        <ele>52.4</ele>
        <time>2020-06-22T18:56:27Z</time>
      </trkpt>
      <trkpt lat="50.84955" lon="1.59632">
        <ele>52.3</ele>
        <time>2020-06-22T18:56:28Z</time>
      </trkpt>
      <trkpt lat="50.84961" lon="1.59631">
        <ele>52.2</ele>
        <time>2020-06-22T18:56:29Z</time>
      </trkpt>
      <trkpt lat="50.84967" lon="1.5963">
        <ele>52.1</ele>
        <time>2020-06-22T18:56:30Z</time>
      </trkpt>
      <trkpt lat="50.84973" lon="1.59629">
        <ele>52</ele>
        <time>2020-06-22T18:56:31Z</time>
      </trkpt>
      <trkpt lat="50.84978" lon="1.59627">
        <ele>52</ele>
        <time>2020-06-22T18:56:32Z</time>
      </trkpt>
      <trkpt lat="50.84984" lon="1.59624">
        <ele>52</ele>
        <time>2020-06-22T18:56:33Z</time>
      </trkpt>
      <trkpt lat="50.8499" lon="1.5962">
        <ele>51.9</ele>
        <time>2020-06-22T18:56:34Z</time>
      </trkpt>
      <trkpt lat="50.84996" lon="1.59616">
        <ele>51.8</ele>
        <time>2020-06-22T18:56:35Z</time>
      </trkpt>
      <trkpt lat="50.85002" lon="1.59613">
        <ele>51.8</ele>
        <time>2020-06-22T18:56:36Z</time>
      </trkpt>
      <trkpt lat="50.85007" lon="1.5961">
        <ele>51.7</ele>
        <time>2020-06-22T18:56:37Z</time>
      </trkpt>
      <trkpt lat="50.85013" lon="1.59607">
        <ele>51.6</ele>
        <time>2020-06-22T18:56:38Z</time>
      </trkpt>
      <trkpt lat="50.85018" lon="1.59605">
        <ele>51.6</ele>
        <time>2020-06-22T18:56:39Z</time>
      </trkpt>
      <trkpt lat="50.85025" lon="1.59603">
        <ele>51.5</ele>
        <time>2020-06-22T18:56:40Z</time>
      </trkpt>
      <trkpt lat="50.8503" lon="1.59601">
        <ele>51.5</ele>
        <time>2020-06-22T18:56:41Z</time>
      </trkpt>
      <trkpt lat="50.85036" lon="1.59597">
        <ele>51.4</ele>
        <time>2020-06-22T18:56:42Z</time>
      </trkpt>
      <trkpt lat="50.85042" lon="1.59595">
        <ele>51.4</ele>
        <time>2020-06-22T18:56:43Z</time>
      </trkpt>
      <trkpt lat="50.85048" lon="1.59591">
        <ele>51.3</ele>
        <time>2020-06-22T18:56:44Z</time>
      </trkpt>
      <trkpt lat="50.85054" lon="1.59588">
        <ele>51.2</ele>
        <time>2020-06-22T18:56:45Z</time>
      </trkpt>
      <trkpt lat="50.85061" lon="1.59584">
        <ele>51.1</ele>
        <time>2020-06-22T18:56:46Z</time>
      </trkpt>
      <trkpt lat="50.85067" lon="1.59581">
        <ele>51</ele>
        <time>2020-06-22T18:56:47Z</time>
      </trkpt>
      <trkpt lat="50.85072" lon="1.5958">
        <ele>50.9</ele>
        <time>2020-06-22T18:56:48Z</time>
      </trkpt>
      <trkpt lat="50.85078" lon="1.59578">
        <ele>50.8</ele>
        <time>2020-06-22T18:56:49Z</time>
      </trkpt>
      <trkpt lat="50.85085" lon="1.59576">
        <ele>50.8</ele>
        <time>2020-06-22T18:56:50Z</time>
      </trkpt>
      <trkpt lat="50.85091" lon="1.59574">
        <ele>50.7</ele>
        <time>2020-06-22T18:56:51Z</time>
      </trkpt>
      <trkpt lat="50.85097" lon="1.59572">
        <ele>50.6</ele>
        <time>2020-06-22T18:56:52Z</time>
      </trkpt>
      <trkpt lat="50.85103" lon="1.59569">
        <ele>50.5</ele>
        <time>2020-06-22T18:56:53Z</time>
      </trkpt>
      <trkpt lat="50.8511" lon="1.59566">
        <ele>50.5</ele>
        <time>2020-06-22T18:56:54Z</time>
      </trkpt>
      <trkpt lat="50.85116" lon="1.59562">
        <ele>50.4</ele>
        <time>2020-06-22T18:56:55Z</time>
      </trkpt>
      <trkpt lat="50.85121" lon="1.59559">
        <ele>50.4</ele>
        <time>2020-06-22T18:56:56Z</time>
      </trkpt>
      <trkpt lat="50.85127" lon="1.59556">
        <ele>50.3</ele>
        <time>2020-06-22T18:56:57Z</time>
      </trkpt>
      <trkpt lat="50.85132" lon="1.59554">
        <ele>50.3</ele>
        <time>2020-06-22T18:56:58Z</time>
      </trkpt>
      <trkpt lat="50.85138" lon="1.59552">
        <ele>50.3</ele>
        <time>2020-06-22T18:56:59Z</time>
      </trkpt>
      <trkpt lat="50.85142" lon="1.59549">
        <ele>50.3</ele>
        <time>2020-06-22T18:57:00Z</time>
      </trkpt>
      <trkpt lat="50.85146" lon="1.59545">
        <ele>50.3</ele>
        <time>2020-06-22T18:57:01Z</time>
      </trkpt>
      <trkpt lat="50.8515" lon="1.59544">
        <ele>50.3</ele>
        <time>2020-06-22T18:57:02Z</time>
      </trkpt>
      <trkpt lat="50.85153" lon="1.59542">
        <ele>50.3</ele>
        <time>2020-06-22T18:57:03Z</time>
      </trkpt>
      <trkpt lat="50.85158" lon="1.59539">
        <ele>50.2</ele>
        <time>2020-06-22T18:57:04Z</time>
      </trkpt>
      <trkpt lat="50.85162" lon="1.59538">
        <ele>50.2</ele>
        <time>2020-06-22T18:57:05Z</time>
      </trkpt>
      <trkpt lat="50.85165" lon="1.59537">
        <ele>50.1</ele>
        <time>2020-06-22T18:57:06Z</time>
      </trkpt>
      <trkpt lat="50.85168" lon="1.59537">
        <ele>50.1</ele>
        <time>2020-06-22T18:57:07Z</time>
      </trkpt>
      <trkpt lat="50.85169" lon="1.59536">
        <ele>50</ele>
        <time>2020-06-22T18:57:08Z</time>
      </trkpt>
      <trkpt lat="50.85171" lon="1.59535">
        <ele>50</ele>
        <time>2020-06-22T18:57:09Z</time>
      </trkpt>
      <trkpt lat="50.85172" lon="1.59533">
        <ele>50</ele>
        <time>2020-06-22T18:57:10Z</time>
      </trkpt>
      <trkpt lat="50.85171" lon="1.59533">
        <ele>50</ele>
        <time>2020-06-22T18:57:11Z</time>
      </trkpt>
      <trkpt lat="50.85171" lon="1.59534">
        <ele>50</ele>
        <time>2020-06-22T18:57:12Z</time>
      </trkpt>
      <trkpt lat="50.85171" lon="1.59533">
        <ele>50</ele>
        <time>2020-06-22T18:57:13Z</time>
      </trkpt>
      <trkpt lat="50.8517" lon="1.59534">
        <ele>49.9</ele>
        <time>2020-06-22T18:57:14Z</time>
      </trkpt>
      <trkpt lat="50.85169" lon="1.59535">
        <ele>49.9</ele>
        <time>2020-06-22T18:57:15Z</time>
      </trkpt>
      <trkpt lat="50.85169" lon="1.59535">
        <ele>49.9</ele>
        <time>2020-06-22T18:57:16Z</time>
      </trkpt>
      <trkpt lat="50.85168" lon="1.59535">
        <ele>49.9</ele>
        <time>2020-06-22T18:57:17Z</time>
      </trkpt>
      <trkpt lat="50.85169" lon="1.59535">
        <ele>49.9</ele>
        <time>2020-06-22T18:57:18Z</time>
      </trkpt>
      <trkpt lat="50.85168" lon="1.59535">
        <ele>49.9</ele>
        <time>2020-06-22T18:57:19Z</time>
      </trkpt>
      <trkpt lat="50.85168" lon="1.59535">
        <ele>49.9</ele>
        <time>2020-06-22T18:57:20Z</time>
      </trkpt>
      <trkpt lat="50.85169" lon="1.59535">
        <ele>49.9</ele>
        <time>2020-06-22T18:57:21Z</time>
      </trkpt>
      <trkpt lat="50.85171" lon="1.59535">
        <ele>49.8</ele>
        <time>2020-06-22T18:57:22Z</time>
      </trkpt>
      <trkpt lat="50.85173" lon="1.59535">
        <ele>49.8</ele>
        <time>2020-06-22T18:57:23Z</time>
      </trkpt>
      <trkpt lat="50.85175" lon="1.59534">
        <ele>49.8</ele>
        <time>2020-06-22T18:57:28Z</time>
      </trkpt>
      <trkpt lat="50.85177" lon="1.59534">
        <ele>49.7</ele>
        <time>2020-06-22T18:57:29Z</time>
      </trkpt>
      <trkpt lat="50.85181" lon="1.59533">
        <ele>49.7</ele>
        <time>2020-06-22T18:57:30Z</time>
      </trkpt>
      <trkpt lat="50.85185" lon="1.5953">
        <ele>49.7</ele>
        <time>2020-06-22T18:57:31Z</time>
      </trkpt>
      <trkpt lat="50.85189" lon="1.59527">
        <ele>49.7</ele>
        <time>2020-06-22T18:57:32Z</time>
      </trkpt>
      <trkpt lat="50.85193" lon="1.59524">
        <ele>49.7</ele>
        <time>2020-06-22T18:57:33Z</time>
      </trkpt>
      <trkpt lat="50.85196" lon="1.59521">
        <ele>49.7</ele>
        <time>2020-06-22T18:57:34Z</time>
      </trkpt>
      <trkpt lat="50.85199" lon="1.59518">
        <ele>49.7</ele>
        <time>2020-06-22T18:57:35Z</time>
      </trkpt>
      <trkpt lat="50.85202" lon="1.59514">
        <ele>49.7</ele>
        <time>2020-06-22T18:57:36Z</time>
      </trkpt>
      <trkpt lat="50.85205" lon="1.59513">
        <ele>49.7</ele>
        <time>2020-06-22T18:57:37Z</time>
      </trkpt>
      <trkpt lat="50.85208" lon="1.59511">
        <ele>49.7</ele>
        <time>2020-06-22T18:57:38Z</time>
      </trkpt>
      <trkpt lat="50.85212" lon="1.59509">
        <ele>49.7</ele>
        <time>2020-06-22T18:57:39Z</time>
      </trkpt>
      <trkpt lat="50.85216" lon="1.59506">
        <ele>49.6</ele>
        <time>2020-06-22T18:57:40Z</time>
      </trkpt>
      <trkpt lat="50.8522" lon="1.59502">
        <ele>49.6</ele>
        <time>2020-06-22T18:57:41Z</time>
      </trkpt>
      <trkpt lat="50.85223" lon="1.59499">
        <ele>49.5</ele>
        <time>2020-06-22T18:57:42Z</time>
      </trkpt>
      <trkpt lat="50.85226" lon="1.59497">
        <ele>49.5</ele>
        <time>2020-06-22T18:57:43Z</time>
      </trkpt>
      <trkpt lat="50.8523" lon="1.59495">
        <ele>49.5</ele>
        <time>2020-06-22T18:57:44Z</time>
      </trkpt>
      <trkpt lat="50.85235" lon="1.59495">
        <ele>49.4</ele>
        <time>2020-06-22T18:57:45Z</time>
      </trkpt>
      <trkpt lat="50.85239" lon="1.59495">
        <ele>49.4</ele>
        <time>2020-06-22T18:57:46Z</time>
      </trkpt>
      <trkpt lat="50.85242" lon="1.59493">
        <ele>49.4</ele>
        <time>2020-06-22T18:57:47Z</time>
      </trkpt>
      <trkpt lat="50.85244" lon="1.59489">
        <ele>49.4</ele>
        <time>2020-06-22T18:57:48Z</time>
      </trkpt>
      <trkpt lat="50.85247" lon="1.59486">
        <ele>49.3</ele>
        <time>2020-06-22T18:57:49Z</time>
      </trkpt>
      <trkpt lat="50.8525" lon="1.59483">
        <ele>49.3</ele>
        <time>2020-06-22T18:57:50Z</time>
      </trkpt>
      <trkpt lat="50.85253" lon="1.59482">
        <ele>49.3</ele>
        <time>2020-06-22T18:57:51Z</time>
      </trkpt>
      <trkpt lat="50.85256" lon="1.5948">
        <ele>49.3</ele>
        <time>2020-06-22T18:57:52Z</time>
      </trkpt>
      <trkpt lat="50.8526" lon="1.59479">
        <ele>49.3</ele>
        <time>2020-06-22T18:57:53Z</time>
      </trkpt>
      <trkpt lat="50.85263" lon="1.59478">
        <ele>49.3</ele>
        <time>2020-06-22T18:57:54Z</time>
      </trkpt>
      <trkpt lat="50.85266" lon="1.59475">
        <ele>49.2</ele>
        <time>2020-06-22T18:57:55Z</time>
      </trkpt>
      <trkpt lat="50.85269" lon="1.59472">
        <ele>49.2</ele>
        <time>2020-06-22T18:57:56Z</time>
      </trkpt>
      <trkpt lat="50.85272" lon="1.5947">
        <ele>49.2</ele>
        <time>2020-06-22T18:57:57Z</time>
      </trkpt>
      <trkpt lat="50.85276" lon="1.59468">
        <ele>49.2</ele>
        <time>2020-06-22T18:57:58Z</time>
      </trkpt>
      <trkpt lat="50.85279" lon="1.59465">
        <ele>49.2</ele>
        <time>2020-06-22T18:57:59Z</time>
      </trkpt>
      <trkpt lat="50.8528" lon="1.59464">
        <ele>49.2</ele>
        <time>2020-06-22T18:58:00Z</time>
      </trkpt>
      <trkpt lat="50.85283" lon="1.5946">
        <ele>49.2</ele>
        <time>2020-06-22T18:58:01Z</time>
      </trkpt>
      <trkpt lat="50.85285" lon="1.59457">
        <ele>49.1</ele>
        <time>2020-06-22T18:58:02Z</time>
      </trkpt>
      <trkpt lat="50.85287" lon="1.59453">
        <ele>49.1</ele>
        <time>2020-06-22T18:58:03Z</time>
      </trkpt>
      <trkpt lat="50.85289" lon="1.59448">
        <ele>49.1</ele>
        <time>2020-06-22T18:58:04Z</time>
      </trkpt>
      <trkpt lat="50.85291" lon="1.59445">
        <ele>49</ele>
        <time>2020-06-22T18:58:05Z</time>
      </trkpt>
      <trkpt lat="50.85295" lon="1.59443">
        <ele>48.9</ele>
        <time>2020-06-22T18:58:06Z</time>
      </trkpt>
      <trkpt lat="50.85297" lon="1.59444">
        <ele>48.9</ele>
        <time>2020-06-22T18:58:07Z</time>
      </trkpt>
      <trkpt lat="50.853" lon="1.59442">
        <ele>48.8</ele>
        <time>2020-06-22T18:58:08Z</time>
      </trkpt>
      <trkpt lat="50.85303" lon="1.59441">
        <ele>48.8</ele>
        <time>2020-06-22T18:58:09Z</time>
      </trkpt>
      <trkpt lat="50.85304" lon="1.59441">
        <ele>48.8</ele>
        <time>2020-06-22T18:58:10Z</time>
      </trkpt>
      <trkpt lat="50.85306" lon="1.59441">
        <ele>48.7</ele>
        <time>2020-06-22T18:58:11Z</time>
      </trkpt>
      <trkpt lat="50.85306" lon="1.59441">
        <ele>48.7</ele>
        <time>2020-06-22T18:58:12Z</time>
      </trkpt>
      <trkpt lat="50.85306" lon="1.5944">
        <ele>48.7</ele>
        <time>2020-06-22T18:58:13Z</time>
      </trkpt>
      <trkpt lat="50.85307" lon="1.59439">
        <ele>48.7</ele>
        <time>2020-06-22T18:58:14Z</time>
      </trkpt>
      <trkpt lat="50.85307" lon="1.59439">
        <ele>48.7</ele>
        <time>2020-06-22T18:58:15Z</time>
      </trkpt>
      <trkpt lat="50.85308" lon="1.59438">
        <ele>48.7</ele>
        <time>2020-06-22T18:58:16Z</time>
      </trkpt>
      <trkpt lat="50.85308" lon="1.59437">
        <ele>48.7</ele>
        <time>2020-06-22T18:58:17Z</time>
      </trkpt>
      <trkpt lat="50.85308" lon="1.59437">
        <ele>48.6</ele>
        <time>2020-06-22T18:58:18Z</time>
      </trkpt>
      <trkpt lat="50.85309" lon="1.59436">
        <ele>48.6</ele>
        <time>2020-06-22T18:58:19Z</time>
      </trkpt>
      <trkpt lat="50.85309" lon="1.59435">
        <ele>48.6</ele>
        <time>2020-06-22T18:58:20Z</time>
      </trkpt>
      <trkpt lat="50.8531" lon="1.59435">
        <ele>48.6</ele>
        <time>2020-06-22T18:58:21Z</time>
      </trkpt>
      <trkpt lat="50.8531" lon="1.59434">
        <ele>48.6</ele>
        <time>2020-06-22T18:58:53Z</time>
      </trkpt>
      <trkpt lat="50.85311" lon="1.59434">
        <ele>48.6</ele>
        <time>2020-06-22T18:58:54Z</time>
      </trkpt>
      <trkpt lat="50.85312" lon="1.59432">
        <ele>48.6</ele>
        <time>2020-06-22T18:58:55Z</time>
      </trkpt>
      <trkpt lat="50.85313" lon="1.5943">
        <ele>48.5</ele>
        <time>2020-06-22T18:58:56Z</time>
      </trkpt>
      <trkpt lat="50.85315" lon="1.59426">
        <ele>48.5</ele>
        <time>2020-06-22T18:58:57Z</time>
      </trkpt>
      <trkpt lat="50.85315" lon="1.59425">
        <ele>48.4</ele>
        <time>2020-06-22T18:58:58Z</time>
      </trkpt>
      <trkpt lat="50.85317" lon="1.5942">
        <ele>48.4</ele>
        <time>2020-06-22T18:58:59Z</time>
      </trkpt>
      <trkpt lat="50.85317" lon="1.59419">
        <ele>48.4</ele>
        <time>2020-06-22T18:59:00Z</time>
      </trkpt>
      <trkpt lat="50.8532" lon="1.59414">
        <ele>48.3</ele>
        <time>2020-06-22T18:59:01Z</time>
      </trkpt>
      <trkpt lat="50.85321" lon="1.59412">
        <ele>48.3</ele>
        <time>2020-06-22T18:59:02Z</time>
      </trkpt>
      <trkpt lat="50.85323" lon="1.59408">
        <ele>48.2</ele>
        <time>2020-06-22T18:59:03Z</time>
      </trkpt>
      <trkpt lat="50.85324" lon="1.59408">
        <ele>48.2</ele>
        <time>2020-06-22T18:59:04Z</time>
      </trkpt>
      <trkpt lat="50.85327" lon="1.59405">
        <ele>48.1</ele>
        <time>2020-06-22T18:59:05Z</time>
      </trkpt>
      <trkpt lat="50.8533" lon="1.59402">
        <ele>48</ele>
        <time>2020-06-22T18:59:06Z</time>
      </trkpt>
      <trkpt lat="50.85332" lon="1.594">
        <ele>48</ele>
        <time>2020-06-22T18:59:07Z</time>
      </trkpt>
      <trkpt lat="50.85335" lon="1.59398">
        <ele>47.9</ele>
        <time>2020-06-22T18:59:08Z</time>
      </trkpt>
      <trkpt lat="50.85338" lon="1.59397">
        <ele>47.9</ele>
        <time>2020-06-22T18:59:09Z</time>
      </trkpt>
      <trkpt lat="50.85341" lon="1.59396">
        <ele>47.8</ele>
        <time>2020-06-22T18:59:10Z</time>
      </trkpt>
      <trkpt lat="50.85344" lon="1.59395">
        <ele>47.8</ele>
        <time>2020-06-22T18:59:11Z</time>
      </trkpt>
      <trkpt lat="50.85348" lon="1.59392">
        <ele>47.7</ele>
        <time>2020-06-22T18:59:12Z</time>
      </trkpt>
      <trkpt lat="50.85349" lon="1.59392">
        <ele>47.7</ele>
        <time>2020-06-22T18:59:13Z</time>
      </trkpt>
      <trkpt lat="50.85353" lon="1.5939">
        <ele>47.6</ele>
        <time>2020-06-22T18:59:14Z</time>
      </trkpt>
      <trkpt lat="50.85356" lon="1.59387">
        <ele>47.6</ele>
        <time>2020-06-22T18:59:15Z</time>
      </trkpt>
      <trkpt lat="50.85359" lon="1.59384">
        <ele>47.5</ele>
        <time>2020-06-22T18:59:16Z</time>
      </trkpt>
      <trkpt lat="50.85362" lon="1.59382">
        <ele>47.5</ele>
        <time>2020-06-22T18:59:17Z</time>
      </trkpt>
      <trkpt lat="50.85364" lon="1.59379">
        <ele>47.4</ele>
        <time>2020-06-22T18:59:18Z</time>
      </trkpt>
      <trkpt lat="50.85368" lon="1.59375">
        <ele>47.4</ele>
        <time>2020-06-22T18:59:19Z</time>
      </trkpt>
      <trkpt lat="50.85369" lon="1.59373">
        <ele>47.3</ele>
        <time>2020-06-22T18:59:20Z</time>
      </trkpt>
      <trkpt lat="50.85371" lon="1.5937">
        <ele>47.3</ele>
        <time>2020-06-22T18:59:21Z</time>
      </trkpt>
      <trkpt lat="50.85373" lon="1.59367">
        <ele>47.3</ele>
        <time>2020-06-22T18:59:22Z</time>
      </trkpt>
      <trkpt lat="50.85375" lon="1.59364">
        <ele>47.2</ele>
        <time>2020-06-22T18:59:23Z</time>
      </trkpt>
      <trkpt lat="50.85378" lon="1.59363">
        <ele>47.2</ele>
        <time>2020-06-22T18:59:24Z</time>
      </trkpt>
      <trkpt lat="50.85383" lon="1.59361">
        <ele>47.1</ele>
        <time>2020-06-22T18:59:25Z</time>
      </trkpt>
      <trkpt lat="50.85385" lon="1.5936">
        <ele>47.1</ele>
        <time>2020-06-22T18:59:26Z</time>
      </trkpt>
      <trkpt lat="50.85387" lon="1.59354">
        <ele>46.9</ele>
        <time>2020-06-22T18:59:27Z</time>
      </trkpt>
      <trkpt lat="50.85391" lon="1.59348">
        <ele>46.9</ele>
        <time>2020-06-22T18:59:28Z</time>
      </trkpt>
      <trkpt lat="50.85395" lon="1.59343">
        <ele>46.8</ele>
        <time>2020-06-22T18:59:29Z</time>
      </trkpt>
      <trkpt lat="50.85399" lon="1.59339">
        <ele>46.7</ele>
        <time>2020-06-22T18:59:30Z</time>
      </trkpt>
      <trkpt lat="50.854" lon="1.59334">
        <ele>46.7</ele>
        <time>2020-06-22T18:59:31Z</time>
      </trkpt>
      <trkpt lat="50.85404" lon="1.59331">
        <ele>46.6</ele>
        <time>2020-06-22T18:59:32Z</time>
      </trkpt>
      <trkpt lat="50.85406" lon="1.59327">
        <ele>46.6</ele>
        <time>2020-06-22T18:59:33Z</time>
      </trkpt>
      <trkpt lat="50.85409" lon="1.5932">
        <ele>46.6</ele>
        <time>2020-06-22T18:59:34Z</time>
      </trkpt>
      <trkpt lat="50.85412" lon="1.59316">
        <ele>46.5</ele>
        <time>2020-06-22T18:59:35Z</time>
      </trkpt>
      <trkpt lat="50.85414" lon="1.59313">
        <ele>46.5</ele>
        <time>2020-06-22T18:59:36Z</time>
      </trkpt>
      <trkpt lat="50.85416" lon="1.5931">
        <ele>46.5</ele>
        <time>2020-06-22T18:59:37Z</time>
      </trkpt>
      <trkpt lat="50.85419" lon="1.59307">
        <ele>46.5</ele>
        <time>2020-06-22T18:59:38Z</time>
      </trkpt>
      <trkpt lat="50.85421" lon="1.59304">
        <ele>46.5</ele>
        <time>2020-06-22T18:59:39Z</time>
      </trkpt>
      <trkpt lat="50.85424" lon="1.59299">
        <ele>46.5</ele>
        <time>2020-06-22T18:59:40Z</time>
      </trkpt>
      <trkpt lat="50.85426" lon="1.59295">
        <ele>46.5</ele>
        <time>2020-06-22T18:59:41Z</time>
      </trkpt>
      <trkpt lat="50.85429" lon="1.59291">
        <ele>46.5</ele>
        <time>2020-06-22T18:59:42Z</time>
      </trkpt>
      <trkpt lat="50.85433" lon="1.59286">
        <ele>46.5</ele>
        <time>2020-06-22T18:59:43Z</time>
      </trkpt>
      <trkpt lat="50.85436" lon="1.59281">
        <ele>46.5</ele>
        <time>2020-06-22T18:59:44Z</time>
      </trkpt>
      <trkpt lat="50.85439" lon="1.59277">
        <ele>46.5</ele>
        <time>2020-06-22T18:59:45Z</time>
      </trkpt>
      <trkpt lat="50.85442" lon="1.59273">
        <ele>46.5</ele>
        <time>2020-06-22T18:59:46Z</time>
      </trkpt>
      <trkpt lat="50.85445" lon="1.59269">
        <ele>46.5</ele>
        <time>2020-06-22T18:59:47Z</time>
      </trkpt>
      <trkpt lat="50.85449" lon="1.59265">
        <ele>46.5</ele>
        <time>2020-06-22T18:59:48Z</time>
      </trkpt>
      <trkpt lat="50.85453" lon="1.59261">
        <ele>46.5</ele>
        <time>2020-06-22T18:59:49Z</time>
      </trkpt>
      <trkpt lat="50.85457" lon="1.59257">
        <ele>46.5</ele>
        <time>2020-06-22T18:59:50Z</time>
      </trkpt>
      <trkpt lat="50.85463" lon="1.59251">
        <ele>46.5</ele>
        <time>2020-06-22T18:59:51Z</time>
      </trkpt>
      <trkpt lat="50.85465" lon="1.5925">
        <ele>46.5</ele>
        <time>2020-06-22T18:59:52Z</time>
      </trkpt>
      <trkpt lat="50.85469" lon="1.59246">
        <ele>46.5</ele>
        <time>2020-06-22T18:59:53Z</time>
      </trkpt>
      <trkpt lat="50.85474" lon="1.59243">
        <ele>46.5</ele>
        <time>2020-06-22T18:59:54Z</time>
      </trkpt>
      <trkpt lat="50.85479" lon="1.5924">
        <ele>46.5</ele>
        <time>2020-06-22T18:59:55Z</time>
      </trkpt>
      <trkpt lat="50.85481" lon="1.59239">
        <ele>46.5</ele>
        <time>2020-06-22T18:59:56Z</time>
      </trkpt>
      <trkpt lat="50.85486" lon="1.59237">
        <ele>46.5</ele>
        <time>2020-06-22T18:59:57Z</time>
      </trkpt>
      <trkpt lat="50.8549" lon="1.59234">
        <ele>46.5</ele>
        <time>2020-06-22T18:59:58Z</time>
      </trkpt>
      <trkpt lat="50.85497" lon="1.59232">
        <ele>46.4</ele>
        <time>2020-06-22T18:59:59Z</time>
      </trkpt>
      <trkpt lat="50.85499" lon="1.59231">
        <ele>46.3</ele>
        <time>2020-06-22T19:00:00Z</time>
      </trkpt>
      <trkpt lat="50.85505" lon="1.5923">
        <ele>46.3</ele>
        <time>2020-06-22T19:00:01Z</time>
      </trkpt>
      <trkpt lat="50.8551" lon="1.59229">
        <ele>46.2</ele>
        <time>2020-06-22T19:00:02Z</time>
      </trkpt>
      <trkpt lat="50.85516" lon="1.59228">
        <ele>46.1</ele>
        <time>2020-06-22T19:00:03Z</time>
      </trkpt>
      <trkpt lat="50.85522" lon="1.59228">
        <ele>46</ele>
        <time>2020-06-22T19:00:04Z</time>
      </trkpt>
      <trkpt lat="50.85528" lon="1.59229">
        <ele>45.9</ele>
        <time>2020-06-22T19:00:05Z</time>
      </trkpt>
      <trkpt lat="50.85534" lon="1.59229">
        <ele>45.8</ele>
        <time>2020-06-22T19:00:06Z</time>
      </trkpt>
      <trkpt lat="50.8554" lon="1.59229">
        <ele>45.7</ele>
        <time>2020-06-22T19:00:07Z</time>
      </trkpt>
      <trkpt lat="50.85545" lon="1.59229">
        <ele>45.7</ele>
        <time>2020-06-22T19:00:08Z</time>
      </trkpt>
      <trkpt lat="50.85551" lon="1.59229">
        <ele>45.6</ele>
        <time>2020-06-22T19:00:09Z</time>
      </trkpt>
      <trkpt lat="50.85557" lon="1.5923">
        <ele>45.5</ele>
        <time>2020-06-22T19:00:10Z</time>
      </trkpt>
      <trkpt lat="50.85562" lon="1.5923">
        <ele>45.5</ele>
        <time>2020-06-22T19:00:11Z</time>
      </trkpt>
      <trkpt lat="50.85568" lon="1.59231">
        <ele>45.4</ele>
        <time>2020-06-22T19:00:12Z</time>
      </trkpt>
      <trkpt lat="50.85573" lon="1.59231">
        <ele>45.4</ele>
        <time>2020-06-22T19:00:13Z</time>
      </trkpt>
      <trkpt lat="50.85579" lon="1.59231">
        <ele>45.4</ele>
        <time>2020-06-22T19:00:14Z</time>
      </trkpt>
      <trkpt lat="50.85585" lon="1.59227">
        <ele>45.4</ele>
        <time>2020-06-22T19:00:15Z</time>
      </trkpt>
      <trkpt lat="50.85592" lon="1.59226">
        <ele>45.3</ele>
        <time>2020-06-22T19:00:16Z</time>
      </trkpt>
      <trkpt lat="50.85598" lon="1.59226">
        <ele>45.3</ele>
        <time>2020-06-22T19:00:17Z</time>
      </trkpt>
      <trkpt lat="50.85603" lon="1.59226">
        <ele>45.3</ele>
        <time>2020-06-22T19:00:18Z</time>
      </trkpt>
      <trkpt lat="50.85609" lon="1.59228">
        <ele>45.2</ele>
        <time>2020-06-22T19:00:19Z</time>
      </trkpt>
      <trkpt lat="50.85616" lon="1.59231">
        <ele>45.2</ele>
        <time>2020-06-22T19:00:20Z</time>
      </trkpt>
      <trkpt lat="50.85622" lon="1.59233">
        <ele>45.1</ele>
        <time>2020-06-22T19:00:21Z</time>
      </trkpt>
      <trkpt lat="50.85628" lon="1.59234">
        <ele>45.1</ele>
        <time>2020-06-22T19:00:22Z</time>
      </trkpt>
      <trkpt lat="50.85633" lon="1.59236">
        <ele>45</ele>
        <time>2020-06-22T19:00:23Z</time>
      </trkpt>
      <trkpt lat="50.85639" lon="1.59236">
        <ele>45</ele>
        <time>2020-06-22T19:00:24Z</time>
      </trkpt>
      <trkpt lat="50.85644" lon="1.59238">
        <ele>45</ele>
        <time>2020-06-22T19:00:25Z</time>
      </trkpt>
      <trkpt lat="50.8565" lon="1.59239">
        <ele>44.9</ele>
        <time>2020-06-22T19:00:26Z</time>
      </trkpt>
      <trkpt lat="50.85654" lon="1.59241">
        <ele>44.9</ele>
        <time>2020-06-22T19:00:27Z</time>
      </trkpt>
      <trkpt lat="50.8566" lon="1.59242">
        <ele>44.8</ele>
        <time>2020-06-22T19:00:28Z</time>
      </trkpt>
      <trkpt lat="50.85665" lon="1.59243">
        <ele>44.8</ele>
        <time>2020-06-22T19:00:29Z</time>
      </trkpt>
      <trkpt lat="50.85671" lon="1.59244">
        <ele>44.7</ele>
        <time>2020-06-22T19:00:30Z</time>
      </trkpt>
      <trkpt lat="50.85676" lon="1.59244">
        <ele>44.7</ele>
        <time>2020-06-22T19:00:31Z</time>
      </trkpt>
      <trkpt lat="50.8568" lon="1.59244">
        <ele>44.7</ele>
        <time>2020-06-22T19:00:32Z</time>
      </trkpt>
      <trkpt lat="50.85685" lon="1.59244">
        <ele>44.7</ele>
        <time>2020-06-22T19:00:33Z</time>
      </trkpt>
      <trkpt lat="50.85691" lon="1.59244">
        <ele>44.8</ele>
        <time>2020-06-22T19:00:34Z</time>
      </trkpt>
      <trkpt lat="50.85696" lon="1.59244">
        <ele>44.8</ele>
        <time>2020-06-22T19:00:35Z</time>
      </trkpt>
      <trkpt lat="50.85702" lon="1.59244">
        <ele>44.8</ele>
        <time>2020-06-22T19:00:36Z</time>
      </trkpt>
      <trkpt lat="50.85707" lon="1.59244">
        <ele>44.8</ele>
        <time>2020-06-22T19:00:37Z</time>
      </trkpt>
      <trkpt lat="50.85713" lon="1.59245">
        <ele>44.8</ele>
        <time>2020-06-22T19:00:38Z</time>
      </trkpt>
      <trkpt lat="50.85718" lon="1.59245">
        <ele>44.8</ele>
        <time>2020-06-22T19:00:39Z</time>
      </trkpt>
      <trkpt lat="50.85724" lon="1.59244">
        <ele>44.8</ele>
        <time>2020-06-22T19:00:40Z</time>
      </trkpt>
      <trkpt lat="50.8573" lon="1.59245">
        <ele>44.9</ele>
        <time>2020-06-22T19:00:41Z</time>
      </trkpt>
      <trkpt lat="50.85736" lon="1.59245">
        <ele>45</ele>
        <time>2020-06-22T19:00:42Z</time>
      </trkpt>
      <trkpt lat="50.85741" lon="1.59244">
        <ele>45</ele>
        <time>2020-06-22T19:00:43Z</time>
      </trkpt>
      <trkpt lat="50.85748" lon="1.59244">
        <ele>45.1</ele>
        <time>2020-06-22T19:00:44Z</time>
      </trkpt>
      <trkpt lat="50.85753" lon="1.59244">
        <ele>45.1</ele>
        <time>2020-06-22T19:00:45Z</time>
      </trkpt>
      <trkpt lat="50.85758" lon="1.59243">
        <ele>45.1</ele>
        <time>2020-06-22T19:00:46Z</time>
      </trkpt>
      <trkpt lat="50.85764" lon="1.59242">
        <ele>45.2</ele>
        <time>2020-06-22T19:00:47Z</time>
      </trkpt>
      <trkpt lat="50.85769" lon="1.59241">
        <ele>45.3</ele>
        <time>2020-06-22T19:00:48Z</time>
      </trkpt>
      <trkpt lat="50.85775" lon="1.59239">
        <ele>45.4</ele>
        <time>2020-06-22T19:00:49Z</time>
      </trkpt>
      <trkpt lat="50.8578" lon="1.59238">
        <ele>45.6</ele>
        <time>2020-06-22T19:00:50Z</time>
      </trkpt>
      <trkpt lat="50.85785" lon="1.59236">
        <ele>45.7</ele>
        <time>2020-06-22T19:00:51Z</time>
      </trkpt>
      <trkpt lat="50.85788" lon="1.59234">
        <ele>45.8</ele>
        <time>2020-06-22T19:00:52Z</time>
      </trkpt>
      <trkpt lat="50.85792" lon="1.59234">
        <ele>45.8</ele>
        <time>2020-06-22T19:00:53Z</time>
      </trkpt>
      <trkpt lat="50.85796" lon="1.59233">
        <ele>45.8</ele>
        <time>2020-06-22T19:00:54Z</time>
      </trkpt>
      <trkpt lat="50.858" lon="1.59231">
        <ele>45.9</ele>
        <time>2020-06-22T19:00:55Z</time>
      </trkpt>
      <trkpt lat="50.85803" lon="1.5923">
        <ele>45.9</ele>
        <time>2020-06-22T19:00:56Z</time>
      </trkpt>
      <trkpt lat="50.85807" lon="1.5923">
        <ele>46</ele>
        <time>2020-06-22T19:00:57Z</time>
      </trkpt>
      <trkpt lat="50.85811" lon="1.5923">
        <ele>46</ele>
        <time>2020-06-22T19:00:58Z</time>
      </trkpt>
      <trkpt lat="50.85814" lon="1.59229">
        <ele>46</ele>
        <time>2020-06-22T19:00:59Z</time>
      </trkpt>
      <trkpt lat="50.85818" lon="1.59229">
        <ele>46.1</ele>
        <time>2020-06-22T19:01:00Z</time>
      </trkpt>
      <trkpt lat="50.8582" lon="1.59226">
        <ele>46.2</ele>
        <time>2020-06-22T19:01:01Z</time>
      </trkpt>
      <trkpt lat="50.85823" lon="1.59225">
        <ele>46.2</ele>
        <time>2020-06-22T19:01:02Z</time>
      </trkpt>
      <trkpt lat="50.85826" lon="1.59226">
        <ele>46.3</ele>
        <time>2020-06-22T19:01:03Z</time>
      </trkpt>
      <trkpt lat="50.8583" lon="1.59226">
        <ele>46.4</ele>
        <time>2020-06-22T19:01:04Z</time>
      </trkpt>
      <trkpt lat="50.85831" lon="1.59226">
        <ele>46.5</ele>
        <time>2020-06-22T19:01:05Z</time>
      </trkpt>
      <trkpt lat="50.85835" lon="1.59226">
        <ele>46.6</ele>
        <time>2020-06-22T19:01:06Z</time>
      </trkpt>
      <trkpt lat="50.85837" lon="1.59226">
        <ele>46.6</ele>
        <time>2020-06-22T19:01:07Z</time>
      </trkpt>
      <trkpt lat="50.8584" lon="1.59226">
        <ele>46.7</ele>
        <time>2020-06-22T19:01:08Z</time>
      </trkpt>
      <trkpt lat="50.85842" lon="1.59225">
        <ele>46.8</ele>
        <time>2020-06-22T19:01:09Z</time>
      </trkpt>
      <trkpt lat="50.85846" lon="1.59224">
        <ele>46.9</ele>
        <time>2020-06-22T19:01:10Z</time>
      </trkpt>
      <trkpt lat="50.85847" lon="1.59223">
        <ele>47</ele>
        <time>2020-06-22T19:01:11Z</time>
      </trkpt>
      <trkpt lat="50.85851" lon="1.59222">
        <ele>47.1</ele>
        <time>2020-06-22T19:01:12Z</time>
      </trkpt>
      <trkpt lat="50.85855" lon="1.59222">
        <ele>47.2</ele>
        <time>2020-06-22T19:01:13Z</time>
      </trkpt>
      <trkpt lat="50.85859" lon="1.5922">
        <ele>47.4</ele>
        <time>2020-06-22T19:01:14Z</time>
      </trkpt>
      <trkpt lat="50.85864" lon="1.59219">
        <ele>47.5</ele>
        <time>2020-06-22T19:01:15Z</time>
      </trkpt>
      <trkpt lat="50.85869" lon="1.5922">
        <ele>47.7</ele>
        <time>2020-06-22T19:01:16Z</time>
      </trkpt>
      <trkpt lat="50.85873" lon="1.5922">
        <ele>47.8</ele>
        <time>2020-06-22T19:01:17Z</time>
      </trkpt>
      <trkpt lat="50.85878" lon="1.5922">
        <ele>47.9</ele>
        <time>2020-06-22T19:01:18Z</time>
      </trkpt>
      <trkpt lat="50.85883" lon="1.59221">
        <ele>48.2</ele>
        <time>2020-06-22T19:01:19Z</time>
      </trkpt>
      <trkpt lat="50.85888" lon="1.5922">
        <ele>48.3</ele>
        <time>2020-06-22T19:01:20Z</time>
      </trkpt>
      <trkpt lat="50.85894" lon="1.5922">
        <ele>48.4</ele>
        <time>2020-06-22T19:01:21Z</time>
      </trkpt>
      <trkpt lat="50.85899" lon="1.5922">
        <ele>48.6</ele>
        <time>2020-06-22T19:01:22Z</time>
      </trkpt>
      <trkpt lat="50.85903" lon="1.5922">
        <ele>48.7</ele>
        <time>2020-06-22T19:01:23Z</time>
      </trkpt>
      <trkpt lat="50.85909" lon="1.5922">
        <ele>48.9</ele>
        <time>2020-06-22T19:01:24Z</time>
      </trkpt>
      <trkpt lat="50.85913" lon="1.59221">
        <ele>49</ele>
        <time>2020-06-22T19:01:25Z</time>
      </trkpt>
      <trkpt lat="50.85918" lon="1.59221">
        <ele>49.1</ele>
        <time>2020-06-22T19:01:26Z</time>
      </trkpt>
      <trkpt lat="50.85923" lon="1.59221">
        <ele>49.3</ele>
        <time>2020-06-22T19:01:27Z</time>
      </trkpt>
      <trkpt lat="50.85928" lon="1.5922">
        <ele>49.5</ele>
        <time>2020-06-22T19:01:28Z</time>
      </trkpt>
      <trkpt lat="50.85933" lon="1.5922">
        <ele>49.6</ele>
        <time>2020-06-22T19:01:29Z</time>
      </trkpt>
      <trkpt lat="50.85938" lon="1.5922">
        <ele>49.7</ele>
        <time>2020-06-22T19:01:30Z</time>
      </trkpt>
      <trkpt lat="50.85944" lon="1.59221">
        <ele>49.9</ele>
        <time>2020-06-22T19:01:31Z</time>
      </trkpt>
      <trkpt lat="50.85949" lon="1.59221">
        <ele>50</ele>
        <time>2020-06-22T19:01:32Z</time>
      </trkpt>
      <trkpt lat="50.85954" lon="1.59221">
        <ele>50.1</ele>
        <time>2020-06-22T19:01:33Z</time>
      </trkpt>
      <trkpt lat="50.85959" lon="1.59221">
        <ele>50.2</ele>
        <time>2020-06-22T19:01:34Z</time>
      </trkpt>
      <trkpt lat="50.85964" lon="1.59221">
        <ele>50.4</ele>
        <time>2020-06-22T19:01:35Z</time>
      </trkpt>
      <trkpt lat="50.85969" lon="1.59221">
        <ele>50.5</ele>
        <time>2020-06-22T19:01:36Z</time>
      </trkpt>
      <trkpt lat="50.85974" lon="1.59221">
        <ele>50.6</ele>
        <time>2020-06-22T19:01:37Z</time>
      </trkpt>
      <trkpt lat="50.85979" lon="1.59222">
        <ele>50.6</ele>
        <time>2020-06-22T19:01:38Z</time>
      </trkpt>
      <trkpt lat="50.85984" lon="1.59222">
        <ele>50.7</ele>
        <time>2020-06-22T19:01:39Z</time>
      </trkpt>
      <trkpt lat="50.85987" lon="1.59221">
        <ele>50.8</ele>
        <time>2020-06-22T19:01:40Z</time>
      </trkpt>
      <trkpt lat="50.85992" lon="1.5922">
        <ele>50.9</ele>
        <time>2020-06-22T19:01:41Z</time>
      </trkpt>
      <trkpt lat="50.85997" lon="1.5922">
        <ele>51</ele>
        <time>2020-06-22T19:01:42Z</time>
      </trkpt>
      <trkpt lat="50.86002" lon="1.59221">
        <ele>51.1</ele>
        <time>2020-06-22T19:01:43Z</time>
      </trkpt>
      <trkpt lat="50.86007" lon="1.59221">
        <ele>51.2</ele>
        <time>2020-06-22T19:01:44Z</time>
      </trkpt>
      <trkpt lat="50.86011" lon="1.59222">
        <ele>51.3</ele>
        <time>2020-06-22T19:01:45Z</time>
      </trkpt>
      <trkpt lat="50.86016" lon="1.59224">
        <ele>51.4</ele>
        <time>2020-06-22T19:01:46Z</time>
      </trkpt>
      <trkpt lat="50.86021" lon="1.59225">
        <ele>51.5</ele>
        <time>2020-06-22T19:01:47Z</time>
      </trkpt>
      <trkpt lat="50.86026" lon="1.59225">
        <ele>51.5</ele>
        <time>2020-06-22T19:01:48Z</time>
      </trkpt>
      <trkpt lat="50.86031" lon="1.59225">
        <ele>51.6</ele>
        <time>2020-06-22T19:01:49Z</time>
      </trkpt>
      <trkpt lat="50.86036" lon="1.59224">
        <ele>51.7</ele>
        <time>2020-06-22T19:01:50Z</time>
      </trkpt>
      <trkpt lat="50.8604" lon="1.59224">
        <ele>51.7</ele>
        <time>2020-06-22T19:01:51Z</time>
      </trkpt>
      <trkpt lat="50.86045" lon="1.59224">
        <ele>51.7</ele>
        <time>2020-06-22T19:01:52Z</time>
      </trkpt>
      <trkpt lat="50.86048" lon="1.59224">
        <ele>51.8</ele>
        <time>2020-06-22T19:01:53Z</time>
      </trkpt>
      <trkpt lat="50.86052" lon="1.59224">
        <ele>51.8</ele>
        <time>2020-06-22T19:01:54Z</time>
      </trkpt>
      <trkpt lat="50.86056" lon="1.59223">
        <ele>51.8</ele>
        <time>2020-06-22T19:01:55Z</time>
      </trkpt>
      <trkpt lat="50.86061" lon="1.59223">
        <ele>51.9</ele>
        <time>2020-06-22T19:01:56Z</time>
      </trkpt>
      <trkpt lat="50.86065" lon="1.59222">
        <ele>51.9</ele>
        <time>2020-06-22T19:01:57Z</time>
      </trkpt>
      <trkpt lat="50.86069" lon="1.59221">
        <ele>51.9</ele>
        <time>2020-06-22T19:01:58Z</time>
      </trkpt>
      <trkpt lat="50.86073" lon="1.5922">
        <ele>51.9</ele>
        <time>2020-06-22T19:01:59Z</time>
      </trkpt>
      <trkpt lat="50.86077" lon="1.59221">
        <ele>51.9</ele>
        <time>2020-06-22T19:02:00Z</time>
      </trkpt>
      <trkpt lat="50.86081" lon="1.59221">
        <ele>52</ele>
        <time>2020-06-22T19:02:01Z</time>
      </trkpt>
      <trkpt lat="50.86085" lon="1.59222">
        <ele>52</ele>
        <time>2020-06-22T19:02:02Z</time>
      </trkpt>
      <trkpt lat="50.86089" lon="1.59222">
        <ele>52</ele>
        <time>2020-06-22T19:02:03Z</time>
      </trkpt>
      <trkpt lat="50.86093" lon="1.59223">
        <ele>52</ele>
        <time>2020-06-22T19:02:04Z</time>
      </trkpt>
      <trkpt lat="50.86097" lon="1.59222">
        <ele>52</ele>
        <time>2020-06-22T19:02:05Z</time>
      </trkpt>
      <trkpt lat="50.86102" lon="1.59221">
        <ele>52</ele>
        <time>2020-06-22T19:02:06Z</time>
      </trkpt>
      <trkpt lat="50.86106" lon="1.5922">
        <ele>52</ele>
        <time>2020-06-22T19:02:07Z</time>
      </trkpt>
      <trkpt lat="50.8611" lon="1.59219">
        <ele>52</ele>
        <time>2020-06-22T19:02:08Z</time>
      </trkpt>
      <trkpt lat="50.86115" lon="1.59218">
        <ele>52</ele>
        <time>2020-06-22T19:02:09Z</time>
      </trkpt>
      <trkpt lat="50.86119" lon="1.59217">
        <ele>51.9</ele>
        <time>2020-06-22T19:02:10Z</time>
      </trkpt>
      <trkpt lat="50.86124" lon="1.59215">
        <ele>51.8</ele>
        <time>2020-06-22T19:02:11Z</time>
      </trkpt>
      <trkpt lat="50.86129" lon="1.59213">
        <ele>51.8</ele>
        <time>2020-06-22T19:02:12Z</time>
      </trkpt>
      <trkpt lat="50.86133" lon="1.5921">
        <ele>51.7</ele>
        <time>2020-06-22T19:02:13Z</time>
      </trkpt>
      <trkpt lat="50.86137" lon="1.59207">
        <ele>51.6</ele>
        <time>2020-06-22T19:02:14Z</time>
      </trkpt>
      <trkpt lat="50.86142" lon="1.59203">
        <ele>51.4</ele>
        <time>2020-06-22T19:02:15Z</time>
      </trkpt>
      <trkpt lat="50.86146" lon="1.592">
        <ele>51.3</ele>
        <time>2020-06-22T19:02:16Z</time>
      </trkpt>
      <trkpt lat="50.86151" lon="1.59198">
        <ele>51.1</ele>
        <time>2020-06-22T19:02:17Z</time>
      </trkpt>
      <trkpt lat="50.86155" lon="1.59196">
        <ele>50.9</ele>
        <time>2020-06-22T19:02:18Z</time>
      </trkpt>
      <trkpt lat="50.86161" lon="1.59191">
        <ele>50.6</ele>
        <time>2020-06-22T19:02:19Z</time>
      </trkpt>
      <trkpt lat="50.86166" lon="1.59187">
        <ele>50.4</ele>
        <time>2020-06-22T19:02:20Z</time>
      </trkpt>
      <trkpt lat="50.86171" lon="1.59183">
        <ele>50.1</ele>
        <time>2020-06-22T19:02:21Z</time>
      </trkpt>
      <trkpt lat="50.86176" lon="1.5918">
        <ele>49.8</ele>
        <time>2020-06-22T19:02:22Z</time>
      </trkpt>
      <trkpt lat="50.86181" lon="1.59175">
        <ele>49.5</ele>
        <time>2020-06-22T19:02:23Z</time>
      </trkpt>
      <trkpt lat="50.86187" lon="1.59173">
        <ele>49.2</ele>
        <time>2020-06-22T19:02:24Z</time>
      </trkpt>
      <trkpt lat="50.86193" lon="1.59171">
        <ele>48.8</ele>
        <time>2020-06-22T19:02:25Z</time>
      </trkpt>
      <trkpt lat="50.86199" lon="1.59168">
        <ele>48.5</ele>
        <time>2020-06-22T19:02:26Z</time>
      </trkpt>
      <trkpt lat="50.86205" lon="1.59166">
        <ele>48.1</ele>
        <time>2020-06-22T19:02:27Z</time>
      </trkpt>
      <trkpt lat="50.86212" lon="1.59164">
        <ele>47.6</ele>
        <time>2020-06-22T19:02:28Z</time>
      </trkpt>
      <trkpt lat="50.8622" lon="1.59162">
        <ele>47.2</ele>
        <time>2020-06-22T19:02:29Z</time>
      </trkpt>
      <trkpt lat="50.8623" lon="1.59158">
        <ele>46.5</ele>
        <time>2020-06-22T19:02:30Z</time>
      </trkpt>
      <trkpt lat="50.86233" lon="1.59157">
        <ele>46.3</ele>
        <time>2020-06-22T19:02:31Z</time>
      </trkpt>
      <trkpt lat="50.86239" lon="1.59156">
        <ele>46</ele>
        <time>2020-06-22T19:02:32Z</time>
      </trkpt>
      <trkpt lat="50.86246" lon="1.59154">
        <ele>45.6</ele>
        <time>2020-06-22T19:02:33Z</time>
      </trkpt>
      <trkpt lat="50.86252" lon="1.59153">
        <ele>45.3</ele>
        <time>2020-06-22T19:02:34Z</time>
      </trkpt>
      <trkpt lat="50.86259" lon="1.59151">
        <ele>44.9</ele>
        <time>2020-06-22T19:02:35Z</time>
      </trkpt>
      <trkpt lat="50.86265" lon="1.5915">
        <ele>44.6</ele>
        <time>2020-06-22T19:02:36Z</time>
      </trkpt>
      <trkpt lat="50.86271" lon="1.59149">
        <ele>44.2</ele>
        <time>2020-06-22T19:02:37Z</time>
      </trkpt>
      <trkpt lat="50.8628" lon="1.5915">
        <ele>43.8</ele>
        <time>2020-06-22T19:02:38Z</time>
      </trkpt>
      <trkpt lat="50.86283" lon="1.59151">
        <ele>43.6</ele>
        <time>2020-06-22T19:02:39Z</time>
      </trkpt>
      <trkpt lat="50.86289" lon="1.59154">
        <ele>43.3</ele>
        <time>2020-06-22T19:02:40Z</time>
      </trkpt>
      <trkpt lat="50.86296" lon="1.59158">
        <ele>42.9</ele>
        <time>2020-06-22T19:02:41Z</time>
      </trkpt>
      <trkpt lat="50.86304" lon="1.59163">
        <ele>42.5</ele>
        <time>2020-06-22T19:02:42Z</time>
      </trkpt>
      <trkpt lat="50.8631" lon="1.59167">
        <ele>42.1</ele>
        <time>2020-06-22T19:02:43Z</time>
      </trkpt>
      <trkpt lat="50.86316" lon="1.59171">
        <ele>41.7</ele>
        <time>2020-06-22T19:02:44Z</time>
      </trkpt>
      <trkpt lat="50.86322" lon="1.59175">
        <ele>41.4</ele>
        <time>2020-06-22T19:02:45Z</time>
      </trkpt>
      <trkpt lat="50.86328" lon="1.59179">
        <ele>40.9</ele>
        <time>2020-06-22T19:02:46Z</time>
      </trkpt>
      <trkpt lat="50.86334" lon="1.59182">
        <ele>40.5</ele>
        <time>2020-06-22T19:02:47Z</time>
      </trkpt>
      <trkpt lat="50.86342" lon="1.59185">
        <ele>40.1</ele>
        <time>2020-06-22T19:02:48Z</time>
      </trkpt>
      <trkpt lat="50.8635" lon="1.59185">
        <ele>39.6</ele>
        <time>2020-06-22T19:02:49Z</time>
      </trkpt>
      <trkpt lat="50.86357" lon="1.59185">
        <ele>39.3</ele>
        <time>2020-06-22T19:02:50Z</time>
      </trkpt>
      <trkpt lat="50.86365" lon="1.59184">
        <ele>39.1</ele>
        <time>2020-06-22T19:02:51Z</time>
      </trkpt>
      <trkpt lat="50.86372" lon="1.59178">
        <ele>38.8</ele>
        <time>2020-06-22T19:02:52Z</time>
      </trkpt>
      <trkpt lat="50.8638" lon="1.59172">
        <ele>38.5</ele>
        <time>2020-06-22T19:02:53Z</time>
      </trkpt>
      <trkpt lat="50.86391" lon="1.59175">
        <ele>38.1</ele>
        <time>2020-06-22T19:02:54Z</time>
      </trkpt>
      <trkpt lat="50.86396" lon="1.59167">
        <ele>37.9</ele>
        <time>2020-06-22T19:02:55Z</time>
      </trkpt>
      <trkpt lat="50.86401" lon="1.59156">
        <ele>37.6</ele>
        <time>2020-06-22T19:02:56Z</time>
      </trkpt>
      <trkpt lat="50.86401" lon="1.59147">
        <ele>37.4</ele>
        <time>2020-06-22T19:02:57Z</time>
      </trkpt>
      <trkpt lat="50.86403" lon="1.59135">
        <ele>37.2</ele>
        <time>2020-06-22T19:02:58Z</time>
      </trkpt>
      <trkpt lat="50.86406" lon="1.59124">
        <ele>37.1</ele>
        <time>2020-06-22T19:02:59Z</time>
      </trkpt>
      <trkpt lat="50.86409" lon="1.59112">
        <ele>36.9</ele>
        <time>2020-06-22T19:03:00Z</time>
      </trkpt>
      <trkpt lat="50.86412" lon="1.59098">
        <ele>37.1</ele>
        <time>2020-06-22T19:03:01Z</time>
      </trkpt>
      <trkpt lat="50.86415" lon="1.59087">
        <ele>37.2</ele>
        <time>2020-06-22T19:03:02Z</time>
      </trkpt>
      <trkpt lat="50.86418" lon="1.59076">
        <ele>37.4</ele>
        <time>2020-06-22T19:03:03Z</time>
      </trkpt>
      <trkpt lat="50.86421" lon="1.59067">
        <ele>37.7</ele>
        <time>2020-06-22T19:03:04Z</time>
      </trkpt>
      <trkpt lat="50.86423" lon="1.59057">
        <ele>37.9</ele>
        <time>2020-06-22T19:03:05Z</time>
      </trkpt>
      <trkpt lat="50.86425" lon="1.59049">
        <ele>38.2</ele>
        <time>2020-06-22T19:03:06Z</time>
      </trkpt>
      <trkpt lat="50.86428" lon="1.59043">
        <ele>38.4</ele>
        <time>2020-06-22T19:03:07Z</time>
      </trkpt>
      <trkpt lat="50.86431" lon="1.59038">
        <ele>38.5</ele>
        <time>2020-06-22T19:03:08Z</time>
      </trkpt>
      <trkpt lat="50.86435" lon="1.59036">
        <ele>38.6</ele>
        <time>2020-06-22T19:03:09Z</time>
      </trkpt>
      <trkpt lat="50.8644" lon="1.59035">
        <ele>38.8</ele>
        <time>2020-06-22T19:03:10Z</time>
      </trkpt>
      <trkpt lat="50.86445" lon="1.59033">
        <ele>39.1</ele>
        <time>2020-06-22T19:03:11Z</time>
      </trkpt>
      <trkpt lat="50.86449" lon="1.59031">
        <ele>39.3</ele>
        <time>2020-06-22T19:03:12Z</time>
      </trkpt>
      <trkpt lat="50.86453" lon="1.5903">
        <ele>39.6</ele>
        <time>2020-06-22T19:03:13Z</time>
      </trkpt>
      <trkpt lat="50.86457" lon="1.59031">
        <ele>39.8</ele>
        <time>2020-06-22T19:03:14Z</time>
      </trkpt>
      <trkpt lat="50.86461" lon="1.59032">
        <ele>40</ele>
        <time>2020-06-22T19:03:15Z</time>
      </trkpt>
      <trkpt lat="50.86464" lon="1.59032">
        <ele>40.2</ele>
        <time>2020-06-22T19:03:16Z</time>
      </trkpt>
      <trkpt lat="50.86469" lon="1.59032">
        <ele>40.5</ele>
        <time>2020-06-22T19:03:17Z</time>
      </trkpt>
      <trkpt lat="50.86473" lon="1.59034">
        <ele>40.7</ele>
        <time>2020-06-22T19:03:18Z</time>
      </trkpt>
      <trkpt lat="50.86476" lon="1.59035">
        <ele>40.9</ele>
        <time>2020-06-22T19:03:19Z</time>
      </trkpt>
      <trkpt lat="50.8648" lon="1.59035">
        <ele>41.1</ele>
        <time>2020-06-22T19:03:20Z</time>
      </trkpt>
      <trkpt lat="50.86483" lon="1.59036">
        <ele>41.2</ele>
        <time>2020-06-22T19:03:21Z</time>
      </trkpt>
      <trkpt lat="50.86486" lon="1.59036">
        <ele>41.4</ele>
        <time>2020-06-22T19:03:22Z</time>
      </trkpt>
      <trkpt lat="50.8649" lon="1.59034">
        <ele>41.5</ele>
        <time>2020-06-22T19:03:23Z</time>
      </trkpt>
      <trkpt lat="50.86493" lon="1.59032">
        <ele>41.7</ele>
        <time>2020-06-22T19:03:24Z</time>
      </trkpt>
      <trkpt lat="50.86497" lon="1.59031">
        <ele>41.8</ele>
        <time>2020-06-22T19:03:25Z</time>
      </trkpt>
      <trkpt lat="50.865" lon="1.59031">
        <ele>41.8</ele>
        <time>2020-06-22T19:03:26Z</time>
      </trkpt>
      <trkpt lat="50.86503" lon="1.59029">
        <ele>41.9</ele>
        <time>2020-06-22T19:03:27Z</time>
      </trkpt>
      <trkpt lat="50.86505" lon="1.59028">
        <ele>41.9</ele>
        <time>2020-06-22T19:03:28Z</time>
      </trkpt>
      <trkpt lat="50.86508" lon="1.59027">
        <ele>42</ele>
        <time>2020-06-22T19:03:29Z</time>
      </trkpt>
      <trkpt lat="50.86509" lon="1.59026">
        <ele>42</ele>
        <time>2020-06-22T19:03:30Z</time>
      </trkpt>
      <trkpt lat="50.86512" lon="1.59026">
        <ele>42.1</ele>
        <time>2020-06-22T19:03:31Z</time>
      </trkpt>
      <trkpt lat="50.86513" lon="1.59025">
        <ele>42.1</ele>
        <time>2020-06-22T19:03:32Z</time>
      </trkpt>
      <trkpt lat="50.86516" lon="1.59024">
        <ele>42</ele>
        <time>2020-06-22T19:03:33Z</time>
      </trkpt>
      <trkpt lat="50.86517" lon="1.59023">
        <ele>42</ele>
        <time>2020-06-22T19:03:34Z</time>
      </trkpt>
      <trkpt lat="50.86518" lon="1.59022">
        <ele>42</ele>
        <time>2020-06-22T19:03:35Z</time>
      </trkpt>
      <trkpt lat="50.86518" lon="1.59022">
        <ele>42</ele>
        <time>2020-06-22T19:03:36Z</time>
      </trkpt>
      <trkpt lat="50.8652" lon="1.59021">
        <ele>42</ele>
        <time>2020-06-22T19:03:37Z</time>
      </trkpt>
      <trkpt lat="50.86522" lon="1.59019">
        <ele>42</ele>
        <time>2020-06-22T19:03:38Z</time>
      </trkpt>
      <trkpt lat="50.86523" lon="1.59017">
        <ele>42</ele>
        <time>2020-06-22T19:03:39Z</time>
      </trkpt>
      <trkpt lat="50.86524" lon="1.59016">
        <ele>41.9</ele>
        <time>2020-06-22T19:03:40Z</time>
      </trkpt>
      <trkpt lat="50.86525" lon="1.59015">
        <ele>41.9</ele>
        <time>2020-06-22T19:03:41Z</time>
      </trkpt>
      <trkpt lat="50.86528" lon="1.59013">
        <ele>41.9</ele>
        <time>2020-06-22T19:03:42Z</time>
      </trkpt>
      <trkpt lat="50.86529" lon="1.59013">
        <ele>41.9</ele>
        <time>2020-06-22T19:03:43Z</time>
      </trkpt>
      <trkpt lat="50.86532" lon="1.59012">
        <ele>41.6</ele>
        <time>2020-06-22T19:03:44Z</time>
      </trkpt>
      <trkpt lat="50.86534" lon="1.59012">
        <ele>41.5</ele>
        <time>2020-06-22T19:03:45Z</time>
      </trkpt>
      <trkpt lat="50.86537" lon="1.5901">
        <ele>41.3</ele>
        <time>2020-06-22T19:03:46Z</time>
      </trkpt>
      <trkpt lat="50.86541" lon="1.59008">
        <ele>41.2</ele>
        <time>2020-06-22T19:03:47Z</time>
      </trkpt>
      <trkpt lat="50.86543" lon="1.59007">
        <ele>41</ele>
        <time>2020-06-22T19:03:48Z</time>
      </trkpt>
      <trkpt lat="50.86546" lon="1.59004">
        <ele>40.8</ele>
        <time>2020-06-22T19:03:49Z</time>
      </trkpt>
      <trkpt lat="50.86551" lon="1.59003">
        <ele>40.4</ele>
        <time>2020-06-22T19:03:50Z</time>
      </trkpt>
      <trkpt lat="50.86555" lon="1.59">
        <ele>40.1</ele>
        <time>2020-06-22T19:03:51Z</time>
      </trkpt>
      <trkpt lat="50.86558" lon="1.58998">
        <ele>39.9</ele>
        <time>2020-06-22T19:03:52Z</time>
      </trkpt>
      <trkpt lat="50.86563" lon="1.58995">
        <ele>39.5</ele>
        <time>2020-06-22T19:03:53Z</time>
      </trkpt>
      <trkpt lat="50.86568" lon="1.58992">
        <ele>39.1</ele>
        <time>2020-06-22T19:03:54Z</time>
      </trkpt>
      <trkpt lat="50.86574" lon="1.58989">
        <ele>38.6</ele>
        <time>2020-06-22T19:03:55Z</time>
      </trkpt>
      <trkpt lat="50.8658" lon="1.58988">
        <ele>38.1</ele>
        <time>2020-06-22T19:03:56Z</time>
      </trkpt>
      <trkpt lat="50.86586" lon="1.58985">
        <ele>37.6</ele>
        <time>2020-06-22T19:03:57Z</time>
      </trkpt>
      <trkpt lat="50.86594" lon="1.58981">
        <ele>36.9</ele>
        <time>2020-06-22T19:03:58Z</time>
      </trkpt>
      <trkpt lat="50.86601" lon="1.58977">
        <ele>36.3</ele>
        <time>2020-06-22T19:03:59Z</time>
      </trkpt>
      <trkpt lat="50.86608" lon="1.58973">
        <ele>35.5</ele>
        <time>2020-06-22T19:04:00Z</time>
      </trkpt>
      <trkpt lat="50.86616" lon="1.58969">
        <ele>34.8</ele>
        <time>2020-06-22T19:04:01Z</time>
      </trkpt>
      <trkpt lat="50.86625" lon="1.58965">
        <ele>34</ele>
        <time>2020-06-22T19:04:02Z</time>
      </trkpt>
      <trkpt lat="50.86633" lon="1.58961">
        <ele>33.3</ele>
        <time>2020-06-22T19:04:03Z</time>
      </trkpt>
      <trkpt lat="50.86642" lon="1.58956">
        <ele>32.5</ele>
        <time>2020-06-22T19:04:04Z</time>
      </trkpt>
      <trkpt lat="50.86651" lon="1.58952">
        <ele>31.5</ele>
        <time>2020-06-22T19:04:05Z</time>
      </trkpt>
      <trkpt lat="50.86661" lon="1.58947">
        <ele>30.5</ele>
        <time>2020-06-22T19:04:06Z</time>
      </trkpt>
      <trkpt lat="50.8667" lon="1.58941">
        <ele>29.5</ele>
        <time>2020-06-22T19:04:07Z</time>
      </trkpt>
      <trkpt lat="50.8668" lon="1.58936">
        <ele>28.5</ele>
        <time>2020-06-22T19:04:08Z</time>
      </trkpt>
      <trkpt lat="50.8669" lon="1.58929">
        <ele>27.6</ele>
        <time>2020-06-22T19:04:09Z</time>
      </trkpt>
      <trkpt lat="50.86699" lon="1.58919">
        <ele>26.8</ele>
        <time>2020-06-22T19:04:10Z</time>
      </trkpt>
      <trkpt lat="50.86707" lon="1.58908">
        <ele>26.2</ele>
        <time>2020-06-22T19:04:11Z</time>
      </trkpt>
      <trkpt lat="50.86715" lon="1.58894">
        <ele>25.8</ele>
        <time>2020-06-22T19:04:12Z</time>
      </trkpt>
      <trkpt lat="50.86723" lon="1.58881">
        <ele>25.7</ele>
        <time>2020-06-22T19:04:13Z</time>
      </trkpt>
      <trkpt lat="50.86731" lon="1.58868">
        <ele>25.7</ele>
        <time>2020-06-22T19:04:14Z</time>
      </trkpt>
      <trkpt lat="50.86738" lon="1.58856">
        <ele>25.8</ele>
        <time>2020-06-22T19:04:15Z</time>
      </trkpt>
      <trkpt lat="50.86745" lon="1.58844">
        <ele>25.9</ele>
        <time>2020-06-22T19:04:16Z</time>
      </trkpt>
      <trkpt lat="50.86751" lon="1.58833">
        <ele>26.3</ele>
        <time>2020-06-22T19:04:17Z</time>
      </trkpt>
      <trkpt lat="50.86758" lon="1.58823">
        <ele>26.6</ele>
        <time>2020-06-22T19:04:18Z</time>
      </trkpt>
      <trkpt lat="50.86764" lon="1.58815">
        <ele>27.1</ele>
        <time>2020-06-22T19:04:19Z</time>
      </trkpt>
      <trkpt lat="50.86769" lon="1.58806">
        <ele>27.5</ele>
        <time>2020-06-22T19:04:20Z</time>
      </trkpt>
      <trkpt lat="50.86773" lon="1.58798">
        <ele>28</ele>
        <time>2020-06-22T19:04:21Z</time>
      </trkpt>
      <trkpt lat="50.86777" lon="1.58791">
        <ele>28.5</ele>
        <time>2020-06-22T19:04:22Z</time>
      </trkpt>
      <trkpt lat="50.86781" lon="1.58784">
        <ele>29</ele>
        <time>2020-06-22T19:04:23Z</time>
      </trkpt>
      <trkpt lat="50.86784" lon="1.58777">
        <ele>29.4</ele>
        <time>2020-06-22T19:04:24Z</time>
      </trkpt>
      <trkpt lat="50.86786" lon="1.58771">
        <ele>29.8</ele>
        <time>2020-06-22T19:04:25Z</time>
      </trkpt>
      <trkpt lat="50.86789" lon="1.58766">
        <ele>30.1</ele>
        <time>2020-06-22T19:04:26Z</time>
      </trkpt>
      <trkpt lat="50.86791" lon="1.5876">
        <ele>30.4</ele>
        <time>2020-06-22T19:04:27Z</time>
      </trkpt>
      <trkpt lat="50.86793" lon="1.58754">
        <ele>30.7</ele>
        <time>2020-06-22T19:04:28Z</time>
      </trkpt>
      <trkpt lat="50.86793" lon="1.58749">
        <ele>30.9</ele>
        <time>2020-06-22T19:04:29Z</time>
      </trkpt>
      <trkpt lat="50.86792" lon="1.58743">
        <ele>31.4</ele>
        <time>2020-06-22T19:04:30Z</time>
      </trkpt>
      <trkpt lat="50.86792" lon="1.58738">
        <ele>31.6</ele>
        <time>2020-06-22T19:04:31Z</time>
      </trkpt>
      <trkpt lat="50.8679" lon="1.58733">
        <ele>31.9</ele>
        <time>2020-06-22T19:04:32Z</time>
      </trkpt>
      <trkpt lat="50.86787" lon="1.58729">
        <ele>32.1</ele>
        <time>2020-06-22T19:04:33Z</time>
      </trkpt>
      <trkpt lat="50.86783" lon="1.58726">
        <ele>32.4</ele>
        <time>2020-06-22T19:04:34Z</time>
      </trkpt>
      <trkpt lat="50.8678" lon="1.58721">
        <ele>32.7</ele>
        <time>2020-06-22T19:04:35Z</time>
      </trkpt>
      <trkpt lat="50.86777" lon="1.58716">
        <ele>33</ele>
        <time>2020-06-22T19:04:36Z</time>
      </trkpt>
      <trkpt lat="50.86774" lon="1.58712">
        <ele>33.3</ele>
        <time>2020-06-22T19:04:37Z</time>
      </trkpt>
      <trkpt lat="50.8677" lon="1.58708">
        <ele>33.5</ele>
        <time>2020-06-22T19:04:38Z</time>
      </trkpt>
      <trkpt lat="50.86767" lon="1.58703">
        <ele>33.8</ele>
        <time>2020-06-22T19:04:39Z</time>
      </trkpt>
      <trkpt lat="50.86763" lon="1.58697">
        <ele>34.2</ele>
        <time>2020-06-22T19:04:40Z</time>
      </trkpt>
      <trkpt lat="50.8676" lon="1.5869">
        <ele>34.6</ele>
        <time>2020-06-22T19:04:41Z</time>
      </trkpt>
      <trkpt lat="50.86757" lon="1.58684">
        <ele>34.9</ele>
        <time>2020-06-22T19:04:42Z</time>
      </trkpt>
      <trkpt lat="50.86755" lon="1.58677">
        <ele>35.3</ele>
        <time>2020-06-22T19:04:43Z</time>
      </trkpt>
      <trkpt lat="50.86753" lon="1.58671">
        <ele>35.6</ele>
        <time>2020-06-22T19:04:44Z</time>
      </trkpt>
      <trkpt lat="50.86751" lon="1.58665">
        <ele>35.9</ele>
        <time>2020-06-22T19:04:45Z</time>
      </trkpt>
      <trkpt lat="50.86749" lon="1.58659">
        <ele>36.3</ele>
        <time>2020-06-22T19:04:46Z</time>
      </trkpt>
      <trkpt lat="50.86747" lon="1.58654">
        <ele>36.5</ele>
        <time>2020-06-22T19:04:47Z</time>
      </trkpt>
      <trkpt lat="50.86747" lon="1.58648">
        <ele>36.8</ele>
        <time>2020-06-22T19:04:48Z</time>
      </trkpt>
      <trkpt lat="50.86747" lon="1.58644">
        <ele>37.1</ele>
        <time>2020-06-22T19:04:49Z</time>
      </trkpt>
      <trkpt lat="50.86748" lon="1.58638">
        <ele>37.4</ele>
        <time>2020-06-22T19:04:50Z</time>
      </trkpt>
      <trkpt lat="50.86751" lon="1.58633">
        <ele>37.6</ele>
        <time>2020-06-22T19:04:51Z</time>
      </trkpt>
      <trkpt lat="50.86754" lon="1.58629">
        <ele>37.9</ele>
        <time>2020-06-22T19:04:52Z</time>
      </trkpt>
      <trkpt lat="50.86756" lon="1.58627">
        <ele>38.1</ele>
        <time>2020-06-22T19:04:53Z</time>
      </trkpt>
      <trkpt lat="50.86759" lon="1.58625">
        <ele>38.3</ele>
        <time>2020-06-22T19:04:54Z</time>
      </trkpt>
      <trkpt lat="50.86761" lon="1.58623">
        <ele>38.4</ele>
        <time>2020-06-22T19:04:55Z</time>
      </trkpt>
      <trkpt lat="50.86764" lon="1.58624">
        <ele>38.7</ele>
        <time>2020-06-22T19:04:56Z</time>
      </trkpt>
      <trkpt lat="50.86768" lon="1.58623">
        <ele>38.9</ele>
        <time>2020-06-22T19:04:57Z</time>
      </trkpt>
      <trkpt lat="50.86772" lon="1.58623">
        <ele>39.2</ele>
        <time>2020-06-22T19:04:58Z</time>
      </trkpt>
      <trkpt lat="50.86774" lon="1.58624">
        <ele>39.4</ele>
        <time>2020-06-22T19:04:59Z</time>
      </trkpt>
      <trkpt lat="50.86778" lon="1.58626">
        <ele>39.7</ele>
        <time>2020-06-22T19:05:00Z</time>
      </trkpt>
      <trkpt lat="50.86782" lon="1.58627">
        <ele>40</ele>
        <time>2020-06-22T19:05:01Z</time>
      </trkpt>
      <trkpt lat="50.86785" lon="1.58629">
        <ele>40.2</ele>
        <time>2020-06-22T19:05:02Z</time>
      </trkpt>
      <trkpt lat="50.86787" lon="1.58631">
        <ele>40.4</ele>
        <time>2020-06-22T19:05:03Z</time>
      </trkpt>
      <trkpt lat="50.8679" lon="1.58636">
        <ele>40.6</ele>
        <time>2020-06-22T19:05:04Z</time>
      </trkpt>
      <trkpt lat="50.86791" lon="1.58641">
        <ele>40.9</ele>
        <time>2020-06-22T19:05:05Z</time>
      </trkpt>
      <trkpt lat="50.86793" lon="1.58646">
        <ele>41.1</ele>
        <time>2020-06-22T19:05:06Z</time>
      </trkpt>
      <trkpt lat="50.86795" lon="1.58652">
        <ele>41.4</ele>
        <time>2020-06-22T19:05:07Z</time>
      </trkpt>
      <trkpt lat="50.86798" lon="1.58656">
        <ele>41.6</ele>
        <time>2020-06-22T19:05:08Z</time>
      </trkpt>
      <trkpt lat="50.86802" lon="1.58659">
        <ele>41.9</ele>
        <time>2020-06-22T19:05:09Z</time>
      </trkpt>
      <trkpt lat="50.86804" lon="1.58662">
        <ele>42</ele>
        <time>2020-06-22T19:05:10Z</time>
      </trkpt>
      <trkpt lat="50.86807" lon="1.58665">
        <ele>42.2</ele>
        <time>2020-06-22T19:05:11Z</time>
      </trkpt>
      <trkpt lat="50.86809" lon="1.58667">
        <ele>42.4</ele>
        <time>2020-06-22T19:05:12Z</time>
      </trkpt>
      <trkpt lat="50.86813" lon="1.5867">
        <ele>42.6</ele>
        <time>2020-06-22T19:05:13Z</time>
      </trkpt>
      <trkpt lat="50.86815" lon="1.58672">
        <ele>42.7</ele>
        <time>2020-06-22T19:05:14Z</time>
      </trkpt>
      <trkpt lat="50.86819" lon="1.58674">
        <ele>42.9</ele>
        <time>2020-06-22T19:05:15Z</time>
      </trkpt>
      <trkpt lat="50.86821" lon="1.58676">
        <ele>43</ele>
        <time>2020-06-22T19:05:16Z</time>
      </trkpt>
      <trkpt lat="50.86824" lon="1.58679">
        <ele>43.2</ele>
        <time>2020-06-22T19:05:17Z</time>
      </trkpt>
      <trkpt lat="50.86827" lon="1.5868">
        <ele>43.3</ele>
        <time>2020-06-22T19:05:18Z</time>
      </trkpt>
      <trkpt lat="50.86829" lon="1.58681">
        <ele>43.3</ele>
        <time>2020-06-22T19:05:19Z</time>
      </trkpt>
      <trkpt lat="50.86833" lon="1.58683">
        <ele>43.3</ele>
        <time>2020-06-22T19:05:20Z</time>
      </trkpt>
      <trkpt lat="50.86836" lon="1.58685">
        <ele>43.4</ele>
        <time>2020-06-22T19:05:21Z</time>
      </trkpt>
      <trkpt lat="50.8684" lon="1.58686">
        <ele>43.4</ele>
        <time>2020-06-22T19:05:22Z</time>
      </trkpt>
      <trkpt lat="50.86844" lon="1.58688">
        <ele>43.5</ele>
        <time>2020-06-22T19:05:23Z</time>
      </trkpt>
      <trkpt lat="50.86848" lon="1.58691">
        <ele>43.6</ele>
        <time>2020-06-22T19:05:24Z</time>
      </trkpt>
      <trkpt lat="50.86852" lon="1.58694">
        <ele>43.6</ele>
        <time>2020-06-22T19:05:25Z</time>
      </trkpt>
      <trkpt lat="50.86854" lon="1.58695">
        <ele>43.6</ele>
        <time>2020-06-22T19:05:26Z</time>
      </trkpt>
      <trkpt lat="50.86857" lon="1.58699">
        <ele>43.6</ele>
        <time>2020-06-22T19:05:27Z</time>
      </trkpt>
      <trkpt lat="50.86861" lon="1.58702">
        <ele>43.6</ele>
        <time>2020-06-22T19:05:28Z</time>
      </trkpt>
      <trkpt lat="50.86864" lon="1.58704">
        <ele>43.6</ele>
        <time>2020-06-22T19:05:29Z</time>
      </trkpt>
      <trkpt lat="50.86867" lon="1.58706">
        <ele>43.7</ele>
        <time>2020-06-22T19:05:30Z</time>
      </trkpt>
      <trkpt lat="50.86872" lon="1.58708">
        <ele>43.6</ele>
        <time>2020-06-22T19:05:31Z</time>
      </trkpt>
      <trkpt lat="50.86875" lon="1.5871">
        <ele>43.6</ele>
        <time>2020-06-22T19:05:32Z</time>
      </trkpt>
      <trkpt lat="50.86879" lon="1.58713">
        <ele>43.6</ele>
        <time>2020-06-22T19:05:33Z</time>
      </trkpt>
      <trkpt lat="50.86883" lon="1.58717">
        <ele>43.6</ele>
        <time>2020-06-22T19:05:34Z</time>
      </trkpt>
      <trkpt lat="50.86886" lon="1.58719">
        <ele>43.5</ele>
        <time>2020-06-22T19:05:35Z</time>
      </trkpt>
      <trkpt lat="50.8689" lon="1.5872">
        <ele>43.5</ele>
        <time>2020-06-22T19:05:36Z</time>
      </trkpt>
      <trkpt lat="50.86894" lon="1.58721">
        <ele>43.5</ele>
        <time>2020-06-22T19:05:37Z</time>
      </trkpt>
      <trkpt lat="50.86896" lon="1.58721">
        <ele>43.5</ele>
        <time>2020-06-22T19:05:38Z</time>
      </trkpt>
      <trkpt lat="50.86898" lon="1.58722">
        <ele>43.4</ele>
        <time>2020-06-22T19:05:39Z</time>
      </trkpt>
      <trkpt lat="50.86899" lon="1.58721">
        <ele>43.4</ele>
        <time>2020-06-22T19:05:40Z</time>
      </trkpt>
      <trkpt lat="50.86901" lon="1.58722">
        <ele>43.4</ele>
        <time>2020-06-22T19:05:41Z</time>
      </trkpt>
      <trkpt lat="50.86902" lon="1.58721">
        <ele>43.4</ele>
        <time>2020-06-22T19:05:42Z</time>
      </trkpt>
      <trkpt lat="50.86902" lon="1.58721">
        <ele>43.4</ele>
        <time>2020-06-22T19:05:43Z</time>
      </trkpt>
      <trkpt lat="50.86902" lon="1.58721">
        <ele>43.4</ele>
        <time>2020-06-22T19:05:44Z</time>
      </trkpt>
      <trkpt lat="50.86902" lon="1.58722">
        <ele>43.4</ele>
        <time>2020-06-22T19:05:45Z</time>
      </trkpt>
      <trkpt lat="50.86903" lon="1.58721">
        <ele>43.4</ele>
        <time>2020-06-22T19:05:46Z</time>
      </trkpt>
      <trkpt lat="50.86903" lon="1.5872">
        <ele>43.4</ele>
        <time>2020-06-22T19:05:47Z</time>
      </trkpt>
      <trkpt lat="50.86903" lon="1.58721">
        <ele>43.4</ele>
        <time>2020-06-22T19:05:48Z</time>
      </trkpt>
      <trkpt lat="50.86903" lon="1.5872">
        <ele>43.4</ele>
        <time>2020-06-22T19:05:49Z</time>
      </trkpt>
      <trkpt lat="50.86903" lon="1.5872">
        <ele>43.4</ele>
        <time>2020-06-22T19:05:50Z</time>
      </trkpt>
      <trkpt lat="50.86903" lon="1.5872">
        <ele>43.4</ele>
        <time>2020-06-22T19:05:51Z</time>
      </trkpt>
      <trkpt lat="50.86903" lon="1.5872">
        <ele>43.4</ele>
        <time>2020-06-22T19:05:52Z</time>
      </trkpt>
      <trkpt lat="50.86903" lon="1.58718">
        <ele>43.4</ele>
        <time>2020-06-22T19:05:53Z</time>
      </trkpt>
      <trkpt lat="50.86903" lon="1.58717">
        <ele>43.4</ele>
        <time>2020-06-22T19:05:54Z</time>
      </trkpt>
      <trkpt lat="50.86902" lon="1.58719">
        <ele>43.3</ele>
        <time>2020-06-22T19:05:55Z</time>
      </trkpt>
      <trkpt lat="50.86902" lon="1.58719">
        <ele>43.3</ele>
        <time>2020-06-22T19:05:56Z</time>
      </trkpt>
      <trkpt lat="50.86902" lon="1.58718">
        <ele>43.3</ele>
        <time>2020-06-22T19:05:57Z</time>
      </trkpt>
      <trkpt lat="50.86902" lon="1.58717">
        <ele>43.3</ele>
        <time>2020-06-22T19:05:58Z</time>
      </trkpt>
      <trkpt lat="50.86902" lon="1.58717">
        <ele>43.3</ele>
        <time>2020-06-22T19:05:59Z</time>
      </trkpt>
      <trkpt lat="50.86907" lon="1.58722">
        <ele>43.2</ele>
        <time>2020-06-22T19:07:07Z</time>
      </trkpt>
      <trkpt lat="50.86908" lon="1.58724">
        <ele>43.2</ele>
        <time>2020-06-22T19:07:08Z</time>
      </trkpt>
      <trkpt lat="50.86909" lon="1.58725">
        <ele>43.2</ele>
        <time>2020-06-22T19:07:09Z</time>
      </trkpt>
      <trkpt lat="50.86911" lon="1.58727">
        <ele>43.2</ele>
        <time>2020-06-22T19:07:10Z</time>
      </trkpt>
      <trkpt lat="50.86911" lon="1.58728">
        <ele>43.2</ele>
        <time>2020-06-22T19:07:11Z</time>
      </trkpt>
      <trkpt lat="50.86912" lon="1.58729">
        <ele>43.1</ele>
        <time>2020-06-22T19:07:12Z</time>
      </trkpt>
      <trkpt lat="50.86915" lon="1.58731">
        <ele>43.1</ele>
        <time>2020-06-22T19:07:13Z</time>
      </trkpt>
      <trkpt lat="50.86916" lon="1.58731">
        <ele>43.1</ele>
        <time>2020-06-22T19:07:14Z</time>
      </trkpt>
      <trkpt lat="50.86919" lon="1.5873">
        <ele>43</ele>
        <time>2020-06-22T19:07:15Z</time>
      </trkpt>
      <trkpt lat="50.8692" lon="1.5873">
        <ele>43</ele>
        <time>2020-06-22T19:07:16Z</time>
      </trkpt>
      <trkpt lat="50.86922" lon="1.5873">
        <ele>43</ele>
        <time>2020-06-22T19:07:17Z</time>
      </trkpt>
      <trkpt lat="50.86923" lon="1.58729">
        <ele>43</ele>
        <time>2020-06-22T19:07:18Z</time>
      </trkpt>
      <trkpt lat="50.86924" lon="1.58728">
        <ele>43</ele>
        <time>2020-06-22T19:07:19Z</time>
      </trkpt>
      <trkpt lat="50.86926" lon="1.58729">
        <ele>42.9</ele>
        <time>2020-06-22T19:07:20Z</time>
      </trkpt>
      <trkpt lat="50.86928" lon="1.5873">
        <ele>42.9</ele>
        <time>2020-06-22T19:07:21Z</time>
      </trkpt>
      <trkpt lat="50.86929" lon="1.58732">
        <ele>42.9</ele>
        <time>2020-06-22T19:07:22Z</time>
      </trkpt>
      <trkpt lat="50.8693" lon="1.58733">
        <ele>42.9</ele>
        <time>2020-06-22T19:07:23Z</time>
      </trkpt>
      <trkpt lat="50.86931" lon="1.58733">
        <ele>42.9</ele>
        <time>2020-06-22T19:07:24Z</time>
      </trkpt>
      <trkpt lat="50.86932" lon="1.58733">
        <ele>42.9</ele>
        <time>2020-06-22T19:07:25Z</time>
      </trkpt>
      <trkpt lat="50.86933" lon="1.58733">
        <ele>42.8</ele>
        <time>2020-06-22T19:07:26Z</time>
      </trkpt>
      <trkpt lat="50.86934" lon="1.58733">
        <ele>42.8</ele>
        <time>2020-06-22T19:07:27Z</time>
      </trkpt>
      <trkpt lat="50.86936" lon="1.58732">
        <ele>42.8</ele>
        <time>2020-06-22T19:07:28Z</time>
      </trkpt>
      <trkpt lat="50.86937" lon="1.58731">
        <ele>42.8</ele>
        <time>2020-06-22T19:07:29Z</time>
      </trkpt>
      <trkpt lat="50.86939" lon="1.58731">
        <ele>42.8</ele>
        <time>2020-06-22T19:07:30Z</time>
      </trkpt>
      <trkpt lat="50.8694" lon="1.5873">
        <ele>42.7</ele>
        <time>2020-06-22T19:07:31Z</time>
      </trkpt>
      <trkpt lat="50.86941" lon="1.58729">
        <ele>42.7</ele>
        <time>2020-06-22T19:07:32Z</time>
      </trkpt>
      <trkpt lat="50.86942" lon="1.58728">
        <ele>42.7</ele>
        <time>2020-06-22T19:07:33Z</time>
      </trkpt>
      <trkpt lat="50.86943" lon="1.58728">
        <ele>42.7</ele>
        <time>2020-06-22T19:07:34Z</time>
      </trkpt>
      <trkpt lat="50.86943" lon="1.58727">
        <ele>42.7</ele>
        <time>2020-06-22T19:07:35Z</time>
      </trkpt>
      <trkpt lat="50.86944" lon="1.58727">
        <ele>42.7</ele>
        <time>2020-06-22T19:07:36Z</time>
      </trkpt>
      <trkpt lat="50.86945" lon="1.58725">
        <ele>42.7</ele>
        <time>2020-06-22T19:07:37Z</time>
      </trkpt>
      <trkpt lat="50.86946" lon="1.58724">
        <ele>42.7</ele>
        <time>2020-06-22T19:07:38Z</time>
      </trkpt>
      <trkpt lat="50.86946" lon="1.58722">
        <ele>42.6</ele>
        <time>2020-06-22T19:07:39Z</time>
      </trkpt>
      <trkpt lat="50.86946" lon="1.58721">
        <ele>42.6</ele>
        <time>2020-06-22T19:07:40Z</time>
      </trkpt>
      <trkpt lat="50.86947" lon="1.58721">
        <ele>42.6</ele>
        <time>2020-06-22T19:07:41Z</time>
      </trkpt>
      <trkpt lat="50.86948" lon="1.5872">
        <ele>42.6</ele>
        <time>2020-06-22T19:07:42Z</time>
      </trkpt>
      <trkpt lat="50.86949" lon="1.58719">
        <ele>42.6</ele>
        <time>2020-06-22T19:07:43Z</time>
      </trkpt>
      <trkpt lat="50.8695" lon="1.58717">
        <ele>42.6</ele>
        <time>2020-06-22T19:07:44Z</time>
      </trkpt>
      <trkpt lat="50.86951" lon="1.58715">
        <ele>42.6</ele>
        <time>2020-06-22T19:07:45Z</time>
      </trkpt>
      <trkpt lat="50.86951" lon="1.58714">
        <ele>42.5</ele>
        <time>2020-06-22T19:07:46Z</time>
      </trkpt>
      <trkpt lat="50.86952" lon="1.58712">
        <ele>42.5</ele>
        <time>2020-06-22T19:07:47Z</time>
      </trkpt>
      <trkpt lat="50.86953" lon="1.58711">
        <ele>42.5</ele>
        <time>2020-06-22T19:07:48Z</time>
      </trkpt>
      <trkpt lat="50.86954" lon="1.5871">
        <ele>42.5</ele>
        <time>2020-06-22T19:07:49Z</time>
      </trkpt>
      <trkpt lat="50.86955" lon="1.58707">
        <ele>42.5</ele>
        <time>2020-06-22T19:07:50Z</time>
      </trkpt>
      <trkpt lat="50.86955" lon="1.58706">
        <ele>42.5</ele>
        <time>2020-06-22T19:07:51Z</time>
      </trkpt>
      <trkpt lat="50.86956" lon="1.58704">
        <ele>42.5</ele>
        <time>2020-06-22T19:07:52Z</time>
      </trkpt>
      <trkpt lat="50.86956" lon="1.58704">
        <ele>42.5</ele>
        <time>2020-06-22T19:07:53Z</time>
      </trkpt>
      <trkpt lat="50.86957" lon="1.58701">
        <ele>42.4</ele>
        <time>2020-06-22T19:07:54Z</time>
      </trkpt>
      <trkpt lat="50.86958" lon="1.587">
        <ele>42.4</ele>
        <time>2020-06-22T19:07:55Z</time>
      </trkpt>
      <trkpt lat="50.86958" lon="1.587">
        <ele>42.4</ele>
        <time>2020-06-22T19:07:56Z</time>
      </trkpt>
      <trkpt lat="50.86958" lon="1.58701">
        <ele>42.4</ele>
        <time>2020-06-22T19:07:57Z</time>
      </trkpt>
      <trkpt lat="50.86958" lon="1.587">
        <ele>42.4</ele>
        <time>2020-06-22T19:07:58Z</time>
      </trkpt>
      <trkpt lat="50.86959" lon="1.58699">
        <ele>42.4</ele>
        <time>2020-06-22T19:07:59Z</time>
      </trkpt>
      <trkpt lat="50.86959" lon="1.58697">
        <ele>42.4</ele>
        <time>2020-06-22T19:08:00Z</time>
      </trkpt>
      <trkpt lat="50.8696" lon="1.58694">
        <ele>42.4</ele>
        <time>2020-06-22T19:08:01Z</time>
      </trkpt>
      <trkpt lat="50.86961" lon="1.58693">
        <ele>42.4</ele>
        <time>2020-06-22T19:08:02Z</time>
      </trkpt>
      <trkpt lat="50.86961" lon="1.58692">
        <ele>42.3</ele>
        <time>2020-06-22T19:08:03Z</time>
      </trkpt>
      <trkpt lat="50.86962" lon="1.5869">
        <ele>42.3</ele>
        <time>2020-06-22T19:08:04Z</time>
      </trkpt>
      <trkpt lat="50.86963" lon="1.58687">
        <ele>42.3</ele>
        <time>2020-06-22T19:08:05Z</time>
      </trkpt>
      <trkpt lat="50.86964" lon="1.58686">
        <ele>42.3</ele>
        <time>2020-06-22T19:08:06Z</time>
      </trkpt>
      <trkpt lat="50.86965" lon="1.58684">
        <ele>42.3</ele>
        <time>2020-06-22T19:08:07Z</time>
      </trkpt>
      <trkpt lat="50.86966" lon="1.58682">
        <ele>42.3</ele>
        <time>2020-06-22T19:08:08Z</time>
      </trkpt>
      <trkpt lat="50.86967" lon="1.5868">
        <ele>42.2</ele>
        <time>2020-06-22T19:08:09Z</time>
      </trkpt>
      <trkpt lat="50.86968" lon="1.58677">
        <ele>42.2</ele>
        <time>2020-06-22T19:08:10Z</time>
      </trkpt>
      <trkpt lat="50.86968" lon="1.58674">
        <ele>42.2</ele>
        <time>2020-06-22T19:08:11Z</time>
      </trkpt>
      <trkpt lat="50.86969" lon="1.58673">
        <ele>42.2</ele>
        <time>2020-06-22T19:08:12Z</time>
      </trkpt>
      <trkpt lat="50.8697" lon="1.58672">
        <ele>42.2</ele>
        <time>2020-06-22T19:08:13Z</time>
      </trkpt>
      <trkpt lat="50.86972" lon="1.5867">
        <ele>42.2</ele>
        <time>2020-06-22T19:08:14Z</time>
      </trkpt>
      <trkpt lat="50.86973" lon="1.58669">
        <ele>42.1</ele>
        <time>2020-06-22T19:08:15Z</time>
      </trkpt>
      <trkpt lat="50.86974" lon="1.58667">
        <ele>42.1</ele>
        <time>2020-06-22T19:08:16Z</time>
      </trkpt>
      <trkpt lat="50.86975" lon="1.58665">
        <ele>42.1</ele>
        <time>2020-06-22T19:08:17Z</time>
      </trkpt>
      <trkpt lat="50.86976" lon="1.58664">
        <ele>42.1</ele>
        <time>2020-06-22T19:08:18Z</time>
      </trkpt>
      <trkpt lat="50.86977" lon="1.58662">
        <ele>42.1</ele>
        <time>2020-06-22T19:08:19Z</time>
      </trkpt>
      <trkpt lat="50.86978" lon="1.5866">
        <ele>42.1</ele>
        <time>2020-06-22T19:08:20Z</time>
      </trkpt>
      <trkpt lat="50.86979" lon="1.58658">
        <ele>42.1</ele>
        <time>2020-06-22T19:08:21Z</time>
      </trkpt>
      <trkpt lat="50.86979" lon="1.58657">
        <ele>42.1</ele>
        <time>2020-06-22T19:08:22Z</time>
      </trkpt>
      <trkpt lat="50.86979" lon="1.58656">
        <ele>42.1</ele>
        <time>2020-06-22T19:08:23Z</time>
      </trkpt>
      <trkpt lat="50.8698" lon="1.58654">
        <ele>42.1</ele>
        <time>2020-06-22T19:08:24Z</time>
      </trkpt>
      <trkpt lat="50.8698" lon="1.58652">
        <ele>42.1</ele>
        <time>2020-06-22T19:08:25Z</time>
      </trkpt>
      <trkpt lat="50.8698" lon="1.58651">
        <ele>42.1</ele>
        <time>2020-06-22T19:08:26Z</time>
      </trkpt>
      <trkpt lat="50.8698" lon="1.5865">
        <ele>42.1</ele>
        <time>2020-06-22T19:08:27Z</time>
      </trkpt>
      <trkpt lat="50.8698" lon="1.58647">
        <ele>42.1</ele>
        <time>2020-06-22T19:08:28Z</time>
      </trkpt>
      <trkpt lat="50.86979" lon="1.58643">
        <ele>42.1</ele>
        <time>2020-06-22T19:08:29Z</time>
      </trkpt>
      <trkpt lat="50.86979" lon="1.58642">
        <ele>42.1</ele>
        <time>2020-06-22T19:08:30Z</time>
      </trkpt>
      <trkpt lat="50.86977" lon="1.58639">
        <ele>42.1</ele>
        <time>2020-06-22T19:08:31Z</time>
      </trkpt>
      <trkpt lat="50.86976" lon="1.58638">
        <ele>42.1</ele>
        <time>2020-06-22T19:08:32Z</time>
      </trkpt>
      <trkpt lat="50.86975" lon="1.58636">
        <ele>42.2</ele>
        <time>2020-06-22T19:08:33Z</time>
      </trkpt>
      <trkpt lat="50.86974" lon="1.58634">
        <ele>42.2</ele>
        <time>2020-06-22T19:08:34Z</time>
      </trkpt>
      <trkpt lat="50.86972" lon="1.58631">
        <ele>42.2</ele>
        <time>2020-06-22T19:08:35Z</time>
      </trkpt>
      <trkpt lat="50.86971" lon="1.58631">
        <ele>42.2</ele>
        <time>2020-06-22T19:08:36Z</time>
      </trkpt>
      <trkpt lat="50.8697" lon="1.5863">
        <ele>42.2</ele>
        <time>2020-06-22T19:08:37Z</time>
      </trkpt>
      <trkpt lat="50.86968" lon="1.5863">
        <ele>42.2</ele>
        <time>2020-06-22T19:08:38Z</time>
      </trkpt>
      <trkpt lat="50.86967" lon="1.58631">
        <ele>42.2</ele>
        <time>2020-06-22T19:08:39Z</time>
      </trkpt>
      <trkpt lat="50.86965" lon="1.58632">
        <ele>42.2</ele>
        <time>2020-06-22T19:08:40Z</time>
      </trkpt>
      <trkpt lat="50.86964" lon="1.58634">
        <ele>42.2</ele>
        <time>2020-06-22T19:08:41Z</time>
      </trkpt>
      <trkpt lat="50.86962" lon="1.58634">
        <ele>42.2</ele>
        <time>2020-06-22T19:08:42Z</time>
      </trkpt>
      <trkpt lat="50.86961" lon="1.58635">
        <ele>42.2</ele>
        <time>2020-06-22T19:08:43Z</time>
      </trkpt>
      <trkpt lat="50.8696" lon="1.58637">
        <ele>42.2</ele>
        <time>2020-06-22T19:08:44Z</time>
      </trkpt>
      <trkpt lat="50.8696" lon="1.58638">
        <ele>42.2</ele>
        <time>2020-06-22T19:08:45Z</time>
      </trkpt>
      <trkpt lat="50.86959" lon="1.58638">
        <ele>42.2</ele>
        <time>2020-06-22T19:08:46Z</time>
      </trkpt>
      <trkpt lat="50.86958" lon="1.58638">
        <ele>42.2</ele>
        <time>2020-06-22T19:08:47Z</time>
      </trkpt>
      <trkpt lat="50.86958" lon="1.58639">
        <ele>42.2</ele>
        <time>2020-06-22T19:08:48Z</time>
      </trkpt>
      <trkpt lat="50.86958" lon="1.58641">
        <ele>42.2</ele>
        <time>2020-06-22T19:08:49Z</time>
      </trkpt>
      <trkpt lat="50.86958" lon="1.58641">
        <ele>42.2</ele>
        <time>2020-06-22T19:08:50Z</time>
      </trkpt>
      <trkpt lat="50.86957" lon="1.58643">
        <ele>42.2</ele>
        <time>2020-06-22T19:08:51Z</time>
      </trkpt>
      <trkpt lat="50.86957" lon="1.58646">
        <ele>42.2</ele>
        <time>2020-06-22T19:08:52Z</time>
      </trkpt>
      <trkpt lat="50.86956" lon="1.58649">
        <ele>42.2</ele>
        <time>2020-06-22T19:08:53Z</time>
      </trkpt>
      <trkpt lat="50.86955" lon="1.5865">
        <ele>42.2</ele>
        <time>2020-06-22T19:08:54Z</time>
      </trkpt>
      <trkpt lat="50.86955" lon="1.58651">
        <ele>42.2</ele>
        <time>2020-06-22T19:08:55Z</time>
      </trkpt>
      <trkpt lat="50.86954" lon="1.58653">
        <ele>42.2</ele>
        <time>2020-06-22T19:08:56Z</time>
      </trkpt>
      <trkpt lat="50.86953" lon="1.58655">
        <ele>42.2</ele>
        <time>2020-06-22T19:08:57Z</time>
      </trkpt>
      <trkpt lat="50.86953" lon="1.58658">
        <ele>42.2</ele>
        <time>2020-06-22T19:08:58Z</time>
      </trkpt>
      <trkpt lat="50.86952" lon="1.5866">
        <ele>42.3</ele>
        <time>2020-06-22T19:08:59Z</time>
      </trkpt>
      <trkpt lat="50.86952" lon="1.58661">
        <ele>42.3</ele>
        <time>2020-06-22T19:09:00Z</time>
      </trkpt>
      <trkpt lat="50.86951" lon="1.58663">
        <ele>42.3</ele>
        <time>2020-06-22T19:09:01Z</time>
      </trkpt>
      <trkpt lat="50.86951" lon="1.58664">
        <ele>42.3</ele>
        <time>2020-06-22T19:09:02Z</time>
      </trkpt>
      <trkpt lat="50.8695" lon="1.58666">
        <ele>42.3</ele>
        <time>2020-06-22T19:09:03Z</time>
      </trkpt>
      <trkpt lat="50.8695" lon="1.58668">
        <ele>42.3</ele>
        <time>2020-06-22T19:09:04Z</time>
      </trkpt>
      <trkpt lat="50.86949" lon="1.58669">
        <ele>42.3</ele>
        <time>2020-06-22T19:09:05Z</time>
      </trkpt>
      <trkpt lat="50.86948" lon="1.5867">
        <ele>42.3</ele>
        <time>2020-06-22T19:09:06Z</time>
      </trkpt>
      <trkpt lat="50.86948" lon="1.5867">
        <ele>42.3</ele>
        <time>2020-06-22T19:09:07Z</time>
      </trkpt>
      <trkpt lat="50.86948" lon="1.58671">
        <ele>42.3</ele>
        <time>2020-06-22T19:09:08Z</time>
      </trkpt>
      <trkpt lat="50.86947" lon="1.58673">
        <ele>42.4</ele>
        <time>2020-06-22T19:09:09Z</time>
      </trkpt>
      <trkpt lat="50.86946" lon="1.58674">
        <ele>42.4</ele>
        <time>2020-06-22T19:09:10Z</time>
      </trkpt>
      <trkpt lat="50.86946" lon="1.58675">
        <ele>42.4</ele>
        <time>2020-06-22T19:09:11Z</time>
      </trkpt>
      <trkpt lat="50.86946" lon="1.58677">
        <ele>42.4</ele>
        <time>2020-06-22T19:09:12Z</time>
      </trkpt>
      <trkpt lat="50.86945" lon="1.58678">
        <ele>42.4</ele>
        <time>2020-06-22T19:09:13Z</time>
      </trkpt>
      <trkpt lat="50.86945" lon="1.58679">
        <ele>42.4</ele>
        <time>2020-06-22T19:09:14Z</time>
      </trkpt>
      <trkpt lat="50.86944" lon="1.58682">
        <ele>42.5</ele>
        <time>2020-06-22T19:09:15Z</time>
      </trkpt>
      <trkpt lat="50.86944" lon="1.58683">
        <ele>42.5</ele>
        <time>2020-06-22T19:09:16Z</time>
      </trkpt>
      <trkpt lat="50.86944" lon="1.58684">
        <ele>42.5</ele>
        <time>2020-06-22T19:09:17Z</time>
      </trkpt>
      <trkpt lat="50.86944" lon="1.58685">
        <ele>42.5</ele>
        <time>2020-06-22T19:09:18Z</time>
      </trkpt>
      <trkpt lat="50.86944" lon="1.58685">
        <ele>42.5</ele>
        <time>2020-06-22T19:09:19Z</time>
      </trkpt>
      <trkpt lat="50.86943" lon="1.58685">
        <ele>42.5</ele>
        <time>2020-06-22T19:09:20Z</time>
      </trkpt>
      <trkpt lat="50.86944" lon="1.58686">
        <ele>42.5</ele>
        <time>2020-06-22T19:09:21Z</time>
      </trkpt>
      <trkpt lat="50.86944" lon="1.58687">
        <ele>42.5</ele>
        <time>2020-06-22T19:09:22Z</time>
      </trkpt>
      <trkpt lat="50.86944" lon="1.58688">
        <ele>42.5</ele>
        <time>2020-06-22T19:09:23Z</time>
      </trkpt>
      <trkpt lat="50.86944" lon="1.58689">
        <ele>42.5</ele>
        <time>2020-06-22T19:09:24Z</time>
      </trkpt>
      <trkpt lat="50.86944" lon="1.58691">
        <ele>42.5</ele>
        <time>2020-06-22T19:09:25Z</time>
      </trkpt>
      <trkpt lat="50.86944" lon="1.58693">
        <ele>42.6</ele>
        <time>2020-06-22T19:09:26Z</time>
      </trkpt>
      <trkpt lat="50.86944" lon="1.58696">
        <ele>42.6</ele>
        <time>2020-06-22T19:09:27Z</time>
      </trkpt>
      <trkpt lat="50.86944" lon="1.58697">
        <ele>42.6</ele>
        <time>2020-06-22T19:09:28Z</time>
      </trkpt>
      <trkpt lat="50.86944" lon="1.58698">
        <ele>42.7</ele>
        <time>2020-06-22T19:09:29Z</time>
      </trkpt>
      <trkpt lat="50.86944" lon="1.58701">
        <ele>42.8</ele>
        <time>2020-06-22T19:09:30Z</time>
      </trkpt>
      <trkpt lat="50.86943" lon="1.58703">
        <ele>42.8</ele>
        <time>2020-06-22T19:09:31Z</time>
      </trkpt>
      <trkpt lat="50.86942" lon="1.58705">
        <ele>42.8</ele>
        <time>2020-06-22T19:09:32Z</time>
      </trkpt>
      <trkpt lat="50.86941" lon="1.58706">
        <ele>42.8</ele>
        <time>2020-06-22T19:09:33Z</time>
      </trkpt>
      <trkpt lat="50.86939" lon="1.58706">
        <ele>42.8</ele>
        <time>2020-06-22T19:09:34Z</time>
      </trkpt>
      <trkpt lat="50.86939" lon="1.58705">
        <ele>42.8</ele>
        <time>2020-06-22T19:09:35Z</time>
      </trkpt>
      <trkpt lat="50.86938" lon="1.58704">
        <ele>42.9</ele>
        <time>2020-06-22T19:09:36Z</time>
      </trkpt>
      <trkpt lat="50.86937" lon="1.58702">
        <ele>42.9</ele>
        <time>2020-06-22T19:09:37Z</time>
      </trkpt>
      <trkpt lat="50.86936" lon="1.58699">
        <ele>42.9</ele>
        <time>2020-06-22T19:09:38Z</time>
      </trkpt>
      <trkpt lat="50.86936" lon="1.58696">
        <ele>42.9</ele>
        <time>2020-06-22T19:09:39Z</time>
      </trkpt>
      <trkpt lat="50.86935" lon="1.58694">
        <ele>43</ele>
        <time>2020-06-22T19:09:40Z</time>
      </trkpt>
      <trkpt lat="50.86935" lon="1.58692">
        <ele>43</ele>
        <time>2020-06-22T19:09:41Z</time>
      </trkpt>
      <trkpt lat="50.86935" lon="1.58691">
        <ele>43</ele>
        <time>2020-06-22T19:09:42Z</time>
      </trkpt>
      <trkpt lat="50.86935" lon="1.58689">
        <ele>43</ele>
        <time>2020-06-22T19:09:43Z</time>
      </trkpt>
      <trkpt lat="50.86936" lon="1.58686">
        <ele>43</ele>
        <time>2020-06-22T19:09:44Z</time>
      </trkpt>
      <trkpt lat="50.86936" lon="1.58685">
        <ele>43</ele>
        <time>2020-06-22T19:09:45Z</time>
      </trkpt>
      <trkpt lat="50.86936" lon="1.58683">
        <ele>43</ele>
        <time>2020-06-22T19:09:46Z</time>
      </trkpt>
      <trkpt lat="50.86937" lon="1.58681">
        <ele>43.1</ele>
        <time>2020-06-22T19:09:47Z</time>
      </trkpt>
      <trkpt lat="50.86938" lon="1.5868">
        <ele>43.1</ele>
        <time>2020-06-22T19:09:48Z</time>
      </trkpt>
      <trkpt lat="50.86938" lon="1.58679">
        <ele>43.1</ele>
        <time>2020-06-22T19:09:49Z</time>
      </trkpt>
      <trkpt lat="50.86939" lon="1.58675">
        <ele>43.1</ele>
        <time>2020-06-22T19:09:50Z</time>
      </trkpt>
      <trkpt lat="50.8694" lon="1.58674">
        <ele>43.1</ele>
        <time>2020-06-22T19:09:51Z</time>
      </trkpt>
      <trkpt lat="50.8694" lon="1.58672">
        <ele>43.1</ele>
        <time>2020-06-22T19:09:52Z</time>
      </trkpt>
      <trkpt lat="50.8694" lon="1.58671">
        <ele>43.1</ele>
        <time>2020-06-22T19:09:53Z</time>
      </trkpt>
      <trkpt lat="50.86941" lon="1.5867">
        <ele>43.1</ele>
        <time>2020-06-22T19:09:54Z</time>
      </trkpt>
      <trkpt lat="50.86942" lon="1.5867">
        <ele>43.1</ele>
        <time>2020-06-22T19:09:55Z</time>
      </trkpt>
      <trkpt lat="50.86942" lon="1.58669">
        <ele>43.1</ele>
        <time>2020-06-22T19:09:56Z</time>
      </trkpt>
      <trkpt lat="50.86943" lon="1.58668">
        <ele>43.1</ele>
        <time>2020-06-22T19:09:57Z</time>
      </trkpt>
      <trkpt lat="50.86943" lon="1.58666">
        <ele>43.1</ele>
        <time>2020-06-22T19:09:58Z</time>
      </trkpt>
      <trkpt lat="50.86944" lon="1.58665">
        <ele>43.1</ele>
        <time>2020-06-22T19:09:59Z</time>
      </trkpt>
      <trkpt lat="50.86944" lon="1.58664">
        <ele>43.1</ele>
        <time>2020-06-22T19:10:00Z</time>
      </trkpt>
      <trkpt lat="50.86945" lon="1.58662">
        <ele>43.2</ele>
        <time>2020-06-22T19:10:01Z</time>
      </trkpt>
      <trkpt lat="50.86946" lon="1.5866">
        <ele>43.2</ele>
        <time>2020-06-22T19:10:02Z</time>
      </trkpt>
      <trkpt lat="50.86946" lon="1.58659">
        <ele>43.2</ele>
        <time>2020-06-22T19:10:03Z</time>
      </trkpt>
      <trkpt lat="50.86947" lon="1.58657">
        <ele>43.2</ele>
        <time>2020-06-22T19:10:04Z</time>
      </trkpt>
      <trkpt lat="50.86947" lon="1.58656">
        <ele>43.2</ele>
        <time>2020-06-22T19:10:05Z</time>
      </trkpt>
      <trkpt lat="50.86948" lon="1.58655">
        <ele>43.2</ele>
        <time>2020-06-22T19:10:06Z</time>
      </trkpt>
      <trkpt lat="50.86948" lon="1.58653">
        <ele>43.2</ele>
        <time>2020-06-22T19:10:07Z</time>
      </trkpt>
      <trkpt lat="50.86949" lon="1.58652">
        <ele>43.2</ele>
        <time>2020-06-22T19:10:08Z</time>
      </trkpt>
      <trkpt lat="50.8695" lon="1.5865">
        <ele>43.2</ele>
        <time>2020-06-22T19:10:09Z</time>
      </trkpt>
      <trkpt lat="50.8695" lon="1.58649">
        <ele>43.2</ele>
        <time>2020-06-22T19:10:10Z</time>
      </trkpt>
      <trkpt lat="50.86951" lon="1.58647">
        <ele>43.3</ele>
        <time>2020-06-22T19:10:11Z</time>
      </trkpt>
      <trkpt lat="50.86951" lon="1.58645">
        <ele>43.3</ele>
        <time>2020-06-22T19:10:12Z</time>
      </trkpt>
      <trkpt lat="50.86952" lon="1.58642">
        <ele>43.3</ele>
        <time>2020-06-22T19:10:13Z</time>
      </trkpt>
      <trkpt lat="50.86953" lon="1.5864">
        <ele>43.3</ele>
        <time>2020-06-22T19:10:14Z</time>
      </trkpt>
      <trkpt lat="50.86953" lon="1.5864">
        <ele>43.3</ele>
        <time>2020-06-22T19:10:15Z</time>
      </trkpt>
      <trkpt lat="50.86954" lon="1.58638">
        <ele>43.4</ele>
        <time>2020-06-22T19:10:16Z</time>
      </trkpt>
      <trkpt lat="50.86954" lon="1.58636">
        <ele>43.4</ele>
        <time>2020-06-22T19:10:17Z</time>
      </trkpt>
      <trkpt lat="50.86954" lon="1.58633">
        <ele>43.4</ele>
        <time>2020-06-22T19:10:18Z</time>
      </trkpt>
      <trkpt lat="50.86954" lon="1.58631">
        <ele>43.4</ele>
        <time>2020-06-22T19:10:19Z</time>
      </trkpt>
      <trkpt lat="50.86954" lon="1.58628">
        <ele>43.5</ele>
        <time>2020-06-22T19:10:20Z</time>
      </trkpt>
      <trkpt lat="50.86953" lon="1.58625">
        <ele>43.5</ele>
        <time>2020-06-22T19:10:21Z</time>
      </trkpt>
      <trkpt lat="50.86953" lon="1.58623">
        <ele>43.5</ele>
        <time>2020-06-22T19:10:22Z</time>
      </trkpt>
      <trkpt lat="50.86952" lon="1.58622">
        <ele>43.6</ele>
        <time>2020-06-22T19:10:23Z</time>
      </trkpt>
      <trkpt lat="50.86953" lon="1.5862">
        <ele>43.6</ele>
        <time>2020-06-22T19:10:24Z</time>
      </trkpt>
      <trkpt lat="50.86953" lon="1.58618">
        <ele>43.6</ele>
        <time>2020-06-22T19:10:25Z</time>
      </trkpt>
      <trkpt lat="50.86953" lon="1.58615">
        <ele>43.6</ele>
        <time>2020-06-22T19:10:26Z</time>
      </trkpt>
      <trkpt lat="50.86953" lon="1.58613">
        <ele>43.6</ele>
        <time>2020-06-22T19:10:27Z</time>
      </trkpt>
      <trkpt lat="50.86953" lon="1.58612">
        <ele>43.6</ele>
        <time>2020-06-22T19:10:28Z</time>
      </trkpt>
      <trkpt lat="50.86953" lon="1.5861">
        <ele>43.6</ele>
        <time>2020-06-22T19:10:29Z</time>
      </trkpt>
      <trkpt lat="50.86953" lon="1.58607">
        <ele>43.7</ele>
        <time>2020-06-22T19:10:30Z</time>
      </trkpt>
      <trkpt lat="50.86953" lon="1.58604">
        <ele>43.7</ele>
        <time>2020-06-22T19:10:31Z</time>
      </trkpt>
      <trkpt lat="50.86953" lon="1.58602">
        <ele>43.7</ele>
        <time>2020-06-22T19:10:32Z</time>
      </trkpt>
      <trkpt lat="50.86953" lon="1.58601">
        <ele>43.7</ele>
        <time>2020-06-22T19:10:33Z</time>
      </trkpt>
      <trkpt lat="50.86953" lon="1.58599">
        <ele>43.7</ele>
        <time>2020-06-22T19:10:34Z</time>
      </trkpt>
      <trkpt lat="50.86953" lon="1.58598">
        <ele>43.7</ele>
        <time>2020-06-22T19:10:35Z</time>
      </trkpt>
      <trkpt lat="50.86954" lon="1.58598">
        <ele>43.7</ele>
        <time>2020-06-22T19:10:36Z</time>
      </trkpt>
      <trkpt lat="50.86954" lon="1.58598">
        <ele>43.7</ele>
        <time>2020-06-22T19:10:37Z</time>
      </trkpt>
      <trkpt lat="50.86955" lon="1.58598">
        <ele>43.7</ele>
        <time>2020-06-22T19:10:38Z</time>
      </trkpt>
      <trkpt lat="50.86955" lon="1.58598">
        <ele>43.7</ele>
        <time>2020-06-22T19:10:39Z</time>
      </trkpt>
      <trkpt lat="50.86955" lon="1.58598">
        <ele>43.7</ele>
        <time>2020-06-22T19:10:40Z</time>
      </trkpt>
      <trkpt lat="50.86955" lon="1.58598">
        <ele>43.7</ele>
        <time>2020-06-22T19:10:41Z</time>
      </trkpt>
      <trkpt lat="50.86955" lon="1.58598">
        <ele>43.7</ele>
        <time>2020-06-22T19:10:42Z</time>
      </trkpt>
      <trkpt lat="50.86956" lon="1.58597">
        <ele>43.7</ele>
        <time>2020-06-22T19:10:43Z</time>
      </trkpt>
      <trkpt lat="50.86957" lon="1.58595">
        <ele>43.7</ele>
        <time>2020-06-22T19:10:44Z</time>
      </trkpt>
      <trkpt lat="50.86957" lon="1.58593">
        <ele>43.7</ele>
        <time>2020-06-22T19:10:45Z</time>
      </trkpt>
      <trkpt lat="50.86957" lon="1.58592">
        <ele>43.7</ele>
        <time>2020-06-22T19:10:46Z</time>
      </trkpt>
      <trkpt lat="50.86958" lon="1.5859">
        <ele>43.7</ele>
        <time>2020-06-22T19:10:47Z</time>
      </trkpt>
      <trkpt lat="50.86959" lon="1.58588">
        <ele>43.7</ele>
        <time>2020-06-22T19:10:48Z</time>
      </trkpt>
      <trkpt lat="50.86959" lon="1.58587">
        <ele>43.7</ele>
        <time>2020-06-22T19:10:49Z</time>
      </trkpt>
      <trkpt lat="50.86958" lon="1.58584">
        <ele>43.7</ele>
        <time>2020-06-22T19:10:50Z</time>
      </trkpt>
      <trkpt lat="50.86958" lon="1.58583">
        <ele>43.7</ele>
        <time>2020-06-22T19:10:51Z</time>
      </trkpt>
      <trkpt lat="50.86958" lon="1.58581">
        <ele>43.7</ele>
        <time>2020-06-22T19:10:52Z</time>
      </trkpt>
      <trkpt lat="50.86958" lon="1.5858">
        <ele>43.6</ele>
        <time>2020-06-22T19:10:53Z</time>
      </trkpt>
      <trkpt lat="50.86958" lon="1.58578">
        <ele>43.6</ele>
        <time>2020-06-22T19:10:54Z</time>
      </trkpt>
      <trkpt lat="50.86959" lon="1.58577">
        <ele>43.6</ele>
        <time>2020-06-22T19:10:55Z</time>
      </trkpt>
      <trkpt lat="50.8696" lon="1.58576">
        <ele>43.6</ele>
        <time>2020-06-22T19:10:56Z</time>
      </trkpt>
      <trkpt lat="50.86961" lon="1.58575">
        <ele>43.6</ele>
        <time>2020-06-22T19:10:57Z</time>
      </trkpt>
      <trkpt lat="50.86961" lon="1.58573">
        <ele>43.6</ele>
        <time>2020-06-22T19:10:58Z</time>
      </trkpt>
      <trkpt lat="50.86962" lon="1.58571">
        <ele>43.6</ele>
        <time>2020-06-22T19:10:59Z</time>
      </trkpt>
      <trkpt lat="50.86963" lon="1.5857">
        <ele>43.5</ele>
        <time>2020-06-22T19:11:00Z</time>
      </trkpt>
      <trkpt lat="50.86964" lon="1.5857">
        <ele>43.5</ele>
        <time>2020-06-22T19:11:01Z</time>
      </trkpt>
      <trkpt lat="50.86965" lon="1.58569">
        <ele>43.5</ele>
        <time>2020-06-22T19:11:02Z</time>
      </trkpt>
      <trkpt lat="50.86966" lon="1.58568">
        <ele>43.5</ele>
        <time>2020-06-22T19:11:03Z</time>
      </trkpt>
      <trkpt lat="50.86967" lon="1.58567">
        <ele>43.5</ele>
        <time>2020-06-22T19:11:04Z</time>
      </trkpt>
      <trkpt lat="50.86968" lon="1.58566">
        <ele>43.4</ele>
        <time>2020-06-22T19:11:05Z</time>
      </trkpt>
      <trkpt lat="50.86969" lon="1.58565">
        <ele>43.4</ele>
        <time>2020-06-22T19:11:06Z</time>
      </trkpt>
      <trkpt lat="50.8697" lon="1.58565">
        <ele>43.4</ele>
        <time>2020-06-22T19:11:07Z</time>
      </trkpt>
      <trkpt lat="50.8697" lon="1.58565">
        <ele>43.4</ele>
        <time>2020-06-22T19:11:08Z</time>
      </trkpt>
      <trkpt lat="50.86972" lon="1.58565">
        <ele>43.4</ele>
        <time>2020-06-22T19:11:09Z</time>
      </trkpt>
      <trkpt lat="50.86973" lon="1.58565">
        <ele>43.3</ele>
        <time>2020-06-22T19:11:10Z</time>
      </trkpt>
      <trkpt lat="50.86974" lon="1.58564">
        <ele>43.3</ele>
        <time>2020-06-22T19:11:11Z</time>
      </trkpt>
      <trkpt lat="50.86975" lon="1.58564">
        <ele>43.3</ele>
        <time>2020-06-22T19:11:12Z</time>
      </trkpt>
      <trkpt lat="50.86976" lon="1.58563">
        <ele>43.3</ele>
        <time>2020-06-22T19:11:13Z</time>
      </trkpt>
      <trkpt lat="50.86976" lon="1.58563">
        <ele>43.3</ele>
        <time>2020-06-22T19:11:14Z</time>
      </trkpt>
      <trkpt lat="50.86976" lon="1.58562">
        <ele>43.3</ele>
        <time>2020-06-22T19:11:15Z</time>
      </trkpt>
      <trkpt lat="50.86977" lon="1.58561">
        <ele>43.2</ele>
        <time>2020-06-22T19:11:16Z</time>
      </trkpt>
      <trkpt lat="50.86977" lon="1.58559">
        <ele>43.2</ele>
        <time>2020-06-22T19:11:17Z</time>
      </trkpt>
      <trkpt lat="50.86978" lon="1.58556">
        <ele>43.2</ele>
        <time>2020-06-22T19:11:18Z</time>
      </trkpt>
      <trkpt lat="50.86979" lon="1.58555">
        <ele>43.2</ele>
        <time>2020-06-22T19:11:19Z</time>
      </trkpt>
      <trkpt lat="50.86979" lon="1.58554">
        <ele>43.1</ele>
        <time>2020-06-22T19:11:20Z</time>
      </trkpt>
      <trkpt lat="50.8698" lon="1.58552">
        <ele>43.1</ele>
        <time>2020-06-22T19:11:21Z</time>
      </trkpt>
      <trkpt lat="50.86981" lon="1.58551">
        <ele>43.1</ele>
        <time>2020-06-22T19:11:22Z</time>
      </trkpt>
      <trkpt lat="50.86981" lon="1.5855">
        <ele>43.1</ele>
        <time>2020-06-22T19:11:23Z</time>
      </trkpt>
      <trkpt lat="50.86981" lon="1.58549">
        <ele>43.1</ele>
        <time>2020-06-22T19:11:24Z</time>
      </trkpt>
      <trkpt lat="50.86982" lon="1.58547">
        <ele>43</ele>
        <time>2020-06-22T19:11:25Z</time>
      </trkpt>
      <trkpt lat="50.86981" lon="1.58546">
        <ele>43</ele>
        <time>2020-06-22T19:11:26Z</time>
      </trkpt>
      <trkpt lat="50.86981" lon="1.58545">
        <ele>43</ele>
        <time>2020-06-22T19:11:27Z</time>
      </trkpt>
      <trkpt lat="50.8698" lon="1.58544">
        <ele>43</ele>
        <time>2020-06-22T19:11:28Z</time>
      </trkpt>
      <trkpt lat="50.8698" lon="1.58543">
        <ele>43</ele>
        <time>2020-06-22T19:11:29Z</time>
      </trkpt>
      <trkpt lat="50.8698" lon="1.58542">
        <ele>43</ele>
        <time>2020-06-22T19:11:30Z</time>
      </trkpt>
      <trkpt lat="50.8698" lon="1.58542">
        <ele>43</ele>
        <time>2020-06-22T19:11:31Z</time>
      </trkpt>
      <trkpt lat="50.8698" lon="1.58542">
        <ele>43</ele>
        <time>2020-06-22T19:11:32Z</time>
      </trkpt>
      <trkpt lat="50.8698" lon="1.58542">
        <ele>43</ele>
        <time>2020-06-22T19:11:33Z</time>
      </trkpt>
      <trkpt lat="50.8698" lon="1.58542">
        <ele>43</ele>
        <time>2020-06-22T19:11:34Z</time>
      </trkpt>
      <trkpt lat="50.8698" lon="1.58541">
        <ele>43</ele>
        <time>2020-06-22T19:11:35Z</time>
      </trkpt>
      <trkpt lat="50.8698" lon="1.58541">
        <ele>43</ele>
        <time>2020-06-22T19:11:36Z</time>
      </trkpt>
      <trkpt lat="50.86981" lon="1.5854">
        <ele>42.9</ele>
        <time>2020-06-22T19:11:37Z</time>
      </trkpt>
      <trkpt lat="50.86981" lon="1.5854">
        <ele>42.9</ele>
        <time>2020-06-22T19:11:38Z</time>
      </trkpt>
      <trkpt lat="50.8698" lon="1.58539">
        <ele>42.9</ele>
        <time>2020-06-22T19:11:39Z</time>
      </trkpt>
      <trkpt lat="50.86979" lon="1.58531">
        <ele>42.8</ele>
        <time>2020-06-22T19:11:45Z</time>
      </trkpt>
      <trkpt lat="50.86979" lon="1.5853">
        <ele>42.7</ele>
        <time>2020-06-22T19:11:46Z</time>
      </trkpt>
      <trkpt lat="50.86978" lon="1.58529">
        <ele>42.7</ele>
        <time>2020-06-22T19:11:47Z</time>
      </trkpt>
      <trkpt lat="50.86977" lon="1.58527">
        <ele>42.7</ele>
        <time>2020-06-22T19:11:48Z</time>
      </trkpt>
      <trkpt lat="50.86976" lon="1.58526">
        <ele>42.6</ele>
        <time>2020-06-22T19:11:49Z</time>
      </trkpt>
      <trkpt lat="50.86976" lon="1.58525">
        <ele>42.6</ele>
        <time>2020-06-22T19:11:50Z</time>
      </trkpt>
      <trkpt lat="50.86976" lon="1.58521">
        <ele>42.6</ele>
        <time>2020-06-22T19:11:51Z</time>
      </trkpt>
      <trkpt lat="50.86976" lon="1.5852">
        <ele>42.5</ele>
        <time>2020-06-22T19:11:52Z</time>
      </trkpt>
      <trkpt lat="50.86976" lon="1.58518">
        <ele>42.5</ele>
        <time>2020-06-22T19:11:53Z</time>
      </trkpt>
      <trkpt lat="50.86976" lon="1.58516">
        <ele>42.5</ele>
        <time>2020-06-22T19:11:54Z</time>
      </trkpt>
      <trkpt lat="50.86976" lon="1.58513">
        <ele>42.4</ele>
        <time>2020-06-22T19:11:55Z</time>
      </trkpt>
      <trkpt lat="50.86976" lon="1.58511">
        <ele>42.4</ele>
        <time>2020-06-22T19:11:56Z</time>
      </trkpt>
      <trkpt lat="50.86977" lon="1.58509">
        <ele>42.3</ele>
        <time>2020-06-22T19:11:57Z</time>
      </trkpt>
      <trkpt lat="50.86977" lon="1.58507">
        <ele>42.3</ele>
        <time>2020-06-22T19:11:58Z</time>
      </trkpt>
      <trkpt lat="50.86978" lon="1.58506">
        <ele>42.3</ele>
        <time>2020-06-22T19:11:59Z</time>
      </trkpt>
      <trkpt lat="50.86978" lon="1.58505">
        <ele>42.2</ele>
        <time>2020-06-22T19:12:00Z</time>
      </trkpt>
      <trkpt lat="50.86978" lon="1.58502">
        <ele>42.2</ele>
        <time>2020-06-22T19:12:01Z</time>
      </trkpt>
      <trkpt lat="50.86979" lon="1.585">
        <ele>42.1</ele>
        <time>2020-06-22T19:12:02Z</time>
      </trkpt>
      <trkpt lat="50.86979" lon="1.58499">
        <ele>42.1</ele>
        <time>2020-06-22T19:12:03Z</time>
      </trkpt>
      <trkpt lat="50.8698" lon="1.58497">
        <ele>42.1</ele>
        <time>2020-06-22T19:12:04Z</time>
      </trkpt>
      <trkpt lat="50.8698" lon="1.58494">
        <ele>42</ele>
        <time>2020-06-22T19:12:05Z</time>
      </trkpt>
      <trkpt lat="50.86981" lon="1.58491">
        <ele>41.9</ele>
        <time>2020-06-22T19:12:06Z</time>
      </trkpt>
      <trkpt lat="50.86982" lon="1.5849">
        <ele>41.9</ele>
        <time>2020-06-22T19:12:07Z</time>
      </trkpt>
      <trkpt lat="50.86982" lon="1.58489">
        <ele>41.9</ele>
        <time>2020-06-22T19:12:08Z</time>
      </trkpt>
      <trkpt lat="50.86983" lon="1.58486">
        <ele>41.8</ele>
        <time>2020-06-22T19:12:09Z</time>
      </trkpt>
      <trkpt lat="50.86984" lon="1.58485">
        <ele>41.8</ele>
        <time>2020-06-22T19:12:10Z</time>
      </trkpt>
      <trkpt lat="50.86984" lon="1.58483">
        <ele>41.8</ele>
        <time>2020-06-22T19:12:11Z</time>
      </trkpt>
      <trkpt lat="50.86985" lon="1.5848">
        <ele>41.7</ele>
        <time>2020-06-22T19:12:12Z</time>
      </trkpt>
      <trkpt lat="50.86985" lon="1.58479">
        <ele>41.7</ele>
        <time>2020-06-22T19:12:13Z</time>
      </trkpt>
      <trkpt lat="50.86986" lon="1.58478">
        <ele>41.6</ele>
        <time>2020-06-22T19:12:14Z</time>
      </trkpt>
      <trkpt lat="50.86986" lon="1.58476">
        <ele>41.6</ele>
        <time>2020-06-22T19:12:15Z</time>
      </trkpt>
      <trkpt lat="50.86987" lon="1.58474">
        <ele>41.6</ele>
        <time>2020-06-22T19:12:16Z</time>
      </trkpt>
      <trkpt lat="50.86988" lon="1.58473">
        <ele>41.5</ele>
        <time>2020-06-22T19:12:17Z</time>
      </trkpt>
      <trkpt lat="50.86989" lon="1.5847">
        <ele>41.5</ele>
        <time>2020-06-22T19:12:18Z</time>
      </trkpt>
      <trkpt lat="50.86989" lon="1.58469">
        <ele>41.4</ele>
        <time>2020-06-22T19:12:19Z</time>
      </trkpt>
      <trkpt lat="50.86989" lon="1.58467">
        <ele>41.4</ele>
        <time>2020-06-22T19:12:20Z</time>
      </trkpt>
      <trkpt lat="50.86989" lon="1.58466">
        <ele>41.4</ele>
        <time>2020-06-22T19:12:21Z</time>
      </trkpt>
      <trkpt lat="50.86989" lon="1.58464">
        <ele>41.4</ele>
        <time>2020-06-22T19:12:22Z</time>
      </trkpt>
      <trkpt lat="50.86989" lon="1.58462">
        <ele>41.3</ele>
        <time>2020-06-22T19:12:23Z</time>
      </trkpt>
      <trkpt lat="50.8699" lon="1.58459">
        <ele>41.3</ele>
        <time>2020-06-22T19:12:24Z</time>
      </trkpt>
      <trkpt lat="50.8699" lon="1.58458">
        <ele>41.3</ele>
        <time>2020-06-22T19:12:25Z</time>
      </trkpt>
      <trkpt lat="50.8699" lon="1.58456">
        <ele>41.3</ele>
        <time>2020-06-22T19:12:26Z</time>
      </trkpt>
      <trkpt lat="50.86991" lon="1.58455">
        <ele>41.2</ele>
        <time>2020-06-22T19:12:27Z</time>
      </trkpt>
      <trkpt lat="50.86991" lon="1.58453">
        <ele>41.2</ele>
        <time>2020-06-22T19:12:28Z</time>
      </trkpt>
      <trkpt lat="50.86992" lon="1.58451">
        <ele>41.2</ele>
        <time>2020-06-22T19:12:29Z</time>
      </trkpt>
      <trkpt lat="50.86992" lon="1.58449">
        <ele>41.2</ele>
        <time>2020-06-22T19:12:30Z</time>
      </trkpt>
      <trkpt lat="50.86992" lon="1.58446">
        <ele>41.1</ele>
        <time>2020-06-22T19:12:31Z</time>
      </trkpt>
      <trkpt lat="50.86992" lon="1.58444">
        <ele>41.1</ele>
        <time>2020-06-22T19:12:32Z</time>
      </trkpt>
      <trkpt lat="50.86993" lon="1.58441">
        <ele>41.1</ele>
        <time>2020-06-22T19:12:33Z</time>
      </trkpt>
      <trkpt lat="50.86994" lon="1.58439">
        <ele>41.1</ele>
        <time>2020-06-22T19:12:34Z</time>
      </trkpt>
      <trkpt lat="50.86994" lon="1.58437">
        <ele>41</ele>
        <time>2020-06-22T19:12:35Z</time>
      </trkpt>
      <trkpt lat="50.86995" lon="1.58435">
        <ele>41</ele>
        <time>2020-06-22T19:12:36Z</time>
      </trkpt>
      <trkpt lat="50.86996" lon="1.58433">
        <ele>41</ele>
        <time>2020-06-22T19:12:37Z</time>
      </trkpt>
      <trkpt lat="50.86996" lon="1.58431">
        <ele>41</ele>
        <time>2020-06-22T19:12:38Z</time>
      </trkpt>
      <trkpt lat="50.86997" lon="1.58429">
        <ele>41</ele>
        <time>2020-06-22T19:12:39Z</time>
      </trkpt>
      <trkpt lat="50.86997" lon="1.58427">
        <ele>41</ele>
        <time>2020-06-22T19:12:40Z</time>
      </trkpt>
      <trkpt lat="50.86998" lon="1.58424">
        <ele>41</ele>
        <time>2020-06-22T19:12:41Z</time>
      </trkpt>
      <trkpt lat="50.86998" lon="1.58422">
        <ele>40.9</ele>
        <time>2020-06-22T19:12:42Z</time>
      </trkpt>
      <trkpt lat="50.86999" lon="1.5842">
        <ele>40.9</ele>
        <time>2020-06-22T19:12:43Z</time>
      </trkpt>
      <trkpt lat="50.87" lon="1.58418">
        <ele>40.9</ele>
        <time>2020-06-22T19:12:44Z</time>
      </trkpt>
      <trkpt lat="50.87" lon="1.58416">
        <ele>40.9</ele>
        <time>2020-06-22T19:12:45Z</time>
      </trkpt>
      <trkpt lat="50.87001" lon="1.58413">
        <ele>40.9</ele>
        <time>2020-06-22T19:12:46Z</time>
      </trkpt>
      <trkpt lat="50.87002" lon="1.58412">
        <ele>40.9</ele>
        <time>2020-06-22T19:12:47Z</time>
      </trkpt>
      <trkpt lat="50.87002" lon="1.58411">
        <ele>41</ele>
        <time>2020-06-22T19:12:48Z</time>
      </trkpt>
      <trkpt lat="50.87003" lon="1.58409">
        <ele>41</ele>
        <time>2020-06-22T19:12:49Z</time>
      </trkpt>
      <trkpt lat="50.87003" lon="1.58406">
        <ele>41</ele>
        <time>2020-06-22T19:12:50Z</time>
      </trkpt>
      <trkpt lat="50.87004" lon="1.58404">
        <ele>41</ele>
        <time>2020-06-22T19:12:51Z</time>
      </trkpt>
      <trkpt lat="50.87005" lon="1.58402">
        <ele>41</ele>
        <time>2020-06-22T19:12:52Z</time>
      </trkpt>
      <trkpt lat="50.87005" lon="1.58401">
        <ele>41.1</ele>
        <time>2020-06-22T19:12:53Z</time>
      </trkpt>
      <trkpt lat="50.87005" lon="1.584">
        <ele>41.1</ele>
        <time>2020-06-22T19:12:54Z</time>
      </trkpt>
      <trkpt lat="50.87006" lon="1.58399">
        <ele>41.1</ele>
        <time>2020-06-22T19:12:55Z</time>
      </trkpt>
      <trkpt lat="50.87007" lon="1.58398">
        <ele>41.1</ele>
        <time>2020-06-22T19:12:56Z</time>
      </trkpt>
      <trkpt lat="50.87007" lon="1.58397">
        <ele>41.1</ele>
        <time>2020-06-22T19:12:57Z</time>
      </trkpt>
      <trkpt lat="50.87009" lon="1.58394">
        <ele>41.1</ele>
        <time>2020-06-22T19:12:58Z</time>
      </trkpt>
      <trkpt lat="50.87009" lon="1.58392">
        <ele>41.2</ele>
        <time>2020-06-22T19:12:59Z</time>
      </trkpt>
      <trkpt lat="50.87009" lon="1.58391">
        <ele>41.2</ele>
        <time>2020-06-22T19:13:00Z</time>
      </trkpt>
      <trkpt lat="50.8701" lon="1.58389">
        <ele>41.2</ele>
        <time>2020-06-22T19:13:01Z</time>
      </trkpt>
      <trkpt lat="50.87011" lon="1.58387">
        <ele>41.2</ele>
        <time>2020-06-22T19:13:02Z</time>
      </trkpt>
      <trkpt lat="50.87012" lon="1.58384">
        <ele>41.2</ele>
        <time>2020-06-22T19:13:03Z</time>
      </trkpt>
      <trkpt lat="50.87013" lon="1.58383">
        <ele>41.2</ele>
        <time>2020-06-22T19:13:04Z</time>
      </trkpt>
      <trkpt lat="50.87013" lon="1.58381">
        <ele>41.2</ele>
        <time>2020-06-22T19:13:05Z</time>
      </trkpt>
      <trkpt lat="50.87014" lon="1.58379">
        <ele>41.3</ele>
        <time>2020-06-22T19:13:06Z</time>
      </trkpt>
      <trkpt lat="50.87015" lon="1.58377">
        <ele>41.3</ele>
        <time>2020-06-22T19:13:07Z</time>
      </trkpt>
      <trkpt lat="50.87016" lon="1.58375">
        <ele>41.3</ele>
        <time>2020-06-22T19:13:08Z</time>
      </trkpt>
      <trkpt lat="50.87016" lon="1.58373">
        <ele>41.3</ele>
        <time>2020-06-22T19:13:09Z</time>
      </trkpt>
      <trkpt lat="50.87017" lon="1.58372">
        <ele>41.3</ele>
        <time>2020-06-22T19:13:10Z</time>
      </trkpt>
      <trkpt lat="50.87017" lon="1.58371">
        <ele>41.3</ele>
        <time>2020-06-22T19:13:11Z</time>
      </trkpt>
      <trkpt lat="50.87018" lon="1.58368">
        <ele>41.3</ele>
        <time>2020-06-22T19:13:12Z</time>
      </trkpt>
      <trkpt lat="50.87019" lon="1.58367">
        <ele>41.3</ele>
        <time>2020-06-22T19:13:13Z</time>
      </trkpt>
      <trkpt lat="50.8702" lon="1.58366">
        <ele>41.4</ele>
        <time>2020-06-22T19:13:14Z</time>
      </trkpt>
      <trkpt lat="50.8702" lon="1.58364">
        <ele>41.4</ele>
        <time>2020-06-22T19:13:15Z</time>
      </trkpt>
      <trkpt lat="50.87021" lon="1.58363">
        <ele>41.4</ele>
        <time>2020-06-22T19:13:16Z</time>
      </trkpt>
      <trkpt lat="50.87022" lon="1.5836">
        <ele>41.4</ele>
        <time>2020-06-22T19:13:17Z</time>
      </trkpt>
      <trkpt lat="50.87022" lon="1.58358">
        <ele>41.4</ele>
        <time>2020-06-22T19:13:18Z</time>
      </trkpt>
      <trkpt lat="50.87022" lon="1.58357">
        <ele>41.4</ele>
        <time>2020-06-22T19:13:19Z</time>
      </trkpt>
      <trkpt lat="50.87022" lon="1.58355">
        <ele>41.4</ele>
        <time>2020-06-22T19:13:20Z</time>
      </trkpt>
      <trkpt lat="50.87023" lon="1.58352">
        <ele>41.5</ele>
        <time>2020-06-22T19:13:21Z</time>
      </trkpt>
      <trkpt lat="50.87024" lon="1.58349">
        <ele>41.5</ele>
        <time>2020-06-22T19:13:22Z</time>
      </trkpt>
      <trkpt lat="50.87024" lon="1.58348">
        <ele>41.5</ele>
        <time>2020-06-22T19:13:23Z</time>
      </trkpt>
      <trkpt lat="50.87024" lon="1.58347">
        <ele>41.5</ele>
        <time>2020-06-22T19:13:24Z</time>
      </trkpt>
      <trkpt lat="50.87025" lon="1.58344">
        <ele>41.5</ele>
        <time>2020-06-22T19:13:25Z</time>
      </trkpt>
      <trkpt lat="50.87026" lon="1.58343">
        <ele>41.5</ele>
        <time>2020-06-22T19:13:26Z</time>
      </trkpt>
      <trkpt lat="50.87027" lon="1.58342">
        <ele>41.5</ele>
        <time>2020-06-22T19:13:27Z</time>
      </trkpt>
      <trkpt lat="50.87028" lon="1.58341">
        <ele>41.6</ele>
        <time>2020-06-22T19:13:28Z</time>
      </trkpt>
      <trkpt lat="50.87029" lon="1.5834">
        <ele>41.6</ele>
        <time>2020-06-22T19:13:29Z</time>
      </trkpt>
      <trkpt lat="50.8703" lon="1.58339">
        <ele>41.6</ele>
        <time>2020-06-22T19:13:30Z</time>
      </trkpt>
      <trkpt lat="50.87031" lon="1.58338">
        <ele>41.6</ele>
        <time>2020-06-22T19:13:31Z</time>
      </trkpt>
      <trkpt lat="50.87032" lon="1.58336">
        <ele>41.6</ele>
        <time>2020-06-22T19:13:32Z</time>
      </trkpt>
      <trkpt lat="50.87034" lon="1.58334">
        <ele>41.6</ele>
        <time>2020-06-22T19:13:33Z</time>
      </trkpt>
      <trkpt lat="50.87035" lon="1.58333">
        <ele>41.6</ele>
        <time>2020-06-22T19:13:34Z</time>
      </trkpt>
      <trkpt lat="50.87035" lon="1.58333">
        <ele>41.6</ele>
        <time>2020-06-22T19:13:35Z</time>
      </trkpt>
      <trkpt lat="50.87037" lon="1.58331">
        <ele>41.6</ele>
        <time>2020-06-22T19:13:36Z</time>
      </trkpt>
      <trkpt lat="50.87038" lon="1.5833">
        <ele>41.6</ele>
        <time>2020-06-22T19:13:37Z</time>
      </trkpt>
      <trkpt lat="50.8704" lon="1.58328">
        <ele>41.6</ele>
        <time>2020-06-22T19:13:38Z</time>
      </trkpt>
      <trkpt lat="50.8704" lon="1.58327">
        <ele>41.6</ele>
        <time>2020-06-22T19:13:39Z</time>
      </trkpt>
      <trkpt lat="50.87041" lon="1.58327">
        <ele>41.6</ele>
        <time>2020-06-22T19:13:40Z</time>
      </trkpt>
      <trkpt lat="50.87042" lon="1.58326">
        <ele>41.6</ele>
        <time>2020-06-22T19:13:41Z</time>
      </trkpt>
      <trkpt lat="50.87043" lon="1.58327">
        <ele>41.6</ele>
        <time>2020-06-22T19:13:42Z</time>
      </trkpt>
      <trkpt lat="50.87044" lon="1.58327">
        <ele>41.6</ele>
        <time>2020-06-22T19:13:43Z</time>
      </trkpt>
      <trkpt lat="50.87045" lon="1.58328">
        <ele>41.6</ele>
        <time>2020-06-22T19:13:44Z</time>
      </trkpt>
      <trkpt lat="50.87046" lon="1.58329">
        <ele>41.6</ele>
        <time>2020-06-22T19:13:45Z</time>
      </trkpt>
      <trkpt lat="50.87047" lon="1.5833">
        <ele>41.6</ele>
        <time>2020-06-22T19:13:46Z</time>
      </trkpt>
      <trkpt lat="50.87047" lon="1.58331">
        <ele>41.6</ele>
        <time>2020-06-22T19:13:47Z</time>
      </trkpt>
      <trkpt lat="50.87047" lon="1.58331">
        <ele>41.6</ele>
        <time>2020-06-22T19:13:48Z</time>
      </trkpt>
      <trkpt lat="50.87047" lon="1.58331">
        <ele>41.6</ele>
        <time>2020-06-22T19:13:49Z</time>
      </trkpt>
      <trkpt lat="50.87047" lon="1.58332">
        <ele>41.6</ele>
        <time>2020-06-22T19:13:50Z</time>
      </trkpt>
      <trkpt lat="50.87048" lon="1.58332">
        <ele>41.6</ele>
        <time>2020-06-22T19:13:51Z</time>
      </trkpt>
      <trkpt lat="50.87048" lon="1.58332">
        <ele>41.6</ele>
        <time>2020-06-22T19:13:52Z</time>
      </trkpt>
      <trkpt lat="50.87049" lon="1.58331">
        <ele>41.6</ele>
        <time>2020-06-22T19:13:53Z</time>
      </trkpt>
      <trkpt lat="50.87049" lon="1.58331">
        <ele>41.6</ele>
        <time>2020-06-22T19:13:54Z</time>
      </trkpt>
      <trkpt lat="50.8705" lon="1.58331">
        <ele>41.6</ele>
        <time>2020-06-22T19:13:55Z</time>
      </trkpt>
      <trkpt lat="50.8705" lon="1.58331">
        <ele>41.6</ele>
        <time>2020-06-22T19:13:56Z</time>
      </trkpt>
      <trkpt lat="50.8705" lon="1.58332">
        <ele>41.6</ele>
        <time>2020-06-22T19:13:57Z</time>
      </trkpt>
      <trkpt lat="50.8705" lon="1.58332">
        <ele>41.6</ele>
        <time>2020-06-22T19:13:58Z</time>
      </trkpt>
      <trkpt lat="50.87051" lon="1.58332">
        <ele>41.6</ele>
        <time>2020-06-22T19:13:59Z</time>
      </trkpt>
      <trkpt lat="50.87051" lon="1.58332">
        <ele>41.6</ele>
        <time>2020-06-22T19:14:00Z</time>
      </trkpt>
      <trkpt lat="50.87051" lon="1.58332">
        <ele>41.6</ele>
        <time>2020-06-22T19:14:01Z</time>
      </trkpt>
      <trkpt lat="50.87052" lon="1.58331">
        <ele>41.6</ele>
        <time>2020-06-22T19:14:02Z</time>
      </trkpt>
      <trkpt lat="50.87052" lon="1.58332">
        <ele>41.6</ele>
        <time>2020-06-22T19:14:03Z</time>
      </trkpt>
      <trkpt lat="50.87053" lon="1.58333">
        <ele>41.6</ele>
        <time>2020-06-22T19:14:04Z</time>
      </trkpt>
      <trkpt lat="50.87053" lon="1.58333">
        <ele>41.6</ele>
        <time>2020-06-22T19:14:05Z</time>
      </trkpt>
      <trkpt lat="50.87053" lon="1.58333">
        <ele>41.6</ele>
        <time>2020-06-22T19:14:06Z</time>
      </trkpt>
      <trkpt lat="50.87054" lon="1.58332">
        <ele>41.6</ele>
        <time>2020-06-22T19:14:07Z</time>
      </trkpt>
      <trkpt lat="50.87054" lon="1.58332">
        <ele>41.6</ele>
        <time>2020-06-22T19:14:08Z</time>
      </trkpt>
      <trkpt lat="50.87054" lon="1.58332">
        <ele>41.6</ele>
        <time>2020-06-22T19:14:09Z</time>
      </trkpt>
      <trkpt lat="50.87054" lon="1.58332">
        <ele>41.6</ele>
        <time>2020-06-22T19:14:10Z</time>
      </trkpt>
      <trkpt lat="50.87054" lon="1.58331">
        <ele>41.6</ele>
        <time>2020-06-22T19:14:11Z</time>
      </trkpt>
      <trkpt lat="50.87054" lon="1.58331">
        <ele>41.6</ele>
        <time>2020-06-22T19:14:12Z</time>
      </trkpt>
      <trkpt lat="50.87054" lon="1.58332">
        <ele>41.6</ele>
        <time>2020-06-22T19:14:13Z</time>
      </trkpt>
      <trkpt lat="50.87054" lon="1.58331">
        <ele>41.6</ele>
        <time>2020-06-22T19:14:14Z</time>
      </trkpt>
      <trkpt lat="50.87055" lon="1.58331">
        <ele>41.6</ele>
        <time>2020-06-22T19:14:15Z</time>
      </trkpt>
      <trkpt lat="50.87056" lon="1.58331">
        <ele>41.6</ele>
        <time>2020-06-22T19:14:16Z</time>
      </trkpt>
      <trkpt lat="50.87057" lon="1.58331">
        <ele>41.6</ele>
        <time>2020-06-22T19:14:17Z</time>
      </trkpt>
      <trkpt lat="50.87058" lon="1.5833">
        <ele>41.6</ele>
        <time>2020-06-22T19:14:31Z</time>
      </trkpt>
      <trkpt lat="50.87058" lon="1.5833">
        <ele>41.6</ele>
        <time>2020-06-22T19:14:32Z</time>
      </trkpt>
      <trkpt lat="50.87059" lon="1.5833">
        <ele>41.5</ele>
        <time>2020-06-22T19:14:33Z</time>
      </trkpt>
      <trkpt lat="50.8706" lon="1.5833">
        <ele>41.5</ele>
        <time>2020-06-22T19:14:34Z</time>
      </trkpt>
      <trkpt lat="50.87061" lon="1.58329">
        <ele>41.5</ele>
        <time>2020-06-22T19:14:35Z</time>
      </trkpt>
      <trkpt lat="50.87062" lon="1.58329">
        <ele>41.5</ele>
        <time>2020-06-22T19:14:36Z</time>
      </trkpt>
      <trkpt lat="50.87062" lon="1.58329">
        <ele>41.5</ele>
        <time>2020-06-22T19:14:37Z</time>
      </trkpt>
      <trkpt lat="50.87063" lon="1.58329">
        <ele>41.5</ele>
        <time>2020-06-22T19:14:38Z</time>
      </trkpt>
      <trkpt lat="50.87064" lon="1.58328">
        <ele>41.5</ele>
        <time>2020-06-22T19:14:39Z</time>
      </trkpt>
      <trkpt lat="50.87065" lon="1.58328">
        <ele>41.5</ele>
        <time>2020-06-22T19:14:40Z</time>
      </trkpt>
      <trkpt lat="50.87066" lon="1.58328">
        <ele>41.5</ele>
        <time>2020-06-22T19:14:41Z</time>
      </trkpt>
      <trkpt lat="50.87067" lon="1.58328">
        <ele>41.4</ele>
        <time>2020-06-22T19:14:42Z</time>
      </trkpt>
      <trkpt lat="50.87067" lon="1.58327">
        <ele>41.4</ele>
        <time>2020-06-22T19:16:18Z</time>
      </trkpt>
      <trkpt lat="50.87068" lon="1.58327">
        <ele>41.4</ele>
        <time>2020-06-22T19:16:19Z</time>
      </trkpt>
      <trkpt lat="50.87069" lon="1.58325">
        <ele>41.4</ele>
        <time>2020-06-22T19:16:20Z</time>
      </trkpt>
      <trkpt lat="50.87071" lon="1.58323">
        <ele>41.4</ele>
        <time>2020-06-22T19:16:21Z</time>
      </trkpt>
      <trkpt lat="50.87071" lon="1.58321">
        <ele>41.3</ele>
        <time>2020-06-22T19:16:22Z</time>
      </trkpt>
      <trkpt lat="50.87072" lon="1.58319">
        <ele>41.3</ele>
        <time>2020-06-22T19:16:23Z</time>
      </trkpt>
      <trkpt lat="50.87073" lon="1.58317">
        <ele>41.3</ele>
        <time>2020-06-22T19:16:24Z</time>
      </trkpt>
      <trkpt lat="50.87073" lon="1.58316">
        <ele>41.2</ele>
        <time>2020-06-22T19:16:25Z</time>
      </trkpt>
      <trkpt lat="50.87073" lon="1.58314">
        <ele>41.2</ele>
        <time>2020-06-22T19:16:26Z</time>
      </trkpt>
      <trkpt lat="50.87074" lon="1.58314">
        <ele>41.2</ele>
        <time>2020-06-22T19:16:27Z</time>
      </trkpt>
      <trkpt lat="50.87074" lon="1.58313">
        <ele>41.2</ele>
        <time>2020-06-22T19:16:28Z</time>
      </trkpt>
      <trkpt lat="50.87074" lon="1.58312">
        <ele>41.2</ele>
        <time>2020-06-22T19:16:29Z</time>
      </trkpt>
      <trkpt lat="50.87074" lon="1.5831">
        <ele>41.2</ele>
        <time>2020-06-22T19:16:30Z</time>
      </trkpt>
      <trkpt lat="50.87074" lon="1.58307">
        <ele>41.1</ele>
        <time>2020-06-22T19:16:31Z</time>
      </trkpt>
      <trkpt lat="50.87074" lon="1.58305">
        <ele>41.1</ele>
        <time>2020-06-22T19:16:32Z</time>
      </trkpt>
      <trkpt lat="50.87074" lon="1.58303">
        <ele>41</ele>
        <time>2020-06-22T19:16:33Z</time>
      </trkpt>
      <trkpt lat="50.87074" lon="1.58302">
        <ele>41</ele>
        <time>2020-06-22T19:16:34Z</time>
      </trkpt>
      <trkpt lat="50.87075" lon="1.58301">
        <ele>41</ele>
        <time>2020-06-22T19:16:35Z</time>
      </trkpt>
      <trkpt lat="50.87075" lon="1.58299">
        <ele>41</ele>
        <time>2020-06-22T19:16:36Z</time>
      </trkpt>
      <trkpt lat="50.87075" lon="1.58297">
        <ele>40.9</ele>
        <time>2020-06-22T19:16:37Z</time>
      </trkpt>
      <trkpt lat="50.87076" lon="1.58295">
        <ele>40.9</ele>
        <time>2020-06-22T19:16:38Z</time>
      </trkpt>
      <trkpt lat="50.87077" lon="1.58295">
        <ele>40.9</ele>
        <time>2020-06-22T19:16:39Z</time>
      </trkpt>
      <trkpt lat="50.87077" lon="1.58294">
        <ele>40.8</ele>
        <time>2020-06-22T19:16:40Z</time>
      </trkpt>
      <trkpt lat="50.87078" lon="1.58293">
        <ele>40.8</ele>
        <time>2020-06-22T19:16:41Z</time>
      </trkpt>
      <trkpt lat="50.87079" lon="1.58293">
        <ele>40.8</ele>
        <time>2020-06-22T19:16:42Z</time>
      </trkpt>
      <trkpt lat="50.8708" lon="1.58293">
        <ele>40.8</ele>
        <time>2020-06-22T19:16:43Z</time>
      </trkpt>
      <trkpt lat="50.8708" lon="1.58293">
        <ele>40.7</ele>
        <time>2020-06-22T19:16:44Z</time>
      </trkpt>
      <trkpt lat="50.87081" lon="1.58293">
        <ele>40.7</ele>
        <time>2020-06-22T19:16:45Z</time>
      </trkpt>
      <trkpt lat="50.87081" lon="1.58294">
        <ele>40.7</ele>
        <time>2020-06-22T19:16:46Z</time>
      </trkpt>
      <trkpt lat="50.87082" lon="1.58294">
        <ele>40.7</ele>
        <time>2020-06-22T19:16:47Z</time>
      </trkpt>
      <trkpt lat="50.87083" lon="1.58294">
        <ele>40.7</ele>
        <time>2020-06-22T19:16:48Z</time>
      </trkpt>
      <trkpt lat="50.87084" lon="1.58292">
        <ele>40.6</ele>
        <time>2020-06-22T19:16:49Z</time>
      </trkpt>
      <trkpt lat="50.87084" lon="1.58289">
        <ele>40.6</ele>
        <time>2020-06-22T19:16:50Z</time>
      </trkpt>
      <trkpt lat="50.87084" lon="1.58288">
        <ele>40.5</ele>
        <time>2020-06-22T19:16:51Z</time>
      </trkpt>
      <trkpt lat="50.87083" lon="1.58287">
        <ele>40.5</ele>
        <time>2020-06-22T19:16:52Z</time>
      </trkpt>
      <trkpt lat="50.87083" lon="1.58285">
        <ele>40.5</ele>
        <time>2020-06-22T19:16:53Z</time>
      </trkpt>
      <trkpt lat="50.87083" lon="1.58283">
        <ele>40.4</ele>
        <time>2020-06-22T19:16:54Z</time>
      </trkpt>
      <trkpt lat="50.87083" lon="1.58282">
        <ele>40.4</ele>
        <time>2020-06-22T19:16:55Z</time>
      </trkpt>
      <trkpt lat="50.87082" lon="1.5828">
        <ele>40.4</ele>
        <time>2020-06-22T19:16:56Z</time>
      </trkpt>
      <trkpt lat="50.87082" lon="1.58279">
        <ele>40.3</ele>
        <time>2020-06-22T19:16:57Z</time>
      </trkpt>
      <trkpt lat="50.8708" lon="1.58277">
        <ele>40.3</ele>
        <time>2020-06-22T19:16:58Z</time>
      </trkpt>
      <trkpt lat="50.87079" lon="1.58275">
        <ele>40.2</ele>
        <time>2020-06-22T19:16:59Z</time>
      </trkpt>
      <trkpt lat="50.87078" lon="1.58274">
        <ele>40.2</ele>
        <time>2020-06-22T19:17:00Z</time>
      </trkpt>
      <trkpt lat="50.87078" lon="1.58272">
        <ele>40.2</ele>
        <time>2020-06-22T19:17:01Z</time>
      </trkpt>
      <trkpt lat="50.87077" lon="1.58271">
        <ele>40.1</ele>
        <time>2020-06-22T19:17:02Z</time>
      </trkpt>
      <trkpt lat="50.87076" lon="1.58269">
        <ele>40.1</ele>
        <time>2020-06-22T19:17:03Z</time>
      </trkpt>
      <trkpt lat="50.87075" lon="1.58268">
        <ele>40.1</ele>
        <time>2020-06-22T19:17:04Z</time>
      </trkpt>
      <trkpt lat="50.87076" lon="1.58269">
        <ele>40.1</ele>
        <time>2020-06-22T19:17:05Z</time>
      </trkpt>
      <trkpt lat="50.87077" lon="1.5827">
        <ele>40</ele>
        <time>2020-06-22T19:17:06Z</time>
      </trkpt>
      <trkpt lat="50.87077" lon="1.58271">
        <ele>40</ele>
        <time>2020-06-22T19:17:07Z</time>
      </trkpt>
      <trkpt lat="50.87078" lon="1.58272">
        <ele>40</ele>
        <time>2020-06-22T19:17:08Z</time>
      </trkpt>
      <trkpt lat="50.87079" lon="1.58273">
        <ele>40</ele>
        <time>2020-06-22T19:17:09Z</time>
      </trkpt>
      <trkpt lat="50.87081" lon="1.58277">
        <ele>39.9</ele>
        <time>2020-06-22T19:17:10Z</time>
      </trkpt>
      <trkpt lat="50.87083" lon="1.58281">
        <ele>39.9</ele>
        <time>2020-06-22T19:17:11Z</time>
      </trkpt>
      <trkpt lat="50.87084" lon="1.58282">
        <ele>39.9</ele>
        <time>2020-06-22T19:17:12Z</time>
      </trkpt>
      <trkpt lat="50.87087" lon="1.58285">
        <ele>39.8</ele>
        <time>2020-06-22T19:17:13Z</time>
      </trkpt>
      <trkpt lat="50.87089" lon="1.58285">
        <ele>39.8</ele>
        <time>2020-06-22T19:17:14Z</time>
      </trkpt>
      <trkpt lat="50.87092" lon="1.58286">
        <ele>39.8</ele>
        <time>2020-06-22T19:17:15Z</time>
      </trkpt>
      <trkpt lat="50.87092" lon="1.58287">
        <ele>39.8</ele>
        <time>2020-06-22T19:17:16Z</time>
      </trkpt>
      <trkpt lat="50.87094" lon="1.58287">
        <ele>39.8</ele>
        <time>2020-06-22T19:17:17Z</time>
      </trkpt>
      <trkpt lat="50.87095" lon="1.58288">
        <ele>39.8</ele>
        <time>2020-06-22T19:17:18Z</time>
      </trkpt>
      <trkpt lat="50.87096" lon="1.58287">
        <ele>39.8</ele>
        <time>2020-06-22T19:17:19Z</time>
      </trkpt>
      <trkpt lat="50.87097" lon="1.58287">
        <ele>39.8</ele>
        <time>2020-06-22T19:17:20Z</time>
      </trkpt>
      <trkpt lat="50.87098" lon="1.58287">
        <ele>39.8</ele>
        <time>2020-06-22T19:17:21Z</time>
      </trkpt>
      <trkpt lat="50.871" lon="1.58287">
        <ele>39.8</ele>
        <time>2020-06-22T19:17:22Z</time>
      </trkpt>
      <trkpt lat="50.871" lon="1.58288">
        <ele>39.8</ele>
        <time>2020-06-22T19:17:23Z</time>
      </trkpt>
      <trkpt lat="50.871" lon="1.58288">
        <ele>39.8</ele>
        <time>2020-06-22T19:17:24Z</time>
      </trkpt>
      <trkpt lat="50.87101" lon="1.58289">
        <ele>39.8</ele>
        <time>2020-06-22T19:17:25Z</time>
      </trkpt>
      <trkpt lat="50.87102" lon="1.58289">
        <ele>39.8</ele>
        <time>2020-06-22T19:17:26Z</time>
      </trkpt>
      <trkpt lat="50.87102" lon="1.58289">
        <ele>39.8</ele>
        <time>2020-06-22T19:17:27Z</time>
      </trkpt>
      <trkpt lat="50.87102" lon="1.58289">
        <ele>39.8</ele>
        <time>2020-06-22T19:17:28Z</time>
      </trkpt>
      <trkpt lat="50.87103" lon="1.58289">
        <ele>39.8</ele>
        <time>2020-06-22T19:17:29Z</time>
      </trkpt>
      <trkpt lat="50.87103" lon="1.58289">
        <ele>39.8</ele>
        <time>2020-06-22T19:17:30Z</time>
      </trkpt>
      <trkpt lat="50.87103" lon="1.58289">
        <ele>39.8</ele>
        <time>2020-06-22T19:17:31Z</time>
      </trkpt>
      <trkpt lat="50.87103" lon="1.58289">
        <ele>39.8</ele>
        <time>2020-06-22T19:17:32Z</time>
      </trkpt>
      <trkpt lat="50.87103" lon="1.58289">
        <ele>39.8</ele>
        <time>2020-06-22T19:17:33Z</time>
      </trkpt>
      <trkpt lat="50.87104" lon="1.58289">
        <ele>39.8</ele>
        <time>2020-06-22T19:17:34Z</time>
      </trkpt>
      <trkpt lat="50.87104" lon="1.5829">
        <ele>39.8</ele>
        <time>2020-06-22T19:17:35Z</time>
      </trkpt>
      <trkpt lat="50.87105" lon="1.5829">
        <ele>39.8</ele>
        <time>2020-06-22T19:17:36Z</time>
      </trkpt>
      <trkpt lat="50.87101" lon="1.58279">
        <ele>39.8</ele>
        <time>2020-06-22T19:20:24Z</time>
      </trkpt>
      <trkpt lat="50.87102" lon="1.5828">
        <ele>39.8</ele>
        <time>2020-06-22T19:20:25Z</time>
      </trkpt>
      <trkpt lat="50.87102" lon="1.5828">
        <ele>39.8</ele>
        <time>2020-06-22T19:20:26Z</time>
      </trkpt>
      <trkpt lat="50.87102" lon="1.5828">
        <ele>39.8</ele>
        <time>2020-06-22T19:20:27Z</time>
      </trkpt>
      <trkpt lat="50.87103" lon="1.58279">
        <ele>39.8</ele>
        <time>2020-06-22T19:20:28Z</time>
      </trkpt>
      <trkpt lat="50.87103" lon="1.58279">
        <ele>39.8</ele>
        <time>2020-06-22T19:20:29Z</time>
      </trkpt>
      <trkpt lat="50.87104" lon="1.58279">
        <ele>39.8</ele>
        <time>2020-06-22T19:20:30Z</time>
      </trkpt>
      <trkpt lat="50.87104" lon="1.58279">
        <ele>39.8</ele>
        <time>2020-06-22T19:20:31Z</time>
      </trkpt>
      <trkpt lat="50.87104" lon="1.58279">
        <ele>39.8</ele>
        <time>2020-06-22T19:20:32Z</time>
      </trkpt>
      <trkpt lat="50.87105" lon="1.58277">
        <ele>39.8</ele>
        <time>2020-06-22T19:20:33Z</time>
      </trkpt>
      <trkpt lat="50.87106" lon="1.58277">
        <ele>39.8</ele>
        <time>2020-06-22T19:20:34Z</time>
      </trkpt>
      <trkpt lat="50.87105" lon="1.58277">
        <ele>39.8</ele>
        <time>2020-06-22T19:20:35Z</time>
      </trkpt>
      <trkpt lat="50.87104" lon="1.58278">
        <ele>39.8</ele>
        <time>2020-06-22T19:20:36Z</time>
      </trkpt>
      <trkpt lat="50.87105" lon="1.58277">
        <ele>39.8</ele>
        <time>2020-06-22T19:20:37Z</time>
      </trkpt>
      <trkpt lat="50.87104" lon="1.58277">
        <ele>39.8</ele>
        <time>2020-06-22T19:20:38Z</time>
      </trkpt>
      <trkpt lat="50.87105" lon="1.58277">
        <ele>39.8</ele>
        <time>2020-06-22T19:20:39Z</time>
      </trkpt>
      <trkpt lat="50.87105" lon="1.58278">
        <ele>39.8</ele>
        <time>2020-06-22T19:20:40Z</time>
      </trkpt>
      <trkpt lat="50.87104" lon="1.58278">
        <ele>39.8</ele>
        <time>2020-06-22T19:20:41Z</time>
      </trkpt>
      <trkpt lat="50.87104" lon="1.58278">
        <ele>39.8</ele>
        <time>2020-06-22T19:20:42Z</time>
      </trkpt>
      <trkpt lat="50.87105" lon="1.58278">
        <ele>39.8</ele>
        <time>2020-06-22T19:20:43Z</time>
      </trkpt>
      <trkpt lat="50.87105" lon="1.58278">
        <ele>39.8</ele>
        <time>2020-06-22T19:20:44Z</time>
      </trkpt>
      <trkpt lat="50.87105" lon="1.58278">
        <ele>39.8</ele>
        <time>2020-06-22T19:20:45Z</time>
      </trkpt>
      <trkpt lat="50.87105" lon="1.58278">
        <ele>39.8</ele>
        <time>2020-06-22T19:20:46Z</time>
      </trkpt>
      <trkpt lat="50.87105" lon="1.58278">
        <ele>39.8</ele>
        <time>2020-06-22T19:20:47Z</time>
      </trkpt>
      <trkpt lat="50.87105" lon="1.58278">
        <ele>39.8</ele>
        <time>2020-06-22T19:20:48Z</time>
      </trkpt>
      <trkpt lat="50.87104" lon="1.58278">
        <ele>39.8</ele>
        <time>2020-06-22T19:20:49Z</time>
      </trkpt>
      <trkpt lat="50.87104" lon="1.58277">
        <ele>39.8</ele>
        <time>2020-06-22T19:20:50Z</time>
      </trkpt>
      <trkpt lat="50.87104" lon="1.58277">
        <ele>39.8</ele>
        <time>2020-06-22T19:20:51Z</time>
      </trkpt>
      <trkpt lat="50.87103" lon="1.58278">
        <ele>39.8</ele>
        <time>2020-06-22T19:20:52Z</time>
      </trkpt>
      <trkpt lat="50.87103" lon="1.58277">
        <ele>39.8</ele>
        <time>2020-06-22T19:20:53Z</time>
      </trkpt>
      <trkpt lat="50.8708" lon="1.58273">
        <ele>40.2</ele>
        <time>2020-06-22T19:23:12Z</time>
      </trkpt>
      <trkpt lat="50.87079" lon="1.58273">
        <ele>40.2</ele>
        <time>2020-06-22T19:23:13Z</time>
      </trkpt>
      <trkpt lat="50.87079" lon="1.58272">
        <ele>40.2</ele>
        <time>2020-06-22T19:23:14Z</time>
      </trkpt>
      <trkpt lat="50.87079" lon="1.58272">
        <ele>40.2</ele>
        <time>2020-06-22T19:23:15Z</time>
      </trkpt>
      <trkpt lat="50.87079" lon="1.58271">
        <ele>40.2</ele>
        <time>2020-06-22T19:23:16Z</time>
      </trkpt>
      <trkpt lat="50.87079" lon="1.58271">
        <ele>40.2</ele>
        <time>2020-06-22T19:23:17Z</time>
      </trkpt>
      <trkpt lat="50.87078" lon="1.5827">
        <ele>40.2</ele>
        <time>2020-06-22T19:23:18Z</time>
      </trkpt>
      <trkpt lat="50.87077" lon="1.5827">
        <ele>40.3</ele>
        <time>2020-06-22T19:23:19Z</time>
      </trkpt>
      <trkpt lat="50.87077" lon="1.5827">
        <ele>40.3</ele>
        <time>2020-06-22T19:23:20Z</time>
      </trkpt>
      <trkpt lat="50.87076" lon="1.58269">
        <ele>40.3</ele>
        <time>2020-06-22T19:23:21Z</time>
      </trkpt>
      <trkpt lat="50.87075" lon="1.58269">
        <ele>40.3</ele>
        <time>2020-06-22T19:23:22Z</time>
      </trkpt>
      <trkpt lat="50.87074" lon="1.58269">
        <ele>40.4</ele>
        <time>2020-06-22T19:23:23Z</time>
      </trkpt>
      <trkpt lat="50.87073" lon="1.58269">
        <ele>40.4</ele>
        <time>2020-06-22T19:23:24Z</time>
      </trkpt>
      <trkpt lat="50.87072" lon="1.58268">
        <ele>40.4</ele>
        <time>2020-06-22T19:23:25Z</time>
      </trkpt>
      <trkpt lat="50.8707" lon="1.58269">
        <ele>40.5</ele>
        <time>2020-06-22T19:23:26Z</time>
      </trkpt>
      <trkpt lat="50.8707" lon="1.58269">
        <ele>40.5</ele>
        <time>2020-06-22T19:23:27Z</time>
      </trkpt>
      <trkpt lat="50.87069" lon="1.58269">
        <ele>40.5</ele>
        <time>2020-06-22T19:23:28Z</time>
      </trkpt>
      <trkpt lat="50.87069" lon="1.58268">
        <ele>40.5</ele>
        <time>2020-06-22T19:23:29Z</time>
      </trkpt>
      <trkpt lat="50.87068" lon="1.58268">
        <ele>40.6</ele>
        <time>2020-06-22T19:23:30Z</time>
      </trkpt>
      <trkpt lat="50.87066" lon="1.58269">
        <ele>40.6</ele>
        <time>2020-06-22T19:23:31Z</time>
      </trkpt>
      <trkpt lat="50.87065" lon="1.5827">
        <ele>40.7</ele>
        <time>2020-06-22T19:23:32Z</time>
      </trkpt>
      <trkpt lat="50.87063" lon="1.58267">
        <ele>40.7</ele>
        <time>2020-06-22T19:23:33Z</time>
      </trkpt>
      <trkpt lat="50.87062" lon="1.58264">
        <ele>40.8</ele>
        <time>2020-06-22T19:23:34Z</time>
      </trkpt>
      <trkpt lat="50.87061" lon="1.58262">
        <ele>40.9</ele>
        <time>2020-06-22T19:23:35Z</time>
      </trkpt>
      <trkpt lat="50.8706" lon="1.58259">
        <ele>41</ele>
        <time>2020-06-22T19:23:36Z</time>
      </trkpt>
      <trkpt lat="50.87059" lon="1.58256">
        <ele>41</ele>
        <time>2020-06-22T19:23:37Z</time>
      </trkpt>
      <trkpt lat="50.87057" lon="1.58254">
        <ele>41.1</ele>
        <time>2020-06-22T19:23:38Z</time>
      </trkpt>
      <trkpt lat="50.87056" lon="1.58251">
        <ele>41.2</ele>
        <time>2020-06-22T19:23:39Z</time>
      </trkpt>
      <trkpt lat="50.87055" lon="1.58249">
        <ele>41.3</ele>
        <time>2020-06-22T19:23:40Z</time>
      </trkpt>
      <trkpt lat="50.87054" lon="1.58246">
        <ele>41.3</ele>
        <time>2020-06-22T19:23:41Z</time>
      </trkpt>
      <trkpt lat="50.87052" lon="1.58243">
        <ele>41.4</ele>
        <time>2020-06-22T19:23:42Z</time>
      </trkpt>
      <trkpt lat="50.87051" lon="1.58241">
        <ele>41.4</ele>
        <time>2020-06-22T19:23:43Z</time>
      </trkpt>
      <trkpt lat="50.8705" lon="1.58238">
        <ele>41.5</ele>
        <time>2020-06-22T19:24:20Z</time>
      </trkpt>
      <trkpt lat="50.87049" lon="1.58235">
        <ele>40.3</ele>
        <time>2020-06-22T19:24:21Z</time>
      </trkpt>
      <trkpt lat="50.87048" lon="1.58233">
        <ele>39.7</ele>
        <time>2020-06-22T19:24:22Z</time>
      </trkpt>
      <trkpt lat="50.87046" lon="1.5823">
        <ele>39</ele>
        <time>2020-06-22T19:24:23Z</time>
      </trkpt>
      <trkpt lat="50.87045" lon="1.58227">
        <ele>38.3</ele>
        <time>2020-06-22T19:24:24Z</time>
      </trkpt>
      <trkpt lat="50.87043" lon="1.58226">
        <ele>37.7</ele>
        <time>2020-06-22T19:24:25Z</time>
      </trkpt>
      <trkpt lat="50.87043" lon="1.58224">
        <ele>37.4</ele>
        <time>2020-06-22T19:24:26Z</time>
      </trkpt>
      <trkpt lat="50.87043" lon="1.58224">
        <ele>37.3</ele>
        <time>2020-06-22T19:24:27Z</time>
      </trkpt>
      <trkpt lat="50.87042" lon="1.58222">
        <ele>36.7</ele>
        <time>2020-06-22T19:24:28Z</time>
      </trkpt>
      <trkpt lat="50.87041" lon="1.5822">
        <ele>36.2</ele>
        <time>2020-06-22T19:24:29Z</time>
      </trkpt>
      <trkpt lat="50.8704" lon="1.5822">
        <ele>36</ele>
        <time>2020-06-22T19:24:30Z</time>
      </trkpt>
      <trkpt lat="50.87039" lon="1.58219">
        <ele>35.7</ele>
        <time>2020-06-22T19:24:31Z</time>
      </trkpt>
      <trkpt lat="50.87039" lon="1.58218">
        <ele>35.5</ele>
        <time>2020-06-22T19:24:32Z</time>
      </trkpt>
      <trkpt lat="50.87039" lon="1.58218">
        <ele>35.4</ele>
        <time>2020-06-22T19:24:33Z</time>
      </trkpt>
      <trkpt lat="50.87038" lon="1.58218">
        <ele>35.3</ele>
        <time>2020-06-22T19:24:34Z</time>
      </trkpt>
      <trkpt lat="50.87038" lon="1.58218">
        <ele>35.3</ele>
        <time>2020-06-22T19:24:35Z</time>
      </trkpt>
      <trkpt lat="50.87038" lon="1.58218">
        <ele>35.3</ele>
        <time>2020-06-22T19:24:36Z</time>
      </trkpt>
      <trkpt lat="50.87038" lon="1.58218">
        <ele>35.3</ele>
        <time>2020-06-22T19:24:37Z</time>
      </trkpt>
      <trkpt lat="50.87038" lon="1.58217">
        <ele>35.1</ele>
        <time>2020-06-22T19:24:38Z</time>
      </trkpt>
      <trkpt lat="50.87037" lon="1.58216">
        <ele>34.7</ele>
        <time>2020-06-22T19:24:39Z</time>
      </trkpt>
      <trkpt lat="50.87037" lon="1.58214">
        <ele>34.4</ele>
        <time>2020-06-22T19:24:40Z</time>
      </trkpt>
      <trkpt lat="50.87037" lon="1.58214">
        <ele>34.4</ele>
        <time>2020-06-22T19:24:41Z</time>
      </trkpt>
      <trkpt lat="50.87037" lon="1.58214">
        <ele>34.4</ele>
        <time>2020-06-22T19:24:42Z</time>
      </trkpt>
      <trkpt lat="50.87037" lon="1.58214">
        <ele>34.3</ele>
        <time>2020-06-22T19:24:43Z</time>
      </trkpt>
      <trkpt lat="50.87037" lon="1.58214">
        <ele>34.3</ele>
        <time>2020-06-22T19:24:44Z</time>
      </trkpt>
      <trkpt lat="50.87037" lon="1.58214">
        <ele>34.3</ele>
        <time>2020-06-22T19:24:45Z</time>
      </trkpt>
      <trkpt lat="50.87037" lon="1.58214">
        <ele>34.3</ele>
        <time>2020-06-22T19:24:46Z</time>
      </trkpt>
      <trkpt lat="50.87037" lon="1.58214">
        <ele>34.3</ele>
        <time>2020-06-22T19:24:47Z</time>
      </trkpt>
      <trkpt lat="50.87037" lon="1.58214">
        <ele>34.2</ele>
        <time>2020-06-22T19:24:48Z</time>
      </trkpt>
      <trkpt lat="50.87037" lon="1.58214">
        <ele>34.2</ele>
        <time>2020-06-22T19:24:49Z</time>
      </trkpt>
      <trkpt lat="50.87036" lon="1.58201">
        <ele>31.6</ele>
        <time>2020-06-22T19:25:13Z</time>
      </trkpt>
      <trkpt lat="50.87036" lon="1.582">
        <ele>31.3</ele>
        <time>2020-06-22T19:25:14Z</time>
      </trkpt>
      <trkpt lat="50.87036" lon="1.58199">
        <ele>31.1</ele>
        <time>2020-06-22T19:25:15Z</time>
      </trkpt>
      <trkpt lat="50.87036" lon="1.58198">
        <ele>30.9</ele>
        <time>2020-06-22T19:25:16Z</time>
      </trkpt>
      <trkpt lat="50.87035" lon="1.58198">
        <ele>30.8</ele>
        <time>2020-06-22T19:25:17Z</time>
      </trkpt>
      <trkpt lat="50.87035" lon="1.58198">
        <ele>30.7</ele>
        <time>2020-06-22T19:25:18Z</time>
      </trkpt>
      <trkpt lat="50.87035" lon="1.58198">
        <ele>30.5</ele>
        <time>2020-06-22T19:25:19Z</time>
      </trkpt>
      <trkpt lat="50.87035" lon="1.582">
        <ele>30.3</ele>
        <time>2020-06-22T19:25:20Z</time>
      </trkpt>
      <trkpt lat="50.87035" lon="1.58201">
        <ele>30</ele>
        <time>2020-06-22T19:25:21Z</time>
      </trkpt>
      <trkpt lat="50.87034" lon="1.58202">
        <ele>29.7</ele>
        <time>2020-06-22T19:25:22Z</time>
      </trkpt>
      <trkpt lat="50.87034" lon="1.58202">
        <ele>29.7</ele>
        <time>2020-06-22T19:25:23Z</time>
      </trkpt>
      <trkpt lat="50.87034" lon="1.58202">
        <ele>29.7</ele>
        <time>2020-06-22T19:25:24Z</time>
      </trkpt>
      <trkpt lat="50.87034" lon="1.58203">
        <ele>29.6</ele>
        <time>2020-06-22T19:25:25Z</time>
      </trkpt>
      <trkpt lat="50.87034" lon="1.58203">
        <ele>29.6</ele>
        <time>2020-06-22T19:25:26Z</time>
      </trkpt>
      <trkpt lat="50.87034" lon="1.58203">
        <ele>29.6</ele>
        <time>2020-06-22T19:25:27Z</time>
      </trkpt>
      <trkpt lat="50.87034" lon="1.58203">
        <ele>29.6</ele>
        <time>2020-06-22T19:25:28Z</time>
      </trkpt>
      <trkpt lat="50.87038" lon="1.5822">
        <ele>34.4</ele>
        <time>2020-06-22T19:27:46Z</time>
      </trkpt>
      <trkpt lat="50.87038" lon="1.5822">
        <ele>34.5</ele>
        <time>2020-06-22T19:27:47Z</time>
      </trkpt>
      <trkpt lat="50.87037" lon="1.58219">
        <ele>34.6</ele>
        <time>2020-06-22T19:27:48Z</time>
      </trkpt>
      <trkpt lat="50.87036" lon="1.58218">
        <ele>34.7</ele>
        <time>2020-06-22T19:27:49Z</time>
      </trkpt>
      <trkpt lat="50.87035" lon="1.58217">
        <ele>34.8</ele>
        <time>2020-06-22T19:27:50Z</time>
      </trkpt>
      <trkpt lat="50.87035" lon="1.58217">
        <ele>34.9</ele>
        <time>2020-06-22T19:27:51Z</time>
      </trkpt>
      <trkpt lat="50.87034" lon="1.58216">
        <ele>34.9</ele>
        <time>2020-06-22T19:27:52Z</time>
      </trkpt>
      <trkpt lat="50.87034" lon="1.58217">
        <ele>35</ele>
        <time>2020-06-22T19:27:53Z</time>
      </trkpt>
      <trkpt lat="50.87034" lon="1.58217">
        <ele>35</ele>
        <time>2020-06-22T19:27:54Z</time>
      </trkpt>
      <trkpt lat="50.87033" lon="1.58218">
        <ele>35.1</ele>
        <time>2020-06-22T19:27:55Z</time>
      </trkpt>
      <trkpt lat="50.87033" lon="1.58218">
        <ele>35.1</ele>
        <time>2020-06-22T19:27:56Z</time>
      </trkpt>
      <trkpt lat="50.87033" lon="1.58218">
        <ele>35.1</ele>
        <time>2020-06-22T19:27:57Z</time>
      </trkpt>
      <trkpt lat="50.87033" lon="1.58218">
        <ele>35.1</ele>
        <time>2020-06-22T19:27:58Z</time>
      </trkpt>
      <trkpt lat="50.87033" lon="1.58217">
        <ele>35.2</ele>
        <time>2020-06-22T19:27:59Z</time>
      </trkpt>
      <trkpt lat="50.87032" lon="1.58217">
        <ele>35.2</ele>
        <time>2020-06-22T19:28:00Z</time>
      </trkpt>
      <trkpt lat="50.87032" lon="1.58217">
        <ele>35.2</ele>
        <time>2020-06-22T19:28:01Z</time>
      </trkpt>
      <trkpt lat="50.87032" lon="1.58218">
        <ele>35.2</ele>
        <time>2020-06-22T19:28:02Z</time>
      </trkpt>
      <trkpt lat="50.87032" lon="1.58218">
        <ele>35.3</ele>
        <time>2020-06-22T19:28:03Z</time>
      </trkpt>
      <trkpt lat="50.87032" lon="1.58218">
        <ele>35.4</ele>
        <time>2020-06-22T19:28:04Z</time>
      </trkpt>
      <trkpt lat="50.87031" lon="1.58219">
        <ele>35.4</ele>
        <time>2020-06-22T19:28:05Z</time>
      </trkpt>
      <trkpt lat="50.87031" lon="1.58221">
        <ele>35.5</ele>
        <time>2020-06-22T19:28:06Z</time>
      </trkpt>
      <trkpt lat="50.87031" lon="1.58223">
        <ele>35.7</ele>
        <time>2020-06-22T19:28:07Z</time>
      </trkpt>
      <trkpt lat="50.87031" lon="1.58225">
        <ele>35.8</ele>
        <time>2020-06-22T19:28:08Z</time>
      </trkpt>
      <trkpt lat="50.87031" lon="1.58226">
        <ele>35.9</ele>
        <time>2020-06-22T19:28:09Z</time>
      </trkpt>
      <trkpt lat="50.87031" lon="1.58227">
        <ele>36</ele>
        <time>2020-06-22T19:28:10Z</time>
      </trkpt>
      <trkpt lat="50.87031" lon="1.5823">
        <ele>36.2</ele>
        <time>2020-06-22T19:28:11Z</time>
      </trkpt>
      <trkpt lat="50.87031" lon="1.58233">
        <ele>36.4</ele>
        <time>2020-06-22T19:28:12Z</time>
      </trkpt>
      <trkpt lat="50.8703" lon="1.58234">
        <ele>36.4</ele>
        <time>2020-06-22T19:28:13Z</time>
      </trkpt>
      <trkpt lat="50.8703" lon="1.58235">
        <ele>36.5</ele>
        <time>2020-06-22T19:28:14Z</time>
      </trkpt>
      <trkpt lat="50.8703" lon="1.58235">
        <ele>36.5</ele>
        <time>2020-06-22T19:28:15Z</time>
      </trkpt>
      <trkpt lat="50.8703" lon="1.58236">
        <ele>36.6</ele>
        <time>2020-06-22T19:28:16Z</time>
      </trkpt>
      <trkpt lat="50.87029" lon="1.58237">
        <ele>36.7</ele>
        <time>2020-06-22T19:28:17Z</time>
      </trkpt>
      <trkpt lat="50.87029" lon="1.58238">
        <ele>36.7</ele>
        <time>2020-06-22T19:28:18Z</time>
      </trkpt>
      <trkpt lat="50.8703" lon="1.58238">
        <ele>36.7</ele>
        <time>2020-06-22T19:28:19Z</time>
      </trkpt>
      <trkpt lat="50.87029" lon="1.58238">
        <ele>36.8</ele>
        <time>2020-06-22T19:28:20Z</time>
      </trkpt>
      <trkpt lat="50.8703" lon="1.58238">
        <ele>36.8</ele>
        <time>2020-06-22T19:28:21Z</time>
      </trkpt>
      <trkpt lat="50.8703" lon="1.58238">
        <ele>36.8</ele>
        <time>2020-06-22T19:28:22Z</time>
      </trkpt>
      <trkpt lat="50.87029" lon="1.58239">
        <ele>36.9</ele>
        <time>2020-06-22T19:28:23Z</time>
      </trkpt>
      <trkpt lat="50.87029" lon="1.5824">
        <ele>37</ele>
        <time>2020-06-22T19:28:24Z</time>
      </trkpt>
      <trkpt lat="50.87029" lon="1.58241">
        <ele>37</ele>
        <time>2020-06-22T19:28:25Z</time>
      </trkpt>
      <trkpt lat="50.87029" lon="1.58241">
        <ele>37</ele>
        <time>2020-06-22T19:28:26Z</time>
      </trkpt>
      <trkpt lat="50.87029" lon="1.58241">
        <ele>37</ele>
        <time>2020-06-22T19:28:27Z</time>
      </trkpt>
      <trkpt lat="50.87029" lon="1.58241">
        <ele>37.1</ele>
        <time>2020-06-22T19:28:28Z</time>
      </trkpt>
      <trkpt lat="50.8703" lon="1.58241">
        <ele>37.1</ele>
        <time>2020-06-22T19:28:29Z</time>
      </trkpt>
      <trkpt lat="50.8703" lon="1.58242">
        <ele>37.2</ele>
        <time>2020-06-22T19:28:30Z</time>
      </trkpt>
      <trkpt lat="50.8703" lon="1.58243">
        <ele>37.2</ele>
        <time>2020-06-22T19:28:31Z</time>
      </trkpt>
      <trkpt lat="50.8703" lon="1.58244">
        <ele>37.3</ele>
        <time>2020-06-22T19:28:32Z</time>
      </trkpt>
      <trkpt lat="50.8703" lon="1.58245">
        <ele>37.4</ele>
        <time>2020-06-22T19:28:33Z</time>
      </trkpt>
      <trkpt lat="50.8703" lon="1.58246">
        <ele>37.4</ele>
        <time>2020-06-22T19:28:34Z</time>
      </trkpt>
      <trkpt lat="50.87029" lon="1.58245">
        <ele>37.5</ele>
        <time>2020-06-22T19:28:35Z</time>
      </trkpt>
      <trkpt lat="50.87029" lon="1.58245">
        <ele>37.5</ele>
        <time>2020-06-22T19:28:36Z</time>
      </trkpt>
      <trkpt lat="50.8703" lon="1.58245">
        <ele>37.5</ele>
        <time>2020-06-22T19:28:37Z</time>
      </trkpt>
      <trkpt lat="50.8703" lon="1.58246">
        <ele>37.5</ele>
        <time>2020-06-22T19:28:38Z</time>
      </trkpt>
      <trkpt lat="50.8703" lon="1.58246">
        <ele>37.6</ele>
        <time>2020-06-22T19:28:39Z</time>
      </trkpt>
      <trkpt lat="50.8703" lon="1.58246">
        <ele>37.6</ele>
        <time>2020-06-22T19:28:40Z</time>
      </trkpt>
      <trkpt lat="50.8703" lon="1.58247">
        <ele>37.7</ele>
        <time>2020-06-22T19:28:41Z</time>
      </trkpt>
      <trkpt lat="50.8703" lon="1.58248">
        <ele>37.8</ele>
        <time>2020-06-22T19:28:42Z</time>
      </trkpt>
      <trkpt lat="50.8703" lon="1.58249">
        <ele>37.8</ele>
        <time>2020-06-22T19:28:43Z</time>
      </trkpt>
      <trkpt lat="50.87029" lon="1.5825">
        <ele>37.9</ele>
        <time>2020-06-22T19:28:44Z</time>
      </trkpt>
      <trkpt lat="50.87029" lon="1.58251">
        <ele>38</ele>
        <time>2020-06-22T19:28:45Z</time>
      </trkpt>
      <trkpt lat="50.87029" lon="1.58252">
        <ele>38</ele>
        <time>2020-06-22T19:28:46Z</time>
      </trkpt>
      <trkpt lat="50.87029" lon="1.58253">
        <ele>38.1</ele>
        <time>2020-06-22T19:28:47Z</time>
      </trkpt>
      <trkpt lat="50.87029" lon="1.58253">
        <ele>38.1</ele>
        <time>2020-06-22T19:28:48Z</time>
      </trkpt>
      <trkpt lat="50.87029" lon="1.58254">
        <ele>38.2</ele>
        <time>2020-06-22T19:28:49Z</time>
      </trkpt>
      <trkpt lat="50.87029" lon="1.58254">
        <ele>38.2</ele>
        <time>2020-06-22T19:28:50Z</time>
      </trkpt>
      <trkpt lat="50.87029" lon="1.58255">
        <ele>38.3</ele>
        <time>2020-06-22T19:28:51Z</time>
      </trkpt>
      <trkpt lat="50.87029" lon="1.58255">
        <ele>38.3</ele>
        <time>2020-06-22T19:28:52Z</time>
      </trkpt>
      <trkpt lat="50.87029" lon="1.58255">
        <ele>38.3</ele>
        <time>2020-06-22T19:28:53Z</time>
      </trkpt>
      <trkpt lat="50.8703" lon="1.58256">
        <ele>38.4</ele>
        <time>2020-06-22T19:28:54Z</time>
      </trkpt>
      <trkpt lat="50.8703" lon="1.58256">
        <ele>38.4</ele>
        <time>2020-06-22T19:28:55Z</time>
      </trkpt>
      <trkpt lat="50.8703" lon="1.58256">
        <ele>38.5</ele>
        <time>2020-06-22T19:28:56Z</time>
      </trkpt>
      <trkpt lat="50.87031" lon="1.58257">
        <ele>38.5</ele>
        <time>2020-06-22T19:28:57Z</time>
      </trkpt>
      <trkpt lat="50.87031" lon="1.58258">
        <ele>38.6</ele>
        <time>2020-06-22T19:28:58Z</time>
      </trkpt>
      <trkpt lat="50.87031" lon="1.58259">
        <ele>38.6</ele>
        <time>2020-06-22T19:28:59Z</time>
      </trkpt>
      <trkpt lat="50.87031" lon="1.58259">
        <ele>38.7</ele>
        <time>2020-06-22T19:29:00Z</time>
      </trkpt>
      <trkpt lat="50.87031" lon="1.5826">
        <ele>38.7</ele>
        <time>2020-06-22T19:29:01Z</time>
      </trkpt>
      <trkpt lat="50.87031" lon="1.58261">
        <ele>38.8</ele>
        <time>2020-06-22T19:29:02Z</time>
      </trkpt>
      <trkpt lat="50.87031" lon="1.58262">
        <ele>38.9</ele>
        <time>2020-06-22T19:29:03Z</time>
      </trkpt>
      <trkpt lat="50.87031" lon="1.58263">
        <ele>38.9</ele>
        <time>2020-06-22T19:29:04Z</time>
      </trkpt>
      <trkpt lat="50.87031" lon="1.58263">
        <ele>39</ele>
        <time>2020-06-22T19:29:05Z</time>
      </trkpt>
      <trkpt lat="50.87032" lon="1.58264">
        <ele>39</ele>
        <time>2020-06-22T19:29:06Z</time>
      </trkpt>
      <trkpt lat="50.87032" lon="1.58265">
        <ele>39.1</ele>
        <time>2020-06-22T19:29:07Z</time>
      </trkpt>
      <trkpt lat="50.87032" lon="1.58266">
        <ele>39.2</ele>
        <time>2020-06-22T19:29:08Z</time>
      </trkpt>
      <trkpt lat="50.87032" lon="1.58267">
        <ele>39.2</ele>
        <time>2020-06-22T19:29:09Z</time>
      </trkpt>
      <trkpt lat="50.87032" lon="1.58269">
        <ele>39.3</ele>
        <time>2020-06-22T19:29:10Z</time>
      </trkpt>
      <trkpt lat="50.87033" lon="1.5827">
        <ele>39.4</ele>
        <time>2020-06-22T19:29:11Z</time>
      </trkpt>
      <trkpt lat="50.87033" lon="1.58271">
        <ele>39.5</ele>
        <time>2020-06-22T19:29:12Z</time>
      </trkpt>
      <trkpt lat="50.87033" lon="1.58273">
        <ele>39.7</ele>
        <time>2020-06-22T19:29:13Z</time>
      </trkpt>
      <trkpt lat="50.87035" lon="1.58273">
        <ele>39.9</ele>
        <time>2020-06-22T19:29:14Z</time>
      </trkpt>
      <trkpt lat="50.87036" lon="1.58272">
        <ele>40</ele>
        <time>2020-06-22T19:29:15Z</time>
      </trkpt>
      <trkpt lat="50.87037" lon="1.58271">
        <ele>40.1</ele>
        <time>2020-06-22T19:29:16Z</time>
      </trkpt>
      <trkpt lat="50.87039" lon="1.58269">
        <ele>40.4</ele>
        <time>2020-06-22T19:29:17Z</time>
      </trkpt>
      <trkpt lat="50.87039" lon="1.58269">
        <ele>40.4</ele>
        <time>2020-06-22T19:29:18Z</time>
      </trkpt>
      <trkpt lat="50.87039" lon="1.58269">
        <ele>40.4</ele>
        <time>2020-06-22T19:29:19Z</time>
      </trkpt>
      <trkpt lat="50.87039" lon="1.58267">
        <ele>40.6</ele>
        <time>2020-06-22T19:29:20Z</time>
      </trkpt>
      <trkpt lat="50.87039" lon="1.58266">
        <ele>40.7</ele>
        <time>2020-06-22T19:29:21Z</time>
      </trkpt>
      <trkpt lat="50.87038" lon="1.58264">
        <ele>40.8</ele>
        <time>2020-06-22T19:29:22Z</time>
      </trkpt>
      <trkpt lat="50.87038" lon="1.58264">
        <ele>40.8</ele>
        <time>2020-06-22T19:29:23Z</time>
      </trkpt>
      <trkpt lat="50.87038" lon="1.58263">
        <ele>40.9</ele>
        <time>2020-06-22T19:29:24Z</time>
      </trkpt>
      <trkpt lat="50.87039" lon="1.58263">
        <ele>40.9</ele>
        <time>2020-06-22T19:29:25Z</time>
      </trkpt>
      <trkpt lat="50.87038" lon="1.58263">
        <ele>41</ele>
        <time>2020-06-22T19:29:26Z</time>
      </trkpt>
      <trkpt lat="50.87038" lon="1.58261">
        <ele>41.1</ele>
        <time>2020-06-22T19:29:27Z</time>
      </trkpt>
      <trkpt lat="50.87039" lon="1.58258">
        <ele>41.3</ele>
        <time>2020-06-22T19:29:28Z</time>
      </trkpt>
      <trkpt lat="50.87039" lon="1.58256">
        <ele>41.4</ele>
        <time>2020-06-22T19:29:29Z</time>
      </trkpt>
      <trkpt lat="50.87038" lon="1.58253">
        <ele>41.6</ele>
        <time>2020-06-22T19:29:30Z</time>
      </trkpt>
      <trkpt lat="50.87038" lon="1.58247">
        <ele>41.6</ele>
        <time>2020-06-22T19:29:31Z</time>
      </trkpt>
      <trkpt lat="50.87038" lon="1.58245">
        <ele>41.6</ele>
        <time>2020-06-22T19:29:32Z</time>
      </trkpt>
      <trkpt lat="50.87038" lon="1.58245">
        <ele>41.6</ele>
        <time>2020-06-22T19:29:33Z</time>
      </trkpt>
      <trkpt lat="50.87038" lon="1.58245">
        <ele>41.6</ele>
        <time>2020-06-22T19:29:34Z</time>
      </trkpt>
      <trkpt lat="50.87037" lon="1.58244">
        <ele>41.6</ele>
        <time>2020-06-22T19:29:35Z</time>
      </trkpt>
      <trkpt lat="50.87036" lon="1.58244">
        <ele>41.6</ele>
        <time>2020-06-22T19:29:36Z</time>
      </trkpt>
      <trkpt lat="50.87036" lon="1.58243">
        <ele>41.6</ele>
        <time>2020-06-22T19:29:37Z</time>
      </trkpt>
      <trkpt lat="50.87035" lon="1.58242">
        <ele>41.7</ele>
        <time>2020-06-22T19:29:38Z</time>
      </trkpt>
      <trkpt lat="50.87034" lon="1.5824">
        <ele>41.7</ele>
        <time>2020-06-22T19:29:39Z</time>
      </trkpt>
      <trkpt lat="50.87034" lon="1.58239">
        <ele>41.7</ele>
        <time>2020-06-22T19:29:40Z</time>
      </trkpt>
      <trkpt lat="50.87033" lon="1.58238">
        <ele>41.7</ele>
        <time>2020-06-22T19:29:41Z</time>
      </trkpt>
      <trkpt lat="50.87032" lon="1.58237">
        <ele>41.7</ele>
        <time>2020-06-22T19:29:42Z</time>
      </trkpt>
      <trkpt lat="50.87032" lon="1.58237">
        <ele>41.7</ele>
        <time>2020-06-22T19:29:43Z</time>
      </trkpt>
      <trkpt lat="50.8703" lon="1.58236">
        <ele>41.7</ele>
        <time>2020-06-22T19:29:44Z</time>
      </trkpt>
      <trkpt lat="50.87029" lon="1.58235">
        <ele>41.7</ele>
        <time>2020-06-22T19:29:45Z</time>
      </trkpt>
      <trkpt lat="50.87028" lon="1.58234">
        <ele>41.7</ele>
        <time>2020-06-22T19:29:46Z</time>
      </trkpt>
      <trkpt lat="50.87027" lon="1.58233">
        <ele>41.7</ele>
        <time>2020-06-22T19:29:47Z</time>
      </trkpt>
      <trkpt lat="50.87026" lon="1.58233">
        <ele>41.8</ele>
        <time>2020-06-22T19:29:48Z</time>
      </trkpt>
      <trkpt lat="50.87025" lon="1.58232">
        <ele>41.9</ele>
        <time>2020-06-22T19:29:49Z</time>
      </trkpt>
      <trkpt lat="50.87024" lon="1.58232">
        <ele>41.9</ele>
        <time>2020-06-22T19:29:50Z</time>
      </trkpt>
      <trkpt lat="50.87023" lon="1.58231">
        <ele>41.9</ele>
        <time>2020-06-22T19:29:51Z</time>
      </trkpt>
      <trkpt lat="50.87022" lon="1.58231">
        <ele>41.9</ele>
        <time>2020-06-22T19:29:52Z</time>
      </trkpt>
      <trkpt lat="50.87021" lon="1.58231">
        <ele>42</ele>
        <time>2020-06-22T19:29:53Z</time>
      </trkpt>
      <trkpt lat="50.8702" lon="1.58231">
        <ele>42</ele>
        <time>2020-06-22T19:29:54Z</time>
      </trkpt>
      <trkpt lat="50.87019" lon="1.58231">
        <ele>42</ele>
        <time>2020-06-22T19:29:55Z</time>
      </trkpt>
      <trkpt lat="50.87018" lon="1.5823">
        <ele>42</ele>
        <time>2020-06-22T19:29:56Z</time>
      </trkpt>
      <trkpt lat="50.87016" lon="1.5823">
        <ele>42.1</ele>
        <time>2020-06-22T19:29:57Z</time>
      </trkpt>
      <trkpt lat="50.87015" lon="1.5823">
        <ele>42.1</ele>
        <time>2020-06-22T19:29:58Z</time>
      </trkpt>
      <trkpt lat="50.87014" lon="1.5823">
        <ele>42.2</ele>
        <time>2020-06-22T19:29:59Z</time>
      </trkpt>
      <trkpt lat="50.87013" lon="1.5823">
        <ele>42.2</ele>
        <time>2020-06-22T19:30:00Z</time>
      </trkpt>
      <trkpt lat="50.87012" lon="1.5823">
        <ele>42.2</ele>
        <time>2020-06-22T19:30:01Z</time>
      </trkpt>
      <trkpt lat="50.8701" lon="1.5823">
        <ele>42.3</ele>
        <time>2020-06-22T19:30:02Z</time>
      </trkpt>
      <trkpt lat="50.87009" lon="1.5823">
        <ele>42.3</ele>
        <time>2020-06-22T19:30:03Z</time>
      </trkpt>
      <trkpt lat="50.87009" lon="1.5823">
        <ele>42.4</ele>
        <time>2020-06-22T19:30:04Z</time>
      </trkpt>
      <trkpt lat="50.87008" lon="1.58231">
        <ele>42.4</ele>
        <time>2020-06-22T19:30:05Z</time>
      </trkpt>
      <trkpt lat="50.87007" lon="1.58231">
        <ele>42.4</ele>
        <time>2020-06-22T19:30:06Z</time>
      </trkpt>
      <trkpt lat="50.87006" lon="1.58231">
        <ele>42.5</ele>
        <time>2020-06-22T19:30:07Z</time>
      </trkpt>
      <trkpt lat="50.87005" lon="1.58231">
        <ele>42.5</ele>
        <time>2020-06-22T19:30:08Z</time>
      </trkpt>
      <trkpt lat="50.87004" lon="1.58232">
        <ele>42.5</ele>
        <time>2020-06-22T19:30:09Z</time>
      </trkpt>
      <trkpt lat="50.87004" lon="1.58232">
        <ele>42.5</ele>
        <time>2020-06-22T19:30:10Z</time>
      </trkpt>
      <trkpt lat="50.87003" lon="1.58233">
        <ele>42.6</ele>
        <time>2020-06-22T19:30:11Z</time>
      </trkpt>
      <trkpt lat="50.87002" lon="1.58234">
        <ele>42.6</ele>
        <time>2020-06-22T19:30:12Z</time>
      </trkpt>
      <trkpt lat="50.87001" lon="1.58235">
        <ele>42.6</ele>
        <time>2020-06-22T19:30:13Z</time>
      </trkpt>
      <trkpt lat="50.87001" lon="1.58236">
        <ele>42.7</ele>
        <time>2020-06-22T19:30:14Z</time>
      </trkpt>
      <trkpt lat="50.87" lon="1.58238">
        <ele>42.7</ele>
        <time>2020-06-22T19:30:15Z</time>
      </trkpt>
      <trkpt lat="50.87" lon="1.58239">
        <ele>42.7</ele>
        <time>2020-06-22T19:30:16Z</time>
      </trkpt>
      <trkpt lat="50.87" lon="1.5824">
        <ele>42.8</ele>
        <time>2020-06-22T19:30:17Z</time>
      </trkpt>
      <trkpt lat="50.86999" lon="1.58241">
        <ele>42.8</ele>
        <time>2020-06-22T19:30:18Z</time>
      </trkpt>
      <trkpt lat="50.86999" lon="1.58243">
        <ele>42.8</ele>
        <time>2020-06-22T19:30:19Z</time>
      </trkpt>
      <trkpt lat="50.86998" lon="1.58245">
        <ele>42.9</ele>
        <time>2020-06-22T19:30:20Z</time>
      </trkpt>
      <trkpt lat="50.86998" lon="1.58246">
        <ele>42.9</ele>
        <time>2020-06-22T19:30:21Z</time>
      </trkpt>
      <trkpt lat="50.86997" lon="1.58247">
        <ele>42.9</ele>
        <time>2020-06-22T19:30:22Z</time>
      </trkpt>
      <trkpt lat="50.86996" lon="1.5825">
        <ele>43</ele>
        <time>2020-06-22T19:30:23Z</time>
      </trkpt>
      <trkpt lat="50.86996" lon="1.58251">
        <ele>43</ele>
        <time>2020-06-22T19:30:24Z</time>
      </trkpt>
      <trkpt lat="50.86995" lon="1.58252">
        <ele>43</ele>
        <time>2020-06-22T19:30:25Z</time>
      </trkpt>
      <trkpt lat="50.86994" lon="1.58254">
        <ele>43.1</ele>
        <time>2020-06-22T19:30:26Z</time>
      </trkpt>
      <trkpt lat="50.86994" lon="1.58255">
        <ele>43.1</ele>
        <time>2020-06-22T19:30:27Z</time>
      </trkpt>
      <trkpt lat="50.86993" lon="1.58256">
        <ele>43.1</ele>
        <time>2020-06-22T19:30:28Z</time>
      </trkpt>
      <trkpt lat="50.86993" lon="1.58257">
        <ele>43.2</ele>
        <time>2020-06-22T19:30:29Z</time>
      </trkpt>
      <trkpt lat="50.86993" lon="1.58258">
        <ele>43.2</ele>
        <time>2020-06-22T19:30:30Z</time>
      </trkpt>
      <trkpt lat="50.86992" lon="1.58259">
        <ele>43.2</ele>
        <time>2020-06-22T19:30:31Z</time>
      </trkpt>
      <trkpt lat="50.86992" lon="1.58261">
        <ele>43.3</ele>
        <time>2020-06-22T19:30:32Z</time>
      </trkpt>
      <trkpt lat="50.86992" lon="1.58263">
        <ele>43.3</ele>
        <time>2020-06-22T19:30:33Z</time>
      </trkpt>
      <trkpt lat="50.86991" lon="1.58264">
        <ele>43.4</ele>
        <time>2020-06-22T19:30:34Z</time>
      </trkpt>
      <trkpt lat="50.86991" lon="1.58266">
        <ele>43.4</ele>
        <time>2020-06-22T19:30:35Z</time>
      </trkpt>
      <trkpt lat="50.8699" lon="1.58268">
        <ele>43.4</ele>
        <time>2020-06-22T19:30:36Z</time>
      </trkpt>
      <trkpt lat="50.8699" lon="1.58269">
        <ele>43.5</ele>
        <time>2020-06-22T19:30:37Z</time>
      </trkpt>
      <trkpt lat="50.86989" lon="1.5827">
        <ele>43.5</ele>
        <time>2020-06-22T19:30:38Z</time>
      </trkpt>
      <trkpt lat="50.86988" lon="1.58272">
        <ele>43.6</ele>
        <time>2020-06-22T19:30:39Z</time>
      </trkpt>
      <trkpt lat="50.86988" lon="1.58272">
        <ele>43.6</ele>
        <time>2020-06-22T19:30:40Z</time>
      </trkpt>
      <trkpt lat="50.86987" lon="1.58273">
        <ele>43.6</ele>
        <time>2020-06-22T19:30:41Z</time>
      </trkpt>
      <trkpt lat="50.86986" lon="1.58274">
        <ele>43.7</ele>
        <time>2020-06-22T19:30:42Z</time>
      </trkpt>
      <trkpt lat="50.86986" lon="1.58275">
        <ele>43.7</ele>
        <time>2020-06-22T19:30:43Z</time>
      </trkpt>
      <trkpt lat="50.86986" lon="1.58277">
        <ele>43.7</ele>
        <time>2020-06-22T19:30:44Z</time>
      </trkpt>
      <trkpt lat="50.86985" lon="1.58278">
        <ele>43.7</ele>
        <time>2020-06-22T19:30:45Z</time>
      </trkpt>
      <trkpt lat="50.86985" lon="1.5828">
        <ele>43.8</ele>
        <time>2020-06-22T19:30:46Z</time>
      </trkpt>
      <trkpt lat="50.86985" lon="1.5828">
        <ele>43.8</ele>
        <time>2020-06-22T19:30:47Z</time>
      </trkpt>
      <trkpt lat="50.86985" lon="1.5828">
        <ele>43.8</ele>
        <time>2020-06-22T19:30:48Z</time>
      </trkpt>
      <trkpt lat="50.86985" lon="1.5828">
        <ele>43.8</ele>
        <time>2020-06-22T19:30:49Z</time>
      </trkpt>
      <trkpt lat="50.86984" lon="1.58281">
        <ele>43.8</ele>
        <time>2020-06-22T19:30:50Z</time>
      </trkpt>
      <trkpt lat="50.86984" lon="1.58282">
        <ele>43.8</ele>
        <time>2020-06-22T19:30:51Z</time>
      </trkpt>
      <trkpt lat="50.86983" lon="1.58282">
        <ele>43.8</ele>
        <time>2020-06-22T19:30:52Z</time>
      </trkpt>
      <trkpt lat="50.86983" lon="1.58284">
        <ele>43.9</ele>
        <time>2020-06-22T19:30:53Z</time>
      </trkpt>
      <trkpt lat="50.86983" lon="1.58285">
        <ele>43.9</ele>
        <time>2020-06-22T19:30:54Z</time>
      </trkpt>
      <trkpt lat="50.86982" lon="1.58287">
        <ele>43.9</ele>
        <time>2020-06-22T19:30:55Z</time>
      </trkpt>
      <trkpt lat="50.86982" lon="1.58289">
        <ele>44</ele>
        <time>2020-06-22T19:30:56Z</time>
      </trkpt>
      <trkpt lat="50.86981" lon="1.58291">
        <ele>44</ele>
        <time>2020-06-22T19:30:57Z</time>
      </trkpt>
      <trkpt lat="50.86981" lon="1.58292">
        <ele>44</ele>
        <time>2020-06-22T19:30:58Z</time>
      </trkpt>
      <trkpt lat="50.86981" lon="1.58293">
        <ele>44</ele>
        <time>2020-06-22T19:30:59Z</time>
      </trkpt>
      <trkpt lat="50.8698" lon="1.58295">
        <ele>44</ele>
        <time>2020-06-22T19:31:00Z</time>
      </trkpt>
      <trkpt lat="50.8698" lon="1.58298">
        <ele>44.1</ele>
        <time>2020-06-22T19:31:01Z</time>
      </trkpt>
      <trkpt lat="50.8698" lon="1.583">
        <ele>44.1</ele>
        <time>2020-06-22T19:31:02Z</time>
      </trkpt>
      <trkpt lat="50.86979" lon="1.58302">
        <ele>44.1</ele>
        <time>2020-06-22T19:31:03Z</time>
      </trkpt>
      <trkpt lat="50.86979" lon="1.58303">
        <ele>44.1</ele>
        <time>2020-06-22T19:31:04Z</time>
      </trkpt>
      <trkpt lat="50.86979" lon="1.58305">
        <ele>44.1</ele>
        <time>2020-06-22T19:31:05Z</time>
      </trkpt>
      <trkpt lat="50.86979" lon="1.58306">
        <ele>44.1</ele>
        <time>2020-06-22T19:31:06Z</time>
      </trkpt>
      <trkpt lat="50.86978" lon="1.58307">
        <ele>44.1</ele>
        <time>2020-06-22T19:31:07Z</time>
      </trkpt>
      <trkpt lat="50.86978" lon="1.58308">
        <ele>44.1</ele>
        <time>2020-06-22T19:31:08Z</time>
      </trkpt>
      <trkpt lat="50.86978" lon="1.58309">
        <ele>44.1</ele>
        <time>2020-06-22T19:31:09Z</time>
      </trkpt>
      <trkpt lat="50.86978" lon="1.58311">
        <ele>44.1</ele>
        <time>2020-06-22T19:31:10Z</time>
      </trkpt>
      <trkpt lat="50.86978" lon="1.58311">
        <ele>44.1</ele>
        <time>2020-06-22T19:31:11Z</time>
      </trkpt>
      <trkpt lat="50.86978" lon="1.58313">
        <ele>44.1</ele>
        <time>2020-06-22T19:31:12Z</time>
      </trkpt>
      <trkpt lat="50.86977" lon="1.58315">
        <ele>44.1</ele>
        <time>2020-06-22T19:31:13Z</time>
      </trkpt>
      <trkpt lat="50.86977" lon="1.58318">
        <ele>44</ele>
        <time>2020-06-22T19:31:14Z</time>
      </trkpt>
      <trkpt lat="50.86977" lon="1.5832">
        <ele>44</ele>
        <time>2020-06-22T19:31:15Z</time>
      </trkpt>
      <trkpt lat="50.86977" lon="1.58321">
        <ele>44</ele>
        <time>2020-06-22T19:31:16Z</time>
      </trkpt>
      <trkpt lat="50.86977" lon="1.58322">
        <ele>44</ele>
        <time>2020-06-22T19:31:17Z</time>
      </trkpt>
      <trkpt lat="50.86977" lon="1.58324">
        <ele>44</ele>
        <time>2020-06-22T19:31:18Z</time>
      </trkpt>
      <trkpt lat="50.86978" lon="1.58325">
        <ele>44</ele>
        <time>2020-06-22T19:31:19Z</time>
      </trkpt>
      <trkpt lat="50.86978" lon="1.58325">
        <ele>44</ele>
        <time>2020-06-22T19:31:20Z</time>
      </trkpt>
      <trkpt lat="50.86978" lon="1.58328">
        <ele>43.9</ele>
        <time>2020-06-22T19:31:21Z</time>
      </trkpt>
      <trkpt lat="50.86978" lon="1.5833">
        <ele>43.9</ele>
        <time>2020-06-22T19:31:22Z</time>
      </trkpt>
      <trkpt lat="50.86978" lon="1.58331">
        <ele>43.9</ele>
        <time>2020-06-22T19:31:23Z</time>
      </trkpt>
      <trkpt lat="50.86978" lon="1.58331">
        <ele>43.9</ele>
        <time>2020-06-22T19:31:24Z</time>
      </trkpt>
      <trkpt lat="50.86978" lon="1.58331">
        <ele>43.9</ele>
        <time>2020-06-22T19:31:25Z</time>
      </trkpt>
      <trkpt lat="50.86978" lon="1.58331">
        <ele>43.9</ele>
        <time>2020-06-22T19:31:26Z</time>
      </trkpt>
      <trkpt lat="50.86978" lon="1.58332">
        <ele>43.9</ele>
        <time>2020-06-22T19:31:27Z</time>
      </trkpt>
      <trkpt lat="50.86978" lon="1.58333">
        <ele>43.8</ele>
        <time>2020-06-22T19:31:28Z</time>
      </trkpt>
      <trkpt lat="50.86978" lon="1.58334">
        <ele>43.8</ele>
        <time>2020-06-22T19:31:29Z</time>
      </trkpt>
      <trkpt lat="50.86978" lon="1.58334">
        <ele>43.8</ele>
        <time>2020-06-22T19:31:30Z</time>
      </trkpt>
      <trkpt lat="50.86979" lon="1.58335">
        <ele>43.8</ele>
        <time>2020-06-22T19:31:31Z</time>
      </trkpt>
      <trkpt lat="50.86979" lon="1.58337">
        <ele>43.8</ele>
        <time>2020-06-22T19:31:32Z</time>
      </trkpt>
      <trkpt lat="50.8698" lon="1.58338">
        <ele>43.8</ele>
        <time>2020-06-22T19:31:33Z</time>
      </trkpt>
      <trkpt lat="50.86981" lon="1.58339">
        <ele>43.8</ele>
        <time>2020-06-22T19:31:34Z</time>
      </trkpt>
      <trkpt lat="50.86981" lon="1.5834">
        <ele>43.7</ele>
        <time>2020-06-22T19:31:35Z</time>
      </trkpt>
      <trkpt lat="50.86982" lon="1.58342">
        <ele>43.7</ele>
        <time>2020-06-22T19:31:36Z</time>
      </trkpt>
      <trkpt lat="50.86982" lon="1.58344">
        <ele>43.7</ele>
        <time>2020-06-22T19:31:37Z</time>
      </trkpt>
      <trkpt lat="50.86982" lon="1.58345">
        <ele>43.7</ele>
        <time>2020-06-22T19:31:38Z</time>
      </trkpt>
      <trkpt lat="50.86983" lon="1.58345">
        <ele>43.7</ele>
        <time>2020-06-22T19:31:39Z</time>
      </trkpt>
      <trkpt lat="50.86983" lon="1.58346">
        <ele>43.6</ele>
        <time>2020-06-22T19:31:40Z</time>
      </trkpt>
      <trkpt lat="50.86983" lon="1.58348">
        <ele>43.6</ele>
        <time>2020-06-22T19:31:41Z</time>
      </trkpt>
      <trkpt lat="50.86984" lon="1.5835">
        <ele>43.4</ele>
        <time>2020-06-22T19:31:42Z</time>
      </trkpt>
      <trkpt lat="50.86984" lon="1.58351">
        <ele>43.4</ele>
        <time>2020-06-22T19:31:43Z</time>
      </trkpt>
      <trkpt lat="50.86985" lon="1.58352">
        <ele>43.3</ele>
        <time>2020-06-22T19:31:44Z</time>
      </trkpt>
      <trkpt lat="50.86986" lon="1.58354">
        <ele>43.3</ele>
        <time>2020-06-22T19:31:45Z</time>
      </trkpt>
      <trkpt lat="50.86987" lon="1.58355">
        <ele>43.2</ele>
        <time>2020-06-22T19:31:46Z</time>
      </trkpt>
      <trkpt lat="50.86987" lon="1.58357">
        <ele>43.1</ele>
        <time>2020-06-22T19:31:47Z</time>
      </trkpt>
      <trkpt lat="50.86987" lon="1.58358">
        <ele>43.1</ele>
        <time>2020-06-22T19:31:48Z</time>
      </trkpt>
      <trkpt lat="50.86987" lon="1.5836">
        <ele>43</ele>
        <time>2020-06-22T19:31:49Z</time>
      </trkpt>
      <trkpt lat="50.86988" lon="1.58361">
        <ele>42.9</ele>
        <time>2020-06-22T19:31:50Z</time>
      </trkpt>
      <trkpt lat="50.86988" lon="1.58362">
        <ele>42.9</ele>
        <time>2020-06-22T19:31:51Z</time>
      </trkpt>
      <trkpt lat="50.86989" lon="1.58364">
        <ele>42.8</ele>
        <time>2020-06-22T19:31:52Z</time>
      </trkpt>
      <trkpt lat="50.8699" lon="1.58365">
        <ele>42.7</ele>
        <time>2020-06-22T19:31:53Z</time>
      </trkpt>
      <trkpt lat="50.86991" lon="1.58368">
        <ele>42.6</ele>
        <time>2020-06-22T19:31:54Z</time>
      </trkpt>
      <trkpt lat="50.86991" lon="1.58369">
        <ele>42.5</ele>
        <time>2020-06-22T19:31:55Z</time>
      </trkpt>
      <trkpt lat="50.86992" lon="1.58371">
        <ele>42.4</ele>
        <time>2020-06-22T19:31:56Z</time>
      </trkpt>
      <trkpt lat="50.86993" lon="1.58373">
        <ele>42.3</ele>
        <time>2020-06-22T19:31:57Z</time>
      </trkpt>
      <trkpt lat="50.86994" lon="1.58375">
        <ele>42.2</ele>
        <time>2020-06-22T19:31:58Z</time>
      </trkpt>
      <trkpt lat="50.86995" lon="1.58377">
        <ele>42.1</ele>
        <time>2020-06-22T19:31:59Z</time>
      </trkpt>
      <trkpt lat="50.86996" lon="1.58378">
        <ele>42</ele>
        <time>2020-06-22T19:32:00Z</time>
      </trkpt>
      <trkpt lat="50.86996" lon="1.58381">
        <ele>41.9</ele>
        <time>2020-06-22T19:32:01Z</time>
      </trkpt>
      <trkpt lat="50.86997" lon="1.58382">
        <ele>41.8</ele>
        <time>2020-06-22T19:32:02Z</time>
      </trkpt>
      <trkpt lat="50.86998" lon="1.58383">
        <ele>41.7</ele>
        <time>2020-06-22T19:32:03Z</time>
      </trkpt>
      <trkpt lat="50.86998" lon="1.58384">
        <ele>41.7</ele>
        <time>2020-06-22T19:32:04Z</time>
      </trkpt>
      <trkpt lat="50.86999" lon="1.58385">
        <ele>41.6</ele>
        <time>2020-06-22T19:32:05Z</time>
      </trkpt>
      <trkpt lat="50.86998" lon="1.58386">
        <ele>41.6</ele>
        <time>2020-06-22T19:32:06Z</time>
      </trkpt>
      <trkpt lat="50.86998" lon="1.58387">
        <ele>41.5</ele>
        <time>2020-06-22T19:32:07Z</time>
      </trkpt>
      <trkpt lat="50.86998" lon="1.58389">
        <ele>41.5</ele>
        <time>2020-06-22T19:32:08Z</time>
      </trkpt>
      <trkpt lat="50.86998" lon="1.5839">
        <ele>41.4</ele>
        <time>2020-06-22T19:32:09Z</time>
      </trkpt>
      <trkpt lat="50.86998" lon="1.58392">
        <ele>41.4</ele>
        <time>2020-06-22T19:32:10Z</time>
      </trkpt>
      <trkpt lat="50.86998" lon="1.58393">
        <ele>41.3</ele>
        <time>2020-06-22T19:32:11Z</time>
      </trkpt>
      <trkpt lat="50.86998" lon="1.58396">
        <ele>41</ele>
        <time>2020-06-22T19:32:12Z</time>
      </trkpt>
      <trkpt lat="50.86997" lon="1.58399">
        <ele>40.9</ele>
        <time>2020-06-22T19:32:13Z</time>
      </trkpt>
      <trkpt lat="50.86996" lon="1.58401">
        <ele>40.9</ele>
        <time>2020-06-22T19:32:14Z</time>
      </trkpt>
      <trkpt lat="50.86996" lon="1.58403">
        <ele>40.9</ele>
        <time>2020-06-22T19:32:15Z</time>
      </trkpt>
      <trkpt lat="50.86996" lon="1.58404">
        <ele>40.9</ele>
        <time>2020-06-22T19:32:16Z</time>
      </trkpt>
      <trkpt lat="50.86995" lon="1.58406">
        <ele>40.9</ele>
        <time>2020-06-22T19:32:17Z</time>
      </trkpt>
      <trkpt lat="50.86994" lon="1.58408">
        <ele>40.9</ele>
        <time>2020-06-22T19:32:18Z</time>
      </trkpt>
      <trkpt lat="50.86993" lon="1.58409">
        <ele>40.9</ele>
        <time>2020-06-22T19:32:19Z</time>
      </trkpt>
      <trkpt lat="50.86993" lon="1.58411">
        <ele>40.9</ele>
        <time>2020-06-22T19:32:20Z</time>
      </trkpt>
      <trkpt lat="50.86992" lon="1.58414">
        <ele>41</ele>
        <time>2020-06-22T19:32:21Z</time>
      </trkpt>
      <trkpt lat="50.86992" lon="1.58417">
        <ele>41</ele>
        <time>2020-06-22T19:32:22Z</time>
      </trkpt>
      <trkpt lat="50.86991" lon="1.58419">
        <ele>41</ele>
        <time>2020-06-22T19:32:23Z</time>
      </trkpt>
      <trkpt lat="50.86991" lon="1.58421">
        <ele>41</ele>
        <time>2020-06-22T19:32:24Z</time>
      </trkpt>
      <trkpt lat="50.86991" lon="1.58426">
        <ele>41</ele>
        <time>2020-06-22T19:32:25Z</time>
      </trkpt>
      <trkpt lat="50.86991" lon="1.58428">
        <ele>41.1</ele>
        <time>2020-06-22T19:32:26Z</time>
      </trkpt>
      <trkpt lat="50.86992" lon="1.58433">
        <ele>41.1</ele>
        <time>2020-06-22T19:32:27Z</time>
      </trkpt>
      <trkpt lat="50.86991" lon="1.58434">
        <ele>41.1</ele>
        <time>2020-06-22T19:32:28Z</time>
      </trkpt>
      <trkpt lat="50.86991" lon="1.58439">
        <ele>41.1</ele>
        <time>2020-06-22T19:32:29Z</time>
      </trkpt>
      <trkpt lat="50.86992" lon="1.58443">
        <ele>41.2</ele>
        <time>2020-06-22T19:32:30Z</time>
      </trkpt>
      <trkpt lat="50.86992" lon="1.58445">
        <ele>41.2</ele>
        <time>2020-06-22T19:32:31Z</time>
      </trkpt>
      <trkpt lat="50.86992" lon="1.58447">
        <ele>41.2</ele>
        <time>2020-06-22T19:32:32Z</time>
      </trkpt>
      <trkpt lat="50.86992" lon="1.58449">
        <ele>41.3</ele>
        <time>2020-06-22T19:32:33Z</time>
      </trkpt>
      <trkpt lat="50.86991" lon="1.58452">
        <ele>41.3</ele>
        <time>2020-06-22T19:32:34Z</time>
      </trkpt>
      <trkpt lat="50.86992" lon="1.58452">
        <ele>41.3</ele>
        <time>2020-06-22T19:32:35Z</time>
      </trkpt>
      <trkpt lat="50.86992" lon="1.58451">
        <ele>41.3</ele>
        <time>2020-06-22T19:32:36Z</time>
      </trkpt>
      <trkpt lat="50.86992" lon="1.58452">
        <ele>41.3</ele>
        <time>2020-06-22T19:32:37Z</time>
      </trkpt>
      <trkpt lat="50.86992" lon="1.58452">
        <ele>41.3</ele>
        <time>2020-06-22T19:32:38Z</time>
      </trkpt>
      <trkpt lat="50.86992" lon="1.58452">
        <ele>41.3</ele>
        <time>2020-06-22T19:32:39Z</time>
      </trkpt>
      <trkpt lat="50.86992" lon="1.58452">
        <ele>41.3</ele>
        <time>2020-06-22T19:32:40Z</time>
      </trkpt>
      <trkpt lat="50.86992" lon="1.58452">
        <ele>41.3</ele>
        <time>2020-06-22T19:32:41Z</time>
      </trkpt>
      <trkpt lat="50.86992" lon="1.58452">
        <ele>41.3</ele>
        <time>2020-06-22T19:32:42Z</time>
      </trkpt>
      <trkpt lat="50.86992" lon="1.58452">
        <ele>41.3</ele>
        <time>2020-06-22T19:32:43Z</time>
      </trkpt>
      <trkpt lat="50.86992" lon="1.58452">
        <ele>41.3</ele>
        <time>2020-06-22T19:32:44Z</time>
      </trkpt>
      <trkpt lat="50.86992" lon="1.58452">
        <ele>41.4</ele>
        <time>2020-06-22T19:32:45Z</time>
      </trkpt>
      <trkpt lat="50.86992" lon="1.58453">
        <ele>41.4</ele>
        <time>2020-06-22T19:32:46Z</time>
      </trkpt>
      <trkpt lat="50.86992" lon="1.58455">
        <ele>41.4</ele>
        <time>2020-06-22T19:32:47Z</time>
      </trkpt>
      <trkpt lat="50.86991" lon="1.58457">
        <ele>41.4</ele>
        <time>2020-06-22T19:32:48Z</time>
      </trkpt>
      <trkpt lat="50.8699" lon="1.58459">
        <ele>41.5</ele>
        <time>2020-06-22T19:32:49Z</time>
      </trkpt>
      <trkpt lat="50.86989" lon="1.58461">
        <ele>41.5</ele>
        <time>2020-06-22T19:32:50Z</time>
      </trkpt>
      <trkpt lat="50.86989" lon="1.58464">
        <ele>41.6</ele>
        <time>2020-06-22T19:32:51Z</time>
      </trkpt>
      <trkpt lat="50.86988" lon="1.58465">
        <ele>41.6</ele>
        <time>2020-06-22T19:32:52Z</time>
      </trkpt>
      <trkpt lat="50.86988" lon="1.58467">
        <ele>41.6</ele>
        <time>2020-06-22T19:32:53Z</time>
      </trkpt>
      <trkpt lat="50.86987" lon="1.58471">
        <ele>41.7</ele>
        <time>2020-06-22T19:32:54Z</time>
      </trkpt>
      <trkpt lat="50.86987" lon="1.58472">
        <ele>41.7</ele>
        <time>2020-06-22T19:32:55Z</time>
      </trkpt>
      <trkpt lat="50.86986" lon="1.58473">
        <ele>41.8</ele>
        <time>2020-06-22T19:32:56Z</time>
      </trkpt>
      <trkpt lat="50.86985" lon="1.58476">
        <ele>41.8</ele>
        <time>2020-06-22T19:32:57Z</time>
      </trkpt>
      <trkpt lat="50.86985" lon="1.58478">
        <ele>41.9</ele>
        <time>2020-06-22T19:32:58Z</time>
      </trkpt>
      <trkpt lat="50.86985" lon="1.5848">
        <ele>41.9</ele>
        <time>2020-06-22T19:32:59Z</time>
      </trkpt>
      <trkpt lat="50.86984" lon="1.58481">
        <ele>41.9</ele>
        <time>2020-06-22T19:33:00Z</time>
      </trkpt>
      <trkpt lat="50.86985" lon="1.58483">
        <ele>41.9</ele>
        <time>2020-06-22T19:33:01Z</time>
      </trkpt>
      <trkpt lat="50.86984" lon="1.58484">
        <ele>42</ele>
        <time>2020-06-22T19:33:02Z</time>
      </trkpt>
      <trkpt lat="50.86984" lon="1.58487">
        <ele>42</ele>
        <time>2020-06-22T19:33:03Z</time>
      </trkpt>
      <trkpt lat="50.86984" lon="1.58489">
        <ele>42.1</ele>
        <time>2020-06-22T19:33:04Z</time>
      </trkpt>
      <trkpt lat="50.86984" lon="1.58491">
        <ele>42.1</ele>
        <time>2020-06-22T19:33:05Z</time>
      </trkpt>
      <trkpt lat="50.86984" lon="1.58493">
        <ele>42.1</ele>
        <time>2020-06-22T19:33:06Z</time>
      </trkpt>
      <trkpt lat="50.86984" lon="1.58494">
        <ele>42.2</ele>
        <time>2020-06-22T19:33:07Z</time>
      </trkpt>
      <trkpt lat="50.86984" lon="1.58495">
        <ele>42.2</ele>
        <time>2020-06-22T19:33:08Z</time>
      </trkpt>
      <trkpt lat="50.86983" lon="1.58497">
        <ele>42.2</ele>
        <time>2020-06-22T19:33:09Z</time>
      </trkpt>
      <trkpt lat="50.86983" lon="1.58499">
        <ele>42.2</ele>
        <time>2020-06-22T19:33:10Z</time>
      </trkpt>
      <trkpt lat="50.86983" lon="1.58501">
        <ele>42.3</ele>
        <time>2020-06-22T19:33:11Z</time>
      </trkpt>
      <trkpt lat="50.86983" lon="1.58502">
        <ele>42.3</ele>
        <time>2020-06-22T19:33:12Z</time>
      </trkpt>
      <trkpt lat="50.86983" lon="1.58504">
        <ele>42.3</ele>
        <time>2020-06-22T19:33:13Z</time>
      </trkpt>
      <trkpt lat="50.86983" lon="1.58506">
        <ele>42.4</ele>
        <time>2020-06-22T19:33:14Z</time>
      </trkpt>
      <trkpt lat="50.86983" lon="1.58508">
        <ele>42.4</ele>
        <time>2020-06-22T19:33:15Z</time>
      </trkpt>
      <trkpt lat="50.86983" lon="1.58511">
        <ele>42.5</ele>
        <time>2020-06-22T19:33:16Z</time>
      </trkpt>
      <trkpt lat="50.86983" lon="1.58513">
        <ele>42.5</ele>
        <time>2020-06-22T19:33:17Z</time>
      </trkpt>
      <trkpt lat="50.86983" lon="1.58515">
        <ele>42.6</ele>
        <time>2020-06-22T19:33:18Z</time>
      </trkpt>
      <trkpt lat="50.86983" lon="1.58517">
        <ele>42.6</ele>
        <time>2020-06-22T19:33:19Z</time>
      </trkpt>
      <trkpt lat="50.86983" lon="1.5852">
        <ele>42.6</ele>
        <time>2020-06-22T19:33:20Z</time>
      </trkpt>
      <trkpt lat="50.86983" lon="1.58522">
        <ele>42.7</ele>
        <time>2020-06-22T19:33:21Z</time>
      </trkpt>
      <trkpt lat="50.86983" lon="1.58523">
        <ele>42.7</ele>
        <time>2020-06-22T19:33:22Z</time>
      </trkpt>
      <trkpt lat="50.86984" lon="1.58524">
        <ele>42.7</ele>
        <time>2020-06-22T19:33:23Z</time>
      </trkpt>
      <trkpt lat="50.86984" lon="1.58527">
        <ele>42.7</ele>
        <time>2020-06-22T19:33:24Z</time>
      </trkpt>
      <trkpt lat="50.86984" lon="1.58528">
        <ele>42.8</ele>
        <time>2020-06-22T19:33:25Z</time>
      </trkpt>
      <trkpt lat="50.86984" lon="1.5853">
        <ele>42.8</ele>
        <time>2020-06-22T19:33:26Z</time>
      </trkpt>
      <trkpt lat="50.86984" lon="1.58532">
        <ele>42.8</ele>
        <time>2020-06-22T19:33:27Z</time>
      </trkpt>
      <trkpt lat="50.86984" lon="1.58534">
        <ele>42.9</ele>
        <time>2020-06-22T19:33:28Z</time>
      </trkpt>
      <trkpt lat="50.86984" lon="1.58537">
        <ele>42.9</ele>
        <time>2020-06-22T19:33:29Z</time>
      </trkpt>
      <trkpt lat="50.86984" lon="1.58539">
        <ele>42.9</ele>
        <time>2020-06-22T19:33:30Z</time>
      </trkpt>
      <trkpt lat="50.86984" lon="1.5854">
        <ele>43</ele>
        <time>2020-06-22T19:33:31Z</time>
      </trkpt>
      <trkpt lat="50.86984" lon="1.58543">
        <ele>43</ele>
        <time>2020-06-22T19:33:32Z</time>
      </trkpt>
      <trkpt lat="50.86984" lon="1.58544">
        <ele>43</ele>
        <time>2020-06-22T19:33:33Z</time>
      </trkpt>
      <trkpt lat="50.86984" lon="1.58546">
        <ele>43</ele>
        <time>2020-06-22T19:33:34Z</time>
      </trkpt>
      <trkpt lat="50.86984" lon="1.58547">
        <ele>43</ele>
        <time>2020-06-22T19:33:35Z</time>
      </trkpt>
      <trkpt lat="50.86983" lon="1.58549">
        <ele>43.1</ele>
        <time>2020-06-22T19:33:36Z</time>
      </trkpt>
      <trkpt lat="50.86983" lon="1.58551">
        <ele>43.1</ele>
        <time>2020-06-22T19:33:37Z</time>
      </trkpt>
      <trkpt lat="50.86982" lon="1.58552">
        <ele>43.1</ele>
        <time>2020-06-22T19:33:38Z</time>
      </trkpt>
      <trkpt lat="50.86982" lon="1.58554">
        <ele>43.1</ele>
        <time>2020-06-22T19:33:39Z</time>
      </trkpt>
      <trkpt lat="50.86982" lon="1.58556">
        <ele>43.1</ele>
        <time>2020-06-22T19:33:40Z</time>
      </trkpt>
      <trkpt lat="50.86981" lon="1.58557">
        <ele>43.2</ele>
        <time>2020-06-22T19:33:41Z</time>
      </trkpt>
      <trkpt lat="50.8698" lon="1.58558">
        <ele>43.2</ele>
        <time>2020-06-22T19:33:42Z</time>
      </trkpt>
      <trkpt lat="50.86979" lon="1.5856">
        <ele>43.2</ele>
        <time>2020-06-22T19:33:43Z</time>
      </trkpt>
      <trkpt lat="50.86977" lon="1.58561">
        <ele>43.3</ele>
        <time>2020-06-22T19:33:44Z</time>
      </trkpt>
      <trkpt lat="50.86976" lon="1.58561">
        <ele>43.3</ele>
        <time>2020-06-22T19:33:45Z</time>
      </trkpt>
      <trkpt lat="50.86976" lon="1.58562">
        <ele>43.3</ele>
        <time>2020-06-22T19:33:46Z</time>
      </trkpt>
      <trkpt lat="50.86974" lon="1.58563">
        <ele>43.3</ele>
        <time>2020-06-22T19:33:47Z</time>
      </trkpt>
      <trkpt lat="50.86973" lon="1.58564">
        <ele>43.3</ele>
        <time>2020-06-22T19:33:48Z</time>
      </trkpt>
      <trkpt lat="50.86972" lon="1.58564">
        <ele>43.4</ele>
        <time>2020-06-22T19:33:49Z</time>
      </trkpt>
      <trkpt lat="50.8697" lon="1.58565">
        <ele>43.4</ele>
        <time>2020-06-22T19:33:50Z</time>
      </trkpt>
      <trkpt lat="50.86969" lon="1.58566">
        <ele>43.4</ele>
        <time>2020-06-22T19:33:51Z</time>
      </trkpt>
      <trkpt lat="50.86968" lon="1.58568">
        <ele>43.5</ele>
        <time>2020-06-22T19:33:52Z</time>
      </trkpt>
      <trkpt lat="50.86967" lon="1.5857">
        <ele>43.5</ele>
        <time>2020-06-22T19:33:53Z</time>
      </trkpt>
      <trkpt lat="50.86966" lon="1.5857">
        <ele>43.5</ele>
        <time>2020-06-22T19:33:54Z</time>
      </trkpt>
      <trkpt lat="50.86966" lon="1.58571">
        <ele>43.5</ele>
        <time>2020-06-22T19:33:55Z</time>
      </trkpt>
      <trkpt lat="50.86967" lon="1.58571">
        <ele>43.5</ele>
        <time>2020-06-22T19:33:56Z</time>
      </trkpt>
      <trkpt lat="50.86967" lon="1.58571">
        <ele>43.5</ele>
        <time>2020-06-22T19:33:57Z</time>
      </trkpt>
      <trkpt lat="50.86967" lon="1.58571">
        <ele>43.5</ele>
        <time>2020-06-22T19:33:58Z</time>
      </trkpt>
      <trkpt lat="50.86967" lon="1.58571">
        <ele>43.5</ele>
        <time>2020-06-22T19:33:59Z</time>
      </trkpt>
      <trkpt lat="50.86967" lon="1.58571">
        <ele>43.5</ele>
        <time>2020-06-22T19:34:00Z</time>
      </trkpt>
      <trkpt lat="50.86966" lon="1.58571">
        <ele>43.5</ele>
        <time>2020-06-22T19:34:01Z</time>
      </trkpt>
      <trkpt lat="50.86966" lon="1.58572">
        <ele>43.5</ele>
        <time>2020-06-22T19:34:02Z</time>
      </trkpt>
      <trkpt lat="50.86965" lon="1.58574">
        <ele>43.5</ele>
        <time>2020-06-22T19:34:03Z</time>
      </trkpt>
      <trkpt lat="50.86964" lon="1.58575">
        <ele>43.6</ele>
        <time>2020-06-22T19:34:04Z</time>
      </trkpt>
      <trkpt lat="50.86963" lon="1.58575">
        <ele>43.6</ele>
        <time>2020-06-22T19:34:05Z</time>
      </trkpt>
      <trkpt lat="50.86962" lon="1.58576">
        <ele>43.6</ele>
        <time>2020-06-22T19:34:06Z</time>
      </trkpt>
      <trkpt lat="50.86962" lon="1.58578">
        <ele>43.6</ele>
        <time>2020-06-22T19:34:07Z</time>
      </trkpt>
      <trkpt lat="50.86961" lon="1.58578">
        <ele>43.6</ele>
        <time>2020-06-22T19:34:08Z</time>
      </trkpt>
      <trkpt lat="50.8696" lon="1.5858">
        <ele>43.6</ele>
        <time>2020-06-22T19:34:09Z</time>
      </trkpt>
      <trkpt lat="50.8696" lon="1.5858">
        <ele>43.6</ele>
        <time>2020-06-22T19:34:10Z</time>
      </trkpt>
      <trkpt lat="50.86959" lon="1.5858">
        <ele>43.6</ele>
        <time>2020-06-22T19:34:11Z</time>
      </trkpt>
      <trkpt lat="50.86959" lon="1.5858">
        <ele>43.6</ele>
        <time>2020-06-22T19:34:12Z</time>
      </trkpt>
      <trkpt lat="50.86959" lon="1.5858">
        <ele>43.6</ele>
        <time>2020-06-22T19:34:13Z</time>
      </trkpt>
      <trkpt lat="50.86959" lon="1.5858">
        <ele>43.6</ele>
        <time>2020-06-22T19:34:14Z</time>
      </trkpt>
      <trkpt lat="50.86959" lon="1.5858">
        <ele>43.6</ele>
        <time>2020-06-22T19:34:15Z</time>
      </trkpt>
      <trkpt lat="50.86959" lon="1.5858">
        <ele>43.6</ele>
        <time>2020-06-22T19:34:16Z</time>
      </trkpt>
      <trkpt lat="50.86959" lon="1.58581">
        <ele>43.6</ele>
        <time>2020-06-22T19:34:17Z</time>
      </trkpt>
      <trkpt lat="50.86959" lon="1.58582">
        <ele>43.7</ele>
        <time>2020-06-22T19:34:18Z</time>
      </trkpt>
      <trkpt lat="50.86959" lon="1.58584">
        <ele>43.7</ele>
        <time>2020-06-22T19:34:19Z</time>
      </trkpt>
      <trkpt lat="50.86959" lon="1.58585">
        <ele>43.7</ele>
        <time>2020-06-22T19:34:20Z</time>
      </trkpt>
      <trkpt lat="50.86959" lon="1.58587">
        <ele>43.7</ele>
        <time>2020-06-22T19:34:21Z</time>
      </trkpt>
      <trkpt lat="50.86959" lon="1.58588">
        <ele>43.7</ele>
        <time>2020-06-22T19:34:22Z</time>
      </trkpt>
      <trkpt lat="50.86959" lon="1.58589">
        <ele>43.7</ele>
        <time>2020-06-22T19:34:23Z</time>
      </trkpt>
      <trkpt lat="50.86958" lon="1.5859">
        <ele>43.7</ele>
        <time>2020-06-22T19:34:24Z</time>
      </trkpt>
      <trkpt lat="50.86958" lon="1.58592">
        <ele>43.7</ele>
        <time>2020-06-22T19:34:25Z</time>
      </trkpt>
      <trkpt lat="50.86958" lon="1.58593">
        <ele>43.7</ele>
        <time>2020-06-22T19:34:26Z</time>
      </trkpt>
      <trkpt lat="50.86959" lon="1.58594">
        <ele>43.7</ele>
        <time>2020-06-22T19:34:27Z</time>
      </trkpt>
      <trkpt lat="50.86959" lon="1.58596">
        <ele>43.7</ele>
        <time>2020-06-22T19:34:28Z</time>
      </trkpt>
      <trkpt lat="50.86959" lon="1.58597">
        <ele>43.7</ele>
        <time>2020-06-22T19:34:29Z</time>
      </trkpt>
      <trkpt lat="50.86959" lon="1.58598">
        <ele>43.7</ele>
        <time>2020-06-22T19:34:30Z</time>
      </trkpt>
      <trkpt lat="50.86958" lon="1.586">
        <ele>43.7</ele>
        <time>2020-06-22T19:34:31Z</time>
      </trkpt>
      <trkpt lat="50.86957" lon="1.58601">
        <ele>43.7</ele>
        <time>2020-06-22T19:34:32Z</time>
      </trkpt>
      <trkpt lat="50.86957" lon="1.58602">
        <ele>43.7</ele>
        <time>2020-06-22T19:34:33Z</time>
      </trkpt>
      <trkpt lat="50.86956" lon="1.58604">
        <ele>43.7</ele>
        <time>2020-06-22T19:34:34Z</time>
      </trkpt>
      <trkpt lat="50.86955" lon="1.58606">
        <ele>43.7</ele>
        <time>2020-06-22T19:34:35Z</time>
      </trkpt>
      <trkpt lat="50.86955" lon="1.58607">
        <ele>43.7</ele>
        <time>2020-06-22T19:34:36Z</time>
      </trkpt>
      <trkpt lat="50.86955" lon="1.58608">
        <ele>43.7</ele>
        <time>2020-06-22T19:34:37Z</time>
      </trkpt>
      <trkpt lat="50.86955" lon="1.5861">
        <ele>43.7</ele>
        <time>2020-06-22T19:34:38Z</time>
      </trkpt>
      <trkpt lat="50.86955" lon="1.58612">
        <ele>43.6</ele>
        <time>2020-06-22T19:34:39Z</time>
      </trkpt>
      <trkpt lat="50.86956" lon="1.58613">
        <ele>43.6</ele>
        <time>2020-06-22T19:34:40Z</time>
      </trkpt>
      <trkpt lat="50.86956" lon="1.58614">
        <ele>43.6</ele>
        <time>2020-06-22T19:34:41Z</time>
      </trkpt>
      <trkpt lat="50.86956" lon="1.58615">
        <ele>43.6</ele>
        <time>2020-06-22T19:34:42Z</time>
      </trkpt>
      <trkpt lat="50.86956" lon="1.58615">
        <ele>43.6</ele>
        <time>2020-06-22T19:34:43Z</time>
      </trkpt>
      <trkpt lat="50.86956" lon="1.58616">
        <ele>43.6</ele>
        <time>2020-06-22T19:34:44Z</time>
      </trkpt>
      <trkpt lat="50.86956" lon="1.58617">
        <ele>43.6</ele>
        <time>2020-06-22T19:34:45Z</time>
      </trkpt>
      <trkpt lat="50.86955" lon="1.58618">
        <ele>43.6</ele>
        <time>2020-06-22T19:34:46Z</time>
      </trkpt>
      <trkpt lat="50.86955" lon="1.58619">
        <ele>43.6</ele>
        <time>2020-06-22T19:34:47Z</time>
      </trkpt>
      <trkpt lat="50.86954" lon="1.5862">
        <ele>43.6</ele>
        <time>2020-06-22T19:34:48Z</time>
      </trkpt>
      <trkpt lat="50.86954" lon="1.58621">
        <ele>43.6</ele>
        <time>2020-06-22T19:34:49Z</time>
      </trkpt>
      <trkpt lat="50.86954" lon="1.58622">
        <ele>43.6</ele>
        <time>2020-06-22T19:34:50Z</time>
      </trkpt>
      <trkpt lat="50.86955" lon="1.58623">
        <ele>43.5</ele>
        <time>2020-06-22T19:34:51Z</time>
      </trkpt>
      <trkpt lat="50.86955" lon="1.58623">
        <ele>43.5</ele>
        <time>2020-06-22T19:34:52Z</time>
      </trkpt>
      <trkpt lat="50.86955" lon="1.58623">
        <ele>43.5</ele>
        <time>2020-06-22T19:34:53Z</time>
      </trkpt>
      <trkpt lat="50.86955" lon="1.58623">
        <ele>43.5</ele>
        <time>2020-06-22T19:34:54Z</time>
      </trkpt>
      <trkpt lat="50.86955" lon="1.58623">
        <ele>43.5</ele>
        <time>2020-06-22T19:34:55Z</time>
      </trkpt>
      <trkpt lat="50.86955" lon="1.58623">
        <ele>43.5</ele>
        <time>2020-06-22T19:34:56Z</time>
      </trkpt>
      <trkpt lat="50.86954" lon="1.58624">
        <ele>43.5</ele>
        <time>2020-06-22T19:34:57Z</time>
      </trkpt>
      <trkpt lat="50.86954" lon="1.58625">
        <ele>43.5</ele>
        <time>2020-06-22T19:34:58Z</time>
      </trkpt>
      <trkpt lat="50.86955" lon="1.58626">
        <ele>43.5</ele>
        <time>2020-06-22T19:34:59Z</time>
      </trkpt>
      <trkpt lat="50.86955" lon="1.58628">
        <ele>43.5</ele>
        <time>2020-06-22T19:35:00Z</time>
      </trkpt>
      <trkpt lat="50.86955" lon="1.58629">
        <ele>43.5</ele>
        <time>2020-06-22T19:35:01Z</time>
      </trkpt>
      <trkpt lat="50.86955" lon="1.58631">
        <ele>43.5</ele>
        <time>2020-06-22T19:35:02Z</time>
      </trkpt>
      <trkpt lat="50.86954" lon="1.58632">
        <ele>43.4</ele>
        <time>2020-06-22T19:35:03Z</time>
      </trkpt>
      <trkpt lat="50.86954" lon="1.58633">
        <ele>43.4</ele>
        <time>2020-06-22T19:35:04Z</time>
      </trkpt>
      <trkpt lat="50.86954" lon="1.58634">
        <ele>43.4</ele>
        <time>2020-06-22T19:35:05Z</time>
      </trkpt>
      <trkpt lat="50.86954" lon="1.58635">
        <ele>43.4</ele>
        <time>2020-06-22T19:35:06Z</time>
      </trkpt>
      <trkpt lat="50.86953" lon="1.58637">
        <ele>43.4</ele>
        <time>2020-06-22T19:35:07Z</time>
      </trkpt>
      <trkpt lat="50.86953" lon="1.58638">
        <ele>43.4</ele>
        <time>2020-06-22T19:35:08Z</time>
      </trkpt>
      <trkpt lat="50.86952" lon="1.58639">
        <ele>43.3</ele>
        <time>2020-06-22T19:35:09Z</time>
      </trkpt>
      <trkpt lat="50.86952" lon="1.58642">
        <ele>43.3</ele>
        <time>2020-06-22T19:35:10Z</time>
      </trkpt>
      <trkpt lat="50.86951" lon="1.58643">
        <ele>43.3</ele>
        <time>2020-06-22T19:35:11Z</time>
      </trkpt>
      <trkpt lat="50.8695" lon="1.58646">
        <ele>43.3</ele>
        <time>2020-06-22T19:35:12Z</time>
      </trkpt>
      <trkpt lat="50.86949" lon="1.58647">
        <ele>43.3</ele>
        <time>2020-06-22T19:35:13Z</time>
      </trkpt>
      <trkpt lat="50.86949" lon="1.58647">
        <ele>43.3</ele>
        <time>2020-06-22T19:35:14Z</time>
      </trkpt>
      <trkpt lat="50.86949" lon="1.58648">
        <ele>43.2</ele>
        <time>2020-06-22T19:35:15Z</time>
      </trkpt>
      <trkpt lat="50.86948" lon="1.5865">
        <ele>43.2</ele>
        <time>2020-06-22T19:35:16Z</time>
      </trkpt>
      <trkpt lat="50.86948" lon="1.58652">
        <ele>43.2</ele>
        <time>2020-06-22T19:35:17Z</time>
      </trkpt>
      <trkpt lat="50.86947" lon="1.58653">
        <ele>43.2</ele>
        <time>2020-06-22T19:35:18Z</time>
      </trkpt>
      <trkpt lat="50.86947" lon="1.58655">
        <ele>43.2</ele>
        <time>2020-06-22T19:35:19Z</time>
      </trkpt>
      <trkpt lat="50.86946" lon="1.58657">
        <ele>43.2</ele>
        <time>2020-06-22T19:35:20Z</time>
      </trkpt>
      <trkpt lat="50.86946" lon="1.58658">
        <ele>43.2</ele>
        <time>2020-06-22T19:35:21Z</time>
      </trkpt>
      <trkpt lat="50.86946" lon="1.58659">
        <ele>43.2</ele>
        <time>2020-06-22T19:35:22Z</time>
      </trkpt>
      <trkpt lat="50.86945" lon="1.5866">
        <ele>43.2</ele>
        <time>2020-06-22T19:35:23Z</time>
      </trkpt>
      <trkpt lat="50.86945" lon="1.58661">
        <ele>43.2</ele>
        <time>2020-06-22T19:35:24Z</time>
      </trkpt>
      <trkpt lat="50.86945" lon="1.58663">
        <ele>43.2</ele>
        <time>2020-06-22T19:35:25Z</time>
      </trkpt>
      <trkpt lat="50.86945" lon="1.58664">
        <ele>43.1</ele>
        <time>2020-06-22T19:35:26Z</time>
      </trkpt>
      <trkpt lat="50.86944" lon="1.58665">
        <ele>43.1</ele>
        <time>2020-06-22T19:35:27Z</time>
      </trkpt>
      <trkpt lat="50.86943" lon="1.58667">
        <ele>43.1</ele>
        <time>2020-06-22T19:35:28Z</time>
      </trkpt>
      <trkpt lat="50.86942" lon="1.58668">
        <ele>43.1</ele>
        <time>2020-06-22T19:35:29Z</time>
      </trkpt>
      <trkpt lat="50.86943" lon="1.58669">
        <ele>43.1</ele>
        <time>2020-06-22T19:35:30Z</time>
      </trkpt>
      <trkpt lat="50.86942" lon="1.5867">
        <ele>43.1</ele>
        <time>2020-06-22T19:35:31Z</time>
      </trkpt>
      <trkpt lat="50.86942" lon="1.58671">
        <ele>43.1</ele>
        <time>2020-06-22T19:35:32Z</time>
      </trkpt>
      <trkpt lat="50.86942" lon="1.58672">
        <ele>43.1</ele>
        <time>2020-06-22T19:35:33Z</time>
      </trkpt>
      <trkpt lat="50.86941" lon="1.58673">
        <ele>43.1</ele>
        <time>2020-06-22T19:35:34Z</time>
      </trkpt>
      <trkpt lat="50.86941" lon="1.58672">
        <ele>43.1</ele>
        <time>2020-06-22T19:35:35Z</time>
      </trkpt>
      <trkpt lat="50.86941" lon="1.58673">
        <ele>43.1</ele>
        <time>2020-06-22T19:35:36Z</time>
      </trkpt>
      <trkpt lat="50.86941" lon="1.58673">
        <ele>43.1</ele>
        <time>2020-06-22T19:35:37Z</time>
      </trkpt>
      <trkpt lat="50.86941" lon="1.58673">
        <ele>43.1</ele>
        <time>2020-06-22T19:35:38Z</time>
      </trkpt>
      <trkpt lat="50.8694" lon="1.58673">
        <ele>43.1</ele>
        <time>2020-06-22T19:35:39Z</time>
      </trkpt>
      <trkpt lat="50.8694" lon="1.58673">
        <ele>43.1</ele>
        <time>2020-06-22T19:35:40Z</time>
      </trkpt>
      <trkpt lat="50.8694" lon="1.58674">
        <ele>43.1</ele>
        <time>2020-06-22T19:35:41Z</time>
      </trkpt>
      <trkpt lat="50.8694" lon="1.58675">
        <ele>43.1</ele>
        <time>2020-06-22T19:35:42Z</time>
      </trkpt>
      <trkpt lat="50.8694" lon="1.58676">
        <ele>43.1</ele>
        <time>2020-06-22T19:35:43Z</time>
      </trkpt>
      <trkpt lat="50.86939" lon="1.58677">
        <ele>43.1</ele>
        <time>2020-06-22T19:35:44Z</time>
      </trkpt>
      <trkpt lat="50.86939" lon="1.58679">
        <ele>43.1</ele>
        <time>2020-06-22T19:35:45Z</time>
      </trkpt>
      <trkpt lat="50.86939" lon="1.5868">
        <ele>43.1</ele>
        <time>2020-06-22T19:35:46Z</time>
      </trkpt>
      <trkpt lat="50.86938" lon="1.58682">
        <ele>43.1</ele>
        <time>2020-06-22T19:35:47Z</time>
      </trkpt>
      <trkpt lat="50.86938" lon="1.58683">
        <ele>43.1</ele>
        <time>2020-06-22T19:35:48Z</time>
      </trkpt>
      <trkpt lat="50.86937" lon="1.58685">
        <ele>43</ele>
        <time>2020-06-22T19:35:49Z</time>
      </trkpt>
      <trkpt lat="50.86936" lon="1.58686">
        <ele>43</ele>
        <time>2020-06-22T19:35:50Z</time>
      </trkpt>
      <trkpt lat="50.86936" lon="1.58688">
        <ele>43</ele>
        <time>2020-06-22T19:35:51Z</time>
      </trkpt>
      <trkpt lat="50.86935" lon="1.58689">
        <ele>43</ele>
        <time>2020-06-22T19:35:52Z</time>
      </trkpt>
      <trkpt lat="50.86934" lon="1.58691">
        <ele>43</ele>
        <time>2020-06-22T19:35:53Z</time>
      </trkpt>
      <trkpt lat="50.86934" lon="1.58692">
        <ele>43</ele>
        <time>2020-06-22T19:35:54Z</time>
      </trkpt>
      <trkpt lat="50.86934" lon="1.58693">
        <ele>42.9</ele>
        <time>2020-06-22T19:35:55Z</time>
      </trkpt>
      <trkpt lat="50.86933" lon="1.58695">
        <ele>42.9</ele>
        <time>2020-06-22T19:35:56Z</time>
      </trkpt>
      <trkpt lat="50.86933" lon="1.58697">
        <ele>42.9</ele>
        <time>2020-06-22T19:35:57Z</time>
      </trkpt>
      <trkpt lat="50.86934" lon="1.587">
        <ele>42.9</ele>
        <time>2020-06-22T19:35:58Z</time>
      </trkpt>
      <trkpt lat="50.86934" lon="1.58702">
        <ele>42.9</ele>
        <time>2020-06-22T19:35:59Z</time>
      </trkpt>
      <trkpt lat="50.86935" lon="1.58705">
        <ele>42.7</ele>
        <time>2020-06-22T19:36:00Z</time>
      </trkpt>
      <trkpt lat="50.86935" lon="1.58706">
        <ele>42.7</ele>
        <time>2020-06-22T19:36:01Z</time>
      </trkpt>
      <trkpt lat="50.86935" lon="1.58707">
        <ele>42.7</ele>
        <time>2020-06-22T19:36:02Z</time>
      </trkpt>
      <trkpt lat="50.86936" lon="1.58708">
        <ele>42.7</ele>
        <time>2020-06-22T19:36:03Z</time>
      </trkpt>
      <trkpt lat="50.86936" lon="1.5871">
        <ele>42.7</ele>
        <time>2020-06-22T19:36:04Z</time>
      </trkpt>
      <trkpt lat="50.86937" lon="1.58711">
        <ele>42.7</ele>
        <time>2020-06-22T19:36:05Z</time>
      </trkpt>
      <trkpt lat="50.86937" lon="1.58712">
        <ele>42.7</ele>
        <time>2020-06-22T19:36:06Z</time>
      </trkpt>
      <trkpt lat="50.86938" lon="1.58713">
        <ele>42.8</ele>
        <time>2020-06-22T19:36:07Z</time>
      </trkpt>
      <trkpt lat="50.86938" lon="1.58715">
        <ele>42.8</ele>
        <time>2020-06-22T19:36:08Z</time>
      </trkpt>
      <trkpt lat="50.86939" lon="1.58717">
        <ele>42.8</ele>
        <time>2020-06-22T19:36:09Z</time>
      </trkpt>
      <trkpt lat="50.86939" lon="1.58718">
        <ele>42.8</ele>
        <time>2020-06-22T19:36:10Z</time>
      </trkpt>
      <trkpt lat="50.86939" lon="1.58719">
        <ele>42.8</ele>
        <time>2020-06-22T19:36:11Z</time>
      </trkpt>
      <trkpt lat="50.86939" lon="1.5872">
        <ele>42.8</ele>
        <time>2020-06-22T19:36:12Z</time>
      </trkpt>
      <trkpt lat="50.86939" lon="1.58722">
        <ele>42.8</ele>
        <time>2020-06-22T19:36:13Z</time>
      </trkpt>
      <trkpt lat="50.86938" lon="1.58723">
        <ele>42.8</ele>
        <time>2020-06-22T19:36:14Z</time>
      </trkpt>
      <trkpt lat="50.86937" lon="1.58724">
        <ele>42.8</ele>
        <time>2020-06-22T19:36:15Z</time>
      </trkpt>
      <trkpt lat="50.86935" lon="1.58726">
        <ele>42.8</ele>
        <time>2020-06-22T19:36:16Z</time>
      </trkpt>
      <trkpt lat="50.86935" lon="1.58726">
        <ele>42.8</ele>
        <time>2020-06-22T19:36:17Z</time>
      </trkpt>
      <trkpt lat="50.86934" lon="1.58727">
        <ele>42.8</ele>
        <time>2020-06-22T19:36:18Z</time>
      </trkpt>
      <trkpt lat="50.86933" lon="1.58727">
        <ele>42.8</ele>
        <time>2020-06-22T19:36:19Z</time>
      </trkpt>
      <trkpt lat="50.86931" lon="1.58727">
        <ele>42.9</ele>
        <time>2020-06-22T19:36:20Z</time>
      </trkpt>
      <trkpt lat="50.86931" lon="1.58727">
        <ele>42.9</ele>
        <time>2020-06-22T19:36:21Z</time>
      </trkpt>
      <trkpt lat="50.86929" lon="1.58728">
        <ele>42.9</ele>
        <time>2020-06-22T19:36:22Z</time>
      </trkpt>
      <trkpt lat="50.86928" lon="1.58729">
        <ele>42.9</ele>
        <time>2020-06-22T19:36:23Z</time>
      </trkpt>
      <trkpt lat="50.86928" lon="1.58729">
        <ele>42.9</ele>
        <time>2020-06-22T19:36:24Z</time>
      </trkpt>
      <trkpt lat="50.86926" lon="1.58728">
        <ele>43</ele>
        <time>2020-06-22T19:36:25Z</time>
      </trkpt>
      <trkpt lat="50.86925" lon="1.58728">
        <ele>43</ele>
        <time>2020-06-22T19:36:26Z</time>
      </trkpt>
      <trkpt lat="50.86924" lon="1.58728">
        <ele>43</ele>
        <time>2020-06-22T19:36:27Z</time>
      </trkpt>
      <trkpt lat="50.86922" lon="1.58728">
        <ele>43</ele>
        <time>2020-06-22T19:36:28Z</time>
      </trkpt>
      <trkpt lat="50.86921" lon="1.58727">
        <ele>43</ele>
        <time>2020-06-22T19:36:29Z</time>
      </trkpt>
      <trkpt lat="50.86919" lon="1.58727">
        <ele>43.1</ele>
        <time>2020-06-22T19:36:30Z</time>
      </trkpt>
      <trkpt lat="50.86918" lon="1.58727">
        <ele>43.1</ele>
        <time>2020-06-22T19:36:31Z</time>
      </trkpt>
      <trkpt lat="50.86917" lon="1.58727">
        <ele>43.1</ele>
        <time>2020-06-22T19:36:32Z</time>
      </trkpt>
      <trkpt lat="50.86915" lon="1.58726">
        <ele>43.1</ele>
        <time>2020-06-22T19:36:33Z</time>
      </trkpt>
      <trkpt lat="50.86914" lon="1.58726">
        <ele>43.2</ele>
        <time>2020-06-22T19:36:34Z</time>
      </trkpt>
      <trkpt lat="50.86913" lon="1.58726">
        <ele>43.2</ele>
        <time>2020-06-22T19:36:35Z</time>
      </trkpt>
      <trkpt lat="50.86911" lon="1.58726">
        <ele>43.2</ele>
        <time>2020-06-22T19:36:36Z</time>
      </trkpt>
      <trkpt lat="50.8691" lon="1.58726">
        <ele>43.2</ele>
        <time>2020-06-22T19:36:37Z</time>
      </trkpt>
      <trkpt lat="50.8691" lon="1.58726">
        <ele>43.2</ele>
        <time>2020-06-22T19:36:38Z</time>
      </trkpt>
      <trkpt lat="50.86908" lon="1.58725">
        <ele>43.3</ele>
        <time>2020-06-22T19:36:39Z</time>
      </trkpt>
      <trkpt lat="50.86907" lon="1.58726">
        <ele>43.3</ele>
        <time>2020-06-22T19:36:40Z</time>
      </trkpt>
      <trkpt lat="50.86906" lon="1.58725">
        <ele>43.3</ele>
        <time>2020-06-22T19:36:41Z</time>
      </trkpt>
      <trkpt lat="50.86906" lon="1.58725">
        <ele>43.3</ele>
        <time>2020-06-22T19:36:42Z</time>
      </trkpt>
      <trkpt lat="50.86906" lon="1.58725">
        <ele>43.3</ele>
        <time>2020-06-22T19:36:43Z</time>
      </trkpt>
      <trkpt lat="50.86905" lon="1.58724">
        <ele>43.3</ele>
        <time>2020-06-22T19:36:44Z</time>
      </trkpt>
      <trkpt lat="50.86904" lon="1.58724">
        <ele>43.3</ele>
        <time>2020-06-22T19:36:45Z</time>
      </trkpt>
      <trkpt lat="50.86904" lon="1.58724">
        <ele>43.3</ele>
        <time>2020-06-22T19:36:46Z</time>
      </trkpt>
      <trkpt lat="50.86903" lon="1.58723">
        <ele>43.3</ele>
        <time>2020-06-22T19:36:47Z</time>
      </trkpt>
      <trkpt lat="50.86903" lon="1.58722">
        <ele>43.4</ele>
        <time>2020-06-22T19:36:48Z</time>
      </trkpt>
      <trkpt lat="50.86902" lon="1.58722">
        <ele>43.4</ele>
        <time>2020-06-22T19:36:49Z</time>
      </trkpt>
      <trkpt lat="50.86902" lon="1.58721">
        <ele>43.4</ele>
        <time>2020-06-22T19:36:50Z</time>
      </trkpt>
      <trkpt lat="50.86902" lon="1.58719">
        <ele>43.4</ele>
        <time>2020-06-22T19:36:51Z</time>
      </trkpt>
      <trkpt lat="50.86902" lon="1.58719">
        <ele>43.4</ele>
        <time>2020-06-22T19:36:52Z</time>
      </trkpt>
      <trkpt lat="50.86902" lon="1.58718">
        <ele>43.4</ele>
        <time>2020-06-22T19:36:53Z</time>
      </trkpt>
      <trkpt lat="50.86902" lon="1.58718">
        <ele>43.4</ele>
        <time>2020-06-22T19:36:54Z</time>
      </trkpt>
      <trkpt lat="50.86902" lon="1.58718">
        <ele>43.4</ele>
        <time>2020-06-22T19:36:55Z</time>
      </trkpt>
      <trkpt lat="50.86901" lon="1.58718">
        <ele>43.4</ele>
        <time>2020-06-22T19:36:56Z</time>
      </trkpt>
      <trkpt lat="50.86901" lon="1.58718">
        <ele>43.4</ele>
        <time>2020-06-22T19:36:57Z</time>
      </trkpt>
      <trkpt lat="50.86901" lon="1.58718">
        <ele>43.4</ele>
        <time>2020-06-22T19:36:58Z</time>
      </trkpt>
      <trkpt lat="50.86901" lon="1.58717">
        <ele>43.4</ele>
        <time>2020-06-22T19:36:59Z</time>
      </trkpt>
      <trkpt lat="50.86901" lon="1.58717">
        <ele>43.4</ele>
        <time>2020-06-22T19:37:00Z</time>
      </trkpt>
      <trkpt lat="50.86901" lon="1.58718">
        <ele>43.4</ele>
        <time>2020-06-22T19:37:01Z</time>
      </trkpt>
      <trkpt lat="50.86901" lon="1.58718">
        <ele>43.4</ele>
        <time>2020-06-22T19:37:02Z</time>
      </trkpt>
      <trkpt lat="50.86901" lon="1.58718">
        <ele>43.4</ele>
        <time>2020-06-22T19:37:03Z</time>
      </trkpt>
      <trkpt lat="50.86901" lon="1.58718">
        <ele>43.4</ele>
        <time>2020-06-22T19:37:04Z</time>
      </trkpt>
      <trkpt lat="50.86901" lon="1.58718">
        <ele>43.4</ele>
        <time>2020-06-22T19:37:05Z</time>
      </trkpt>
      <trkpt lat="50.86901" lon="1.58717">
        <ele>43.4</ele>
        <time>2020-06-22T19:37:06Z</time>
      </trkpt>
      <trkpt lat="50.86901" lon="1.58717">
        <ele>43.4</ele>
        <time>2020-06-22T19:37:07Z</time>
      </trkpt>
      <trkpt lat="50.86901" lon="1.58717">
        <ele>43.4</ele>
        <time>2020-06-22T19:37:08Z</time>
      </trkpt>
      <trkpt lat="50.86901" lon="1.58717">
        <ele>43.4</ele>
        <time>2020-06-22T19:37:09Z</time>
      </trkpt>
      <trkpt lat="50.86901" lon="1.58718">
        <ele>43.4</ele>
        <time>2020-06-22T19:37:10Z</time>
      </trkpt>
      <trkpt lat="50.86895" lon="1.58717">
        <ele>43.5</ele>
        <time>2020-06-22T19:42:25Z</time>
      </trkpt>
      <trkpt lat="50.86893" lon="1.58717">
        <ele>43.5</ele>
        <time>2020-06-22T19:42:26Z</time>
      </trkpt>
      <trkpt lat="50.86891" lon="1.58716">
        <ele>43.5</ele>
        <time>2020-06-22T19:42:27Z</time>
      </trkpt>
      <trkpt lat="50.86887" lon="1.58713">
        <ele>43.6</ele>
        <time>2020-06-22T19:42:28Z</time>
      </trkpt>
      <trkpt lat="50.86884" lon="1.58709">
        <ele>43.6</ele>
        <time>2020-06-22T19:42:29Z</time>
      </trkpt>
      <trkpt lat="50.86879" lon="1.58707">
        <ele>43.6</ele>
        <time>2020-06-22T19:42:30Z</time>
      </trkpt>
      <trkpt lat="50.86875" lon="1.58704">
        <ele>43.6</ele>
        <time>2020-06-22T19:42:31Z</time>
      </trkpt>
      <trkpt lat="50.86871" lon="1.58703">
        <ele>43.6</ele>
        <time>2020-06-22T19:42:32Z</time>
      </trkpt>
      <trkpt lat="50.8687" lon="1.58703">
        <ele>43.7</ele>
        <time>2020-06-22T19:42:33Z</time>
      </trkpt>
      <trkpt lat="50.86867" lon="1.58701">
        <ele>43.7</ele>
        <time>2020-06-22T19:42:34Z</time>
      </trkpt>
      <trkpt lat="50.86864" lon="1.58699">
        <ele>43.6</ele>
        <time>2020-06-22T19:42:35Z</time>
      </trkpt>
      <trkpt lat="50.8686" lon="1.58698">
        <ele>43.6</ele>
        <time>2020-06-22T19:42:36Z</time>
      </trkpt>
      <trkpt lat="50.86856" lon="1.58696">
        <ele>43.6</ele>
        <time>2020-06-22T19:42:37Z</time>
      </trkpt>
      <trkpt lat="50.86853" lon="1.58694">
        <ele>43.6</ele>
        <time>2020-06-22T19:42:38Z</time>
      </trkpt>
      <trkpt lat="50.86849" lon="1.58692">
        <ele>43.5</ele>
        <time>2020-06-22T19:42:39Z</time>
      </trkpt>
      <trkpt lat="50.86845" lon="1.5869">
        <ele>43.5</ele>
        <time>2020-06-22T19:42:40Z</time>
      </trkpt>
      <trkpt lat="50.86842" lon="1.58687">
        <ele>43.4</ele>
        <time>2020-06-22T19:42:41Z</time>
      </trkpt>
      <trkpt lat="50.86839" lon="1.58685">
        <ele>43.4</ele>
        <time>2020-06-22T19:42:42Z</time>
      </trkpt>
      <trkpt lat="50.86835" lon="1.58683">
        <ele>43.4</ele>
        <time>2020-06-22T19:42:43Z</time>
      </trkpt>
      <trkpt lat="50.86831" lon="1.5868">
        <ele>43.3</ele>
        <time>2020-06-22T19:42:44Z</time>
      </trkpt>
      <trkpt lat="50.86827" lon="1.58677">
        <ele>43.3</ele>
        <time>2020-06-22T19:42:45Z</time>
      </trkpt>
      <trkpt lat="50.86824" lon="1.58674">
        <ele>43.2</ele>
        <time>2020-06-22T19:42:46Z</time>
      </trkpt>
      <trkpt lat="50.86819" lon="1.5867">
        <ele>42.9</ele>
        <time>2020-06-22T19:42:47Z</time>
      </trkpt>
      <trkpt lat="50.86815" lon="1.58665">
        <ele>42.6</ele>
        <time>2020-06-22T19:42:48Z</time>
      </trkpt>
      <trkpt lat="50.86811" lon="1.58662">
        <ele>42.3</ele>
        <time>2020-06-22T19:42:49Z</time>
      </trkpt>
      <trkpt lat="50.86806" lon="1.58658">
        <ele>42.1</ele>
        <time>2020-06-22T19:42:50Z</time>
      </trkpt>
      <trkpt lat="50.86802" lon="1.58654">
        <ele>41.7</ele>
        <time>2020-06-22T19:42:51Z</time>
      </trkpt>
      <trkpt lat="50.86796" lon="1.5865">
        <ele>41.4</ele>
        <time>2020-06-22T19:42:52Z</time>
      </trkpt>
      <trkpt lat="50.86791" lon="1.58645">
        <ele>41</ele>
        <time>2020-06-22T19:42:53Z</time>
      </trkpt>
      <trkpt lat="50.86788" lon="1.58638">
        <ele>40.6</ele>
        <time>2020-06-22T19:42:54Z</time>
      </trkpt>
      <trkpt lat="50.86783" lon="1.5863">
        <ele>40.1</ele>
        <time>2020-06-22T19:42:55Z</time>
      </trkpt>
      <trkpt lat="50.86777" lon="1.58624">
        <ele>39.6</ele>
        <time>2020-06-22T19:42:56Z</time>
      </trkpt>
      <trkpt lat="50.86769" lon="1.5862">
        <ele>39.1</ele>
        <time>2020-06-22T19:42:57Z</time>
      </trkpt>
      <trkpt lat="50.86761" lon="1.58624">
        <ele>38.4</ele>
        <time>2020-06-22T19:42:58Z</time>
      </trkpt>
      <trkpt lat="50.86754" lon="1.58631">
        <ele>37.8</ele>
        <time>2020-06-22T19:42:59Z</time>
      </trkpt>
      <trkpt lat="50.8675" lon="1.58642">
        <ele>37.2</ele>
        <time>2020-06-22T19:43:00Z</time>
      </trkpt>
      <trkpt lat="50.86747" lon="1.58654">
        <ele>36.5</ele>
        <time>2020-06-22T19:43:01Z</time>
      </trkpt>
      <trkpt lat="50.86748" lon="1.58667">
        <ele>35.8</ele>
        <time>2020-06-22T19:43:02Z</time>
      </trkpt>
      <trkpt lat="50.86752" lon="1.58678">
        <ele>35.2</ele>
        <time>2020-06-22T19:43:03Z</time>
      </trkpt>
      <trkpt lat="50.86757" lon="1.58689">
        <ele>34.5</ele>
        <time>2020-06-22T19:43:04Z</time>
      </trkpt>
      <trkpt lat="50.86762" lon="1.58699">
        <ele>33.9</ele>
        <time>2020-06-22T19:43:05Z</time>
      </trkpt>
      <trkpt lat="50.86767" lon="1.5871">
        <ele>33.3</ele>
        <time>2020-06-22T19:43:06Z</time>
      </trkpt>
      <trkpt lat="50.86772" lon="1.58721">
        <ele>32.7</ele>
        <time>2020-06-22T19:43:07Z</time>
      </trkpt>
      <trkpt lat="50.86778" lon="1.58732">
        <ele>32</ele>
        <time>2020-06-22T19:43:08Z</time>
      </trkpt>
      <trkpt lat="50.86781" lon="1.58746">
        <ele>31.4</ele>
        <time>2020-06-22T19:43:09Z</time>
      </trkpt>
      <trkpt lat="50.86783" lon="1.5876">
        <ele>30.7</ele>
        <time>2020-06-22T19:43:10Z</time>
      </trkpt>
      <trkpt lat="50.86781" lon="1.58774">
        <ele>30.1</ele>
        <time>2020-06-22T19:43:11Z</time>
      </trkpt>
      <trkpt lat="50.86776" lon="1.58786">
        <ele>29.3</ele>
        <time>2020-06-22T19:43:12Z</time>
      </trkpt>
      <trkpt lat="50.86771" lon="1.58798">
        <ele>28.5</ele>
        <time>2020-06-22T19:43:13Z</time>
      </trkpt>
      <trkpt lat="50.86764" lon="1.58809">
        <ele>27.7</ele>
        <time>2020-06-22T19:43:14Z</time>
      </trkpt>
      <trkpt lat="50.86757" lon="1.5882">
        <ele>27</ele>
        <time>2020-06-22T19:43:15Z</time>
      </trkpt>
      <trkpt lat="50.86751" lon="1.58832">
        <ele>26.5</ele>
        <time>2020-06-22T19:43:16Z</time>
      </trkpt>
      <trkpt lat="50.86744" lon="1.58843">
        <ele>26.1</ele>
        <time>2020-06-22T19:43:17Z</time>
      </trkpt>
      <trkpt lat="50.86737" lon="1.58854">
        <ele>25.8</ele>
        <time>2020-06-22T19:43:18Z</time>
      </trkpt>
      <trkpt lat="50.86731" lon="1.58865">
        <ele>25.7</ele>
        <time>2020-06-22T19:43:19Z</time>
      </trkpt>
      <trkpt lat="50.86724" lon="1.58876">
        <ele>25.7</ele>
        <time>2020-06-22T19:43:20Z</time>
      </trkpt>
      <trkpt lat="50.86718" lon="1.58886">
        <ele>25.7</ele>
        <time>2020-06-22T19:43:21Z</time>
      </trkpt>
      <trkpt lat="50.86713" lon="1.58895">
        <ele>25.8</ele>
        <time>2020-06-22T19:43:22Z</time>
      </trkpt>
      <trkpt lat="50.86708" lon="1.58904">
        <ele>26.1</ele>
        <time>2020-06-22T19:43:23Z</time>
      </trkpt>
      <trkpt lat="50.86703" lon="1.58911">
        <ele>26.4</ele>
        <time>2020-06-22T19:43:24Z</time>
      </trkpt>
      <trkpt lat="50.86698" lon="1.58918">
        <ele>27.1</ele>
        <time>2020-06-22T19:43:25Z</time>
      </trkpt>
      <trkpt lat="50.86693" lon="1.58923">
        <ele>27.5</ele>
        <time>2020-06-22T19:43:26Z</time>
      </trkpt>
      <trkpt lat="50.86688" lon="1.58927">
        <ele>27.9</ele>
        <time>2020-06-22T19:43:27Z</time>
      </trkpt>
      <trkpt lat="50.86684" lon="1.58931">
        <ele>28.3</ele>
        <time>2020-06-22T19:43:28Z</time>
      </trkpt>
      <trkpt lat="50.86679" lon="1.58934">
        <ele>28.7</ele>
        <time>2020-06-22T19:43:29Z</time>
      </trkpt>
      <trkpt lat="50.86675" lon="1.58937">
        <ele>29.1</ele>
        <time>2020-06-22T19:43:30Z</time>
      </trkpt>
      <trkpt lat="50.86671" lon="1.58939">
        <ele>29.4</ele>
        <time>2020-06-22T19:43:31Z</time>
      </trkpt>
      <trkpt lat="50.86668" lon="1.58942">
        <ele>29.6</ele>
        <time>2020-06-22T19:43:32Z</time>
      </trkpt>
      <trkpt lat="50.86665" lon="1.58944">
        <ele>29.9</ele>
        <time>2020-06-22T19:43:33Z</time>
      </trkpt>
      <trkpt lat="50.86661" lon="1.58946">
        <ele>30.2</ele>
        <time>2020-06-22T19:43:34Z</time>
      </trkpt>
      <trkpt lat="50.8666" lon="1.58946">
        <ele>30.3</ele>
        <time>2020-06-22T19:43:35Z</time>
      </trkpt>
      <trkpt lat="50.86659" lon="1.58947">
        <ele>30.4</ele>
        <time>2020-06-22T19:43:36Z</time>
      </trkpt>
      <trkpt lat="50.86657" lon="1.58948">
        <ele>30.6</ele>
        <time>2020-06-22T19:43:37Z</time>
      </trkpt>
      <trkpt lat="50.86656" lon="1.58949">
        <ele>30.7</ele>
        <time>2020-06-22T19:43:38Z</time>
      </trkpt>
      <trkpt lat="50.86655" lon="1.58951">
        <ele>30.8</ele>
        <time>2020-06-22T19:43:39Z</time>
      </trkpt>
      <trkpt lat="50.86656" lon="1.58952">
        <ele>30.8</ele>
        <time>2020-06-22T19:43:40Z</time>
      </trkpt>
      <trkpt lat="50.86656" lon="1.58953">
        <ele>30.9</ele>
        <time>2020-06-22T19:43:41Z</time>
      </trkpt>
      <trkpt lat="50.86658" lon="1.58953">
        <ele>31.1</ele>
        <time>2020-06-22T19:43:42Z</time>
      </trkpt>
      <trkpt lat="50.86661" lon="1.58951">
        <ele>31.3</ele>
        <time>2020-06-22T19:43:43Z</time>
      </trkpt>
      <trkpt lat="50.86663" lon="1.58949">
        <ele>31.6</ele>
        <time>2020-06-22T19:43:44Z</time>
      </trkpt>
      <trkpt lat="50.86663" lon="1.58946">
        <ele>31.7</ele>
        <time>2020-06-22T19:43:45Z</time>
      </trkpt>
      <trkpt lat="50.86663" lon="1.58944">
        <ele>31.8</ele>
        <time>2020-06-22T19:43:46Z</time>
      </trkpt>
      <trkpt lat="50.86663" lon="1.58943">
        <ele>31.8</ele>
        <time>2020-06-22T19:43:47Z</time>
      </trkpt>
      <trkpt lat="50.86663" lon="1.58943">
        <ele>31.9</ele>
        <time>2020-06-22T19:43:48Z</time>
      </trkpt>
      <trkpt lat="50.86664" lon="1.58942">
        <ele>31.9</ele>
        <time>2020-06-22T19:43:49Z</time>
      </trkpt>
      <trkpt lat="50.86664" lon="1.58942">
        <ele>31.9</ele>
        <time>2020-06-22T19:43:50Z</time>
      </trkpt>
      <trkpt lat="50.86664" lon="1.58942">
        <ele>32</ele>
        <time>2020-06-22T19:43:51Z</time>
      </trkpt>
      <trkpt lat="50.86663" lon="1.58943">
        <ele>32</ele>
        <time>2020-06-22T19:43:52Z</time>
      </trkpt>
      <trkpt lat="50.86663" lon="1.58944">
        <ele>32.1</ele>
        <time>2020-06-22T19:43:53Z</time>
      </trkpt>
      <trkpt lat="50.86663" lon="1.58943">
        <ele>32.1</ele>
        <time>2020-06-22T19:43:54Z</time>
      </trkpt>
      <trkpt lat="50.86662" lon="1.58944">
        <ele>32.1</ele>
        <time>2020-06-22T19:43:55Z</time>
      </trkpt>
      <trkpt lat="50.86662" lon="1.58944">
        <ele>32.2</ele>
        <time>2020-06-22T19:43:56Z</time>
      </trkpt>
      <trkpt lat="50.86662" lon="1.58945">
        <ele>32.2</ele>
        <time>2020-06-22T19:43:57Z</time>
      </trkpt>
      <trkpt lat="50.86662" lon="1.58944">
        <ele>32.2</ele>
        <time>2020-06-22T19:43:58Z</time>
      </trkpt>
      <trkpt lat="50.86661" lon="1.58945">
        <ele>32.3</ele>
        <time>2020-06-22T19:43:59Z</time>
      </trkpt>
      <trkpt lat="50.86662" lon="1.58945">
        <ele>32.3</ele>
        <time>2020-06-22T19:44:00Z</time>
      </trkpt>
      <trkpt lat="50.86662" lon="1.58944">
        <ele>32.3</ele>
        <time>2020-06-22T19:44:01Z</time>
      </trkpt>
      <trkpt lat="50.86658" lon="1.58944">
        <ele>32.6</ele>
        <time>2020-06-22T19:44:15Z</time>
      </trkpt>
      <trkpt lat="50.86657" lon="1.58944">
        <ele>32.7</ele>
        <time>2020-06-22T19:44:16Z</time>
      </trkpt>
      <trkpt lat="50.86656" lon="1.58945">
        <ele>32.8</ele>
        <time>2020-06-22T19:44:17Z</time>
      </trkpt>
      <trkpt lat="50.86655" lon="1.58947">
        <ele>32.9</ele>
        <time>2020-06-22T19:44:18Z</time>
      </trkpt>
      <trkpt lat="50.86655" lon="1.58947">
        <ele>33</ele>
        <time>2020-06-22T19:44:19Z</time>
      </trkpt>
      <trkpt lat="50.86654" lon="1.58948">
        <ele>33</ele>
        <time>2020-06-22T19:44:20Z</time>
      </trkpt>
      <trkpt lat="50.86653" lon="1.58948">
        <ele>33.1</ele>
        <time>2020-06-22T19:44:21Z</time>
      </trkpt>
      <trkpt lat="50.86651" lon="1.5895">
        <ele>33.2</ele>
        <time>2020-06-22T19:44:22Z</time>
      </trkpt>
      <trkpt lat="50.8665" lon="1.5895">
        <ele>33.3</ele>
        <time>2020-06-22T19:44:23Z</time>
      </trkpt>
      <trkpt lat="50.86649" lon="1.58951">
        <ele>33.4</ele>
        <time>2020-06-22T19:44:24Z</time>
      </trkpt>
      <trkpt lat="50.86648" lon="1.58953">
        <ele>33.5</ele>
        <time>2020-06-22T19:44:25Z</time>
      </trkpt>
      <trkpt lat="50.86647" lon="1.58954">
        <ele>33.6</ele>
        <time>2020-06-22T19:44:26Z</time>
      </trkpt>
      <trkpt lat="50.86644" lon="1.58955">
        <ele>33.8</ele>
        <time>2020-06-22T19:44:27Z</time>
      </trkpt>
      <trkpt lat="50.86643" lon="1.58955">
        <ele>33.9</ele>
        <time>2020-06-22T19:44:28Z</time>
      </trkpt>
      <trkpt lat="50.8664" lon="1.58956">
        <ele>34.1</ele>
        <time>2020-06-22T19:44:29Z</time>
      </trkpt>
      <trkpt lat="50.86639" lon="1.58956">
        <ele>34.2</ele>
        <time>2020-06-22T19:44:30Z</time>
      </trkpt>
      <trkpt lat="50.86636" lon="1.58958">
        <ele>34.4</ele>
        <time>2020-06-22T19:44:31Z</time>
      </trkpt>
      <trkpt lat="50.86634" lon="1.58958">
        <ele>34.5</ele>
        <time>2020-06-22T19:44:32Z</time>
      </trkpt>
      <trkpt lat="50.86632" lon="1.5896">
        <ele>34.7</ele>
        <time>2020-06-22T19:44:33Z</time>
      </trkpt>
      <trkpt lat="50.86629" lon="1.58962">
        <ele>34.9</ele>
        <time>2020-06-22T19:44:34Z</time>
      </trkpt>
      <trkpt lat="50.86626" lon="1.58963">
        <ele>35.1</ele>
        <time>2020-06-22T19:44:35Z</time>
      </trkpt>
      <trkpt lat="50.86623" lon="1.58964">
        <ele>35.4</ele>
        <time>2020-06-22T19:44:36Z</time>
      </trkpt>
      <trkpt lat="50.8662" lon="1.58966">
        <ele>35.6</ele>
        <time>2020-06-22T19:44:37Z</time>
      </trkpt>
      <trkpt lat="50.86617" lon="1.58967">
        <ele>35.9</ele>
        <time>2020-06-22T19:44:38Z</time>
      </trkpt>
      <trkpt lat="50.86615" lon="1.58968">
        <ele>36</ele>
        <time>2020-06-22T19:44:39Z</time>
      </trkpt>
      <trkpt lat="50.86613" lon="1.5897">
        <ele>36.2</ele>
        <time>2020-06-22T19:44:40Z</time>
      </trkpt>
      <trkpt lat="50.86609" lon="1.58971">
        <ele>36.5</ele>
        <time>2020-06-22T19:44:41Z</time>
      </trkpt>
      <trkpt lat="50.86606" lon="1.58972">
        <ele>36.7</ele>
        <time>2020-06-22T19:44:42Z</time>
      </trkpt>
      <trkpt lat="50.86603" lon="1.58974">
        <ele>36.9</ele>
        <time>2020-06-22T19:44:43Z</time>
      </trkpt>
      <trkpt lat="50.866" lon="1.58976">
        <ele>37.2</ele>
        <time>2020-06-22T19:44:44Z</time>
      </trkpt>
      <trkpt lat="50.86597" lon="1.58978">
        <ele>37.4</ele>
        <time>2020-06-22T19:44:45Z</time>
      </trkpt>
      <trkpt lat="50.86594" lon="1.58979">
        <ele>37.6</ele>
        <time>2020-06-22T19:44:46Z</time>
      </trkpt>
      <trkpt lat="50.86591" lon="1.5898">
        <ele>37.8</ele>
        <time>2020-06-22T19:44:47Z</time>
      </trkpt>
      <trkpt lat="50.86587" lon="1.58983">
        <ele>38.1</ele>
        <time>2020-06-22T19:44:48Z</time>
      </trkpt>
      <trkpt lat="50.86586" lon="1.58984">
        <ele>38.2</ele>
        <time>2020-06-22T19:44:49Z</time>
      </trkpt>
      <trkpt lat="50.86582" lon="1.58985">
        <ele>38.4</ele>
        <time>2020-06-22T19:44:50Z</time>
      </trkpt>
      <trkpt lat="50.86579" lon="1.58986">
        <ele>38.6</ele>
        <time>2020-06-22T19:44:51Z</time>
      </trkpt>
      <trkpt lat="50.86576" lon="1.58987">
        <ele>38.8</ele>
        <time>2020-06-22T19:44:52Z</time>
      </trkpt>
      <trkpt lat="50.86573" lon="1.58988">
        <ele>39</ele>
        <time>2020-06-22T19:44:53Z</time>
      </trkpt>
      <trkpt lat="50.8657" lon="1.58991">
        <ele>39.3</ele>
        <time>2020-06-22T19:44:54Z</time>
      </trkpt>
      <trkpt lat="50.86567" lon="1.58992">
        <ele>39.4</ele>
        <time>2020-06-22T19:44:55Z</time>
      </trkpt>
      <trkpt lat="50.86565" lon="1.58995">
        <ele>39.6</ele>
        <time>2020-06-22T19:44:56Z</time>
      </trkpt>
      <trkpt lat="50.86561" lon="1.58996">
        <ele>39.9</ele>
        <time>2020-06-22T19:44:57Z</time>
      </trkpt>
      <trkpt lat="50.8656" lon="1.58997">
        <ele>39.9</ele>
        <time>2020-06-22T19:44:58Z</time>
      </trkpt>
      <trkpt lat="50.86557" lon="1.58998">
        <ele>40.1</ele>
        <time>2020-06-22T19:44:59Z</time>
      </trkpt>
      <trkpt lat="50.86554" lon="1.59">
        <ele>40.3</ele>
        <time>2020-06-22T19:45:00Z</time>
      </trkpt>
      <trkpt lat="50.86551" lon="1.59002">
        <ele>40.5</ele>
        <time>2020-06-22T19:45:01Z</time>
      </trkpt>
      <trkpt lat="50.86548" lon="1.59004">
        <ele>40.6</ele>
        <time>2020-06-22T19:45:02Z</time>
      </trkpt>
      <trkpt lat="50.86545" lon="1.59004">
        <ele>40.8</ele>
        <time>2020-06-22T19:45:03Z</time>
      </trkpt>
      <trkpt lat="50.86542" lon="1.59006">
        <ele>41</ele>
        <time>2020-06-22T19:45:04Z</time>
      </trkpt>
      <trkpt lat="50.86538" lon="1.59008">
        <ele>41.2</ele>
        <time>2020-06-22T19:45:05Z</time>
      </trkpt>
      <trkpt lat="50.86535" lon="1.59009">
        <ele>41.4</ele>
        <time>2020-06-22T19:45:06Z</time>
      </trkpt>
      <trkpt lat="50.86531" lon="1.5901">
        <ele>41.6</ele>
        <time>2020-06-22T19:45:07Z</time>
      </trkpt>
      <trkpt lat="50.86528" lon="1.59012">
        <ele>41.7</ele>
        <time>2020-06-22T19:45:08Z</time>
      </trkpt>
      <trkpt lat="50.86525" lon="1.59014">
        <ele>41.9</ele>
        <time>2020-06-22T19:45:09Z</time>
      </trkpt>
      <trkpt lat="50.86522" lon="1.59016">
        <ele>42</ele>
        <time>2020-06-22T19:45:10Z</time>
      </trkpt>
      <trkpt lat="50.8652" lon="1.59017">
        <ele>42</ele>
        <time>2020-06-22T19:45:11Z</time>
      </trkpt>
      <trkpt lat="50.86517" lon="1.59018">
        <ele>42</ele>
        <time>2020-06-22T19:45:12Z</time>
      </trkpt>
      <trkpt lat="50.86515" lon="1.59018">
        <ele>42</ele>
        <time>2020-06-22T19:45:13Z</time>
      </trkpt>
      <trkpt lat="50.86513" lon="1.5902">
        <ele>42.1</ele>
        <time>2020-06-22T19:45:14Z</time>
      </trkpt>
      <trkpt lat="50.8651" lon="1.59023">
        <ele>42</ele>
        <time>2020-06-22T19:45:15Z</time>
      </trkpt>
      <trkpt lat="50.86509" lon="1.59023">
        <ele>42</ele>
        <time>2020-06-22T19:45:16Z</time>
      </trkpt>
      <trkpt lat="50.86506" lon="1.59025">
        <ele>41.9</ele>
        <time>2020-06-22T19:45:17Z</time>
      </trkpt>
      <trkpt lat="50.86504" lon="1.59026">
        <ele>41.9</ele>
        <time>2020-06-22T19:45:18Z</time>
      </trkpt>
      <trkpt lat="50.86501" lon="1.59027">
        <ele>41.8</ele>
        <time>2020-06-22T19:45:19Z</time>
      </trkpt>
      <trkpt lat="50.86499" lon="1.59027">
        <ele>41.8</ele>
        <time>2020-06-22T19:45:20Z</time>
      </trkpt>
      <trkpt lat="50.86497" lon="1.59028">
        <ele>41.7</ele>
        <time>2020-06-22T19:45:21Z</time>
      </trkpt>
      <trkpt lat="50.86494" lon="1.5903">
        <ele>41.7</ele>
        <time>2020-06-22T19:45:22Z</time>
      </trkpt>
      <trkpt lat="50.86491" lon="1.59031">
        <ele>41.5</ele>
        <time>2020-06-22T19:45:23Z</time>
      </trkpt>
      <trkpt lat="50.86487" lon="1.59032">
        <ele>41.4</ele>
        <time>2020-06-22T19:45:24Z</time>
      </trkpt>
      <trkpt lat="50.86484" lon="1.59034">
        <ele>41.2</ele>
        <time>2020-06-22T19:45:25Z</time>
      </trkpt>
      <trkpt lat="50.8648" lon="1.59035">
        <ele>41</ele>
        <time>2020-06-22T19:45:26Z</time>
      </trkpt>
      <trkpt lat="50.86476" lon="1.59036">
        <ele>40.8</ele>
        <time>2020-06-22T19:45:27Z</time>
      </trkpt>
      <trkpt lat="50.86473" lon="1.59035">
        <ele>40.7</ele>
        <time>2020-06-22T19:45:28Z</time>
      </trkpt>
      <trkpt lat="50.8647" lon="1.59033">
        <ele>40.5</ele>
        <time>2020-06-22T19:45:29Z</time>
      </trkpt>
      <trkpt lat="50.86467" lon="1.59031">
        <ele>40.3</ele>
        <time>2020-06-22T19:45:30Z</time>
      </trkpt>
      <trkpt lat="50.86464" lon="1.5903">
        <ele>40.1</ele>
        <time>2020-06-22T19:45:31Z</time>
      </trkpt>
      <trkpt lat="50.8646" lon="1.5903">
        <ele>39.9</ele>
        <time>2020-06-22T19:45:32Z</time>
      </trkpt>
      <trkpt lat="50.86456" lon="1.5903">
        <ele>39.6</ele>
        <time>2020-06-22T19:45:33Z</time>
      </trkpt>
      <trkpt lat="50.86453" lon="1.5903">
        <ele>39.4</ele>
        <time>2020-06-22T19:45:34Z</time>
      </trkpt>
      <trkpt lat="50.86448" lon="1.59029">
        <ele>39.1</ele>
        <time>2020-06-22T19:45:35Z</time>
      </trkpt>
      <trkpt lat="50.86444" lon="1.59029">
        <ele>38.9</ele>
        <time>2020-06-22T19:45:36Z</time>
      </trkpt>
      <trkpt lat="50.8644" lon="1.59029">
        <ele>38.7</ele>
        <time>2020-06-22T19:45:37Z</time>
      </trkpt>
      <trkpt lat="50.86434" lon="1.59031">
        <ele>38.5</ele>
        <time>2020-06-22T19:45:38Z</time>
      </trkpt>
      <trkpt lat="50.86429" lon="1.59036">
        <ele>38.3</ele>
        <time>2020-06-22T19:45:39Z</time>
      </trkpt>
      <trkpt lat="50.86425" lon="1.59043">
        <ele>38.2</ele>
        <time>2020-06-22T19:45:40Z</time>
      </trkpt>
      <trkpt lat="50.86421" lon="1.59051">
        <ele>38</ele>
        <time>2020-06-22T19:45:41Z</time>
      </trkpt>
      <trkpt lat="50.86418" lon="1.59059">
        <ele>37.7</ele>
        <time>2020-06-22T19:45:42Z</time>
      </trkpt>
      <trkpt lat="50.86414" lon="1.5907">
        <ele>37.5</ele>
        <time>2020-06-22T19:45:43Z</time>
      </trkpt>
      <trkpt lat="50.86411" lon="1.59081">
        <ele>37.3</ele>
        <time>2020-06-22T19:45:44Z</time>
      </trkpt>
      <trkpt lat="50.86408" lon="1.59091">
        <ele>37.1</ele>
        <time>2020-06-22T19:45:45Z</time>
      </trkpt>
      <trkpt lat="50.86405" lon="1.591">
        <ele>37</ele>
        <time>2020-06-22T19:45:46Z</time>
      </trkpt>
      <trkpt lat="50.86402" lon="1.59109">
        <ele>37</ele>
        <time>2020-06-22T19:45:47Z</time>
      </trkpt>
      <trkpt lat="50.86398" lon="1.59118">
        <ele>37.1</ele>
        <time>2020-06-22T19:45:48Z</time>
      </trkpt>
      <trkpt lat="50.86396" lon="1.59127">
        <ele>37.3</ele>
        <time>2020-06-22T19:45:49Z</time>
      </trkpt>
      <trkpt lat="50.86393" lon="1.59134">
        <ele>37.4</ele>
        <time>2020-06-22T19:45:50Z</time>
      </trkpt>
      <trkpt lat="50.8639" lon="1.59143">
        <ele>37.7</ele>
        <time>2020-06-22T19:45:51Z</time>
      </trkpt>
      <trkpt lat="50.86388" lon="1.59152">
        <ele>37.9</ele>
        <time>2020-06-22T19:45:52Z</time>
      </trkpt>
      <trkpt lat="50.86385" lon="1.59159">
        <ele>38.1</ele>
        <time>2020-06-22T19:45:53Z</time>
      </trkpt>
      <trkpt lat="50.86383" lon="1.59165">
        <ele>38.3</ele>
        <time>2020-06-22T19:45:54Z</time>
      </trkpt>
      <trkpt lat="50.8638" lon="1.59172">
        <ele>38.5</ele>
        <time>2020-06-22T19:45:55Z</time>
      </trkpt>
      <trkpt lat="50.86376" lon="1.59178">
        <ele>38.7</ele>
        <time>2020-06-22T19:45:56Z</time>
      </trkpt>
      <trkpt lat="50.86373" lon="1.59182">
        <ele>38.8</ele>
        <time>2020-06-22T19:45:57Z</time>
      </trkpt>
      <trkpt lat="50.8637" lon="1.59186">
        <ele>38.9</ele>
        <time>2020-06-22T19:45:58Z</time>
      </trkpt>
      <trkpt lat="50.86365" lon="1.59189">
        <ele>39.1</ele>
        <time>2020-06-22T19:45:59Z</time>
      </trkpt>
      <trkpt lat="50.86359" lon="1.59191">
        <ele>39.3</ele>
        <time>2020-06-22T19:46:00Z</time>
      </trkpt>
      <trkpt lat="50.86353" lon="1.59192">
        <ele>39.5</ele>
        <time>2020-06-22T19:46:01Z</time>
      </trkpt>
      <trkpt lat="50.86349" lon="1.59191">
        <ele>39.7</ele>
        <time>2020-06-22T19:46:02Z</time>
      </trkpt>
      <trkpt lat="50.86344" lon="1.59192">
        <ele>39.9</ele>
        <time>2020-06-22T19:46:03Z</time>
      </trkpt>
      <trkpt lat="50.86339" lon="1.59192">
        <ele>40.2</ele>
        <time>2020-06-22T19:46:04Z</time>
      </trkpt>
      <trkpt lat="50.86334" lon="1.5919">
        <ele>40.5</ele>
        <time>2020-06-22T19:46:05Z</time>
      </trkpt>
      <trkpt lat="50.86329" lon="1.59187">
        <ele>40.8</ele>
        <time>2020-06-22T19:46:06Z</time>
      </trkpt>
      <trkpt lat="50.86324" lon="1.59184">
        <ele>41.1</ele>
        <time>2020-06-22T19:46:07Z</time>
      </trkpt>
      <trkpt lat="50.8632" lon="1.5918">
        <ele>41.4</ele>
        <time>2020-06-22T19:46:08Z</time>
      </trkpt>
      <trkpt lat="50.86316" lon="1.59176">
        <ele>41.7</ele>
        <time>2020-06-22T19:46:09Z</time>
      </trkpt>
      <trkpt lat="50.86311" lon="1.59173">
        <ele>42</ele>
        <time>2020-06-22T19:46:10Z</time>
      </trkpt>
      <trkpt lat="50.86307" lon="1.59169">
        <ele>42.3</ele>
        <time>2020-06-22T19:46:11Z</time>
      </trkpt>
      <trkpt lat="50.86303" lon="1.59167">
        <ele>42.5</ele>
        <time>2020-06-22T19:46:12Z</time>
      </trkpt>
      <trkpt lat="50.86299" lon="1.59165">
        <ele>42.8</ele>
        <time>2020-06-22T19:46:13Z</time>
      </trkpt>
      <trkpt lat="50.86294" lon="1.59162">
        <ele>43</ele>
        <time>2020-06-22T19:46:14Z</time>
      </trkpt>
      <trkpt lat="50.86288" lon="1.59159">
        <ele>43.3</ele>
        <time>2020-06-22T19:46:15Z</time>
      </trkpt>
      <trkpt lat="50.86284" lon="1.59157">
        <ele>43.6</ele>
        <time>2020-06-22T19:46:16Z</time>
      </trkpt>
      <trkpt lat="50.8628" lon="1.59156">
        <ele>43.8</ele>
        <time>2020-06-22T19:46:17Z</time>
      </trkpt>
      <trkpt lat="50.86275" lon="1.59154">
        <ele>44</ele>
        <time>2020-06-22T19:46:18Z</time>
      </trkpt>
      <trkpt lat="50.86271" lon="1.59152">
        <ele>44.3</ele>
        <time>2020-06-22T19:46:19Z</time>
      </trkpt>
      <trkpt lat="50.86266" lon="1.59152">
        <ele>44.5</ele>
        <time>2020-06-22T19:46:20Z</time>
      </trkpt>
      <trkpt lat="50.86261" lon="1.59152">
        <ele>44.8</ele>
        <time>2020-06-22T19:46:21Z</time>
      </trkpt>
      <trkpt lat="50.86256" lon="1.59152">
        <ele>45.1</ele>
        <time>2020-06-22T19:46:22Z</time>
      </trkpt>
      <trkpt lat="50.8625" lon="1.59151">
        <ele>45.4</ele>
        <time>2020-06-22T19:46:23Z</time>
      </trkpt>
      <trkpt lat="50.86245" lon="1.5915">
        <ele>45.6</ele>
        <time>2020-06-22T19:46:24Z</time>
      </trkpt>
      <trkpt lat="50.8624" lon="1.59151">
        <ele>45.9</ele>
        <time>2020-06-22T19:46:25Z</time>
      </trkpt>
      <trkpt lat="50.86235" lon="1.59153">
        <ele>46.2</ele>
        <time>2020-06-22T19:46:26Z</time>
      </trkpt>
      <trkpt lat="50.8623" lon="1.59153">
        <ele>46.5</ele>
        <time>2020-06-22T19:46:27Z</time>
      </trkpt>
      <trkpt lat="50.86225" lon="1.59153">
        <ele>46.8</ele>
        <time>2020-06-22T19:46:28Z</time>
      </trkpt>
      <trkpt lat="50.86221" lon="1.59154">
        <ele>47.1</ele>
        <time>2020-06-22T19:46:29Z</time>
      </trkpt>
      <trkpt lat="50.86216" lon="1.59155">
        <ele>47.4</ele>
        <time>2020-06-22T19:46:30Z</time>
      </trkpt>
      <trkpt lat="50.86211" lon="1.59156">
        <ele>47.7</ele>
        <time>2020-06-22T19:46:31Z</time>
      </trkpt>
      <trkpt lat="50.86206" lon="1.59158">
        <ele>48</ele>
        <time>2020-06-22T19:46:32Z</time>
      </trkpt>
      <trkpt lat="50.86201" lon="1.59159">
        <ele>48.3</ele>
        <time>2020-06-22T19:46:33Z</time>
      </trkpt>
      <trkpt lat="50.86197" lon="1.59161">
        <ele>48.5</ele>
        <time>2020-06-22T19:46:34Z</time>
      </trkpt>
      <trkpt lat="50.86193" lon="1.59163">
        <ele>48.8</ele>
        <time>2020-06-22T19:46:35Z</time>
      </trkpt>
      <trkpt lat="50.8619" lon="1.59165">
        <ele>49</ele>
        <time>2020-06-22T19:46:36Z</time>
      </trkpt>
      <trkpt lat="50.86186" lon="1.59166">
        <ele>49.2</ele>
        <time>2020-06-22T19:46:37Z</time>
      </trkpt>
      <trkpt lat="50.86182" lon="1.59168">
        <ele>49.5</ele>
        <time>2020-06-22T19:46:38Z</time>
      </trkpt>
      <trkpt lat="50.86179" lon="1.5917">
        <ele>49.6</ele>
        <time>2020-06-22T19:46:39Z</time>
      </trkpt>
      <trkpt lat="50.86175" lon="1.59172">
        <ele>49.9</ele>
        <time>2020-06-22T19:46:40Z</time>
      </trkpt>
      <trkpt lat="50.86171" lon="1.59174">
        <ele>50.1</ele>
        <time>2020-06-22T19:46:41Z</time>
      </trkpt>
      <trkpt lat="50.86167" lon="1.59176">
        <ele>50.3</ele>
        <time>2020-06-22T19:46:42Z</time>
      </trkpt>
      <trkpt lat="50.86164" lon="1.59179">
        <ele>50.4</ele>
        <time>2020-06-22T19:46:43Z</time>
      </trkpt>
      <trkpt lat="50.8616" lon="1.59182">
        <ele>50.6</ele>
        <time>2020-06-22T19:46:44Z</time>
      </trkpt>
      <trkpt lat="50.86156" lon="1.59186">
        <ele>50.8</ele>
        <time>2020-06-22T19:46:45Z</time>
      </trkpt>
      <trkpt lat="50.86152" lon="1.59188">
        <ele>51</ele>
        <time>2020-06-22T19:46:46Z</time>
      </trkpt>
      <trkpt lat="50.86148" lon="1.5919">
        <ele>51.2</ele>
        <time>2020-06-22T19:46:47Z</time>
      </trkpt>
      <trkpt lat="50.86144" lon="1.59194">
        <ele>51.3</ele>
        <time>2020-06-22T19:46:48Z</time>
      </trkpt>
      <trkpt lat="50.8614" lon="1.59198">
        <ele>51.5</ele>
        <time>2020-06-22T19:46:49Z</time>
      </trkpt>
      <trkpt lat="50.86135" lon="1.59203">
        <ele>51.6</ele>
        <time>2020-06-22T19:46:50Z</time>
      </trkpt>
      <trkpt lat="50.86131" lon="1.59206">
        <ele>51.7</ele>
        <time>2020-06-22T19:46:51Z</time>
      </trkpt>
      <trkpt lat="50.86126" lon="1.59209">
        <ele>51.8</ele>
        <time>2020-06-22T19:46:52Z</time>
      </trkpt>
      <trkpt lat="50.86121" lon="1.59212">
        <ele>51.9</ele>
        <time>2020-06-22T19:46:53Z</time>
      </trkpt>
      <trkpt lat="50.86117" lon="1.59215">
        <ele>51.9</ele>
        <time>2020-06-22T19:46:54Z</time>
      </trkpt>
      <trkpt lat="50.86112" lon="1.59217">
        <ele>52</ele>
        <time>2020-06-22T19:46:55Z</time>
      </trkpt>
      <trkpt lat="50.86107" lon="1.59219">
        <ele>52</ele>
        <time>2020-06-22T19:46:56Z</time>
      </trkpt>
      <trkpt lat="50.86102" lon="1.5922">
        <ele>52</ele>
        <time>2020-06-22T19:46:57Z</time>
      </trkpt>
      <trkpt lat="50.86096" lon="1.5922">
        <ele>52</ele>
        <time>2020-06-22T19:46:58Z</time>
      </trkpt>
      <trkpt lat="50.86091" lon="1.5922">
        <ele>52</ele>
        <time>2020-06-22T19:46:59Z</time>
      </trkpt>
      <trkpt lat="50.86086" lon="1.5922">
        <ele>52</ele>
        <time>2020-06-22T19:47:00Z</time>
      </trkpt>
      <trkpt lat="50.86081" lon="1.59222">
        <ele>52</ele>
        <time>2020-06-22T19:47:01Z</time>
      </trkpt>
      <trkpt lat="50.86076" lon="1.59223">
        <ele>52</ele>
        <time>2020-06-22T19:47:02Z</time>
      </trkpt>
      <trkpt lat="50.8607" lon="1.59223">
        <ele>51.9</ele>
        <time>2020-06-22T19:47:03Z</time>
      </trkpt>
      <trkpt lat="50.86065" lon="1.59223">
        <ele>51.9</ele>
        <time>2020-06-22T19:47:04Z</time>
      </trkpt>
      <trkpt lat="50.8606" lon="1.59223">
        <ele>51.9</ele>
        <time>2020-06-22T19:47:05Z</time>
      </trkpt>
      <trkpt lat="50.86054" lon="1.59222">
        <ele>51.9</ele>
        <time>2020-06-22T19:47:06Z</time>
      </trkpt>
      <trkpt lat="50.86049" lon="1.59222">
        <ele>51.8</ele>
        <time>2020-06-22T19:47:07Z</time>
      </trkpt>
      <trkpt lat="50.86044" lon="1.59221">
        <ele>51.8</ele>
        <time>2020-06-22T19:47:08Z</time>
      </trkpt>
      <trkpt lat="50.8604" lon="1.59221">
        <ele>51.7</ele>
        <time>2020-06-22T19:47:09Z</time>
      </trkpt>
      <trkpt lat="50.86035" lon="1.5922">
        <ele>51.7</ele>
        <time>2020-06-22T19:47:10Z</time>
      </trkpt>
      <trkpt lat="50.8603" lon="1.59219">
        <ele>51.6</ele>
        <time>2020-06-22T19:47:11Z</time>
      </trkpt>
      <trkpt lat="50.86025" lon="1.5922">
        <ele>51.6</ele>
        <time>2020-06-22T19:47:12Z</time>
      </trkpt>
      <trkpt lat="50.8602" lon="1.5922">
        <ele>51.5</ele>
        <time>2020-06-22T19:47:13Z</time>
      </trkpt>
      <trkpt lat="50.86014" lon="1.59219">
        <ele>51.4</ele>
        <time>2020-06-22T19:47:14Z</time>
      </trkpt>
      <trkpt lat="50.86008" lon="1.59218">
        <ele>51.3</ele>
        <time>2020-06-22T19:47:15Z</time>
      </trkpt>
      <trkpt lat="50.86003" lon="1.59218">
        <ele>51.2</ele>
        <time>2020-06-22T19:47:16Z</time>
      </trkpt>
      <trkpt lat="50.85998" lon="1.59219">
        <ele>51.1</ele>
        <time>2020-06-22T19:47:17Z</time>
      </trkpt>
      <trkpt lat="50.85992" lon="1.59218">
        <ele>51</ele>
        <time>2020-06-22T19:47:18Z</time>
      </trkpt>
      <trkpt lat="50.85986" lon="1.59219">
        <ele>50.9</ele>
        <time>2020-06-22T19:47:19Z</time>
      </trkpt>
      <trkpt lat="50.8598" lon="1.59218">
        <ele>50.7</ele>
        <time>2020-06-22T19:47:20Z</time>
      </trkpt>
      <trkpt lat="50.85974" lon="1.59219">
        <ele>50.6</ele>
        <time>2020-06-22T19:47:21Z</time>
      </trkpt>
      <trkpt lat="50.85968" lon="1.59218">
        <ele>50.5</ele>
        <time>2020-06-22T19:47:22Z</time>
      </trkpt>
      <trkpt lat="50.85962" lon="1.59219">
        <ele>50.4</ele>
        <time>2020-06-22T19:47:23Z</time>
      </trkpt>
      <trkpt lat="50.85957" lon="1.59218">
        <ele>50.3</ele>
        <time>2020-06-22T19:47:24Z</time>
      </trkpt>
      <trkpt lat="50.85951" lon="1.59219">
        <ele>50.2</ele>
        <time>2020-06-22T19:47:25Z</time>
      </trkpt>
      <trkpt lat="50.85945" lon="1.59219">
        <ele>50</ele>
        <time>2020-06-22T19:47:26Z</time>
      </trkpt>
      <trkpt lat="50.85939" lon="1.59219">
        <ele>49.9</ele>
        <time>2020-06-22T19:47:27Z</time>
      </trkpt>
      <trkpt lat="50.85932" lon="1.59218">
        <ele>49.7</ele>
        <time>2020-06-22T19:47:28Z</time>
      </trkpt>
      <trkpt lat="50.85925" lon="1.59218">
        <ele>49.5</ele>
        <time>2020-06-22T19:47:29Z</time>
      </trkpt>
      <trkpt lat="50.85919" lon="1.59218">
        <ele>49.3</ele>
        <time>2020-06-22T19:47:30Z</time>
      </trkpt>
      <trkpt lat="50.85913" lon="1.59217">
        <ele>49.1</ele>
        <time>2020-06-22T19:47:31Z</time>
      </trkpt>
      <trkpt lat="50.85907" lon="1.59219">
        <ele>48.8</ele>
        <time>2020-06-22T19:47:32Z</time>
      </trkpt>
      <trkpt lat="50.85901" lon="1.5922">
        <ele>48.7</ele>
        <time>2020-06-22T19:47:33Z</time>
      </trkpt>
      <trkpt lat="50.85896" lon="1.59221">
        <ele>48.5</ele>
        <time>2020-06-22T19:47:34Z</time>
      </trkpt>
      <trkpt lat="50.8589" lon="1.59221">
        <ele>48.4</ele>
        <time>2020-06-22T19:47:35Z</time>
      </trkpt>
      <trkpt lat="50.85884" lon="1.59221">
        <ele>48.2</ele>
        <time>2020-06-22T19:47:36Z</time>
      </trkpt>
      <trkpt lat="50.85877" lon="1.59222">
        <ele>48</ele>
        <time>2020-06-22T19:47:37Z</time>
      </trkpt>
      <trkpt lat="50.85871" lon="1.59222">
        <ele>47.8</ele>
        <time>2020-06-22T19:47:38Z</time>
      </trkpt>
      <trkpt lat="50.85865" lon="1.59223">
        <ele>47.6</ele>
        <time>2020-06-22T19:47:39Z</time>
      </trkpt>
      <trkpt lat="50.85859" lon="1.59222">
        <ele>47.4</ele>
        <time>2020-06-22T19:47:40Z</time>
      </trkpt>
      <trkpt lat="50.85853" lon="1.59221">
        <ele>47.2</ele>
        <time>2020-06-22T19:47:41Z</time>
      </trkpt>
      <trkpt lat="50.85846" lon="1.5922">
        <ele>47</ele>
        <time>2020-06-22T19:47:42Z</time>
      </trkpt>
      <trkpt lat="50.85841" lon="1.5922">
        <ele>46.8</ele>
        <time>2020-06-22T19:47:43Z</time>
      </trkpt>
      <trkpt lat="50.85834" lon="1.59221">
        <ele>46.6</ele>
        <time>2020-06-22T19:47:44Z</time>
      </trkpt>
      <trkpt lat="50.85827" lon="1.59222">
        <ele>46.4</ele>
        <time>2020-06-22T19:47:45Z</time>
      </trkpt>
      <trkpt lat="50.8582" lon="1.59224">
        <ele>46.2</ele>
        <time>2020-06-22T19:47:46Z</time>
      </trkpt>
      <trkpt lat="50.85812" lon="1.59226">
        <ele>46</ele>
        <time>2020-06-22T19:47:47Z</time>
      </trkpt>
      <trkpt lat="50.85806" lon="1.59228">
        <ele>45.9</ele>
        <time>2020-06-22T19:47:48Z</time>
      </trkpt>
      <trkpt lat="50.85798" lon="1.59229">
        <ele>45.9</ele>
        <time>2020-06-22T19:47:49Z</time>
      </trkpt>
      <trkpt lat="50.85791" lon="1.59231">
        <ele>45.8</ele>
        <time>2020-06-22T19:47:50Z</time>
      </trkpt>
      <trkpt lat="50.85784" lon="1.59233">
        <ele>45.7</ele>
        <time>2020-06-22T19:47:51Z</time>
      </trkpt>
      <trkpt lat="50.85777" lon="1.59235">
        <ele>45.5</ele>
        <time>2020-06-22T19:47:52Z</time>
      </trkpt>
      <trkpt lat="50.8577" lon="1.59236">
        <ele>45.3</ele>
        <time>2020-06-22T19:47:53Z</time>
      </trkpt>
      <trkpt lat="50.85763" lon="1.59237">
        <ele>45.2</ele>
        <time>2020-06-22T19:47:54Z</time>
      </trkpt>
      <trkpt lat="50.85755" lon="1.59239">
        <ele>45.1</ele>
        <time>2020-06-22T19:47:55Z</time>
      </trkpt>
      <trkpt lat="50.85747" lon="1.59239">
        <ele>45.1</ele>
        <time>2020-06-22T19:47:56Z</time>
      </trkpt>
      <trkpt lat="50.8574" lon="1.59239">
        <ele>45</ele>
        <time>2020-06-22T19:47:57Z</time>
      </trkpt>
      <trkpt lat="50.85733" lon="1.5924">
        <ele>44.9</ele>
        <time>2020-06-22T19:47:58Z</time>
      </trkpt>
      <trkpt lat="50.85725" lon="1.59241">
        <ele>44.9</ele>
        <time>2020-06-22T19:47:59Z</time>
      </trkpt>
      <trkpt lat="50.85718" lon="1.5924">
        <ele>44.8</ele>
        <time>2020-06-22T19:48:00Z</time>
      </trkpt>
      <trkpt lat="50.85711" lon="1.5924">
        <ele>44.8</ele>
        <time>2020-06-22T19:48:01Z</time>
      </trkpt>
      <trkpt lat="50.85704" lon="1.5924">
        <ele>44.8</ele>
        <time>2020-06-22T19:48:02Z</time>
      </trkpt>
      <trkpt lat="50.85697" lon="1.5924">
        <ele>44.8</ele>
        <time>2020-06-22T19:48:03Z</time>
      </trkpt>
      <trkpt lat="50.8569" lon="1.59239">
        <ele>44.8</ele>
        <time>2020-06-22T19:48:04Z</time>
      </trkpt>
      <trkpt lat="50.85683" lon="1.59239">
        <ele>44.7</ele>
        <time>2020-06-22T19:48:05Z</time>
      </trkpt>
      <trkpt lat="50.85676" lon="1.59239">
        <ele>44.7</ele>
        <time>2020-06-22T19:48:06Z</time>
      </trkpt>
      <trkpt lat="50.85669" lon="1.59239">
        <ele>44.8</ele>
        <time>2020-06-22T19:48:07Z</time>
      </trkpt>
      <trkpt lat="50.85662" lon="1.59239">
        <ele>44.8</ele>
        <time>2020-06-22T19:48:08Z</time>
      </trkpt>
      <trkpt lat="50.85655" lon="1.59239">
        <ele>44.8</ele>
        <time>2020-06-22T19:48:09Z</time>
      </trkpt>
      <trkpt lat="50.85648" lon="1.59238">
        <ele>44.9</ele>
        <time>2020-06-22T19:48:10Z</time>
      </trkpt>
      <trkpt lat="50.85641" lon="1.59236">
        <ele>45</ele>
        <time>2020-06-22T19:48:11Z</time>
      </trkpt>
      <trkpt lat="50.85634" lon="1.59234">
        <ele>45</ele>
        <time>2020-06-22T19:48:12Z</time>
      </trkpt>
      <trkpt lat="50.85628" lon="1.59233">
        <ele>45.1</ele>
        <time>2020-06-22T19:48:13Z</time>
      </trkpt>
      <trkpt lat="50.85621" lon="1.59232">
        <ele>45.1</ele>
        <time>2020-06-22T19:48:14Z</time>
      </trkpt>
      <trkpt lat="50.85614" lon="1.5923">
        <ele>45.2</ele>
        <time>2020-06-22T19:48:15Z</time>
      </trkpt>
      <trkpt lat="50.85608" lon="1.59229">
        <ele>45.2</ele>
        <time>2020-06-22T19:48:16Z</time>
      </trkpt>
      <trkpt lat="50.85602" lon="1.59229">
        <ele>45.3</ele>
        <time>2020-06-22T19:48:17Z</time>
      </trkpt>
      <trkpt lat="50.85595" lon="1.59228">
        <ele>45.3</ele>
        <time>2020-06-22T19:48:18Z</time>
      </trkpt>
      <trkpt lat="50.85589" lon="1.59228">
        <ele>45.3</ele>
        <time>2020-06-22T19:48:19Z</time>
      </trkpt>
      <trkpt lat="50.85582" lon="1.59227">
        <ele>45.4</ele>
        <time>2020-06-22T19:48:20Z</time>
      </trkpt>
      <trkpt lat="50.85576" lon="1.59227">
        <ele>45.4</ele>
        <time>2020-06-22T19:48:21Z</time>
      </trkpt>
      <trkpt lat="50.8557" lon="1.59227">
        <ele>45.4</ele>
        <time>2020-06-22T19:48:22Z</time>
      </trkpt>
      <trkpt lat="50.85563" lon="1.59227">
        <ele>45.5</ele>
        <time>2020-06-22T19:48:23Z</time>
      </trkpt>
      <trkpt lat="50.85557" lon="1.59227">
        <ele>45.5</ele>
        <time>2020-06-22T19:48:24Z</time>
      </trkpt>
      <trkpt lat="50.85551" lon="1.59227">
        <ele>45.6</ele>
        <time>2020-06-22T19:48:25Z</time>
      </trkpt>
      <trkpt lat="50.85544" lon="1.59228">
        <ele>45.7</ele>
        <time>2020-06-22T19:48:26Z</time>
      </trkpt>
      <trkpt lat="50.85538" lon="1.59228">
        <ele>45.8</ele>
        <time>2020-06-22T19:48:27Z</time>
      </trkpt>
      <trkpt lat="50.85532" lon="1.59229">
        <ele>45.8</ele>
        <time>2020-06-22T19:48:28Z</time>
      </trkpt>
      <trkpt lat="50.85526" lon="1.59229">
        <ele>45.9</ele>
        <time>2020-06-22T19:48:29Z</time>
      </trkpt>
      <trkpt lat="50.8552" lon="1.59228">
        <ele>46</ele>
        <time>2020-06-22T19:48:30Z</time>
      </trkpt>
      <trkpt lat="50.85514" lon="1.59228">
        <ele>46.1</ele>
        <time>2020-06-22T19:48:31Z</time>
      </trkpt>
      <trkpt lat="50.85508" lon="1.59228">
        <ele>46.2</ele>
        <time>2020-06-22T19:48:32Z</time>
      </trkpt>
      <trkpt lat="50.85503" lon="1.59228">
        <ele>46.3</ele>
        <time>2020-06-22T19:48:33Z</time>
      </trkpt>
      <trkpt lat="50.85498" lon="1.59227">
        <ele>46.3</ele>
        <time>2020-06-22T19:48:34Z</time>
      </trkpt>
      <trkpt lat="50.85495" lon="1.59228">
        <ele>46.4</ele>
        <time>2020-06-22T19:48:35Z</time>
      </trkpt>
      <trkpt lat="50.8549" lon="1.59228">
        <ele>46.5</ele>
        <time>2020-06-22T19:48:36Z</time>
      </trkpt>
      <trkpt lat="50.85485" lon="1.59229">
        <ele>46.5</ele>
        <time>2020-06-22T19:48:37Z</time>
      </trkpt>
      <trkpt lat="50.8548" lon="1.59232">
        <ele>46.5</ele>
        <time>2020-06-22T19:48:38Z</time>
      </trkpt>
      <trkpt lat="50.85475" lon="1.59234">
        <ele>46.5</ele>
        <time>2020-06-22T19:48:39Z</time>
      </trkpt>
      <trkpt lat="50.85469" lon="1.59237">
        <ele>46.5</ele>
        <time>2020-06-22T19:48:40Z</time>
      </trkpt>
      <trkpt lat="50.85464" lon="1.59241">
        <ele>46.5</ele>
        <time>2020-06-22T19:48:41Z</time>
      </trkpt>
      <trkpt lat="50.85458" lon="1.59246">
        <ele>46.5</ele>
        <time>2020-06-22T19:48:42Z</time>
      </trkpt>
      <trkpt lat="50.85453" lon="1.59252">
        <ele>46.5</ele>
        <time>2020-06-22T19:48:43Z</time>
      </trkpt>
      <trkpt lat="50.8545" lon="1.59259">
        <ele>46.5</ele>
        <time>2020-06-22T19:48:44Z</time>
      </trkpt>
      <trkpt lat="50.85446" lon="1.59263">
        <ele>46.5</ele>
        <time>2020-06-22T19:48:45Z</time>
      </trkpt>
      <trkpt lat="50.85442" lon="1.59268">
        <ele>46.5</ele>
        <time>2020-06-22T19:48:46Z</time>
      </trkpt>
      <trkpt lat="50.85438" lon="1.59274">
        <ele>46.5</ele>
        <time>2020-06-22T19:48:47Z</time>
      </trkpt>
      <trkpt lat="50.85435" lon="1.5928">
        <ele>46.5</ele>
        <time>2020-06-22T19:48:48Z</time>
      </trkpt>
      <trkpt lat="50.85431" lon="1.59286">
        <ele>46.5</ele>
        <time>2020-06-22T19:48:49Z</time>
      </trkpt>
      <trkpt lat="50.85427" lon="1.59291">
        <ele>46.5</ele>
        <time>2020-06-22T19:48:50Z</time>
      </trkpt>
      <trkpt lat="50.85424" lon="1.59296">
        <ele>46.5</ele>
        <time>2020-06-22T19:48:51Z</time>
      </trkpt>
      <trkpt lat="50.8542" lon="1.59302">
        <ele>46.5</ele>
        <time>2020-06-22T19:48:52Z</time>
      </trkpt>
      <trkpt lat="50.85416" lon="1.59306">
        <ele>46.5</ele>
        <time>2020-06-22T19:48:53Z</time>
      </trkpt>
      <trkpt lat="50.85413" lon="1.59312">
        <ele>46.5</ele>
        <time>2020-06-22T19:48:54Z</time>
      </trkpt>
      <trkpt lat="50.85409" lon="1.59318">
        <ele>46.6</ele>
        <time>2020-06-22T19:48:55Z</time>
      </trkpt>
      <trkpt lat="50.85406" lon="1.59324">
        <ele>46.6</ele>
        <time>2020-06-22T19:48:56Z</time>
      </trkpt>
      <trkpt lat="50.85402" lon="1.59329">
        <ele>46.7</ele>
        <time>2020-06-22T19:48:57Z</time>
      </trkpt>
      <trkpt lat="50.85398" lon="1.59334">
        <ele>46.7</ele>
        <time>2020-06-22T19:48:58Z</time>
      </trkpt>
      <trkpt lat="50.85394" lon="1.5934">
        <ele>46.8</ele>
        <time>2020-06-22T19:48:59Z</time>
      </trkpt>
      <trkpt lat="50.85391" lon="1.59345">
        <ele>46.9</ele>
        <time>2020-06-22T19:49:00Z</time>
      </trkpt>
      <trkpt lat="50.85387" lon="1.5935">
        <ele>46.9</ele>
        <time>2020-06-22T19:49:01Z</time>
      </trkpt>
      <trkpt lat="50.85383" lon="1.59355">
        <ele>47</ele>
        <time>2020-06-22T19:49:02Z</time>
      </trkpt>
      <trkpt lat="50.85379" lon="1.59361">
        <ele>47.2</ele>
        <time>2020-06-22T19:49:03Z</time>
      </trkpt>
      <trkpt lat="50.85373" lon="1.59367">
        <ele>47.3</ele>
        <time>2020-06-22T19:49:04Z</time>
      </trkpt>
      <trkpt lat="50.85368" lon="1.59372">
        <ele>47.4</ele>
        <time>2020-06-22T19:49:05Z</time>
      </trkpt>
      <trkpt lat="50.85363" lon="1.59377">
        <ele>47.4</ele>
        <time>2020-06-22T19:49:06Z</time>
      </trkpt>
      <trkpt lat="50.85358" lon="1.59383">
        <ele>47.5</ele>
        <time>2020-06-22T19:49:07Z</time>
      </trkpt>
      <trkpt lat="50.85352" lon="1.59388">
        <ele>47.6</ele>
        <time>2020-06-22T19:49:08Z</time>
      </trkpt>
      <trkpt lat="50.8535" lon="1.59391">
        <ele>47.7</ele>
        <time>2020-06-22T19:49:09Z</time>
      </trkpt>
      <trkpt lat="50.85346" lon="1.59395">
        <ele>47.8</ele>
        <time>2020-06-22T19:49:10Z</time>
      </trkpt>
      <trkpt lat="50.85341" lon="1.59401">
        <ele>47.9</ele>
        <time>2020-06-22T19:49:11Z</time>
      </trkpt>
      <trkpt lat="50.85334" lon="1.59406">
        <ele>48</ele>
        <time>2020-06-22T19:49:12Z</time>
      </trkpt>
      <trkpt lat="50.85329" lon="1.5941">
        <ele>48.1</ele>
        <time>2020-06-22T19:49:13Z</time>
      </trkpt>
      <trkpt lat="50.85323" lon="1.59415">
        <ele>48.3</ele>
        <time>2020-06-22T19:49:14Z</time>
      </trkpt>
      <trkpt lat="50.85318" lon="1.5942">
        <ele>48.4</ele>
        <time>2020-06-22T19:49:15Z</time>
      </trkpt>
      <trkpt lat="50.85313" lon="1.59425">
        <ele>48.5</ele>
        <time>2020-06-22T19:49:16Z</time>
      </trkpt>
      <trkpt lat="50.85307" lon="1.59431">
        <ele>48.6</ele>
        <time>2020-06-22T19:49:17Z</time>
      </trkpt>
      <trkpt lat="50.85303" lon="1.59436">
        <ele>48.7</ele>
        <time>2020-06-22T19:49:18Z</time>
      </trkpt>
      <trkpt lat="50.85299" lon="1.5944">
        <ele>48.8</ele>
        <time>2020-06-22T19:49:19Z</time>
      </trkpt>
      <trkpt lat="50.85294" lon="1.59444">
        <ele>48.9</ele>
        <time>2020-06-22T19:49:20Z</time>
      </trkpt>
      <trkpt lat="50.8529" lon="1.59449">
        <ele>49</ele>
        <time>2020-06-22T19:49:21Z</time>
      </trkpt>
      <trkpt lat="50.85287" lon="1.59454">
        <ele>49.1</ele>
        <time>2020-06-22T19:49:22Z</time>
      </trkpt>
      <trkpt lat="50.85285" lon="1.59457">
        <ele>49.1</ele>
        <time>2020-06-22T19:49:23Z</time>
      </trkpt>
      <trkpt lat="50.85282" lon="1.59462">
        <ele>49.2</ele>
        <time>2020-06-22T19:49:24Z</time>
      </trkpt>
      <trkpt lat="50.85281" lon="1.59468">
        <ele>49.3</ele>
        <time>2020-06-22T19:49:25Z</time>
      </trkpt>
      <trkpt lat="50.8528" lon="1.59474">
        <ele>49.3</ele>
        <time>2020-06-22T19:49:26Z</time>
      </trkpt>
      <trkpt lat="50.8528" lon="1.59478">
        <ele>49.3</ele>
        <time>2020-06-22T19:49:27Z</time>
      </trkpt>
      <trkpt lat="50.8528" lon="1.59483">
        <ele>49.3</ele>
        <time>2020-06-22T19:49:28Z</time>
      </trkpt>
      <trkpt lat="50.85281" lon="1.59489">
        <ele>49.1</ele>
        <time>2020-06-22T19:49:29Z</time>
      </trkpt>
      <trkpt lat="50.85282" lon="1.59492">
        <ele>49.1</ele>
        <time>2020-06-22T19:49:30Z</time>
      </trkpt>
      <trkpt lat="50.85283" lon="1.59497">
        <ele>49.1</ele>
        <time>2020-06-22T19:49:31Z</time>
      </trkpt>
      <trkpt lat="50.85284" lon="1.59505">
        <ele>49</ele>
        <time>2020-06-22T19:49:32Z</time>
      </trkpt>
      <trkpt lat="50.85285" lon="1.59513">
        <ele>48.9</ele>
        <time>2020-06-22T19:49:33Z</time>
      </trkpt>
      <trkpt lat="50.85286" lon="1.59518">
        <ele>48.9</ele>
        <time>2020-06-22T19:49:34Z</time>
      </trkpt>
      <trkpt lat="50.85287" lon="1.59527">
        <ele>49</ele>
        <time>2020-06-22T19:49:35Z</time>
      </trkpt>
      <trkpt lat="50.85289" lon="1.59534">
        <ele>49</ele>
        <time>2020-06-22T19:49:36Z</time>
      </trkpt>
      <trkpt lat="50.85289" lon="1.59539">
        <ele>49.1</ele>
        <time>2020-06-22T19:49:37Z</time>
      </trkpt>
      <trkpt lat="50.8529" lon="1.59547">
        <ele>49.2</ele>
        <time>2020-06-22T19:49:38Z</time>
      </trkpt>
      <trkpt lat="50.85291" lon="1.59554">
        <ele>49.4</ele>
        <time>2020-06-22T19:49:39Z</time>
      </trkpt>
      <trkpt lat="50.85292" lon="1.59562">
        <ele>49.5</ele>
        <time>2020-06-22T19:49:40Z</time>
      </trkpt>
      <trkpt lat="50.85293" lon="1.59569">
        <ele>49.7</ele>
        <time>2020-06-22T19:49:41Z</time>
      </trkpt>
      <trkpt lat="50.85293" lon="1.59576">
        <ele>49.7</ele>
        <time>2020-06-22T19:49:42Z</time>
      </trkpt>
      <trkpt lat="50.85294" lon="1.59583">
        <ele>49.7</ele>
        <time>2020-06-22T19:49:43Z</time>
      </trkpt>
      <trkpt lat="50.85294" lon="1.5959">
        <ele>49.8</ele>
        <time>2020-06-22T19:49:44Z</time>
      </trkpt>
      <trkpt lat="50.85294" lon="1.59597">
        <ele>49.8</ele>
        <time>2020-06-22T19:49:45Z</time>
      </trkpt>
      <trkpt lat="50.85295" lon="1.59607">
        <ele>49.9</ele>
        <time>2020-06-22T19:49:46Z</time>
      </trkpt>
      <trkpt lat="50.85295" lon="1.59615">
        <ele>50</ele>
        <time>2020-06-22T19:49:47Z</time>
      </trkpt>
      <trkpt lat="50.85295" lon="1.5962">
        <ele>50</ele>
        <time>2020-06-22T19:49:48Z</time>
      </trkpt>
      <trkpt lat="50.85295" lon="1.59629">
        <ele>50.1</ele>
        <time>2020-06-22T19:49:49Z</time>
      </trkpt>
      <trkpt lat="50.85295" lon="1.59637">
        <ele>50.1</ele>
        <time>2020-06-22T19:49:50Z</time>
      </trkpt>
      <trkpt lat="50.85296" lon="1.59646">
        <ele>50.2</ele>
        <time>2020-06-22T19:49:51Z</time>
      </trkpt>
      <trkpt lat="50.85297" lon="1.59654">
        <ele>50.2</ele>
        <time>2020-06-22T19:49:52Z</time>
      </trkpt>
      <trkpt lat="50.85297" lon="1.59661">
        <ele>50.3</ele>
        <time>2020-06-22T19:49:53Z</time>
      </trkpt>
      <trkpt lat="50.85297" lon="1.59669">
        <ele>50.4</ele>
        <time>2020-06-22T19:49:54Z</time>
      </trkpt>
      <trkpt lat="50.85297" lon="1.59677">
        <ele>50.5</ele>
        <time>2020-06-22T19:49:55Z</time>
      </trkpt>
      <trkpt lat="50.85296" lon="1.59683">
        <ele>50.5</ele>
        <time>2020-06-22T19:49:56Z</time>
      </trkpt>
      <trkpt lat="50.85295" lon="1.59692">
        <ele>50.6</ele>
        <time>2020-06-22T19:49:57Z</time>
      </trkpt>
      <trkpt lat="50.85293" lon="1.597">
        <ele>50.7</ele>
        <time>2020-06-22T19:49:58Z</time>
      </trkpt>
      <trkpt lat="50.85293" lon="1.59709">
        <ele>50.9</ele>
        <time>2020-06-22T19:49:59Z</time>
      </trkpt>
      <trkpt lat="50.85292" lon="1.59717">
        <ele>51</ele>
        <time>2020-06-22T19:50:00Z</time>
      </trkpt>
      <trkpt lat="50.85291" lon="1.59724">
        <ele>51.1</ele>
        <time>2020-06-22T19:50:01Z</time>
      </trkpt>
      <trkpt lat="50.85289" lon="1.59733">
        <ele>51.2</ele>
        <time>2020-06-22T19:50:02Z</time>
      </trkpt>
      <trkpt lat="50.85289" lon="1.5974">
        <ele>51.3</ele>
        <time>2020-06-22T19:50:03Z</time>
      </trkpt>
      <trkpt lat="50.85288" lon="1.59748">
        <ele>51.4</ele>
        <time>2020-06-22T19:50:04Z</time>
      </trkpt>
      <trkpt lat="50.85288" lon="1.59756">
        <ele>51.5</ele>
        <time>2020-06-22T19:50:05Z</time>
      </trkpt>
      <trkpt lat="50.85287" lon="1.59765">
        <ele>51.6</ele>
        <time>2020-06-22T19:50:06Z</time>
      </trkpt>
      <trkpt lat="50.85286" lon="1.59773">
        <ele>51.7</ele>
        <time>2020-06-22T19:50:07Z</time>
      </trkpt>
      <trkpt lat="50.85285" lon="1.59782">
        <ele>51.8</ele>
        <time>2020-06-22T19:50:08Z</time>
      </trkpt>
      <trkpt lat="50.85284" lon="1.59791">
        <ele>51.9</ele>
        <time>2020-06-22T19:50:09Z</time>
      </trkpt>
      <trkpt lat="50.85284" lon="1.598">
        <ele>52</ele>
        <time>2020-06-22T19:50:10Z</time>
      </trkpt>
      <trkpt lat="50.85283" lon="1.59808">
        <ele>52</ele>
        <time>2020-06-22T19:50:11Z</time>
      </trkpt>
      <trkpt lat="50.85282" lon="1.59816">
        <ele>52</ele>
        <time>2020-06-22T19:50:12Z</time>
      </trkpt>
      <trkpt lat="50.85281" lon="1.59824">
        <ele>52</ele>
        <time>2020-06-22T19:50:13Z</time>
      </trkpt>
      <trkpt lat="50.85281" lon="1.59833">
        <ele>52</ele>
        <time>2020-06-22T19:50:14Z</time>
      </trkpt>
      <trkpt lat="50.85281" lon="1.59842">
        <ele>52.1</ele>
        <time>2020-06-22T19:50:15Z</time>
      </trkpt>
      <trkpt lat="50.85281" lon="1.59851">
        <ele>52.1</ele>
        <time>2020-06-22T19:50:16Z</time>
      </trkpt>
      <trkpt lat="50.85282" lon="1.5986">
        <ele>52.2</ele>
        <time>2020-06-22T19:50:17Z</time>
      </trkpt>
      <trkpt lat="50.85282" lon="1.59869">
        <ele>52.3</ele>
        <time>2020-06-22T19:50:18Z</time>
      </trkpt>
      <trkpt lat="50.85282" lon="1.59879">
        <ele>52.3</ele>
        <time>2020-06-22T19:50:19Z</time>
      </trkpt>
      <trkpt lat="50.85283" lon="1.59887">
        <ele>52.4</ele>
        <time>2020-06-22T19:50:20Z</time>
      </trkpt>
      <trkpt lat="50.85283" lon="1.59896">
        <ele>52.4</ele>
        <time>2020-06-22T19:50:21Z</time>
      </trkpt>
      <trkpt lat="50.85283" lon="1.59904">
        <ele>52.5</ele>
        <time>2020-06-22T19:50:22Z</time>
      </trkpt>
      <trkpt lat="50.85284" lon="1.59914">
        <ele>52.5</ele>
        <time>2020-06-22T19:50:23Z</time>
      </trkpt>
      <trkpt lat="50.85284" lon="1.59923">
        <ele>52.5</ele>
        <time>2020-06-22T19:50:24Z</time>
      </trkpt>
      <trkpt lat="50.85285" lon="1.59933">
        <ele>52.5</ele>
        <time>2020-06-22T19:50:25Z</time>
      </trkpt>
      <trkpt lat="50.85285" lon="1.59943">
        <ele>52.4</ele>
        <time>2020-06-22T19:50:26Z</time>
      </trkpt>
      <trkpt lat="50.85286" lon="1.59953">
        <ele>52.4</ele>
        <time>2020-06-22T19:50:27Z</time>
      </trkpt>
      <trkpt lat="50.85286" lon="1.59962">
        <ele>52.3</ele>
        <time>2020-06-22T19:50:28Z</time>
      </trkpt>
      <trkpt lat="50.85286" lon="1.59972">
        <ele>52.3</ele>
        <time>2020-06-22T19:50:29Z</time>
      </trkpt>
      <trkpt lat="50.85287" lon="1.59984">
        <ele>52.2</ele>
        <time>2020-06-22T19:50:30Z</time>
      </trkpt>
      <trkpt lat="50.85287" lon="1.59994">
        <ele>52.2</ele>
        <time>2020-06-22T19:50:31Z</time>
      </trkpt>
      <trkpt lat="50.85287" lon="1.60005">
        <ele>52.1</ele>
        <time>2020-06-22T19:50:32Z</time>
      </trkpt>
      <trkpt lat="50.85287" lon="1.60016">
        <ele>52.1</ele>
        <time>2020-06-22T19:50:33Z</time>
      </trkpt>
      <trkpt lat="50.85287" lon="1.60026">
        <ele>52.1</ele>
        <time>2020-06-22T19:50:34Z</time>
      </trkpt>
      <trkpt lat="50.85288" lon="1.60036">
        <ele>52</ele>
        <time>2020-06-22T19:50:35Z</time>
      </trkpt>
      <trkpt lat="50.85288" lon="1.60047">
        <ele>52</ele>
        <time>2020-06-22T19:50:36Z</time>
      </trkpt>
      <trkpt lat="50.85289" lon="1.60057">
        <ele>52</ele>
        <time>2020-06-22T19:50:37Z</time>
      </trkpt>
      <trkpt lat="50.85289" lon="1.60068">
        <ele>52</ele>
        <time>2020-06-22T19:50:38Z</time>
      </trkpt>
      <trkpt lat="50.85291" lon="1.60078">
        <ele>51.9</ele>
        <time>2020-06-22T19:50:39Z</time>
      </trkpt>
      <trkpt lat="50.85291" lon="1.60089">
        <ele>51.8</ele>
        <time>2020-06-22T19:50:40Z</time>
      </trkpt>
      <trkpt lat="50.85292" lon="1.601">
        <ele>51.8</ele>
        <time>2020-06-22T19:50:41Z</time>
      </trkpt>
      <trkpt lat="50.85293" lon="1.60111">
        <ele>51.8</ele>
        <time>2020-06-22T19:50:42Z</time>
      </trkpt>
      <trkpt lat="50.85293" lon="1.60122">
        <ele>51.9</ele>
        <time>2020-06-22T19:50:43Z</time>
      </trkpt>
      <trkpt lat="50.85293" lon="1.60134">
        <ele>52</ele>
        <time>2020-06-22T19:50:44Z</time>
      </trkpt>
      <trkpt lat="50.85294" lon="1.60145">
        <ele>52</ele>
        <time>2020-06-22T19:50:45Z</time>
      </trkpt>
      <trkpt lat="50.85293" lon="1.60156">
        <ele>51.9</ele>
        <time>2020-06-22T19:50:46Z</time>
      </trkpt>
      <trkpt lat="50.85294" lon="1.60167">
        <ele>51.9</ele>
        <time>2020-06-22T19:50:47Z</time>
      </trkpt>
      <trkpt lat="50.85294" lon="1.60178">
        <ele>51.9</ele>
        <time>2020-06-22T19:50:48Z</time>
      </trkpt>
      <trkpt lat="50.85295" lon="1.60189">
        <ele>51.9</ele>
        <time>2020-06-22T19:50:49Z</time>
      </trkpt>
      <trkpt lat="50.85296" lon="1.602">
        <ele>51.9</ele>
        <time>2020-06-22T19:50:50Z</time>
      </trkpt>
      <trkpt lat="50.85296" lon="1.60211">
        <ele>51.9</ele>
        <time>2020-06-22T19:50:51Z</time>
      </trkpt>
      <trkpt lat="50.85297" lon="1.60222">
        <ele>51.8</ele>
        <time>2020-06-22T19:50:52Z</time>
      </trkpt>
      <trkpt lat="50.85297" lon="1.60233">
        <ele>51.8</ele>
        <time>2020-06-22T19:50:53Z</time>
      </trkpt>
      <trkpt lat="50.85297" lon="1.60245">
        <ele>51.8</ele>
        <time>2020-06-22T19:50:54Z</time>
      </trkpt>
      <trkpt lat="50.85298" lon="1.60256">
        <ele>51.8</ele>
        <time>2020-06-22T19:50:55Z</time>
      </trkpt>
      <trkpt lat="50.85298" lon="1.60267">
        <ele>51.8</ele>
        <time>2020-06-22T19:50:56Z</time>
      </trkpt>
      <trkpt lat="50.85299" lon="1.60279">
        <ele>51.8</ele>
        <time>2020-06-22T19:50:57Z</time>
      </trkpt>
      <trkpt lat="50.85299" lon="1.6029">
        <ele>51.8</ele>
        <time>2020-06-22T19:50:58Z</time>
      </trkpt>
      <trkpt lat="50.85299" lon="1.603">
        <ele>51.9</ele>
        <time>2020-06-22T19:50:59Z</time>
      </trkpt>
      <trkpt lat="50.85299" lon="1.60311">
        <ele>51.9</ele>
        <time>2020-06-22T19:51:00Z</time>
      </trkpt>
      <trkpt lat="50.853" lon="1.60321">
        <ele>51.8</ele>
        <time>2020-06-22T19:51:01Z</time>
      </trkpt>
      <trkpt lat="50.853" lon="1.60331">
        <ele>51.7</ele>
        <time>2020-06-22T19:51:02Z</time>
      </trkpt>
      <trkpt lat="50.85299" lon="1.60341">
        <ele>51.6</ele>
        <time>2020-06-22T19:51:03Z</time>
      </trkpt>
      <trkpt lat="50.85299" lon="1.6035">
        <ele>51.6</ele>
        <time>2020-06-22T19:51:04Z</time>
      </trkpt>
      <trkpt lat="50.85298" lon="1.6036">
        <ele>51.5</ele>
        <time>2020-06-22T19:51:05Z</time>
      </trkpt>
      <trkpt lat="50.85298" lon="1.60369">
        <ele>51.4</ele>
        <time>2020-06-22T19:51:06Z</time>
      </trkpt>
      <trkpt lat="50.85297" lon="1.60379">
        <ele>51.4</ele>
        <time>2020-06-22T19:51:07Z</time>
      </trkpt>
      <trkpt lat="50.85296" lon="1.60388">
        <ele>51.3</ele>
        <time>2020-06-22T19:51:08Z</time>
      </trkpt>
      <trkpt lat="50.85294" lon="1.60397">
        <ele>51.3</ele>
        <time>2020-06-22T19:51:09Z</time>
      </trkpt>
      <trkpt lat="50.85293" lon="1.60406">
        <ele>51.2</ele>
        <time>2020-06-22T19:51:10Z</time>
      </trkpt>
      <trkpt lat="50.85292" lon="1.60415">
        <ele>51.1</ele>
        <time>2020-06-22T19:51:11Z</time>
      </trkpt>
      <trkpt lat="50.85292" lon="1.60424">
        <ele>51.1</ele>
        <time>2020-06-22T19:51:12Z</time>
      </trkpt>
      <trkpt lat="50.85291" lon="1.60433">
        <ele>51.1</ele>
        <time>2020-06-22T19:51:13Z</time>
      </trkpt>
      <trkpt lat="50.8529" lon="1.60441">
        <ele>51.1</ele>
        <time>2020-06-22T19:51:14Z</time>
      </trkpt>
      <trkpt lat="50.85289" lon="1.60449">
        <ele>51.1</ele>
        <time>2020-06-22T19:51:15Z</time>
      </trkpt>
      <trkpt lat="50.85288" lon="1.60457">
        <ele>51.1</ele>
        <time>2020-06-22T19:51:16Z</time>
      </trkpt>
      <trkpt lat="50.85287" lon="1.60463">
        <ele>51.1</ele>
        <time>2020-06-22T19:51:17Z</time>
      </trkpt>
      <trkpt lat="50.85286" lon="1.6047">
        <ele>51.1</ele>
        <time>2020-06-22T19:51:18Z</time>
      </trkpt>
      <trkpt lat="50.85285" lon="1.60478">
        <ele>51.1</ele>
        <time>2020-06-22T19:51:19Z</time>
      </trkpt>
      <trkpt lat="50.85284" lon="1.60486">
        <ele>51.1</ele>
        <time>2020-06-22T19:51:20Z</time>
      </trkpt>
      <trkpt lat="50.85282" lon="1.60494">
        <ele>51.1</ele>
        <time>2020-06-22T19:51:21Z</time>
      </trkpt>
      <trkpt lat="50.85281" lon="1.60502">
        <ele>51.2</ele>
        <time>2020-06-22T19:51:22Z</time>
      </trkpt>
      <trkpt lat="50.85279" lon="1.60509">
        <ele>51.2</ele>
        <time>2020-06-22T19:51:23Z</time>
      </trkpt>
      <trkpt lat="50.85277" lon="1.60516">
        <ele>51.3</ele>
        <time>2020-06-22T19:51:24Z</time>
      </trkpt>
      <trkpt lat="50.85276" lon="1.60522">
        <ele>51.4</ele>
        <time>2020-06-22T19:51:25Z</time>
      </trkpt>
      <trkpt lat="50.85275" lon="1.60528">
        <ele>51.4</ele>
        <time>2020-06-22T19:51:26Z</time>
      </trkpt>
      <trkpt lat="50.85273" lon="1.60533">
        <ele>51.4</ele>
        <time>2020-06-22T19:51:27Z</time>
      </trkpt>
      <trkpt lat="50.85272" lon="1.60535">
        <ele>51.4</ele>
        <time>2020-06-22T19:51:28Z</time>
      </trkpt>
      <trkpt lat="50.85271" lon="1.60541">
        <ele>51.4</ele>
        <time>2020-06-22T19:51:29Z</time>
      </trkpt>
      <trkpt lat="50.85269" lon="1.6055">
        <ele>51.5</ele>
        <time>2020-06-22T19:51:30Z</time>
      </trkpt>
      <trkpt lat="50.85268" lon="1.60558">
        <ele>51.6</ele>
        <time>2020-06-22T19:51:31Z</time>
      </trkpt>
      <trkpt lat="50.85266" lon="1.60565">
        <ele>51.7</ele>
        <time>2020-06-22T19:51:32Z</time>
      </trkpt>
      <trkpt lat="50.85265" lon="1.6057">
        <ele>51.7</ele>
        <time>2020-06-22T19:51:33Z</time>
      </trkpt>
      <trkpt lat="50.85263" lon="1.60576">
        <ele>51.8</ele>
        <time>2020-06-22T19:51:34Z</time>
      </trkpt>
      <trkpt lat="50.85263" lon="1.60584">
        <ele>51.9</ele>
        <time>2020-06-22T19:51:35Z</time>
      </trkpt>
      <trkpt lat="50.85261" lon="1.60591">
        <ele>52</ele>
        <time>2020-06-22T19:51:36Z</time>
      </trkpt>
      <trkpt lat="50.8526" lon="1.60601">
        <ele>52.2</ele>
        <time>2020-06-22T19:51:37Z</time>
      </trkpt>
      <trkpt lat="50.85258" lon="1.60608">
        <ele>52.3</ele>
        <time>2020-06-22T19:51:38Z</time>
      </trkpt>
      <trkpt lat="50.85256" lon="1.60614">
        <ele>52.4</ele>
        <time>2020-06-22T19:51:39Z</time>
      </trkpt>
      <trkpt lat="50.85255" lon="1.60618">
        <ele>52.4</ele>
        <time>2020-06-22T19:51:40Z</time>
      </trkpt>
      <trkpt lat="50.85253" lon="1.60625">
        <ele>52.5</ele>
        <time>2020-06-22T19:51:41Z</time>
      </trkpt>
      <trkpt lat="50.85251" lon="1.60632">
        <ele>52.6</ele>
        <time>2020-06-22T19:51:42Z</time>
      </trkpt>
      <trkpt lat="50.8525" lon="1.60637">
        <ele>52.7</ele>
        <time>2020-06-22T19:51:43Z</time>
      </trkpt>
      <trkpt lat="50.85248" lon="1.60644">
        <ele>52.8</ele>
        <time>2020-06-22T19:51:44Z</time>
      </trkpt>
      <trkpt lat="50.85247" lon="1.60651">
        <ele>52.9</ele>
        <time>2020-06-22T19:51:45Z</time>
      </trkpt>
      <trkpt lat="50.85245" lon="1.60657">
        <ele>53.1</ele>
        <time>2020-06-22T19:51:46Z</time>
      </trkpt>
      <trkpt lat="50.85242" lon="1.60663">
        <ele>53.2</ele>
        <time>2020-06-22T19:51:47Z</time>
      </trkpt>
      <trkpt lat="50.8524" lon="1.60669">
        <ele>53.4</ele>
        <time>2020-06-22T19:51:48Z</time>
      </trkpt>
      <trkpt lat="50.85238" lon="1.60675">
        <ele>53.6</ele>
        <time>2020-06-22T19:51:49Z</time>
      </trkpt>
      <trkpt lat="50.85236" lon="1.60682">
        <ele>53.8</ele>
        <time>2020-06-22T19:51:50Z</time>
      </trkpt>
      <trkpt lat="50.85234" lon="1.60688">
        <ele>54</ele>
        <time>2020-06-22T19:51:51Z</time>
      </trkpt>
      <trkpt lat="50.85232" lon="1.60692">
        <ele>54.1</ele>
        <time>2020-06-22T19:51:52Z</time>
      </trkpt>
      <trkpt lat="50.85231" lon="1.60698">
        <ele>54.2</ele>
        <time>2020-06-22T19:51:53Z</time>
      </trkpt>
      <trkpt lat="50.85229" lon="1.60703">
        <ele>54.3</ele>
        <time>2020-06-22T19:51:54Z</time>
      </trkpt>
      <trkpt lat="50.85227" lon="1.60709">
        <ele>54.4</ele>
        <time>2020-06-22T19:51:55Z</time>
      </trkpt>
      <trkpt lat="50.85226" lon="1.60715">
        <ele>54.5</ele>
        <time>2020-06-22T19:51:56Z</time>
      </trkpt>
      <trkpt lat="50.85224" lon="1.60722">
        <ele>54.6</ele>
        <time>2020-06-22T19:51:57Z</time>
      </trkpt>
      <trkpt lat="50.85223" lon="1.60727">
        <ele>54.7</ele>
        <time>2020-06-22T19:51:58Z</time>
      </trkpt>
      <trkpt lat="50.85221" lon="1.60733">
        <ele>54.9</ele>
        <time>2020-06-22T19:51:59Z</time>
      </trkpt>
      <trkpt lat="50.85219" lon="1.6074">
        <ele>55</ele>
        <time>2020-06-22T19:52:00Z</time>
      </trkpt>
      <trkpt lat="50.85218" lon="1.60745">
        <ele>55.1</ele>
        <time>2020-06-22T19:52:01Z</time>
      </trkpt>
      <trkpt lat="50.85216" lon="1.60754">
        <ele>55.3</ele>
        <time>2020-06-22T19:52:02Z</time>
      </trkpt>
      <trkpt lat="50.85213" lon="1.6076">
        <ele>55.4</ele>
        <time>2020-06-22T19:52:03Z</time>
      </trkpt>
      <trkpt lat="50.85212" lon="1.60767">
        <ele>55.5</ele>
        <time>2020-06-22T19:52:04Z</time>
      </trkpt>
      <trkpt lat="50.8521" lon="1.60773">
        <ele>55.5</ele>
        <time>2020-06-22T19:52:05Z</time>
      </trkpt>
      <trkpt lat="50.85208" lon="1.6078">
        <ele>55.6</ele>
        <time>2020-06-22T19:52:06Z</time>
      </trkpt>
      <trkpt lat="50.85207" lon="1.60785">
        <ele>55.7</ele>
        <time>2020-06-22T19:52:07Z</time>
      </trkpt>
      <trkpt lat="50.85204" lon="1.60791">
        <ele>55.9</ele>
        <time>2020-06-22T19:52:08Z</time>
      </trkpt>
      <trkpt lat="50.85203" lon="1.60798">
        <ele>56</ele>
        <time>2020-06-22T19:52:09Z</time>
      </trkpt>
      <trkpt lat="50.852" lon="1.60806">
        <ele>56.2</ele>
        <time>2020-06-22T19:52:10Z</time>
      </trkpt>
      <trkpt lat="50.85198" lon="1.60813">
        <ele>56.3</ele>
        <time>2020-06-22T19:52:11Z</time>
      </trkpt>
      <trkpt lat="50.85196" lon="1.60821">
        <ele>56.4</ele>
        <time>2020-06-22T19:52:12Z</time>
      </trkpt>
      <trkpt lat="50.85193" lon="1.60828">
        <ele>56.6</ele>
        <time>2020-06-22T19:52:13Z</time>
      </trkpt>
      <trkpt lat="50.85191" lon="1.60835">
        <ele>56.6</ele>
        <time>2020-06-22T19:52:14Z</time>
      </trkpt>
      <trkpt lat="50.85188" lon="1.60842">
        <ele>56.6</ele>
        <time>2020-06-22T19:52:15Z</time>
      </trkpt>
      <trkpt lat="50.85185" lon="1.60848">
        <ele>56.5</ele>
        <time>2020-06-22T19:52:16Z</time>
      </trkpt>
      <trkpt lat="50.85183" lon="1.60856">
        <ele>56.4</ele>
        <time>2020-06-22T19:52:17Z</time>
      </trkpt>
      <trkpt lat="50.8518" lon="1.60862">
        <ele>56.5</ele>
        <time>2020-06-22T19:52:18Z</time>
      </trkpt>
      <trkpt lat="50.85178" lon="1.6087">
        <ele>56.6</ele>
        <time>2020-06-22T19:52:19Z</time>
      </trkpt>
      <trkpt lat="50.85176" lon="1.60877">
        <ele>56.7</ele>
        <time>2020-06-22T19:52:20Z</time>
      </trkpt>
      <trkpt lat="50.85175" lon="1.60884">
        <ele>56.8</ele>
        <time>2020-06-22T19:52:21Z</time>
      </trkpt>
      <trkpt lat="50.85173" lon="1.6089">
        <ele>56.9</ele>
        <time>2020-06-22T19:52:22Z</time>
      </trkpt>
      <trkpt lat="50.85171" lon="1.60897">
        <ele>57</ele>
        <time>2020-06-22T19:52:23Z</time>
      </trkpt>
      <trkpt lat="50.85169" lon="1.60903">
        <ele>57.2</ele>
        <time>2020-06-22T19:52:24Z</time>
      </trkpt>
      <trkpt lat="50.85167" lon="1.6091">
        <ele>57.3</ele>
        <time>2020-06-22T19:52:25Z</time>
      </trkpt>
      <trkpt lat="50.85166" lon="1.60915">
        <ele>57.4</ele>
        <time>2020-06-22T19:52:26Z</time>
      </trkpt>
      <trkpt lat="50.85165" lon="1.60922">
        <ele>57.5</ele>
        <time>2020-06-22T19:52:27Z</time>
      </trkpt>
      <trkpt lat="50.85163" lon="1.60929">
        <ele>57.7</ele>
        <time>2020-06-22T19:52:28Z</time>
      </trkpt>
      <trkpt lat="50.85163" lon="1.60935">
        <ele>57.8</ele>
        <time>2020-06-22T19:52:29Z</time>
      </trkpt>
      <trkpt lat="50.85162" lon="1.60941">
        <ele>57.9</ele>
        <time>2020-06-22T19:52:30Z</time>
      </trkpt>
      <trkpt lat="50.85161" lon="1.60947">
        <ele>58</ele>
        <time>2020-06-22T19:52:31Z</time>
      </trkpt>
      <trkpt lat="50.85159" lon="1.60953">
        <ele>58.1</ele>
        <time>2020-06-22T19:52:32Z</time>
      </trkpt>
      <trkpt lat="50.85157" lon="1.60958">
        <ele>58.2</ele>
        <time>2020-06-22T19:52:33Z</time>
      </trkpt>
      <trkpt lat="50.85156" lon="1.60962">
        <ele>58.3</ele>
        <time>2020-06-22T19:52:34Z</time>
      </trkpt>
      <trkpt lat="50.85153" lon="1.60969">
        <ele>58.5</ele>
        <time>2020-06-22T19:52:35Z</time>
      </trkpt>
      <trkpt lat="50.85151" lon="1.60975">
        <ele>58.7</ele>
        <time>2020-06-22T19:52:36Z</time>
      </trkpt>
      <trkpt lat="50.85149" lon="1.6098">
        <ele>58.9</ele>
        <time>2020-06-22T19:52:37Z</time>
      </trkpt>
      <trkpt lat="50.85146" lon="1.60985">
        <ele>59.1</ele>
        <time>2020-06-22T19:52:38Z</time>
      </trkpt>
      <trkpt lat="50.85144" lon="1.6099">
        <ele>59.2</ele>
        <time>2020-06-22T19:52:39Z</time>
      </trkpt>
      <trkpt lat="50.85141" lon="1.60993">
        <ele>59.4</ele>
        <time>2020-06-22T19:52:40Z</time>
      </trkpt>
      <trkpt lat="50.85137" lon="1.60996">
        <ele>59.6</ele>
        <time>2020-06-22T19:52:41Z</time>
      </trkpt>
      <trkpt lat="50.85133" lon="1.60998">
        <ele>59.7</ele>
        <time>2020-06-22T19:52:42Z</time>
      </trkpt>
      <trkpt lat="50.85129" lon="1.61004">
        <ele>59.9</ele>
        <time>2020-06-22T19:52:43Z</time>
      </trkpt>
      <trkpt lat="50.85126" lon="1.61009">
        <ele>60.1</ele>
        <time>2020-06-22T19:52:44Z</time>
      </trkpt>
      <trkpt lat="50.85123" lon="1.61013">
        <ele>60.3</ele>
        <time>2020-06-22T19:52:45Z</time>
      </trkpt>
      <trkpt lat="50.85121" lon="1.61018">
        <ele>60.4</ele>
        <time>2020-06-22T19:52:46Z</time>
      </trkpt>
      <trkpt lat="50.85118" lon="1.61021">
        <ele>60.5</ele>
        <time>2020-06-22T19:52:47Z</time>
      </trkpt>
      <trkpt lat="50.85114" lon="1.61025">
        <ele>60.7</ele>
        <time>2020-06-22T19:52:48Z</time>
      </trkpt>
      <trkpt lat="50.85111" lon="1.61028">
        <ele>60.9</ele>
        <time>2020-06-22T19:52:49Z</time>
      </trkpt>
      <trkpt lat="50.85108" lon="1.61033">
        <ele>61</ele>
        <time>2020-06-22T19:52:50Z</time>
      </trkpt>
      <trkpt lat="50.85107" lon="1.61035">
        <ele>61.1</ele>
        <time>2020-06-22T19:52:51Z</time>
      </trkpt>
      <trkpt lat="50.85104" lon="1.61038">
        <ele>61.2</ele>
        <time>2020-06-22T19:52:52Z</time>
      </trkpt>
      <trkpt lat="50.85102" lon="1.61041">
        <ele>61.3</ele>
        <time>2020-06-22T19:52:53Z</time>
      </trkpt>
      <trkpt lat="50.85099" lon="1.61045">
        <ele>61.5</ele>
        <time>2020-06-22T19:52:54Z</time>
      </trkpt>
      <trkpt lat="50.85098" lon="1.61047">
        <ele>61.5</ele>
        <time>2020-06-22T19:52:55Z</time>
      </trkpt>
      <trkpt lat="50.85094" lon="1.61051">
        <ele>61.7</ele>
        <time>2020-06-22T19:52:56Z</time>
      </trkpt>
      <trkpt lat="50.85092" lon="1.61055">
        <ele>61.8</ele>
        <time>2020-06-22T19:52:57Z</time>
      </trkpt>
      <trkpt lat="50.85088" lon="1.6106">
        <ele>62</ele>
        <time>2020-06-22T19:52:58Z</time>
      </trkpt>
      <trkpt lat="50.85086" lon="1.61062">
        <ele>62.1</ele>
        <time>2020-06-22T19:52:59Z</time>
      </trkpt>
      <trkpt lat="50.85083" lon="1.61066">
        <ele>62.2</ele>
        <time>2020-06-22T19:53:00Z</time>
      </trkpt>
      <trkpt lat="50.85081" lon="1.61069">
        <ele>62.4</ele>
        <time>2020-06-22T19:53:01Z</time>
      </trkpt>
      <trkpt lat="50.85078" lon="1.61073">
        <ele>62.5</ele>
        <time>2020-06-22T19:53:02Z</time>
      </trkpt>
      <trkpt lat="50.85075" lon="1.61077">
        <ele>62.7</ele>
        <time>2020-06-22T19:53:03Z</time>
      </trkpt>
      <trkpt lat="50.85073" lon="1.61081">
        <ele>62.7</ele>
        <time>2020-06-22T19:53:04Z</time>
      </trkpt>
      <trkpt lat="50.85072" lon="1.61082">
        <ele>62.8</ele>
        <time>2020-06-22T19:53:05Z</time>
      </trkpt>
      <trkpt lat="50.85073" lon="1.61087">
        <ele>62.9</ele>
        <time>2020-06-22T19:53:06Z</time>
      </trkpt>
      <trkpt lat="50.85075" lon="1.61091">
        <ele>62.8</ele>
        <time>2020-06-22T19:53:07Z</time>
      </trkpt>
      <trkpt lat="50.85078" lon="1.61094">
        <ele>62.8</ele>
        <time>2020-06-22T19:53:08Z</time>
      </trkpt>
      <trkpt lat="50.85082" lon="1.61098">
        <ele>62.7</ele>
        <time>2020-06-22T19:53:09Z</time>
      </trkpt>
      <trkpt lat="50.85086" lon="1.611">
        <ele>62.7</ele>
        <time>2020-06-22T19:53:10Z</time>
      </trkpt>
      <trkpt lat="50.8509" lon="1.61103">
        <ele>62.6</ele>
        <time>2020-06-22T19:53:11Z</time>
      </trkpt>
      <trkpt lat="50.85094" lon="1.61107">
        <ele>62.5</ele>
        <time>2020-06-22T19:53:12Z</time>
      </trkpt>
      <trkpt lat="50.85098" lon="1.61111">
        <ele>62.5</ele>
        <time>2020-06-22T19:53:13Z</time>
      </trkpt>
      <trkpt lat="50.85101" lon="1.61115">
        <ele>62.4</ele>
        <time>2020-06-22T19:53:14Z</time>
      </trkpt>
      <trkpt lat="50.85104" lon="1.6112">
        <ele>62.3</ele>
        <time>2020-06-22T19:53:15Z</time>
      </trkpt>
      <trkpt lat="50.85107" lon="1.61124">
        <ele>62.3</ele>
        <time>2020-06-22T19:53:16Z</time>
      </trkpt>
      <trkpt lat="50.85111" lon="1.6113">
        <ele>62.2</ele>
        <time>2020-06-22T19:53:17Z</time>
      </trkpt>
      <trkpt lat="50.85114" lon="1.61134">
        <ele>62.1</ele>
        <time>2020-06-22T19:53:18Z</time>
      </trkpt>
      <trkpt lat="50.85119" lon="1.61139">
        <ele>62.1</ele>
        <time>2020-06-22T19:53:19Z</time>
      </trkpt>
      <trkpt lat="50.85123" lon="1.61145">
        <ele>62</ele>
        <time>2020-06-22T19:53:20Z</time>
      </trkpt>
      <trkpt lat="50.85127" lon="1.6115">
        <ele>62</ele>
        <time>2020-06-22T19:53:21Z</time>
      </trkpt>
      <trkpt lat="50.85132" lon="1.61156">
        <ele>61.9</ele>
        <time>2020-06-22T19:53:22Z</time>
      </trkpt>
      <trkpt lat="50.85136" lon="1.61162">
        <ele>62</ele>
        <time>2020-06-22T19:53:23Z</time>
      </trkpt>
      <trkpt lat="50.8514" lon="1.61169">
        <ele>62</ele>
        <time>2020-06-22T19:53:24Z</time>
      </trkpt>
      <trkpt lat="50.85144" lon="1.61175">
        <ele>62</ele>
        <time>2020-06-22T19:53:25Z</time>
      </trkpt>
      <trkpt lat="50.85148" lon="1.6118">
        <ele>62</ele>
        <time>2020-06-22T19:53:26Z</time>
      </trkpt>
      <trkpt lat="50.85152" lon="1.61186">
        <ele>62.1</ele>
        <time>2020-06-22T19:53:27Z</time>
      </trkpt>
      <trkpt lat="50.85156" lon="1.61192">
        <ele>61.9</ele>
        <time>2020-06-22T19:53:28Z</time>
      </trkpt>
      <trkpt lat="50.85161" lon="1.61199">
        <ele>61.7</ele>
        <time>2020-06-22T19:53:29Z</time>
      </trkpt>
      <trkpt lat="50.85164" lon="1.61203">
        <ele>61.6</ele>
        <time>2020-06-22T19:53:30Z</time>
      </trkpt>
      <trkpt lat="50.85169" lon="1.61209">
        <ele>61.4</ele>
        <time>2020-06-22T19:53:31Z</time>
      </trkpt>
      <trkpt lat="50.85174" lon="1.61216">
        <ele>61.3</ele>
        <time>2020-06-22T19:53:32Z</time>
      </trkpt>
      <trkpt lat="50.85179" lon="1.61222">
        <ele>61.1</ele>
        <time>2020-06-22T19:53:33Z</time>
      </trkpt>
      <trkpt lat="50.85183" lon="1.61227">
        <ele>61</ele>
        <time>2020-06-22T19:53:34Z</time>
      </trkpt>
      <trkpt lat="50.85188" lon="1.61234">
        <ele>60.7</ele>
        <time>2020-06-22T19:53:35Z</time>
      </trkpt>
      <trkpt lat="50.85193" lon="1.6124">
        <ele>60.6</ele>
        <time>2020-06-22T19:53:36Z</time>
      </trkpt>
      <trkpt lat="50.85199" lon="1.61248">
        <ele>60.5</ele>
        <time>2020-06-22T19:53:37Z</time>
      </trkpt>
      <trkpt lat="50.85202" lon="1.61255">
        <ele>60.4</ele>
        <time>2020-06-22T19:53:38Z</time>
      </trkpt>
      <trkpt lat="50.85207" lon="1.61261">
        <ele>60.4</ele>
        <time>2020-06-22T19:53:39Z</time>
      </trkpt>
      <trkpt lat="50.85212" lon="1.61267">
        <ele>60.3</ele>
        <time>2020-06-22T19:53:40Z</time>
      </trkpt>
      <trkpt lat="50.85217" lon="1.61273">
        <ele>60.2</ele>
        <time>2020-06-22T19:53:41Z</time>
      </trkpt>
      <trkpt lat="50.85221" lon="1.61277">
        <ele>60.1</ele>
        <time>2020-06-22T19:53:42Z</time>
      </trkpt>
      <trkpt lat="50.85226" lon="1.61283">
        <ele>60</ele>
        <time>2020-06-22T19:53:43Z</time>
      </trkpt>
      <trkpt lat="50.8523" lon="1.6129">
        <ele>59.9</ele>
        <time>2020-06-22T19:53:44Z</time>
      </trkpt>
      <trkpt lat="50.85235" lon="1.61297">
        <ele>59.9</ele>
        <time>2020-06-22T19:53:45Z</time>
      </trkpt>
      <trkpt lat="50.85239" lon="1.61303">
        <ele>59.8</ele>
        <time>2020-06-22T19:53:46Z</time>
      </trkpt>
      <trkpt lat="50.85244" lon="1.61308">
        <ele>59.7</ele>
        <time>2020-06-22T19:53:47Z</time>
      </trkpt>
      <trkpt lat="50.8525" lon="1.61314">
        <ele>59.5</ele>
        <time>2020-06-22T19:53:48Z</time>
      </trkpt>
      <trkpt lat="50.85257" lon="1.61319">
        <ele>59.4</ele>
        <time>2020-06-22T19:53:49Z</time>
      </trkpt>
      <trkpt lat="50.85264" lon="1.61323">
        <ele>59.3</ele>
        <time>2020-06-22T19:53:50Z</time>
      </trkpt>
      <trkpt lat="50.85269" lon="1.61327">
        <ele>59.1</ele>
        <time>2020-06-22T19:53:51Z</time>
      </trkpt>
      <trkpt lat="50.85275" lon="1.61333">
        <ele>59</ele>
        <time>2020-06-22T19:53:52Z</time>
      </trkpt>
      <trkpt lat="50.8528" lon="1.61337">
        <ele>58.9</ele>
        <time>2020-06-22T19:53:53Z</time>
      </trkpt>
      <trkpt lat="50.85285" lon="1.61343">
        <ele>58.7</ele>
        <time>2020-06-22T19:53:54Z</time>
      </trkpt>
      <trkpt lat="50.85291" lon="1.61348">
        <ele>58.6</ele>
        <time>2020-06-22T19:53:55Z</time>
      </trkpt>
      <trkpt lat="50.85295" lon="1.61353">
        <ele>58.5</ele>
        <time>2020-06-22T19:53:56Z</time>
      </trkpt>
      <trkpt lat="50.85301" lon="1.61359">
        <ele>58.4</ele>
        <time>2020-06-22T19:53:57Z</time>
      </trkpt>
      <trkpt lat="50.85305" lon="1.61363">
        <ele>58.3</ele>
        <time>2020-06-22T19:53:58Z</time>
      </trkpt>
      <trkpt lat="50.85309" lon="1.61367">
        <ele>58.3</ele>
        <time>2020-06-22T19:53:59Z</time>
      </trkpt>
      <trkpt lat="50.85314" lon="1.61372">
        <ele>58.2</ele>
        <time>2020-06-22T19:54:00Z</time>
      </trkpt>
      <trkpt lat="50.85319" lon="1.61376">
        <ele>58.1</ele>
        <time>2020-06-22T19:54:01Z</time>
      </trkpt>
      <trkpt lat="50.85323" lon="1.61381">
        <ele>58</ele>
        <time>2020-06-22T19:54:02Z</time>
      </trkpt>
      <trkpt lat="50.85328" lon="1.61386">
        <ele>58</ele>
        <time>2020-06-22T19:54:03Z</time>
      </trkpt>
      <trkpt lat="50.85333" lon="1.61391">
        <ele>57.9</ele>
        <time>2020-06-22T19:54:04Z</time>
      </trkpt>
      <trkpt lat="50.85338" lon="1.61395">
        <ele>57.9</ele>
        <time>2020-06-22T19:54:05Z</time>
      </trkpt>
      <trkpt lat="50.85342" lon="1.614">
        <ele>57.8</ele>
        <time>2020-06-22T19:54:06Z</time>
      </trkpt>
      <trkpt lat="50.85346" lon="1.61402">
        <ele>57.8</ele>
        <time>2020-06-22T19:54:07Z</time>
      </trkpt>
      <trkpt lat="50.85349" lon="1.614">
        <ele>57.4</ele>
        <time>2020-06-22T19:54:08Z</time>
      </trkpt>
      <trkpt lat="50.85351" lon="1.61399">
        <ele>57.3</ele>
        <time>2020-06-22T19:54:09Z</time>
      </trkpt>
      <trkpt lat="50.8535" lon="1.61393">
        <ele>57.2</ele>
        <time>2020-06-22T19:54:10Z</time>
      </trkpt>
      <trkpt lat="50.85348" lon="1.61389">
        <ele>57.4</ele>
        <time>2020-06-22T19:54:11Z</time>
      </trkpt>
      <trkpt lat="50.85347" lon="1.61388">
        <ele>57.4</ele>
        <time>2020-06-22T19:54:12Z</time>
      </trkpt>
      <trkpt lat="50.85343" lon="1.61384">
        <ele>57.5</ele>
        <time>2020-06-22T19:54:13Z</time>
      </trkpt>
      <trkpt lat="50.85338" lon="1.6138">
        <ele>57.6</ele>
        <time>2020-06-22T19:54:14Z</time>
      </trkpt>
      <trkpt lat="50.85331" lon="1.61375">
        <ele>57.7</ele>
        <time>2020-06-22T19:54:15Z</time>
      </trkpt>
      <trkpt lat="50.85325" lon="1.6137">
        <ele>57.8</ele>
        <time>2020-06-22T19:54:16Z</time>
      </trkpt>
      <trkpt lat="50.8532" lon="1.61368">
        <ele>57.9</ele>
        <time>2020-06-22T19:54:17Z</time>
      </trkpt>
      <trkpt lat="50.85314" lon="1.61364">
        <ele>57.9</ele>
        <time>2020-06-22T19:54:18Z</time>
      </trkpt>
      <trkpt lat="50.85309" lon="1.6136">
        <ele>58</ele>
        <time>2020-06-22T19:54:19Z</time>
      </trkpt>
      <trkpt lat="50.85304" lon="1.61356">
        <ele>58.1</ele>
        <time>2020-06-22T19:54:20Z</time>
      </trkpt>
      <trkpt lat="50.853" lon="1.61352">
        <ele>58.2</ele>
        <time>2020-06-22T19:54:21Z</time>
      </trkpt>
      <trkpt lat="50.85295" lon="1.61345">
        <ele>58.3</ele>
        <time>2020-06-22T19:54:22Z</time>
      </trkpt>
      <trkpt lat="50.8529" lon="1.61339">
        <ele>58.4</ele>
        <time>2020-06-22T19:54:23Z</time>
      </trkpt>
      <trkpt lat="50.85286" lon="1.61336">
        <ele>58.5</ele>
        <time>2020-06-22T19:54:24Z</time>
      </trkpt>
      <trkpt lat="50.85281" lon="1.61333">
        <ele>58.6</ele>
        <time>2020-06-22T19:54:25Z</time>
      </trkpt>
      <trkpt lat="50.85277" lon="1.61329">
        <ele>58.8</ele>
        <time>2020-06-22T19:54:26Z</time>
      </trkpt>
      <trkpt lat="50.85272" lon="1.61323">
        <ele>58.9</ele>
        <time>2020-06-22T19:54:27Z</time>
      </trkpt>
      <trkpt lat="50.85268" lon="1.61319">
        <ele>59</ele>
        <time>2020-06-22T19:54:28Z</time>
      </trkpt>
      <trkpt lat="50.85264" lon="1.61315">
        <ele>59.1</ele>
        <time>2020-06-22T19:54:29Z</time>
      </trkpt>
      <trkpt lat="50.85259" lon="1.61309">
        <ele>59.2</ele>
        <time>2020-06-22T19:54:30Z</time>
      </trkpt>
      <trkpt lat="50.85255" lon="1.61304">
        <ele>59.2</ele>
        <time>2020-06-22T19:54:31Z</time>
      </trkpt>
      <trkpt lat="50.8525" lon="1.61299">
        <ele>59.3</ele>
        <time>2020-06-22T19:54:32Z</time>
      </trkpt>
      <trkpt lat="50.85245" lon="1.61294">
        <ele>59.4</ele>
        <time>2020-06-22T19:54:33Z</time>
      </trkpt>
      <trkpt lat="50.8524" lon="1.61289">
        <ele>59.6</ele>
        <time>2020-06-22T19:54:34Z</time>
      </trkpt>
      <trkpt lat="50.85235" lon="1.61283">
        <ele>59.7</ele>
        <time>2020-06-22T19:54:35Z</time>
      </trkpt>
      <trkpt lat="50.8523" lon="1.61279">
        <ele>59.9</ele>
        <time>2020-06-22T19:54:36Z</time>
      </trkpt>
      <trkpt lat="50.85226" lon="1.61275">
        <ele>60</ele>
        <time>2020-06-22T19:54:37Z</time>
      </trkpt>
      <trkpt lat="50.85221" lon="1.6127">
        <ele>60.1</ele>
        <time>2020-06-22T19:54:38Z</time>
      </trkpt>
      <trkpt lat="50.85217" lon="1.61265">
        <ele>60.2</ele>
        <time>2020-06-22T19:54:39Z</time>
      </trkpt>
      <trkpt lat="50.85212" lon="1.61261">
        <ele>60.3</ele>
        <time>2020-06-22T19:54:40Z</time>
      </trkpt>
      <trkpt lat="50.85208" lon="1.61257">
        <ele>60.4</ele>
        <time>2020-06-22T19:54:41Z</time>
      </trkpt>
      <trkpt lat="50.85204" lon="1.61252">
        <ele>60.5</ele>
        <time>2020-06-22T19:54:42Z</time>
      </trkpt>
      <trkpt lat="50.852" lon="1.61246">
        <ele>60.6</ele>
        <time>2020-06-22T19:54:43Z</time>
      </trkpt>
      <trkpt lat="50.85197" lon="1.61242">
        <ele>60.6</ele>
        <time>2020-06-22T19:54:44Z</time>
      </trkpt>
      <trkpt lat="50.85194" lon="1.6124">
        <ele>60.7</ele>
        <time>2020-06-22T19:54:45Z</time>
      </trkpt>
      <trkpt lat="50.8519" lon="1.61243">
        <ele>60.7</ele>
        <time>2020-06-22T19:54:46Z</time>
      </trkpt>
      <trkpt lat="50.85187" lon="1.61249">
        <ele>60.8</ele>
        <time>2020-06-22T19:54:47Z</time>
      </trkpt>
      <trkpt lat="50.85185" lon="1.61255">
        <ele>60.8</ele>
        <time>2020-06-22T19:54:48Z</time>
      </trkpt>
      <trkpt lat="50.85182" lon="1.61261">
        <ele>60.8</ele>
        <time>2020-06-22T19:54:49Z</time>
      </trkpt>
      <trkpt lat="50.8518" lon="1.61265">
        <ele>60.8</ele>
        <time>2020-06-22T19:54:50Z</time>
      </trkpt>
      <trkpt lat="50.85178" lon="1.6127">
        <ele>60.8</ele>
        <time>2020-06-22T19:54:51Z</time>
      </trkpt>
      <trkpt lat="50.85176" lon="1.61272">
        <ele>60.7</ele>
        <time>2020-06-22T19:54:52Z</time>
      </trkpt>
      <trkpt lat="50.85174" lon="1.61278">
        <ele>60.7</ele>
        <time>2020-06-22T19:54:53Z</time>
      </trkpt>
      <trkpt lat="50.85172" lon="1.61283">
        <ele>60.7</ele>
        <time>2020-06-22T19:54:54Z</time>
      </trkpt>
      <trkpt lat="50.85169" lon="1.61289">
        <ele>60.7</ele>
        <time>2020-06-22T19:54:55Z</time>
      </trkpt>
      <trkpt lat="50.85167" lon="1.61296">
        <ele>60.8</ele>
        <time>2020-06-22T19:54:56Z</time>
      </trkpt>
      <trkpt lat="50.85164" lon="1.61301">
        <ele>60.8</ele>
        <time>2020-06-22T19:54:57Z</time>
      </trkpt>
      <trkpt lat="50.85163" lon="1.61306">
        <ele>60.8</ele>
        <time>2020-06-22T19:54:58Z</time>
      </trkpt>
      <trkpt lat="50.85163" lon="1.61313">
        <ele>60.8</ele>
        <time>2020-06-22T19:54:59Z</time>
      </trkpt>
      <trkpt lat="50.85163" lon="1.61317">
        <ele>60.8</ele>
        <time>2020-06-22T19:55:00Z</time>
      </trkpt>
      <trkpt lat="50.85166" lon="1.61325">
        <ele>60.8</ele>
        <time>2020-06-22T19:55:01Z</time>
      </trkpt>
      <trkpt lat="50.85169" lon="1.61329">
        <ele>60.8</ele>
        <time>2020-06-22T19:55:02Z</time>
      </trkpt>
      <trkpt lat="50.85172" lon="1.61335">
        <ele>60.7</ele>
        <time>2020-06-22T19:55:03Z</time>
      </trkpt>
      <trkpt lat="50.85176" lon="1.6134">
        <ele>60.7</ele>
        <time>2020-06-22T19:55:04Z</time>
      </trkpt>
      <trkpt lat="50.8518" lon="1.61345">
        <ele>60.7</ele>
        <time>2020-06-22T19:55:05Z</time>
      </trkpt>
      <trkpt lat="50.85183" lon="1.61349">
        <ele>60.6</ele>
        <time>2020-06-22T19:55:06Z</time>
      </trkpt>
      <trkpt lat="50.85187" lon="1.61354">
        <ele>60.6</ele>
        <time>2020-06-22T19:55:07Z</time>
      </trkpt>
      <trkpt lat="50.8519" lon="1.61358">
        <ele>60.5</ele>
        <time>2020-06-22T19:55:08Z</time>
      </trkpt>
      <trkpt lat="50.85195" lon="1.61361">
        <ele>60.5</ele>
        <time>2020-06-22T19:55:09Z</time>
      </trkpt>
      <trkpt lat="50.85199" lon="1.61365">
        <ele>60.4</ele>
        <time>2020-06-22T19:55:10Z</time>
      </trkpt>
      <trkpt lat="50.85204" lon="1.61369">
        <ele>60.4</ele>
        <time>2020-06-22T19:55:11Z</time>
      </trkpt>
      <trkpt lat="50.85208" lon="1.61372">
        <ele>60.3</ele>
        <time>2020-06-22T19:55:12Z</time>
      </trkpt>
      <trkpt lat="50.85214" lon="1.61377">
        <ele>60.2</ele>
        <time>2020-06-22T19:55:13Z</time>
      </trkpt>
      <trkpt lat="50.85217" lon="1.61381">
        <ele>60.1</ele>
        <time>2020-06-22T19:55:14Z</time>
      </trkpt>
      <trkpt lat="50.85222" lon="1.61385">
        <ele>60</ele>
        <time>2020-06-22T19:55:15Z</time>
      </trkpt>
      <trkpt lat="50.85225" lon="1.61388">
        <ele>59.9</ele>
        <time>2020-06-22T19:55:16Z</time>
      </trkpt>
      <trkpt lat="50.85229" lon="1.61392">
        <ele>59.9</ele>
        <time>2020-06-22T19:55:17Z</time>
      </trkpt>
      <trkpt lat="50.85233" lon="1.61397">
        <ele>59.8</ele>
        <time>2020-06-22T19:55:18Z</time>
      </trkpt>
      <trkpt lat="50.85236" lon="1.61402">
        <ele>59.7</ele>
        <time>2020-06-22T19:55:19Z</time>
      </trkpt>
      <trkpt lat="50.85239" lon="1.61409">
        <ele>59.5</ele>
        <time>2020-06-22T19:55:20Z</time>
      </trkpt>
      <trkpt lat="50.85239" lon="1.61419">
        <ele>59.3</ele>
        <time>2020-06-22T19:55:21Z</time>
      </trkpt>
      <trkpt lat="50.85238" lon="1.61428">
        <ele>59.1</ele>
        <time>2020-06-22T19:55:22Z</time>
      </trkpt>
      <trkpt lat="50.85237" lon="1.61436">
        <ele>58.8</ele>
        <time>2020-06-22T19:55:23Z</time>
      </trkpt>
      <trkpt lat="50.85236" lon="1.61445">
        <ele>58.5</ele>
        <time>2020-06-22T19:55:24Z</time>
      </trkpt>
      <trkpt lat="50.85235" lon="1.61455">
        <ele>58.1</ele>
        <time>2020-06-22T19:55:25Z</time>
      </trkpt>
      <trkpt lat="50.85234" lon="1.61465">
        <ele>57.7</ele>
        <time>2020-06-22T19:55:26Z</time>
      </trkpt>
      <trkpt lat="50.85231" lon="1.61476">
        <ele>57.1</ele>
        <time>2020-06-22T19:55:27Z</time>
      </trkpt>
      <trkpt lat="50.85229" lon="1.61487">
        <ele>56.6</ele>
        <time>2020-06-22T19:55:28Z</time>
      </trkpt>
      <trkpt lat="50.85228" lon="1.61498">
        <ele>56</ele>
        <time>2020-06-22T19:55:29Z</time>
      </trkpt>
      <trkpt lat="50.85227" lon="1.61512">
        <ele>55.3</ele>
        <time>2020-06-22T19:55:30Z</time>
      </trkpt>
      <trkpt lat="50.85226" lon="1.61524">
        <ele>54.7</ele>
        <time>2020-06-22T19:55:31Z</time>
      </trkpt>
      <trkpt lat="50.85225" lon="1.61538">
        <ele>53.8</ele>
        <time>2020-06-22T19:55:32Z</time>
      </trkpt>
      <trkpt lat="50.85223" lon="1.61548">
        <ele>53.1</ele>
        <time>2020-06-22T19:55:33Z</time>
      </trkpt>
      <trkpt lat="50.85222" lon="1.61557">
        <ele>52.5</ele>
        <time>2020-06-22T19:55:34Z</time>
      </trkpt>
      <trkpt lat="50.85221" lon="1.61563">
        <ele>52</ele>
        <time>2020-06-22T19:55:35Z</time>
      </trkpt>
      <trkpt lat="50.8522" lon="1.6157">
        <ele>51.2</ele>
        <time>2020-06-22T19:55:36Z</time>
      </trkpt>
      <trkpt lat="50.85219" lon="1.61577">
        <ele>50.7</ele>
        <time>2020-06-22T19:55:37Z</time>
      </trkpt>
      <trkpt lat="50.85217" lon="1.61586">
        <ele>49.7</ele>
        <time>2020-06-22T19:55:38Z</time>
      </trkpt>
      <trkpt lat="50.85214" lon="1.61598">
        <ele>48.5</ele>
        <time>2020-06-22T19:55:39Z</time>
      </trkpt>
      <trkpt lat="50.85212" lon="1.6161">
        <ele>47.2</ele>
        <time>2020-06-22T19:55:40Z</time>
      </trkpt>
      <trkpt lat="50.8521" lon="1.61624">
        <ele>45.7</ele>
        <time>2020-06-22T19:55:41Z</time>
      </trkpt>
      <trkpt lat="50.8521" lon="1.61643">
        <ele>44.2</ele>
        <time>2020-06-22T19:55:42Z</time>
      </trkpt>
      <trkpt lat="50.85208" lon="1.6166">
        <ele>42.9</ele>
        <time>2020-06-22T19:55:43Z</time>
      </trkpt>
      <trkpt lat="50.85207" lon="1.61684">
        <ele>41.8</ele>
        <time>2020-06-22T19:55:44Z</time>
      </trkpt>
      <trkpt lat="50.85206" lon="1.61703">
        <ele>41.4</ele>
        <time>2020-06-22T19:55:45Z</time>
      </trkpt>
      <trkpt lat="50.85206" lon="1.6172">
        <ele>41.4</ele>
        <time>2020-06-22T19:55:46Z</time>
      </trkpt>
      <trkpt lat="50.85206" lon="1.61735">
        <ele>41.6</ele>
        <time>2020-06-22T19:55:47Z</time>
      </trkpt>
      <trkpt lat="50.85208" lon="1.61748">
        <ele>41.9</ele>
        <time>2020-06-22T19:55:48Z</time>
      </trkpt>
      <trkpt lat="50.85212" lon="1.61759">
        <ele>42.3</ele>
        <time>2020-06-22T19:55:49Z</time>
      </trkpt>
      <trkpt lat="50.85217" lon="1.61765">
        <ele>42.8</ele>
        <time>2020-06-22T19:55:50Z</time>
      </trkpt>
      <trkpt lat="50.85223" lon="1.61771">
        <ele>43.4</ele>
        <time>2020-06-22T19:55:51Z</time>
      </trkpt>
      <trkpt lat="50.85226" lon="1.61777">
        <ele>44</ele>
        <time>2020-06-22T19:55:52Z</time>
      </trkpt>
      <trkpt lat="50.85229" lon="1.61784">
        <ele>44.5</ele>
        <time>2020-06-22T19:55:53Z</time>
      </trkpt>
      <trkpt lat="50.8523" lon="1.61789">
        <ele>45</ele>
        <time>2020-06-22T19:55:54Z</time>
      </trkpt>
      <trkpt lat="50.8523" lon="1.61795">
        <ele>45.4</ele>
        <time>2020-06-22T19:55:55Z</time>
      </trkpt>
      <trkpt lat="50.85231" lon="1.618">
        <ele>45.8</ele>
        <time>2020-06-22T19:55:56Z</time>
      </trkpt>
      <trkpt lat="50.85231" lon="1.61805">
        <ele>46.1</ele>
        <time>2020-06-22T19:55:57Z</time>
      </trkpt>
      <trkpt lat="50.85231" lon="1.6181">
        <ele>46.6</ele>
        <time>2020-06-22T19:55:58Z</time>
      </trkpt>
      <trkpt lat="50.8523" lon="1.61811">
        <ele>46.7</ele>
        <time>2020-06-22T19:55:59Z</time>
      </trkpt>
      <trkpt lat="50.85229" lon="1.61816">
        <ele>47</ele>
        <time>2020-06-22T19:56:00Z</time>
      </trkpt>
      <trkpt lat="50.85229" lon="1.61817">
        <ele>47.2</ele>
        <time>2020-06-22T19:56:01Z</time>
      </trkpt>
      <trkpt lat="50.85229" lon="1.61823">
        <ele>47.7</ele>
        <time>2020-06-22T19:56:02Z</time>
      </trkpt>
      <trkpt lat="50.85229" lon="1.61825">
        <ele>47.8</ele>
        <time>2020-06-22T19:56:03Z</time>
      </trkpt>
      <trkpt lat="50.85228" lon="1.61831">
        <ele>48.3</ele>
        <time>2020-06-22T19:56:04Z</time>
      </trkpt>
      <trkpt lat="50.85227" lon="1.61833">
        <ele>48.5</ele>
        <time>2020-06-22T19:56:05Z</time>
      </trkpt>
      <trkpt lat="50.85227" lon="1.61838">
        <ele>48.9</ele>
        <time>2020-06-22T19:56:06Z</time>
      </trkpt>
      <trkpt lat="50.85226" lon="1.6184">
        <ele>49.1</ele>
        <time>2020-06-22T19:56:07Z</time>
      </trkpt>
      <trkpt lat="50.85225" lon="1.61845">
        <ele>49.5</ele>
        <time>2020-06-22T19:56:08Z</time>
      </trkpt>
      <trkpt lat="50.85224" lon="1.61847">
        <ele>49.7</ele>
        <time>2020-06-22T19:56:09Z</time>
      </trkpt>
      <trkpt lat="50.85223" lon="1.61851">
        <ele>50.1</ele>
        <time>2020-06-22T19:56:10Z</time>
      </trkpt>
      <trkpt lat="50.85223" lon="1.61853">
        <ele>50.2</ele>
        <time>2020-06-22T19:56:11Z</time>
      </trkpt>
      <trkpt lat="50.85222" lon="1.61858">
        <ele>50.6</ele>
        <time>2020-06-22T19:56:12Z</time>
      </trkpt>
      <trkpt lat="50.85222" lon="1.6186">
        <ele>50.8</ele>
        <time>2020-06-22T19:56:13Z</time>
      </trkpt>
      <trkpt lat="50.85222" lon="1.61866">
        <ele>51.3</ele>
        <time>2020-06-22T19:56:14Z</time>
      </trkpt>
      <trkpt lat="50.85221" lon="1.61868">
        <ele>51.5</ele>
        <time>2020-06-22T19:56:15Z</time>
      </trkpt>
      <trkpt lat="50.8522" lon="1.61873">
        <ele>51.9</ele>
        <time>2020-06-22T19:56:16Z</time>
      </trkpt>
      <trkpt lat="50.8522" lon="1.61875">
        <ele>52</ele>
        <time>2020-06-22T19:56:17Z</time>
      </trkpt>
      <trkpt lat="50.85219" lon="1.61881">
        <ele>52.5</ele>
        <time>2020-06-22T19:56:18Z</time>
      </trkpt>
      <trkpt lat="50.85219" lon="1.61883">
        <ele>52.6</ele>
        <time>2020-06-22T19:56:19Z</time>
      </trkpt>
      <trkpt lat="50.85218" lon="1.61887">
        <ele>53</ele>
        <time>2020-06-22T19:56:20Z</time>
      </trkpt>
      <trkpt lat="50.85216" lon="1.61893">
        <ele>53.4</ele>
        <time>2020-06-22T19:56:21Z</time>
      </trkpt>
      <trkpt lat="50.85216" lon="1.61894">
        <ele>53.5</ele>
        <time>2020-06-22T19:56:22Z</time>
      </trkpt>
      <trkpt lat="50.85215" lon="1.61899">
        <ele>53.8</ele>
        <time>2020-06-22T19:56:23Z</time>
      </trkpt>
      <trkpt lat="50.85214" lon="1.61903">
        <ele>54.1</ele>
        <time>2020-06-22T19:56:24Z</time>
      </trkpt>
      <trkpt lat="50.85212" lon="1.61907">
        <ele>54.4</ele>
        <time>2020-06-22T19:56:25Z</time>
      </trkpt>
      <trkpt lat="50.85211" lon="1.61912">
        <ele>54.8</ele>
        <time>2020-06-22T19:56:26Z</time>
      </trkpt>
      <trkpt lat="50.85209" lon="1.61918">
        <ele>55.1</ele>
        <time>2020-06-22T19:56:27Z</time>
      </trkpt>
      <trkpt lat="50.85208" lon="1.6192">
        <ele>55.3</ele>
        <time>2020-06-22T19:56:28Z</time>
      </trkpt>
      <trkpt lat="50.85207" lon="1.61925">
        <ele>55.6</ele>
        <time>2020-06-22T19:56:29Z</time>
      </trkpt>
      <trkpt lat="50.85205" lon="1.61929">
        <ele>55.8</ele>
        <time>2020-06-22T19:56:30Z</time>
      </trkpt>
      <trkpt lat="50.85204" lon="1.61934">
        <ele>56.1</ele>
        <time>2020-06-22T19:56:31Z</time>
      </trkpt>
      <trkpt lat="50.85202" lon="1.61937">
        <ele>56.2</ele>
        <time>2020-06-22T19:56:32Z</time>
      </trkpt>
      <trkpt lat="50.85201" lon="1.61943">
        <ele>56.5</ele>
        <time>2020-06-22T19:56:33Z</time>
      </trkpt>
      <trkpt lat="50.852" lon="1.61944">
        <ele>56.5</ele>
        <time>2020-06-22T19:56:34Z</time>
      </trkpt>
      <trkpt lat="50.85199" lon="1.6195">
        <ele>56.8</ele>
        <time>2020-06-22T19:56:35Z</time>
      </trkpt>
      <trkpt lat="50.85198" lon="1.61952">
        <ele>56.8</ele>
        <time>2020-06-22T19:56:36Z</time>
      </trkpt>
      <trkpt lat="50.85197" lon="1.61957">
        <ele>57</ele>
        <time>2020-06-22T19:56:37Z</time>
      </trkpt>
      <trkpt lat="50.85196" lon="1.61959">
        <ele>57.1</ele>
        <time>2020-06-22T19:56:38Z</time>
      </trkpt>
      <trkpt lat="50.85195" lon="1.61963">
        <ele>57.3</ele>
        <time>2020-06-22T19:56:39Z</time>
      </trkpt>
      <trkpt lat="50.85195" lon="1.6197">
        <ele>57.4</ele>
        <time>2020-06-22T19:56:40Z</time>
      </trkpt>
      <trkpt lat="50.85194" lon="1.61972">
        <ele>57.5</ele>
        <time>2020-06-22T19:56:41Z</time>
      </trkpt>
      <trkpt lat="50.85194" lon="1.61976">
        <ele>57.6</ele>
        <time>2020-06-22T19:56:42Z</time>
      </trkpt>
      <trkpt lat="50.85194" lon="1.61981">
        <ele>57.8</ele>
        <time>2020-06-22T19:56:43Z</time>
      </trkpt>
      <trkpt lat="50.85193" lon="1.61985">
        <ele>57.9</ele>
        <time>2020-06-22T19:56:44Z</time>
      </trkpt>
      <trkpt lat="50.85193" lon="1.61989">
        <ele>58.1</ele>
        <time>2020-06-22T19:56:45Z</time>
      </trkpt>
      <trkpt lat="50.85193" lon="1.61994">
        <ele>58.2</ele>
        <time>2020-06-22T19:56:46Z</time>
      </trkpt>
      <trkpt lat="50.85193" lon="1.61999">
        <ele>58.3</ele>
        <time>2020-06-22T19:56:47Z</time>
      </trkpt>
      <trkpt lat="50.85192" lon="1.62004">
        <ele>58.5</ele>
        <time>2020-06-22T19:56:48Z</time>
      </trkpt>
      <trkpt lat="50.85192" lon="1.62008">
        <ele>58.6</ele>
        <time>2020-06-22T19:56:49Z</time>
      </trkpt>
      <trkpt lat="50.8519" lon="1.62015">
        <ele>58.8</ele>
        <time>2020-06-22T19:56:50Z</time>
      </trkpt>
      <trkpt lat="50.8519" lon="1.62017">
        <ele>58.9</ele>
        <time>2020-06-22T19:56:51Z</time>
      </trkpt>
      <trkpt lat="50.8519" lon="1.62022">
        <ele>59.1</ele>
        <time>2020-06-22T19:56:52Z</time>
      </trkpt>
      <trkpt lat="50.85189" lon="1.62027">
        <ele>59.2</ele>
        <time>2020-06-22T19:56:53Z</time>
      </trkpt>
      <trkpt lat="50.85189" lon="1.62032">
        <ele>59.3</ele>
        <time>2020-06-22T19:56:54Z</time>
      </trkpt>
      <trkpt lat="50.85188" lon="1.62037">
        <ele>59.5</ele>
        <time>2020-06-22T19:56:55Z</time>
      </trkpt>
      <trkpt lat="50.85188" lon="1.62042">
        <ele>59.6</ele>
        <time>2020-06-22T19:56:56Z</time>
      </trkpt>
      <trkpt lat="50.85187" lon="1.62047">
        <ele>59.8</ele>
        <time>2020-06-22T19:56:57Z</time>
      </trkpt>
      <trkpt lat="50.85187" lon="1.62052">
        <ele>59.9</ele>
        <time>2020-06-22T19:56:58Z</time>
      </trkpt>
      <trkpt lat="50.85187" lon="1.62057">
        <ele>60.1</ele>
        <time>2020-06-22T19:56:59Z</time>
      </trkpt>
      <trkpt lat="50.85186" lon="1.62062">
        <ele>60.2</ele>
        <time>2020-06-22T19:57:00Z</time>
      </trkpt>
      <trkpt lat="50.85185" lon="1.62066">
        <ele>60.3</ele>
        <time>2020-06-22T19:57:01Z</time>
      </trkpt>
      <trkpt lat="50.85185" lon="1.62071">
        <ele>60.5</ele>
        <time>2020-06-22T19:57:02Z</time>
      </trkpt>
      <trkpt lat="50.85184" lon="1.62076">
        <ele>60.6</ele>
        <time>2020-06-22T19:57:03Z</time>
      </trkpt>
      <trkpt lat="50.85183" lon="1.62081">
        <ele>60.7</ele>
        <time>2020-06-22T19:57:04Z</time>
      </trkpt>
      <trkpt lat="50.85183" lon="1.62085">
        <ele>60.9</ele>
        <time>2020-06-22T19:57:05Z</time>
      </trkpt>
      <trkpt lat="50.85183" lon="1.6209">
        <ele>61</ele>
        <time>2020-06-22T19:57:06Z</time>
      </trkpt>
      <trkpt lat="50.85182" lon="1.62096">
        <ele>61.2</ele>
        <time>2020-06-22T19:57:07Z</time>
      </trkpt>
      <trkpt lat="50.85182" lon="1.62101">
        <ele>61.3</ele>
        <time>2020-06-22T19:57:08Z</time>
      </trkpt>
      <trkpt lat="50.85181" lon="1.62107">
        <ele>61.5</ele>
        <time>2020-06-22T19:57:09Z</time>
      </trkpt>
      <trkpt lat="50.8518" lon="1.62112">
        <ele>61.6</ele>
        <time>2020-06-22T19:57:10Z</time>
      </trkpt>
      <trkpt lat="50.8518" lon="1.62117">
        <ele>61.8</ele>
        <time>2020-06-22T19:57:11Z</time>
      </trkpt>
      <trkpt lat="50.8518" lon="1.62122">
        <ele>61.9</ele>
        <time>2020-06-22T19:57:12Z</time>
      </trkpt>
      <trkpt lat="50.85179" lon="1.62127">
        <ele>62.1</ele>
        <time>2020-06-22T19:57:13Z</time>
      </trkpt>
      <trkpt lat="50.85178" lon="1.62132">
        <ele>62.3</ele>
        <time>2020-06-22T19:57:14Z</time>
      </trkpt>
      <trkpt lat="50.85178" lon="1.62138">
        <ele>62.5</ele>
        <time>2020-06-22T19:57:15Z</time>
      </trkpt>
      <trkpt lat="50.85177" lon="1.62143">
        <ele>62.6</ele>
        <time>2020-06-22T19:57:16Z</time>
      </trkpt>
      <trkpt lat="50.85176" lon="1.62149">
        <ele>62.8</ele>
        <time>2020-06-22T19:57:17Z</time>
      </trkpt>
      <trkpt lat="50.85176" lon="1.62155">
        <ele>63</ele>
        <time>2020-06-22T19:57:18Z</time>
      </trkpt>
      <trkpt lat="50.85175" lon="1.6216">
        <ele>63.2</ele>
        <time>2020-06-22T19:57:19Z</time>
      </trkpt>
      <trkpt lat="50.85174" lon="1.62166">
        <ele>63.4</ele>
        <time>2020-06-22T19:57:20Z</time>
      </trkpt>
      <trkpt lat="50.85173" lon="1.62172">
        <ele>63.6</ele>
        <time>2020-06-22T19:57:21Z</time>
      </trkpt>
      <trkpt lat="50.85172" lon="1.62178">
        <ele>63.8</ele>
        <time>2020-06-22T19:57:22Z</time>
      </trkpt>
      <trkpt lat="50.85171" lon="1.62184">
        <ele>64</ele>
        <time>2020-06-22T19:57:23Z</time>
      </trkpt>
      <trkpt lat="50.8517" lon="1.62189">
        <ele>64.2</ele>
        <time>2020-06-22T19:57:24Z</time>
      </trkpt>
      <trkpt lat="50.85168" lon="1.62194">
        <ele>64.4</ele>
        <time>2020-06-22T19:57:25Z</time>
      </trkpt>
      <trkpt lat="50.85167" lon="1.62199">
        <ele>64.6</ele>
        <time>2020-06-22T19:57:26Z</time>
      </trkpt>
      <trkpt lat="50.85165" lon="1.62204">
        <ele>64.8</ele>
        <time>2020-06-22T19:57:27Z</time>
      </trkpt>
      <trkpt lat="50.85164" lon="1.62209">
        <ele>65</ele>
        <time>2020-06-22T19:57:28Z</time>
      </trkpt>
      <trkpt lat="50.85162" lon="1.62215">
        <ele>65.2</ele>
        <time>2020-06-22T19:57:29Z</time>
      </trkpt>
      <trkpt lat="50.85161" lon="1.6222">
        <ele>65.3</ele>
        <time>2020-06-22T19:57:30Z</time>
      </trkpt>
      <trkpt lat="50.8516" lon="1.62225">
        <ele>65.5</ele>
        <time>2020-06-22T19:57:31Z</time>
      </trkpt>
      <trkpt lat="50.85158" lon="1.62231">
        <ele>65.6</ele>
        <time>2020-06-22T19:57:32Z</time>
      </trkpt>
      <trkpt lat="50.85157" lon="1.62236">
        <ele>65.8</ele>
        <time>2020-06-22T19:57:33Z</time>
      </trkpt>
      <trkpt lat="50.85156" lon="1.62242">
        <ele>65.9</ele>
        <time>2020-06-22T19:57:34Z</time>
      </trkpt>
      <trkpt lat="50.85154" lon="1.62247">
        <ele>66.1</ele>
        <time>2020-06-22T19:57:35Z</time>
      </trkpt>
      <trkpt lat="50.85153" lon="1.62252">
        <ele>66.2</ele>
        <time>2020-06-22T19:57:36Z</time>
      </trkpt>
      <trkpt lat="50.85152" lon="1.62258">
        <ele>66.4</ele>
        <time>2020-06-22T19:57:37Z</time>
      </trkpt>
      <trkpt lat="50.8515" lon="1.62262">
        <ele>66.6</ele>
        <time>2020-06-22T19:57:38Z</time>
      </trkpt>
      <trkpt lat="50.85149" lon="1.62268">
        <ele>66.8</ele>
        <time>2020-06-22T19:57:39Z</time>
      </trkpt>
      <trkpt lat="50.85147" lon="1.62274">
        <ele>67</ele>
        <time>2020-06-22T19:57:40Z</time>
      </trkpt>
      <trkpt lat="50.85146" lon="1.6228">
        <ele>67.2</ele>
        <time>2020-06-22T19:57:41Z</time>
      </trkpt>
      <trkpt lat="50.85145" lon="1.62285">
        <ele>67.4</ele>
        <time>2020-06-22T19:57:42Z</time>
      </trkpt>
      <trkpt lat="50.85143" lon="1.62291">
        <ele>67.6</ele>
        <time>2020-06-22T19:57:43Z</time>
      </trkpt>
      <trkpt lat="50.85142" lon="1.62296">
        <ele>67.7</ele>
        <time>2020-06-22T19:57:44Z</time>
      </trkpt>
      <trkpt lat="50.8514" lon="1.62301">
        <ele>67.9</ele>
        <time>2020-06-22T19:57:45Z</time>
      </trkpt>
      <trkpt lat="50.85139" lon="1.62305">
        <ele>68.1</ele>
        <time>2020-06-22T19:57:46Z</time>
      </trkpt>
      <trkpt lat="50.85138" lon="1.6231">
        <ele>68.2</ele>
        <time>2020-06-22T19:57:47Z</time>
      </trkpt>
      <trkpt lat="50.85136" lon="1.62315">
        <ele>68.4</ele>
        <time>2020-06-22T19:57:48Z</time>
      </trkpt>
      <trkpt lat="50.85135" lon="1.6232">
        <ele>68.5</ele>
        <time>2020-06-22T19:57:49Z</time>
      </trkpt>
      <trkpt lat="50.85134" lon="1.62326">
        <ele>68.7</ele>
        <time>2020-06-22T19:57:50Z</time>
      </trkpt>
      <trkpt lat="50.85133" lon="1.62331">
        <ele>68.8</ele>
        <time>2020-06-22T19:57:51Z</time>
      </trkpt>
      <trkpt lat="50.85131" lon="1.62336">
        <ele>69</ele>
        <time>2020-06-22T19:57:52Z</time>
      </trkpt>
      <trkpt lat="50.8513" lon="1.62341">
        <ele>69.1</ele>
        <time>2020-06-22T19:57:53Z</time>
      </trkpt>
      <trkpt lat="50.85129" lon="1.62347">
        <ele>69.2</ele>
        <time>2020-06-22T19:57:54Z</time>
      </trkpt>
      <trkpt lat="50.85128" lon="1.62352">
        <ele>69.4</ele>
        <time>2020-06-22T19:57:55Z</time>
      </trkpt>
      <trkpt lat="50.85126" lon="1.62358">
        <ele>69.5</ele>
        <time>2020-06-22T19:57:56Z</time>
      </trkpt>
      <trkpt lat="50.85124" lon="1.62363">
        <ele>69.7</ele>
        <time>2020-06-22T19:57:57Z</time>
      </trkpt>
      <trkpt lat="50.85123" lon="1.62369">
        <ele>69.9</ele>
        <time>2020-06-22T19:57:58Z</time>
      </trkpt>
      <trkpt lat="50.85121" lon="1.62375">
        <ele>70</ele>
        <time>2020-06-22T19:57:59Z</time>
      </trkpt>
      <trkpt lat="50.8512" lon="1.62381">
        <ele>70.2</ele>
        <time>2020-06-22T19:58:00Z</time>
      </trkpt>
      <trkpt lat="50.85118" lon="1.62386">
        <ele>70.3</ele>
        <time>2020-06-22T19:58:01Z</time>
      </trkpt>
      <trkpt lat="50.85117" lon="1.62391">
        <ele>70.5</ele>
        <time>2020-06-22T19:58:02Z</time>
      </trkpt>
      <trkpt lat="50.85116" lon="1.62396">
        <ele>70.6</ele>
        <time>2020-06-22T19:58:03Z</time>
      </trkpt>
      <trkpt lat="50.85115" lon="1.62402">
        <ele>70.8</ele>
        <time>2020-06-22T19:58:04Z</time>
      </trkpt>
      <trkpt lat="50.85114" lon="1.62406">
        <ele>70.9</ele>
        <time>2020-06-22T19:58:05Z</time>
      </trkpt>
      <trkpt lat="50.85113" lon="1.62411">
        <ele>71</ele>
        <time>2020-06-22T19:58:06Z</time>
      </trkpt>
      <trkpt lat="50.85111" lon="1.62416">
        <ele>71.2</ele>
        <time>2020-06-22T19:58:07Z</time>
      </trkpt>
      <trkpt lat="50.8511" lon="1.62421">
        <ele>71.3</ele>
        <time>2020-06-22T19:58:08Z</time>
      </trkpt>
      <trkpt lat="50.85109" lon="1.62425">
        <ele>71.5</ele>
        <time>2020-06-22T19:58:09Z</time>
      </trkpt>
      <trkpt lat="50.85108" lon="1.6243">
        <ele>71.6</ele>
        <time>2020-06-22T19:58:10Z</time>
      </trkpt>
      <trkpt lat="50.85107" lon="1.62435">
        <ele>71.8</ele>
        <time>2020-06-22T19:58:11Z</time>
      </trkpt>
      <trkpt lat="50.85106" lon="1.62439">
        <ele>71.9</ele>
        <time>2020-06-22T19:58:12Z</time>
      </trkpt>
      <trkpt lat="50.85106" lon="1.62445">
        <ele>72.1</ele>
        <time>2020-06-22T19:58:13Z</time>
      </trkpt>
      <trkpt lat="50.85106" lon="1.62447">
        <ele>72.1</ele>
        <time>2020-06-22T19:58:14Z</time>
      </trkpt>
      <trkpt lat="50.85105" lon="1.6245">
        <ele>72.2</ele>
        <time>2020-06-22T19:58:15Z</time>
      </trkpt>
      <trkpt lat="50.85105" lon="1.62452">
        <ele>72.3</ele>
        <time>2020-06-22T19:58:16Z</time>
      </trkpt>
      <trkpt lat="50.85104" lon="1.62455">
        <ele>72.3</ele>
        <time>2020-06-22T19:58:17Z</time>
      </trkpt>
      <trkpt lat="50.85104" lon="1.62457">
        <ele>72.4</ele>
        <time>2020-06-22T19:58:18Z</time>
      </trkpt>
      <trkpt lat="50.85104" lon="1.62458">
        <ele>72.4</ele>
        <time>2020-06-22T19:58:19Z</time>
      </trkpt>
      <trkpt lat="50.85104" lon="1.62461">
        <ele>72.5</ele>
        <time>2020-06-22T19:58:20Z</time>
      </trkpt>
      <trkpt lat="50.85104" lon="1.62462">
        <ele>72.5</ele>
        <time>2020-06-22T19:58:21Z</time>
      </trkpt>
      <trkpt lat="50.85104" lon="1.62463">
        <ele>72.5</ele>
        <time>2020-06-22T19:58:22Z</time>
      </trkpt>
      <trkpt lat="50.85104" lon="1.62463">
        <ele>72.5</ele>
        <time>2020-06-22T19:58:23Z</time>
      </trkpt>
      <trkpt lat="50.85104" lon="1.62464">
        <ele>72.6</ele>
        <time>2020-06-22T19:58:24Z</time>
      </trkpt>
      <trkpt lat="50.85104" lon="1.62465">
        <ele>72.6</ele>
        <time>2020-06-22T19:58:25Z</time>
      </trkpt>
      <trkpt lat="50.85104" lon="1.62465">
        <ele>72.6</ele>
        <time>2020-06-22T19:58:26Z</time>
      </trkpt>
      <trkpt lat="50.85104" lon="1.62466">
        <ele>72.6</ele>
        <time>2020-06-22T19:58:27Z</time>
      </trkpt>
      <trkpt lat="50.85104" lon="1.62467">
        <ele>72.6</ele>
        <time>2020-06-22T19:58:28Z</time>
      </trkpt>
      <trkpt lat="50.85104" lon="1.62467">
        <ele>72.6</ele>
        <time>2020-06-22T19:58:29Z</time>
      </trkpt>
      <trkpt lat="50.85104" lon="1.62468">
        <ele>72.7</ele>
        <time>2020-06-22T19:58:30Z</time>
      </trkpt>
      <trkpt lat="50.85105" lon="1.62469">
        <ele>72.7</ele>
        <time>2020-06-22T19:58:31Z</time>
      </trkpt>
      <trkpt lat="50.85105" lon="1.62469">
        <ele>72.7</ele>
        <time>2020-06-22T19:58:32Z</time>
      </trkpt>
      <trkpt lat="50.85105" lon="1.6247">
        <ele>72.7</ele>
        <time>2020-06-22T19:58:33Z</time>
      </trkpt>
      <trkpt lat="50.85105" lon="1.62471">
        <ele>72.7</ele>
        <time>2020-06-22T19:58:34Z</time>
      </trkpt>
      <trkpt lat="50.85105" lon="1.62471">
        <ele>72.7</ele>
        <time>2020-06-22T19:58:35Z</time>
      </trkpt>
      <trkpt lat="50.85105" lon="1.62472">
        <ele>72.8</ele>
        <time>2020-06-22T19:58:36Z</time>
      </trkpt>
      <trkpt lat="50.85105" lon="1.62473">
        <ele>72.8</ele>
        <time>2020-06-22T19:58:37Z</time>
      </trkpt>
      <trkpt lat="50.85105" lon="1.62473">
        <ele>72.8</ele>
        <time>2020-06-22T19:58:38Z</time>
      </trkpt>
      <trkpt lat="50.85105" lon="1.62474">
        <ele>72.8</ele>
        <time>2020-06-22T19:59:20Z</time>
      </trkpt>
      <trkpt lat="50.85105" lon="1.62475">
        <ele>72.8</ele>
        <time>2020-06-22T19:59:21Z</time>
      </trkpt>
      <trkpt lat="50.85104" lon="1.6248">
        <ele>73</ele>
        <time>2020-06-22T19:59:22Z</time>
      </trkpt>
      <trkpt lat="50.85105" lon="1.62485">
        <ele>73.1</ele>
        <time>2020-06-22T19:59:23Z</time>
      </trkpt>
      <trkpt lat="50.85105" lon="1.62487">
        <ele>73.2</ele>
        <time>2020-06-22T19:59:24Z</time>
      </trkpt>
      <trkpt lat="50.85105" lon="1.62492">
        <ele>73.3</ele>
        <time>2020-06-22T19:59:25Z</time>
      </trkpt>
      <trkpt lat="50.85105" lon="1.62498">
        <ele>73.5</ele>
        <time>2020-06-22T19:59:26Z</time>
      </trkpt>
      <trkpt lat="50.85106" lon="1.62504">
        <ele>73.7</ele>
        <time>2020-06-22T19:59:27Z</time>
      </trkpt>
      <trkpt lat="50.85105" lon="1.62511">
        <ele>73.9</ele>
        <time>2020-06-22T19:59:28Z</time>
      </trkpt>
      <trkpt lat="50.85105" lon="1.62516">
        <ele>74</ele>
        <time>2020-06-22T19:59:29Z</time>
      </trkpt>
      <trkpt lat="50.85105" lon="1.62522">
        <ele>74.2</ele>
        <time>2020-06-22T19:59:30Z</time>
      </trkpt>
      <trkpt lat="50.85105" lon="1.62527">
        <ele>74.3</ele>
        <time>2020-06-22T19:59:31Z</time>
      </trkpt>
      <trkpt lat="50.85104" lon="1.62533">
        <ele>74.5</ele>
        <time>2020-06-22T19:59:32Z</time>
      </trkpt>
      <trkpt lat="50.85104" lon="1.62539">
        <ele>74.6</ele>
        <time>2020-06-22T19:59:33Z</time>
      </trkpt>
      <trkpt lat="50.85105" lon="1.62544">
        <ele>74.8</ele>
        <time>2020-06-22T19:59:34Z</time>
      </trkpt>
      <trkpt lat="50.85104" lon="1.62549">
        <ele>74.9</ele>
        <time>2020-06-22T19:59:35Z</time>
      </trkpt>
      <trkpt lat="50.85104" lon="1.62553">
        <ele>75.1</ele>
        <time>2020-06-22T19:59:36Z</time>
      </trkpt>
      <trkpt lat="50.85102" lon="1.62559">
        <ele>75.3</ele>
        <time>2020-06-22T19:59:37Z</time>
      </trkpt>
      <trkpt lat="50.85101" lon="1.62564">
        <ele>75.4</ele>
        <time>2020-06-22T19:59:38Z</time>
      </trkpt>
      <trkpt lat="50.851" lon="1.62569">
        <ele>75.6</ele>
        <time>2020-06-22T19:59:39Z</time>
      </trkpt>
      <trkpt lat="50.85099" lon="1.62575">
        <ele>75.8</ele>
        <time>2020-06-22T19:59:40Z</time>
      </trkpt>
      <trkpt lat="50.85099" lon="1.62581">
        <ele>75.9</ele>
        <time>2020-06-22T19:59:41Z</time>
      </trkpt>
      <trkpt lat="50.85098" lon="1.62587">
        <ele>76.1</ele>
        <time>2020-06-22T19:59:42Z</time>
      </trkpt>
      <trkpt lat="50.85098" lon="1.62593">
        <ele>76.3</ele>
        <time>2020-06-22T19:59:43Z</time>
      </trkpt>
      <trkpt lat="50.85099" lon="1.62598">
        <ele>76.4</ele>
        <time>2020-06-22T19:59:44Z</time>
      </trkpt>
      <trkpt lat="50.85099" lon="1.62604">
        <ele>76.5</ele>
        <time>2020-06-22T19:59:45Z</time>
      </trkpt>
      <trkpt lat="50.85099" lon="1.62609">
        <ele>76.7</ele>
        <time>2020-06-22T19:59:46Z</time>
      </trkpt>
      <trkpt lat="50.85099" lon="1.62615">
        <ele>76.8</ele>
        <time>2020-06-22T19:59:47Z</time>
      </trkpt>
      <trkpt lat="50.85099" lon="1.62621">
        <ele>77</ele>
        <time>2020-06-22T19:59:48Z</time>
      </trkpt>
      <trkpt lat="50.85099" lon="1.62627">
        <ele>77.1</ele>
        <time>2020-06-22T19:59:49Z</time>
      </trkpt>
      <trkpt lat="50.85099" lon="1.62632">
        <ele>77.2</ele>
        <time>2020-06-22T19:59:50Z</time>
      </trkpt>
      <trkpt lat="50.85099" lon="1.62638">
        <ele>77.4</ele>
        <time>2020-06-22T19:59:51Z</time>
      </trkpt>
      <trkpt lat="50.85098" lon="1.62643">
        <ele>77.6</ele>
        <time>2020-06-22T19:59:52Z</time>
      </trkpt>
      <trkpt lat="50.85098" lon="1.62648">
        <ele>77.7</ele>
        <time>2020-06-22T19:59:53Z</time>
      </trkpt>
      <trkpt lat="50.85098" lon="1.62653">
        <ele>77.8</ele>
        <time>2020-06-22T19:59:54Z</time>
      </trkpt>
      <trkpt lat="50.85099" lon="1.62659">
        <ele>78</ele>
        <time>2020-06-22T19:59:55Z</time>
      </trkpt>
      <trkpt lat="50.85099" lon="1.62666">
        <ele>78.2</ele>
        <time>2020-06-22T19:59:56Z</time>
      </trkpt>
      <trkpt lat="50.85099" lon="1.62672">
        <ele>78.4</ele>
        <time>2020-06-22T19:59:57Z</time>
      </trkpt>
      <trkpt lat="50.85099" lon="1.62677">
        <ele>78.5</ele>
        <time>2020-06-22T19:59:58Z</time>
      </trkpt>
      <trkpt lat="50.85101" lon="1.62684">
        <ele>78.7</ele>
        <time>2020-06-22T19:59:59Z</time>
      </trkpt>
      <trkpt lat="50.85101" lon="1.6269">
        <ele>78.9</ele>
        <time>2020-06-22T20:00:00Z</time>
      </trkpt>
      <trkpt lat="50.85101" lon="1.62697">
        <ele>79</ele>
        <time>2020-06-22T20:00:01Z</time>
      </trkpt>
      <trkpt lat="50.85101" lon="1.62703">
        <ele>79.2</ele>
        <time>2020-06-22T20:00:02Z</time>
      </trkpt>
      <trkpt lat="50.85102" lon="1.6271">
        <ele>79.3</ele>
        <time>2020-06-22T20:00:03Z</time>
      </trkpt>
      <trkpt lat="50.85101" lon="1.62716">
        <ele>79.5</ele>
        <time>2020-06-22T20:00:04Z</time>
      </trkpt>
      <trkpt lat="50.85101" lon="1.62722">
        <ele>79.6</ele>
        <time>2020-06-22T20:00:05Z</time>
      </trkpt>
      <trkpt lat="50.85101" lon="1.62728">
        <ele>79.7</ele>
        <time>2020-06-22T20:00:06Z</time>
      </trkpt>
      <trkpt lat="50.85101" lon="1.62736">
        <ele>79.8</ele>
        <time>2020-06-22T20:00:07Z</time>
      </trkpt>
      <trkpt lat="50.85101" lon="1.62743">
        <ele>79.9</ele>
        <time>2020-06-22T20:00:08Z</time>
      </trkpt>
      <trkpt lat="50.85101" lon="1.6275">
        <ele>80.1</ele>
        <time>2020-06-22T20:00:09Z</time>
      </trkpt>
      <trkpt lat="50.85101" lon="1.62756">
        <ele>80.2</ele>
        <time>2020-06-22T20:00:10Z</time>
      </trkpt>
      <trkpt lat="50.851" lon="1.62763">
        <ele>80.3</ele>
        <time>2020-06-22T20:00:11Z</time>
      </trkpt>
      <trkpt lat="50.851" lon="1.62769">
        <ele>80.4</ele>
        <time>2020-06-22T20:00:12Z</time>
      </trkpt>
      <trkpt lat="50.851" lon="1.62776">
        <ele>80.5</ele>
        <time>2020-06-22T20:00:13Z</time>
      </trkpt>
      <trkpt lat="50.85101" lon="1.62782">
        <ele>80.6</ele>
        <time>2020-06-22T20:00:14Z</time>
      </trkpt>
      <trkpt lat="50.85101" lon="1.62788">
        <ele>80.7</ele>
        <time>2020-06-22T20:00:15Z</time>
      </trkpt>
      <trkpt lat="50.85101" lon="1.62795">
        <ele>80.9</ele>
        <time>2020-06-22T20:00:16Z</time>
      </trkpt>
      <trkpt lat="50.85101" lon="1.62801">
        <ele>80.9</ele>
        <time>2020-06-22T20:00:17Z</time>
      </trkpt>
      <trkpt lat="50.85101" lon="1.62808">
        <ele>81</ele>
        <time>2020-06-22T20:00:18Z</time>
      </trkpt>
      <trkpt lat="50.85101" lon="1.62815">
        <ele>81.1</ele>
        <time>2020-06-22T20:00:19Z</time>
      </trkpt>
      <trkpt lat="50.85101" lon="1.62822">
        <ele>81.2</ele>
        <time>2020-06-22T20:00:20Z</time>
      </trkpt>
      <trkpt lat="50.851" lon="1.62829">
        <ele>81.2</ele>
        <time>2020-06-22T20:00:21Z</time>
      </trkpt>
      <trkpt lat="50.851" lon="1.62837">
        <ele>81.3</ele>
        <time>2020-06-22T20:00:22Z</time>
      </trkpt>
      <trkpt lat="50.85099" lon="1.62844">
        <ele>81.4</ele>
        <time>2020-06-22T20:00:23Z</time>
      </trkpt>
      <trkpt lat="50.85099" lon="1.62851">
        <ele>81.5</ele>
        <time>2020-06-22T20:00:24Z</time>
      </trkpt>
      <trkpt lat="50.85099" lon="1.62859">
        <ele>81.7</ele>
        <time>2020-06-22T20:00:25Z</time>
      </trkpt>
      <trkpt lat="50.85098" lon="1.62865">
        <ele>81.8</ele>
        <time>2020-06-22T20:00:26Z</time>
      </trkpt>
      <trkpt lat="50.85098" lon="1.62872">
        <ele>81.9</ele>
        <time>2020-06-22T20:00:27Z</time>
      </trkpt>
      <trkpt lat="50.85098" lon="1.62879">
        <ele>82</ele>
        <time>2020-06-22T20:00:28Z</time>
      </trkpt>
      <trkpt lat="50.85098" lon="1.62885">
        <ele>82</ele>
        <time>2020-06-22T20:00:29Z</time>
      </trkpt>
      <trkpt lat="50.85098" lon="1.62892">
        <ele>82.1</ele>
        <time>2020-06-22T20:00:30Z</time>
      </trkpt>
      <trkpt lat="50.85098" lon="1.62899">
        <ele>82.2</ele>
        <time>2020-06-22T20:00:31Z</time>
      </trkpt>
      <trkpt lat="50.85097" lon="1.62905">
        <ele>82.3</ele>
        <time>2020-06-22T20:00:32Z</time>
      </trkpt>
      <trkpt lat="50.85097" lon="1.62911">
        <ele>82.3</ele>
        <time>2020-06-22T20:00:33Z</time>
      </trkpt>
      <trkpt lat="50.85097" lon="1.62917">
        <ele>82.4</ele>
        <time>2020-06-22T20:00:34Z</time>
      </trkpt>
      <trkpt lat="50.85097" lon="1.62924">
        <ele>82.5</ele>
        <time>2020-06-22T20:00:35Z</time>
      </trkpt>
      <trkpt lat="50.85097" lon="1.62931">
        <ele>82.5</ele>
        <time>2020-06-22T20:00:36Z</time>
      </trkpt>
      <trkpt lat="50.85097" lon="1.62939">
        <ele>82.6</ele>
        <time>2020-06-22T20:00:37Z</time>
      </trkpt>
      <trkpt lat="50.85097" lon="1.62946">
        <ele>82.6</ele>
        <time>2020-06-22T20:00:38Z</time>
      </trkpt>
      <trkpt lat="50.85097" lon="1.62952">
        <ele>82.6</ele>
        <time>2020-06-22T20:00:39Z</time>
      </trkpt>
      <trkpt lat="50.85096" lon="1.62959">
        <ele>82.6</ele>
        <time>2020-06-22T20:00:40Z</time>
      </trkpt>
      <trkpt lat="50.85096" lon="1.62965">
        <ele>82.6</ele>
        <time>2020-06-22T20:00:41Z</time>
      </trkpt>
      <trkpt lat="50.85096" lon="1.62972">
        <ele>82.6</ele>
        <time>2020-06-22T20:00:42Z</time>
      </trkpt>
      <trkpt lat="50.85097" lon="1.62979">
        <ele>82.6</ele>
        <time>2020-06-22T20:00:43Z</time>
      </trkpt>
      <trkpt lat="50.85097" lon="1.62987">
        <ele>82.5</ele>
        <time>2020-06-22T20:00:44Z</time>
      </trkpt>
      <trkpt lat="50.85095" lon="1.62993">
        <ele>82.5</ele>
        <time>2020-06-22T20:00:45Z</time>
      </trkpt>
      <trkpt lat="50.85096" lon="1.63">
        <ele>82.5</ele>
        <time>2020-06-22T20:00:46Z</time>
      </trkpt>
      <trkpt lat="50.85096" lon="1.63007">
        <ele>82.4</ele>
        <time>2020-06-22T20:00:47Z</time>
      </trkpt>
      <trkpt lat="50.85097" lon="1.63015">
        <ele>82.3</ele>
        <time>2020-06-22T20:00:48Z</time>
      </trkpt>
      <trkpt lat="50.85096" lon="1.63022">
        <ele>82.3</ele>
        <time>2020-06-22T20:00:49Z</time>
      </trkpt>
      <trkpt lat="50.85096" lon="1.63031">
        <ele>82.2</ele>
        <time>2020-06-22T20:00:50Z</time>
      </trkpt>
      <trkpt lat="50.85096" lon="1.63038">
        <ele>82.2</ele>
        <time>2020-06-22T20:00:51Z</time>
      </trkpt>
      <trkpt lat="50.85097" lon="1.63045">
        <ele>82.1</ele>
        <time>2020-06-22T20:00:52Z</time>
      </trkpt>
      <trkpt lat="50.85097" lon="1.63053">
        <ele>82</ele>
        <time>2020-06-22T20:00:53Z</time>
      </trkpt>
      <trkpt lat="50.85096" lon="1.6306">
        <ele>81.8</ele>
        <time>2020-06-22T20:00:54Z</time>
      </trkpt>
      <trkpt lat="50.85096" lon="1.63069">
        <ele>81.6</ele>
        <time>2020-06-22T20:00:55Z</time>
      </trkpt>
      <trkpt lat="50.85096" lon="1.63077">
        <ele>81.4</ele>
        <time>2020-06-22T20:00:56Z</time>
      </trkpt>
      <trkpt lat="50.85097" lon="1.63086">
        <ele>81.1</ele>
        <time>2020-06-22T20:00:57Z</time>
      </trkpt>
      <trkpt lat="50.85096" lon="1.63095">
        <ele>80.7</ele>
        <time>2020-06-22T20:00:58Z</time>
      </trkpt>
      <trkpt lat="50.85095" lon="1.63104">
        <ele>80.4</ele>
        <time>2020-06-22T20:00:59Z</time>
      </trkpt>
      <trkpt lat="50.85095" lon="1.63113">
        <ele>80</ele>
        <time>2020-06-22T20:01:00Z</time>
      </trkpt>
      <trkpt lat="50.85095" lon="1.63124">
        <ele>79.6</ele>
        <time>2020-06-22T20:01:01Z</time>
      </trkpt>
      <trkpt lat="50.85094" lon="1.63133">
        <ele>79.1</ele>
        <time>2020-06-22T20:01:02Z</time>
      </trkpt>
      <trkpt lat="50.85093" lon="1.63143">
        <ele>78.6</ele>
        <time>2020-06-22T20:01:03Z</time>
      </trkpt>
      <trkpt lat="50.85092" lon="1.63154">
        <ele>78</ele>
        <time>2020-06-22T20:01:04Z</time>
      </trkpt>
      <trkpt lat="50.8509" lon="1.63165">
        <ele>77.3</ele>
        <time>2020-06-22T20:01:05Z</time>
      </trkpt>
      <trkpt lat="50.85086" lon="1.63179">
        <ele>76.3</ele>
        <time>2020-06-22T20:01:06Z</time>
      </trkpt>
      <trkpt lat="50.8508" lon="1.63191">
        <ele>75.3</ele>
        <time>2020-06-22T20:01:07Z</time>
      </trkpt>
      <trkpt lat="50.85075" lon="1.63203">
        <ele>74.4</ele>
        <time>2020-06-22T20:01:08Z</time>
      </trkpt>
      <trkpt lat="50.8507" lon="1.63218">
        <ele>73.5</ele>
        <time>2020-06-22T20:01:09Z</time>
      </trkpt>
      <trkpt lat="50.85066" lon="1.63234">
        <ele>72.6</ele>
        <time>2020-06-22T20:01:10Z</time>
      </trkpt>
      <trkpt lat="50.85064" lon="1.6325">
        <ele>72</ele>
        <time>2020-06-22T20:01:11Z</time>
      </trkpt>
      <trkpt lat="50.85063" lon="1.63267">
        <ele>71.5</ele>
        <time>2020-06-22T20:01:12Z</time>
      </trkpt>
      <trkpt lat="50.85065" lon="1.63283">
        <ele>71.2</ele>
        <time>2020-06-22T20:01:13Z</time>
      </trkpt>
      <trkpt lat="50.85067" lon="1.63299">
        <ele>71</ele>
        <time>2020-06-22T20:01:14Z</time>
      </trkpt>
      <trkpt lat="50.85069" lon="1.63314">
        <ele>70.9</ele>
        <time>2020-06-22T20:01:15Z</time>
      </trkpt>
      <trkpt lat="50.85072" lon="1.63328">
        <ele>70.8</ele>
        <time>2020-06-22T20:01:16Z</time>
      </trkpt>
      <trkpt lat="50.85074" lon="1.63341">
        <ele>70.9</ele>
        <time>2020-06-22T20:01:17Z</time>
      </trkpt>
      <trkpt lat="50.85076" lon="1.63354">
        <ele>71</ele>
        <time>2020-06-22T20:01:18Z</time>
      </trkpt>
      <trkpt lat="50.85078" lon="1.63366">
        <ele>71.3</ele>
        <time>2020-06-22T20:01:19Z</time>
      </trkpt>
      <trkpt lat="50.8508" lon="1.63377">
        <ele>71.5</ele>
        <time>2020-06-22T20:01:20Z</time>
      </trkpt>
      <trkpt lat="50.85081" lon="1.63387">
        <ele>71.7</ele>
        <time>2020-06-22T20:01:21Z</time>
      </trkpt>
      <trkpt lat="50.8508" lon="1.63396">
        <ele>71.9</ele>
        <time>2020-06-22T20:01:22Z</time>
      </trkpt>
      <trkpt lat="50.85078" lon="1.63404">
        <ele>72.1</ele>
        <time>2020-06-22T20:01:23Z</time>
      </trkpt>
      <trkpt lat="50.85075" lon="1.63412">
        <ele>72.2</ele>
        <time>2020-06-22T20:01:24Z</time>
      </trkpt>
      <trkpt lat="50.85073" lon="1.63419">
        <ele>72.4</ele>
        <time>2020-06-22T20:01:25Z</time>
      </trkpt>
      <trkpt lat="50.85072" lon="1.63427">
        <ele>72.5</ele>
        <time>2020-06-22T20:01:26Z</time>
      </trkpt>
      <trkpt lat="50.85069" lon="1.63433">
        <ele>72.6</ele>
        <time>2020-06-22T20:01:27Z</time>
      </trkpt>
      <trkpt lat="50.85067" lon="1.6344">
        <ele>72.8</ele>
        <time>2020-06-22T20:01:28Z</time>
      </trkpt>
      <trkpt lat="50.85065" lon="1.63447">
        <ele>72.9</ele>
        <time>2020-06-22T20:01:29Z</time>
      </trkpt>
      <trkpt lat="50.85062" lon="1.63452">
        <ele>72.9</ele>
        <time>2020-06-22T20:01:30Z</time>
      </trkpt>
      <trkpt lat="50.8506" lon="1.63457">
        <ele>73</ele>
        <time>2020-06-22T20:01:31Z</time>
      </trkpt>
      <trkpt lat="50.85056" lon="1.63461">
        <ele>73.1</ele>
        <time>2020-06-22T20:01:32Z</time>
      </trkpt>
      <trkpt lat="50.85053" lon="1.63466">
        <ele>73.2</ele>
        <time>2020-06-22T20:01:33Z</time>
      </trkpt>
      <trkpt lat="50.85051" lon="1.63472">
        <ele>73.3</ele>
        <time>2020-06-22T20:01:34Z</time>
      </trkpt>
      <trkpt lat="50.85048" lon="1.63477">
        <ele>73.3</ele>
        <time>2020-06-22T20:01:35Z</time>
      </trkpt>
      <trkpt lat="50.85045" lon="1.63482">
        <ele>73.4</ele>
        <time>2020-06-22T20:01:36Z</time>
      </trkpt>
      <trkpt lat="50.85042" lon="1.63486">
        <ele>73.4</ele>
        <time>2020-06-22T20:01:37Z</time>
      </trkpt>
      <trkpt lat="50.85039" lon="1.63491">
        <ele>73.4</ele>
        <time>2020-06-22T20:01:38Z</time>
      </trkpt>
      <trkpt lat="50.85037" lon="1.63496">
        <ele>73.4</ele>
        <time>2020-06-22T20:01:39Z</time>
      </trkpt>
      <trkpt lat="50.85035" lon="1.63502">
        <ele>73.3</ele>
        <time>2020-06-22T20:01:40Z</time>
      </trkpt>
      <trkpt lat="50.85032" lon="1.63508">
        <ele>73.3</ele>
        <time>2020-06-22T20:01:41Z</time>
      </trkpt>
      <trkpt lat="50.85029" lon="1.63514">
        <ele>73.2</ele>
        <time>2020-06-22T20:01:42Z</time>
      </trkpt>
      <trkpt lat="50.85028" lon="1.63522">
        <ele>72.7</ele>
        <time>2020-06-22T20:01:43Z</time>
      </trkpt>
      <trkpt lat="50.85027" lon="1.6353">
        <ele>72.4</ele>
        <time>2020-06-22T20:01:44Z</time>
      </trkpt>
      <trkpt lat="50.85029" lon="1.63539">
        <ele>72.1</ele>
        <time>2020-06-22T20:01:45Z</time>
      </trkpt>
      <trkpt lat="50.85032" lon="1.63547">
        <ele>71.7</ele>
        <time>2020-06-22T20:01:46Z</time>
      </trkpt>
      <trkpt lat="50.85036" lon="1.63554">
        <ele>71.4</ele>
        <time>2020-06-22T20:01:47Z</time>
      </trkpt>
      <trkpt lat="50.85039" lon="1.63562">
        <ele>71.1</ele>
        <time>2020-06-22T20:01:48Z</time>
      </trkpt>
      <trkpt lat="50.85042" lon="1.63571">
        <ele>70.7</ele>
        <time>2020-06-22T20:01:49Z</time>
      </trkpt>
      <trkpt lat="50.85045" lon="1.63581">
        <ele>70.4</ele>
        <time>2020-06-22T20:01:50Z</time>
      </trkpt>
      <trkpt lat="50.85047" lon="1.63591">
        <ele>70.1</ele>
        <time>2020-06-22T20:01:51Z</time>
      </trkpt>
      <trkpt lat="50.8505" lon="1.63602">
        <ele>69.7</ele>
        <time>2020-06-22T20:01:52Z</time>
      </trkpt>
      <trkpt lat="50.85052" lon="1.63613">
        <ele>69.4</ele>
        <time>2020-06-22T20:01:53Z</time>
      </trkpt>
      <trkpt lat="50.85056" lon="1.63623">
        <ele>69</ele>
        <time>2020-06-22T20:01:54Z</time>
      </trkpt>
      <trkpt lat="50.85059" lon="1.63634">
        <ele>68.5</ele>
        <time>2020-06-22T20:01:55Z</time>
      </trkpt>
      <trkpt lat="50.85063" lon="1.63644">
        <ele>68</ele>
        <time>2020-06-22T20:01:56Z</time>
      </trkpt>
      <trkpt lat="50.85067" lon="1.63654">
        <ele>67.4</ele>
        <time>2020-06-22T20:01:57Z</time>
      </trkpt>
      <trkpt lat="50.85072" lon="1.63663">
        <ele>66.8</ele>
        <time>2020-06-22T20:01:58Z</time>
      </trkpt>
      <trkpt lat="50.85078" lon="1.63671">
        <ele>66</ele>
        <time>2020-06-22T20:01:59Z</time>
      </trkpt>
      <trkpt lat="50.85084" lon="1.63679">
        <ele>65.2</ele>
        <time>2020-06-22T20:02:00Z</time>
      </trkpt>
      <trkpt lat="50.8509" lon="1.63686">
        <ele>64.3</ele>
        <time>2020-06-22T20:02:01Z</time>
      </trkpt>
      <trkpt lat="50.85096" lon="1.63693">
        <ele>63.3</ele>
        <time>2020-06-22T20:02:02Z</time>
      </trkpt>
      <trkpt lat="50.851" lon="1.63703">
        <ele>62.4</ele>
        <time>2020-06-22T20:02:03Z</time>
      </trkpt>
      <trkpt lat="50.85103" lon="1.63716">
        <ele>61.4</ele>
        <time>2020-06-22T20:02:04Z</time>
      </trkpt>
      <trkpt lat="50.85105" lon="1.63731">
        <ele>60.4</ele>
        <time>2020-06-22T20:02:05Z</time>
      </trkpt>
      <trkpt lat="50.85105" lon="1.63746">
        <ele>59.5</ele>
        <time>2020-06-22T20:02:06Z</time>
      </trkpt>
      <trkpt lat="50.85106" lon="1.63761">
        <ele>58.9</ele>
        <time>2020-06-22T20:02:07Z</time>
      </trkpt>
      <trkpt lat="50.85106" lon="1.63776">
        <ele>58.3</ele>
        <time>2020-06-22T20:02:08Z</time>
      </trkpt>
      <trkpt lat="50.85105" lon="1.63791">
        <ele>57.7</ele>
        <time>2020-06-22T20:02:09Z</time>
      </trkpt>
      <trkpt lat="50.85104" lon="1.63805">
        <ele>57.1</ele>
        <time>2020-06-22T20:02:10Z</time>
      </trkpt>
      <trkpt lat="50.85103" lon="1.6382">
        <ele>56.4</ele>
        <time>2020-06-22T20:02:11Z</time>
      </trkpt>
      <trkpt lat="50.85103" lon="1.63835">
        <ele>55.7</ele>
        <time>2020-06-22T20:02:12Z</time>
      </trkpt>
      <trkpt lat="50.85103" lon="1.6385">
        <ele>54.9</ele>
        <time>2020-06-22T20:02:13Z</time>
      </trkpt>
      <trkpt lat="50.85105" lon="1.63865">
        <ele>54.1</ele>
        <time>2020-06-22T20:02:14Z</time>
      </trkpt>
      <trkpt lat="50.85108" lon="1.6388">
        <ele>53.3</ele>
        <time>2020-06-22T20:02:15Z</time>
      </trkpt>
      <trkpt lat="50.85111" lon="1.63894">
        <ele>52.7</ele>
        <time>2020-06-22T20:02:16Z</time>
      </trkpt>
      <trkpt lat="50.85114" lon="1.63909">
        <ele>52.2</ele>
        <time>2020-06-22T20:02:17Z</time>
      </trkpt>
      <trkpt lat="50.85117" lon="1.63924">
        <ele>51.7</ele>
        <time>2020-06-22T20:02:18Z</time>
      </trkpt>
      <trkpt lat="50.85119" lon="1.63937">
        <ele>51.5</ele>
        <time>2020-06-22T20:02:19Z</time>
      </trkpt>
      <trkpt lat="50.85122" lon="1.6395">
        <ele>51.3</ele>
        <time>2020-06-22T20:02:20Z</time>
      </trkpt>
      <trkpt lat="50.85121" lon="1.63963">
        <ele>51.1</ele>
        <time>2020-06-22T20:02:21Z</time>
      </trkpt>
      <trkpt lat="50.85121" lon="1.63977">
        <ele>51</ele>
        <time>2020-06-22T20:02:22Z</time>
      </trkpt>
      <trkpt lat="50.85122" lon="1.63989">
        <ele>50.8</ele>
        <time>2020-06-22T20:02:23Z</time>
      </trkpt>
      <trkpt lat="50.85124" lon="1.64">
        <ele>50.8</ele>
        <time>2020-06-22T20:02:24Z</time>
      </trkpt>
      <trkpt lat="50.85128" lon="1.64009">
        <ele>50.8</ele>
        <time>2020-06-22T20:02:25Z</time>
      </trkpt>
      <trkpt lat="50.85132" lon="1.64017">
        <ele>50.9</ele>
        <time>2020-06-22T20:02:26Z</time>
      </trkpt>
      <trkpt lat="50.85137" lon="1.64022">
        <ele>51</ele>
        <time>2020-06-22T20:02:27Z</time>
      </trkpt>
      <trkpt lat="50.85141" lon="1.64028">
        <ele>51.2</ele>
        <time>2020-06-22T20:02:28Z</time>
      </trkpt>
      <trkpt lat="50.85145" lon="1.64035">
        <ele>51.4</ele>
        <time>2020-06-22T20:02:29Z</time>
      </trkpt>
      <trkpt lat="50.85149" lon="1.64042">
        <ele>51.5</ele>
        <time>2020-06-22T20:02:30Z</time>
      </trkpt>
      <trkpt lat="50.85152" lon="1.64049">
        <ele>51.7</ele>
        <time>2020-06-22T20:02:31Z</time>
      </trkpt>
      <trkpt lat="50.85156" lon="1.64057">
        <ele>51.9</ele>
        <time>2020-06-22T20:02:32Z</time>
      </trkpt>
      <trkpt lat="50.85159" lon="1.64065">
        <ele>52.1</ele>
        <time>2020-06-22T20:02:33Z</time>
      </trkpt>
      <trkpt lat="50.85163" lon="1.64073">
        <ele>52.4</ele>
        <time>2020-06-22T20:02:34Z</time>
      </trkpt>
      <trkpt lat="50.85166" lon="1.64081">
        <ele>52.7</ele>
        <time>2020-06-22T20:02:35Z</time>
      </trkpt>
      <trkpt lat="50.85169" lon="1.64089">
        <ele>52.9</ele>
        <time>2020-06-22T20:02:36Z</time>
      </trkpt>
      <trkpt lat="50.85172" lon="1.64097">
        <ele>53.3</ele>
        <time>2020-06-22T20:02:37Z</time>
      </trkpt>
      <trkpt lat="50.85174" lon="1.64105">
        <ele>53.6</ele>
        <time>2020-06-22T20:02:38Z</time>
      </trkpt>
      <trkpt lat="50.85178" lon="1.64112">
        <ele>54</ele>
        <time>2020-06-22T20:02:39Z</time>
      </trkpt>
      <trkpt lat="50.85179" lon="1.6412">
        <ele>54.4</ele>
        <time>2020-06-22T20:02:40Z</time>
      </trkpt>
      <trkpt lat="50.85181" lon="1.64128">
        <ele>54.8</ele>
        <time>2020-06-22T20:02:41Z</time>
      </trkpt>
      <trkpt lat="50.85182" lon="1.64136">
        <ele>55.2</ele>
        <time>2020-06-22T20:02:42Z</time>
      </trkpt>
      <trkpt lat="50.85183" lon="1.64144">
        <ele>55.7</ele>
        <time>2020-06-22T20:02:43Z</time>
      </trkpt>
      <trkpt lat="50.85184" lon="1.64152">
        <ele>56.2</ele>
        <time>2020-06-22T20:02:44Z</time>
      </trkpt>
      <trkpt lat="50.85185" lon="1.64161">
        <ele>56.7</ele>
        <time>2020-06-22T20:02:45Z</time>
      </trkpt>
      <trkpt lat="50.85187" lon="1.64168">
        <ele>57.1</ele>
        <time>2020-06-22T20:02:46Z</time>
      </trkpt>
      <trkpt lat="50.85189" lon="1.64176">
        <ele>57.5</ele>
        <time>2020-06-22T20:02:47Z</time>
      </trkpt>
      <trkpt lat="50.85189" lon="1.64183">
        <ele>57.8</ele>
        <time>2020-06-22T20:02:48Z</time>
      </trkpt>
      <trkpt lat="50.8519" lon="1.6419">
        <ele>58.2</ele>
        <time>2020-06-22T20:02:49Z</time>
      </trkpt>
      <trkpt lat="50.85191" lon="1.64196">
        <ele>58.5</ele>
        <time>2020-06-22T20:02:50Z</time>
      </trkpt>
      <trkpt lat="50.85193" lon="1.64202">
        <ele>58.8</ele>
        <time>2020-06-22T20:02:51Z</time>
      </trkpt>
      <trkpt lat="50.85193" lon="1.64209">
        <ele>59.1</ele>
        <time>2020-06-22T20:02:52Z</time>
      </trkpt>
      <trkpt lat="50.85194" lon="1.64214">
        <ele>59.3</ele>
        <time>2020-06-22T20:02:53Z</time>
      </trkpt>
      <trkpt lat="50.85194" lon="1.64219">
        <ele>59.5</ele>
        <time>2020-06-22T20:02:54Z</time>
      </trkpt>
      <trkpt lat="50.85195" lon="1.64225">
        <ele>59.7</ele>
        <time>2020-06-22T20:02:55Z</time>
      </trkpt>
      <trkpt lat="50.85196" lon="1.6423">
        <ele>59.9</ele>
        <time>2020-06-22T20:02:56Z</time>
      </trkpt>
      <trkpt lat="50.85196" lon="1.64236">
        <ele>60.1</ele>
        <time>2020-06-22T20:02:57Z</time>
      </trkpt>
      <trkpt lat="50.85197" lon="1.64244">
        <ele>60.3</ele>
        <time>2020-06-22T20:02:58Z</time>
      </trkpt>
      <trkpt lat="50.85199" lon="1.6425">
        <ele>60.5</ele>
        <time>2020-06-22T20:02:59Z</time>
      </trkpt>
      <trkpt lat="50.852" lon="1.64257">
        <ele>60.7</ele>
        <time>2020-06-22T20:03:00Z</time>
      </trkpt>
      <trkpt lat="50.85201" lon="1.64262">
        <ele>60.8</ele>
        <time>2020-06-22T20:03:01Z</time>
      </trkpt>
      <trkpt lat="50.85202" lon="1.64268">
        <ele>60.9</ele>
        <time>2020-06-22T20:03:02Z</time>
      </trkpt>
      <trkpt lat="50.85203" lon="1.64273">
        <ele>61</ele>
        <time>2020-06-22T20:03:03Z</time>
      </trkpt>
      <trkpt lat="50.85204" lon="1.6428">
        <ele>61.2</ele>
        <time>2020-06-22T20:03:04Z</time>
      </trkpt>
      <trkpt lat="50.85205" lon="1.64287">
        <ele>61.3</ele>
        <time>2020-06-22T20:03:05Z</time>
      </trkpt>
      <trkpt lat="50.85205" lon="1.64294">
        <ele>61.3</ele>
        <time>2020-06-22T20:03:06Z</time>
      </trkpt>
      <trkpt lat="50.85206" lon="1.643">
        <ele>61.4</ele>
        <time>2020-06-22T20:03:07Z</time>
      </trkpt>
      <trkpt lat="50.85207" lon="1.64307">
        <ele>61.5</ele>
        <time>2020-06-22T20:03:08Z</time>
      </trkpt>
      <trkpt lat="50.85208" lon="1.64314">
        <ele>61.5</ele>
        <time>2020-06-22T20:03:09Z</time>
      </trkpt>
      <trkpt lat="50.85209" lon="1.64322">
        <ele>61.6</ele>
        <time>2020-06-22T20:03:10Z</time>
      </trkpt>
      <trkpt lat="50.8521" lon="1.64329">
        <ele>61.7</ele>
        <time>2020-06-22T20:03:11Z</time>
      </trkpt>
      <trkpt lat="50.85211" lon="1.64336">
        <ele>61.7</ele>
        <time>2020-06-22T20:03:12Z</time>
      </trkpt>
      <trkpt lat="50.85213" lon="1.64343">
        <ele>61.8</ele>
        <time>2020-06-22T20:03:13Z</time>
      </trkpt>
      <trkpt lat="50.85215" lon="1.64351">
        <ele>61.9</ele>
        <time>2020-06-22T20:03:14Z</time>
      </trkpt>
      <trkpt lat="50.85217" lon="1.64358">
        <ele>62</ele>
        <time>2020-06-22T20:03:15Z</time>
      </trkpt>
      <trkpt lat="50.8522" lon="1.64366">
        <ele>62</ele>
        <time>2020-06-22T20:03:16Z</time>
      </trkpt>
      <trkpt lat="50.85223" lon="1.64373">
        <ele>62</ele>
        <time>2020-06-22T20:03:17Z</time>
      </trkpt>
      <trkpt lat="50.85225" lon="1.64381">
        <ele>62</ele>
        <time>2020-06-22T20:03:18Z</time>
      </trkpt>
      <trkpt lat="50.85228" lon="1.64391">
        <ele>62.1</ele>
        <time>2020-06-22T20:03:19Z</time>
      </trkpt>
      <trkpt lat="50.85231" lon="1.644">
        <ele>62.1</ele>
        <time>2020-06-22T20:03:20Z</time>
      </trkpt>
      <trkpt lat="50.85233" lon="1.64409">
        <ele>62.2</ele>
        <time>2020-06-22T20:03:21Z</time>
      </trkpt>
      <trkpt lat="50.85235" lon="1.64418">
        <ele>62.2</ele>
        <time>2020-06-22T20:03:22Z</time>
      </trkpt>
      <trkpt lat="50.85237" lon="1.64426">
        <ele>62.2</ele>
        <time>2020-06-22T20:03:23Z</time>
      </trkpt>
      <trkpt lat="50.85241" lon="1.64431">
        <ele>62.2</ele>
        <time>2020-06-22T20:03:24Z</time>
      </trkpt>
      <trkpt lat="50.85245" lon="1.64438">
        <ele>62.2</ele>
        <time>2020-06-22T20:03:25Z</time>
      </trkpt>
      <trkpt lat="50.8525" lon="1.64447">
        <ele>62.2</ele>
        <time>2020-06-22T20:03:26Z</time>
      </trkpt>
      <trkpt lat="50.85254" lon="1.64452">
        <ele>62.2</ele>
        <time>2020-06-22T20:03:27Z</time>
      </trkpt>
      <trkpt lat="50.85258" lon="1.64459">
        <ele>62.2</ele>
        <time>2020-06-22T20:03:28Z</time>
      </trkpt>
      <trkpt lat="50.85262" lon="1.64466">
        <ele>62.2</ele>
        <time>2020-06-22T20:03:29Z</time>
      </trkpt>
      <trkpt lat="50.85266" lon="1.64472">
        <ele>62.2</ele>
        <time>2020-06-22T20:03:30Z</time>
      </trkpt>
      <trkpt lat="50.8527" lon="1.64477">
        <ele>62.3</ele>
        <time>2020-06-22T20:03:31Z</time>
      </trkpt>
      <trkpt lat="50.85274" lon="1.64484">
        <ele>62.3</ele>
        <time>2020-06-22T20:03:32Z</time>
      </trkpt>
      <trkpt lat="50.85278" lon="1.64491">
        <ele>62.3</ele>
        <time>2020-06-22T20:03:33Z</time>
      </trkpt>
      <trkpt lat="50.85283" lon="1.64497">
        <ele>62.4</ele>
        <time>2020-06-22T20:03:34Z</time>
      </trkpt>
      <trkpt lat="50.85287" lon="1.64504">
        <ele>62.4</ele>
        <time>2020-06-22T20:03:35Z</time>
      </trkpt>
      <trkpt lat="50.85291" lon="1.64511">
        <ele>62.5</ele>
        <time>2020-06-22T20:03:36Z</time>
      </trkpt>
      <trkpt lat="50.85295" lon="1.64518">
        <ele>62.5</ele>
        <time>2020-06-22T20:03:37Z</time>
      </trkpt>
      <trkpt lat="50.85299" lon="1.64526">
        <ele>62.5</ele>
        <time>2020-06-22T20:03:38Z</time>
      </trkpt>
      <trkpt lat="50.85303" lon="1.64533">
        <ele>62.5</ele>
        <time>2020-06-22T20:03:39Z</time>
      </trkpt>
      <trkpt lat="50.85306" lon="1.64541">
        <ele>62.5</ele>
        <time>2020-06-22T20:03:40Z</time>
      </trkpt>
      <trkpt lat="50.8531" lon="1.64548">
        <ele>62.6</ele>
        <time>2020-06-22T20:03:41Z</time>
      </trkpt>
      <trkpt lat="50.85314" lon="1.64555">
        <ele>62.6</ele>
        <time>2020-06-22T20:03:42Z</time>
      </trkpt>
      <trkpt lat="50.85317" lon="1.6456">
        <ele>62.6</ele>
        <time>2020-06-22T20:03:43Z</time>
      </trkpt>
      <trkpt lat="50.8532" lon="1.64565">
        <ele>62.6</ele>
        <time>2020-06-22T20:03:44Z</time>
      </trkpt>
      <trkpt lat="50.85325" lon="1.64571">
        <ele>62.6</ele>
        <time>2020-06-22T20:03:45Z</time>
      </trkpt>
      <trkpt lat="50.85328" lon="1.64578">
        <ele>62.7</ele>
        <time>2020-06-22T20:03:46Z</time>
      </trkpt>
      <trkpt lat="50.85332" lon="1.64585">
        <ele>62.7</ele>
        <time>2020-06-22T20:03:47Z</time>
      </trkpt>
      <trkpt lat="50.85336" lon="1.64592">
        <ele>62.8</ele>
        <time>2020-06-22T20:03:48Z</time>
      </trkpt>
      <trkpt lat="50.8534" lon="1.64599">
        <ele>62.9</ele>
        <time>2020-06-22T20:03:49Z</time>
      </trkpt>
      <trkpt lat="50.85343" lon="1.64601">
        <ele>62.9</ele>
        <time>2020-06-22T20:03:50Z</time>
      </trkpt>
      <trkpt lat="50.85347" lon="1.64607">
        <ele>63</ele>
        <time>2020-06-22T20:03:51Z</time>
      </trkpt>
      <trkpt lat="50.85351" lon="1.64613">
        <ele>63.1</ele>
        <time>2020-06-22T20:03:52Z</time>
      </trkpt>
      <trkpt lat="50.85355" lon="1.64618">
        <ele>63.3</ele>
        <time>2020-06-22T20:03:53Z</time>
      </trkpt>
      <trkpt lat="50.85359" lon="1.64624">
        <ele>63.4</ele>
        <time>2020-06-22T20:03:54Z</time>
      </trkpt>
      <trkpt lat="50.85362" lon="1.64629">
        <ele>63.5</ele>
        <time>2020-06-22T20:03:55Z</time>
      </trkpt>
      <trkpt lat="50.85366" lon="1.64635">
        <ele>63.6</ele>
        <time>2020-06-22T20:03:56Z</time>
      </trkpt>
      <trkpt lat="50.8537" lon="1.6464">
        <ele>63.7</ele>
        <time>2020-06-22T20:03:57Z</time>
      </trkpt>
      <trkpt lat="50.85373" lon="1.64645">
        <ele>63.9</ele>
        <time>2020-06-22T20:03:58Z</time>
      </trkpt>
      <trkpt lat="50.85377" lon="1.6465">
        <ele>64</ele>
        <time>2020-06-22T20:03:59Z</time>
      </trkpt>
      <trkpt lat="50.8538" lon="1.64655">
        <ele>64.2</ele>
        <time>2020-06-22T20:04:00Z</time>
      </trkpt>
      <trkpt lat="50.85384" lon="1.64661">
        <ele>64.4</ele>
        <time>2020-06-22T20:04:01Z</time>
      </trkpt>
      <trkpt lat="50.85387" lon="1.64668">
        <ele>64.7</ele>
        <time>2020-06-22T20:04:02Z</time>
      </trkpt>
      <trkpt lat="50.8539" lon="1.64671">
        <ele>64.8</ele>
        <time>2020-06-22T20:04:03Z</time>
      </trkpt>
      <trkpt lat="50.85393" lon="1.64674">
        <ele>65</ele>
        <time>2020-06-22T20:04:04Z</time>
      </trkpt>
      <trkpt lat="50.85397" lon="1.64678">
        <ele>65.2</ele>
        <time>2020-06-22T20:04:05Z</time>
      </trkpt>
      <trkpt lat="50.854" lon="1.64684">
        <ele>65.4</ele>
        <time>2020-06-22T20:04:06Z</time>
      </trkpt>
      <trkpt lat="50.85404" lon="1.6469">
        <ele>65.7</ele>
        <time>2020-06-22T20:04:07Z</time>
      </trkpt>
      <trkpt lat="50.85407" lon="1.64696">
        <ele>65.9</ele>
        <time>2020-06-22T20:04:08Z</time>
      </trkpt>
      <trkpt lat="50.8541" lon="1.64701">
        <ele>66.1</ele>
        <time>2020-06-22T20:04:09Z</time>
      </trkpt>
      <trkpt lat="50.85413" lon="1.64707">
        <ele>66.3</ele>
        <time>2020-06-22T20:04:10Z</time>
      </trkpt>
      <trkpt lat="50.85417" lon="1.64712">
        <ele>66.4</ele>
        <time>2020-06-22T20:04:11Z</time>
      </trkpt>
      <trkpt lat="50.8542" lon="1.64719">
        <ele>66.6</ele>
        <time>2020-06-22T20:04:12Z</time>
      </trkpt>
      <trkpt lat="50.85424" lon="1.64726">
        <ele>66.8</ele>
        <time>2020-06-22T20:04:13Z</time>
      </trkpt>
      <trkpt lat="50.85427" lon="1.64731">
        <ele>67</ele>
        <time>2020-06-22T20:04:14Z</time>
      </trkpt>
      <trkpt lat="50.8543" lon="1.64738">
        <ele>67.2</ele>
        <time>2020-06-22T20:04:15Z</time>
      </trkpt>
      <trkpt lat="50.85434" lon="1.64746">
        <ele>67.5</ele>
        <time>2020-06-22T20:04:16Z</time>
      </trkpt>
      <trkpt lat="50.85438" lon="1.64752">
        <ele>67.8</ele>
        <time>2020-06-22T20:04:17Z</time>
      </trkpt>
      <trkpt lat="50.85441" lon="1.64759">
        <ele>68</ele>
        <time>2020-06-22T20:04:18Z</time>
      </trkpt>
      <trkpt lat="50.85444" lon="1.64764">
        <ele>68.3</ele>
        <time>2020-06-22T20:04:19Z</time>
      </trkpt>
      <trkpt lat="50.85448" lon="1.64769">
        <ele>68.6</ele>
        <time>2020-06-22T20:04:20Z</time>
      </trkpt>
      <trkpt lat="50.85451" lon="1.64775">
        <ele>68.9</ele>
        <time>2020-06-22T20:04:21Z</time>
      </trkpt>
      <trkpt lat="50.85455" lon="1.64781">
        <ele>69.2</ele>
        <time>2020-06-22T20:04:22Z</time>
      </trkpt>
      <trkpt lat="50.85458" lon="1.64787">
        <ele>69.6</ele>
        <time>2020-06-22T20:04:23Z</time>
      </trkpt>
      <trkpt lat="50.85462" lon="1.64792">
        <ele>70</ele>
        <time>2020-06-22T20:04:24Z</time>
      </trkpt>
      <trkpt lat="50.85465" lon="1.64798">
        <ele>70.4</ele>
        <time>2020-06-22T20:04:25Z</time>
      </trkpt>
      <trkpt lat="50.85468" lon="1.64803">
        <ele>70.7</ele>
        <time>2020-06-22T20:04:26Z</time>
      </trkpt>
      <trkpt lat="50.85472" lon="1.64807">
        <ele>71</ele>
        <time>2020-06-22T20:04:27Z</time>
      </trkpt>
      <trkpt lat="50.85473" lon="1.64809">
        <ele>71.2</ele>
        <time>2020-06-22T20:04:28Z</time>
      </trkpt>
      <trkpt lat="50.85476" lon="1.64813">
        <ele>71.4</ele>
        <time>2020-06-22T20:04:29Z</time>
      </trkpt>
      <trkpt lat="50.85479" lon="1.64817">
        <ele>71.7</ele>
        <time>2020-06-22T20:04:30Z</time>
      </trkpt>
      <trkpt lat="50.85482" lon="1.64821">
        <ele>72</ele>
        <time>2020-06-22T20:04:31Z</time>
      </trkpt>
      <trkpt lat="50.85486" lon="1.64826">
        <ele>72.3</ele>
        <time>2020-06-22T20:04:32Z</time>
      </trkpt>
      <trkpt lat="50.8549" lon="1.64829">
        <ele>72.6</ele>
        <time>2020-06-22T20:04:33Z</time>
      </trkpt>
      <trkpt lat="50.85494" lon="1.64834">
        <ele>72.9</ele>
        <time>2020-06-22T20:04:34Z</time>
      </trkpt>
      <trkpt lat="50.85497" lon="1.64838">
        <ele>73.2</ele>
        <time>2020-06-22T20:04:35Z</time>
      </trkpt>
      <trkpt lat="50.85501" lon="1.64841">
        <ele>73.4</ele>
        <time>2020-06-22T20:04:36Z</time>
      </trkpt>
      <trkpt lat="50.85504" lon="1.64846">
        <ele>73.7</ele>
        <time>2020-06-22T20:04:37Z</time>
      </trkpt>
      <trkpt lat="50.85509" lon="1.64851">
        <ele>74</ele>
        <time>2020-06-22T20:04:38Z</time>
      </trkpt>
      <trkpt lat="50.85514" lon="1.64857">
        <ele>74.4</ele>
        <time>2020-06-22T20:04:39Z</time>
      </trkpt>
      <trkpt lat="50.85518" lon="1.64863">
        <ele>74.7</ele>
        <time>2020-06-22T20:04:40Z</time>
      </trkpt>
      <trkpt lat="50.85523" lon="1.64868">
        <ele>75</ele>
        <time>2020-06-22T20:04:41Z</time>
      </trkpt>
      <trkpt lat="50.85528" lon="1.64873">
        <ele>75.3</ele>
        <time>2020-06-22T20:04:42Z</time>
      </trkpt>
      <trkpt lat="50.85533" lon="1.64878">
        <ele>75.7</ele>
        <time>2020-06-22T20:04:43Z</time>
      </trkpt>
      <trkpt lat="50.85537" lon="1.64883">
        <ele>76</ele>
        <time>2020-06-22T20:04:44Z</time>
      </trkpt>
      <trkpt lat="50.85541" lon="1.64887">
        <ele>76.2</ele>
        <time>2020-06-22T20:04:45Z</time>
      </trkpt>
      <trkpt lat="50.85545" lon="1.64892">
        <ele>76.4</ele>
        <time>2020-06-22T20:04:46Z</time>
      </trkpt>
      <trkpt lat="50.8555" lon="1.64898">
        <ele>76.7</ele>
        <time>2020-06-22T20:04:47Z</time>
      </trkpt>
      <trkpt lat="50.85554" lon="1.64903">
        <ele>77</ele>
        <time>2020-06-22T20:04:48Z</time>
      </trkpt>
      <trkpt lat="50.85558" lon="1.64908">
        <ele>77.4</ele>
        <time>2020-06-22T20:04:49Z</time>
      </trkpt>
      <trkpt lat="50.85562" lon="1.64913">
        <ele>77.6</ele>
        <time>2020-06-22T20:04:50Z</time>
      </trkpt>
      <trkpt lat="50.85566" lon="1.64917">
        <ele>77.9</ele>
        <time>2020-06-22T20:04:51Z</time>
      </trkpt>
      <trkpt lat="50.85569" lon="1.64922">
        <ele>78.2</ele>
        <time>2020-06-22T20:04:52Z</time>
      </trkpt>
      <trkpt lat="50.85572" lon="1.64926">
        <ele>78.4</ele>
        <time>2020-06-22T20:04:53Z</time>
      </trkpt>
      <trkpt lat="50.85575" lon="1.64929">
        <ele>78.5</ele>
        <time>2020-06-22T20:04:54Z</time>
      </trkpt>
      <trkpt lat="50.85578" lon="1.64932">
        <ele>78.7</ele>
        <time>2020-06-22T20:04:55Z</time>
      </trkpt>
      <trkpt lat="50.85581" lon="1.64935">
        <ele>78.9</ele>
        <time>2020-06-22T20:04:56Z</time>
      </trkpt>
      <trkpt lat="50.85584" lon="1.64938">
        <ele>79</ele>
        <time>2020-06-22T20:04:57Z</time>
      </trkpt>
      <trkpt lat="50.85587" lon="1.64942">
        <ele>79.1</ele>
        <time>2020-06-22T20:04:58Z</time>
      </trkpt>
      <trkpt lat="50.8559" lon="1.64947">
        <ele>79.3</ele>
        <time>2020-06-22T20:04:59Z</time>
      </trkpt>
      <trkpt lat="50.85594" lon="1.64952">
        <ele>79.4</ele>
        <time>2020-06-22T20:05:00Z</time>
      </trkpt>
      <trkpt lat="50.85598" lon="1.64955">
        <ele>79.6</ele>
        <time>2020-06-22T20:05:01Z</time>
      </trkpt>
      <trkpt lat="50.85601" lon="1.64959">
        <ele>79.7</ele>
        <time>2020-06-22T20:05:02Z</time>
      </trkpt>
      <trkpt lat="50.85605" lon="1.64964">
        <ele>79.8</ele>
        <time>2020-06-22T20:05:03Z</time>
      </trkpt>
      <trkpt lat="50.85608" lon="1.64967">
        <ele>79.9</ele>
        <time>2020-06-22T20:05:04Z</time>
      </trkpt>
      <trkpt lat="50.85611" lon="1.64971">
        <ele>79.9</ele>
        <time>2020-06-22T20:05:05Z</time>
      </trkpt>
      <trkpt lat="50.85614" lon="1.64974">
        <ele>80</ele>
        <time>2020-06-22T20:05:06Z</time>
      </trkpt>
      <trkpt lat="50.85616" lon="1.64977">
        <ele>80.1</ele>
        <time>2020-06-22T20:05:07Z</time>
      </trkpt>
      <trkpt lat="50.85619" lon="1.64982">
        <ele>80.1</ele>
        <time>2020-06-22T20:05:08Z</time>
      </trkpt>
      <trkpt lat="50.85622" lon="1.64985">
        <ele>80.1</ele>
        <time>2020-06-22T20:05:09Z</time>
      </trkpt>
      <trkpt lat="50.85624" lon="1.6499">
        <ele>80.2</ele>
        <time>2020-06-22T20:05:10Z</time>
      </trkpt>
      <trkpt lat="50.85627" lon="1.64993">
        <ele>80.2</ele>
        <time>2020-06-22T20:05:11Z</time>
      </trkpt>
      <trkpt lat="50.85629" lon="1.64998">
        <ele>80.2</ele>
        <time>2020-06-22T20:05:12Z</time>
      </trkpt>
      <trkpt lat="50.85632" lon="1.65002">
        <ele>80.3</ele>
        <time>2020-06-22T20:05:13Z</time>
      </trkpt>
      <trkpt lat="50.85635" lon="1.65005">
        <ele>80.3</ele>
        <time>2020-06-22T20:05:14Z</time>
      </trkpt>
      <trkpt lat="50.85638" lon="1.65011">
        <ele>80.3</ele>
        <time>2020-06-22T20:05:15Z</time>
      </trkpt>
      <trkpt lat="50.8564" lon="1.65015">
        <ele>80.3</ele>
        <time>2020-06-22T20:05:16Z</time>
      </trkpt>
      <trkpt lat="50.85643" lon="1.65019">
        <ele>80.3</ele>
        <time>2020-06-22T20:05:17Z</time>
      </trkpt>
      <trkpt lat="50.85646" lon="1.65024">
        <ele>80.2</ele>
        <time>2020-06-22T20:05:18Z</time>
      </trkpt>
      <trkpt lat="50.85649" lon="1.65028">
        <ele>80.2</ele>
        <time>2020-06-22T20:05:19Z</time>
      </trkpt>
      <trkpt lat="50.85652" lon="1.65033">
        <ele>80.2</ele>
        <time>2020-06-22T20:05:20Z</time>
      </trkpt>
      <trkpt lat="50.85654" lon="1.65038">
        <ele>80.1</ele>
        <time>2020-06-22T20:05:21Z</time>
      </trkpt>
      <trkpt lat="50.85656" lon="1.65042">
        <ele>80.1</ele>
        <time>2020-06-22T20:05:22Z</time>
      </trkpt>
      <trkpt lat="50.85659" lon="1.65046">
        <ele>80</ele>
        <time>2020-06-22T20:05:23Z</time>
      </trkpt>
      <trkpt lat="50.85661" lon="1.65052">
        <ele>79.9</ele>
        <time>2020-06-22T20:05:24Z</time>
      </trkpt>
      <trkpt lat="50.85663" lon="1.65057">
        <ele>79.8</ele>
        <time>2020-06-22T20:05:25Z</time>
      </trkpt>
      <trkpt lat="50.85664" lon="1.65064">
        <ele>79.7</ele>
        <time>2020-06-22T20:05:26Z</time>
      </trkpt>
      <trkpt lat="50.85667" lon="1.65069">
        <ele>79.6</ele>
        <time>2020-06-22T20:05:27Z</time>
      </trkpt>
      <trkpt lat="50.8567" lon="1.65074">
        <ele>79.5</ele>
        <time>2020-06-22T20:05:28Z</time>
      </trkpt>
      <trkpt lat="50.85672" lon="1.65079">
        <ele>79.3</ele>
        <time>2020-06-22T20:05:29Z</time>
      </trkpt>
      <trkpt lat="50.85675" lon="1.65084">
        <ele>79.2</ele>
        <time>2020-06-22T20:05:30Z</time>
      </trkpt>
      <trkpt lat="50.85677" lon="1.65088">
        <ele>79.1</ele>
        <time>2020-06-22T20:05:31Z</time>
      </trkpt>
      <trkpt lat="50.85678" lon="1.65091">
        <ele>79.1</ele>
        <time>2020-06-22T20:05:32Z</time>
      </trkpt>
      <trkpt lat="50.85678" lon="1.65091">
        <ele>79.1</ele>
        <time>2020-06-22T20:05:33Z</time>
      </trkpt>
      <trkpt lat="50.85679" lon="1.65091">
        <ele>79</ele>
        <time>2020-06-22T20:05:34Z</time>
      </trkpt>
      <trkpt lat="50.85679" lon="1.65092">
        <ele>79</ele>
        <time>2020-06-22T20:05:35Z</time>
      </trkpt>
      <trkpt lat="50.85679" lon="1.65092">
        <ele>79</ele>
        <time>2020-06-22T20:05:36Z</time>
      </trkpt>
      <trkpt lat="50.85679" lon="1.65093">
        <ele>79</ele>
        <time>2020-06-22T20:05:37Z</time>
      </trkpt>
      <trkpt lat="50.8568" lon="1.65093">
        <ele>79</ele>
        <time>2020-06-22T20:05:38Z</time>
      </trkpt>
      <trkpt lat="50.8568" lon="1.65094">
        <ele>79</ele>
        <time>2020-06-22T20:05:39Z</time>
      </trkpt>
      <trkpt lat="50.8568" lon="1.65094">
        <ele>79</ele>
        <time>2020-06-22T20:05:40Z</time>
      </trkpt>
      <trkpt lat="50.85681" lon="1.65095">
        <ele>79</ele>
        <time>2020-06-22T20:05:41Z</time>
      </trkpt>
      <trkpt lat="50.85681" lon="1.65095">
        <ele>78.9</ele>
        <time>2020-06-22T20:05:42Z</time>
      </trkpt>
      <trkpt lat="50.85681" lon="1.65095">
        <ele>78.9</ele>
        <time>2020-06-22T20:05:43Z</time>
      </trkpt>
      <trkpt lat="50.85681" lon="1.65096">
        <ele>78.9</ele>
        <time>2020-06-22T20:05:44Z</time>
      </trkpt>
      <trkpt lat="50.85682" lon="1.65096">
        <ele>78.9</ele>
        <time>2020-06-22T20:05:45Z</time>
      </trkpt>
      <trkpt lat="50.85682" lon="1.65097">
        <ele>78.9</ele>
        <time>2020-06-22T20:06:46Z</time>
      </trkpt>
      <trkpt lat="50.85682" lon="1.65097">
        <ele>78.9</ele>
        <time>2020-06-22T20:06:47Z</time>
      </trkpt>
      <trkpt lat="50.85684" lon="1.65104">
        <ele>78.7</ele>
        <time>2020-06-22T20:06:48Z</time>
      </trkpt>
      <trkpt lat="50.85686" lon="1.65109">
        <ele>78.6</ele>
        <time>2020-06-22T20:06:49Z</time>
      </trkpt>
      <trkpt lat="50.85688" lon="1.65115">
        <ele>78.5</ele>
        <time>2020-06-22T20:06:50Z</time>
      </trkpt>
      <trkpt lat="50.8569" lon="1.65121">
        <ele>78.3</ele>
        <time>2020-06-22T20:06:51Z</time>
      </trkpt>
      <trkpt lat="50.85692" lon="1.65127">
        <ele>78.2</ele>
        <time>2020-06-22T20:06:52Z</time>
      </trkpt>
      <trkpt lat="50.85695" lon="1.65134">
        <ele>78</ele>
        <time>2020-06-22T20:06:53Z</time>
      </trkpt>
      <trkpt lat="50.85698" lon="1.65141">
        <ele>77.8</ele>
        <time>2020-06-22T20:06:54Z</time>
      </trkpt>
      <trkpt lat="50.85702" lon="1.65149">
        <ele>77.6</ele>
        <time>2020-06-22T20:06:55Z</time>
      </trkpt>
      <trkpt lat="50.85706" lon="1.65157">
        <ele>77.4</ele>
        <time>2020-06-22T20:06:56Z</time>
      </trkpt>
      <trkpt lat="50.8571" lon="1.65165">
        <ele>77.1</ele>
        <time>2020-06-22T20:06:57Z</time>
      </trkpt>
      <trkpt lat="50.85714" lon="1.65173">
        <ele>76.8</ele>
        <time>2020-06-22T20:06:58Z</time>
      </trkpt>
      <trkpt lat="50.85718" lon="1.6518">
        <ele>76.4</ele>
        <time>2020-06-22T20:06:59Z</time>
      </trkpt>
      <trkpt lat="50.85723" lon="1.65188">
        <ele>75.8</ele>
        <time>2020-06-22T20:07:00Z</time>
      </trkpt>
      <trkpt lat="50.8573" lon="1.65194">
        <ele>75.1</ele>
        <time>2020-06-22T20:07:01Z</time>
      </trkpt>
      <trkpt lat="50.85738" lon="1.652">
        <ele>74.4</ele>
        <time>2020-06-22T20:07:02Z</time>
      </trkpt>
      <trkpt lat="50.85746" lon="1.65206">
        <ele>73.6</ele>
        <time>2020-06-22T20:07:03Z</time>
      </trkpt>
      <trkpt lat="50.85754" lon="1.65212">
        <ele>72.8</ele>
        <time>2020-06-22T20:07:04Z</time>
      </trkpt>
      <trkpt lat="50.85763" lon="1.65217">
        <ele>72</ele>
        <time>2020-06-22T20:07:05Z</time>
      </trkpt>
      <trkpt lat="50.85771" lon="1.65223">
        <ele>71.2</ele>
        <time>2020-06-22T20:07:06Z</time>
      </trkpt>
      <trkpt lat="50.8578" lon="1.65229">
        <ele>70.3</ele>
        <time>2020-06-22T20:07:07Z</time>
      </trkpt>
      <trkpt lat="50.8579" lon="1.65236">
        <ele>69.4</ele>
        <time>2020-06-22T20:07:08Z</time>
      </trkpt>
      <trkpt lat="50.85799" lon="1.65243">
        <ele>68.6</ele>
        <time>2020-06-22T20:07:09Z</time>
      </trkpt>
      <trkpt lat="50.85808" lon="1.6525">
        <ele>67.9</ele>
        <time>2020-06-22T20:07:10Z</time>
      </trkpt>
      <trkpt lat="50.85817" lon="1.65256">
        <ele>67.2</ele>
        <time>2020-06-22T20:07:11Z</time>
      </trkpt>
      <trkpt lat="50.85826" lon="1.65263">
        <ele>66.5</ele>
        <time>2020-06-22T20:07:12Z</time>
      </trkpt>
      <trkpt lat="50.85833" lon="1.6527">
        <ele>65.8</ele>
        <time>2020-06-22T20:07:13Z</time>
      </trkpt>
      <trkpt lat="50.85839" lon="1.65279">
        <ele>65.2</ele>
        <time>2020-06-22T20:07:14Z</time>
      </trkpt>
      <trkpt lat="50.85845" lon="1.6529">
        <ele>64.5</ele>
        <time>2020-06-22T20:07:15Z</time>
      </trkpt>
      <trkpt lat="50.85849" lon="1.65301">
        <ele>63.9</ele>
        <time>2020-06-22T20:07:16Z</time>
      </trkpt>
      <trkpt lat="50.85853" lon="1.65313">
        <ele>63.3</ele>
        <time>2020-06-22T20:07:17Z</time>
      </trkpt>
      <trkpt lat="50.85857" lon="1.65325">
        <ele>62.7</ele>
        <time>2020-06-22T20:07:18Z</time>
      </trkpt>
      <trkpt lat="50.8586" lon="1.65337">
        <ele>62</ele>
        <time>2020-06-22T20:07:19Z</time>
      </trkpt>
      <trkpt lat="50.85864" lon="1.6535">
        <ele>61.4</ele>
        <time>2020-06-22T20:07:20Z</time>
      </trkpt>
      <trkpt lat="50.85867" lon="1.65363">
        <ele>60.7</ele>
        <time>2020-06-22T20:07:21Z</time>
      </trkpt>
      <trkpt lat="50.85872" lon="1.65374">
        <ele>60.1</ele>
        <time>2020-06-22T20:07:22Z</time>
      </trkpt>
      <trkpt lat="50.85876" lon="1.65386">
        <ele>59.4</ele>
        <time>2020-06-22T20:07:23Z</time>
      </trkpt>
      <trkpt lat="50.85881" lon="1.65398">
        <ele>58.7</ele>
        <time>2020-06-22T20:07:24Z</time>
      </trkpt>
      <trkpt lat="50.85886" lon="1.6541">
        <ele>57.9</ele>
        <time>2020-06-22T20:07:25Z</time>
      </trkpt>
      <trkpt lat="50.85892" lon="1.65423">
        <ele>57.1</ele>
        <time>2020-06-22T20:07:26Z</time>
      </trkpt>
      <trkpt lat="50.85898" lon="1.65435">
        <ele>56.3</ele>
        <time>2020-06-22T20:07:27Z</time>
      </trkpt>
      <trkpt lat="50.85903" lon="1.65447">
        <ele>55.5</ele>
        <time>2020-06-22T20:07:28Z</time>
      </trkpt>
      <trkpt lat="50.85909" lon="1.65459">
        <ele>54.7</ele>
        <time>2020-06-22T20:07:29Z</time>
      </trkpt>
      <trkpt lat="50.85915" lon="1.65472">
        <ele>53.9</ele>
        <time>2020-06-22T20:07:30Z</time>
      </trkpt>
      <trkpt lat="50.8592" lon="1.65485">
        <ele>53.1</ele>
        <time>2020-06-22T20:07:31Z</time>
      </trkpt>
      <trkpt lat="50.85926" lon="1.65496">
        <ele>52.3</ele>
        <time>2020-06-22T20:07:32Z</time>
      </trkpt>
      <trkpt lat="50.85933" lon="1.65508">
        <ele>51.5</ele>
        <time>2020-06-22T20:07:33Z</time>
      </trkpt>
      <trkpt lat="50.85939" lon="1.65519">
        <ele>50.8</ele>
        <time>2020-06-22T20:07:34Z</time>
      </trkpt>
      <trkpt lat="50.85947" lon="1.65529">
        <ele>50.1</ele>
        <time>2020-06-22T20:07:35Z</time>
      </trkpt>
      <trkpt lat="50.85954" lon="1.65539">
        <ele>49.4</ele>
        <time>2020-06-22T20:07:36Z</time>
      </trkpt>
      <trkpt lat="50.85961" lon="1.65549">
        <ele>48.8</ele>
        <time>2020-06-22T20:07:37Z</time>
      </trkpt>
      <trkpt lat="50.85967" lon="1.65558">
        <ele>48.3</ele>
        <time>2020-06-22T20:07:38Z</time>
      </trkpt>
      <trkpt lat="50.85974" lon="1.65566">
        <ele>47.9</ele>
        <time>2020-06-22T20:07:39Z</time>
      </trkpt>
      <trkpt lat="50.8598" lon="1.65574">
        <ele>47.6</ele>
        <time>2020-06-22T20:07:40Z</time>
      </trkpt>
      <trkpt lat="50.85986" lon="1.65583">
        <ele>47.4</ele>
        <time>2020-06-22T20:07:41Z</time>
      </trkpt>
      <trkpt lat="50.85992" lon="1.6559">
        <ele>47.1</ele>
        <time>2020-06-22T20:07:42Z</time>
      </trkpt>
      <trkpt lat="50.85998" lon="1.65597">
        <ele>46.9</ele>
        <time>2020-06-22T20:07:43Z</time>
      </trkpt>
      <trkpt lat="50.86002" lon="1.65602">
        <ele>46.8</ele>
        <time>2020-06-22T20:07:44Z</time>
      </trkpt>
      <trkpt lat="50.86005" lon="1.65607">
        <ele>46.7</ele>
        <time>2020-06-22T20:07:45Z</time>
      </trkpt>
      <trkpt lat="50.86008" lon="1.65611">
        <ele>46.5</ele>
        <time>2020-06-22T20:07:46Z</time>
      </trkpt>
      <trkpt lat="50.86011" lon="1.65614">
        <ele>46.4</ele>
        <time>2020-06-22T20:07:47Z</time>
      </trkpt>
      <trkpt lat="50.86013" lon="1.65616">
        <ele>46.2</ele>
        <time>2020-06-22T20:07:48Z</time>
      </trkpt>
      <trkpt lat="50.86013" lon="1.65616">
        <ele>46.2</ele>
        <time>2020-06-22T20:07:49Z</time>
      </trkpt>
      <trkpt lat="50.86013" lon="1.65618">
        <ele>46.2</ele>
        <time>2020-06-22T20:07:50Z</time>
      </trkpt>
      <trkpt lat="50.86014" lon="1.65619">
        <ele>46.1</ele>
        <time>2020-06-22T20:07:51Z</time>
      </trkpt>
      <trkpt lat="50.86015" lon="1.6562">
        <ele>46</ele>
        <time>2020-06-22T20:07:52Z</time>
      </trkpt>
      <trkpt lat="50.86015" lon="1.65622">
        <ele>45.6</ele>
        <time>2020-06-22T20:07:53Z</time>
      </trkpt>
      <trkpt lat="50.86016" lon="1.65623">
        <ele>45.5</ele>
        <time>2020-06-22T20:07:54Z</time>
      </trkpt>
      <trkpt lat="50.86017" lon="1.65625">
        <ele>45.4</ele>
        <time>2020-06-22T20:07:55Z</time>
      </trkpt>
      <trkpt lat="50.86017" lon="1.65626">
        <ele>45.3</ele>
        <time>2020-06-22T20:07:56Z</time>
      </trkpt>
      <trkpt lat="50.86018" lon="1.65628">
        <ele>45.2</ele>
        <time>2020-06-22T20:07:57Z</time>
      </trkpt>
      <trkpt lat="50.86019" lon="1.65629">
        <ele>45.1</ele>
        <time>2020-06-22T20:07:58Z</time>
      </trkpt>
      <trkpt lat="50.86019" lon="1.6563">
        <ele>45.1</ele>
        <time>2020-06-22T20:07:59Z</time>
      </trkpt>
      <trkpt lat="50.8602" lon="1.65632">
        <ele>45</ele>
        <time>2020-06-22T20:08:38Z</time>
      </trkpt>
      <trkpt lat="50.8602" lon="1.65633">
        <ele>44.9</ele>
        <time>2020-06-22T20:08:39Z</time>
      </trkpt>
      <trkpt lat="50.86024" lon="1.6564">
        <ele>44.4</ele>
        <time>2020-06-22T20:08:40Z</time>
      </trkpt>
      <trkpt lat="50.86027" lon="1.65647">
        <ele>43.9</ele>
        <time>2020-06-22T20:08:41Z</time>
      </trkpt>
      <trkpt lat="50.86031" lon="1.65653">
        <ele>43.4</ele>
        <time>2020-06-22T20:08:42Z</time>
      </trkpt>
      <trkpt lat="50.86036" lon="1.6566">
        <ele>42.9</ele>
        <time>2020-06-22T20:08:43Z</time>
      </trkpt>
      <trkpt lat="50.86041" lon="1.65665">
        <ele>42.4</ele>
        <time>2020-06-22T20:08:44Z</time>
      </trkpt>
      <trkpt lat="50.86046" lon="1.65672">
        <ele>41.8</ele>
        <time>2020-06-22T20:08:45Z</time>
      </trkpt>
      <trkpt lat="50.86052" lon="1.65679">
        <ele>41.3</ele>
        <time>2020-06-22T20:08:46Z</time>
      </trkpt>
      <trkpt lat="50.86058" lon="1.65686">
        <ele>40.8</ele>
        <time>2020-06-22T20:08:47Z</time>
      </trkpt>
      <trkpt lat="50.86065" lon="1.65694">
        <ele>40.3</ele>
        <time>2020-06-22T20:08:48Z</time>
      </trkpt>
      <trkpt lat="50.86073" lon="1.657">
        <ele>39.9</ele>
        <time>2020-06-22T20:08:49Z</time>
      </trkpt>
      <trkpt lat="50.86079" lon="1.65708">
        <ele>39.4</ele>
        <time>2020-06-22T20:08:50Z</time>
      </trkpt>
      <trkpt lat="50.86086" lon="1.65715">
        <ele>39</ele>
        <time>2020-06-22T20:08:51Z</time>
      </trkpt>
      <trkpt lat="50.86093" lon="1.65722">
        <ele>38.6</ele>
        <time>2020-06-22T20:08:52Z</time>
      </trkpt>
      <trkpt lat="50.861" lon="1.65729">
        <ele>38.2</ele>
        <time>2020-06-22T20:08:53Z</time>
      </trkpt>
      <trkpt lat="50.86108" lon="1.65735">
        <ele>37.8</ele>
        <time>2020-06-22T20:08:54Z</time>
      </trkpt>
      <trkpt lat="50.86115" lon="1.65742">
        <ele>37.5</ele>
        <time>2020-06-22T20:08:55Z</time>
      </trkpt>
      <trkpt lat="50.86123" lon="1.65748">
        <ele>37.1</ele>
        <time>2020-06-22T20:08:56Z</time>
      </trkpt>
      <trkpt lat="50.8613" lon="1.65755">
        <ele>36.7</ele>
        <time>2020-06-22T20:08:57Z</time>
      </trkpt>
      <trkpt lat="50.86137" lon="1.65762">
        <ele>36.4</ele>
        <time>2020-06-22T20:08:58Z</time>
      </trkpt>
      <trkpt lat="50.86144" lon="1.65769">
        <ele>36.1</ele>
        <time>2020-06-22T20:08:59Z</time>
      </trkpt>
      <trkpt lat="50.86152" lon="1.65777">
        <ele>35.7</ele>
        <time>2020-06-22T20:09:00Z</time>
      </trkpt>
      <trkpt lat="50.86159" lon="1.65784">
        <ele>35.4</ele>
        <time>2020-06-22T20:09:01Z</time>
      </trkpt>
      <trkpt lat="50.86167" lon="1.65791">
        <ele>35.1</ele>
        <time>2020-06-22T20:09:02Z</time>
      </trkpt>
      <trkpt lat="50.86175" lon="1.65799">
        <ele>34.9</ele>
        <time>2020-06-22T20:09:03Z</time>
      </trkpt>
      <trkpt lat="50.86183" lon="1.65806">
        <ele>34.6</ele>
        <time>2020-06-22T20:09:04Z</time>
      </trkpt>
      <trkpt lat="50.86191" lon="1.65813">
        <ele>34.4</ele>
        <time>2020-06-22T20:09:05Z</time>
      </trkpt>
      <trkpt lat="50.86199" lon="1.65819">
        <ele>34.2</ele>
        <time>2020-06-22T20:09:06Z</time>
      </trkpt>
      <trkpt lat="50.86207" lon="1.65825">
        <ele>34</ele>
        <time>2020-06-22T20:09:07Z</time>
      </trkpt>
      <trkpt lat="50.86216" lon="1.65831">
        <ele>33.8</ele>
        <time>2020-06-22T20:09:08Z</time>
      </trkpt>
      <trkpt lat="50.86224" lon="1.65838">
        <ele>33.5</ele>
        <time>2020-06-22T20:09:09Z</time>
      </trkpt>
      <trkpt lat="50.86233" lon="1.65843">
        <ele>33.3</ele>
        <time>2020-06-22T20:09:10Z</time>
      </trkpt>
      <trkpt lat="50.86241" lon="1.65849">
        <ele>33.1</ele>
        <time>2020-06-22T20:09:11Z</time>
      </trkpt>
      <trkpt lat="50.8625" lon="1.65855">
        <ele>33</ele>
        <time>2020-06-22T20:09:12Z</time>
      </trkpt>
      <trkpt lat="50.86259" lon="1.65861">
        <ele>32.8</ele>
        <time>2020-06-22T20:09:13Z</time>
      </trkpt>
      <trkpt lat="50.86267" lon="1.65867">
        <ele>32.6</ele>
        <time>2020-06-22T20:09:14Z</time>
      </trkpt>
      <trkpt lat="50.86276" lon="1.65873">
        <ele>32.4</ele>
        <time>2020-06-22T20:09:15Z</time>
      </trkpt>
      <trkpt lat="50.86284" lon="1.65879">
        <ele>32.2</ele>
        <time>2020-06-22T20:09:16Z</time>
      </trkpt>
      <trkpt lat="50.86293" lon="1.65884">
        <ele>32</ele>
        <time>2020-06-22T20:09:17Z</time>
      </trkpt>
      <trkpt lat="50.86302" lon="1.6589">
        <ele>31.8</ele>
        <time>2020-06-22T20:09:18Z</time>
      </trkpt>
      <trkpt lat="50.8631" lon="1.65896">
        <ele>31.6</ele>
        <time>2020-06-22T20:09:19Z</time>
      </trkpt>
      <trkpt lat="50.86318" lon="1.65902">
        <ele>31.4</ele>
        <time>2020-06-22T20:09:20Z</time>
      </trkpt>
      <trkpt lat="50.86327" lon="1.65909">
        <ele>31.2</ele>
        <time>2020-06-22T20:09:21Z</time>
      </trkpt>
      <trkpt lat="50.86335" lon="1.65915">
        <ele>31.1</ele>
        <time>2020-06-22T20:09:22Z</time>
      </trkpt>
      <trkpt lat="50.86343" lon="1.65921">
        <ele>31</ele>
        <time>2020-06-22T20:09:23Z</time>
      </trkpt>
      <trkpt lat="50.86351" lon="1.65928">
        <ele>30.9</ele>
        <time>2020-06-22T20:09:24Z</time>
      </trkpt>
      <trkpt lat="50.86359" lon="1.65935">
        <ele>30.8</ele>
        <time>2020-06-22T20:09:25Z</time>
      </trkpt>
      <trkpt lat="50.86367" lon="1.65942">
        <ele>30.7</ele>
        <time>2020-06-22T20:09:26Z</time>
      </trkpt>
      <trkpt lat="50.86375" lon="1.65949">
        <ele>30.6</ele>
        <time>2020-06-22T20:09:27Z</time>
      </trkpt>
      <trkpt lat="50.86382" lon="1.65956">
        <ele>30.5</ele>
        <time>2020-06-22T20:09:28Z</time>
      </trkpt>
      <trkpt lat="50.86389" lon="1.65963">
        <ele>30.4</ele>
        <time>2020-06-22T20:09:29Z</time>
      </trkpt>
      <trkpt lat="50.86397" lon="1.6597">
        <ele>30.3</ele>
        <time>2020-06-22T20:09:30Z</time>
      </trkpt>
      <trkpt lat="50.86404" lon="1.65978">
        <ele>30.2</ele>
        <time>2020-06-22T20:09:31Z</time>
      </trkpt>
      <trkpt lat="50.86411" lon="1.65986">
        <ele>30.1</ele>
        <time>2020-06-22T20:09:32Z</time>
      </trkpt>
      <trkpt lat="50.86418" lon="1.65993">
        <ele>30</ele>
        <time>2020-06-22T20:09:33Z</time>
      </trkpt>
      <trkpt lat="50.86425" lon="1.66002">
        <ele>29.9</ele>
        <time>2020-06-22T20:09:34Z</time>
      </trkpt>
      <trkpt lat="50.86432" lon="1.6601">
        <ele>29.8</ele>
        <time>2020-06-22T20:09:35Z</time>
      </trkpt>
      <trkpt lat="50.86438" lon="1.66018">
        <ele>29.7</ele>
        <time>2020-06-22T20:09:36Z</time>
      </trkpt>
      <trkpt lat="50.86445" lon="1.66025">
        <ele>29.6</ele>
        <time>2020-06-22T20:09:37Z</time>
      </trkpt>
      <trkpt lat="50.86452" lon="1.66033">
        <ele>29.5</ele>
        <time>2020-06-22T20:09:38Z</time>
      </trkpt>
      <trkpt lat="50.86458" lon="1.66041">
        <ele>29.4</ele>
        <time>2020-06-22T20:09:39Z</time>
      </trkpt>
      <trkpt lat="50.86465" lon="1.6605">
        <ele>29.3</ele>
        <time>2020-06-22T20:09:40Z</time>
      </trkpt>
      <trkpt lat="50.86471" lon="1.66058">
        <ele>29.2</ele>
        <time>2020-06-22T20:09:41Z</time>
      </trkpt>
      <trkpt lat="50.86478" lon="1.66066">
        <ele>29.1</ele>
        <time>2020-06-22T20:09:42Z</time>
      </trkpt>
      <trkpt lat="50.86484" lon="1.66073">
        <ele>29.1</ele>
        <time>2020-06-22T20:09:43Z</time>
      </trkpt>
      <trkpt lat="50.8649" lon="1.6608">
        <ele>29</ele>
        <time>2020-06-22T20:09:44Z</time>
      </trkpt>
      <trkpt lat="50.86497" lon="1.66087">
        <ele>29</ele>
        <time>2020-06-22T20:09:45Z</time>
      </trkpt>
      <trkpt lat="50.86502" lon="1.66094">
        <ele>29</ele>
        <time>2020-06-22T20:09:46Z</time>
      </trkpt>
      <trkpt lat="50.86508" lon="1.66102">
        <ele>28.9</ele>
        <time>2020-06-22T20:09:47Z</time>
      </trkpt>
      <trkpt lat="50.86513" lon="1.66109">
        <ele>28.8</ele>
        <time>2020-06-22T20:09:48Z</time>
      </trkpt>
      <trkpt lat="50.86519" lon="1.66115">
        <ele>28.8</ele>
        <time>2020-06-22T20:09:49Z</time>
      </trkpt>
      <trkpt lat="50.86523" lon="1.66122">
        <ele>28.7</ele>
        <time>2020-06-22T20:09:50Z</time>
      </trkpt>
      <trkpt lat="50.86528" lon="1.6613">
        <ele>28.7</ele>
        <time>2020-06-22T20:09:51Z</time>
      </trkpt>
      <trkpt lat="50.86532" lon="1.66138">
        <ele>28.7</ele>
        <time>2020-06-22T20:09:52Z</time>
      </trkpt>
      <trkpt lat="50.86536" lon="1.66145">
        <ele>28.6</ele>
        <time>2020-06-22T20:09:53Z</time>
      </trkpt>
      <trkpt lat="50.86539" lon="1.66153">
        <ele>28.6</ele>
        <time>2020-06-22T20:09:54Z</time>
      </trkpt>
      <trkpt lat="50.86542" lon="1.66162">
        <ele>28.6</ele>
        <time>2020-06-22T20:09:55Z</time>
      </trkpt>
      <trkpt lat="50.86545" lon="1.6617">
        <ele>28.6</ele>
        <time>2020-06-22T20:09:56Z</time>
      </trkpt>
      <trkpt lat="50.86547" lon="1.66179">
        <ele>28.6</ele>
        <time>2020-06-22T20:09:57Z</time>
      </trkpt>
      <trkpt lat="50.86549" lon="1.66188">
        <ele>28.5</ele>
        <time>2020-06-22T20:09:58Z</time>
      </trkpt>
      <trkpt lat="50.86551" lon="1.66196">
        <ele>28.5</ele>
        <time>2020-06-22T20:09:59Z</time>
      </trkpt>
      <trkpt lat="50.86553" lon="1.66204">
        <ele>28.5</ele>
        <time>2020-06-22T20:10:00Z</time>
      </trkpt>
      <trkpt lat="50.86555" lon="1.66212">
        <ele>28.5</ele>
        <time>2020-06-22T20:10:01Z</time>
      </trkpt>
      <trkpt lat="50.86556" lon="1.66219">
        <ele>28.5</ele>
        <time>2020-06-22T20:10:02Z</time>
      </trkpt>
      <trkpt lat="50.86558" lon="1.66226">
        <ele>28.5</ele>
        <time>2020-06-22T20:10:03Z</time>
      </trkpt>
      <trkpt lat="50.86559" lon="1.66233">
        <ele>28.5</ele>
        <time>2020-06-22T20:10:04Z</time>
      </trkpt>
      <trkpt lat="50.86561" lon="1.6624">
        <ele>28.5</ele>
        <time>2020-06-22T20:10:05Z</time>
      </trkpt>
      <trkpt lat="50.86562" lon="1.66247">
        <ele>28.5</ele>
        <time>2020-06-22T20:10:06Z</time>
      </trkpt>
      <trkpt lat="50.86563" lon="1.66253">
        <ele>28.5</ele>
        <time>2020-06-22T20:10:07Z</time>
      </trkpt>
      <trkpt lat="50.86565" lon="1.6626">
        <ele>28.6</ele>
        <time>2020-06-22T20:10:08Z</time>
      </trkpt>
      <trkpt lat="50.86566" lon="1.66265">
        <ele>28.6</ele>
        <time>2020-06-22T20:10:09Z</time>
      </trkpt>
      <trkpt lat="50.86567" lon="1.6627">
        <ele>28.6</ele>
        <time>2020-06-22T20:10:10Z</time>
      </trkpt>
      <trkpt lat="50.86569" lon="1.66275">
        <ele>28.6</ele>
        <time>2020-06-22T20:10:11Z</time>
      </trkpt>
      <trkpt lat="50.86569" lon="1.66277">
        <ele>28.6</ele>
        <time>2020-06-22T20:10:12Z</time>
      </trkpt>
      <trkpt lat="50.86569" lon="1.66279">
        <ele>28.6</ele>
        <time>2020-06-22T20:10:13Z</time>
      </trkpt>
      <trkpt lat="50.8657" lon="1.66281">
        <ele>28.6</ele>
        <time>2020-06-22T20:10:14Z</time>
      </trkpt>
      <trkpt lat="50.86571" lon="1.66285">
        <ele>28.6</ele>
        <time>2020-06-22T20:10:15Z</time>
      </trkpt>
      <trkpt lat="50.86571" lon="1.66287">
        <ele>28.6</ele>
        <time>2020-06-22T20:10:16Z</time>
      </trkpt>
      <trkpt lat="50.86572" lon="1.66292">
        <ele>28.6</ele>
        <time>2020-06-22T20:10:17Z</time>
      </trkpt>
      <trkpt lat="50.86572" lon="1.66294">
        <ele>28.6</ele>
        <time>2020-06-22T20:10:18Z</time>
      </trkpt>
      <trkpt lat="50.86574" lon="1.663">
        <ele>28.6</ele>
        <time>2020-06-22T20:10:19Z</time>
      </trkpt>
      <trkpt lat="50.86574" lon="1.66302">
        <ele>28.6</ele>
        <time>2020-06-22T20:10:20Z</time>
      </trkpt>
      <trkpt lat="50.86575" lon="1.66306">
        <ele>28.6</ele>
        <time>2020-06-22T20:10:21Z</time>
      </trkpt>
      <trkpt lat="50.86577" lon="1.6631">
        <ele>28.6</ele>
        <time>2020-06-22T20:10:22Z</time>
      </trkpt>
      <trkpt lat="50.86577" lon="1.66315">
        <ele>28.6</ele>
        <time>2020-06-22T20:10:23Z</time>
      </trkpt>
      <trkpt lat="50.86579" lon="1.66319">
        <ele>28.6</ele>
        <time>2020-06-22T20:10:24Z</time>
      </trkpt>
      <trkpt lat="50.86581" lon="1.66324">
        <ele>28.7</ele>
        <time>2020-06-22T20:10:25Z</time>
      </trkpt>
      <trkpt lat="50.86583" lon="1.66329">
        <ele>28.7</ele>
        <time>2020-06-22T20:10:26Z</time>
      </trkpt>
      <trkpt lat="50.86583" lon="1.66335">
        <ele>28.7</ele>
        <time>2020-06-22T20:10:27Z</time>
      </trkpt>
      <trkpt lat="50.86584" lon="1.66341">
        <ele>28.8</ele>
        <time>2020-06-22T20:10:28Z</time>
      </trkpt>
      <trkpt lat="50.86585" lon="1.66348">
        <ele>28.8</ele>
        <time>2020-06-22T20:10:29Z</time>
      </trkpt>
      <trkpt lat="50.86586" lon="1.66354">
        <ele>28.9</ele>
        <time>2020-06-22T20:10:30Z</time>
      </trkpt>
      <trkpt lat="50.86588" lon="1.6636">
        <ele>28.9</ele>
        <time>2020-06-22T20:10:31Z</time>
      </trkpt>
      <trkpt lat="50.8659" lon="1.66367">
        <ele>29</ele>
        <time>2020-06-22T20:10:32Z</time>
      </trkpt>
      <trkpt lat="50.86591" lon="1.66375">
        <ele>29.1</ele>
        <time>2020-06-22T20:10:33Z</time>
      </trkpt>
      <trkpt lat="50.86592" lon="1.66382">
        <ele>29.1</ele>
        <time>2020-06-22T20:10:34Z</time>
      </trkpt>
      <trkpt lat="50.86593" lon="1.6639">
        <ele>29.2</ele>
        <time>2020-06-22T20:10:35Z</time>
      </trkpt>
      <trkpt lat="50.86595" lon="1.66398">
        <ele>29.2</ele>
        <time>2020-06-22T20:10:36Z</time>
      </trkpt>
      <trkpt lat="50.86597" lon="1.66405">
        <ele>29.3</ele>
        <time>2020-06-22T20:10:37Z</time>
      </trkpt>
      <trkpt lat="50.86599" lon="1.66412">
        <ele>29.4</ele>
        <time>2020-06-22T20:10:38Z</time>
      </trkpt>
      <trkpt lat="50.866" lon="1.66419">
        <ele>29.4</ele>
        <time>2020-06-22T20:10:39Z</time>
      </trkpt>
      <trkpt lat="50.86602" lon="1.66427">
        <ele>29.5</ele>
        <time>2020-06-22T20:10:40Z</time>
      </trkpt>
      <trkpt lat="50.86604" lon="1.66433">
        <ele>29.5</ele>
        <time>2020-06-22T20:10:41Z</time>
      </trkpt>
      <trkpt lat="50.86606" lon="1.66441">
        <ele>29.6</ele>
        <time>2020-06-22T20:10:42Z</time>
      </trkpt>
      <trkpt lat="50.86608" lon="1.66448">
        <ele>29.6</ele>
        <time>2020-06-22T20:10:43Z</time>
      </trkpt>
      <trkpt lat="50.86611" lon="1.66456">
        <ele>29.7</ele>
        <time>2020-06-22T20:10:44Z</time>
      </trkpt>
      <trkpt lat="50.86613" lon="1.66463">
        <ele>29.8</ele>
        <time>2020-06-22T20:10:45Z</time>
      </trkpt>
      <trkpt lat="50.86615" lon="1.66471">
        <ele>29.8</ele>
        <time>2020-06-22T20:10:46Z</time>
      </trkpt>
      <trkpt lat="50.86617" lon="1.66479">
        <ele>29.9</ele>
        <time>2020-06-22T20:10:47Z</time>
      </trkpt>
      <trkpt lat="50.86619" lon="1.66486">
        <ele>30</ele>
        <time>2020-06-22T20:10:48Z</time>
      </trkpt>
      <trkpt lat="50.86621" lon="1.66494">
        <ele>30.1</ele>
        <time>2020-06-22T20:10:49Z</time>
      </trkpt>
      <trkpt lat="50.86623" lon="1.66502">
        <ele>30.2</ele>
        <time>2020-06-22T20:10:50Z</time>
      </trkpt>
      <trkpt lat="50.86626" lon="1.66509">
        <ele>30.3</ele>
        <time>2020-06-22T20:10:51Z</time>
      </trkpt>
      <trkpt lat="50.86629" lon="1.66518">
        <ele>30.4</ele>
        <time>2020-06-22T20:10:52Z</time>
      </trkpt>
      <trkpt lat="50.86632" lon="1.66526">
        <ele>30.5</ele>
        <time>2020-06-22T20:10:53Z</time>
      </trkpt>
      <trkpt lat="50.86635" lon="1.66534">
        <ele>30.6</ele>
        <time>2020-06-22T20:10:54Z</time>
      </trkpt>
      <trkpt lat="50.86637" lon="1.66541">
        <ele>30.6</ele>
        <time>2020-06-22T20:10:55Z</time>
      </trkpt>
      <trkpt lat="50.8664" lon="1.66549">
        <ele>30.7</ele>
        <time>2020-06-22T20:10:56Z</time>
      </trkpt>
      <trkpt lat="50.86643" lon="1.66557">
        <ele>30.8</ele>
        <time>2020-06-22T20:10:57Z</time>
      </trkpt>
      <trkpt lat="50.86645" lon="1.66565">
        <ele>30.9</ele>
        <time>2020-06-22T20:10:58Z</time>
      </trkpt>
      <trkpt lat="50.86648" lon="1.66574">
        <ele>31</ele>
        <time>2020-06-22T20:10:59Z</time>
      </trkpt>
      <trkpt lat="50.86652" lon="1.66582">
        <ele>31.1</ele>
        <time>2020-06-22T20:11:00Z</time>
      </trkpt>
      <trkpt lat="50.86656" lon="1.6659">
        <ele>31.1</ele>
        <time>2020-06-22T20:11:01Z</time>
      </trkpt>
      <trkpt lat="50.86659" lon="1.66598">
        <ele>31.1</ele>
        <time>2020-06-22T20:11:02Z</time>
      </trkpt>
      <trkpt lat="50.86663" lon="1.66606">
        <ele>31.1</ele>
        <time>2020-06-22T20:11:03Z</time>
      </trkpt>
      <trkpt lat="50.86666" lon="1.66614">
        <ele>31.2</ele>
        <time>2020-06-22T20:11:04Z</time>
      </trkpt>
      <trkpt lat="50.86669" lon="1.66621">
        <ele>31.2</ele>
        <time>2020-06-22T20:11:05Z</time>
      </trkpt>
      <trkpt lat="50.86672" lon="1.66627">
        <ele>31.1</ele>
        <time>2020-06-22T20:11:06Z</time>
      </trkpt>
      <trkpt lat="50.86674" lon="1.66632">
        <ele>31.1</ele>
        <time>2020-06-22T20:11:07Z</time>
      </trkpt>
      <trkpt lat="50.86677" lon="1.6664">
        <ele>31</ele>
        <time>2020-06-22T20:11:08Z</time>
      </trkpt>
      <trkpt lat="50.8668" lon="1.66647">
        <ele>31</ele>
        <time>2020-06-22T20:11:09Z</time>
      </trkpt>
      <trkpt lat="50.86683" lon="1.66654">
        <ele>30.9</ele>
        <time>2020-06-22T20:11:10Z</time>
      </trkpt>
      <trkpt lat="50.86686" lon="1.66662">
        <ele>30.9</ele>
        <time>2020-06-22T20:11:11Z</time>
      </trkpt>
      <trkpt lat="50.86689" lon="1.66668">
        <ele>30.8</ele>
        <time>2020-06-22T20:11:12Z</time>
      </trkpt>
      <trkpt lat="50.8669" lon="1.66674">
        <ele>30.8</ele>
        <time>2020-06-22T20:11:13Z</time>
      </trkpt>
      <trkpt lat="50.86692" lon="1.6668">
        <ele>30.7</ele>
        <time>2020-06-22T20:11:14Z</time>
      </trkpt>
      <trkpt lat="50.86694" lon="1.66687">
        <ele>30.7</ele>
        <time>2020-06-22T20:11:15Z</time>
      </trkpt>
      <trkpt lat="50.86696" lon="1.66694">
        <ele>30.7</ele>
        <time>2020-06-22T20:11:16Z</time>
      </trkpt>
      <trkpt lat="50.86698" lon="1.66703">
        <ele>30.6</ele>
        <time>2020-06-22T20:11:17Z</time>
      </trkpt>
      <trkpt lat="50.86701" lon="1.66709">
        <ele>30.5</ele>
        <time>2020-06-22T20:11:18Z</time>
      </trkpt>
      <trkpt lat="50.86702" lon="1.66718">
        <ele>30.5</ele>
        <time>2020-06-22T20:11:19Z</time>
      </trkpt>
      <trkpt lat="50.86704" lon="1.66726">
        <ele>30.4</ele>
        <time>2020-06-22T20:11:20Z</time>
      </trkpt>
      <trkpt lat="50.86704" lon="1.66733">
        <ele>30.4</ele>
        <time>2020-06-22T20:11:21Z</time>
      </trkpt>
      <trkpt lat="50.86706" lon="1.6674">
        <ele>30.3</ele>
        <time>2020-06-22T20:11:22Z</time>
      </trkpt>
      <trkpt lat="50.86707" lon="1.66747">
        <ele>30.3</ele>
        <time>2020-06-22T20:11:23Z</time>
      </trkpt>
      <trkpt lat="50.86709" lon="1.66753">
        <ele>30.3</ele>
        <time>2020-06-22T20:11:24Z</time>
      </trkpt>
      <trkpt lat="50.86711" lon="1.66759">
        <ele>30.3</ele>
        <time>2020-06-22T20:11:25Z</time>
      </trkpt>
      <trkpt lat="50.86712" lon="1.66767">
        <ele>30.2</ele>
        <time>2020-06-22T20:11:26Z</time>
      </trkpt>
      <trkpt lat="50.86713" lon="1.66776">
        <ele>30.2</ele>
        <time>2020-06-22T20:11:27Z</time>
      </trkpt>
      <trkpt lat="50.86714" lon="1.66782">
        <ele>30.2</ele>
        <time>2020-06-22T20:11:28Z</time>
      </trkpt>
      <trkpt lat="50.86714" lon="1.66791">
        <ele>30.2</ele>
        <time>2020-06-22T20:11:29Z</time>
      </trkpt>
      <trkpt lat="50.86715" lon="1.66798">
        <ele>30.1</ele>
        <time>2020-06-22T20:11:30Z</time>
      </trkpt>
      <trkpt lat="50.86715" lon="1.66804">
        <ele>30.1</ele>
        <time>2020-06-22T20:11:31Z</time>
      </trkpt>
      <trkpt lat="50.86715" lon="1.66811">
        <ele>30.1</ele>
        <time>2020-06-22T20:11:32Z</time>
      </trkpt>
      <trkpt lat="50.86714" lon="1.66819">
        <ele>30</ele>
        <time>2020-06-22T20:11:33Z</time>
      </trkpt>
      <trkpt lat="50.86713" lon="1.66826">
        <ele>30</ele>
        <time>2020-06-22T20:11:34Z</time>
      </trkpt>
      <trkpt lat="50.86712" lon="1.66835">
        <ele>30</ele>
        <time>2020-06-22T20:11:35Z</time>
      </trkpt>
      <trkpt lat="50.86711" lon="1.66843">
        <ele>30</ele>
        <time>2020-06-22T20:11:36Z</time>
      </trkpt>
      <trkpt lat="50.8671" lon="1.66852">
        <ele>29.9</ele>
        <time>2020-06-22T20:11:37Z</time>
      </trkpt>
      <trkpt lat="50.8671" lon="1.66861">
        <ele>29.9</ele>
        <time>2020-06-22T20:11:38Z</time>
      </trkpt>
      <trkpt lat="50.86709" lon="1.66868">
        <ele>29.9</ele>
        <time>2020-06-22T20:11:39Z</time>
      </trkpt>
      <trkpt lat="50.86708" lon="1.66875">
        <ele>29.9</ele>
        <time>2020-06-22T20:11:40Z</time>
      </trkpt>
      <trkpt lat="50.86707" lon="1.66883">
        <ele>29.9</ele>
        <time>2020-06-22T20:11:41Z</time>
      </trkpt>
      <trkpt lat="50.86707" lon="1.66891">
        <ele>29.8</ele>
        <time>2020-06-22T20:11:42Z</time>
      </trkpt>
      <trkpt lat="50.86706" lon="1.66899">
        <ele>29.8</ele>
        <time>2020-06-22T20:11:43Z</time>
      </trkpt>
      <trkpt lat="50.86705" lon="1.66908">
        <ele>29.8</ele>
        <time>2020-06-22T20:11:44Z</time>
      </trkpt>
      <trkpt lat="50.86704" lon="1.66918">
        <ele>29.8</ele>
        <time>2020-06-22T20:11:45Z</time>
      </trkpt>
      <trkpt lat="50.86704" lon="1.66927">
        <ele>29.8</ele>
        <time>2020-06-22T20:11:46Z</time>
      </trkpt>
      <trkpt lat="50.86704" lon="1.66935">
        <ele>29.8</ele>
        <time>2020-06-22T20:11:47Z</time>
      </trkpt>
      <trkpt lat="50.86703" lon="1.66945">
        <ele>29.8</ele>
        <time>2020-06-22T20:11:48Z</time>
      </trkpt>
      <trkpt lat="50.86702" lon="1.66954">
        <ele>29.8</ele>
        <time>2020-06-22T20:11:49Z</time>
      </trkpt>
      <trkpt lat="50.86701" lon="1.66963">
        <ele>29.8</ele>
        <time>2020-06-22T20:11:50Z</time>
      </trkpt>
      <trkpt lat="50.867" lon="1.66972">
        <ele>29.9</ele>
        <time>2020-06-22T20:11:51Z</time>
      </trkpt>
      <trkpt lat="50.867" lon="1.66981">
        <ele>29.9</ele>
        <time>2020-06-22T20:11:52Z</time>
      </trkpt>
      <trkpt lat="50.86698" lon="1.6699">
        <ele>30</ele>
        <time>2020-06-22T20:11:53Z</time>
      </trkpt>
      <trkpt lat="50.86698" lon="1.66999">
        <ele>30</ele>
        <time>2020-06-22T20:11:54Z</time>
      </trkpt>
      <trkpt lat="50.86698" lon="1.67008">
        <ele>30.1</ele>
        <time>2020-06-22T20:11:55Z</time>
      </trkpt>
      <trkpt lat="50.86697" lon="1.67017">
        <ele>30.1</ele>
        <time>2020-06-22T20:11:56Z</time>
      </trkpt>
      <trkpt lat="50.86697" lon="1.67026">
        <ele>30.2</ele>
        <time>2020-06-22T20:11:57Z</time>
      </trkpt>
      <trkpt lat="50.86696" lon="1.67033">
        <ele>30.2</ele>
        <time>2020-06-22T20:11:58Z</time>
      </trkpt>
      <trkpt lat="50.86696" lon="1.67042">
        <ele>30.3</ele>
        <time>2020-06-22T20:11:59Z</time>
      </trkpt>
      <trkpt lat="50.86695" lon="1.67049">
        <ele>30.3</ele>
        <time>2020-06-22T20:12:00Z</time>
      </trkpt>
      <trkpt lat="50.86695" lon="1.67058">
        <ele>30.4</ele>
        <time>2020-06-22T20:12:01Z</time>
      </trkpt>
      <trkpt lat="50.86695" lon="1.67066">
        <ele>30.5</ele>
        <time>2020-06-22T20:12:02Z</time>
      </trkpt>
      <trkpt lat="50.86695" lon="1.67073">
        <ele>30.6</ele>
        <time>2020-06-22T20:12:03Z</time>
      </trkpt>
      <trkpt lat="50.86694" lon="1.67079">
        <ele>30.7</ele>
        <time>2020-06-22T20:12:04Z</time>
      </trkpt>
      <trkpt lat="50.86694" lon="1.67084">
        <ele>30.8</ele>
        <time>2020-06-22T20:12:05Z</time>
      </trkpt>
      <trkpt lat="50.86693" lon="1.6709">
        <ele>30.9</ele>
        <time>2020-06-22T20:12:06Z</time>
      </trkpt>
      <trkpt lat="50.86693" lon="1.67096">
        <ele>31</ele>
        <time>2020-06-22T20:12:07Z</time>
      </trkpt>
      <trkpt lat="50.86693" lon="1.67101">
        <ele>31.1</ele>
        <time>2020-06-22T20:12:08Z</time>
      </trkpt>
      <trkpt lat="50.86692" lon="1.67106">
        <ele>31.2</ele>
        <time>2020-06-22T20:12:09Z</time>
      </trkpt>
      <trkpt lat="50.86691" lon="1.6711">
        <ele>31.3</ele>
        <time>2020-06-22T20:12:10Z</time>
      </trkpt>
      <trkpt lat="50.8669" lon="1.67116">
        <ele>31.4</ele>
        <time>2020-06-22T20:12:11Z</time>
      </trkpt>
      <trkpt lat="50.86687" lon="1.67119">
        <ele>31.4</ele>
        <time>2020-06-22T20:12:12Z</time>
      </trkpt>
      <trkpt lat="50.86685" lon="1.67122">
        <ele>31.4</ele>
        <time>2020-06-22T20:12:13Z</time>
      </trkpt>
      <trkpt lat="50.8668" lon="1.67124">
        <ele>31.4</ele>
        <time>2020-06-22T20:12:14Z</time>
      </trkpt>
      <trkpt lat="50.86676" lon="1.67124">
        <ele>31.3</ele>
        <time>2020-06-22T20:12:15Z</time>
      </trkpt>
      <trkpt lat="50.86671" lon="1.67124">
        <ele>31.3</ele>
        <time>2020-06-22T20:12:16Z</time>
      </trkpt>
      <trkpt lat="50.86666" lon="1.67124">
        <ele>31.2</ele>
        <time>2020-06-22T20:12:17Z</time>
      </trkpt>
      <trkpt lat="50.86661" lon="1.67125">
        <ele>31.2</ele>
        <time>2020-06-22T20:12:18Z</time>
      </trkpt>
      <trkpt lat="50.86658" lon="1.67126">
        <ele>31.2</ele>
        <time>2020-06-22T20:12:19Z</time>
      </trkpt>
      <trkpt lat="50.86653" lon="1.67127">
        <ele>31.1</ele>
        <time>2020-06-22T20:12:20Z</time>
      </trkpt>
      <trkpt lat="50.86648" lon="1.67128">
        <ele>31.1</ele>
        <time>2020-06-22T20:12:21Z</time>
      </trkpt>
      <trkpt lat="50.86643" lon="1.6713">
        <ele>31</ele>
        <time>2020-06-22T20:12:22Z</time>
      </trkpt>
      <trkpt lat="50.86637" lon="1.67132">
        <ele>31</ele>
        <time>2020-06-22T20:12:23Z</time>
      </trkpt>
      <trkpt lat="50.86632" lon="1.67134">
        <ele>31</ele>
        <time>2020-06-22T20:12:24Z</time>
      </trkpt>
      <trkpt lat="50.86627" lon="1.67135">
        <ele>30.9</ele>
        <time>2020-06-22T20:12:25Z</time>
      </trkpt>
      <trkpt lat="50.86621" lon="1.67137">
        <ele>30.9</ele>
        <time>2020-06-22T20:12:26Z</time>
      </trkpt>
      <trkpt lat="50.86616" lon="1.67139">
        <ele>30.9</ele>
        <time>2020-06-22T20:12:27Z</time>
      </trkpt>
      <trkpt lat="50.8661" lon="1.67141">
        <ele>30.9</ele>
        <time>2020-06-22T20:12:28Z</time>
      </trkpt>
      <trkpt lat="50.86604" lon="1.67142">
        <ele>30.9</ele>
        <time>2020-06-22T20:12:29Z</time>
      </trkpt>
      <trkpt lat="50.86597" lon="1.67145">
        <ele>30.9</ele>
        <time>2020-06-22T20:12:30Z</time>
      </trkpt>
      <trkpt lat="50.86591" lon="1.67147">
        <ele>30.8</ele>
        <time>2020-06-22T20:12:31Z</time>
      </trkpt>
      <trkpt lat="50.86584" lon="1.67149">
        <ele>30.8</ele>
        <time>2020-06-22T20:12:32Z</time>
      </trkpt>
      <trkpt lat="50.86578" lon="1.67151">
        <ele>30.7</ele>
        <time>2020-06-22T20:12:33Z</time>
      </trkpt>
      <trkpt lat="50.86572" lon="1.67153">
        <ele>30.7</ele>
        <time>2020-06-22T20:12:34Z</time>
      </trkpt>
      <trkpt lat="50.86567" lon="1.67155">
        <ele>30.6</ele>
        <time>2020-06-22T20:12:35Z</time>
      </trkpt>
      <trkpt lat="50.86561" lon="1.67158">
        <ele>30.6</ele>
        <time>2020-06-22T20:12:36Z</time>
      </trkpt>
      <trkpt lat="50.86555" lon="1.6716">
        <ele>30.6</ele>
        <time>2020-06-22T20:12:37Z</time>
      </trkpt>
      <trkpt lat="50.86548" lon="1.67162">
        <ele>30.6</ele>
        <time>2020-06-22T20:12:38Z</time>
      </trkpt>
      <trkpt lat="50.86542" lon="1.67165">
        <ele>30.6</ele>
        <time>2020-06-22T20:12:39Z</time>
      </trkpt>
      <trkpt lat="50.86536" lon="1.67167">
        <ele>30.6</ele>
        <time>2020-06-22T20:12:40Z</time>
      </trkpt>
      <trkpt lat="50.8653" lon="1.67171">
        <ele>30.6</ele>
        <time>2020-06-22T20:12:41Z</time>
      </trkpt>
      <trkpt lat="50.86524" lon="1.67173">
        <ele>30.6</ele>
        <time>2020-06-22T20:12:42Z</time>
      </trkpt>
      <trkpt lat="50.86518" lon="1.67176">
        <ele>30.6</ele>
        <time>2020-06-22T20:12:43Z</time>
      </trkpt>
      <trkpt lat="50.86512" lon="1.67179">
        <ele>30.6</ele>
        <time>2020-06-22T20:12:44Z</time>
      </trkpt>
      <trkpt lat="50.86506" lon="1.67181">
        <ele>30.6</ele>
        <time>2020-06-22T20:12:45Z</time>
      </trkpt>
      <trkpt lat="50.86501" lon="1.67185">
        <ele>30.6</ele>
        <time>2020-06-22T20:12:46Z</time>
      </trkpt>
      <trkpt lat="50.86494" lon="1.67187">
        <ele>30.7</ele>
        <time>2020-06-22T20:12:47Z</time>
      </trkpt>
      <trkpt lat="50.86488" lon="1.67188">
        <ele>30.7</ele>
        <time>2020-06-22T20:12:48Z</time>
      </trkpt>
      <trkpt lat="50.86482" lon="1.67191">
        <ele>30.7</ele>
        <time>2020-06-22T20:12:49Z</time>
      </trkpt>
      <trkpt lat="50.86476" lon="1.67193">
        <ele>30.8</ele>
        <time>2020-06-22T20:12:50Z</time>
      </trkpt>
      <trkpt lat="50.8647" lon="1.67195">
        <ele>30.8</ele>
        <time>2020-06-22T20:12:51Z</time>
      </trkpt>
      <trkpt lat="50.86466" lon="1.67196">
        <ele>30.9</ele>
        <time>2020-06-22T20:12:52Z</time>
      </trkpt>
      <trkpt lat="50.8646" lon="1.67199">
        <ele>30.9</ele>
        <time>2020-06-22T20:12:53Z</time>
      </trkpt>
      <trkpt lat="50.86454" lon="1.67203">
        <ele>31</ele>
        <time>2020-06-22T20:12:54Z</time>
      </trkpt>
      <trkpt lat="50.86448" lon="1.67205">
        <ele>31.1</ele>
        <time>2020-06-22T20:12:55Z</time>
      </trkpt>
      <trkpt lat="50.86441" lon="1.67208">
        <ele>31.2</ele>
        <time>2020-06-22T20:12:56Z</time>
      </trkpt>
      <trkpt lat="50.86435" lon="1.67211">
        <ele>31.3</ele>
        <time>2020-06-22T20:12:57Z</time>
      </trkpt>
      <trkpt lat="50.86431" lon="1.67213">
        <ele>31.4</ele>
        <time>2020-06-22T20:12:58Z</time>
      </trkpt>
      <trkpt lat="50.86425" lon="1.67216">
        <ele>31.5</ele>
        <time>2020-06-22T20:12:59Z</time>
      </trkpt>
      <trkpt lat="50.86421" lon="1.67218">
        <ele>31.6</ele>
        <time>2020-06-22T20:13:00Z</time>
      </trkpt>
      <trkpt lat="50.86416" lon="1.6722">
        <ele>31.7</ele>
        <time>2020-06-22T20:13:01Z</time>
      </trkpt>
      <trkpt lat="50.86411" lon="1.67223">
        <ele>31.8</ele>
        <time>2020-06-22T20:13:02Z</time>
      </trkpt>
      <trkpt lat="50.86407" lon="1.67226">
        <ele>31.9</ele>
        <time>2020-06-22T20:13:03Z</time>
      </trkpt>
      <trkpt lat="50.86402" lon="1.67228">
        <ele>32</ele>
        <time>2020-06-22T20:13:04Z</time>
      </trkpt>
      <trkpt lat="50.86397" lon="1.67231">
        <ele>32.1</ele>
        <time>2020-06-22T20:13:05Z</time>
      </trkpt>
      <trkpt lat="50.86393" lon="1.67234">
        <ele>32.2</ele>
        <time>2020-06-22T20:13:06Z</time>
      </trkpt>
      <trkpt lat="50.86388" lon="1.67237">
        <ele>32.3</ele>
        <time>2020-06-22T20:13:07Z</time>
      </trkpt>
      <trkpt lat="50.86382" lon="1.67241">
        <ele>32.4</ele>
        <time>2020-06-22T20:13:08Z</time>
      </trkpt>
      <trkpt lat="50.86377" lon="1.67244">
        <ele>32.5</ele>
        <time>2020-06-22T20:13:09Z</time>
      </trkpt>
      <trkpt lat="50.86373" lon="1.67249">
        <ele>32.6</ele>
        <time>2020-06-22T20:13:10Z</time>
      </trkpt>
      <trkpt lat="50.86367" lon="1.67252">
        <ele>32.6</ele>
        <time>2020-06-22T20:13:11Z</time>
      </trkpt>
      <trkpt lat="50.86362" lon="1.67254">
        <ele>32.7</ele>
        <time>2020-06-22T20:13:12Z</time>
      </trkpt>
      <trkpt lat="50.86357" lon="1.67258">
        <ele>32.8</ele>
        <time>2020-06-22T20:13:13Z</time>
      </trkpt>
      <trkpt lat="50.86352" lon="1.67262">
        <ele>32.9</ele>
        <time>2020-06-22T20:13:14Z</time>
      </trkpt>
      <trkpt lat="50.86347" lon="1.67265">
        <ele>32.9</ele>
        <time>2020-06-22T20:13:15Z</time>
      </trkpt>
      <trkpt lat="50.86342" lon="1.67268">
        <ele>33</ele>
        <time>2020-06-22T20:13:16Z</time>
      </trkpt>
      <trkpt lat="50.86337" lon="1.67272">
        <ele>33</ele>
        <time>2020-06-22T20:13:17Z</time>
      </trkpt>
      <trkpt lat="50.86333" lon="1.67275">
        <ele>33</ele>
        <time>2020-06-22T20:13:18Z</time>
      </trkpt>
      <trkpt lat="50.86328" lon="1.67278">
        <ele>33</ele>
        <time>2020-06-22T20:13:19Z</time>
      </trkpt>
      <trkpt lat="50.86323" lon="1.67281">
        <ele>33</ele>
        <time>2020-06-22T20:13:20Z</time>
      </trkpt>
      <trkpt lat="50.86319" lon="1.67285">
        <ele>33</ele>
        <time>2020-06-22T20:13:21Z</time>
      </trkpt>
      <trkpt lat="50.86315" lon="1.67287">
        <ele>32.9</ele>
        <time>2020-06-22T20:13:22Z</time>
      </trkpt>
      <trkpt lat="50.86309" lon="1.67292">
        <ele>32.8</ele>
        <time>2020-06-22T20:13:23Z</time>
      </trkpt>
      <trkpt lat="50.86303" lon="1.67297">
        <ele>32.7</ele>
        <time>2020-06-22T20:13:24Z</time>
      </trkpt>
      <trkpt lat="50.86297" lon="1.67302">
        <ele>32.5</ele>
        <time>2020-06-22T20:13:25Z</time>
      </trkpt>
      <trkpt lat="50.8629" lon="1.67307">
        <ele>32.4</ele>
        <time>2020-06-22T20:13:26Z</time>
      </trkpt>
      <trkpt lat="50.86282" lon="1.67312">
        <ele>32.2</ele>
        <time>2020-06-22T20:13:27Z</time>
      </trkpt>
      <trkpt lat="50.86275" lon="1.67316">
        <ele>32</ele>
        <time>2020-06-22T20:13:28Z</time>
      </trkpt>
      <trkpt lat="50.86269" lon="1.6732">
        <ele>31.9</ele>
        <time>2020-06-22T20:13:29Z</time>
      </trkpt>
      <trkpt lat="50.86263" lon="1.67324">
        <ele>31.7</ele>
        <time>2020-06-22T20:13:30Z</time>
      </trkpt>
      <trkpt lat="50.86256" lon="1.67327">
        <ele>31.6</ele>
        <time>2020-06-22T20:13:31Z</time>
      </trkpt>
      <trkpt lat="50.8625" lon="1.6733">
        <ele>31.5</ele>
        <time>2020-06-22T20:13:32Z</time>
      </trkpt>
      <trkpt lat="50.86244" lon="1.67333">
        <ele>31.4</ele>
        <time>2020-06-22T20:13:33Z</time>
      </trkpt>
      <trkpt lat="50.86239" lon="1.67335">
        <ele>31.4</ele>
        <time>2020-06-22T20:13:34Z</time>
      </trkpt>
      <trkpt lat="50.86233" lon="1.67337">
        <ele>31.3</ele>
        <time>2020-06-22T20:13:35Z</time>
      </trkpt>
      <trkpt lat="50.86227" lon="1.67338">
        <ele>31.2</ele>
        <time>2020-06-22T20:13:36Z</time>
      </trkpt>
      <trkpt lat="50.8622" lon="1.6734">
        <ele>31.2</ele>
        <time>2020-06-22T20:13:37Z</time>
      </trkpt>
      <trkpt lat="50.86214" lon="1.67341">
        <ele>31.1</ele>
        <time>2020-06-22T20:13:38Z</time>
      </trkpt>
      <trkpt lat="50.86207" lon="1.67342">
        <ele>31.1</ele>
        <time>2020-06-22T20:13:39Z</time>
      </trkpt>
      <trkpt lat="50.862" lon="1.67341">
        <ele>31.1</ele>
        <time>2020-06-22T20:13:40Z</time>
      </trkpt>
      <trkpt lat="50.86194" lon="1.67342">
        <ele>31.1</ele>
        <time>2020-06-22T20:13:41Z</time>
      </trkpt>
      <trkpt lat="50.86187" lon="1.67342">
        <ele>30.9</ele>
        <time>2020-06-22T20:13:42Z</time>
      </trkpt>
      <trkpt lat="50.86181" lon="1.67342">
        <ele>30.7</ele>
        <time>2020-06-22T20:13:43Z</time>
      </trkpt>
      <trkpt lat="50.86175" lon="1.67341">
        <ele>30.6</ele>
        <time>2020-06-22T20:13:44Z</time>
      </trkpt>
      <trkpt lat="50.86168" lon="1.67342">
        <ele>30.5</ele>
        <time>2020-06-22T20:13:45Z</time>
      </trkpt>
      <trkpt lat="50.86163" lon="1.67342">
        <ele>30.4</ele>
        <time>2020-06-22T20:13:46Z</time>
      </trkpt>
      <trkpt lat="50.86157" lon="1.67342">
        <ele>30.3</ele>
        <time>2020-06-22T20:13:47Z</time>
      </trkpt>
      <trkpt lat="50.86152" lon="1.67343">
        <ele>30.3</ele>
        <time>2020-06-22T20:13:48Z</time>
      </trkpt>
      <trkpt lat="50.86146" lon="1.67344">
        <ele>30.3</ele>
        <time>2020-06-22T20:13:49Z</time>
      </trkpt>
      <trkpt lat="50.86141" lon="1.67345">
        <ele>30.2</ele>
        <time>2020-06-22T20:13:50Z</time>
      </trkpt>
      <trkpt lat="50.86135" lon="1.67346">
        <ele>30.2</ele>
        <time>2020-06-22T20:13:51Z</time>
      </trkpt>
      <trkpt lat="50.86129" lon="1.67348">
        <ele>30.2</ele>
        <time>2020-06-22T20:13:52Z</time>
      </trkpt>
      <trkpt lat="50.86124" lon="1.6735">
        <ele>30.2</ele>
        <time>2020-06-22T20:13:53Z</time>
      </trkpt>
      <trkpt lat="50.86117" lon="1.67352">
        <ele>30.2</ele>
        <time>2020-06-22T20:13:54Z</time>
      </trkpt>
      <trkpt lat="50.86112" lon="1.67355">
        <ele>30.2</ele>
        <time>2020-06-22T20:13:55Z</time>
      </trkpt>
      <trkpt lat="50.86106" lon="1.67359">
        <ele>30.2</ele>
        <time>2020-06-22T20:13:56Z</time>
      </trkpt>
      <trkpt lat="50.86099" lon="1.67359">
        <ele>30.2</ele>
        <time>2020-06-22T20:13:57Z</time>
      </trkpt>
      <trkpt lat="50.86093" lon="1.67362">
        <ele>30.2</ele>
        <time>2020-06-22T20:13:58Z</time>
      </trkpt>
      <trkpt lat="50.86087" lon="1.67365">
        <ele>30.2</ele>
        <time>2020-06-22T20:13:59Z</time>
      </trkpt>
      <trkpt lat="50.86081" lon="1.67368">
        <ele>30.2</ele>
        <time>2020-06-22T20:14:00Z</time>
      </trkpt>
      <trkpt lat="50.86075" lon="1.67372">
        <ele>30.2</ele>
        <time>2020-06-22T20:14:01Z</time>
      </trkpt>
      <trkpt lat="50.86069" lon="1.67375">
        <ele>30.2</ele>
        <time>2020-06-22T20:14:02Z</time>
      </trkpt>
      <trkpt lat="50.86063" lon="1.67378">
        <ele>30.2</ele>
        <time>2020-06-22T20:14:03Z</time>
      </trkpt>
      <trkpt lat="50.86056" lon="1.67381">
        <ele>30.2</ele>
        <time>2020-06-22T20:14:04Z</time>
      </trkpt>
      <trkpt lat="50.8605" lon="1.67385">
        <ele>30.2</ele>
        <time>2020-06-22T20:14:05Z</time>
      </trkpt>
      <trkpt lat="50.86044" lon="1.67387">
        <ele>30.1</ele>
        <time>2020-06-22T20:14:06Z</time>
      </trkpt>
      <trkpt lat="50.86038" lon="1.6739">
        <ele>30.1</ele>
        <time>2020-06-22T20:14:07Z</time>
      </trkpt>
      <trkpt lat="50.86031" lon="1.67393">
        <ele>30.1</ele>
        <time>2020-06-22T20:14:08Z</time>
      </trkpt>
      <trkpt lat="50.86025" lon="1.67396">
        <ele>30.2</ele>
        <time>2020-06-22T20:14:09Z</time>
      </trkpt>
      <trkpt lat="50.86019" lon="1.67399">
        <ele>30.2</ele>
        <time>2020-06-22T20:14:10Z</time>
      </trkpt>
      <trkpt lat="50.86013" lon="1.67402">
        <ele>30.2</ele>
        <time>2020-06-22T20:14:11Z</time>
      </trkpt>
      <trkpt lat="50.86008" lon="1.67405">
        <ele>30.2</ele>
        <time>2020-06-22T20:14:12Z</time>
      </trkpt>
      <trkpt lat="50.86002" lon="1.67408">
        <ele>30.2</ele>
        <time>2020-06-22T20:14:13Z</time>
      </trkpt>
      <trkpt lat="50.85996" lon="1.67411">
        <ele>30.2</ele>
        <time>2020-06-22T20:14:14Z</time>
      </trkpt>
      <trkpt lat="50.8599" lon="1.67414">
        <ele>30.3</ele>
        <time>2020-06-22T20:14:15Z</time>
      </trkpt>
      <trkpt lat="50.85983" lon="1.67416">
        <ele>30.3</ele>
        <time>2020-06-22T20:14:16Z</time>
      </trkpt>
      <trkpt lat="50.85978" lon="1.67419">
        <ele>30.3</ele>
        <time>2020-06-22T20:14:17Z</time>
      </trkpt>
      <trkpt lat="50.85972" lon="1.67421">
        <ele>30.3</ele>
        <time>2020-06-22T20:14:18Z</time>
      </trkpt>
      <trkpt lat="50.85966" lon="1.67424">
        <ele>30.3</ele>
        <time>2020-06-22T20:14:19Z</time>
      </trkpt>
      <trkpt lat="50.8596" lon="1.67427">
        <ele>30.4</ele>
        <time>2020-06-22T20:14:20Z</time>
      </trkpt>
      <trkpt lat="50.85953" lon="1.67429">
        <ele>30.4</ele>
        <time>2020-06-22T20:14:21Z</time>
      </trkpt>
      <trkpt lat="50.85947" lon="1.67432">
        <ele>30.4</ele>
        <time>2020-06-22T20:14:22Z</time>
      </trkpt>
      <trkpt lat="50.85942" lon="1.67434">
        <ele>30.4</ele>
        <time>2020-06-22T20:14:23Z</time>
      </trkpt>
      <trkpt lat="50.85936" lon="1.67436">
        <ele>30.4</ele>
        <time>2020-06-22T20:14:24Z</time>
      </trkpt>
      <trkpt lat="50.85931" lon="1.67438">
        <ele>30.3</ele>
        <time>2020-06-22T20:14:25Z</time>
      </trkpt>
      <trkpt lat="50.85927" lon="1.6744">
        <ele>30.3</ele>
        <time>2020-06-22T20:14:26Z</time>
      </trkpt>
      <trkpt lat="50.85922" lon="1.67442">
        <ele>30.3</ele>
        <time>2020-06-22T20:14:27Z</time>
      </trkpt>
      <trkpt lat="50.85917" lon="1.67444">
        <ele>30.4</ele>
        <time>2020-06-22T20:14:28Z</time>
      </trkpt>
      <trkpt lat="50.85912" lon="1.67446">
        <ele>30.4</ele>
        <time>2020-06-22T20:14:29Z</time>
      </trkpt>
      <trkpt lat="50.85907" lon="1.67448">
        <ele>30.4</ele>
        <time>2020-06-22T20:14:30Z</time>
      </trkpt>
      <trkpt lat="50.85902" lon="1.67449">
        <ele>30.5</ele>
        <time>2020-06-22T20:14:31Z</time>
      </trkpt>
      <trkpt lat="50.85897" lon="1.6745">
        <ele>30.5</ele>
        <time>2020-06-22T20:14:32Z</time>
      </trkpt>
      <trkpt lat="50.8589" lon="1.67451">
        <ele>30.5</ele>
        <time>2020-06-22T20:14:33Z</time>
      </trkpt>
      <trkpt lat="50.85884" lon="1.67454">
        <ele>30.6</ele>
        <time>2020-06-22T20:14:34Z</time>
      </trkpt>
      <trkpt lat="50.85879" lon="1.67455">
        <ele>30.6</ele>
        <time>2020-06-22T20:14:35Z</time>
      </trkpt>
      <trkpt lat="50.85873" lon="1.67456">
        <ele>30.7</ele>
        <time>2020-06-22T20:14:36Z</time>
      </trkpt>
      <trkpt lat="50.85868" lon="1.67457">
        <ele>30.7</ele>
        <time>2020-06-22T20:14:37Z</time>
      </trkpt>
      <trkpt lat="50.85862" lon="1.67458">
        <ele>30.8</ele>
        <time>2020-06-22T20:14:38Z</time>
      </trkpt>
      <trkpt lat="50.85859" lon="1.6746">
        <ele>30.8</ele>
        <time>2020-06-22T20:14:39Z</time>
      </trkpt>
      <trkpt lat="50.85852" lon="1.67462">
        <ele>30.9</ele>
        <time>2020-06-22T20:14:40Z</time>
      </trkpt>
      <trkpt lat="50.85846" lon="1.67465">
        <ele>31</ele>
        <time>2020-06-22T20:14:41Z</time>
      </trkpt>
      <trkpt lat="50.85841" lon="1.67468">
        <ele>31.1</ele>
        <time>2020-06-22T20:14:42Z</time>
      </trkpt>
      <trkpt lat="50.85835" lon="1.6747">
        <ele>31.2</ele>
        <time>2020-06-22T20:14:43Z</time>
      </trkpt>
      <trkpt lat="50.8583" lon="1.67472">
        <ele>31.3</ele>
        <time>2020-06-22T20:14:44Z</time>
      </trkpt>
      <trkpt lat="50.85824" lon="1.67475">
        <ele>31.5</ele>
        <time>2020-06-22T20:14:45Z</time>
      </trkpt>
      <trkpt lat="50.85817" lon="1.67478">
        <ele>31.8</ele>
        <time>2020-06-22T20:14:46Z</time>
      </trkpt>
      <trkpt lat="50.8581" lon="1.67482">
        <ele>32.1</ele>
        <time>2020-06-22T20:14:47Z</time>
      </trkpt>
      <trkpt lat="50.85804" lon="1.67486">
        <ele>32.4</ele>
        <time>2020-06-22T20:14:48Z</time>
      </trkpt>
      <trkpt lat="50.85799" lon="1.67489">
        <ele>32.6</ele>
        <time>2020-06-22T20:14:49Z</time>
      </trkpt>
      <trkpt lat="50.85793" lon="1.67494">
        <ele>32.9</ele>
        <time>2020-06-22T20:14:50Z</time>
      </trkpt>
      <trkpt lat="50.85788" lon="1.67498">
        <ele>33.2</ele>
        <time>2020-06-22T20:14:51Z</time>
      </trkpt>
      <trkpt lat="50.85783" lon="1.67503">
        <ele>33.4</ele>
        <time>2020-06-22T20:14:52Z</time>
      </trkpt>
      <trkpt lat="50.85779" lon="1.67507">
        <ele>33.6</ele>
        <time>2020-06-22T20:14:53Z</time>
      </trkpt>
      <trkpt lat="50.85774" lon="1.67511">
        <ele>33.7</ele>
        <time>2020-06-22T20:14:54Z</time>
      </trkpt>
      <trkpt lat="50.8577" lon="1.67515">
        <ele>33.8</ele>
        <time>2020-06-22T20:14:55Z</time>
      </trkpt>
      <trkpt lat="50.85766" lon="1.67521">
        <ele>34</ele>
        <time>2020-06-22T20:14:56Z</time>
      </trkpt>
      <trkpt lat="50.85761" lon="1.67526">
        <ele>34.1</ele>
        <time>2020-06-22T20:14:57Z</time>
      </trkpt>
      <trkpt lat="50.85757" lon="1.6753">
        <ele>34.2</ele>
        <time>2020-06-22T20:14:58Z</time>
      </trkpt>
      <trkpt lat="50.85753" lon="1.67533">
        <ele>34.2</ele>
        <time>2020-06-22T20:14:59Z</time>
      </trkpt>
      <trkpt lat="50.8575" lon="1.67535">
        <ele>34.3</ele>
        <time>2020-06-22T20:15:00Z</time>
      </trkpt>
      <trkpt lat="50.85745" lon="1.67538">
        <ele>34.3</ele>
        <time>2020-06-22T20:15:01Z</time>
      </trkpt>
      <trkpt lat="50.85742" lon="1.67539">
        <ele>34.3</ele>
        <time>2020-06-22T20:15:02Z</time>
      </trkpt>
      <trkpt lat="50.85738" lon="1.67542">
        <ele>34.3</ele>
        <time>2020-06-22T20:15:03Z</time>
      </trkpt>
      <trkpt lat="50.85734" lon="1.67545">
        <ele>34.2</ele>
        <time>2020-06-22T20:15:04Z</time>
      </trkpt>
      <trkpt lat="50.8573" lon="1.67549">
        <ele>34.1</ele>
        <time>2020-06-22T20:15:05Z</time>
      </trkpt>
      <trkpt lat="50.85727" lon="1.67552">
        <ele>34</ele>
        <time>2020-06-22T20:15:06Z</time>
      </trkpt>
      <trkpt lat="50.85723" lon="1.67554">
        <ele>33.9</ele>
        <time>2020-06-22T20:15:07Z</time>
      </trkpt>
      <trkpt lat="50.85717" lon="1.67559">
        <ele>33.7</ele>
        <time>2020-06-22T20:15:08Z</time>
      </trkpt>
      <trkpt lat="50.85713" lon="1.67559">
        <ele>33.6</ele>
        <time>2020-06-22T20:15:09Z</time>
      </trkpt>
      <trkpt lat="50.85708" lon="1.6756">
        <ele>33.3</ele>
        <time>2020-06-22T20:15:10Z</time>
      </trkpt>
      <trkpt lat="50.85703" lon="1.67561">
        <ele>33.1</ele>
        <time>2020-06-22T20:15:11Z</time>
      </trkpt>
      <trkpt lat="50.85697" lon="1.67562">
        <ele>32.8</ele>
        <time>2020-06-22T20:15:12Z</time>
      </trkpt>
      <trkpt lat="50.85691" lon="1.67563">
        <ele>32.5</ele>
        <time>2020-06-22T20:15:13Z</time>
      </trkpt>
      <trkpt lat="50.85686" lon="1.67564">
        <ele>32.2</ele>
        <time>2020-06-22T20:15:14Z</time>
      </trkpt>
      <trkpt lat="50.85681" lon="1.67565">
        <ele>31.9</ele>
        <time>2020-06-22T20:15:15Z</time>
      </trkpt>
      <trkpt lat="50.85675" lon="1.67566">
        <ele>31.6</ele>
        <time>2020-06-22T20:15:16Z</time>
      </trkpt>
      <trkpt lat="50.85669" lon="1.67567">
        <ele>31.4</ele>
        <time>2020-06-22T20:15:17Z</time>
      </trkpt>
      <trkpt lat="50.85664" lon="1.67566">
        <ele>31.1</ele>
        <time>2020-06-22T20:15:18Z</time>
      </trkpt>
      <trkpt lat="50.85658" lon="1.67566">
        <ele>31</ele>
        <time>2020-06-22T20:15:19Z</time>
      </trkpt>
      <trkpt lat="50.85652" lon="1.67567">
        <ele>30.8</ele>
        <time>2020-06-22T20:15:20Z</time>
      </trkpt>
      <trkpt lat="50.85646" lon="1.67569">
        <ele>30.6</ele>
        <time>2020-06-22T20:15:21Z</time>
      </trkpt>
      <trkpt lat="50.85641" lon="1.67572">
        <ele>30.3</ele>
        <time>2020-06-22T20:15:22Z</time>
      </trkpt>
      <trkpt lat="50.85637" lon="1.67578">
        <ele>30.1</ele>
        <time>2020-06-22T20:15:23Z</time>
      </trkpt>
      <trkpt lat="50.85635" lon="1.67585">
        <ele>30</ele>
        <time>2020-06-22T20:15:24Z</time>
      </trkpt>
      <trkpt lat="50.85635" lon="1.6759">
        <ele>29.9</ele>
        <time>2020-06-22T20:15:25Z</time>
      </trkpt>
      <trkpt lat="50.85636" lon="1.67591">
        <ele>29.8</ele>
        <time>2020-06-22T20:15:26Z</time>
      </trkpt>
      <trkpt lat="50.85635" lon="1.67593">
        <ele>29.8</ele>
        <time>2020-06-22T20:15:27Z</time>
      </trkpt>
      <trkpt lat="50.85636" lon="1.67594">
        <ele>29.8</ele>
        <time>2020-06-22T20:15:28Z</time>
      </trkpt>
      <trkpt lat="50.85637" lon="1.67593">
        <ele>29.8</ele>
        <time>2020-06-22T20:15:29Z</time>
      </trkpt>
      <trkpt lat="50.85637" lon="1.67593">
        <ele>29.8</ele>
        <time>2020-06-22T20:15:30Z</time>
      </trkpt>
      <trkpt lat="50.85638" lon="1.67592">
        <ele>29.7</ele>
        <time>2020-06-22T20:15:31Z</time>
      </trkpt>
      <trkpt lat="50.85638" lon="1.67592">
        <ele>29.7</ele>
        <time>2020-06-22T20:15:32Z</time>
      </trkpt>
      <trkpt lat="50.85638" lon="1.67592">
        <ele>29.7</ele>
        <time>2020-06-22T20:15:33Z</time>
      </trkpt>
      <trkpt lat="50.85638" lon="1.67596">
        <ele>29.7</ele>
        <time>2020-06-22T20:15:34Z</time>
      </trkpt>
      <trkpt lat="50.85639" lon="1.67597">
        <ele>29.7</ele>
        <time>2020-06-22T20:15:35Z</time>
      </trkpt>
      <trkpt lat="50.85641" lon="1.67603">
        <ele>29.6</ele>
        <time>2020-06-22T20:15:36Z</time>
      </trkpt>
      <trkpt lat="50.85641" lon="1.67606">
        <ele>29.6</ele>
        <time>2020-06-22T20:15:37Z</time>
      </trkpt>
      <trkpt lat="50.85641" lon="1.67613">
        <ele>29.5</ele>
        <time>2020-06-22T20:15:38Z</time>
      </trkpt>
      <trkpt lat="50.85643" lon="1.67617">
        <ele>29.5</ele>
        <time>2020-06-22T20:15:39Z</time>
      </trkpt>
      <trkpt lat="50.85644" lon="1.67622">
        <ele>29.5</ele>
        <time>2020-06-22T20:15:40Z</time>
      </trkpt>
      <trkpt lat="50.85646" lon="1.67628">
        <ele>29.5</ele>
        <time>2020-06-22T20:15:41Z</time>
      </trkpt>
      <trkpt lat="50.85648" lon="1.67634">
        <ele>29.5</ele>
        <time>2020-06-22T20:15:42Z</time>
      </trkpt>
      <trkpt lat="50.85649" lon="1.67638">
        <ele>29.5</ele>
        <time>2020-06-22T20:15:43Z</time>
      </trkpt>
      <trkpt lat="50.8565" lon="1.67644">
        <ele>29.5</ele>
        <time>2020-06-22T20:15:44Z</time>
      </trkpt>
      <trkpt lat="50.85651" lon="1.67646">
        <ele>29.5</ele>
        <time>2020-06-22T20:15:45Z</time>
      </trkpt>
      <trkpt lat="50.85652" lon="1.67652">
        <ele>29.5</ele>
        <time>2020-06-22T20:15:46Z</time>
      </trkpt>
      <trkpt lat="50.85652" lon="1.67658">
        <ele>29.5</ele>
        <time>2020-06-22T20:15:47Z</time>
      </trkpt>
      <trkpt lat="50.85653" lon="1.67664">
        <ele>29.5</ele>
        <time>2020-06-22T20:15:48Z</time>
      </trkpt>
      <trkpt lat="50.85655" lon="1.67671">
        <ele>29.5</ele>
        <time>2020-06-22T20:15:49Z</time>
      </trkpt>
      <trkpt lat="50.85656" lon="1.67678">
        <ele>29.5</ele>
        <time>2020-06-22T20:15:50Z</time>
      </trkpt>
      <trkpt lat="50.85656" lon="1.67684">
        <ele>29.5</ele>
        <time>2020-06-22T20:15:51Z</time>
      </trkpt>
      <trkpt lat="50.85657" lon="1.67691">
        <ele>29.5</ele>
        <time>2020-06-22T20:15:52Z</time>
      </trkpt>
      <trkpt lat="50.85658" lon="1.67698">
        <ele>29.5</ele>
        <time>2020-06-22T20:15:53Z</time>
      </trkpt>
      <trkpt lat="50.8566" lon="1.67704">
        <ele>29.5</ele>
        <time>2020-06-22T20:15:54Z</time>
      </trkpt>
      <trkpt lat="50.85662" lon="1.67711">
        <ele>29.6</ele>
        <time>2020-06-22T20:15:55Z</time>
      </trkpt>
      <trkpt lat="50.85663" lon="1.67719">
        <ele>29.6</ele>
        <time>2020-06-22T20:15:56Z</time>
      </trkpt>
      <trkpt lat="50.85664" lon="1.67725">
        <ele>29.7</ele>
        <time>2020-06-22T20:15:57Z</time>
      </trkpt>
      <trkpt lat="50.85666" lon="1.67733">
        <ele>29.7</ele>
        <time>2020-06-22T20:15:58Z</time>
      </trkpt>
      <trkpt lat="50.85667" lon="1.67741">
        <ele>29.8</ele>
        <time>2020-06-22T20:15:59Z</time>
      </trkpt>
      <trkpt lat="50.85669" lon="1.67748">
        <ele>29.8</ele>
        <time>2020-06-22T20:16:00Z</time>
      </trkpt>
      <trkpt lat="50.85672" lon="1.67756">
        <ele>29.8</ele>
        <time>2020-06-22T20:16:01Z</time>
      </trkpt>
      <trkpt lat="50.85674" lon="1.67762">
        <ele>29.9</ele>
        <time>2020-06-22T20:16:02Z</time>
      </trkpt>
      <trkpt lat="50.85676" lon="1.67768">
        <ele>29.9</ele>
        <time>2020-06-22T20:16:03Z</time>
      </trkpt>
      <trkpt lat="50.85678" lon="1.67774">
        <ele>30</ele>
        <time>2020-06-22T20:16:04Z</time>
      </trkpt>
      <trkpt lat="50.85681" lon="1.67782">
        <ele>30</ele>
        <time>2020-06-22T20:16:05Z</time>
      </trkpt>
      <trkpt lat="50.85683" lon="1.67789">
        <ele>30.1</ele>
        <time>2020-06-22T20:16:06Z</time>
      </trkpt>
      <trkpt lat="50.85686" lon="1.67796">
        <ele>30.2</ele>
        <time>2020-06-22T20:16:07Z</time>
      </trkpt>
      <trkpt lat="50.85688" lon="1.67801">
        <ele>30.3</ele>
        <time>2020-06-22T20:16:08Z</time>
      </trkpt>
      <trkpt lat="50.85692" lon="1.67807">
        <ele>30.4</ele>
        <time>2020-06-22T20:16:09Z</time>
      </trkpt>
      <trkpt lat="50.85694" lon="1.67813">
        <ele>30.5</ele>
        <time>2020-06-22T20:16:10Z</time>
      </trkpt>
      <trkpt lat="50.85697" lon="1.67819">
        <ele>30.6</ele>
        <time>2020-06-22T20:16:11Z</time>
      </trkpt>
      <trkpt lat="50.857" lon="1.67825">
        <ele>30.8</ele>
        <time>2020-06-22T20:16:12Z</time>
      </trkpt>
      <trkpt lat="50.85703" lon="1.67832">
        <ele>30.9</ele>
        <time>2020-06-22T20:16:13Z</time>
      </trkpt>
      <trkpt lat="50.85706" lon="1.67836">
        <ele>31</ele>
        <time>2020-06-22T20:16:14Z</time>
      </trkpt>
      <trkpt lat="50.85708" lon="1.67841">
        <ele>31.1</ele>
        <time>2020-06-22T20:16:15Z</time>
      </trkpt>
      <trkpt lat="50.8571" lon="1.67848">
        <ele>31.3</ele>
        <time>2020-06-22T20:16:16Z</time>
      </trkpt>
      <trkpt lat="50.85712" lon="1.67855">
        <ele>31.5</ele>
        <time>2020-06-22T20:16:17Z</time>
      </trkpt>
      <trkpt lat="50.85714" lon="1.67862">
        <ele>31.7</ele>
        <time>2020-06-22T20:16:18Z</time>
      </trkpt>
      <trkpt lat="50.85716" lon="1.67868">
        <ele>31.9</ele>
        <time>2020-06-22T20:16:19Z</time>
      </trkpt>
      <trkpt lat="50.85719" lon="1.67873">
        <ele>32</ele>
        <time>2020-06-22T20:16:20Z</time>
      </trkpt>
      <trkpt lat="50.85721" lon="1.6788">
        <ele>32.2</ele>
        <time>2020-06-22T20:16:21Z</time>
      </trkpt>
      <trkpt lat="50.85722" lon="1.67888">
        <ele>32.4</ele>
        <time>2020-06-22T20:16:22Z</time>
      </trkpt>
      <trkpt lat="50.85724" lon="1.67893">
        <ele>32.6</ele>
        <time>2020-06-22T20:16:23Z</time>
      </trkpt>
      <trkpt lat="50.85725" lon="1.67898">
        <ele>32.7</ele>
        <time>2020-06-22T20:16:24Z</time>
      </trkpt>
      <trkpt lat="50.85726" lon="1.67904">
        <ele>32.9</ele>
        <time>2020-06-22T20:16:25Z</time>
      </trkpt>
      <trkpt lat="50.85727" lon="1.67911">
        <ele>33</ele>
        <time>2020-06-22T20:16:26Z</time>
      </trkpt>
      <trkpt lat="50.85728" lon="1.67917">
        <ele>33.2</ele>
        <time>2020-06-22T20:16:27Z</time>
      </trkpt>
      <trkpt lat="50.85729" lon="1.67922">
        <ele>33.4</ele>
        <time>2020-06-22T20:16:28Z</time>
      </trkpt>
      <trkpt lat="50.85728" lon="1.6793">
        <ele>33.5</ele>
        <time>2020-06-22T20:16:29Z</time>
      </trkpt>
      <trkpt lat="50.85729" lon="1.67939">
        <ele>33.7</ele>
        <time>2020-06-22T20:16:30Z</time>
      </trkpt>
      <trkpt lat="50.8573" lon="1.67945">
        <ele>33.9</ele>
        <time>2020-06-22T20:16:31Z</time>
      </trkpt>
      <trkpt lat="50.85731" lon="1.67952">
        <ele>34.1</ele>
        <time>2020-06-22T20:16:32Z</time>
      </trkpt>
      <trkpt lat="50.85731" lon="1.67959">
        <ele>34.2</ele>
        <time>2020-06-22T20:16:33Z</time>
      </trkpt>
      <trkpt lat="50.85732" lon="1.67966">
        <ele>34.3</ele>
        <time>2020-06-22T20:16:34Z</time>
      </trkpt>
      <trkpt lat="50.85733" lon="1.67972">
        <ele>34.4</ele>
        <time>2020-06-22T20:16:35Z</time>
      </trkpt>
      <trkpt lat="50.85734" lon="1.67977">
        <ele>34.5</ele>
        <time>2020-06-22T20:16:36Z</time>
      </trkpt>
      <trkpt lat="50.85734" lon="1.67986">
        <ele>34.6</ele>
        <time>2020-06-22T20:16:37Z</time>
      </trkpt>
      <trkpt lat="50.85735" lon="1.67992">
        <ele>34.7</ele>
        <time>2020-06-22T20:16:38Z</time>
      </trkpt>
      <trkpt lat="50.85735" lon="1.67998">
        <ele>34.8</ele>
        <time>2020-06-22T20:16:39Z</time>
      </trkpt>
      <trkpt lat="50.85736" lon="1.68005">
        <ele>34.9</ele>
        <time>2020-06-22T20:16:40Z</time>
      </trkpt>
      <trkpt lat="50.85737" lon="1.6801">
        <ele>35</ele>
        <time>2020-06-22T20:16:41Z</time>
      </trkpt>
      <trkpt lat="50.85738" lon="1.68018">
        <ele>35.1</ele>
        <time>2020-06-22T20:16:42Z</time>
      </trkpt>
      <trkpt lat="50.85738" lon="1.68025">
        <ele>35.2</ele>
        <time>2020-06-22T20:16:43Z</time>
      </trkpt>
      <trkpt lat="50.85738" lon="1.68031">
        <ele>35.3</ele>
        <time>2020-06-22T20:16:44Z</time>
      </trkpt>
      <trkpt lat="50.85739" lon="1.6804">
        <ele>35.4</ele>
        <time>2020-06-22T20:16:45Z</time>
      </trkpt>
      <trkpt lat="50.8574" lon="1.68047">
        <ele>35.5</ele>
        <time>2020-06-22T20:16:46Z</time>
      </trkpt>
      <trkpt lat="50.85741" lon="1.68056">
        <ele>35.6</ele>
        <time>2020-06-22T20:16:47Z</time>
      </trkpt>
      <trkpt lat="50.85741" lon="1.68062">
        <ele>35.7</ele>
        <time>2020-06-22T20:16:48Z</time>
      </trkpt>
      <trkpt lat="50.85741" lon="1.68069">
        <ele>35.8</ele>
        <time>2020-06-22T20:16:49Z</time>
      </trkpt>
      <trkpt lat="50.85742" lon="1.68077">
        <ele>35.9</ele>
        <time>2020-06-22T20:16:50Z</time>
      </trkpt>
      <trkpt lat="50.85743" lon="1.68085">
        <ele>36</ele>
        <time>2020-06-22T20:16:51Z</time>
      </trkpt>
      <trkpt lat="50.85744" lon="1.6809">
        <ele>36.1</ele>
        <time>2020-06-22T20:16:52Z</time>
      </trkpt>
      <trkpt lat="50.85745" lon="1.68097">
        <ele>36.2</ele>
        <time>2020-06-22T20:16:53Z</time>
      </trkpt>
      <trkpt lat="50.85746" lon="1.68103">
        <ele>36.3</ele>
        <time>2020-06-22T20:16:54Z</time>
      </trkpt>
      <trkpt lat="50.85747" lon="1.6811">
        <ele>36.4</ele>
        <time>2020-06-22T20:16:55Z</time>
      </trkpt>
      <trkpt lat="50.85748" lon="1.68119">
        <ele>36.6</ele>
        <time>2020-06-22T20:16:56Z</time>
      </trkpt>
      <trkpt lat="50.85749" lon="1.68126">
        <ele>36.6</ele>
        <time>2020-06-22T20:16:57Z</time>
      </trkpt>
      <trkpt lat="50.85751" lon="1.68134">
        <ele>36.7</ele>
        <time>2020-06-22T20:16:58Z</time>
      </trkpt>
      <trkpt lat="50.85752" lon="1.68142">
        <ele>36.8</ele>
        <time>2020-06-22T20:16:59Z</time>
      </trkpt>
      <trkpt lat="50.85753" lon="1.68148">
        <ele>36.9</ele>
        <time>2020-06-22T20:17:00Z</time>
      </trkpt>
      <trkpt lat="50.85754" lon="1.68156">
        <ele>37</ele>
        <time>2020-06-22T20:17:01Z</time>
      </trkpt>
      <trkpt lat="50.85755" lon="1.68164">
        <ele>37.1</ele>
        <time>2020-06-22T20:17:02Z</time>
      </trkpt>
      <trkpt lat="50.85755" lon="1.6817">
        <ele>37.2</ele>
        <time>2020-06-22T20:17:03Z</time>
      </trkpt>
      <trkpt lat="50.85756" lon="1.68179">
        <ele>37.3</ele>
        <time>2020-06-22T20:17:04Z</time>
      </trkpt>
      <trkpt lat="50.85757" lon="1.68183">
        <ele>37.3</ele>
        <time>2020-06-22T20:17:05Z</time>
      </trkpt>
      <trkpt lat="50.85758" lon="1.68191">
        <ele>37.4</ele>
        <time>2020-06-22T20:17:06Z</time>
      </trkpt>
      <trkpt lat="50.85759" lon="1.682">
        <ele>37.5</ele>
        <time>2020-06-22T20:17:07Z</time>
      </trkpt>
      <trkpt lat="50.85759" lon="1.68207">
        <ele>37.5</ele>
        <time>2020-06-22T20:17:08Z</time>
      </trkpt>
      <trkpt lat="50.8576" lon="1.68213">
        <ele>37.6</ele>
        <time>2020-06-22T20:17:09Z</time>
      </trkpt>
      <trkpt lat="50.85761" lon="1.6822">
        <ele>37.7</ele>
        <time>2020-06-22T20:17:10Z</time>
      </trkpt>
      <trkpt lat="50.85763" lon="1.68227">
        <ele>37.8</ele>
        <time>2020-06-22T20:17:11Z</time>
      </trkpt>
      <trkpt lat="50.85764" lon="1.68236">
        <ele>37.9</ele>
        <time>2020-06-22T20:17:12Z</time>
      </trkpt>
      <trkpt lat="50.85763" lon="1.68245">
        <ele>38</ele>
        <time>2020-06-22T20:17:13Z</time>
      </trkpt>
      <trkpt lat="50.85764" lon="1.68253">
        <ele>38.1</ele>
        <time>2020-06-22T20:17:14Z</time>
      </trkpt>
      <trkpt lat="50.85766" lon="1.68262">
        <ele>38.2</ele>
        <time>2020-06-22T20:17:15Z</time>
      </trkpt>
      <trkpt lat="50.85767" lon="1.68268">
        <ele>38.3</ele>
        <time>2020-06-22T20:17:16Z</time>
      </trkpt>
      <trkpt lat="50.85768" lon="1.68275">
        <ele>38.3</ele>
        <time>2020-06-22T20:17:17Z</time>
      </trkpt>
      <trkpt lat="50.85769" lon="1.68283">
        <ele>38.5</ele>
        <time>2020-06-22T20:17:18Z</time>
      </trkpt>
      <trkpt lat="50.8577" lon="1.6829">
        <ele>38.6</ele>
        <time>2020-06-22T20:17:19Z</time>
      </trkpt>
      <trkpt lat="50.85772" lon="1.68298">
        <ele>38.7</ele>
        <time>2020-06-22T20:17:20Z</time>
      </trkpt>
      <trkpt lat="50.85773" lon="1.68307">
        <ele>38.9</ele>
        <time>2020-06-22T20:17:21Z</time>
      </trkpt>
      <trkpt lat="50.85774" lon="1.68314">
        <ele>39</ele>
        <time>2020-06-22T20:17:22Z</time>
      </trkpt>
      <trkpt lat="50.85775" lon="1.6832">
        <ele>39.1</ele>
        <time>2020-06-22T20:17:23Z</time>
      </trkpt>
      <trkpt lat="50.85776" lon="1.68328">
        <ele>39.2</ele>
        <time>2020-06-22T20:17:24Z</time>
      </trkpt>
      <trkpt lat="50.85777" lon="1.68336">
        <ele>39.3</ele>
        <time>2020-06-22T20:17:25Z</time>
      </trkpt>
      <trkpt lat="50.85778" lon="1.68343">
        <ele>39.5</ele>
        <time>2020-06-22T20:17:26Z</time>
      </trkpt>
      <trkpt lat="50.85779" lon="1.6835">
        <ele>39.6</ele>
        <time>2020-06-22T20:17:27Z</time>
      </trkpt>
      <trkpt lat="50.8578" lon="1.68358">
        <ele>39.7</ele>
        <time>2020-06-22T20:17:28Z</time>
      </trkpt>
      <trkpt lat="50.8578" lon="1.68365">
        <ele>39.9</ele>
        <time>2020-06-22T20:17:29Z</time>
      </trkpt>
      <trkpt lat="50.85781" lon="1.68373">
        <ele>40</ele>
        <time>2020-06-22T20:17:30Z</time>
      </trkpt>
      <trkpt lat="50.85783" lon="1.68381">
        <ele>40.1</ele>
        <time>2020-06-22T20:17:31Z</time>
      </trkpt>
      <trkpt lat="50.85784" lon="1.6839">
        <ele>40.3</ele>
        <time>2020-06-22T20:17:32Z</time>
      </trkpt>
      <trkpt lat="50.85783" lon="1.68396">
        <ele>40.4</ele>
        <time>2020-06-22T20:17:33Z</time>
      </trkpt>
      <trkpt lat="50.85784" lon="1.68404">
        <ele>40.6</ele>
        <time>2020-06-22T20:17:34Z</time>
      </trkpt>
      <trkpt lat="50.85783" lon="1.68412">
        <ele>40.7</ele>
        <time>2020-06-22T20:17:35Z</time>
      </trkpt>
      <trkpt lat="50.85784" lon="1.68418">
        <ele>40.9</ele>
        <time>2020-06-22T20:17:36Z</time>
      </trkpt>
      <trkpt lat="50.85784" lon="1.68425">
        <ele>41</ele>
        <time>2020-06-22T20:17:37Z</time>
      </trkpt>
      <trkpt lat="50.85785" lon="1.68432">
        <ele>41.2</ele>
        <time>2020-06-22T20:17:38Z</time>
      </trkpt>
      <trkpt lat="50.85785" lon="1.68439">
        <ele>41.4</ele>
        <time>2020-06-22T20:17:39Z</time>
      </trkpt>
      <trkpt lat="50.85786" lon="1.68445">
        <ele>41.5</ele>
        <time>2020-06-22T20:17:40Z</time>
      </trkpt>
      <trkpt lat="50.85787" lon="1.68453">
        <ele>41.7</ele>
        <time>2020-06-22T20:17:41Z</time>
      </trkpt>
      <trkpt lat="50.85788" lon="1.68461">
        <ele>41.9</ele>
        <time>2020-06-22T20:17:42Z</time>
      </trkpt>
      <trkpt lat="50.85789" lon="1.68469">
        <ele>42.1</ele>
        <time>2020-06-22T20:17:43Z</time>
      </trkpt>
      <trkpt lat="50.8579" lon="1.68474">
        <ele>42.3</ele>
        <time>2020-06-22T20:17:44Z</time>
      </trkpt>
      <trkpt lat="50.8579" lon="1.6848">
        <ele>42.4</ele>
        <time>2020-06-22T20:17:45Z</time>
      </trkpt>
      <trkpt lat="50.85791" lon="1.68485">
        <ele>42.6</ele>
        <time>2020-06-22T20:17:46Z</time>
      </trkpt>
      <trkpt lat="50.85792" lon="1.68491">
        <ele>42.8</ele>
        <time>2020-06-22T20:17:47Z</time>
      </trkpt>
      <trkpt lat="50.85792" lon="1.68499">
        <ele>43</ele>
        <time>2020-06-22T20:17:48Z</time>
      </trkpt>
      <trkpt lat="50.85791" lon="1.68506">
        <ele>43.3</ele>
        <time>2020-06-22T20:17:49Z</time>
      </trkpt>
      <trkpt lat="50.85791" lon="1.68513">
        <ele>43.5</ele>
        <time>2020-06-22T20:17:50Z</time>
      </trkpt>
      <trkpt lat="50.85792" lon="1.68519">
        <ele>43.7</ele>
        <time>2020-06-22T20:17:51Z</time>
      </trkpt>
      <trkpt lat="50.85791" lon="1.68525">
        <ele>43.9</ele>
        <time>2020-06-22T20:17:52Z</time>
      </trkpt>
      <trkpt lat="50.85791" lon="1.68531">
        <ele>44</ele>
        <time>2020-06-22T20:17:53Z</time>
      </trkpt>
      <trkpt lat="50.85792" lon="1.68536">
        <ele>44.2</ele>
        <time>2020-06-22T20:17:54Z</time>
      </trkpt>
      <trkpt lat="50.85793" lon="1.6854">
        <ele>44.2</ele>
        <time>2020-06-22T20:17:55Z</time>
      </trkpt>
      <trkpt lat="50.85794" lon="1.68545">
        <ele>44.3</ele>
        <time>2020-06-22T20:17:56Z</time>
      </trkpt>
      <trkpt lat="50.85793" lon="1.68551">
        <ele>44.4</ele>
        <time>2020-06-22T20:17:57Z</time>
      </trkpt>
      <trkpt lat="50.85793" lon="1.68553">
        <ele>44.4</ele>
        <time>2020-06-22T20:17:58Z</time>
      </trkpt>
      <trkpt lat="50.85794" lon="1.68558">
        <ele>44.5</ele>
        <time>2020-06-22T20:17:59Z</time>
      </trkpt>
      <trkpt lat="50.85794" lon="1.68559">
        <ele>44.5</ele>
        <time>2020-06-22T20:18:00Z</time>
      </trkpt>
      <trkpt lat="50.85794" lon="1.68564">
        <ele>44.6</ele>
        <time>2020-06-22T20:18:01Z</time>
      </trkpt>
      <trkpt lat="50.85794" lon="1.68565">
        <ele>44.6</ele>
        <time>2020-06-22T20:18:02Z</time>
      </trkpt>
      <trkpt lat="50.85794" lon="1.68565">
        <ele>44.6</ele>
        <time>2020-06-22T20:18:03Z</time>
      </trkpt>
      <trkpt lat="50.85794" lon="1.68563">
        <ele>44.6</ele>
        <time>2020-06-22T20:18:04Z</time>
      </trkpt>
      <trkpt lat="50.85794" lon="1.68561">
        <ele>44.6</ele>
        <time>2020-06-22T20:18:05Z</time>
      </trkpt>
      <trkpt lat="50.85795" lon="1.6856">
        <ele>44.6</ele>
        <time>2020-06-22T20:18:06Z</time>
      </trkpt>
      <trkpt lat="50.85795" lon="1.68559">
        <ele>44.7</ele>
        <time>2020-06-22T20:18:07Z</time>
      </trkpt>
      <trkpt lat="50.85795" lon="1.68559">
        <ele>44.7</ele>
        <time>2020-06-22T20:18:08Z</time>
      </trkpt>
      <trkpt lat="50.85795" lon="1.68559">
        <ele>44.7</ele>
        <time>2020-06-22T20:18:09Z</time>
      </trkpt>
      <trkpt lat="50.85794" lon="1.68559">
        <ele>44.7</ele>
        <time>2020-06-22T20:18:10Z</time>
      </trkpt>
      <trkpt lat="50.85794" lon="1.68559">
        <ele>44.7</ele>
        <time>2020-06-22T20:18:11Z</time>
      </trkpt>
      <trkpt lat="50.85794" lon="1.68559">
        <ele>44.7</ele>
        <time>2020-06-22T20:18:12Z</time>
      </trkpt>
      <trkpt lat="50.85794" lon="1.68559">
        <ele>44.7</ele>
        <time>2020-06-22T20:18:13Z</time>
      </trkpt>
      <trkpt lat="50.85794" lon="1.68559">
        <ele>44.7</ele>
        <time>2020-06-22T20:18:14Z</time>
      </trkpt>
      <trkpt lat="50.85798" lon="1.68558">
        <ele>44.8</ele>
        <time>2020-06-22T20:18:49Z</time>
      </trkpt>
      <trkpt lat="50.85798" lon="1.68556">
        <ele>44.8</ele>
        <time>2020-06-22T20:18:50Z</time>
      </trkpt>
      <trkpt lat="50.85797" lon="1.68554">
        <ele>44.8</ele>
        <time>2020-06-22T20:18:51Z</time>
      </trkpt>
      <trkpt lat="50.85796" lon="1.68552">
        <ele>44.9</ele>
        <time>2020-06-22T20:18:52Z</time>
      </trkpt>
      <trkpt lat="50.85796" lon="1.68553">
        <ele>44.9</ele>
        <time>2020-06-22T20:18:53Z</time>
      </trkpt>
      <trkpt lat="50.85796" lon="1.68555">
        <ele>44.9</ele>
        <time>2020-06-22T20:18:54Z</time>
      </trkpt>
      <trkpt lat="50.85796" lon="1.68557">
        <ele>44.9</ele>
        <time>2020-06-22T20:18:55Z</time>
      </trkpt>
      <trkpt lat="50.85796" lon="1.68558">
        <ele>44.9</ele>
        <time>2020-06-22T20:18:56Z</time>
      </trkpt>
      <trkpt lat="50.85797" lon="1.6856">
        <ele>45</ele>
        <time>2020-06-22T20:18:57Z</time>
      </trkpt>
      <trkpt lat="50.85797" lon="1.68559">
        <ele>45</ele>
        <time>2020-06-22T20:18:58Z</time>
      </trkpt>
      <trkpt lat="50.85797" lon="1.6856">
        <ele>45</ele>
        <time>2020-06-22T20:18:59Z</time>
      </trkpt>
      <trkpt lat="50.85797" lon="1.68561">
        <ele>45</ele>
        <time>2020-06-22T20:19:00Z</time>
      </trkpt>
      <trkpt lat="50.85797" lon="1.68563">
        <ele>45</ele>
        <time>2020-06-22T20:19:01Z</time>
      </trkpt>
      <trkpt lat="50.85798" lon="1.68566">
        <ele>45.1</ele>
        <time>2020-06-22T20:19:02Z</time>
      </trkpt>
      <trkpt lat="50.85798" lon="1.68567">
        <ele>45.1</ele>
        <time>2020-06-22T20:19:03Z</time>
      </trkpt>
      <trkpt lat="50.85799" lon="1.68568">
        <ele>45.1</ele>
        <time>2020-06-22T20:19:04Z</time>
      </trkpt>
      <trkpt lat="50.85799" lon="1.68569">
        <ele>45.1</ele>
        <time>2020-06-22T20:19:05Z</time>
      </trkpt>
      <trkpt lat="50.858" lon="1.68569">
        <ele>45.1</ele>
        <time>2020-06-22T20:19:06Z</time>
      </trkpt>
      <trkpt lat="50.858" lon="1.6857">
        <ele>45.1</ele>
        <time>2020-06-22T20:19:07Z</time>
      </trkpt>
      <trkpt lat="50.858" lon="1.68572">
        <ele>45.2</ele>
        <time>2020-06-22T20:19:08Z</time>
      </trkpt>
      <trkpt lat="50.85801" lon="1.68573">
        <ele>45.2</ele>
        <time>2020-06-22T20:19:09Z</time>
      </trkpt>
      <trkpt lat="50.85802" lon="1.68575">
        <ele>45.2</ele>
        <time>2020-06-22T20:19:10Z</time>
      </trkpt>
      <trkpt lat="50.85803" lon="1.68576">
        <ele>45.3</ele>
        <time>2020-06-22T20:19:11Z</time>
      </trkpt>
      <trkpt lat="50.85805" lon="1.68581">
        <ele>45.3</ele>
        <time>2020-06-22T20:19:12Z</time>
      </trkpt>
      <trkpt lat="50.85806" lon="1.68582">
        <ele>45.4</ele>
        <time>2020-06-22T20:19:13Z</time>
      </trkpt>
      <trkpt lat="50.85808" lon="1.68586">
        <ele>45.4</ele>
        <time>2020-06-22T20:19:14Z</time>
      </trkpt>
      <trkpt lat="50.8581" lon="1.68589">
        <ele>45.5</ele>
        <time>2020-06-22T20:19:15Z</time>
      </trkpt>
      <trkpt lat="50.85811" lon="1.68594">
        <ele>45.6</ele>
        <time>2020-06-22T20:19:16Z</time>
      </trkpt>
      <trkpt lat="50.85814" lon="1.68599">
        <ele>45.6</ele>
        <time>2020-06-22T20:19:17Z</time>
      </trkpt>
      <trkpt lat="50.85817" lon="1.68603">
        <ele>45.7</ele>
        <time>2020-06-22T20:19:18Z</time>
      </trkpt>
      <trkpt lat="50.8582" lon="1.68607">
        <ele>45.8</ele>
        <time>2020-06-22T20:19:19Z</time>
      </trkpt>
      <trkpt lat="50.85824" lon="1.68612">
        <ele>45.9</ele>
        <time>2020-06-22T20:19:20Z</time>
      </trkpt>
      <trkpt lat="50.85827" lon="1.68617">
        <ele>46</ele>
        <time>2020-06-22T20:19:21Z</time>
      </trkpt>
      <trkpt lat="50.8583" lon="1.68622">
        <ele>46</ele>
        <time>2020-06-22T20:19:22Z</time>
      </trkpt>
      <trkpt lat="50.85832" lon="1.68628">
        <ele>46.1</ele>
        <time>2020-06-22T20:19:23Z</time>
      </trkpt>
      <trkpt lat="50.85835" lon="1.68634">
        <ele>46.2</ele>
        <time>2020-06-22T20:19:24Z</time>
      </trkpt>
      <trkpt lat="50.85838" lon="1.68641">
        <ele>46.2</ele>
        <time>2020-06-22T20:19:25Z</time>
      </trkpt>
      <trkpt lat="50.85841" lon="1.68647">
        <ele>46.3</ele>
        <time>2020-06-22T20:19:26Z</time>
      </trkpt>
      <trkpt lat="50.85844" lon="1.68654">
        <ele>46.4</ele>
        <time>2020-06-22T20:19:27Z</time>
      </trkpt>
      <trkpt lat="50.85847" lon="1.6866">
        <ele>46.5</ele>
        <time>2020-06-22T20:19:28Z</time>
      </trkpt>
      <trkpt lat="50.85851" lon="1.68666">
        <ele>46.5</ele>
        <time>2020-06-22T20:19:29Z</time>
      </trkpt>
      <trkpt lat="50.85854" lon="1.68671">
        <ele>46.6</ele>
        <time>2020-06-22T20:19:30Z</time>
      </trkpt>
      <trkpt lat="50.85858" lon="1.68676">
        <ele>46.7</ele>
        <time>2020-06-22T20:19:31Z</time>
      </trkpt>
      <trkpt lat="50.85861" lon="1.68682">
        <ele>46.7</ele>
        <time>2020-06-22T20:19:32Z</time>
      </trkpt>
      <trkpt lat="50.85864" lon="1.68687">
        <ele>46.8</ele>
        <time>2020-06-22T20:19:33Z</time>
      </trkpt>
      <trkpt lat="50.85868" lon="1.68693">
        <ele>46.8</ele>
        <time>2020-06-22T20:19:34Z</time>
      </trkpt>
      <trkpt lat="50.85871" lon="1.68698">
        <ele>46.9</ele>
        <time>2020-06-22T20:19:35Z</time>
      </trkpt>
      <trkpt lat="50.85874" lon="1.68704">
        <ele>47</ele>
        <time>2020-06-22T20:19:36Z</time>
      </trkpt>
      <trkpt lat="50.85877" lon="1.6871">
        <ele>46.9</ele>
        <time>2020-06-22T20:19:37Z</time>
      </trkpt>
      <trkpt lat="50.85881" lon="1.68716">
        <ele>46.9</ele>
        <time>2020-06-22T20:19:38Z</time>
      </trkpt>
      <trkpt lat="50.85884" lon="1.68722">
        <ele>46.9</ele>
        <time>2020-06-22T20:19:39Z</time>
      </trkpt>
      <trkpt lat="50.85887" lon="1.68727">
        <ele>46.9</ele>
        <time>2020-06-22T20:19:40Z</time>
      </trkpt>
      <trkpt lat="50.8589" lon="1.68731">
        <ele>47</ele>
        <time>2020-06-22T20:19:41Z</time>
      </trkpt>
      <trkpt lat="50.85893" lon="1.68736">
        <ele>47</ele>
        <time>2020-06-22T20:19:42Z</time>
      </trkpt>
      <trkpt lat="50.85896" lon="1.68741">
        <ele>47</ele>
        <time>2020-06-22T20:19:43Z</time>
      </trkpt>
      <trkpt lat="50.85899" lon="1.68747">
        <ele>47</ele>
        <time>2020-06-22T20:19:44Z</time>
      </trkpt>
      <trkpt lat="50.85903" lon="1.68751">
        <ele>47.1</ele>
        <time>2020-06-22T20:19:45Z</time>
      </trkpt>
      <trkpt lat="50.85906" lon="1.68757">
        <ele>47.1</ele>
        <time>2020-06-22T20:19:46Z</time>
      </trkpt>
      <trkpt lat="50.85909" lon="1.68762">
        <ele>47.2</ele>
        <time>2020-06-22T20:19:47Z</time>
      </trkpt>
      <trkpt lat="50.85912" lon="1.68768">
        <ele>47.2</ele>
        <time>2020-06-22T20:19:48Z</time>
      </trkpt>
      <trkpt lat="50.85915" lon="1.68774">
        <ele>47.3</ele>
        <time>2020-06-22T20:19:49Z</time>
      </trkpt>
      <trkpt lat="50.85919" lon="1.68779">
        <ele>47.3</ele>
        <time>2020-06-22T20:19:50Z</time>
      </trkpt>
      <trkpt lat="50.85922" lon="1.68785">
        <ele>47.4</ele>
        <time>2020-06-22T20:19:51Z</time>
      </trkpt>
      <trkpt lat="50.85925" lon="1.6879">
        <ele>47.4</ele>
        <time>2020-06-22T20:19:52Z</time>
      </trkpt>
      <trkpt lat="50.85928" lon="1.68796">
        <ele>47.5</ele>
        <time>2020-06-22T20:19:53Z</time>
      </trkpt>
      <trkpt lat="50.85931" lon="1.68801">
        <ele>47.5</ele>
        <time>2020-06-22T20:19:54Z</time>
      </trkpt>
      <trkpt lat="50.85934" lon="1.68805">
        <ele>47.5</ele>
        <time>2020-06-22T20:19:55Z</time>
      </trkpt>
      <trkpt lat="50.85938" lon="1.68811">
        <ele>47.6</ele>
        <time>2020-06-22T20:19:56Z</time>
      </trkpt>
      <trkpt lat="50.85941" lon="1.68815">
        <ele>47.6</ele>
        <time>2020-06-22T20:19:57Z</time>
      </trkpt>
      <trkpt lat="50.85945" lon="1.68821">
        <ele>47.7</ele>
        <time>2020-06-22T20:19:58Z</time>
      </trkpt>
      <trkpt lat="50.85948" lon="1.68826">
        <ele>47.7</ele>
        <time>2020-06-22T20:19:59Z</time>
      </trkpt>
      <trkpt lat="50.85951" lon="1.6883">
        <ele>47.7</ele>
        <time>2020-06-22T20:20:00Z</time>
      </trkpt>
      <trkpt lat="50.85955" lon="1.68835">
        <ele>47.8</ele>
        <time>2020-06-22T20:20:01Z</time>
      </trkpt>
      <trkpt lat="50.85959" lon="1.6884">
        <ele>47.8</ele>
        <time>2020-06-22T20:20:02Z</time>
      </trkpt>
      <trkpt lat="50.85962" lon="1.68845">
        <ele>47.9</ele>
        <time>2020-06-22T20:20:03Z</time>
      </trkpt>
      <trkpt lat="50.85965" lon="1.6885">
        <ele>48</ele>
        <time>2020-06-22T20:20:04Z</time>
      </trkpt>
      <trkpt lat="50.85968" lon="1.68856">
        <ele>48</ele>
        <time>2020-06-22T20:20:05Z</time>
      </trkpt>
      <trkpt lat="50.85972" lon="1.68862">
        <ele>48.1</ele>
        <time>2020-06-22T20:20:06Z</time>
      </trkpt>
      <trkpt lat="50.85974" lon="1.68867">
        <ele>48.1</ele>
        <time>2020-06-22T20:20:07Z</time>
      </trkpt>
      <trkpt lat="50.85977" lon="1.68871">
        <ele>48.2</ele>
        <time>2020-06-22T20:20:08Z</time>
      </trkpt>
      <trkpt lat="50.85978" lon="1.68878">
        <ele>48.2</ele>
        <time>2020-06-22T20:20:09Z</time>
      </trkpt>
      <trkpt lat="50.85981" lon="1.68883">
        <ele>48.3</ele>
        <time>2020-06-22T20:20:10Z</time>
      </trkpt>
      <trkpt lat="50.85984" lon="1.68888">
        <ele>48.3</ele>
        <time>2020-06-22T20:20:11Z</time>
      </trkpt>
      <trkpt lat="50.85987" lon="1.68894">
        <ele>48.4</ele>
        <time>2020-06-22T20:20:12Z</time>
      </trkpt>
      <trkpt lat="50.8599" lon="1.689">
        <ele>48.4</ele>
        <time>2020-06-22T20:20:13Z</time>
      </trkpt>
      <trkpt lat="50.85994" lon="1.68905">
        <ele>48.5</ele>
        <time>2020-06-22T20:20:14Z</time>
      </trkpt>
      <trkpt lat="50.85996" lon="1.68911">
        <ele>48.5</ele>
        <time>2020-06-22T20:20:15Z</time>
      </trkpt>
      <trkpt lat="50.85999" lon="1.68917">
        <ele>48.6</ele>
        <time>2020-06-22T20:20:16Z</time>
      </trkpt>
      <trkpt lat="50.86001" lon="1.68923">
        <ele>48.7</ele>
        <time>2020-06-22T20:20:17Z</time>
      </trkpt>
      <trkpt lat="50.86004" lon="1.68928">
        <ele>48.8</ele>
        <time>2020-06-22T20:20:18Z</time>
      </trkpt>
      <trkpt lat="50.86007" lon="1.68932">
        <ele>48.8</ele>
        <time>2020-06-22T20:20:19Z</time>
      </trkpt>
      <trkpt lat="50.8601" lon="1.68936">
        <ele>48.9</ele>
        <time>2020-06-22T20:20:20Z</time>
      </trkpt>
      <trkpt lat="50.86013" lon="1.68941">
        <ele>49</ele>
        <time>2020-06-22T20:20:21Z</time>
      </trkpt>
      <trkpt lat="50.86016" lon="1.68947">
        <ele>49.1</ele>
        <time>2020-06-22T20:20:22Z</time>
      </trkpt>
      <trkpt lat="50.86018" lon="1.68952">
        <ele>49.2</ele>
        <time>2020-06-22T20:20:23Z</time>
      </trkpt>
      <trkpt lat="50.86021" lon="1.68956">
        <ele>49.3</ele>
        <time>2020-06-22T20:20:24Z</time>
      </trkpt>
      <trkpt lat="50.86023" lon="1.68961">
        <ele>49.3</ele>
        <time>2020-06-22T20:20:25Z</time>
      </trkpt>
      <trkpt lat="50.86025" lon="1.68966">
        <ele>49.4</ele>
        <time>2020-06-22T20:20:26Z</time>
      </trkpt>
      <trkpt lat="50.86028" lon="1.68971">
        <ele>49.6</ele>
        <time>2020-06-22T20:20:27Z</time>
      </trkpt>
      <trkpt lat="50.8603" lon="1.68977">
        <ele>49.7</ele>
        <time>2020-06-22T20:20:28Z</time>
      </trkpt>
      <trkpt lat="50.86033" lon="1.68981">
        <ele>49.9</ele>
        <time>2020-06-22T20:20:29Z</time>
      </trkpt>
      <trkpt lat="50.86035" lon="1.68987">
        <ele>50.1</ele>
        <time>2020-06-22T20:20:30Z</time>
      </trkpt>
      <trkpt lat="50.86037" lon="1.68994">
        <ele>50.1</ele>
        <time>2020-06-22T20:20:31Z</time>
      </trkpt>
      <trkpt lat="50.86039" lon="1.68998">
        <ele>50.1</ele>
        <time>2020-06-22T20:20:32Z</time>
      </trkpt>
      <trkpt lat="50.86042" lon="1.69004">
        <ele>50.2</ele>
        <time>2020-06-22T20:20:33Z</time>
      </trkpt>
      <trkpt lat="50.86044" lon="1.6901">
        <ele>50.2</ele>
        <time>2020-06-22T20:20:34Z</time>
      </trkpt>
      <trkpt lat="50.86047" lon="1.69017">
        <ele>50.3</ele>
        <time>2020-06-22T20:20:35Z</time>
      </trkpt>
      <trkpt lat="50.8605" lon="1.69023">
        <ele>50.4</ele>
        <time>2020-06-22T20:20:36Z</time>
      </trkpt>
      <trkpt lat="50.86053" lon="1.69029">
        <ele>50.5</ele>
        <time>2020-06-22T20:20:37Z</time>
      </trkpt>
      <trkpt lat="50.86056" lon="1.69035">
        <ele>50.6</ele>
        <time>2020-06-22T20:20:38Z</time>
      </trkpt>
      <trkpt lat="50.86059" lon="1.6904">
        <ele>50.8</ele>
        <time>2020-06-22T20:20:39Z</time>
      </trkpt>
      <trkpt lat="50.86063" lon="1.69045">
        <ele>50.9</ele>
        <time>2020-06-22T20:20:40Z</time>
      </trkpt>
      <trkpt lat="50.86066" lon="1.69051">
        <ele>51.1</ele>
        <time>2020-06-22T20:20:41Z</time>
      </trkpt>
      <trkpt lat="50.86069" lon="1.69056">
        <ele>51.3</ele>
        <time>2020-06-22T20:20:42Z</time>
      </trkpt>
      <trkpt lat="50.86072" lon="1.69061">
        <ele>51.5</ele>
        <time>2020-06-22T20:20:43Z</time>
      </trkpt>
      <trkpt lat="50.86075" lon="1.69068">
        <ele>51.7</ele>
        <time>2020-06-22T20:20:44Z</time>
      </trkpt>
      <trkpt lat="50.86078" lon="1.69073">
        <ele>51.9</ele>
        <time>2020-06-22T20:20:45Z</time>
      </trkpt>
      <trkpt lat="50.86082" lon="1.69078">
        <ele>52.1</ele>
        <time>2020-06-22T20:20:46Z</time>
      </trkpt>
      <trkpt lat="50.86085" lon="1.69084">
        <ele>52.3</ele>
        <time>2020-06-22T20:20:47Z</time>
      </trkpt>
      <trkpt lat="50.86088" lon="1.69088">
        <ele>52.5</ele>
        <time>2020-06-22T20:20:48Z</time>
      </trkpt>
      <trkpt lat="50.86091" lon="1.69094">
        <ele>52.7</ele>
        <time>2020-06-22T20:20:49Z</time>
      </trkpt>
      <trkpt lat="50.86094" lon="1.69099">
        <ele>52.9</ele>
        <time>2020-06-22T20:20:50Z</time>
      </trkpt>
      <trkpt lat="50.86096" lon="1.69105">
        <ele>53.1</ele>
        <time>2020-06-22T20:20:51Z</time>
      </trkpt>
      <trkpt lat="50.86099" lon="1.69109">
        <ele>53.3</ele>
        <time>2020-06-22T20:20:52Z</time>
      </trkpt>
      <trkpt lat="50.86101" lon="1.69115">
        <ele>53.5</ele>
        <time>2020-06-22T20:20:53Z</time>
      </trkpt>
      <trkpt lat="50.86104" lon="1.69122">
        <ele>53.8</ele>
        <time>2020-06-22T20:20:54Z</time>
      </trkpt>
      <trkpt lat="50.86106" lon="1.69128">
        <ele>54</ele>
        <time>2020-06-22T20:20:55Z</time>
      </trkpt>
      <trkpt lat="50.86108" lon="1.69134">
        <ele>54.3</ele>
        <time>2020-06-22T20:20:56Z</time>
      </trkpt>
      <trkpt lat="50.86112" lon="1.69141">
        <ele>54.7</ele>
        <time>2020-06-22T20:20:57Z</time>
      </trkpt>
      <trkpt lat="50.86115" lon="1.69149">
        <ele>55.1</ele>
        <time>2020-06-22T20:20:58Z</time>
      </trkpt>
      <trkpt lat="50.86118" lon="1.69157">
        <ele>55.5</ele>
        <time>2020-06-22T20:20:59Z</time>
      </trkpt>
      <trkpt lat="50.8612" lon="1.69165">
        <ele>55.9</ele>
        <time>2020-06-22T20:21:00Z</time>
      </trkpt>
      <trkpt lat="50.86122" lon="1.69173">
        <ele>56.4</ele>
        <time>2020-06-22T20:21:01Z</time>
      </trkpt>
      <trkpt lat="50.86125" lon="1.69181">
        <ele>57</ele>
        <time>2020-06-22T20:21:02Z</time>
      </trkpt>
      <trkpt lat="50.86126" lon="1.69187">
        <ele>57.5</ele>
        <time>2020-06-22T20:21:03Z</time>
      </trkpt>
      <trkpt lat="50.86127" lon="1.69193">
        <ele>58</ele>
        <time>2020-06-22T20:21:04Z</time>
      </trkpt>
      <trkpt lat="50.86126" lon="1.69199">
        <ele>58.3</ele>
        <time>2020-06-22T20:21:05Z</time>
      </trkpt>
      <trkpt lat="50.86126" lon="1.69204">
        <ele>58.7</ele>
        <time>2020-06-22T20:21:06Z</time>
      </trkpt>
      <trkpt lat="50.86125" lon="1.6921">
        <ele>59.2</ele>
        <time>2020-06-22T20:21:07Z</time>
      </trkpt>
      <trkpt lat="50.86125" lon="1.69213">
        <ele>59.3</ele>
        <time>2020-06-22T20:21:08Z</time>
      </trkpt>
      <trkpt lat="50.86125" lon="1.69217">
        <ele>59.7</ele>
        <time>2020-06-22T20:21:09Z</time>
      </trkpt>
      <trkpt lat="50.86125" lon="1.69223">
        <ele>60.1</ele>
        <time>2020-06-22T20:21:10Z</time>
      </trkpt>
      <trkpt lat="50.86126" lon="1.69225">
        <ele>60.3</ele>
        <time>2020-06-22T20:21:11Z</time>
      </trkpt>
      <trkpt lat="50.86126" lon="1.6923">
        <ele>60.8</ele>
        <time>2020-06-22T20:21:12Z</time>
      </trkpt>
      <trkpt lat="50.86127" lon="1.69234">
        <ele>60.9</ele>
        <time>2020-06-22T20:21:13Z</time>
      </trkpt>
      <trkpt lat="50.86126" lon="1.69239">
        <ele>61</ele>
        <time>2020-06-22T20:21:14Z</time>
      </trkpt>
      <trkpt lat="50.86126" lon="1.69244">
        <ele>61.1</ele>
        <time>2020-06-22T20:21:15Z</time>
      </trkpt>
      <trkpt lat="50.86125" lon="1.6925">
        <ele>61.2</ele>
        <time>2020-06-22T20:21:16Z</time>
      </trkpt>
      <trkpt lat="50.86126" lon="1.69256">
        <ele>61.3</ele>
        <time>2020-06-22T20:21:17Z</time>
      </trkpt>
      <trkpt lat="50.86126" lon="1.69259">
        <ele>61.4</ele>
        <time>2020-06-22T20:21:18Z</time>
      </trkpt>
      <trkpt lat="50.86125" lon="1.69264">
        <ele>61.9</ele>
        <time>2020-06-22T20:21:19Z</time>
      </trkpt>
      <trkpt lat="50.86124" lon="1.6927">
        <ele>62.2</ele>
        <time>2020-06-22T20:21:20Z</time>
      </trkpt>
      <trkpt lat="50.86124" lon="1.69275">
        <ele>62.5</ele>
        <time>2020-06-22T20:21:21Z</time>
      </trkpt>
      <trkpt lat="50.86125" lon="1.6928">
        <ele>62.7</ele>
        <time>2020-06-22T20:21:22Z</time>
      </trkpt>
      <trkpt lat="50.86125" lon="1.69284">
        <ele>63</ele>
        <time>2020-06-22T20:21:23Z</time>
      </trkpt>
      <trkpt lat="50.86125" lon="1.69291">
        <ele>63.3</ele>
        <time>2020-06-22T20:21:24Z</time>
      </trkpt>
      <trkpt lat="50.86125" lon="1.69296">
        <ele>63.6</ele>
        <time>2020-06-22T20:21:25Z</time>
      </trkpt>
      <trkpt lat="50.86125" lon="1.69298">
        <ele>63.6</ele>
        <time>2020-06-22T20:21:26Z</time>
      </trkpt>
      <trkpt lat="50.86126" lon="1.693">
        <ele>64.2</ele>
        <time>2020-06-22T20:21:27Z</time>
      </trkpt>
      <trkpt lat="50.86128" lon="1.69302">
        <ele>64.3</ele>
        <time>2020-06-22T20:21:28Z</time>
      </trkpt>
      <trkpt lat="50.86129" lon="1.69307">
        <ele>64.3</ele>
        <time>2020-06-22T20:21:29Z</time>
      </trkpt>
      <trkpt lat="50.86129" lon="1.69309">
        <ele>64.3</ele>
        <time>2020-06-22T20:21:30Z</time>
      </trkpt>
      <trkpt lat="50.8613" lon="1.69315">
        <ele>64.5</ele>
        <time>2020-06-22T20:21:31Z</time>
      </trkpt>
      <trkpt lat="50.8613" lon="1.69317">
        <ele>64.6</ele>
        <time>2020-06-22T20:21:32Z</time>
      </trkpt>
      <trkpt lat="50.86132" lon="1.69322">
        <ele>64.8</ele>
        <time>2020-06-22T20:21:33Z</time>
      </trkpt>
      <trkpt lat="50.86133" lon="1.69326">
        <ele>65</ele>
        <time>2020-06-22T20:21:34Z</time>
      </trkpt>
      <trkpt lat="50.86136" lon="1.69331">
        <ele>65.2</ele>
        <time>2020-06-22T20:21:35Z</time>
      </trkpt>
      <trkpt lat="50.86137" lon="1.69335">
        <ele>65.4</ele>
        <time>2020-06-22T20:21:36Z</time>
      </trkpt>
      <trkpt lat="50.8614" lon="1.69339">
        <ele>65.6</ele>
        <time>2020-06-22T20:21:37Z</time>
      </trkpt>
      <trkpt lat="50.86142" lon="1.69342">
        <ele>65.8</ele>
        <time>2020-06-22T20:21:38Z</time>
      </trkpt>
      <trkpt lat="50.86146" lon="1.69347">
        <ele>66.1</ele>
        <time>2020-06-22T20:21:39Z</time>
      </trkpt>
      <trkpt lat="50.86148" lon="1.6935">
        <ele>66.2</ele>
        <time>2020-06-22T20:21:40Z</time>
      </trkpt>
      <trkpt lat="50.8615" lon="1.69353">
        <ele>66.4</ele>
        <time>2020-06-22T20:21:41Z</time>
      </trkpt>
      <trkpt lat="50.86153" lon="1.69358">
        <ele>66.5</ele>
        <time>2020-06-22T20:21:42Z</time>
      </trkpt>
      <trkpt lat="50.86153" lon="1.69359">
        <ele>66.6</ele>
        <time>2020-06-22T20:21:43Z</time>
      </trkpt>
      <trkpt lat="50.86156" lon="1.69365">
        <ele>66.8</ele>
        <time>2020-06-22T20:21:44Z</time>
      </trkpt>
      <trkpt lat="50.86156" lon="1.69367">
        <ele>66.9</ele>
        <time>2020-06-22T20:21:45Z</time>
      </trkpt>
      <trkpt lat="50.86158" lon="1.6937">
        <ele>67</ele>
        <time>2020-06-22T20:21:46Z</time>
      </trkpt>
      <trkpt lat="50.86161" lon="1.69375">
        <ele>67.1</ele>
        <time>2020-06-22T20:21:47Z</time>
      </trkpt>
      <trkpt lat="50.86162" lon="1.69376">
        <ele>67.2</ele>
        <time>2020-06-22T20:21:48Z</time>
      </trkpt>
      <trkpt lat="50.86165" lon="1.69379">
        <ele>67.3</ele>
        <time>2020-06-22T20:21:49Z</time>
      </trkpt>
      <trkpt lat="50.86166" lon="1.6938">
        <ele>67.4</ele>
        <time>2020-06-22T20:21:50Z</time>
      </trkpt>
      <trkpt lat="50.86169" lon="1.69384">
        <ele>67.5</ele>
        <time>2020-06-22T20:21:51Z</time>
      </trkpt>
      <trkpt lat="50.86169" lon="1.69384">
        <ele>67.6</ele>
        <time>2020-06-22T20:21:52Z</time>
      </trkpt>
      <trkpt lat="50.86171" lon="1.69386">
        <ele>67.6</ele>
        <time>2020-06-22T20:21:53Z</time>
      </trkpt>
      <trkpt lat="50.86173" lon="1.69387">
        <ele>67.7</ele>
        <time>2020-06-22T20:21:54Z</time>
      </trkpt>
      <trkpt lat="50.86175" lon="1.69389">
        <ele>67.8</ele>
        <time>2020-06-22T20:21:55Z</time>
      </trkpt>
      <trkpt lat="50.86176" lon="1.6939">
        <ele>67.8</ele>
        <time>2020-06-22T20:21:56Z</time>
      </trkpt>
      <trkpt lat="50.86179" lon="1.69393">
        <ele>67.9</ele>
        <time>2020-06-22T20:21:57Z</time>
      </trkpt>
      <trkpt lat="50.8618" lon="1.69394">
        <ele>68</ele>
        <time>2020-06-22T20:21:58Z</time>
      </trkpt>
      <trkpt lat="50.86182" lon="1.69397">
        <ele>68.1</ele>
        <time>2020-06-22T20:21:59Z</time>
      </trkpt>
      <trkpt lat="50.86185" lon="1.694">
        <ele>68.1</ele>
        <time>2020-06-22T20:22:00Z</time>
      </trkpt>
      <trkpt lat="50.86188" lon="1.69403">
        <ele>68.2</ele>
        <time>2020-06-22T20:22:01Z</time>
      </trkpt>
      <trkpt lat="50.86191" lon="1.69406">
        <ele>68.3</ele>
        <time>2020-06-22T20:22:02Z</time>
      </trkpt>
      <trkpt lat="50.86194" lon="1.69409">
        <ele>68.4</ele>
        <time>2020-06-22T20:22:03Z</time>
      </trkpt>
      <trkpt lat="50.86197" lon="1.69412">
        <ele>68.5</ele>
        <time>2020-06-22T20:22:04Z</time>
      </trkpt>
      <trkpt lat="50.862" lon="1.69416">
        <ele>68.5</ele>
        <time>2020-06-22T20:22:05Z</time>
      </trkpt>
      <trkpt lat="50.86202" lon="1.69419">
        <ele>68.6</ele>
        <time>2020-06-22T20:22:06Z</time>
      </trkpt>
      <trkpt lat="50.86204" lon="1.69423">
        <ele>68.7</ele>
        <time>2020-06-22T20:22:07Z</time>
      </trkpt>
      <trkpt lat="50.86207" lon="1.69426">
        <ele>68.8</ele>
        <time>2020-06-22T20:22:08Z</time>
      </trkpt>
      <trkpt lat="50.86209" lon="1.69432">
        <ele>68.9</ele>
        <time>2020-06-22T20:22:09Z</time>
      </trkpt>
      <trkpt lat="50.86211" lon="1.69437">
        <ele>68.9</ele>
        <time>2020-06-22T20:22:10Z</time>
      </trkpt>
      <trkpt lat="50.86214" lon="1.69443">
        <ele>69</ele>
        <time>2020-06-22T20:22:11Z</time>
      </trkpt>
      <trkpt lat="50.86217" lon="1.69449">
        <ele>69.1</ele>
        <time>2020-06-22T20:22:12Z</time>
      </trkpt>
      <trkpt lat="50.86219" lon="1.69454">
        <ele>69.2</ele>
        <time>2020-06-22T20:22:13Z</time>
      </trkpt>
      <trkpt lat="50.86221" lon="1.69458">
        <ele>69.2</ele>
        <time>2020-06-22T20:22:14Z</time>
      </trkpt>
      <trkpt lat="50.86224" lon="1.69462">
        <ele>69.2</ele>
        <time>2020-06-22T20:22:15Z</time>
      </trkpt>
      <trkpt lat="50.86226" lon="1.69466">
        <ele>69.2</ele>
        <time>2020-06-22T20:22:16Z</time>
      </trkpt>
      <trkpt lat="50.86228" lon="1.69471">
        <ele>69.2</ele>
        <time>2020-06-22T20:22:17Z</time>
      </trkpt>
      <trkpt lat="50.86229" lon="1.69476">
        <ele>69.2</ele>
        <time>2020-06-22T20:22:18Z</time>
      </trkpt>
      <trkpt lat="50.8623" lon="1.69481">
        <ele>69.2</ele>
        <time>2020-06-22T20:22:19Z</time>
      </trkpt>
      <trkpt lat="50.86231" lon="1.69486">
        <ele>69.1</ele>
        <time>2020-06-22T20:22:20Z</time>
      </trkpt>
      <trkpt lat="50.86233" lon="1.69491">
        <ele>69.1</ele>
        <time>2020-06-22T20:22:21Z</time>
      </trkpt>
      <trkpt lat="50.86234" lon="1.69497">
        <ele>69</ele>
        <time>2020-06-22T20:22:22Z</time>
      </trkpt>
      <trkpt lat="50.86235" lon="1.69503">
        <ele>68.9</ele>
        <time>2020-06-22T20:22:23Z</time>
      </trkpt>
      <trkpt lat="50.86237" lon="1.69508">
        <ele>68.8</ele>
        <time>2020-06-22T20:22:24Z</time>
      </trkpt>
      <trkpt lat="50.86238" lon="1.69514">
        <ele>68.7</ele>
        <time>2020-06-22T20:22:25Z</time>
      </trkpt>
      <trkpt lat="50.8624" lon="1.6952">
        <ele>68.6</ele>
        <time>2020-06-22T20:22:26Z</time>
      </trkpt>
      <trkpt lat="50.86241" lon="1.69527">
        <ele>68.4</ele>
        <time>2020-06-22T20:22:27Z</time>
      </trkpt>
      <trkpt lat="50.86243" lon="1.69534">
        <ele>68.3</ele>
        <time>2020-06-22T20:22:28Z</time>
      </trkpt>
      <trkpt lat="50.86245" lon="1.69541">
        <ele>68.1</ele>
        <time>2020-06-22T20:22:29Z</time>
      </trkpt>
      <trkpt lat="50.86247" lon="1.69548">
        <ele>67.8</ele>
        <time>2020-06-22T20:22:30Z</time>
      </trkpt>
      <trkpt lat="50.86248" lon="1.69555">
        <ele>67.5</ele>
        <time>2020-06-22T20:22:31Z</time>
      </trkpt>
      <trkpt lat="50.8625" lon="1.69563">
        <ele>67.3</ele>
        <time>2020-06-22T20:22:32Z</time>
      </trkpt>
      <trkpt lat="50.86251" lon="1.6957">
        <ele>67.2</ele>
        <time>2020-06-22T20:22:33Z</time>
      </trkpt>
      <trkpt lat="50.86251" lon="1.69577">
        <ele>67.1</ele>
        <time>2020-06-22T20:22:34Z</time>
      </trkpt>
      <trkpt lat="50.86251" lon="1.69585">
        <ele>67</ele>
        <time>2020-06-22T20:22:35Z</time>
      </trkpt>
      <trkpt lat="50.86251" lon="1.69593">
        <ele>66.9</ele>
        <time>2020-06-22T20:22:36Z</time>
      </trkpt>
      <trkpt lat="50.86251" lon="1.69602">
        <ele>66.7</ele>
        <time>2020-06-22T20:22:37Z</time>
      </trkpt>
      <trkpt lat="50.86251" lon="1.69611">
        <ele>66.5</ele>
        <time>2020-06-22T20:22:38Z</time>
      </trkpt>
      <trkpt lat="50.8625" lon="1.69621">
        <ele>66.4</ele>
        <time>2020-06-22T20:22:39Z</time>
      </trkpt>
      <trkpt lat="50.8625" lon="1.6963">
        <ele>66.4</ele>
        <time>2020-06-22T20:22:40Z</time>
      </trkpt>
      <trkpt lat="50.8625" lon="1.69639">
        <ele>66.3</ele>
        <time>2020-06-22T20:22:41Z</time>
      </trkpt>
      <trkpt lat="50.86249" lon="1.69647">
        <ele>66.1</ele>
        <time>2020-06-22T20:22:42Z</time>
      </trkpt>
      <trkpt lat="50.86249" lon="1.69656">
        <ele>65.9</ele>
        <time>2020-06-22T20:22:43Z</time>
      </trkpt>
      <trkpt lat="50.86249" lon="1.69666">
        <ele>65.7</ele>
        <time>2020-06-22T20:22:44Z</time>
      </trkpt>
      <trkpt lat="50.8625" lon="1.69675">
        <ele>65.5</ele>
        <time>2020-06-22T20:22:45Z</time>
      </trkpt>
      <trkpt lat="50.8625" lon="1.69684">
        <ele>65.3</ele>
        <time>2020-06-22T20:22:46Z</time>
      </trkpt>
      <trkpt lat="50.86251" lon="1.69693">
        <ele>65.2</ele>
        <time>2020-06-22T20:22:47Z</time>
      </trkpt>
      <trkpt lat="50.86252" lon="1.69703">
        <ele>65.1</ele>
        <time>2020-06-22T20:22:48Z</time>
      </trkpt>
      <trkpt lat="50.86252" lon="1.69712">
        <ele>65</ele>
        <time>2020-06-22T20:22:49Z</time>
      </trkpt>
      <trkpt lat="50.86253" lon="1.69722">
        <ele>64.9</ele>
        <time>2020-06-22T20:22:50Z</time>
      </trkpt>
      <trkpt lat="50.86253" lon="1.69732">
        <ele>64.8</ele>
        <time>2020-06-22T20:22:51Z</time>
      </trkpt>
      <trkpt lat="50.86254" lon="1.69741">
        <ele>64.8</ele>
        <time>2020-06-22T20:22:52Z</time>
      </trkpt>
      <trkpt lat="50.86254" lon="1.6975">
        <ele>64.7</ele>
        <time>2020-06-22T20:22:53Z</time>
      </trkpt>
      <trkpt lat="50.86254" lon="1.69758">
        <ele>64.7</ele>
        <time>2020-06-22T20:22:54Z</time>
      </trkpt>
      <trkpt lat="50.86255" lon="1.69767">
        <ele>64.7</ele>
        <time>2020-06-22T20:22:55Z</time>
      </trkpt>
      <trkpt lat="50.86255" lon="1.69774">
        <ele>64.7</ele>
        <time>2020-06-22T20:22:56Z</time>
      </trkpt>
      <trkpt lat="50.86254" lon="1.69781">
        <ele>64.7</ele>
        <time>2020-06-22T20:22:57Z</time>
      </trkpt>
      <trkpt lat="50.86252" lon="1.69788">
        <ele>64.7</ele>
        <time>2020-06-22T20:22:58Z</time>
      </trkpt>
      <trkpt lat="50.86251" lon="1.69796">
        <ele>64.7</ele>
        <time>2020-06-22T20:22:59Z</time>
      </trkpt>
      <trkpt lat="50.86252" lon="1.69803">
        <ele>64.7</ele>
        <time>2020-06-22T20:23:00Z</time>
      </trkpt>
      <trkpt lat="50.86252" lon="1.69811">
        <ele>64.7</ele>
        <time>2020-06-22T20:23:01Z</time>
      </trkpt>
      <trkpt lat="50.86252" lon="1.6982">
        <ele>64.7</ele>
        <time>2020-06-22T20:23:02Z</time>
      </trkpt>
      <trkpt lat="50.86253" lon="1.69829">
        <ele>64.7</ele>
        <time>2020-06-22T20:23:03Z</time>
      </trkpt>
      <trkpt lat="50.86254" lon="1.69836">
        <ele>64.8</ele>
        <time>2020-06-22T20:23:04Z</time>
      </trkpt>
      <trkpt lat="50.86255" lon="1.69843">
        <ele>64.8</ele>
        <time>2020-06-22T20:23:05Z</time>
      </trkpt>
      <trkpt lat="50.86256" lon="1.69851">
        <ele>64.8</ele>
        <time>2020-06-22T20:23:06Z</time>
      </trkpt>
      <trkpt lat="50.86258" lon="1.69856">
        <ele>64.9</ele>
        <time>2020-06-22T20:23:07Z</time>
      </trkpt>
      <trkpt lat="50.86258" lon="1.69863">
        <ele>64.9</ele>
        <time>2020-06-22T20:23:08Z</time>
      </trkpt>
      <trkpt lat="50.8626" lon="1.6987">
        <ele>65</ele>
        <time>2020-06-22T20:23:09Z</time>
      </trkpt>
      <trkpt lat="50.86261" lon="1.69878">
        <ele>65.1</ele>
        <time>2020-06-22T20:23:10Z</time>
      </trkpt>
      <trkpt lat="50.86262" lon="1.69887">
        <ele>65.2</ele>
        <time>2020-06-22T20:23:11Z</time>
      </trkpt>
      <trkpt lat="50.86263" lon="1.69895">
        <ele>65.3</ele>
        <time>2020-06-22T20:23:12Z</time>
      </trkpt>
      <trkpt lat="50.86265" lon="1.69903">
        <ele>65.4</ele>
        <time>2020-06-22T20:23:13Z</time>
      </trkpt>
      <trkpt lat="50.86266" lon="1.69911">
        <ele>65.5</ele>
        <time>2020-06-22T20:23:14Z</time>
      </trkpt>
      <trkpt lat="50.86267" lon="1.6992">
        <ele>65.6</ele>
        <time>2020-06-22T20:23:15Z</time>
      </trkpt>
      <trkpt lat="50.86267" lon="1.69927">
        <ele>65.7</ele>
        <time>2020-06-22T20:23:16Z</time>
      </trkpt>
      <trkpt lat="50.86267" lon="1.69934">
        <ele>65.8</ele>
        <time>2020-06-22T20:23:17Z</time>
      </trkpt>
      <trkpt lat="50.86268" lon="1.69942">
        <ele>65.9</ele>
        <time>2020-06-22T20:23:18Z</time>
      </trkpt>
      <trkpt lat="50.86269" lon="1.6995">
        <ele>66</ele>
        <time>2020-06-22T20:23:19Z</time>
      </trkpt>
      <trkpt lat="50.8627" lon="1.69957">
        <ele>66.1</ele>
        <time>2020-06-22T20:23:20Z</time>
      </trkpt>
      <trkpt lat="50.8627" lon="1.69965">
        <ele>66.2</ele>
        <time>2020-06-22T20:23:21Z</time>
      </trkpt>
      <trkpt lat="50.86271" lon="1.69972">
        <ele>66.4</ele>
        <time>2020-06-22T20:23:22Z</time>
      </trkpt>
      <trkpt lat="50.86271" lon="1.6998">
        <ele>66.5</ele>
        <time>2020-06-22T20:23:23Z</time>
      </trkpt>
      <trkpt lat="50.86272" lon="1.69987">
        <ele>66.7</ele>
        <time>2020-06-22T20:23:24Z</time>
      </trkpt>
      <trkpt lat="50.86272" lon="1.69994">
        <ele>66.9</ele>
        <time>2020-06-22T20:23:25Z</time>
      </trkpt>
      <trkpt lat="50.86273" lon="1.70001">
        <ele>67</ele>
        <time>2020-06-22T20:23:26Z</time>
      </trkpt>
      <trkpt lat="50.86274" lon="1.70008">
        <ele>67.1</ele>
        <time>2020-06-22T20:23:27Z</time>
      </trkpt>
      <trkpt lat="50.86275" lon="1.70015">
        <ele>67.3</ele>
        <time>2020-06-22T20:23:28Z</time>
      </trkpt>
      <trkpt lat="50.86276" lon="1.70022">
        <ele>67.4</ele>
        <time>2020-06-22T20:23:29Z</time>
      </trkpt>
      <trkpt lat="50.86277" lon="1.70029">
        <ele>67.6</ele>
        <time>2020-06-22T20:23:30Z</time>
      </trkpt>
      <trkpt lat="50.86278" lon="1.70035">
        <ele>67.8</ele>
        <time>2020-06-22T20:23:31Z</time>
      </trkpt>
      <trkpt lat="50.8628" lon="1.70042">
        <ele>67.9</ele>
        <time>2020-06-22T20:23:32Z</time>
      </trkpt>
      <trkpt lat="50.8628" lon="1.70048">
        <ele>68.1</ele>
        <time>2020-06-22T20:23:33Z</time>
      </trkpt>
      <trkpt lat="50.86281" lon="1.70054">
        <ele>68.3</ele>
        <time>2020-06-22T20:23:34Z</time>
      </trkpt>
      <trkpt lat="50.8628" lon="1.70062">
        <ele>68.5</ele>
        <time>2020-06-22T20:23:35Z</time>
      </trkpt>
      <trkpt lat="50.8628" lon="1.70068">
        <ele>68.6</ele>
        <time>2020-06-22T20:23:36Z</time>
      </trkpt>
      <trkpt lat="50.8628" lon="1.70074">
        <ele>68.8</ele>
        <time>2020-06-22T20:23:37Z</time>
      </trkpt>
      <trkpt lat="50.86281" lon="1.7008">
        <ele>69</ele>
        <time>2020-06-22T20:23:38Z</time>
      </trkpt>
      <trkpt lat="50.86281" lon="1.70087">
        <ele>69.2</ele>
        <time>2020-06-22T20:23:39Z</time>
      </trkpt>
      <trkpt lat="50.86281" lon="1.70093">
        <ele>69.4</ele>
        <time>2020-06-22T20:23:40Z</time>
      </trkpt>
      <trkpt lat="50.86282" lon="1.70099">
        <ele>69.6</ele>
        <time>2020-06-22T20:23:41Z</time>
      </trkpt>
      <trkpt lat="50.86282" lon="1.70104">
        <ele>69.8</ele>
        <time>2020-06-22T20:23:42Z</time>
      </trkpt>
      <trkpt lat="50.86282" lon="1.70109">
        <ele>70.1</ele>
        <time>2020-06-22T20:23:43Z</time>
      </trkpt>
      <trkpt lat="50.86281" lon="1.70115">
        <ele>70.3</ele>
        <time>2020-06-22T20:23:44Z</time>
      </trkpt>
      <trkpt lat="50.86281" lon="1.70121">
        <ele>70.5</ele>
        <time>2020-06-22T20:23:45Z</time>
      </trkpt>
      <trkpt lat="50.86281" lon="1.70126">
        <ele>70.8</ele>
        <time>2020-06-22T20:23:46Z</time>
      </trkpt>
      <trkpt lat="50.86281" lon="1.70132">
        <ele>71.1</ele>
        <time>2020-06-22T20:23:47Z</time>
      </trkpt>
      <trkpt lat="50.86281" lon="1.70137">
        <ele>71.3</ele>
        <time>2020-06-22T20:23:48Z</time>
      </trkpt>
      <trkpt lat="50.86281" lon="1.70141">
        <ele>71.5</ele>
        <time>2020-06-22T20:23:49Z</time>
      </trkpt>
      <trkpt lat="50.86282" lon="1.70147">
        <ele>71.8</ele>
        <time>2020-06-22T20:23:50Z</time>
      </trkpt>
      <trkpt lat="50.86282" lon="1.70149">
        <ele>71.8</ele>
        <time>2020-06-22T20:23:51Z</time>
      </trkpt>
      <trkpt lat="50.86283" lon="1.70154">
        <ele>72</ele>
        <time>2020-06-22T20:23:52Z</time>
      </trkpt>
      <trkpt lat="50.86284" lon="1.70159">
        <ele>72.3</ele>
        <time>2020-06-22T20:23:53Z</time>
      </trkpt>
      <trkpt lat="50.86284" lon="1.70161">
        <ele>72.4</ele>
        <time>2020-06-22T20:23:54Z</time>
      </trkpt>
      <trkpt lat="50.86285" lon="1.70167">
        <ele>72.7</ele>
        <time>2020-06-22T20:23:55Z</time>
      </trkpt>
      <trkpt lat="50.86285" lon="1.70169">
        <ele>72.8</ele>
        <time>2020-06-22T20:23:56Z</time>
      </trkpt>
      <trkpt lat="50.86285" lon="1.70174">
        <ele>73</ele>
        <time>2020-06-22T20:23:57Z</time>
      </trkpt>
      <trkpt lat="50.86285" lon="1.70175">
        <ele>73.1</ele>
        <time>2020-06-22T20:23:58Z</time>
      </trkpt>
      <trkpt lat="50.86286" lon="1.70178">
        <ele>73.2</ele>
        <time>2020-06-22T20:23:59Z</time>
      </trkpt>
      <trkpt lat="50.86286" lon="1.7018">
        <ele>73.3</ele>
        <time>2020-06-22T20:24:00Z</time>
      </trkpt>
      <trkpt lat="50.86286" lon="1.70183">
        <ele>73.5</ele>
        <time>2020-06-22T20:24:01Z</time>
      </trkpt>
      <trkpt lat="50.86286" lon="1.70185">
        <ele>73.6</ele>
        <time>2020-06-22T20:24:02Z</time>
      </trkpt>
      <trkpt lat="50.86286" lon="1.70188">
        <ele>73.7</ele>
        <time>2020-06-22T20:24:03Z</time>
      </trkpt>
      <trkpt lat="50.86286" lon="1.7019">
        <ele>73.8</ele>
        <time>2020-06-22T20:24:04Z</time>
      </trkpt>
      <trkpt lat="50.86285" lon="1.70191">
        <ele>73.9</ele>
        <time>2020-06-22T20:24:05Z</time>
      </trkpt>
      <trkpt lat="50.86284" lon="1.70194">
        <ele>74.1</ele>
        <time>2020-06-22T20:24:06Z</time>
      </trkpt>
      <trkpt lat="50.86284" lon="1.70195">
        <ele>74.2</ele>
        <time>2020-06-22T20:24:07Z</time>
      </trkpt>
      <trkpt lat="50.86283" lon="1.70196">
        <ele>74.3</ele>
        <time>2020-06-22T20:24:08Z</time>
      </trkpt>
      <trkpt lat="50.86282" lon="1.702">
        <ele>74.5</ele>
        <time>2020-06-22T20:24:09Z</time>
      </trkpt>
      <trkpt lat="50.86281" lon="1.70201">
        <ele>74.6</ele>
        <time>2020-06-22T20:24:10Z</time>
      </trkpt>
      <trkpt lat="50.8628" lon="1.70204">
        <ele>74.8</ele>
        <time>2020-06-22T20:24:11Z</time>
      </trkpt>
      <trkpt lat="50.86279" lon="1.70206">
        <ele>74.9</ele>
        <time>2020-06-22T20:24:12Z</time>
      </trkpt>
      <trkpt lat="50.86278" lon="1.70208">
        <ele>75.1</ele>
        <time>2020-06-22T20:24:13Z</time>
      </trkpt>
      <trkpt lat="50.86277" lon="1.7021">
        <ele>75.2</ele>
        <time>2020-06-22T20:24:14Z</time>
      </trkpt>
      <trkpt lat="50.86277" lon="1.70211">
        <ele>75.3</ele>
        <time>2020-06-22T20:24:15Z</time>
      </trkpt>
      <trkpt lat="50.86277" lon="1.70214">
        <ele>75.4</ele>
        <time>2020-06-22T20:24:16Z</time>
      </trkpt>
      <trkpt lat="50.86278" lon="1.70215">
        <ele>75.5</ele>
        <time>2020-06-22T20:24:17Z</time>
      </trkpt>
      <trkpt lat="50.86279" lon="1.70216">
        <ele>76.3</ele>
        <time>2020-06-22T20:24:18Z</time>
      </trkpt>
      <trkpt lat="50.86281" lon="1.70222">
        <ele>76.6</ele>
        <time>2020-06-22T20:24:19Z</time>
      </trkpt>
      <trkpt lat="50.86281" lon="1.70225">
        <ele>76.6</ele>
        <time>2020-06-22T20:24:20Z</time>
      </trkpt>
      <trkpt lat="50.86282" lon="1.70229">
        <ele>76.8</ele>
        <time>2020-06-22T20:24:21Z</time>
      </trkpt>
      <trkpt lat="50.86283" lon="1.70234">
        <ele>77</ele>
        <time>2020-06-22T20:24:22Z</time>
      </trkpt>
      <trkpt lat="50.86283" lon="1.70236">
        <ele>77</ele>
        <time>2020-06-22T20:24:23Z</time>
      </trkpt>
      <trkpt lat="50.86285" lon="1.70241">
        <ele>77.2</ele>
        <time>2020-06-22T20:24:24Z</time>
      </trkpt>
      <trkpt lat="50.86285" lon="1.70242">
        <ele>77.3</ele>
        <time>2020-06-22T20:24:25Z</time>
      </trkpt>
      <trkpt lat="50.86286" lon="1.70244">
        <ele>77.3</ele>
        <time>2020-06-22T20:24:26Z</time>
      </trkpt>
      <trkpt lat="50.86287" lon="1.70247">
        <ele>77.4</ele>
        <time>2020-06-22T20:24:27Z</time>
      </trkpt>
      <trkpt lat="50.8629" lon="1.70249">
        <ele>77.5</ele>
        <time>2020-06-22T20:24:28Z</time>
      </trkpt>
      <trkpt lat="50.86291" lon="1.70249">
        <ele>77.6</ele>
        <time>2020-06-22T20:24:29Z</time>
      </trkpt>
      <trkpt lat="50.86293" lon="1.70252">
        <ele>77.7</ele>
        <time>2020-06-22T20:24:30Z</time>
      </trkpt>
      <trkpt lat="50.86295" lon="1.70256">
        <ele>77.8</ele>
        <time>2020-06-22T20:24:31Z</time>
      </trkpt>
      <trkpt lat="50.86299" lon="1.70259">
        <ele>78</ele>
        <time>2020-06-22T20:24:32Z</time>
      </trkpt>
      <trkpt lat="50.863" lon="1.7026">
        <ele>78.1</ele>
        <time>2020-06-22T20:24:33Z</time>
      </trkpt>
      <trkpt lat="50.86302" lon="1.70262">
        <ele>78.2</ele>
        <time>2020-06-22T20:24:34Z</time>
      </trkpt>
      <trkpt lat="50.86305" lon="1.70265">
        <ele>78.3</ele>
        <time>2020-06-22T20:24:35Z</time>
      </trkpt>
      <trkpt lat="50.86307" lon="1.70268">
        <ele>78.5</ele>
        <time>2020-06-22T20:24:36Z</time>
      </trkpt>
      <trkpt lat="50.8631" lon="1.70271">
        <ele>78.6</ele>
        <time>2020-06-22T20:24:37Z</time>
      </trkpt>
      <trkpt lat="50.86313" lon="1.70276">
        <ele>78.8</ele>
        <time>2020-06-22T20:24:38Z</time>
      </trkpt>
      <trkpt lat="50.86315" lon="1.70279">
        <ele>78.9</ele>
        <time>2020-06-22T20:24:39Z</time>
      </trkpt>
      <trkpt lat="50.86317" lon="1.70283">
        <ele>79.1</ele>
        <time>2020-06-22T20:24:40Z</time>
      </trkpt>
      <trkpt lat="50.8632" lon="1.70287">
        <ele>79.3</ele>
        <time>2020-06-22T20:24:41Z</time>
      </trkpt>
      <trkpt lat="50.86322" lon="1.7029">
        <ele>79.4</ele>
        <time>2020-06-22T20:24:42Z</time>
      </trkpt>
      <trkpt lat="50.86325" lon="1.70293">
        <ele>79.5</ele>
        <time>2020-06-22T20:24:43Z</time>
      </trkpt>
      <trkpt lat="50.86327" lon="1.70297">
        <ele>79.7</ele>
        <time>2020-06-22T20:24:44Z</time>
      </trkpt>
      <trkpt lat="50.86328" lon="1.70299">
        <ele>79.7</ele>
        <time>2020-06-22T20:24:45Z</time>
      </trkpt>
      <trkpt lat="50.86331" lon="1.70302">
        <ele>79.9</ele>
        <time>2020-06-22T20:24:46Z</time>
      </trkpt>
      <trkpt lat="50.86333" lon="1.70305">
        <ele>80</ele>
        <time>2020-06-22T20:24:47Z</time>
      </trkpt>
      <trkpt lat="50.86336" lon="1.70309">
        <ele>80.2</ele>
        <time>2020-06-22T20:24:48Z</time>
      </trkpt>
      <trkpt lat="50.86337" lon="1.7031">
        <ele>80.2</ele>
        <time>2020-06-22T20:24:49Z</time>
      </trkpt>
      <trkpt lat="50.8634" lon="1.70313">
        <ele>80.4</ele>
        <time>2020-06-22T20:24:50Z</time>
      </trkpt>
      <trkpt lat="50.86342" lon="1.70316">
        <ele>80.5</ele>
        <time>2020-06-22T20:24:51Z</time>
      </trkpt>
      <trkpt lat="50.86345" lon="1.7032">
        <ele>80.7</ele>
        <time>2020-06-22T20:24:52Z</time>
      </trkpt>
      <trkpt lat="50.86347" lon="1.70324">
        <ele>80.8</ele>
        <time>2020-06-22T20:24:53Z</time>
      </trkpt>
      <trkpt lat="50.86349" lon="1.70328">
        <ele>81</ele>
        <time>2020-06-22T20:24:54Z</time>
      </trkpt>
      <trkpt lat="50.86352" lon="1.70333">
        <ele>81.2</ele>
        <time>2020-06-22T20:24:55Z</time>
      </trkpt>
      <trkpt lat="50.86354" lon="1.70337">
        <ele>81.4</ele>
        <time>2020-06-22T20:24:56Z</time>
      </trkpt>
      <trkpt lat="50.86356" lon="1.70341">
        <ele>81.5</ele>
        <time>2020-06-22T20:24:57Z</time>
      </trkpt>
      <trkpt lat="50.86358" lon="1.70347">
        <ele>81.8</ele>
        <time>2020-06-22T20:24:58Z</time>
      </trkpt>
      <trkpt lat="50.86359" lon="1.70349">
        <ele>81.9</ele>
        <time>2020-06-22T20:24:59Z</time>
      </trkpt>
      <trkpt lat="50.8636" lon="1.70353">
        <ele>82.1</ele>
        <time>2020-06-22T20:25:00Z</time>
      </trkpt>
      <trkpt lat="50.86362" lon="1.70358">
        <ele>82.3</ele>
        <time>2020-06-22T20:25:01Z</time>
      </trkpt>
      <trkpt lat="50.86363" lon="1.70359">
        <ele>82.3</ele>
        <time>2020-06-22T20:25:02Z</time>
      </trkpt>
      <trkpt lat="50.86365" lon="1.70364">
        <ele>82.6</ele>
        <time>2020-06-22T20:25:03Z</time>
      </trkpt>
      <trkpt lat="50.86366" lon="1.70366">
        <ele>82.7</ele>
        <time>2020-06-22T20:25:04Z</time>
      </trkpt>
      <trkpt lat="50.86367" lon="1.7037">
        <ele>82.9</ele>
        <time>2020-06-22T20:25:05Z</time>
      </trkpt>
      <trkpt lat="50.8637" lon="1.70374">
        <ele>83.1</ele>
        <time>2020-06-22T20:25:06Z</time>
      </trkpt>
      <trkpt lat="50.8637" lon="1.70376">
        <ele>83.2</ele>
        <time>2020-06-22T20:25:07Z</time>
      </trkpt>
      <trkpt lat="50.86372" lon="1.70379">
        <ele>83.4</ele>
        <time>2020-06-22T20:25:08Z</time>
      </trkpt>
      <trkpt lat="50.86373" lon="1.7038">
        <ele>83.4</ele>
        <time>2020-06-22T20:25:09Z</time>
      </trkpt>
      <trkpt lat="50.86375" lon="1.70385">
        <ele>83.6</ele>
        <time>2020-06-22T20:25:10Z</time>
      </trkpt>
      <trkpt lat="50.86375" lon="1.70387">
        <ele>83.7</ele>
        <time>2020-06-22T20:25:11Z</time>
      </trkpt>
      <trkpt lat="50.86376" lon="1.70392">
        <ele>83.9</ele>
        <time>2020-06-22T20:25:12Z</time>
      </trkpt>
      <trkpt lat="50.86376" lon="1.70393">
        <ele>83.9</ele>
        <time>2020-06-22T20:25:13Z</time>
      </trkpt>
      <trkpt lat="50.86377" lon="1.70398">
        <ele>84.1</ele>
        <time>2020-06-22T20:25:14Z</time>
      </trkpt>
      <trkpt lat="50.86377" lon="1.704">
        <ele>84.2</ele>
        <time>2020-06-22T20:25:15Z</time>
      </trkpt>
      <trkpt lat="50.86378" lon="1.70404">
        <ele>84.4</ele>
        <time>2020-06-22T20:25:16Z</time>
      </trkpt>
      <trkpt lat="50.8638" lon="1.70409">
        <ele>84.6</ele>
        <time>2020-06-22T20:25:17Z</time>
      </trkpt>
      <trkpt lat="50.8638" lon="1.70411">
        <ele>84.7</ele>
        <time>2020-06-22T20:25:18Z</time>
      </trkpt>
      <trkpt lat="50.86381" lon="1.70415">
        <ele>84.8</ele>
        <time>2020-06-22T20:25:19Z</time>
      </trkpt>
      <trkpt lat="50.86381" lon="1.70422">
        <ele>85.1</ele>
        <time>2020-06-22T20:25:20Z</time>
      </trkpt>
      <trkpt lat="50.8638" lon="1.70429">
        <ele>85.4</ele>
        <time>2020-06-22T20:25:21Z</time>
      </trkpt>
      <trkpt lat="50.8638" lon="1.70434">
        <ele>85.6</ele>
        <time>2020-06-22T20:25:22Z</time>
      </trkpt>
      <trkpt lat="50.8638" lon="1.70436">
        <ele>85.7</ele>
        <time>2020-06-22T20:25:23Z</time>
      </trkpt>
      <trkpt lat="50.86381" lon="1.70438">
        <ele>85.8</ele>
        <time>2020-06-22T20:25:24Z</time>
      </trkpt>
      <trkpt lat="50.86381" lon="1.70441">
        <ele>85.9</ele>
        <time>2020-06-22T20:25:25Z</time>
      </trkpt>
      <trkpt lat="50.86383" lon="1.70444">
        <ele>86.1</ele>
        <time>2020-06-22T20:25:26Z</time>
      </trkpt>
      <trkpt lat="50.86383" lon="1.70446">
        <ele>86.1</ele>
        <time>2020-06-22T20:25:27Z</time>
      </trkpt>
      <trkpt lat="50.86383" lon="1.70451">
        <ele>86.3</ele>
        <time>2020-06-22T20:25:28Z</time>
      </trkpt>
      <trkpt lat="50.86383" lon="1.70453">
        <ele>86.4</ele>
        <time>2020-06-22T20:25:29Z</time>
      </trkpt>
      <trkpt lat="50.86384" lon="1.70458">
        <ele>86.7</ele>
        <time>2020-06-22T20:25:30Z</time>
      </trkpt>
      <trkpt lat="50.86384" lon="1.7046">
        <ele>86.7</ele>
        <time>2020-06-22T20:25:31Z</time>
      </trkpt>
      <trkpt lat="50.86385" lon="1.70465">
        <ele>87</ele>
        <time>2020-06-22T20:25:32Z</time>
      </trkpt>
      <trkpt lat="50.86385" lon="1.70467">
        <ele>87</ele>
        <time>2020-06-22T20:25:33Z</time>
      </trkpt>
      <trkpt lat="50.86386" lon="1.7047">
        <ele>87.2</ele>
        <time>2020-06-22T20:25:34Z</time>
      </trkpt>
      <trkpt lat="50.86387" lon="1.70472">
        <ele>87.3</ele>
        <time>2020-06-22T20:25:35Z</time>
      </trkpt>
      <trkpt lat="50.86388" lon="1.70475">
        <ele>87.4</ele>
        <time>2020-06-22T20:25:36Z</time>
      </trkpt>
      <trkpt lat="50.86388" lon="1.70477">
        <ele>87.5</ele>
        <time>2020-06-22T20:25:37Z</time>
      </trkpt>
      <trkpt lat="50.86387" lon="1.7048">
        <ele>87.7</ele>
        <time>2020-06-22T20:25:38Z</time>
      </trkpt>
      <trkpt lat="50.86388" lon="1.70483">
        <ele>87.8</ele>
        <time>2020-06-22T20:25:39Z</time>
      </trkpt>
      <trkpt lat="50.86389" lon="1.70486">
        <ele>87.9</ele>
        <time>2020-06-22T20:25:40Z</time>
      </trkpt>
      <trkpt lat="50.86389" lon="1.70488">
        <ele>88</ele>
        <time>2020-06-22T20:25:41Z</time>
      </trkpt>
      <trkpt lat="50.8639" lon="1.7049">
        <ele>88.1</ele>
        <time>2020-06-22T20:25:42Z</time>
      </trkpt>
      <trkpt lat="50.86391" lon="1.70493">
        <ele>88.3</ele>
        <time>2020-06-22T20:25:43Z</time>
      </trkpt>
      <trkpt lat="50.86391" lon="1.70495">
        <ele>88.4</ele>
        <time>2020-06-22T20:25:44Z</time>
      </trkpt>
      <trkpt lat="50.86392" lon="1.70498">
        <ele>88.5</ele>
        <time>2020-06-22T20:25:45Z</time>
      </trkpt>
      <trkpt lat="50.86393" lon="1.70502">
        <ele>88.7</ele>
        <time>2020-06-22T20:25:46Z</time>
      </trkpt>
      <trkpt lat="50.86393" lon="1.70504">
        <ele>88.8</ele>
        <time>2020-06-22T20:25:47Z</time>
      </trkpt>
      <trkpt lat="50.86395" lon="1.70508">
        <ele>89</ele>
        <time>2020-06-22T20:25:48Z</time>
      </trkpt>
      <trkpt lat="50.86395" lon="1.70509">
        <ele>89</ele>
        <time>2020-06-22T20:25:49Z</time>
      </trkpt>
      <trkpt lat="50.86397" lon="1.70513">
        <ele>89.2</ele>
        <time>2020-06-22T20:25:50Z</time>
      </trkpt>
      <trkpt lat="50.86397" lon="1.70515">
        <ele>89.3</ele>
        <time>2020-06-22T20:25:51Z</time>
      </trkpt>
      <trkpt lat="50.86399" lon="1.70519">
        <ele>89.5</ele>
        <time>2020-06-22T20:25:52Z</time>
      </trkpt>
      <trkpt lat="50.86401" lon="1.70522">
        <ele>89.7</ele>
        <time>2020-06-22T20:25:53Z</time>
      </trkpt>
      <trkpt lat="50.86401" lon="1.70524">
        <ele>89.8</ele>
        <time>2020-06-22T20:25:54Z</time>
      </trkpt>
      <trkpt lat="50.86402" lon="1.70527">
        <ele>89.9</ele>
        <time>2020-06-22T20:25:55Z</time>
      </trkpt>
      <trkpt lat="50.86403" lon="1.70529">
        <ele>90</ele>
        <time>2020-06-22T20:25:56Z</time>
      </trkpt>
      <trkpt lat="50.86403" lon="1.70534">
        <ele>90.2</ele>
        <time>2020-06-22T20:25:57Z</time>
      </trkpt>
      <trkpt lat="50.86403" lon="1.70536">
        <ele>90.3</ele>
        <time>2020-06-22T20:25:58Z</time>
      </trkpt>
      <trkpt lat="50.86404" lon="1.70538">
        <ele>90.4</ele>
        <time>2020-06-22T20:25:59Z</time>
      </trkpt>
      <trkpt lat="50.86405" lon="1.7054">
        <ele>90.5</ele>
        <time>2020-06-22T20:26:00Z</time>
      </trkpt>
      <trkpt lat="50.86406" lon="1.70545">
        <ele>90.7</ele>
        <time>2020-06-22T20:26:01Z</time>
      </trkpt>
      <trkpt lat="50.86407" lon="1.70546">
        <ele>90.8</ele>
        <time>2020-06-22T20:26:02Z</time>
      </trkpt>
      <trkpt lat="50.86407" lon="1.70548">
        <ele>90.9</ele>
        <time>2020-06-22T20:26:03Z</time>
      </trkpt>
      <trkpt lat="50.86408" lon="1.70551">
        <ele>91</ele>
        <time>2020-06-22T20:26:04Z</time>
      </trkpt>
      <trkpt lat="50.8641" lon="1.70555">
        <ele>91.2</ele>
        <time>2020-06-22T20:26:05Z</time>
      </trkpt>
      <trkpt lat="50.8641" lon="1.70556">
        <ele>91.2</ele>
        <time>2020-06-22T20:26:06Z</time>
      </trkpt>
      <trkpt lat="50.86411" lon="1.70557">
        <ele>91.3</ele>
        <time>2020-06-22T20:26:07Z</time>
      </trkpt>
      <trkpt lat="50.86412" lon="1.70558">
        <ele>91.4</ele>
        <time>2020-06-22T20:26:08Z</time>
      </trkpt>
      <trkpt lat="50.86414" lon="1.70561">
        <ele>91.6</ele>
        <time>2020-06-22T20:26:09Z</time>
      </trkpt>
      <trkpt lat="50.86414" lon="1.70563">
        <ele>91.6</ele>
        <time>2020-06-22T20:26:10Z</time>
      </trkpt>
      <trkpt lat="50.86415" lon="1.70565">
        <ele>91.8</ele>
        <time>2020-06-22T20:26:11Z</time>
      </trkpt>
      <trkpt lat="50.86415" lon="1.70567">
        <ele>91.8</ele>
        <time>2020-06-22T20:26:12Z</time>
      </trkpt>
      <trkpt lat="50.86416" lon="1.70569">
        <ele>91.9</ele>
        <time>2020-06-22T20:26:13Z</time>
      </trkpt>
      <trkpt lat="50.86416" lon="1.7057">
        <ele>92</ele>
        <time>2020-06-22T20:26:14Z</time>
      </trkpt>
      <trkpt lat="50.86417" lon="1.70572">
        <ele>92.1</ele>
        <time>2020-06-22T20:26:15Z</time>
      </trkpt>
      <trkpt lat="50.86418" lon="1.70574">
        <ele>92.2</ele>
        <time>2020-06-22T20:26:16Z</time>
      </trkpt>
      <trkpt lat="50.86418" lon="1.70576">
        <ele>92.3</ele>
        <time>2020-06-22T20:26:17Z</time>
      </trkpt>
      <trkpt lat="50.86419" lon="1.70577">
        <ele>92.3</ele>
        <time>2020-06-22T20:26:18Z</time>
      </trkpt>
      <trkpt lat="50.8642" lon="1.70579">
        <ele>92.4</ele>
        <time>2020-06-22T20:26:19Z</time>
      </trkpt>
      <trkpt lat="50.86421" lon="1.70581">
        <ele>92.5</ele>
        <time>2020-06-22T20:26:20Z</time>
      </trkpt>
      <trkpt lat="50.86422" lon="1.70582">
        <ele>92.6</ele>
        <time>2020-06-22T20:26:21Z</time>
      </trkpt>
      <trkpt lat="50.86423" lon="1.70583">
        <ele>92.7</ele>
        <time>2020-06-22T20:26:22Z</time>
      </trkpt>
      <trkpt lat="50.86423" lon="1.70584">
        <ele>92.8</ele>
        <time>2020-06-22T20:26:23Z</time>
      </trkpt>
      <trkpt lat="50.86424" lon="1.70586">
        <ele>92.9</ele>
        <time>2020-06-22T20:26:24Z</time>
      </trkpt>
      <trkpt lat="50.86425" lon="1.70592">
        <ele>93.1</ele>
        <time>2020-06-22T20:26:25Z</time>
      </trkpt>
      <trkpt lat="50.86425" lon="1.70594">
        <ele>93.2</ele>
        <time>2020-06-22T20:26:26Z</time>
      </trkpt>
      <trkpt lat="50.86426" lon="1.70596">
        <ele>93.3</ele>
        <time>2020-06-22T20:26:27Z</time>
      </trkpt>
      <trkpt lat="50.86427" lon="1.70598">
        <ele>93.4</ele>
        <time>2020-06-22T20:26:28Z</time>
      </trkpt>
      <trkpt lat="50.86428" lon="1.706">
        <ele>93.5</ele>
        <time>2020-06-22T20:26:29Z</time>
      </trkpt>
      <trkpt lat="50.86429" lon="1.70601">
        <ele>93.6</ele>
        <time>2020-06-22T20:26:30Z</time>
      </trkpt>
      <trkpt lat="50.86429" lon="1.70602">
        <ele>93.7</ele>
        <time>2020-06-22T20:26:31Z</time>
      </trkpt>
      <trkpt lat="50.8643" lon="1.70605">
        <ele>93.8</ele>
        <time>2020-06-22T20:26:32Z</time>
      </trkpt>
      <trkpt lat="50.8643" lon="1.70608">
        <ele>93.9</ele>
        <time>2020-06-22T20:26:33Z</time>
      </trkpt>
      <trkpt lat="50.86431" lon="1.70612">
        <ele>94.1</ele>
        <time>2020-06-22T20:26:34Z</time>
      </trkpt>
      <trkpt lat="50.86431" lon="1.70614">
        <ele>94.2</ele>
        <time>2020-06-22T20:26:35Z</time>
      </trkpt>
      <trkpt lat="50.86432" lon="1.70619">
        <ele>94.4</ele>
        <time>2020-06-22T20:26:36Z</time>
      </trkpt>
      <trkpt lat="50.86432" lon="1.70621">
        <ele>94.4</ele>
        <time>2020-06-22T20:26:37Z</time>
      </trkpt>
      <trkpt lat="50.86433" lon="1.70627">
        <ele>94.7</ele>
        <time>2020-06-22T20:26:38Z</time>
      </trkpt>
      <trkpt lat="50.86433" lon="1.70633">
        <ele>94.9</ele>
        <time>2020-06-22T20:26:39Z</time>
      </trkpt>
      <trkpt lat="50.86433" lon="1.70635">
        <ele>95</ele>
        <time>2020-06-22T20:26:40Z</time>
      </trkpt>
      <trkpt lat="50.86434" lon="1.70637">
        <ele>95.1</ele>
        <time>2020-06-22T20:26:41Z</time>
      </trkpt>
      <trkpt lat="50.86433" lon="1.7064">
        <ele>95.2</ele>
        <time>2020-06-22T20:26:42Z</time>
      </trkpt>
      <trkpt lat="50.86434" lon="1.70644">
        <ele>95.3</ele>
        <time>2020-06-22T20:26:43Z</time>
      </trkpt>
      <trkpt lat="50.86434" lon="1.70645">
        <ele>95.6</ele>
        <time>2020-06-22T20:26:44Z</time>
      </trkpt>
      <trkpt lat="50.86434" lon="1.70647">
        <ele>95.7</ele>
        <time>2020-06-22T20:26:45Z</time>
      </trkpt>
      <trkpt lat="50.86434" lon="1.70652">
        <ele>95.8</ele>
        <time>2020-06-22T20:26:46Z</time>
      </trkpt>
      <trkpt lat="50.86433" lon="1.70654">
        <ele>95.8</ele>
        <time>2020-06-22T20:26:47Z</time>
      </trkpt>
      <trkpt lat="50.86433" lon="1.70658">
        <ele>95.9</ele>
        <time>2020-06-22T20:26:48Z</time>
      </trkpt>
      <trkpt lat="50.86432" lon="1.70662">
        <ele>95.9</ele>
        <time>2020-06-22T20:26:49Z</time>
      </trkpt>
      <trkpt lat="50.8643" lon="1.70667">
        <ele>96</ele>
        <time>2020-06-22T20:26:50Z</time>
      </trkpt>
      <trkpt lat="50.8643" lon="1.70668">
        <ele>96</ele>
        <time>2020-06-22T20:26:51Z</time>
      </trkpt>
      <trkpt lat="50.86429" lon="1.70674">
        <ele>96</ele>
        <time>2020-06-22T20:26:52Z</time>
      </trkpt>
      <trkpt lat="50.86428" lon="1.70675">
        <ele>96.1</ele>
        <time>2020-06-22T20:26:53Z</time>
      </trkpt>
      <trkpt lat="50.86427" lon="1.7068">
        <ele>96.1</ele>
        <time>2020-06-22T20:26:54Z</time>
      </trkpt>
      <trkpt lat="50.86426" lon="1.70682">
        <ele>96.1</ele>
        <time>2020-06-22T20:26:55Z</time>
      </trkpt>
      <trkpt lat="50.86424" lon="1.70686">
        <ele>96.1</ele>
        <time>2020-06-22T20:26:56Z</time>
      </trkpt>
      <trkpt lat="50.86423" lon="1.70687">
        <ele>96.1</ele>
        <time>2020-06-22T20:26:57Z</time>
      </trkpt>
      <trkpt lat="50.86421" lon="1.70692">
        <ele>96.1</ele>
        <time>2020-06-22T20:26:58Z</time>
      </trkpt>
      <trkpt lat="50.8642" lon="1.70694">
        <ele>96.1</ele>
        <time>2020-06-22T20:26:59Z</time>
      </trkpt>
      <trkpt lat="50.86418" lon="1.70697">
        <ele>96.1</ele>
        <time>2020-06-22T20:27:00Z</time>
      </trkpt>
      <trkpt lat="50.86416" lon="1.70701">
        <ele>96.1</ele>
        <time>2020-06-22T20:27:01Z</time>
      </trkpt>
      <trkpt lat="50.86413" lon="1.70704">
        <ele>96</ele>
        <time>2020-06-22T20:27:02Z</time>
      </trkpt>
      <trkpt lat="50.8641" lon="1.70708">
        <ele>95.9</ele>
        <time>2020-06-22T20:27:03Z</time>
      </trkpt>
      <trkpt lat="50.86406" lon="1.70712">
        <ele>95.7</ele>
        <time>2020-06-22T20:27:04Z</time>
      </trkpt>
      <trkpt lat="50.86402" lon="1.70717">
        <ele>95.6</ele>
        <time>2020-06-22T20:27:05Z</time>
      </trkpt>
      <trkpt lat="50.86398" lon="1.70722">
        <ele>95.3</ele>
        <time>2020-06-22T20:27:06Z</time>
      </trkpt>
      <trkpt lat="50.86394" lon="1.70727">
        <ele>95.1</ele>
        <time>2020-06-22T20:27:07Z</time>
      </trkpt>
      <trkpt lat="50.8639" lon="1.70733">
        <ele>94.8</ele>
        <time>2020-06-22T20:27:08Z</time>
      </trkpt>
      <trkpt lat="50.86386" lon="1.7074">
        <ele>94.5</ele>
        <time>2020-06-22T20:27:09Z</time>
      </trkpt>
      <trkpt lat="50.86382" lon="1.70745">
        <ele>94.2</ele>
        <time>2020-06-22T20:27:10Z</time>
      </trkpt>
      <trkpt lat="50.86378" lon="1.70752">
        <ele>93.8</ele>
        <time>2020-06-22T20:27:11Z</time>
      </trkpt>
      <trkpt lat="50.86373" lon="1.70758">
        <ele>93.5</ele>
        <time>2020-06-22T20:27:12Z</time>
      </trkpt>
      <trkpt lat="50.86368" lon="1.70765">
        <ele>93.1</ele>
        <time>2020-06-22T20:27:13Z</time>
      </trkpt>
      <trkpt lat="50.86364" lon="1.70772">
        <ele>92.7</ele>
        <time>2020-06-22T20:27:14Z</time>
      </trkpt>
      <trkpt lat="50.86358" lon="1.7078">
        <ele>92.3</ele>
        <time>2020-06-22T20:27:15Z</time>
      </trkpt>
      <trkpt lat="50.86353" lon="1.70787">
        <ele>91.8</ele>
        <time>2020-06-22T20:27:16Z</time>
      </trkpt>
      <trkpt lat="50.86347" lon="1.70795">
        <ele>91.3</ele>
        <time>2020-06-22T20:27:17Z</time>
      </trkpt>
      <trkpt lat="50.86341" lon="1.70803">
        <ele>90.9</ele>
        <time>2020-06-22T20:27:18Z</time>
      </trkpt>
      <trkpt lat="50.86335" lon="1.70813">
        <ele>90.4</ele>
        <time>2020-06-22T20:27:19Z</time>
      </trkpt>
      <trkpt lat="50.86329" lon="1.70822">
        <ele>89.9</ele>
        <time>2020-06-22T20:27:20Z</time>
      </trkpt>
      <trkpt lat="50.86322" lon="1.70832">
        <ele>89.4</ele>
        <time>2020-06-22T20:27:21Z</time>
      </trkpt>
      <trkpt lat="50.86317" lon="1.7084">
        <ele>89</ele>
        <time>2020-06-22T20:27:22Z</time>
      </trkpt>
      <trkpt lat="50.86311" lon="1.70851">
        <ele>88.5</ele>
        <time>2020-06-22T20:27:23Z</time>
      </trkpt>
      <trkpt lat="50.86305" lon="1.70861">
        <ele>88.2</ele>
        <time>2020-06-22T20:27:24Z</time>
      </trkpt>
      <trkpt lat="50.863" lon="1.70871">
        <ele>87.8</ele>
        <time>2020-06-22T20:27:25Z</time>
      </trkpt>
      <trkpt lat="50.86295" lon="1.70881">
        <ele>87.5</ele>
        <time>2020-06-22T20:27:26Z</time>
      </trkpt>
      <trkpt lat="50.86289" lon="1.70889">
        <ele>87.2</ele>
        <time>2020-06-22T20:27:27Z</time>
      </trkpt>
      <trkpt lat="50.86283" lon="1.70897">
        <ele>87</ele>
        <time>2020-06-22T20:27:28Z</time>
      </trkpt>
      <trkpt lat="50.86278" lon="1.70907">
        <ele>86.8</ele>
        <time>2020-06-22T20:27:29Z</time>
      </trkpt>
      <trkpt lat="50.86273" lon="1.70915">
        <ele>86.6</ele>
        <time>2020-06-22T20:27:30Z</time>
      </trkpt>
      <trkpt lat="50.86267" lon="1.70923">
        <ele>86.5</ele>
        <time>2020-06-22T20:27:31Z</time>
      </trkpt>
      <trkpt lat="50.86262" lon="1.70932">
        <ele>86.4</ele>
        <time>2020-06-22T20:27:32Z</time>
      </trkpt>
      <trkpt lat="50.86257" lon="1.7094">
        <ele>86.2</ele>
        <time>2020-06-22T20:27:33Z</time>
      </trkpt>
      <trkpt lat="50.86252" lon="1.70948">
        <ele>86.1</ele>
        <time>2020-06-22T20:27:34Z</time>
      </trkpt>
      <trkpt lat="50.86247" lon="1.70956">
        <ele>86</ele>
        <time>2020-06-22T20:27:35Z</time>
      </trkpt>
      <trkpt lat="50.86242" lon="1.70963">
        <ele>85.9</ele>
        <time>2020-06-22T20:27:36Z</time>
      </trkpt>
      <trkpt lat="50.86237" lon="1.70971">
        <ele>85.9</ele>
        <time>2020-06-22T20:27:37Z</time>
      </trkpt>
      <trkpt lat="50.86232" lon="1.70979">
        <ele>85.9</ele>
        <time>2020-06-22T20:27:38Z</time>
      </trkpt>
      <trkpt lat="50.86228" lon="1.70986">
        <ele>85.9</ele>
        <time>2020-06-22T20:27:39Z</time>
      </trkpt>
      <trkpt lat="50.86224" lon="1.70993">
        <ele>86</ele>
        <time>2020-06-22T20:27:40Z</time>
      </trkpt>
      <trkpt lat="50.8622" lon="1.71">
        <ele>86</ele>
        <time>2020-06-22T20:27:41Z</time>
      </trkpt>
      <trkpt lat="50.86216" lon="1.71007">
        <ele>86</ele>
        <time>2020-06-22T20:27:42Z</time>
      </trkpt>
      <trkpt lat="50.86213" lon="1.71015">
        <ele>86</ele>
        <time>2020-06-22T20:27:43Z</time>
      </trkpt>
      <trkpt lat="50.8621" lon="1.71021">
        <ele>86</ele>
        <time>2020-06-22T20:27:44Z</time>
      </trkpt>
      <trkpt lat="50.86207" lon="1.71028">
        <ele>86.1</ele>
        <time>2020-06-22T20:27:45Z</time>
      </trkpt>
      <trkpt lat="50.86202" lon="1.71033">
        <ele>86.2</ele>
        <time>2020-06-22T20:27:46Z</time>
      </trkpt>
      <trkpt lat="50.86198" lon="1.71038">
        <ele>86.3</ele>
        <time>2020-06-22T20:27:47Z</time>
      </trkpt>
      <trkpt lat="50.86193" lon="1.71043">
        <ele>86.4</ele>
        <time>2020-06-22T20:27:48Z</time>
      </trkpt>
      <trkpt lat="50.86189" lon="1.71051">
        <ele>86.6</ele>
        <time>2020-06-22T20:27:49Z</time>
      </trkpt>
      <trkpt lat="50.86185" lon="1.71058">
        <ele>86.9</ele>
        <time>2020-06-22T20:27:50Z</time>
      </trkpt>
      <trkpt lat="50.8618" lon="1.71065">
        <ele>87.1</ele>
        <time>2020-06-22T20:27:51Z</time>
      </trkpt>
      <trkpt lat="50.86176" lon="1.71072">
        <ele>87.4</ele>
        <time>2020-06-22T20:27:52Z</time>
      </trkpt>
      <trkpt lat="50.86171" lon="1.71079">
        <ele>87.7</ele>
        <time>2020-06-22T20:27:53Z</time>
      </trkpt>
      <trkpt lat="50.86166" lon="1.71087">
        <ele>88</ele>
        <time>2020-06-22T20:27:54Z</time>
      </trkpt>
      <trkpt lat="50.86162" lon="1.71095">
        <ele>88.4</ele>
        <time>2020-06-22T20:27:55Z</time>
      </trkpt>
      <trkpt lat="50.86157" lon="1.71102">
        <ele>88.7</ele>
        <time>2020-06-22T20:27:56Z</time>
      </trkpt>
      <trkpt lat="50.86152" lon="1.7111">
        <ele>89.1</ele>
        <time>2020-06-22T20:27:57Z</time>
      </trkpt>
      <trkpt lat="50.86148" lon="1.71117">
        <ele>89.5</ele>
        <time>2020-06-22T20:27:58Z</time>
      </trkpt>
      <trkpt lat="50.86145" lon="1.71124">
        <ele>89.9</ele>
        <time>2020-06-22T20:27:59Z</time>
      </trkpt>
      <trkpt lat="50.86141" lon="1.71131">
        <ele>90.3</ele>
        <time>2020-06-22T20:28:00Z</time>
      </trkpt>
      <trkpt lat="50.86137" lon="1.71138">
        <ele>90.7</ele>
        <time>2020-06-22T20:28:01Z</time>
      </trkpt>
      <trkpt lat="50.86134" lon="1.71144">
        <ele>91.2</ele>
        <time>2020-06-22T20:28:02Z</time>
      </trkpt>
      <trkpt lat="50.8613" lon="1.7115">
        <ele>91.6</ele>
        <time>2020-06-22T20:28:03Z</time>
      </trkpt>
      <trkpt lat="50.86126" lon="1.71154">
        <ele>92</ele>
        <time>2020-06-22T20:28:04Z</time>
      </trkpt>
      <trkpt lat="50.86123" lon="1.71159">
        <ele>92.3</ele>
        <time>2020-06-22T20:28:05Z</time>
      </trkpt>
      <trkpt lat="50.8612" lon="1.71164">
        <ele>92.6</ele>
        <time>2020-06-22T20:28:06Z</time>
      </trkpt>
      <trkpt lat="50.86118" lon="1.71168">
        <ele>92.9</ele>
        <time>2020-06-22T20:28:07Z</time>
      </trkpt>
      <trkpt lat="50.86115" lon="1.71172">
        <ele>93.2</ele>
        <time>2020-06-22T20:28:08Z</time>
      </trkpt>
      <trkpt lat="50.86113" lon="1.71176">
        <ele>93.5</ele>
        <time>2020-06-22T20:28:09Z</time>
      </trkpt>
      <trkpt lat="50.86111" lon="1.7118">
        <ele>93.7</ele>
        <time>2020-06-22T20:28:10Z</time>
      </trkpt>
      <trkpt lat="50.86109" lon="1.71183">
        <ele>94</ele>
        <time>2020-06-22T20:28:11Z</time>
      </trkpt>
      <trkpt lat="50.86106" lon="1.71188">
        <ele>94.3</ele>
        <time>2020-06-22T20:28:12Z</time>
      </trkpt>
      <trkpt lat="50.86104" lon="1.71191">
        <ele>94.5</ele>
        <time>2020-06-22T20:28:13Z</time>
      </trkpt>
      <trkpt lat="50.86102" lon="1.71195">
        <ele>94.8</ele>
        <time>2020-06-22T20:28:14Z</time>
      </trkpt>
      <trkpt lat="50.861" lon="1.71198">
        <ele>95.1</ele>
        <time>2020-06-22T20:28:15Z</time>
      </trkpt>
      <trkpt lat="50.86097" lon="1.71202">
        <ele>95.4</ele>
        <time>2020-06-22T20:28:16Z</time>
      </trkpt>
      <trkpt lat="50.86094" lon="1.71206">
        <ele>95.7</ele>
        <time>2020-06-22T20:28:17Z</time>
      </trkpt>
      <trkpt lat="50.8609" lon="1.71209">
        <ele>96.1</ele>
        <time>2020-06-22T20:28:18Z</time>
      </trkpt>
      <trkpt lat="50.86086" lon="1.71212">
        <ele>96.5</ele>
        <time>2020-06-22T20:28:19Z</time>
      </trkpt>
      <trkpt lat="50.86083" lon="1.71215">
        <ele>96.8</ele>
        <time>2020-06-22T20:28:20Z</time>
      </trkpt>
      <trkpt lat="50.8608" lon="1.7122">
        <ele>97.1</ele>
        <time>2020-06-22T20:28:21Z</time>
      </trkpt>
      <trkpt lat="50.86079" lon="1.71222">
        <ele>97.2</ele>
        <time>2020-06-22T20:28:22Z</time>
      </trkpt>
      <trkpt lat="50.86076" lon="1.71226">
        <ele>97.5</ele>
        <time>2020-06-22T20:28:23Z</time>
      </trkpt>
      <trkpt lat="50.86075" lon="1.71228">
        <ele>97.7</ele>
        <time>2020-06-22T20:28:24Z</time>
      </trkpt>
      <trkpt lat="50.86072" lon="1.71232">
        <ele>98</ele>
        <time>2020-06-22T20:28:25Z</time>
      </trkpt>
      <trkpt lat="50.8607" lon="1.71237">
        <ele>98.2</ele>
        <time>2020-06-22T20:28:26Z</time>
      </trkpt>
      <trkpt lat="50.86067" lon="1.7124">
        <ele>98.5</ele>
        <time>2020-06-22T20:28:27Z</time>
      </trkpt>
      <trkpt lat="50.86065" lon="1.71245">
        <ele>98.7</ele>
        <time>2020-06-22T20:28:28Z</time>
      </trkpt>
      <trkpt lat="50.86064" lon="1.71247">
        <ele>98.8</ele>
        <time>2020-06-22T20:28:29Z</time>
      </trkpt>
      <trkpt lat="50.86062" lon="1.7125">
        <ele>99</ele>
        <time>2020-06-22T20:28:30Z</time>
      </trkpt>
      <trkpt lat="50.86059" lon="1.71254">
        <ele>99.2</ele>
        <time>2020-06-22T20:28:31Z</time>
      </trkpt>
      <trkpt lat="50.86057" lon="1.71257">
        <ele>99.4</ele>
        <time>2020-06-22T20:28:32Z</time>
      </trkpt>
      <trkpt lat="50.86053" lon="1.71262">
        <ele>99.6</ele>
        <time>2020-06-22T20:28:33Z</time>
      </trkpt>
      <trkpt lat="50.8605" lon="1.71265">
        <ele>99.8</ele>
        <time>2020-06-22T20:28:34Z</time>
      </trkpt>
      <trkpt lat="50.86047" lon="1.71268">
        <ele>99.9</ele>
        <time>2020-06-22T20:28:35Z</time>
      </trkpt>
      <trkpt lat="50.86045" lon="1.71271">
        <ele>99.9</ele>
        <time>2020-06-22T20:28:36Z</time>
      </trkpt>
      <trkpt lat="50.86042" lon="1.71274">
        <ele>100</ele>
        <time>2020-06-22T20:28:37Z</time>
      </trkpt>
      <trkpt lat="50.86039" lon="1.71277">
        <ele>100</ele>
        <time>2020-06-22T20:28:38Z</time>
      </trkpt>
      <trkpt lat="50.86036" lon="1.71281">
        <ele>100</ele>
        <time>2020-06-22T20:28:39Z</time>
      </trkpt>
      <trkpt lat="50.86035" lon="1.71282">
        <ele>100</ele>
        <time>2020-06-22T20:28:40Z</time>
      </trkpt>
      <trkpt lat="50.86033" lon="1.71285">
        <ele>100</ele>
        <time>2020-06-22T20:28:41Z</time>
      </trkpt>
      <trkpt lat="50.8603" lon="1.71288">
        <ele>100</ele>
        <time>2020-06-22T20:28:42Z</time>
      </trkpt>
      <trkpt lat="50.86028" lon="1.71292">
        <ele>99.9</ele>
        <time>2020-06-22T20:28:43Z</time>
      </trkpt>
      <trkpt lat="50.86025" lon="1.71297">
        <ele>99.9</ele>
        <time>2020-06-22T20:28:44Z</time>
      </trkpt>
      <trkpt lat="50.86024" lon="1.71299">
        <ele>99.8</ele>
        <time>2020-06-22T20:28:45Z</time>
      </trkpt>
      <trkpt lat="50.86022" lon="1.71303">
        <ele>99.7</ele>
        <time>2020-06-22T20:28:46Z</time>
      </trkpt>
      <trkpt lat="50.86019" lon="1.71307">
        <ele>99.6</ele>
        <time>2020-06-22T20:28:47Z</time>
      </trkpt>
      <trkpt lat="50.86016" lon="1.71312">
        <ele>99.4</ele>
        <time>2020-06-22T20:28:48Z</time>
      </trkpt>
      <trkpt lat="50.86013" lon="1.71317">
        <ele>99.2</ele>
        <time>2020-06-22T20:28:49Z</time>
      </trkpt>
      <trkpt lat="50.86012" lon="1.71319">
        <ele>99.1</ele>
        <time>2020-06-22T20:28:50Z</time>
      </trkpt>
      <trkpt lat="50.86009" lon="1.71325">
        <ele>98.9</ele>
        <time>2020-06-22T20:28:51Z</time>
      </trkpt>
      <trkpt lat="50.86006" lon="1.71331">
        <ele>98.6</ele>
        <time>2020-06-22T20:28:52Z</time>
      </trkpt>
      <trkpt lat="50.86004" lon="1.71336">
        <ele>98.4</ele>
        <time>2020-06-22T20:28:53Z</time>
      </trkpt>
      <trkpt lat="50.86001" lon="1.7134">
        <ele>98.1</ele>
        <time>2020-06-22T20:28:54Z</time>
      </trkpt>
      <trkpt lat="50.85997" lon="1.71347">
        <ele>97.7</ele>
        <time>2020-06-22T20:28:55Z</time>
      </trkpt>
      <trkpt lat="50.85993" lon="1.71355">
        <ele>97.3</ele>
        <time>2020-06-22T20:28:56Z</time>
      </trkpt>
      <trkpt lat="50.85989" lon="1.71361">
        <ele>96.9</ele>
        <time>2020-06-22T20:28:57Z</time>
      </trkpt>
      <trkpt lat="50.85985" lon="1.71369">
        <ele>96.5</ele>
        <time>2020-06-22T20:28:58Z</time>
      </trkpt>
      <trkpt lat="50.85979" lon="1.71377">
        <ele>96</ele>
        <time>2020-06-22T20:28:59Z</time>
      </trkpt>
      <trkpt lat="50.85975" lon="1.71385">
        <ele>95.5</ele>
        <time>2020-06-22T20:29:00Z</time>
      </trkpt>
      <trkpt lat="50.8597" lon="1.71393">
        <ele>95</ele>
        <time>2020-06-22T20:29:01Z</time>
      </trkpt>
      <trkpt lat="50.85966" lon="1.71403">
        <ele>94.4</ele>
        <time>2020-06-22T20:29:02Z</time>
      </trkpt>
      <trkpt lat="50.85962" lon="1.71413">
        <ele>93.9</ele>
        <time>2020-06-22T20:29:03Z</time>
      </trkpt>
      <trkpt lat="50.85959" lon="1.71424">
        <ele>93.3</ele>
        <time>2020-06-22T20:29:04Z</time>
      </trkpt>
      <trkpt lat="50.85955" lon="1.71437">
        <ele>92.7</ele>
        <time>2020-06-22T20:29:05Z</time>
      </trkpt>
      <trkpt lat="50.85953" lon="1.7145">
        <ele>92.2</ele>
        <time>2020-06-22T20:29:06Z</time>
      </trkpt>
      <trkpt lat="50.85951" lon="1.71463">
        <ele>91.7</ele>
        <time>2020-06-22T20:29:07Z</time>
      </trkpt>
      <trkpt lat="50.85948" lon="1.71477">
        <ele>91.1</ele>
        <time>2020-06-22T20:29:08Z</time>
      </trkpt>
      <trkpt lat="50.85946" lon="1.7149">
        <ele>90.6</ele>
        <time>2020-06-22T20:29:09Z</time>
      </trkpt>
      <trkpt lat="50.85943" lon="1.71503">
        <ele>90.2</ele>
        <time>2020-06-22T20:29:10Z</time>
      </trkpt>
      <trkpt lat="50.85941" lon="1.71516">
        <ele>89.7</ele>
        <time>2020-06-22T20:29:11Z</time>
      </trkpt>
      <trkpt lat="50.85938" lon="1.7153">
        <ele>89.4</ele>
        <time>2020-06-22T20:29:12Z</time>
      </trkpt>
      <trkpt lat="50.85935" lon="1.71543">
        <ele>89</ele>
        <time>2020-06-22T20:29:13Z</time>
      </trkpt>
      <trkpt lat="50.85932" lon="1.71556">
        <ele>88.7</ele>
        <time>2020-06-22T20:29:14Z</time>
      </trkpt>
      <trkpt lat="50.85929" lon="1.71569">
        <ele>88.5</ele>
        <time>2020-06-22T20:29:15Z</time>
      </trkpt>
      <trkpt lat="50.85927" lon="1.71581">
        <ele>88.3</ele>
        <time>2020-06-22T20:29:16Z</time>
      </trkpt>
      <trkpt lat="50.85924" lon="1.71594">
        <ele>88.1</ele>
        <time>2020-06-22T20:29:17Z</time>
      </trkpt>
      <trkpt lat="50.85922" lon="1.71606">
        <ele>88</ele>
        <time>2020-06-22T20:29:18Z</time>
      </trkpt>
      <trkpt lat="50.85919" lon="1.71618">
        <ele>87.9</ele>
        <time>2020-06-22T20:29:19Z</time>
      </trkpt>
      <trkpt lat="50.85917" lon="1.71629">
        <ele>88</ele>
        <time>2020-06-22T20:29:20Z</time>
      </trkpt>
      <trkpt lat="50.85915" lon="1.71641">
        <ele>88.1</ele>
        <time>2020-06-22T20:29:21Z</time>
      </trkpt>
      <trkpt lat="50.85913" lon="1.71651">
        <ele>88.2</ele>
        <time>2020-06-22T20:29:22Z</time>
      </trkpt>
      <trkpt lat="50.85911" lon="1.71661">
        <ele>88.4</ele>
        <time>2020-06-22T20:29:23Z</time>
      </trkpt>
      <trkpt lat="50.85909" lon="1.71671">
        <ele>88.5</ele>
        <time>2020-06-22T20:29:24Z</time>
      </trkpt>
      <trkpt lat="50.85907" lon="1.7168">
        <ele>88.7</ele>
        <time>2020-06-22T20:29:25Z</time>
      </trkpt>
      <trkpt lat="50.85906" lon="1.7169">
        <ele>88.9</ele>
        <time>2020-06-22T20:29:26Z</time>
      </trkpt>
      <trkpt lat="50.85904" lon="1.71699">
        <ele>89.1</ele>
        <time>2020-06-22T20:29:27Z</time>
      </trkpt>
      <trkpt lat="50.85901" lon="1.71707">
        <ele>89.3</ele>
        <time>2020-06-22T20:29:28Z</time>
      </trkpt>
      <trkpt lat="50.85899" lon="1.71716">
        <ele>89.6</ele>
        <time>2020-06-22T20:29:29Z</time>
      </trkpt>
      <trkpt lat="50.85897" lon="1.71725">
        <ele>89.8</ele>
        <time>2020-06-22T20:29:30Z</time>
      </trkpt>
      <trkpt lat="50.85894" lon="1.71733">
        <ele>90.1</ele>
        <time>2020-06-22T20:29:31Z</time>
      </trkpt>
      <trkpt lat="50.85892" lon="1.71743">
        <ele>90.3</ele>
        <time>2020-06-22T20:29:32Z</time>
      </trkpt>
      <trkpt lat="50.85891" lon="1.71752">
        <ele>90.6</ele>
        <time>2020-06-22T20:29:33Z</time>
      </trkpt>
      <trkpt lat="50.85889" lon="1.71761">
        <ele>90.8</ele>
        <time>2020-06-22T20:29:34Z</time>
      </trkpt>
      <trkpt lat="50.85886" lon="1.71769">
        <ele>91.1</ele>
        <time>2020-06-22T20:29:35Z</time>
      </trkpt>
      <trkpt lat="50.85883" lon="1.71777">
        <ele>91.4</ele>
        <time>2020-06-22T20:29:36Z</time>
      </trkpt>
      <trkpt lat="50.8588" lon="1.71785">
        <ele>91.6</ele>
        <time>2020-06-22T20:29:37Z</time>
      </trkpt>
      <trkpt lat="50.85878" lon="1.71792">
        <ele>91.8</ele>
        <time>2020-06-22T20:29:38Z</time>
      </trkpt>
      <trkpt lat="50.85876" lon="1.71799">
        <ele>92</ele>
        <time>2020-06-22T20:29:39Z</time>
      </trkpt>
      <trkpt lat="50.85873" lon="1.71805">
        <ele>92.1</ele>
        <time>2020-06-22T20:29:40Z</time>
      </trkpt>
      <trkpt lat="50.85871" lon="1.71811">
        <ele>92.2</ele>
        <time>2020-06-22T20:29:41Z</time>
      </trkpt>
      <trkpt lat="50.8587" lon="1.71818">
        <ele>92.3</ele>
        <time>2020-06-22T20:29:42Z</time>
      </trkpt>
      <trkpt lat="50.85868" lon="1.71822">
        <ele>92.4</ele>
        <time>2020-06-22T20:29:43Z</time>
      </trkpt>
      <trkpt lat="50.85866" lon="1.71828">
        <ele>92.5</ele>
        <time>2020-06-22T20:29:44Z</time>
      </trkpt>
      <trkpt lat="50.85864" lon="1.71834">
        <ele>92.6</ele>
        <time>2020-06-22T20:29:45Z</time>
      </trkpt>
      <trkpt lat="50.85863" lon="1.71842">
        <ele>92.8</ele>
        <time>2020-06-22T20:29:46Z</time>
      </trkpt>
      <trkpt lat="50.85861" lon="1.71849">
        <ele>92.9</ele>
        <time>2020-06-22T20:29:47Z</time>
      </trkpt>
      <trkpt lat="50.8586" lon="1.71855">
        <ele>93</ele>
        <time>2020-06-22T20:29:48Z</time>
      </trkpt>
      <trkpt lat="50.85859" lon="1.71862">
        <ele>93.1</ele>
        <time>2020-06-22T20:29:49Z</time>
      </trkpt>
      <trkpt lat="50.85858" lon="1.71871">
        <ele>93.2</ele>
        <time>2020-06-22T20:29:50Z</time>
      </trkpt>
      <trkpt lat="50.85857" lon="1.71879">
        <ele>93.3</ele>
        <time>2020-06-22T20:29:51Z</time>
      </trkpt>
      <trkpt lat="50.85856" lon="1.71888">
        <ele>93.4</ele>
        <time>2020-06-22T20:29:52Z</time>
      </trkpt>
      <trkpt lat="50.85854" lon="1.71897">
        <ele>93.5</ele>
        <time>2020-06-22T20:29:53Z</time>
      </trkpt>
      <trkpt lat="50.85854" lon="1.71903">
        <ele>93.5</ele>
        <time>2020-06-22T20:29:54Z</time>
      </trkpt>
      <trkpt lat="50.85853" lon="1.71909">
        <ele>93.6</ele>
        <time>2020-06-22T20:29:55Z</time>
      </trkpt>
      <trkpt lat="50.85853" lon="1.71916">
        <ele>93.6</ele>
        <time>2020-06-22T20:29:56Z</time>
      </trkpt>
      <trkpt lat="50.85852" lon="1.71922">
        <ele>93.7</ele>
        <time>2020-06-22T20:29:57Z</time>
      </trkpt>
      <trkpt lat="50.85852" lon="1.71929">
        <ele>93.7</ele>
        <time>2020-06-22T20:29:58Z</time>
      </trkpt>
      <trkpt lat="50.85852" lon="1.71935">
        <ele>93.6</ele>
        <time>2020-06-22T20:29:59Z</time>
      </trkpt>
      <trkpt lat="50.85852" lon="1.71939">
        <ele>93.6</ele>
        <time>2020-06-22T20:30:00Z</time>
      </trkpt>
      <trkpt lat="50.85853" lon="1.71944">
        <ele>93.6</ele>
        <time>2020-06-22T20:30:01Z</time>
      </trkpt>
      <trkpt lat="50.85853" lon="1.71946">
        <ele>93.6</ele>
        <time>2020-06-22T20:30:02Z</time>
      </trkpt>
      <trkpt lat="50.85854" lon="1.71951">
        <ele>93.7</ele>
        <time>2020-06-22T20:30:03Z</time>
      </trkpt>
      <trkpt lat="50.85855" lon="1.71953">
        <ele>93.8</ele>
        <time>2020-06-22T20:30:04Z</time>
      </trkpt>
      <trkpt lat="50.85857" lon="1.71956">
        <ele>93.8</ele>
        <time>2020-06-22T20:30:05Z</time>
      </trkpt>
      <trkpt lat="50.85858" lon="1.71958">
        <ele>93.9</ele>
        <time>2020-06-22T20:30:06Z</time>
      </trkpt>
      <trkpt lat="50.8586" lon="1.71961">
        <ele>93.9</ele>
        <time>2020-06-22T20:30:07Z</time>
      </trkpt>
      <trkpt lat="50.85861" lon="1.71966">
        <ele>93.9</ele>
        <time>2020-06-22T20:30:08Z</time>
      </trkpt>
      <trkpt lat="50.85862" lon="1.71967">
        <ele>94</ele>
        <time>2020-06-22T20:30:09Z</time>
      </trkpt>
      <trkpt lat="50.85863" lon="1.71971">
        <ele>94</ele>
        <time>2020-06-22T20:30:10Z</time>
      </trkpt>
      <trkpt lat="50.85866" lon="1.71976">
        <ele>94</ele>
        <time>2020-06-22T20:30:11Z</time>
      </trkpt>
      <trkpt lat="50.85868" lon="1.71982">
        <ele>94.1</ele>
        <time>2020-06-22T20:30:12Z</time>
      </trkpt>
      <trkpt lat="50.8587" lon="1.71989">
        <ele>94.1</ele>
        <time>2020-06-22T20:30:13Z</time>
      </trkpt>
      <trkpt lat="50.85872" lon="1.71995">
        <ele>94.2</ele>
        <time>2020-06-22T20:30:14Z</time>
      </trkpt>
      <trkpt lat="50.85873" lon="1.72002">
        <ele>94.2</ele>
        <time>2020-06-22T20:30:15Z</time>
      </trkpt>
      <trkpt lat="50.85875" lon="1.7201">
        <ele>94.2</ele>
        <time>2020-06-22T20:30:16Z</time>
      </trkpt>
      <trkpt lat="50.85876" lon="1.72016">
        <ele>94.2</ele>
        <time>2020-06-22T20:30:17Z</time>
      </trkpt>
      <trkpt lat="50.85877" lon="1.72025">
        <ele>94.2</ele>
        <time>2020-06-22T20:30:18Z</time>
      </trkpt>
      <trkpt lat="50.85879" lon="1.72031">
        <ele>94.2</ele>
        <time>2020-06-22T20:30:19Z</time>
      </trkpt>
      <trkpt lat="50.8588" lon="1.7204">
        <ele>94.2</ele>
        <time>2020-06-22T20:30:20Z</time>
      </trkpt>
      <trkpt lat="50.85882" lon="1.72047">
        <ele>94.2</ele>
        <time>2020-06-22T20:30:21Z</time>
      </trkpt>
      <trkpt lat="50.85883" lon="1.72058">
        <ele>94.3</ele>
        <time>2020-06-22T20:30:22Z</time>
      </trkpt>
      <trkpt lat="50.85884" lon="1.72067">
        <ele>94.4</ele>
        <time>2020-06-22T20:30:23Z</time>
      </trkpt>
      <trkpt lat="50.85886" lon="1.72076">
        <ele>94.6</ele>
        <time>2020-06-22T20:30:24Z</time>
      </trkpt>
      <trkpt lat="50.85887" lon="1.72085">
        <ele>94.7</ele>
        <time>2020-06-22T20:30:25Z</time>
      </trkpt>
      <trkpt lat="50.85886" lon="1.72094">
        <ele>94.8</ele>
        <time>2020-06-22T20:30:26Z</time>
      </trkpt>
      <trkpt lat="50.85886" lon="1.72102">
        <ele>94.9</ele>
        <time>2020-06-22T20:30:27Z</time>
      </trkpt>
      <trkpt lat="50.85886" lon="1.7211">
        <ele>95</ele>
        <time>2020-06-22T20:30:28Z</time>
      </trkpt>
      <trkpt lat="50.85885" lon="1.72117">
        <ele>95.1</ele>
        <time>2020-06-22T20:30:29Z</time>
      </trkpt>
      <trkpt lat="50.85884" lon="1.72125">
        <ele>95.2</ele>
        <time>2020-06-22T20:30:30Z</time>
      </trkpt>
      <trkpt lat="50.85884" lon="1.72134">
        <ele>95.3</ele>
        <time>2020-06-22T20:30:31Z</time>
      </trkpt>
      <trkpt lat="50.85883" lon="1.7214">
        <ele>95.4</ele>
        <time>2020-06-22T20:30:32Z</time>
      </trkpt>
      <trkpt lat="50.85882" lon="1.72148">
        <ele>95.4</ele>
        <time>2020-06-22T20:30:33Z</time>
      </trkpt>
      <trkpt lat="50.85881" lon="1.72154">
        <ele>95.4</ele>
        <time>2020-06-22T20:30:34Z</time>
      </trkpt>
      <trkpt lat="50.85879" lon="1.72161">
        <ele>95.4</ele>
        <time>2020-06-22T20:30:35Z</time>
      </trkpt>
      <trkpt lat="50.85877" lon="1.72168">
        <ele>95.4</ele>
        <time>2020-06-22T20:30:36Z</time>
      </trkpt>
      <trkpt lat="50.85874" lon="1.72175">
        <ele>95.4</ele>
        <time>2020-06-22T20:30:37Z</time>
      </trkpt>
      <trkpt lat="50.85872" lon="1.72177">
        <ele>95.4</ele>
        <time>2020-06-22T20:30:38Z</time>
      </trkpt>
      <trkpt lat="50.85869" lon="1.72179">
        <ele>95.5</ele>
        <time>2020-06-22T20:30:39Z</time>
      </trkpt>
      <trkpt lat="50.85865" lon="1.7218">
        <ele>95.4</ele>
        <time>2020-06-22T20:30:40Z</time>
      </trkpt>
      <trkpt lat="50.85862" lon="1.72181">
        <ele>95.2</ele>
        <time>2020-06-22T20:30:41Z</time>
      </trkpt>
      <trkpt lat="50.85859" lon="1.72183">
        <ele>95</ele>
        <time>2020-06-22T20:30:42Z</time>
      </trkpt>
      <trkpt lat="50.85856" lon="1.72185">
        <ele>94.8</ele>
        <time>2020-06-22T20:30:43Z</time>
      </trkpt>
      <trkpt lat="50.85852" lon="1.72186">
        <ele>94.5</ele>
        <time>2020-06-22T20:30:44Z</time>
      </trkpt>
      <trkpt lat="50.8585" lon="1.72185">
        <ele>94.4</ele>
        <time>2020-06-22T20:30:45Z</time>
      </trkpt>
      <trkpt lat="50.85848" lon="1.72189">
        <ele>94.1</ele>
        <time>2020-06-22T20:30:46Z</time>
      </trkpt>
      <trkpt lat="50.85847" lon="1.7219">
        <ele>94</ele>
        <time>2020-06-22T20:30:47Z</time>
      </trkpt>
      <trkpt lat="50.85844" lon="1.72195">
        <ele>93.7</ele>
        <time>2020-06-22T20:30:48Z</time>
      </trkpt>
      <trkpt lat="50.85843" lon="1.72197">
        <ele>93.6</ele>
        <time>2020-06-22T20:30:49Z</time>
      </trkpt>
      <trkpt lat="50.8584" lon="1.72202">
        <ele>93.3</ele>
        <time>2020-06-22T20:30:50Z</time>
      </trkpt>
      <trkpt lat="50.85837" lon="1.72205">
        <ele>93</ele>
        <time>2020-06-22T20:30:51Z</time>
      </trkpt>
      <trkpt lat="50.85835" lon="1.7221">
        <ele>92.7</ele>
        <time>2020-06-22T20:30:52Z</time>
      </trkpt>
      <trkpt lat="50.85833" lon="1.72216">
        <ele>92.4</ele>
        <time>2020-06-22T20:30:53Z</time>
      </trkpt>
      <trkpt lat="50.8583" lon="1.72223">
        <ele>92</ele>
        <time>2020-06-22T20:30:54Z</time>
      </trkpt>
      <trkpt lat="50.85827" lon="1.7223">
        <ele>91.6</ele>
        <time>2020-06-22T20:30:55Z</time>
      </trkpt>
      <trkpt lat="50.85823" lon="1.72239">
        <ele>91.1</ele>
        <time>2020-06-22T20:30:56Z</time>
      </trkpt>
      <trkpt lat="50.8582" lon="1.72249">
        <ele>90.7</ele>
        <time>2020-06-22T20:30:57Z</time>
      </trkpt>
      <trkpt lat="50.85816" lon="1.7226">
        <ele>90.2</ele>
        <time>2020-06-22T20:30:58Z</time>
      </trkpt>
      <trkpt lat="50.85813" lon="1.72271">
        <ele>89.8</ele>
        <time>2020-06-22T20:30:59Z</time>
      </trkpt>
      <trkpt lat="50.85809" lon="1.72282">
        <ele>89.5</ele>
        <time>2020-06-22T20:31:00Z</time>
      </trkpt>
      <trkpt lat="50.85807" lon="1.72292">
        <ele>89.2</ele>
        <time>2020-06-22T20:31:01Z</time>
      </trkpt>
      <trkpt lat="50.85804" lon="1.72303">
        <ele>89</ele>
        <time>2020-06-22T20:31:02Z</time>
      </trkpt>
      <trkpt lat="50.85801" lon="1.72314">
        <ele>88.9</ele>
        <time>2020-06-22T20:31:03Z</time>
      </trkpt>
      <trkpt lat="50.85799" lon="1.72325">
        <ele>88.8</ele>
        <time>2020-06-22T20:31:04Z</time>
      </trkpt>
      <trkpt lat="50.85797" lon="1.72335">
        <ele>88.7</ele>
        <time>2020-06-22T20:31:05Z</time>
      </trkpt>
      <trkpt lat="50.85795" lon="1.72345">
        <ele>88.7</ele>
        <time>2020-06-22T20:31:06Z</time>
      </trkpt>
      <trkpt lat="50.85793" lon="1.72354">
        <ele>88.7</ele>
        <time>2020-06-22T20:31:07Z</time>
      </trkpt>
      <trkpt lat="50.85791" lon="1.72362">
        <ele>88.8</ele>
        <time>2020-06-22T20:31:08Z</time>
      </trkpt>
      <trkpt lat="50.85789" lon="1.72369">
        <ele>88.9</ele>
        <time>2020-06-22T20:31:09Z</time>
      </trkpt>
      <trkpt lat="50.85787" lon="1.72377">
        <ele>88.9</ele>
        <time>2020-06-22T20:31:10Z</time>
      </trkpt>
      <trkpt lat="50.85785" lon="1.72384">
        <ele>89</ele>
        <time>2020-06-22T20:31:11Z</time>
      </trkpt>
      <trkpt lat="50.85783" lon="1.72391">
        <ele>89</ele>
        <time>2020-06-22T20:31:12Z</time>
      </trkpt>
      <trkpt lat="50.85781" lon="1.72397">
        <ele>89.1</ele>
        <time>2020-06-22T20:31:13Z</time>
      </trkpt>
      <trkpt lat="50.8578" lon="1.72403">
        <ele>89.1</ele>
        <time>2020-06-22T20:31:14Z</time>
      </trkpt>
      <trkpt lat="50.85778" lon="1.72409">
        <ele>89.2</ele>
        <time>2020-06-22T20:31:15Z</time>
      </trkpt>
      <trkpt lat="50.85777" lon="1.72416">
        <ele>89.3</ele>
        <time>2020-06-22T20:31:16Z</time>
      </trkpt>
      <trkpt lat="50.85775" lon="1.72422">
        <ele>89.4</ele>
        <time>2020-06-22T20:31:17Z</time>
      </trkpt>
      <trkpt lat="50.85773" lon="1.72428">
        <ele>89.5</ele>
        <time>2020-06-22T20:31:18Z</time>
      </trkpt>
      <trkpt lat="50.8577" lon="1.72433">
        <ele>89.6</ele>
        <time>2020-06-22T20:31:19Z</time>
      </trkpt>
      <trkpt lat="50.85767" lon="1.72438">
        <ele>89.7</ele>
        <time>2020-06-22T20:31:20Z</time>
      </trkpt>
      <trkpt lat="50.85764" lon="1.72443">
        <ele>89.8</ele>
        <time>2020-06-22T20:31:21Z</time>
      </trkpt>
      <trkpt lat="50.85762" lon="1.72448">
        <ele>90</ele>
        <time>2020-06-22T20:31:22Z</time>
      </trkpt>
      <trkpt lat="50.85759" lon="1.72455">
        <ele>90.1</ele>
        <time>2020-06-22T20:31:23Z</time>
      </trkpt>
      <trkpt lat="50.85757" lon="1.72462">
        <ele>90.2</ele>
        <time>2020-06-22T20:31:24Z</time>
      </trkpt>
      <trkpt lat="50.85754" lon="1.72469">
        <ele>90.4</ele>
        <time>2020-06-22T20:31:25Z</time>
      </trkpt>
      <trkpt lat="50.85752" lon="1.72476">
        <ele>90.5</ele>
        <time>2020-06-22T20:31:26Z</time>
      </trkpt>
      <trkpt lat="50.8575" lon="1.72483">
        <ele>90.7</ele>
        <time>2020-06-22T20:31:27Z</time>
      </trkpt>
      <trkpt lat="50.85748" lon="1.72491">
        <ele>90.8</ele>
        <time>2020-06-22T20:31:28Z</time>
      </trkpt>
      <trkpt lat="50.85745" lon="1.72497">
        <ele>91</ele>
        <time>2020-06-22T20:31:29Z</time>
      </trkpt>
      <trkpt lat="50.85743" lon="1.72503">
        <ele>91.2</ele>
        <time>2020-06-22T20:31:30Z</time>
      </trkpt>
      <trkpt lat="50.8574" lon="1.72509">
        <ele>91.4</ele>
        <time>2020-06-22T20:31:31Z</time>
      </trkpt>
      <trkpt lat="50.85737" lon="1.72515">
        <ele>91.6</ele>
        <time>2020-06-22T20:31:32Z</time>
      </trkpt>
      <trkpt lat="50.85734" lon="1.72521">
        <ele>91.9</ele>
        <time>2020-06-22T20:31:33Z</time>
      </trkpt>
      <trkpt lat="50.85732" lon="1.72527">
        <ele>92.1</ele>
        <time>2020-06-22T20:31:34Z</time>
      </trkpt>
      <trkpt lat="50.8573" lon="1.72532">
        <ele>92.4</ele>
        <time>2020-06-22T20:31:35Z</time>
      </trkpt>
      <trkpt lat="50.85727" lon="1.72538">
        <ele>92.7</ele>
        <time>2020-06-22T20:31:36Z</time>
      </trkpt>
      <trkpt lat="50.85725" lon="1.72543">
        <ele>93</ele>
        <time>2020-06-22T20:31:37Z</time>
      </trkpt>
      <trkpt lat="50.85723" lon="1.72548">
        <ele>93.2</ele>
        <time>2020-06-22T20:31:38Z</time>
      </trkpt>
      <trkpt lat="50.85722" lon="1.72552">
        <ele>93.5</ele>
        <time>2020-06-22T20:31:39Z</time>
      </trkpt>
      <trkpt lat="50.85721" lon="1.72556">
        <ele>93.7</ele>
        <time>2020-06-22T20:31:40Z</time>
      </trkpt>
      <trkpt lat="50.85719" lon="1.72561">
        <ele>94</ele>
        <time>2020-06-22T20:31:41Z</time>
      </trkpt>
      <trkpt lat="50.85719" lon="1.72565">
        <ele>94.2</ele>
        <time>2020-06-22T20:31:42Z</time>
      </trkpt>
      <trkpt lat="50.85718" lon="1.72568">
        <ele>94.5</ele>
        <time>2020-06-22T20:31:43Z</time>
      </trkpt>
      <trkpt lat="50.85716" lon="1.72572">
        <ele>94.7</ele>
        <time>2020-06-22T20:31:44Z</time>
      </trkpt>
      <trkpt lat="50.85714" lon="1.72577">
        <ele>95.1</ele>
        <time>2020-06-22T20:31:45Z</time>
      </trkpt>
      <trkpt lat="50.85713" lon="1.7258">
        <ele>95.3</ele>
        <time>2020-06-22T20:31:46Z</time>
      </trkpt>
      <trkpt lat="50.85712" lon="1.72583">
        <ele>95.5</ele>
        <time>2020-06-22T20:31:47Z</time>
      </trkpt>
      <trkpt lat="50.8571" lon="1.72587">
        <ele>95.8</ele>
        <time>2020-06-22T20:31:48Z</time>
      </trkpt>
      <trkpt lat="50.85709" lon="1.72591">
        <ele>96.1</ele>
        <time>2020-06-22T20:31:49Z</time>
      </trkpt>
      <trkpt lat="50.85708" lon="1.72596">
        <ele>96.4</ele>
        <time>2020-06-22T20:31:50Z</time>
      </trkpt>
      <trkpt lat="50.85707" lon="1.72601">
        <ele>96.8</ele>
        <time>2020-06-22T20:31:51Z</time>
      </trkpt>
      <trkpt lat="50.85705" lon="1.72605">
        <ele>97.1</ele>
        <time>2020-06-22T20:31:52Z</time>
      </trkpt>
      <trkpt lat="50.85703" lon="1.7261">
        <ele>97.5</ele>
        <time>2020-06-22T20:31:53Z</time>
      </trkpt>
      <trkpt lat="50.85703" lon="1.72611">
        <ele>97.6</ele>
        <time>2020-06-22T20:31:54Z</time>
      </trkpt>
      <trkpt lat="50.85701" lon="1.72615">
        <ele>98</ele>
        <time>2020-06-22T20:31:55Z</time>
      </trkpt>
      <trkpt lat="50.857" lon="1.72616">
        <ele>98.1</ele>
        <time>2020-06-22T20:31:56Z</time>
      </trkpt>
      <trkpt lat="50.85697" lon="1.7262">
        <ele>98.5</ele>
        <time>2020-06-22T20:31:57Z</time>
      </trkpt>
      <trkpt lat="50.85695" lon="1.72624">
        <ele>98.8</ele>
        <time>2020-06-22T20:31:58Z</time>
      </trkpt>
      <trkpt lat="50.85693" lon="1.72627">
        <ele>99.2</ele>
        <time>2020-06-22T20:31:59Z</time>
      </trkpt>
      <trkpt lat="50.85691" lon="1.7263">
        <ele>99.5</ele>
        <time>2020-06-22T20:32:00Z</time>
      </trkpt>
      <trkpt lat="50.85689" lon="1.72634">
        <ele>99.8</ele>
        <time>2020-06-22T20:32:01Z</time>
      </trkpt>
      <trkpt lat="50.85688" lon="1.72638">
        <ele>100.1</ele>
        <time>2020-06-22T20:32:02Z</time>
      </trkpt>
      <trkpt lat="50.85687" lon="1.7264">
        <ele>100.2</ele>
        <time>2020-06-22T20:32:03Z</time>
      </trkpt>
      <trkpt lat="50.85685" lon="1.72644">
        <ele>100.6</ele>
        <time>2020-06-22T20:32:04Z</time>
      </trkpt>
      <trkpt lat="50.85684" lon="1.72645">
        <ele>100.7</ele>
        <time>2020-06-22T20:32:05Z</time>
      </trkpt>
      <trkpt lat="50.85683" lon="1.72648">
        <ele>101</ele>
        <time>2020-06-22T20:32:06Z</time>
      </trkpt>
      <trkpt lat="50.85682" lon="1.72649">
        <ele>101.1</ele>
        <time>2020-06-22T20:32:07Z</time>
      </trkpt>
      <trkpt lat="50.8568" lon="1.72651">
        <ele>101.4</ele>
        <time>2020-06-22T20:32:08Z</time>
      </trkpt>
      <trkpt lat="50.85679" lon="1.72652">
        <ele>101.5</ele>
        <time>2020-06-22T20:32:09Z</time>
      </trkpt>
      <trkpt lat="50.85679" lon="1.72653">
        <ele>101.6</ele>
        <time>2020-06-22T20:32:10Z</time>
      </trkpt>
      <trkpt lat="50.85678" lon="1.72656">
        <ele>101.8</ele>
        <time>2020-06-22T20:32:11Z</time>
      </trkpt>
      <trkpt lat="50.85677" lon="1.72658">
        <ele>102</ele>
        <time>2020-06-22T20:32:12Z</time>
      </trkpt>
      <trkpt lat="50.85676" lon="1.72663">
        <ele>102.4</ele>
        <time>2020-06-22T20:32:13Z</time>
      </trkpt>
      <trkpt lat="50.85675" lon="1.72665">
        <ele>102.5</ele>
        <time>2020-06-22T20:32:14Z</time>
      </trkpt>
      <trkpt lat="50.85674" lon="1.7267">
        <ele>103</ele>
        <time>2020-06-22T20:32:15Z</time>
      </trkpt>
      <trkpt lat="50.85673" lon="1.72671">
        <ele>103.1</ele>
        <time>2020-06-22T20:32:16Z</time>
      </trkpt>
      <trkpt lat="50.85671" lon="1.72675">
        <ele>103.5</ele>
        <time>2020-06-22T20:32:17Z</time>
      </trkpt>
      <trkpt lat="50.8567" lon="1.72676">
        <ele>103.7</ele>
        <time>2020-06-22T20:32:18Z</time>
      </trkpt>
      <trkpt lat="50.85667" lon="1.72679">
        <ele>104</ele>
        <time>2020-06-22T20:32:19Z</time>
      </trkpt>
      <trkpt lat="50.85665" lon="1.72683">
        <ele>104.5</ele>
        <time>2020-06-22T20:32:20Z</time>
      </trkpt>
      <trkpt lat="50.85664" lon="1.72684">
        <ele>104.6</ele>
        <time>2020-06-22T20:32:21Z</time>
      </trkpt>
      <trkpt lat="50.85661" lon="1.72687">
        <ele>105</ele>
        <time>2020-06-22T20:32:22Z</time>
      </trkpt>
      <trkpt lat="50.85659" lon="1.7269">
        <ele>105.3</ele>
        <time>2020-06-22T20:32:23Z</time>
      </trkpt>
      <trkpt lat="50.85658" lon="1.72693">
        <ele>105.7</ele>
        <time>2020-06-22T20:32:24Z</time>
      </trkpt>
      <trkpt lat="50.85656" lon="1.72697">
        <ele>106.1</ele>
        <time>2020-06-22T20:32:25Z</time>
      </trkpt>
      <trkpt lat="50.85655" lon="1.72701">
        <ele>106.4</ele>
        <time>2020-06-22T20:32:26Z</time>
      </trkpt>
      <trkpt lat="50.85652" lon="1.72706">
        <ele>107</ele>
        <time>2020-06-22T20:32:27Z</time>
      </trkpt>
      <trkpt lat="50.85651" lon="1.72708">
        <ele>107.2</ele>
        <time>2020-06-22T20:32:28Z</time>
      </trkpt>
      <trkpt lat="50.85649" lon="1.72712">
        <ele>107.7</ele>
        <time>2020-06-22T20:32:29Z</time>
      </trkpt>
      <trkpt lat="50.85646" lon="1.72717">
        <ele>108.2</ele>
        <time>2020-06-22T20:32:30Z</time>
      </trkpt>
      <trkpt lat="50.85644" lon="1.72721">
        <ele>108.6</ele>
        <time>2020-06-22T20:32:31Z</time>
      </trkpt>
      <trkpt lat="50.85642" lon="1.72725">
        <ele>109</ele>
        <time>2020-06-22T20:32:32Z</time>
      </trkpt>
      <trkpt lat="50.8564" lon="1.72729">
        <ele>109.5</ele>
        <time>2020-06-22T20:32:33Z</time>
      </trkpt>
      <trkpt lat="50.85639" lon="1.7273">
        <ele>109.6</ele>
        <time>2020-06-22T20:32:34Z</time>
      </trkpt>
      <trkpt lat="50.85637" lon="1.72734">
        <ele>110</ele>
        <time>2020-06-22T20:32:35Z</time>
      </trkpt>
      <trkpt lat="50.85637" lon="1.72735">
        <ele>110.1</ele>
        <time>2020-06-22T20:32:36Z</time>
      </trkpt>
      <trkpt lat="50.85634" lon="1.7274">
        <ele>110.6</ele>
        <time>2020-06-22T20:32:37Z</time>
      </trkpt>
      <trkpt lat="50.85633" lon="1.72741">
        <ele>110.8</ele>
        <time>2020-06-22T20:32:38Z</time>
      </trkpt>
      <trkpt lat="50.85631" lon="1.72746">
        <ele>111.2</ele>
        <time>2020-06-22T20:32:39Z</time>
      </trkpt>
      <trkpt lat="50.8563" lon="1.72747">
        <ele>111.4</ele>
        <time>2020-06-22T20:32:40Z</time>
      </trkpt>
      <trkpt lat="50.85627" lon="1.72751">
        <ele>111.8</ele>
        <time>2020-06-22T20:32:41Z</time>
      </trkpt>
      <trkpt lat="50.85626" lon="1.72753">
        <ele>112</ele>
        <time>2020-06-22T20:32:42Z</time>
      </trkpt>
      <trkpt lat="50.85624" lon="1.72756">
        <ele>112.4</ele>
        <time>2020-06-22T20:32:43Z</time>
      </trkpt>
      <trkpt lat="50.85623" lon="1.72757">
        <ele>112.5</ele>
        <time>2020-06-22T20:32:44Z</time>
      </trkpt>
      <trkpt lat="50.85621" lon="1.72761">
        <ele>112.8</ele>
        <time>2020-06-22T20:32:45Z</time>
      </trkpt>
      <trkpt lat="50.8562" lon="1.72762">
        <ele>112.9</ele>
        <time>2020-06-22T20:32:46Z</time>
      </trkpt>
      <trkpt lat="50.85618" lon="1.72765">
        <ele>113.2</ele>
        <time>2020-06-22T20:32:47Z</time>
      </trkpt>
      <trkpt lat="50.85617" lon="1.72766">
        <ele>113.3</ele>
        <time>2020-06-22T20:32:48Z</time>
      </trkpt>
      <trkpt lat="50.85614" lon="1.72771">
        <ele>113.6</ele>
        <time>2020-06-22T20:32:49Z</time>
      </trkpt>
      <trkpt lat="50.85614" lon="1.72772">
        <ele>113.7</ele>
        <time>2020-06-22T20:32:50Z</time>
      </trkpt>
      <trkpt lat="50.85611" lon="1.72776">
        <ele>114.1</ele>
        <time>2020-06-22T20:32:51Z</time>
      </trkpt>
      <trkpt lat="50.8561" lon="1.72778">
        <ele>114.1</ele>
        <time>2020-06-22T20:32:52Z</time>
      </trkpt>
      <trkpt lat="50.85608" lon="1.72781">
        <ele>114.4</ele>
        <time>2020-06-22T20:32:53Z</time>
      </trkpt>
      <trkpt lat="50.85607" lon="1.72784">
        <ele>114.5</ele>
        <time>2020-06-22T20:32:54Z</time>
      </trkpt>
      <trkpt lat="50.85605" lon="1.72787">
        <ele>114.7</ele>
        <time>2020-06-22T20:32:55Z</time>
      </trkpt>
      <trkpt lat="50.85602" lon="1.72791">
        <ele>114.9</ele>
        <time>2020-06-22T20:32:56Z</time>
      </trkpt>
      <trkpt lat="50.85601" lon="1.72792">
        <ele>114.9</ele>
        <time>2020-06-22T20:32:57Z</time>
      </trkpt>
      <trkpt lat="50.85599" lon="1.72797">
        <ele>115.1</ele>
        <time>2020-06-22T20:32:58Z</time>
      </trkpt>
      <trkpt lat="50.85598" lon="1.72798">
        <ele>115.2</ele>
        <time>2020-06-22T20:32:59Z</time>
      </trkpt>
      <trkpt lat="50.85596" lon="1.72803">
        <ele>115.3</ele>
        <time>2020-06-22T20:33:00Z</time>
      </trkpt>
      <trkpt lat="50.85596" lon="1.72804">
        <ele>115.3</ele>
        <time>2020-06-22T20:33:01Z</time>
      </trkpt>
      <trkpt lat="50.85596" lon="1.72809">
        <ele>115.4</ele>
        <time>2020-06-22T20:33:02Z</time>
      </trkpt>
      <trkpt lat="50.85597" lon="1.7281">
        <ele>115.4</ele>
        <time>2020-06-22T20:33:03Z</time>
      </trkpt>
      <trkpt lat="50.856" lon="1.72815">
        <ele>115.5</ele>
        <time>2020-06-22T20:33:04Z</time>
      </trkpt>
      <trkpt lat="50.85601" lon="1.72817">
        <ele>116.1</ele>
        <time>2020-06-22T20:33:05Z</time>
      </trkpt>
      <trkpt lat="50.85603" lon="1.72821">
        <ele>116.2</ele>
        <time>2020-06-22T20:33:06Z</time>
      </trkpt>
      <trkpt lat="50.85605" lon="1.72825">
        <ele>116.4</ele>
        <time>2020-06-22T20:33:07Z</time>
      </trkpt>
      <trkpt lat="50.85607" lon="1.7283">
        <ele>116.6</ele>
        <time>2020-06-22T20:33:08Z</time>
      </trkpt>
      <trkpt lat="50.85608" lon="1.72832">
        <ele>116.7</ele>
        <time>2020-06-22T20:33:09Z</time>
      </trkpt>
      <trkpt lat="50.8561" lon="1.72835">
        <ele>116.9</ele>
        <time>2020-06-22T20:33:10Z</time>
      </trkpt>
      <trkpt lat="50.85612" lon="1.72838">
        <ele>117</ele>
        <time>2020-06-22T20:33:11Z</time>
      </trkpt>
      <trkpt lat="50.85615" lon="1.72841">
        <ele>117.2</ele>
        <time>2020-06-22T20:33:12Z</time>
      </trkpt>
      <trkpt lat="50.85618" lon="1.72843">
        <ele>117.4</ele>
        <time>2020-06-22T20:33:13Z</time>
      </trkpt>
      <trkpt lat="50.85621" lon="1.72845">
        <ele>117.6</ele>
        <time>2020-06-22T20:33:14Z</time>
      </trkpt>
      <trkpt lat="50.85624" lon="1.72847">
        <ele>117.8</ele>
        <time>2020-06-22T20:33:15Z</time>
      </trkpt>
      <trkpt lat="50.85627" lon="1.72851">
        <ele>117.9</ele>
        <time>2020-06-22T20:33:16Z</time>
      </trkpt>
      <trkpt lat="50.8563" lon="1.72853">
        <ele>118.1</ele>
        <time>2020-06-22T20:33:17Z</time>
      </trkpt>
      <trkpt lat="50.85633" lon="1.72855">
        <ele>118.3</ele>
        <time>2020-06-22T20:33:18Z</time>
      </trkpt>
      <trkpt lat="50.85637" lon="1.72858">
        <ele>118.6</ele>
        <time>2020-06-22T20:33:19Z</time>
      </trkpt>
      <trkpt lat="50.85641" lon="1.72861">
        <ele>118.8</ele>
        <time>2020-06-22T20:33:20Z</time>
      </trkpt>
      <trkpt lat="50.85644" lon="1.72864">
        <ele>119.1</ele>
        <time>2020-06-22T20:33:21Z</time>
      </trkpt>
      <trkpt lat="50.85647" lon="1.72867">
        <ele>119.3</ele>
        <time>2020-06-22T20:33:22Z</time>
      </trkpt>
      <trkpt lat="50.8565" lon="1.72869">
        <ele>119.4</ele>
        <time>2020-06-22T20:33:23Z</time>
      </trkpt>
      <trkpt lat="50.85652" lon="1.72872">
        <ele>119.6</ele>
        <time>2020-06-22T20:33:24Z</time>
      </trkpt>
      <trkpt lat="50.85655" lon="1.72874">
        <ele>119.8</ele>
        <time>2020-06-22T20:33:25Z</time>
      </trkpt>
      <trkpt lat="50.85658" lon="1.72876">
        <ele>120</ele>
        <time>2020-06-22T20:33:26Z</time>
      </trkpt>
      <trkpt lat="50.85661" lon="1.72878">
        <ele>120.3</ele>
        <time>2020-06-22T20:33:27Z</time>
      </trkpt>
      <trkpt lat="50.85664" lon="1.72881">
        <ele>120.5</ele>
        <time>2020-06-22T20:33:28Z</time>
      </trkpt>
      <trkpt lat="50.85666" lon="1.72883">
        <ele>120.7</ele>
        <time>2020-06-22T20:33:29Z</time>
      </trkpt>
      <trkpt lat="50.85668" lon="1.72886">
        <ele>120.9</ele>
        <time>2020-06-22T20:33:30Z</time>
      </trkpt>
      <trkpt lat="50.85672" lon="1.72888">
        <ele>121.1</ele>
        <time>2020-06-22T20:33:31Z</time>
      </trkpt>
      <trkpt lat="50.85675" lon="1.72891">
        <ele>121.3</ele>
        <time>2020-06-22T20:33:32Z</time>
      </trkpt>
      <trkpt lat="50.85678" lon="1.72893">
        <ele>121.6</ele>
        <time>2020-06-22T20:33:33Z</time>
      </trkpt>
      <trkpt lat="50.85681" lon="1.72896">
        <ele>121.7</ele>
        <time>2020-06-22T20:33:34Z</time>
      </trkpt>
      <trkpt lat="50.85684" lon="1.72898">
        <ele>121.9</ele>
        <time>2020-06-22T20:33:35Z</time>
      </trkpt>
      <trkpt lat="50.85687" lon="1.72901">
        <ele>122.1</ele>
        <time>2020-06-22T20:33:36Z</time>
      </trkpt>
      <trkpt lat="50.85689" lon="1.72904">
        <ele>122.3</ele>
        <time>2020-06-22T20:33:37Z</time>
      </trkpt>
      <trkpt lat="50.85691" lon="1.72907">
        <ele>122.5</ele>
        <time>2020-06-22T20:33:38Z</time>
      </trkpt>
      <trkpt lat="50.85694" lon="1.72909">
        <ele>122.7</ele>
        <time>2020-06-22T20:33:39Z</time>
      </trkpt>
      <trkpt lat="50.85697" lon="1.72911">
        <ele>122.9</ele>
        <time>2020-06-22T20:33:40Z</time>
      </trkpt>
      <trkpt lat="50.85701" lon="1.72914">
        <ele>123.1</ele>
        <time>2020-06-22T20:33:41Z</time>
      </trkpt>
      <trkpt lat="50.85702" lon="1.72916">
        <ele>123.2</ele>
        <time>2020-06-22T20:33:42Z</time>
      </trkpt>
      <trkpt lat="50.85704" lon="1.72919">
        <ele>123.3</ele>
        <time>2020-06-22T20:33:43Z</time>
      </trkpt>
      <trkpt lat="50.85706" lon="1.72922">
        <ele>123.5</ele>
        <time>2020-06-22T20:33:44Z</time>
      </trkpt>
      <trkpt lat="50.85709" lon="1.72925">
        <ele>123.6</ele>
        <time>2020-06-22T20:33:45Z</time>
      </trkpt>
      <trkpt lat="50.85711" lon="1.72928">
        <ele>123.8</ele>
        <time>2020-06-22T20:33:46Z</time>
      </trkpt>
      <trkpt lat="50.85714" lon="1.72931">
        <ele>124</ele>
        <time>2020-06-22T20:33:47Z</time>
      </trkpt>
      <trkpt lat="50.85717" lon="1.72934">
        <ele>124.2</ele>
        <time>2020-06-22T20:33:48Z</time>
      </trkpt>
      <trkpt lat="50.85721" lon="1.72936">
        <ele>124.3</ele>
        <time>2020-06-22T20:33:49Z</time>
      </trkpt>
      <trkpt lat="50.85723" lon="1.72939">
        <ele>124.5</ele>
        <time>2020-06-22T20:33:50Z</time>
      </trkpt>
      <trkpt lat="50.85725" lon="1.72942">
        <ele>124.6</ele>
        <time>2020-06-22T20:33:51Z</time>
      </trkpt>
      <trkpt lat="50.85728" lon="1.72945">
        <ele>124.8</ele>
        <time>2020-06-22T20:33:52Z</time>
      </trkpt>
      <trkpt lat="50.85731" lon="1.72948">
        <ele>124.9</ele>
        <time>2020-06-22T20:33:53Z</time>
      </trkpt>
      <trkpt lat="50.85733" lon="1.72951">
        <ele>125.1</ele>
        <time>2020-06-22T20:33:54Z</time>
      </trkpt>
      <trkpt lat="50.85736" lon="1.72954">
        <ele>125.2</ele>
        <time>2020-06-22T20:33:55Z</time>
      </trkpt>
      <trkpt lat="50.85738" lon="1.72957">
        <ele>125.3</ele>
        <time>2020-06-22T20:33:56Z</time>
      </trkpt>
      <trkpt lat="50.8574" lon="1.7296">
        <ele>125.5</ele>
        <time>2020-06-22T20:33:57Z</time>
      </trkpt>
      <trkpt lat="50.85742" lon="1.72964">
        <ele>125.6</ele>
        <time>2020-06-22T20:33:58Z</time>
      </trkpt>
      <trkpt lat="50.85744" lon="1.72968">
        <ele>125.8</ele>
        <time>2020-06-22T20:33:59Z</time>
      </trkpt>
      <trkpt lat="50.85747" lon="1.72973">
        <ele>125.9</ele>
        <time>2020-06-22T20:34:00Z</time>
      </trkpt>
      <trkpt lat="50.8575" lon="1.72976">
        <ele>126.1</ele>
        <time>2020-06-22T20:34:01Z</time>
      </trkpt>
      <trkpt lat="50.85753" lon="1.7298">
        <ele>126.2</ele>
        <time>2020-06-22T20:34:02Z</time>
      </trkpt>
      <trkpt lat="50.85755" lon="1.72984">
        <ele>126.3</ele>
        <time>2020-06-22T20:34:03Z</time>
      </trkpt>
      <trkpt lat="50.85757" lon="1.72987">
        <ele>126.5</ele>
        <time>2020-06-22T20:34:04Z</time>
      </trkpt>
      <trkpt lat="50.8576" lon="1.72991">
        <ele>126.6</ele>
        <time>2020-06-22T20:34:05Z</time>
      </trkpt>
      <trkpt lat="50.85762" lon="1.72995">
        <ele>126.7</ele>
        <time>2020-06-22T20:34:06Z</time>
      </trkpt>
      <trkpt lat="50.85765" lon="1.72998">
        <ele>126.8</ele>
        <time>2020-06-22T20:34:07Z</time>
      </trkpt>
      <trkpt lat="50.85767" lon="1.73002">
        <ele>126.9</ele>
        <time>2020-06-22T20:34:08Z</time>
      </trkpt>
      <trkpt lat="50.85768" lon="1.73006">
        <ele>127</ele>
        <time>2020-06-22T20:34:09Z</time>
      </trkpt>
      <trkpt lat="50.85771" lon="1.73011">
        <ele>127.1</ele>
        <time>2020-06-22T20:34:10Z</time>
      </trkpt>
      <trkpt lat="50.85774" lon="1.73016">
        <ele>127.2</ele>
        <time>2020-06-22T20:34:11Z</time>
      </trkpt>
      <trkpt lat="50.85776" lon="1.73021">
        <ele>127.4</ele>
        <time>2020-06-22T20:34:12Z</time>
      </trkpt>
      <trkpt lat="50.85779" lon="1.73026">
        <ele>127.5</ele>
        <time>2020-06-22T20:34:13Z</time>
      </trkpt>
      <trkpt lat="50.85782" lon="1.73031">
        <ele>127.6</ele>
        <time>2020-06-22T20:34:14Z</time>
      </trkpt>
      <trkpt lat="50.85784" lon="1.73036">
        <ele>127.7</ele>
        <time>2020-06-22T20:34:15Z</time>
      </trkpt>
      <trkpt lat="50.85787" lon="1.73041">
        <ele>127.9</ele>
        <time>2020-06-22T20:34:16Z</time>
      </trkpt>
      <trkpt lat="50.85789" lon="1.73046">
        <ele>128</ele>
        <time>2020-06-22T20:34:17Z</time>
      </trkpt>
      <trkpt lat="50.85792" lon="1.7305">
        <ele>128.1</ele>
        <time>2020-06-22T20:34:18Z</time>
      </trkpt>
      <trkpt lat="50.85795" lon="1.73054">
        <ele>128.3</ele>
        <time>2020-06-22T20:34:19Z</time>
      </trkpt>
      <trkpt lat="50.85797" lon="1.73059">
        <ele>128.4</ele>
        <time>2020-06-22T20:34:20Z</time>
      </trkpt>
      <trkpt lat="50.858" lon="1.73063">
        <ele>128.5</ele>
        <time>2020-06-22T20:34:21Z</time>
      </trkpt>
      <trkpt lat="50.85803" lon="1.73068">
        <ele>128.7</ele>
        <time>2020-06-22T20:34:22Z</time>
      </trkpt>
      <trkpt lat="50.85806" lon="1.73074">
        <ele>128.8</ele>
        <time>2020-06-22T20:34:23Z</time>
      </trkpt>
      <trkpt lat="50.85808" lon="1.73077">
        <ele>128.9</ele>
        <time>2020-06-22T20:34:24Z</time>
      </trkpt>
      <trkpt lat="50.8581" lon="1.73081">
        <ele>129</ele>
        <time>2020-06-22T20:34:25Z</time>
      </trkpt>
      <trkpt lat="50.85812" lon="1.73085">
        <ele>129.1</ele>
        <time>2020-06-22T20:34:26Z</time>
      </trkpt>
      <trkpt lat="50.85814" lon="1.73089">
        <ele>129.2</ele>
        <time>2020-06-22T20:34:27Z</time>
      </trkpt>
      <trkpt lat="50.85816" lon="1.73094">
        <ele>129.3</ele>
        <time>2020-06-22T20:34:28Z</time>
      </trkpt>
      <trkpt lat="50.85818" lon="1.73099">
        <ele>129.4</ele>
        <time>2020-06-22T20:34:29Z</time>
      </trkpt>
      <trkpt lat="50.8582" lon="1.73104">
        <ele>129.6</ele>
        <time>2020-06-22T20:34:30Z</time>
      </trkpt>
      <trkpt lat="50.85823" lon="1.73108">
        <ele>129.7</ele>
        <time>2020-06-22T20:34:31Z</time>
      </trkpt>
      <trkpt lat="50.85826" lon="1.73112">
        <ele>129.9</ele>
        <time>2020-06-22T20:34:32Z</time>
      </trkpt>
      <trkpt lat="50.85829" lon="1.73116">
        <ele>130</ele>
        <time>2020-06-22T20:34:33Z</time>
      </trkpt>
      <trkpt lat="50.85832" lon="1.7312">
        <ele>130.2</ele>
        <time>2020-06-22T20:34:34Z</time>
      </trkpt>
      <trkpt lat="50.85835" lon="1.73125">
        <ele>130.3</ele>
        <time>2020-06-22T20:34:35Z</time>
      </trkpt>
      <trkpt lat="50.85838" lon="1.73128">
        <ele>130.5</ele>
        <time>2020-06-22T20:34:36Z</time>
      </trkpt>
      <trkpt lat="50.85841" lon="1.73131">
        <ele>130.6</ele>
        <time>2020-06-22T20:34:37Z</time>
      </trkpt>
      <trkpt lat="50.85844" lon="1.73134">
        <ele>130.8</ele>
        <time>2020-06-22T20:34:38Z</time>
      </trkpt>
      <trkpt lat="50.85847" lon="1.73138">
        <ele>130.9</ele>
        <time>2020-06-22T20:34:39Z</time>
      </trkpt>
      <trkpt lat="50.85851" lon="1.73141">
        <ele>131.1</ele>
        <time>2020-06-22T20:34:40Z</time>
      </trkpt>
      <trkpt lat="50.85854" lon="1.73144">
        <ele>131.3</ele>
        <time>2020-06-22T20:34:41Z</time>
      </trkpt>
      <trkpt lat="50.85857" lon="1.73148">
        <ele>131.5</ele>
        <time>2020-06-22T20:34:42Z</time>
      </trkpt>
      <trkpt lat="50.8586" lon="1.73152">
        <ele>131.7</ele>
        <time>2020-06-22T20:34:43Z</time>
      </trkpt>
      <trkpt lat="50.85863" lon="1.73156">
        <ele>131.9</ele>
        <time>2020-06-22T20:34:44Z</time>
      </trkpt>
      <trkpt lat="50.85866" lon="1.73158">
        <ele>132.1</ele>
        <time>2020-06-22T20:34:45Z</time>
      </trkpt>
      <trkpt lat="50.8587" lon="1.73162">
        <ele>132.4</ele>
        <time>2020-06-22T20:34:46Z</time>
      </trkpt>
      <trkpt lat="50.85873" lon="1.73165">
        <ele>132.6</ele>
        <time>2020-06-22T20:34:47Z</time>
      </trkpt>
      <trkpt lat="50.85876" lon="1.73168">
        <ele>132.8</ele>
        <time>2020-06-22T20:34:48Z</time>
      </trkpt>
      <trkpt lat="50.85879" lon="1.73171">
        <ele>133.1</ele>
        <time>2020-06-22T20:34:49Z</time>
      </trkpt>
      <trkpt lat="50.85883" lon="1.73173">
        <ele>133.3</ele>
        <time>2020-06-22T20:34:50Z</time>
      </trkpt>
      <trkpt lat="50.85887" lon="1.73173">
        <ele>133.6</ele>
        <time>2020-06-22T20:34:51Z</time>
      </trkpt>
      <trkpt lat="50.85891" lon="1.73176">
        <ele>133.9</ele>
        <time>2020-06-22T20:34:52Z</time>
      </trkpt>
      <trkpt lat="50.85894" lon="1.73178">
        <ele>134.1</ele>
        <time>2020-06-22T20:34:53Z</time>
      </trkpt>
      <trkpt lat="50.85898" lon="1.7318">
        <ele>134.4</ele>
        <time>2020-06-22T20:34:54Z</time>
      </trkpt>
      <trkpt lat="50.85901" lon="1.73182">
        <ele>134.6</ele>
        <time>2020-06-22T20:34:55Z</time>
      </trkpt>
      <trkpt lat="50.85905" lon="1.73184">
        <ele>134.9</ele>
        <time>2020-06-22T20:34:56Z</time>
      </trkpt>
      <trkpt lat="50.85908" lon="1.73186">
        <ele>135.2</ele>
        <time>2020-06-22T20:34:57Z</time>
      </trkpt>
      <trkpt lat="50.85912" lon="1.73187">
        <ele>135.5</ele>
        <time>2020-06-22T20:34:58Z</time>
      </trkpt>
      <trkpt lat="50.85916" lon="1.73189">
        <ele>135.8</ele>
        <time>2020-06-22T20:34:59Z</time>
      </trkpt>
      <trkpt lat="50.85918" lon="1.73192">
        <ele>136.1</ele>
        <time>2020-06-22T20:35:00Z</time>
      </trkpt>
      <trkpt lat="50.85921" lon="1.73195">
        <ele>136.4</ele>
        <time>2020-06-22T20:35:01Z</time>
      </trkpt>
      <trkpt lat="50.85924" lon="1.73199">
        <ele>136.7</ele>
        <time>2020-06-22T20:35:02Z</time>
      </trkpt>
      <trkpt lat="50.85927" lon="1.73202">
        <ele>137</ele>
        <time>2020-06-22T20:35:03Z</time>
      </trkpt>
      <trkpt lat="50.8593" lon="1.73203">
        <ele>137.2</ele>
        <time>2020-06-22T20:35:04Z</time>
      </trkpt>
      <trkpt lat="50.85934" lon="1.73205">
        <ele>137.5</ele>
        <time>2020-06-22T20:35:05Z</time>
      </trkpt>
      <trkpt lat="50.85937" lon="1.73206">
        <ele>137.8</ele>
        <time>2020-06-22T20:35:06Z</time>
      </trkpt>
      <trkpt lat="50.85941" lon="1.73207">
        <ele>138.1</ele>
        <time>2020-06-22T20:35:07Z</time>
      </trkpt>
      <trkpt lat="50.85945" lon="1.73207">
        <ele>138.4</ele>
        <time>2020-06-22T20:35:08Z</time>
      </trkpt>
      <trkpt lat="50.85948" lon="1.73208">
        <ele>138.7</ele>
        <time>2020-06-22T20:35:09Z</time>
      </trkpt>
      <trkpt lat="50.85951" lon="1.73208">
        <ele>138.9</ele>
        <time>2020-06-22T20:35:10Z</time>
      </trkpt>
      <trkpt lat="50.85955" lon="1.73209">
        <ele>139.3</ele>
        <time>2020-06-22T20:35:11Z</time>
      </trkpt>
      <trkpt lat="50.85957" lon="1.7321">
        <ele>139.4</ele>
        <time>2020-06-22T20:35:12Z</time>
      </trkpt>
      <trkpt lat="50.85961" lon="1.73211">
        <ele>139.7</ele>
        <time>2020-06-22T20:35:13Z</time>
      </trkpt>
      <trkpt lat="50.85964" lon="1.73211">
        <ele>139.9</ele>
        <time>2020-06-22T20:35:14Z</time>
      </trkpt>
      <trkpt lat="50.85967" lon="1.73211">
        <ele>140.1</ele>
        <time>2020-06-22T20:35:15Z</time>
      </trkpt>
      <trkpt lat="50.85971" lon="1.73212">
        <ele>140.4</ele>
        <time>2020-06-22T20:35:16Z</time>
      </trkpt>
      <trkpt lat="50.85974" lon="1.73213">
        <ele>140.8</ele>
        <time>2020-06-22T20:35:17Z</time>
      </trkpt>
      <trkpt lat="50.85978" lon="1.73213">
        <ele>141.1</ele>
        <time>2020-06-22T20:35:18Z</time>
      </trkpt>
      <trkpt lat="50.85981" lon="1.73214">
        <ele>141.4</ele>
        <time>2020-06-22T20:35:19Z</time>
      </trkpt>
      <trkpt lat="50.85984" lon="1.73214">
        <ele>141.7</ele>
        <time>2020-06-22T20:35:20Z</time>
      </trkpt>
      <trkpt lat="50.85988" lon="1.73213">
        <ele>142</ele>
        <time>2020-06-22T20:35:21Z</time>
      </trkpt>
      <trkpt lat="50.85991" lon="1.73211">
        <ele>142.3</ele>
        <time>2020-06-22T20:35:22Z</time>
      </trkpt>
      <trkpt lat="50.85994" lon="1.73209">
        <ele>142.5</ele>
        <time>2020-06-22T20:35:23Z</time>
      </trkpt>
      <trkpt lat="50.85998" lon="1.7321">
        <ele>142.8</ele>
        <time>2020-06-22T20:35:24Z</time>
      </trkpt>
      <trkpt lat="50.86001" lon="1.73209">
        <ele>143.1</ele>
        <time>2020-06-22T20:35:25Z</time>
      </trkpt>
      <trkpt lat="50.86004" lon="1.73209">
        <ele>143.3</ele>
        <time>2020-06-22T20:35:26Z</time>
      </trkpt>
      <trkpt lat="50.86008" lon="1.73208">
        <ele>143.7</ele>
        <time>2020-06-22T20:35:27Z</time>
      </trkpt>
      <trkpt lat="50.86012" lon="1.73207">
        <ele>144</ele>
        <time>2020-06-22T20:35:28Z</time>
      </trkpt>
      <trkpt lat="50.86015" lon="1.73206">
        <ele>144.3</ele>
        <time>2020-06-22T20:35:29Z</time>
      </trkpt>
      <trkpt lat="50.86018" lon="1.73205">
        <ele>144.6</ele>
        <time>2020-06-22T20:35:30Z</time>
      </trkpt>
      <trkpt lat="50.86021" lon="1.73204">
        <ele>144.8</ele>
        <time>2020-06-22T20:35:31Z</time>
      </trkpt>
      <trkpt lat="50.86024" lon="1.73203">
        <ele>145</ele>
        <time>2020-06-22T20:35:32Z</time>
      </trkpt>
      <trkpt lat="50.86028" lon="1.73201">
        <ele>145.3</ele>
        <time>2020-06-22T20:35:33Z</time>
      </trkpt>
      <trkpt lat="50.86031" lon="1.732">
        <ele>145.6</ele>
        <time>2020-06-22T20:35:34Z</time>
      </trkpt>
      <trkpt lat="50.86034" lon="1.73199">
        <ele>145.9</ele>
        <time>2020-06-22T20:35:35Z</time>
      </trkpt>
      <trkpt lat="50.86036" lon="1.73199">
        <ele>146.1</ele>
        <time>2020-06-22T20:35:36Z</time>
      </trkpt>
      <trkpt lat="50.8604" lon="1.73197">
        <ele>146.4</ele>
        <time>2020-06-22T20:35:37Z</time>
      </trkpt>
      <trkpt lat="50.86043" lon="1.73196">
        <ele>146.7</ele>
        <time>2020-06-22T20:35:38Z</time>
      </trkpt>
      <trkpt lat="50.86046" lon="1.73196">
        <ele>147</ele>
        <time>2020-06-22T20:35:39Z</time>
      </trkpt>
      <trkpt lat="50.86049" lon="1.73195">
        <ele>147.2</ele>
        <time>2020-06-22T20:35:40Z</time>
      </trkpt>
      <trkpt lat="50.86052" lon="1.73193">
        <ele>147.5</ele>
        <time>2020-06-22T20:35:41Z</time>
      </trkpt>
      <trkpt lat="50.86056" lon="1.73192">
        <ele>147.9</ele>
        <time>2020-06-22T20:35:42Z</time>
      </trkpt>
      <trkpt lat="50.8606" lon="1.73191">
        <ele>148.2</ele>
        <time>2020-06-22T20:35:43Z</time>
      </trkpt>
      <trkpt lat="50.86063" lon="1.73189">
        <ele>148.5</ele>
        <time>2020-06-22T20:35:44Z</time>
      </trkpt>
      <trkpt lat="50.86067" lon="1.73187">
        <ele>148.8</ele>
        <time>2020-06-22T20:35:45Z</time>
      </trkpt>
      <trkpt lat="50.8607" lon="1.73186">
        <ele>149</ele>
        <time>2020-06-22T20:35:46Z</time>
      </trkpt>
      <trkpt lat="50.86072" lon="1.73183">
        <ele>149.3</ele>
        <time>2020-06-22T20:35:47Z</time>
      </trkpt>
      <trkpt lat="50.86075" lon="1.73181">
        <ele>149.6</ele>
        <time>2020-06-22T20:35:48Z</time>
      </trkpt>
      <trkpt lat="50.86079" lon="1.7318">
        <ele>149.8</ele>
        <time>2020-06-22T20:35:49Z</time>
      </trkpt>
      <trkpt lat="50.86082" lon="1.73178">
        <ele>150.1</ele>
        <time>2020-06-22T20:35:50Z</time>
      </trkpt>
      <trkpt lat="50.86086" lon="1.73176">
        <ele>150.4</ele>
        <time>2020-06-22T20:35:51Z</time>
      </trkpt>
      <trkpt lat="50.86088" lon="1.73175">
        <ele>150.5</ele>
        <time>2020-06-22T20:35:52Z</time>
      </trkpt>
      <trkpt lat="50.86092" lon="1.73174">
        <ele>150.8</ele>
        <time>2020-06-22T20:35:53Z</time>
      </trkpt>
      <trkpt lat="50.86094" lon="1.73174">
        <ele>150.8</ele>
        <time>2020-06-22T20:35:54Z</time>
      </trkpt>
      <trkpt lat="50.86097" lon="1.73173">
        <ele>151</ele>
        <time>2020-06-22T20:35:55Z</time>
      </trkpt>
      <trkpt lat="50.861" lon="1.73173">
        <ele>151.1</ele>
        <time>2020-06-22T20:35:56Z</time>
      </trkpt>
      <trkpt lat="50.86103" lon="1.73172">
        <ele>151.2</ele>
        <time>2020-06-22T20:35:57Z</time>
      </trkpt>
      <trkpt lat="50.86106" lon="1.73171">
        <ele>151.4</ele>
        <time>2020-06-22T20:35:58Z</time>
      </trkpt>
      <trkpt lat="50.8611" lon="1.7317">
        <ele>151.5</ele>
        <time>2020-06-22T20:35:59Z</time>
      </trkpt>
      <trkpt lat="50.86113" lon="1.73168">
        <ele>151.7</ele>
        <time>2020-06-22T20:36:00Z</time>
      </trkpt>
      <trkpt lat="50.86116" lon="1.73166">
        <ele>151.8</ele>
        <time>2020-06-22T20:36:01Z</time>
      </trkpt>
      <trkpt lat="50.8612" lon="1.73166">
        <ele>152</ele>
        <time>2020-06-22T20:36:02Z</time>
      </trkpt>
      <trkpt lat="50.86123" lon="1.73164">
        <ele>152.1</ele>
        <time>2020-06-22T20:36:03Z</time>
      </trkpt>
      <trkpt lat="50.86127" lon="1.73164">
        <ele>152.2</ele>
        <time>2020-06-22T20:36:04Z</time>
      </trkpt>
      <trkpt lat="50.86131" lon="1.73164">
        <ele>152.4</ele>
        <time>2020-06-22T20:36:05Z</time>
      </trkpt>
      <trkpt lat="50.86134" lon="1.73164">
        <ele>152.5</ele>
        <time>2020-06-22T20:36:06Z</time>
      </trkpt>
      <trkpt lat="50.86137" lon="1.73163">
        <ele>152.5</ele>
        <time>2020-06-22T20:36:07Z</time>
      </trkpt>
      <trkpt lat="50.8614" lon="1.73162">
        <ele>152.6</ele>
        <time>2020-06-22T20:36:08Z</time>
      </trkpt>
      <trkpt lat="50.86143" lon="1.73162">
        <ele>152.7</ele>
        <time>2020-06-22T20:36:09Z</time>
      </trkpt>
      <trkpt lat="50.86147" lon="1.73163">
        <ele>152.7</ele>
        <time>2020-06-22T20:36:10Z</time>
      </trkpt>
      <trkpt lat="50.8615" lon="1.73164">
        <ele>152.8</ele>
        <time>2020-06-22T20:36:11Z</time>
      </trkpt>
      <trkpt lat="50.86153" lon="1.73164">
        <ele>152.8</ele>
        <time>2020-06-22T20:36:12Z</time>
      </trkpt>
      <trkpt lat="50.86157" lon="1.73165">
        <ele>152.8</ele>
        <time>2020-06-22T20:36:13Z</time>
      </trkpt>
      <trkpt lat="50.8616" lon="1.73166">
        <ele>152.8</ele>
        <time>2020-06-22T20:36:14Z</time>
      </trkpt>
      <trkpt lat="50.86164" lon="1.73166">
        <ele>152.9</ele>
        <time>2020-06-22T20:36:15Z</time>
      </trkpt>
      <trkpt lat="50.86168" lon="1.73167">
        <ele>152.9</ele>
        <time>2020-06-22T20:36:16Z</time>
      </trkpt>
      <trkpt lat="50.86171" lon="1.73167">
        <ele>152.9</ele>
        <time>2020-06-22T20:36:17Z</time>
      </trkpt>
      <trkpt lat="50.86175" lon="1.73169">
        <ele>152.8</ele>
        <time>2020-06-22T20:36:18Z</time>
      </trkpt>
      <trkpt lat="50.86178" lon="1.73171">
        <ele>152.8</ele>
        <time>2020-06-22T20:36:19Z</time>
      </trkpt>
      <trkpt lat="50.8618" lon="1.73173">
        <ele>152.8</ele>
        <time>2020-06-22T20:36:20Z</time>
      </trkpt>
      <trkpt lat="50.86184" lon="1.73176">
        <ele>152.7</ele>
        <time>2020-06-22T20:36:21Z</time>
      </trkpt>
      <trkpt lat="50.86187" lon="1.73178">
        <ele>152.7</ele>
        <time>2020-06-22T20:36:22Z</time>
      </trkpt>
      <trkpt lat="50.8619" lon="1.73181">
        <ele>152.6</ele>
        <time>2020-06-22T20:36:23Z</time>
      </trkpt>
      <trkpt lat="50.86194" lon="1.73183">
        <ele>152.5</ele>
        <time>2020-06-22T20:36:24Z</time>
      </trkpt>
      <trkpt lat="50.86198" lon="1.73186">
        <ele>152.5</ele>
        <time>2020-06-22T20:36:25Z</time>
      </trkpt>
      <trkpt lat="50.86202" lon="1.73189">
        <ele>152.4</ele>
        <time>2020-06-22T20:36:26Z</time>
      </trkpt>
      <trkpt lat="50.86206" lon="1.73191">
        <ele>152.3</ele>
        <time>2020-06-22T20:36:27Z</time>
      </trkpt>
      <trkpt lat="50.86209" lon="1.73195">
        <ele>152.2</ele>
        <time>2020-06-22T20:36:28Z</time>
      </trkpt>
      <trkpt lat="50.86212" lon="1.73199">
        <ele>152.2</ele>
        <time>2020-06-22T20:36:29Z</time>
      </trkpt>
      <trkpt lat="50.86216" lon="1.73203">
        <ele>152.1</ele>
        <time>2020-06-22T20:36:30Z</time>
      </trkpt>
      <trkpt lat="50.86219" lon="1.73208">
        <ele>152</ele>
        <time>2020-06-22T20:36:31Z</time>
      </trkpt>
      <trkpt lat="50.86223" lon="1.73212">
        <ele>151.9</ele>
        <time>2020-06-22T20:36:32Z</time>
      </trkpt>
      <trkpt lat="50.86227" lon="1.73216">
        <ele>151.8</ele>
        <time>2020-06-22T20:36:33Z</time>
      </trkpt>
      <trkpt lat="50.8623" lon="1.73222">
        <ele>151.7</ele>
        <time>2020-06-22T20:36:34Z</time>
      </trkpt>
      <trkpt lat="50.86233" lon="1.73227">
        <ele>151.6</ele>
        <time>2020-06-22T20:36:35Z</time>
      </trkpt>
      <trkpt lat="50.86237" lon="1.73232">
        <ele>151.5</ele>
        <time>2020-06-22T20:36:36Z</time>
      </trkpt>
      <trkpt lat="50.8624" lon="1.73237">
        <ele>151.5</ele>
        <time>2020-06-22T20:36:37Z</time>
      </trkpt>
      <trkpt lat="50.86243" lon="1.73243">
        <ele>151.4</ele>
        <time>2020-06-22T20:36:38Z</time>
      </trkpt>
      <trkpt lat="50.86246" lon="1.73249">
        <ele>151.3</ele>
        <time>2020-06-22T20:36:39Z</time>
      </trkpt>
      <trkpt lat="50.86249" lon="1.73255">
        <ele>151.2</ele>
        <time>2020-06-22T20:36:40Z</time>
      </trkpt>
      <trkpt lat="50.86252" lon="1.73262">
        <ele>151</ele>
        <time>2020-06-22T20:36:41Z</time>
      </trkpt>
      <trkpt lat="50.86255" lon="1.73267">
        <ele>150.9</ele>
        <time>2020-06-22T20:36:42Z</time>
      </trkpt>
      <trkpt lat="50.86259" lon="1.73273">
        <ele>150.8</ele>
        <time>2020-06-22T20:36:43Z</time>
      </trkpt>
      <trkpt lat="50.86262" lon="1.73279">
        <ele>150.7</ele>
        <time>2020-06-22T20:36:44Z</time>
      </trkpt>
      <trkpt lat="50.86264" lon="1.73285">
        <ele>150.6</ele>
        <time>2020-06-22T20:36:45Z</time>
      </trkpt>
      <trkpt lat="50.86266" lon="1.73293">
        <ele>150.5</ele>
        <time>2020-06-22T20:36:46Z</time>
      </trkpt>
      <trkpt lat="50.86269" lon="1.733">
        <ele>150.4</ele>
        <time>2020-06-22T20:36:47Z</time>
      </trkpt>
      <trkpt lat="50.86271" lon="1.73306">
        <ele>150.3</ele>
        <time>2020-06-22T20:36:48Z</time>
      </trkpt>
      <trkpt lat="50.86272" lon="1.73314">
        <ele>150.2</ele>
        <time>2020-06-22T20:36:49Z</time>
      </trkpt>
      <trkpt lat="50.86273" lon="1.73322">
        <ele>150.1</ele>
        <time>2020-06-22T20:36:50Z</time>
      </trkpt>
      <trkpt lat="50.86273" lon="1.73328">
        <ele>150</ele>
        <time>2020-06-22T20:36:51Z</time>
      </trkpt>
      <trkpt lat="50.86273" lon="1.73337">
        <ele>149.9</ele>
        <time>2020-06-22T20:36:52Z</time>
      </trkpt>
      <trkpt lat="50.86274" lon="1.73345">
        <ele>149.8</ele>
        <time>2020-06-22T20:36:53Z</time>
      </trkpt>
      <trkpt lat="50.86274" lon="1.73354">
        <ele>149.7</ele>
        <time>2020-06-22T20:36:54Z</time>
      </trkpt>
      <trkpt lat="50.86275" lon="1.73362">
        <ele>149.6</ele>
        <time>2020-06-22T20:36:55Z</time>
      </trkpt>
      <trkpt lat="50.86276" lon="1.7337">
        <ele>149.5</ele>
        <time>2020-06-22T20:36:56Z</time>
      </trkpt>
      <trkpt lat="50.86277" lon="1.73379">
        <ele>149.4</ele>
        <time>2020-06-22T20:36:57Z</time>
      </trkpt>
      <trkpt lat="50.86278" lon="1.73387">
        <ele>149.3</ele>
        <time>2020-06-22T20:36:58Z</time>
      </trkpt>
      <trkpt lat="50.86278" lon="1.73395">
        <ele>149.2</ele>
        <time>2020-06-22T20:36:59Z</time>
      </trkpt>
      <trkpt lat="50.86279" lon="1.73403">
        <ele>149.1</ele>
        <time>2020-06-22T20:37:00Z</time>
      </trkpt>
      <trkpt lat="50.86279" lon="1.73411">
        <ele>149</ele>
        <time>2020-06-22T20:37:01Z</time>
      </trkpt>
      <trkpt lat="50.86279" lon="1.73419">
        <ele>148.9</ele>
        <time>2020-06-22T20:37:02Z</time>
      </trkpt>
      <trkpt lat="50.8628" lon="1.73427">
        <ele>148.7</ele>
        <time>2020-06-22T20:37:03Z</time>
      </trkpt>
      <trkpt lat="50.8628" lon="1.73435">
        <ele>148.6</ele>
        <time>2020-06-22T20:37:04Z</time>
      </trkpt>
      <trkpt lat="50.86281" lon="1.73443">
        <ele>148.4</ele>
        <time>2020-06-22T20:37:05Z</time>
      </trkpt>
      <trkpt lat="50.86282" lon="1.73451">
        <ele>148.3</ele>
        <time>2020-06-22T20:37:06Z</time>
      </trkpt>
      <trkpt lat="50.86282" lon="1.73459">
        <ele>148</ele>
        <time>2020-06-22T20:37:07Z</time>
      </trkpt>
      <trkpt lat="50.86283" lon="1.73467">
        <ele>147.8</ele>
        <time>2020-06-22T20:37:08Z</time>
      </trkpt>
      <trkpt lat="50.86284" lon="1.73476">
        <ele>147.8</ele>
        <time>2020-06-22T20:37:09Z</time>
      </trkpt>
      <trkpt lat="50.86284" lon="1.73484">
        <ele>147.8</ele>
        <time>2020-06-22T20:37:10Z</time>
      </trkpt>
      <trkpt lat="50.86285" lon="1.73492">
        <ele>147.4</ele>
        <time>2020-06-22T20:37:11Z</time>
      </trkpt>
      <trkpt lat="50.86285" lon="1.735">
        <ele>147.2</ele>
        <time>2020-06-22T20:37:12Z</time>
      </trkpt>
      <trkpt lat="50.86285" lon="1.73508">
        <ele>147</ele>
        <time>2020-06-22T20:37:13Z</time>
      </trkpt>
      <trkpt lat="50.86285" lon="1.73516">
        <ele>146.8</ele>
        <time>2020-06-22T20:37:14Z</time>
      </trkpt>
      <trkpt lat="50.86285" lon="1.73525">
        <ele>146.5</ele>
        <time>2020-06-22T20:37:15Z</time>
      </trkpt>
      <trkpt lat="50.86285" lon="1.73534">
        <ele>146.3</ele>
        <time>2020-06-22T20:37:16Z</time>
      </trkpt>
      <trkpt lat="50.86286" lon="1.73543">
        <ele>146.1</ele>
        <time>2020-06-22T20:37:17Z</time>
      </trkpt>
      <trkpt lat="50.86286" lon="1.73552">
        <ele>145.9</ele>
        <time>2020-06-22T20:37:18Z</time>
      </trkpt>
      <trkpt lat="50.86287" lon="1.7356">
        <ele>145.6</ele>
        <time>2020-06-22T20:37:19Z</time>
      </trkpt>
      <trkpt lat="50.86288" lon="1.7357">
        <ele>145.3</ele>
        <time>2020-06-22T20:37:20Z</time>
      </trkpt>
      <trkpt lat="50.86289" lon="1.7358">
        <ele>145</ele>
        <time>2020-06-22T20:37:21Z</time>
      </trkpt>
      <trkpt lat="50.86289" lon="1.73591">
        <ele>144.6</ele>
        <time>2020-06-22T20:37:22Z</time>
      </trkpt>
      <trkpt lat="50.86289" lon="1.73601">
        <ele>144.4</ele>
        <time>2020-06-22T20:37:23Z</time>
      </trkpt>
      <trkpt lat="50.8629" lon="1.73612">
        <ele>144.1</ele>
        <time>2020-06-22T20:37:24Z</time>
      </trkpt>
      <trkpt lat="50.8629" lon="1.73623">
        <ele>143.8</ele>
        <time>2020-06-22T20:37:25Z</time>
      </trkpt>
      <trkpt lat="50.86291" lon="1.73634">
        <ele>143.5</ele>
        <time>2020-06-22T20:37:26Z</time>
      </trkpt>
      <trkpt lat="50.86291" lon="1.73645">
        <ele>143.3</ele>
        <time>2020-06-22T20:37:27Z</time>
      </trkpt>
      <trkpt lat="50.86291" lon="1.73657">
        <ele>143</ele>
        <time>2020-06-22T20:37:28Z</time>
      </trkpt>
      <trkpt lat="50.86293" lon="1.73667">
        <ele>142.7</ele>
        <time>2020-06-22T20:37:29Z</time>
      </trkpt>
      <trkpt lat="50.86294" lon="1.73678">
        <ele>142.5</ele>
        <time>2020-06-22T20:37:30Z</time>
      </trkpt>
      <trkpt lat="50.86296" lon="1.73689">
        <ele>142.2</ele>
        <time>2020-06-22T20:37:31Z</time>
      </trkpt>
      <trkpt lat="50.86299" lon="1.73701">
        <ele>142</ele>
        <time>2020-06-22T20:37:32Z</time>
      </trkpt>
      <trkpt lat="50.86301" lon="1.73712">
        <ele>141.7</ele>
        <time>2020-06-22T20:37:33Z</time>
      </trkpt>
      <trkpt lat="50.86304" lon="1.73723">
        <ele>141.4</ele>
        <time>2020-06-22T20:37:34Z</time>
      </trkpt>
      <trkpt lat="50.86308" lon="1.73734">
        <ele>141.2</ele>
        <time>2020-06-22T20:37:35Z</time>
      </trkpt>
      <trkpt lat="50.86311" lon="1.73744">
        <ele>141</ele>
        <time>2020-06-22T20:37:36Z</time>
      </trkpt>
      <trkpt lat="50.86315" lon="1.73753">
        <ele>140.8</ele>
        <time>2020-06-22T20:37:37Z</time>
      </trkpt>
      <trkpt lat="50.86319" lon="1.73762">
        <ele>140.6</ele>
        <time>2020-06-22T20:37:38Z</time>
      </trkpt>
      <trkpt lat="50.86324" lon="1.7377">
        <ele>140.5</ele>
        <time>2020-06-22T20:37:39Z</time>
      </trkpt>
      <trkpt lat="50.86329" lon="1.73778">
        <ele>140.3</ele>
        <time>2020-06-22T20:37:40Z</time>
      </trkpt>
      <trkpt lat="50.86334" lon="1.73786">
        <ele>140.2</ele>
        <time>2020-06-22T20:37:41Z</time>
      </trkpt>
      <trkpt lat="50.86339" lon="1.73793">
        <ele>140</ele>
        <time>2020-06-22T20:37:42Z</time>
      </trkpt>
      <trkpt lat="50.86344" lon="1.738">
        <ele>139.9</ele>
        <time>2020-06-22T20:37:43Z</time>
      </trkpt>
      <trkpt lat="50.8635" lon="1.73807">
        <ele>139.8</ele>
        <time>2020-06-22T20:37:44Z</time>
      </trkpt>
      <trkpt lat="50.86355" lon="1.73813">
        <ele>139.8</ele>
        <time>2020-06-22T20:37:45Z</time>
      </trkpt>
      <trkpt lat="50.86361" lon="1.73819">
        <ele>139.8</ele>
        <time>2020-06-22T20:37:46Z</time>
      </trkpt>
      <trkpt lat="50.86367" lon="1.73823">
        <ele>139.7</ele>
        <time>2020-06-22T20:37:47Z</time>
      </trkpt>
      <trkpt lat="50.86373" lon="1.73828">
        <ele>139.7</ele>
        <time>2020-06-22T20:37:48Z</time>
      </trkpt>
      <trkpt lat="50.86379" lon="1.73833">
        <ele>139.6</ele>
        <time>2020-06-22T20:37:49Z</time>
      </trkpt>
      <trkpt lat="50.86385" lon="1.73837">
        <ele>139.6</ele>
        <time>2020-06-22T20:37:50Z</time>
      </trkpt>
      <trkpt lat="50.86391" lon="1.73841">
        <ele>139.5</ele>
        <time>2020-06-22T20:37:51Z</time>
      </trkpt>
      <trkpt lat="50.86397" lon="1.73845">
        <ele>139.5</ele>
        <time>2020-06-22T20:37:52Z</time>
      </trkpt>
      <trkpt lat="50.86403" lon="1.73849">
        <ele>139.4</ele>
        <time>2020-06-22T20:37:53Z</time>
      </trkpt>
      <trkpt lat="50.86409" lon="1.73852">
        <ele>139.4</ele>
        <time>2020-06-22T20:37:54Z</time>
      </trkpt>
      <trkpt lat="50.86415" lon="1.73855">
        <ele>139.4</ele>
        <time>2020-06-22T20:37:55Z</time>
      </trkpt>
      <trkpt lat="50.86422" lon="1.73857">
        <ele>139.3</ele>
        <time>2020-06-22T20:37:56Z</time>
      </trkpt>
      <trkpt lat="50.86428" lon="1.73862">
        <ele>139.3</ele>
        <time>2020-06-22T20:37:57Z</time>
      </trkpt>
      <trkpt lat="50.86434" lon="1.73864">
        <ele>139.3</ele>
        <time>2020-06-22T20:37:58Z</time>
      </trkpt>
      <trkpt lat="50.8644" lon="1.73868">
        <ele>139.3</ele>
        <time>2020-06-22T20:37:59Z</time>
      </trkpt>
      <trkpt lat="50.86446" lon="1.73872">
        <ele>139.3</ele>
        <time>2020-06-22T20:38:00Z</time>
      </trkpt>
      <trkpt lat="50.86453" lon="1.73875">
        <ele>139.2</ele>
        <time>2020-06-22T20:38:01Z</time>
      </trkpt>
      <trkpt lat="50.86459" lon="1.73879">
        <ele>139.1</ele>
        <time>2020-06-22T20:38:02Z</time>
      </trkpt>
      <trkpt lat="50.86465" lon="1.73883">
        <ele>139</ele>
        <time>2020-06-22T20:38:03Z</time>
      </trkpt>
      <trkpt lat="50.86471" lon="1.73886">
        <ele>139</ele>
        <time>2020-06-22T20:38:04Z</time>
      </trkpt>
      <trkpt lat="50.86477" lon="1.73889">
        <ele>138.9</ele>
        <time>2020-06-22T20:38:05Z</time>
      </trkpt>
      <trkpt lat="50.86483" lon="1.73892">
        <ele>138.8</ele>
        <time>2020-06-22T20:38:06Z</time>
      </trkpt>
      <trkpt lat="50.8649" lon="1.73895">
        <ele>138.6</ele>
        <time>2020-06-22T20:38:07Z</time>
      </trkpt>
      <trkpt lat="50.86496" lon="1.73897">
        <ele>138.5</ele>
        <time>2020-06-22T20:38:08Z</time>
      </trkpt>
      <trkpt lat="50.86502" lon="1.739">
        <ele>138.4</ele>
        <time>2020-06-22T20:38:09Z</time>
      </trkpt>
      <trkpt lat="50.86508" lon="1.73903">
        <ele>138.2</ele>
        <time>2020-06-22T20:38:10Z</time>
      </trkpt>
      <trkpt lat="50.86514" lon="1.73907">
        <ele>138.1</ele>
        <time>2020-06-22T20:38:11Z</time>
      </trkpt>
      <trkpt lat="50.86521" lon="1.7391">
        <ele>137.8</ele>
        <time>2020-06-22T20:38:12Z</time>
      </trkpt>
      <trkpt lat="50.86527" lon="1.73913">
        <ele>137.6</ele>
        <time>2020-06-22T20:38:13Z</time>
      </trkpt>
      <trkpt lat="50.86534" lon="1.73916">
        <ele>137.4</ele>
        <time>2020-06-22T20:38:14Z</time>
      </trkpt>
      <trkpt lat="50.8654" lon="1.7392">
        <ele>137.2</ele>
        <time>2020-06-22T20:38:15Z</time>
      </trkpt>
      <trkpt lat="50.86547" lon="1.73924">
        <ele>136.9</ele>
        <time>2020-06-22T20:38:16Z</time>
      </trkpt>
      <trkpt lat="50.86553" lon="1.73927">
        <ele>136.7</ele>
        <time>2020-06-22T20:38:17Z</time>
      </trkpt>
      <trkpt lat="50.8656" lon="1.7393">
        <ele>136.4</ele>
        <time>2020-06-22T20:38:18Z</time>
      </trkpt>
      <trkpt lat="50.86567" lon="1.73934">
        <ele>136.1</ele>
        <time>2020-06-22T20:38:19Z</time>
      </trkpt>
      <trkpt lat="50.86574" lon="1.73938">
        <ele>135.8</ele>
        <time>2020-06-22T20:38:20Z</time>
      </trkpt>
      <trkpt lat="50.86581" lon="1.73941">
        <ele>135.5</ele>
        <time>2020-06-22T20:38:21Z</time>
      </trkpt>
      <trkpt lat="50.86588" lon="1.73945">
        <ele>135.2</ele>
        <time>2020-06-22T20:38:22Z</time>
      </trkpt>
      <trkpt lat="50.86595" lon="1.73949">
        <ele>135</ele>
        <time>2020-06-22T20:38:23Z</time>
      </trkpt>
      <trkpt lat="50.86602" lon="1.73954">
        <ele>134.7</ele>
        <time>2020-06-22T20:38:24Z</time>
      </trkpt>
      <trkpt lat="50.86609" lon="1.73959">
        <ele>134.5</ele>
        <time>2020-06-22T20:38:25Z</time>
      </trkpt>
      <trkpt lat="50.86616" lon="1.73964">
        <ele>134.2</ele>
        <time>2020-06-22T20:38:26Z</time>
      </trkpt>
      <trkpt lat="50.86623" lon="1.73969">
        <ele>134</ele>
        <time>2020-06-22T20:38:27Z</time>
      </trkpt>
      <trkpt lat="50.8663" lon="1.73973">
        <ele>133.8</ele>
        <time>2020-06-22T20:38:28Z</time>
      </trkpt>
      <trkpt lat="50.86638" lon="1.73977">
        <ele>133.5</ele>
        <time>2020-06-22T20:38:29Z</time>
      </trkpt>
      <trkpt lat="50.86645" lon="1.73981">
        <ele>133.3</ele>
        <time>2020-06-22T20:38:30Z</time>
      </trkpt>
      <trkpt lat="50.86653" lon="1.73985">
        <ele>133</ele>
        <time>2020-06-22T20:38:31Z</time>
      </trkpt>
      <trkpt lat="50.86661" lon="1.73989">
        <ele>132.7</ele>
        <time>2020-06-22T20:38:32Z</time>
      </trkpt>
      <trkpt lat="50.86668" lon="1.73994">
        <ele>132.4</ele>
        <time>2020-06-22T20:38:33Z</time>
      </trkpt>
      <trkpt lat="50.86676" lon="1.73999">
        <ele>132.1</ele>
        <time>2020-06-22T20:38:34Z</time>
      </trkpt>
      <trkpt lat="50.86683" lon="1.74003">
        <ele>131.9</ele>
        <time>2020-06-22T20:38:35Z</time>
      </trkpt>
      <trkpt lat="50.86691" lon="1.74007">
        <ele>131.6</ele>
        <time>2020-06-22T20:38:36Z</time>
      </trkpt>
      <trkpt lat="50.86699" lon="1.74011">
        <ele>131.2</ele>
        <time>2020-06-22T20:38:37Z</time>
      </trkpt>
      <trkpt lat="50.86707" lon="1.74015">
        <ele>130.9</ele>
        <time>2020-06-22T20:38:38Z</time>
      </trkpt>
      <trkpt lat="50.86715" lon="1.74019">
        <ele>130.6</ele>
        <time>2020-06-22T20:38:39Z</time>
      </trkpt>
      <trkpt lat="50.86723" lon="1.74023">
        <ele>130.3</ele>
        <time>2020-06-22T20:38:40Z</time>
      </trkpt>
      <trkpt lat="50.8673" lon="1.74028">
        <ele>130</ele>
        <time>2020-06-22T20:38:41Z</time>
      </trkpt>
      <trkpt lat="50.86738" lon="1.74033">
        <ele>129.7</ele>
        <time>2020-06-22T20:38:42Z</time>
      </trkpt>
      <trkpt lat="50.86746" lon="1.74038">
        <ele>129.3</ele>
        <time>2020-06-22T20:38:43Z</time>
      </trkpt>
      <trkpt lat="50.86754" lon="1.74043">
        <ele>129</ele>
        <time>2020-06-22T20:38:44Z</time>
      </trkpt>
      <trkpt lat="50.86762" lon="1.74048">
        <ele>128.7</ele>
        <time>2020-06-22T20:38:45Z</time>
      </trkpt>
      <trkpt lat="50.8677" lon="1.74053">
        <ele>128.4</ele>
        <time>2020-06-22T20:38:46Z</time>
      </trkpt>
      <trkpt lat="50.86778" lon="1.74057">
        <ele>128</ele>
        <time>2020-06-22T20:38:47Z</time>
      </trkpt>
      <trkpt lat="50.86786" lon="1.74062">
        <ele>127.7</ele>
        <time>2020-06-22T20:38:48Z</time>
      </trkpt>
      <trkpt lat="50.86794" lon="1.74067">
        <ele>127.3</ele>
        <time>2020-06-22T20:38:49Z</time>
      </trkpt>
      <trkpt lat="50.86803" lon="1.74072">
        <ele>127</ele>
        <time>2020-06-22T20:38:50Z</time>
      </trkpt>
      <trkpt lat="50.86811" lon="1.74076">
        <ele>126.6</ele>
        <time>2020-06-22T20:38:51Z</time>
      </trkpt>
      <trkpt lat="50.86819" lon="1.7408">
        <ele>126.2</ele>
        <time>2020-06-22T20:38:52Z</time>
      </trkpt>
      <trkpt lat="50.86828" lon="1.74084">
        <ele>125.9</ele>
        <time>2020-06-22T20:38:53Z</time>
      </trkpt>
      <trkpt lat="50.86836" lon="1.74089">
        <ele>125.6</ele>
        <time>2020-06-22T20:38:54Z</time>
      </trkpt>
      <trkpt lat="50.86844" lon="1.74093">
        <ele>125.2</ele>
        <time>2020-06-22T20:38:55Z</time>
      </trkpt>
      <trkpt lat="50.86853" lon="1.74098">
        <ele>124.8</ele>
        <time>2020-06-22T20:38:56Z</time>
      </trkpt>
      <trkpt lat="50.86861" lon="1.74102">
        <ele>124.4</ele>
        <time>2020-06-22T20:38:57Z</time>
      </trkpt>
      <trkpt lat="50.8687" lon="1.74108">
        <ele>124.1</ele>
        <time>2020-06-22T20:38:58Z</time>
      </trkpt>
      <trkpt lat="50.86878" lon="1.74112">
        <ele>123.7</ele>
        <time>2020-06-22T20:38:59Z</time>
      </trkpt>
      <trkpt lat="50.86887" lon="1.74117">
        <ele>123.4</ele>
        <time>2020-06-22T20:39:00Z</time>
      </trkpt>
      <trkpt lat="50.86895" lon="1.74121">
        <ele>123.1</ele>
        <time>2020-06-22T20:39:01Z</time>
      </trkpt>
      <trkpt lat="50.86904" lon="1.74125">
        <ele>122.7</ele>
        <time>2020-06-22T20:39:02Z</time>
      </trkpt>
      <trkpt lat="50.86912" lon="1.7413">
        <ele>122.4</ele>
        <time>2020-06-22T20:39:03Z</time>
      </trkpt>
      <trkpt lat="50.86921" lon="1.74135">
        <ele>121.9</ele>
        <time>2020-06-22T20:39:04Z</time>
      </trkpt>
      <trkpt lat="50.8693" lon="1.74139">
        <ele>121.5</ele>
        <time>2020-06-22T20:39:05Z</time>
      </trkpt>
      <trkpt lat="50.86938" lon="1.74144">
        <ele>121.1</ele>
        <time>2020-06-22T20:39:06Z</time>
      </trkpt>
      <trkpt lat="50.86947" lon="1.7415">
        <ele>120.7</ele>
        <time>2020-06-22T20:39:07Z</time>
      </trkpt>
      <trkpt lat="50.86955" lon="1.74155">
        <ele>120.3</ele>
        <time>2020-06-22T20:39:08Z</time>
      </trkpt>
      <trkpt lat="50.86964" lon="1.74161">
        <ele>120</ele>
        <time>2020-06-22T20:39:09Z</time>
      </trkpt>
      <trkpt lat="50.86972" lon="1.74166">
        <ele>119.6</ele>
        <time>2020-06-22T20:39:10Z</time>
      </trkpt>
      <trkpt lat="50.86981" lon="1.74171">
        <ele>119.3</ele>
        <time>2020-06-22T20:39:11Z</time>
      </trkpt>
      <trkpt lat="50.86989" lon="1.74177">
        <ele>119</ele>
        <time>2020-06-22T20:39:12Z</time>
      </trkpt>
      <trkpt lat="50.86998" lon="1.74181">
        <ele>118.7</ele>
        <time>2020-06-22T20:39:13Z</time>
      </trkpt>
      <trkpt lat="50.87007" lon="1.74186">
        <ele>118.3</ele>
        <time>2020-06-22T20:39:14Z</time>
      </trkpt>
      <trkpt lat="50.87016" lon="1.74191">
        <ele>118</ele>
        <time>2020-06-22T20:39:15Z</time>
      </trkpt>
      <trkpt lat="50.87024" lon="1.74195">
        <ele>117.7</ele>
        <time>2020-06-22T20:39:16Z</time>
      </trkpt>
      <trkpt lat="50.87033" lon="1.742">
        <ele>117.4</ele>
        <time>2020-06-22T20:39:17Z</time>
      </trkpt>
      <trkpt lat="50.87041" lon="1.74206">
        <ele>117</ele>
        <time>2020-06-22T20:39:18Z</time>
      </trkpt>
      <trkpt lat="50.8705" lon="1.74211">
        <ele>116.7</ele>
        <time>2020-06-22T20:39:19Z</time>
      </trkpt>
      <trkpt lat="50.87059" lon="1.74217">
        <ele>116.3</ele>
        <time>2020-06-22T20:39:20Z</time>
      </trkpt>
      <trkpt lat="50.87068" lon="1.74221">
        <ele>115.9</ele>
        <time>2020-06-22T20:39:21Z</time>
      </trkpt>
      <trkpt lat="50.87076" lon="1.74226">
        <ele>115.6</ele>
        <time>2020-06-22T20:39:22Z</time>
      </trkpt>
      <trkpt lat="50.87085" lon="1.74231">
        <ele>115.3</ele>
        <time>2020-06-22T20:39:23Z</time>
      </trkpt>
      <trkpt lat="50.87094" lon="1.74236">
        <ele>115</ele>
        <time>2020-06-22T20:39:24Z</time>
      </trkpt>
      <trkpt lat="50.87103" lon="1.74242">
        <ele>114.8</ele>
        <time>2020-06-22T20:39:25Z</time>
      </trkpt>
      <trkpt lat="50.87111" lon="1.74246">
        <ele>114.4</ele>
        <time>2020-06-22T20:39:26Z</time>
      </trkpt>
      <trkpt lat="50.8712" lon="1.74251">
        <ele>114.1</ele>
        <time>2020-06-22T20:39:27Z</time>
      </trkpt>
      <trkpt lat="50.87128" lon="1.74256">
        <ele>113.8</ele>
        <time>2020-06-22T20:39:28Z</time>
      </trkpt>
      <trkpt lat="50.87137" lon="1.74261">
        <ele>113.5</ele>
        <time>2020-06-22T20:39:29Z</time>
      </trkpt>
      <trkpt lat="50.87145" lon="1.74265">
        <ele>113.1</ele>
        <time>2020-06-22T20:39:30Z</time>
      </trkpt>
      <trkpt lat="50.87154" lon="1.7427">
        <ele>112.8</ele>
        <time>2020-06-22T20:39:31Z</time>
      </trkpt>
      <trkpt lat="50.87162" lon="1.74274">
        <ele>112.5</ele>
        <time>2020-06-22T20:39:32Z</time>
      </trkpt>
      <trkpt lat="50.87171" lon="1.7428">
        <ele>112.1</ele>
        <time>2020-06-22T20:39:33Z</time>
      </trkpt>
      <trkpt lat="50.8718" lon="1.74285">
        <ele>111.8</ele>
        <time>2020-06-22T20:39:34Z</time>
      </trkpt>
      <trkpt lat="50.87188" lon="1.7429">
        <ele>111.4</ele>
        <time>2020-06-22T20:39:35Z</time>
      </trkpt>
      <trkpt lat="50.87197" lon="1.74295">
        <ele>111</ele>
        <time>2020-06-22T20:39:36Z</time>
      </trkpt>
      <trkpt lat="50.87206" lon="1.743">
        <ele>110.6</ele>
        <time>2020-06-22T20:39:37Z</time>
      </trkpt>
      <trkpt lat="50.87214" lon="1.74304">
        <ele>110.2</ele>
        <time>2020-06-22T20:39:38Z</time>
      </trkpt>
      <trkpt lat="50.87223" lon="1.74309">
        <ele>109.8</ele>
        <time>2020-06-22T20:39:39Z</time>
      </trkpt>
      <trkpt lat="50.87232" lon="1.74314">
        <ele>109.4</ele>
        <time>2020-06-22T20:39:40Z</time>
      </trkpt>
      <trkpt lat="50.8724" lon="1.74318">
        <ele>109.1</ele>
        <time>2020-06-22T20:39:41Z</time>
      </trkpt>
      <trkpt lat="50.87249" lon="1.74323">
        <ele>108.7</ele>
        <time>2020-06-22T20:39:42Z</time>
      </trkpt>
      <trkpt lat="50.87258" lon="1.74328">
        <ele>108.5</ele>
        <time>2020-06-22T20:39:43Z</time>
      </trkpt>
      <trkpt lat="50.87266" lon="1.74333">
        <ele>108.2</ele>
        <time>2020-06-22T20:39:44Z</time>
      </trkpt>
      <trkpt lat="50.87275" lon="1.74338">
        <ele>108.1</ele>
        <time>2020-06-22T20:39:45Z</time>
      </trkpt>
      <trkpt lat="50.87283" lon="1.74342">
        <ele>107.9</ele>
        <time>2020-06-22T20:39:46Z</time>
      </trkpt>
      <trkpt lat="50.87291" lon="1.74347">
        <ele>107.9</ele>
        <time>2020-06-22T20:39:47Z</time>
      </trkpt>
      <trkpt lat="50.87299" lon="1.74351">
        <ele>107.9</ele>
        <time>2020-06-22T20:39:48Z</time>
      </trkpt>
      <trkpt lat="50.87307" lon="1.74356">
        <ele>108</ele>
        <time>2020-06-22T20:39:49Z</time>
      </trkpt>
      <trkpt lat="50.87314" lon="1.7436">
        <ele>108</ele>
        <time>2020-06-22T20:39:50Z</time>
      </trkpt>
      <trkpt lat="50.87322" lon="1.74363">
        <ele>108.2</ele>
        <time>2020-06-22T20:39:51Z</time>
      </trkpt>
      <trkpt lat="50.87329" lon="1.74367">
        <ele>108.3</ele>
        <time>2020-06-22T20:39:52Z</time>
      </trkpt>
      <trkpt lat="50.87335" lon="1.74371">
        <ele>108.4</ele>
        <time>2020-06-22T20:39:53Z</time>
      </trkpt>
      <trkpt lat="50.87342" lon="1.74375">
        <ele>108.6</ele>
        <time>2020-06-22T20:39:54Z</time>
      </trkpt>
      <trkpt lat="50.87348" lon="1.74378">
        <ele>108.7</ele>
        <time>2020-06-22T20:39:55Z</time>
      </trkpt>
      <trkpt lat="50.87354" lon="1.74382">
        <ele>108.9</ele>
        <time>2020-06-22T20:39:56Z</time>
      </trkpt>
      <trkpt lat="50.87361" lon="1.74384">
        <ele>109.1</ele>
        <time>2020-06-22T20:39:57Z</time>
      </trkpt>
      <trkpt lat="50.87368" lon="1.74387">
        <ele>109.3</ele>
        <time>2020-06-22T20:39:58Z</time>
      </trkpt>
      <trkpt lat="50.87374" lon="1.74391">
        <ele>109.6</ele>
        <time>2020-06-22T20:39:59Z</time>
      </trkpt>
      <trkpt lat="50.8738" lon="1.74394">
        <ele>109.9</ele>
        <time>2020-06-22T20:40:00Z</time>
      </trkpt>
      <trkpt lat="50.87387" lon="1.74397">
        <ele>110.2</ele>
        <time>2020-06-22T20:40:01Z</time>
      </trkpt>
      <trkpt lat="50.87393" lon="1.744">
        <ele>110.6</ele>
        <time>2020-06-22T20:40:02Z</time>
      </trkpt>
      <trkpt lat="50.87399" lon="1.74404">
        <ele>111.1</ele>
        <time>2020-06-22T20:40:03Z</time>
      </trkpt>
      <trkpt lat="50.87405" lon="1.74407">
        <ele>111.6</ele>
        <time>2020-06-22T20:40:04Z</time>
      </trkpt>
      <trkpt lat="50.8741" lon="1.74411">
        <ele>112.1</ele>
        <time>2020-06-22T20:40:05Z</time>
      </trkpt>
      <trkpt lat="50.87416" lon="1.74414">
        <ele>112.6</ele>
        <time>2020-06-22T20:40:06Z</time>
      </trkpt>
      <trkpt lat="50.87421" lon="1.74418">
        <ele>113.1</ele>
        <time>2020-06-22T20:40:07Z</time>
      </trkpt>
      <trkpt lat="50.87427" lon="1.7442">
        <ele>113.6</ele>
        <time>2020-06-22T20:40:08Z</time>
      </trkpt>
      <trkpt lat="50.87432" lon="1.74423">
        <ele>114.1</ele>
        <time>2020-06-22T20:40:09Z</time>
      </trkpt>
      <trkpt lat="50.87437" lon="1.74426">
        <ele>114.6</ele>
        <time>2020-06-22T20:40:10Z</time>
      </trkpt>
      <trkpt lat="50.87441" lon="1.74429">
        <ele>115</ele>
        <time>2020-06-22T20:40:11Z</time>
      </trkpt>
      <trkpt lat="50.87446" lon="1.74432">
        <ele>115.3</ele>
        <time>2020-06-22T20:40:12Z</time>
      </trkpt>
      <trkpt lat="50.8745" lon="1.74433">
        <ele>115.7</ele>
        <time>2020-06-22T20:40:13Z</time>
      </trkpt>
      <trkpt lat="50.87454" lon="1.74435">
        <ele>116</ele>
        <time>2020-06-22T20:40:14Z</time>
      </trkpt>
      <trkpt lat="50.87458" lon="1.74436">
        <ele>116.6</ele>
        <time>2020-06-22T20:40:15Z</time>
      </trkpt>
      <trkpt lat="50.87462" lon="1.74438">
        <ele>116.5</ele>
        <time>2020-06-22T20:40:16Z</time>
      </trkpt>
      <trkpt lat="50.87465" lon="1.74438">
        <ele>116.5</ele>
        <time>2020-06-22T20:40:17Z</time>
      </trkpt>
      <trkpt lat="50.87468" lon="1.74438">
        <ele>116.6</ele>
        <time>2020-06-22T20:40:18Z</time>
      </trkpt>
      <trkpt lat="50.87471" lon="1.7444">
        <ele>116.7</ele>
        <time>2020-06-22T20:40:19Z</time>
      </trkpt>
      <trkpt lat="50.87474" lon="1.74441">
        <ele>116.8</ele>
        <time>2020-06-22T20:40:20Z</time>
      </trkpt>
      <trkpt lat="50.87478" lon="1.74444">
        <ele>116.9</ele>
        <time>2020-06-22T20:40:21Z</time>
      </trkpt>
      <trkpt lat="50.8748" lon="1.74445">
        <ele>117</ele>
        <time>2020-06-22T20:40:22Z</time>
      </trkpt>
      <trkpt lat="50.87484" lon="1.74446">
        <ele>117.2</ele>
        <time>2020-06-22T20:40:23Z</time>
      </trkpt>
      <trkpt lat="50.87488" lon="1.74448">
        <ele>117.3</ele>
        <time>2020-06-22T20:40:24Z</time>
      </trkpt>
      <trkpt lat="50.87492" lon="1.7445">
        <ele>117.5</ele>
        <time>2020-06-22T20:40:25Z</time>
      </trkpt>
      <trkpt lat="50.87495" lon="1.74452">
        <ele>117.7</ele>
        <time>2020-06-22T20:40:26Z</time>
      </trkpt>
      <trkpt lat="50.87499" lon="1.74454">
        <ele>117.8</ele>
        <time>2020-06-22T20:40:27Z</time>
      </trkpt>
      <trkpt lat="50.87503" lon="1.74457">
        <ele>118</ele>
        <time>2020-06-22T20:40:28Z</time>
      </trkpt>
      <trkpt lat="50.87506" lon="1.74457">
        <ele>118.1</ele>
        <time>2020-06-22T20:40:29Z</time>
      </trkpt>
      <trkpt lat="50.87509" lon="1.74459">
        <ele>118.3</ele>
        <time>2020-06-22T20:40:30Z</time>
      </trkpt>
      <trkpt lat="50.87513" lon="1.74461">
        <ele>118.4</ele>
        <time>2020-06-22T20:40:31Z</time>
      </trkpt>
      <trkpt lat="50.87517" lon="1.74463">
        <ele>118.6</ele>
        <time>2020-06-22T20:40:32Z</time>
      </trkpt>
      <trkpt lat="50.87519" lon="1.74468">
        <ele>118.7</ele>
        <time>2020-06-22T20:40:33Z</time>
      </trkpt>
      <trkpt lat="50.8752" lon="1.74469">
        <ele>118.8</ele>
        <time>2020-06-22T20:40:34Z</time>
      </trkpt>
      <trkpt lat="50.87525" lon="1.74471">
        <ele>119</ele>
        <time>2020-06-22T20:40:35Z</time>
      </trkpt>
      <trkpt lat="50.87529" lon="1.74473">
        <ele>119.2</ele>
        <time>2020-06-22T20:40:36Z</time>
      </trkpt>
      <trkpt lat="50.87532" lon="1.74473">
        <ele>119.3</ele>
        <time>2020-06-22T20:40:37Z</time>
      </trkpt>
      <trkpt lat="50.87533" lon="1.74473">
        <ele>119.3</ele>
        <time>2020-06-22T20:40:38Z</time>
      </trkpt>
      <trkpt lat="50.87536" lon="1.74474">
        <ele>119.4</ele>
        <time>2020-06-22T20:40:39Z</time>
      </trkpt>
      <trkpt lat="50.87537" lon="1.74475">
        <ele>119.5</ele>
        <time>2020-06-22T20:40:40Z</time>
      </trkpt>
      <trkpt lat="50.87537" lon="1.74477">
        <ele>119.5</ele>
        <time>2020-06-22T20:40:41Z</time>
      </trkpt>
      <trkpt lat="50.87538" lon="1.74479">
        <ele>119.5</ele>
        <time>2020-06-22T20:40:42Z</time>
      </trkpt>
      <trkpt lat="50.8754" lon="1.74482">
        <ele>119.4</ele>
        <time>2020-06-22T20:40:43Z</time>
      </trkpt>
      <trkpt lat="50.87543" lon="1.74485">
        <ele>119.3</ele>
        <time>2020-06-22T20:40:44Z</time>
      </trkpt>
      <trkpt lat="50.87543" lon="1.74486">
        <ele>119.3</ele>
        <time>2020-06-22T20:40:45Z</time>
      </trkpt>
      <trkpt lat="50.87544" lon="1.74489">
        <ele>119.2</ele>
        <time>2020-06-22T20:40:46Z</time>
      </trkpt>
      <trkpt lat="50.87544" lon="1.74491">
        <ele>119.2</ele>
        <time>2020-06-22T20:40:47Z</time>
      </trkpt>
      <trkpt lat="50.87544" lon="1.74493">
        <ele>119.1</ele>
        <time>2020-06-22T20:40:48Z</time>
      </trkpt>
      <trkpt lat="50.87543" lon="1.74498">
        <ele>119</ele>
        <time>2020-06-22T20:40:49Z</time>
      </trkpt>
      <trkpt lat="50.87543" lon="1.74504">
        <ele>118.9</ele>
        <time>2020-06-22T20:40:50Z</time>
      </trkpt>
      <trkpt lat="50.87543" lon="1.7451">
        <ele>118.7</ele>
        <time>2020-06-22T20:40:51Z</time>
      </trkpt>
      <trkpt lat="50.87544" lon="1.74515">
        <ele>118.5</ele>
        <time>2020-06-22T20:40:52Z</time>
      </trkpt>
      <trkpt lat="50.87544" lon="1.74521">
        <ele>118.4</ele>
        <time>2020-06-22T20:40:53Z</time>
      </trkpt>
      <trkpt lat="50.87545" lon="1.74528">
        <ele>118.3</ele>
        <time>2020-06-22T20:40:54Z</time>
      </trkpt>
      <trkpt lat="50.87546" lon="1.74535">
        <ele>118.2</ele>
        <time>2020-06-22T20:40:55Z</time>
      </trkpt>
      <trkpt lat="50.87547" lon="1.74541">
        <ele>118.1</ele>
        <time>2020-06-22T20:40:56Z</time>
      </trkpt>
      <trkpt lat="50.87547" lon="1.74547">
        <ele>118.1</ele>
        <time>2020-06-22T20:40:57Z</time>
      </trkpt>
      <trkpt lat="50.87547" lon="1.74556">
        <ele>117.9</ele>
        <time>2020-06-22T20:40:58Z</time>
      </trkpt>
      <trkpt lat="50.87547" lon="1.74564">
        <ele>117.8</ele>
        <time>2020-06-22T20:40:59Z</time>
      </trkpt>
      <trkpt lat="50.87548" lon="1.74572">
        <ele>117.7</ele>
        <time>2020-06-22T20:41:00Z</time>
      </trkpt>
      <trkpt lat="50.87549" lon="1.74581">
        <ele>117.6</ele>
        <time>2020-06-22T20:41:01Z</time>
      </trkpt>
      <trkpt lat="50.8755" lon="1.7459">
        <ele>117.3</ele>
        <time>2020-06-22T20:41:02Z</time>
      </trkpt>
      <trkpt lat="50.87551" lon="1.746">
        <ele>117.2</ele>
        <time>2020-06-22T20:41:03Z</time>
      </trkpt>
      <trkpt lat="50.87552" lon="1.74611">
        <ele>117.1</ele>
        <time>2020-06-22T20:41:04Z</time>
      </trkpt>
      <trkpt lat="50.87552" lon="1.74622">
        <ele>117.1</ele>
        <time>2020-06-22T20:41:05Z</time>
      </trkpt>
      <trkpt lat="50.87552" lon="1.74634">
        <ele>116.9</ele>
        <time>2020-06-22T20:41:06Z</time>
      </trkpt>
      <trkpt lat="50.87554" lon="1.74645">
        <ele>116.8</ele>
        <time>2020-06-22T20:41:07Z</time>
      </trkpt>
      <trkpt lat="50.87554" lon="1.74655">
        <ele>116.7</ele>
        <time>2020-06-22T20:41:08Z</time>
      </trkpt>
      <trkpt lat="50.87555" lon="1.74665">
        <ele>116.6</ele>
        <time>2020-06-22T20:41:09Z</time>
      </trkpt>
      <trkpt lat="50.87556" lon="1.74676">
        <ele>116.4</ele>
        <time>2020-06-22T20:41:10Z</time>
      </trkpt>
      <trkpt lat="50.87557" lon="1.74686">
        <ele>116.4</ele>
        <time>2020-06-22T20:41:11Z</time>
      </trkpt>
      <trkpt lat="50.87558" lon="1.74698">
        <ele>116.3</ele>
        <time>2020-06-22T20:41:12Z</time>
      </trkpt>
      <trkpt lat="50.87558" lon="1.74709">
        <ele>116.2</ele>
        <time>2020-06-22T20:41:13Z</time>
      </trkpt>
      <trkpt lat="50.87559" lon="1.7472">
        <ele>116.1</ele>
        <time>2020-06-22T20:41:14Z</time>
      </trkpt>
      <trkpt lat="50.87559" lon="1.74732">
        <ele>116.1</ele>
        <time>2020-06-22T20:41:15Z</time>
      </trkpt>
      <trkpt lat="50.87559" lon="1.74744">
        <ele>116.1</ele>
        <time>2020-06-22T20:41:16Z</time>
      </trkpt>
      <trkpt lat="50.87559" lon="1.74755">
        <ele>116.1</ele>
        <time>2020-06-22T20:41:17Z</time>
      </trkpt>
      <trkpt lat="50.87559" lon="1.74766">
        <ele>116.2</ele>
        <time>2020-06-22T20:41:18Z</time>
      </trkpt>
      <trkpt lat="50.8756" lon="1.74776">
        <ele>116.3</ele>
        <time>2020-06-22T20:41:19Z</time>
      </trkpt>
      <trkpt lat="50.8756" lon="1.74787">
        <ele>116.4</ele>
        <time>2020-06-22T20:41:20Z</time>
      </trkpt>
      <trkpt lat="50.8756" lon="1.74798">
        <ele>116.6</ele>
        <time>2020-06-22T20:41:21Z</time>
      </trkpt>
      <trkpt lat="50.87561" lon="1.74808">
        <ele>116.7</ele>
        <time>2020-06-22T20:41:22Z</time>
      </trkpt>
      <trkpt lat="50.87561" lon="1.74818">
        <ele>116.9</ele>
        <time>2020-06-22T20:41:23Z</time>
      </trkpt>
      <trkpt lat="50.87562" lon="1.74827">
        <ele>117.1</ele>
        <time>2020-06-22T20:41:24Z</time>
      </trkpt>
      <trkpt lat="50.87563" lon="1.74837">
        <ele>117.3</ele>
        <time>2020-06-22T20:41:25Z</time>
      </trkpt>
      <trkpt lat="50.87564" lon="1.74845">
        <ele>117.5</ele>
        <time>2020-06-22T20:41:26Z</time>
      </trkpt>
      <trkpt lat="50.87564" lon="1.74854">
        <ele>117.7</ele>
        <time>2020-06-22T20:41:27Z</time>
      </trkpt>
      <trkpt lat="50.87565" lon="1.74863">
        <ele>117.9</ele>
        <time>2020-06-22T20:41:28Z</time>
      </trkpt>
      <trkpt lat="50.87565" lon="1.74871">
        <ele>118</ele>
        <time>2020-06-22T20:41:29Z</time>
      </trkpt>
      <trkpt lat="50.87567" lon="1.74879">
        <ele>118.1</ele>
        <time>2020-06-22T20:41:30Z</time>
      </trkpt>
      <trkpt lat="50.87568" lon="1.74887">
        <ele>118.1</ele>
        <time>2020-06-22T20:41:31Z</time>
      </trkpt>
      <trkpt lat="50.87568" lon="1.74894">
        <ele>118.2</ele>
        <time>2020-06-22T20:41:32Z</time>
      </trkpt>
      <trkpt lat="50.87569" lon="1.74901">
        <ele>118.2</ele>
        <time>2020-06-22T20:41:33Z</time>
      </trkpt>
      <trkpt lat="50.8757" lon="1.74908">
        <ele>118.2</ele>
        <time>2020-06-22T20:41:34Z</time>
      </trkpt>
      <trkpt lat="50.87571" lon="1.74915">
        <ele>118.2</ele>
        <time>2020-06-22T20:41:35Z</time>
      </trkpt>
      <trkpt lat="50.87572" lon="1.74921">
        <ele>118.3</ele>
        <time>2020-06-22T20:41:36Z</time>
      </trkpt>
      <trkpt lat="50.87573" lon="1.74928">
        <ele>118.3</ele>
        <time>2020-06-22T20:41:37Z</time>
      </trkpt>
      <trkpt lat="50.87574" lon="1.74934">
        <ele>118.3</ele>
        <time>2020-06-22T20:41:38Z</time>
      </trkpt>
      <trkpt lat="50.87576" lon="1.7494">
        <ele>118.2</ele>
        <time>2020-06-22T20:41:39Z</time>
      </trkpt>
      <trkpt lat="50.87578" lon="1.74946">
        <ele>118.2</ele>
        <time>2020-06-22T20:41:40Z</time>
      </trkpt>
      <trkpt lat="50.87579" lon="1.74951">
        <ele>118.2</ele>
        <time>2020-06-22T20:41:41Z</time>
      </trkpt>
      <trkpt lat="50.87579" lon="1.74957">
        <ele>118.2</ele>
        <time>2020-06-22T20:41:42Z</time>
      </trkpt>
      <trkpt lat="50.87579" lon="1.7496">
        <ele>118.2</ele>
        <time>2020-06-22T20:41:43Z</time>
      </trkpt>
      <trkpt lat="50.87579" lon="1.74965">
        <ele>118.1</ele>
        <time>2020-06-22T20:41:44Z</time>
      </trkpt>
      <trkpt lat="50.87579" lon="1.74971">
        <ele>118.1</ele>
        <time>2020-06-22T20:41:45Z</time>
      </trkpt>
      <trkpt lat="50.8758" lon="1.74976">
        <ele>118</ele>
        <time>2020-06-22T20:41:46Z</time>
      </trkpt>
      <trkpt lat="50.87581" lon="1.74982">
        <ele>118.1</ele>
        <time>2020-06-22T20:41:47Z</time>
      </trkpt>
      <trkpt lat="50.87581" lon="1.74987">
        <ele>118.1</ele>
        <time>2020-06-22T20:41:48Z</time>
      </trkpt>
      <trkpt lat="50.87582" lon="1.74993">
        <ele>118.1</ele>
        <time>2020-06-22T20:41:49Z</time>
      </trkpt>
      <trkpt lat="50.87583" lon="1.75001">
        <ele>118</ele>
        <time>2020-06-22T20:41:50Z</time>
      </trkpt>
      <trkpt lat="50.87584" lon="1.75008">
        <ele>118</ele>
        <time>2020-06-22T20:41:51Z</time>
      </trkpt>
      <trkpt lat="50.87585" lon="1.75015">
        <ele>118</ele>
        <time>2020-06-22T20:41:52Z</time>
      </trkpt>
      <trkpt lat="50.87587" lon="1.75021">
        <ele>117.9</ele>
        <time>2020-06-22T20:41:53Z</time>
      </trkpt>
      <trkpt lat="50.87588" lon="1.7503">
        <ele>117.8</ele>
        <time>2020-06-22T20:41:54Z</time>
      </trkpt>
      <trkpt lat="50.87589" lon="1.75039">
        <ele>117.7</ele>
        <time>2020-06-22T20:41:55Z</time>
      </trkpt>
      <trkpt lat="50.87591" lon="1.75048">
        <ele>117.6</ele>
        <time>2020-06-22T20:41:56Z</time>
      </trkpt>
      <trkpt lat="50.87591" lon="1.75057">
        <ele>117.5</ele>
        <time>2020-06-22T20:41:57Z</time>
      </trkpt>
      <trkpt lat="50.87593" lon="1.75065">
        <ele>117.3</ele>
        <time>2020-06-22T20:41:58Z</time>
      </trkpt>
      <trkpt lat="50.87593" lon="1.75073">
        <ele>117.2</ele>
        <time>2020-06-22T20:41:59Z</time>
      </trkpt>
      <trkpt lat="50.87594" lon="1.75084">
        <ele>117.1</ele>
        <time>2020-06-22T20:42:00Z</time>
      </trkpt>
      <trkpt lat="50.87596" lon="1.7509">
        <ele>117</ele>
        <time>2020-06-22T20:42:01Z</time>
      </trkpt>
      <trkpt lat="50.87598" lon="1.75097">
        <ele>116.8</ele>
        <time>2020-06-22T20:42:02Z</time>
      </trkpt>
      <trkpt lat="50.876" lon="1.75107">
        <ele>116.7</ele>
        <time>2020-06-22T20:42:03Z</time>
      </trkpt>
      <trkpt lat="50.87603" lon="1.75118">
        <ele>116.6</ele>
        <time>2020-06-22T20:42:04Z</time>
      </trkpt>
      <trkpt lat="50.87606" lon="1.75129">
        <ele>116.5</ele>
        <time>2020-06-22T20:42:05Z</time>
      </trkpt>
      <trkpt lat="50.87608" lon="1.75138">
        <ele>116.4</ele>
        <time>2020-06-22T20:42:06Z</time>
      </trkpt>
      <trkpt lat="50.87611" lon="1.75146">
        <ele>116.3</ele>
        <time>2020-06-22T20:42:07Z</time>
      </trkpt>
      <trkpt lat="50.87614" lon="1.75156">
        <ele>116.3</ele>
        <time>2020-06-22T20:42:08Z</time>
      </trkpt>
      <trkpt lat="50.87616" lon="1.75166">
        <ele>116.3</ele>
        <time>2020-06-22T20:42:09Z</time>
      </trkpt>
      <trkpt lat="50.87619" lon="1.75174">
        <ele>116.3</ele>
        <time>2020-06-22T20:42:10Z</time>
      </trkpt>
      <trkpt lat="50.87621" lon="1.75183">
        <ele>116.3</ele>
        <time>2020-06-22T20:42:11Z</time>
      </trkpt>
      <trkpt lat="50.87624" lon="1.75192">
        <ele>116.2</ele>
        <time>2020-06-22T20:42:12Z</time>
      </trkpt>
      <trkpt lat="50.87626" lon="1.752">
        <ele>116.3</ele>
        <time>2020-06-22T20:42:13Z</time>
      </trkpt>
      <trkpt lat="50.87628" lon="1.7521">
        <ele>116.3</ele>
        <time>2020-06-22T20:42:14Z</time>
      </trkpt>
      <trkpt lat="50.87631" lon="1.75219">
        <ele>116.4</ele>
        <time>2020-06-22T20:42:15Z</time>
      </trkpt>
      <trkpt lat="50.87634" lon="1.75228">
        <ele>116.5</ele>
        <time>2020-06-22T20:42:16Z</time>
      </trkpt>
      <trkpt lat="50.87637" lon="1.75237">
        <ele>116.6</ele>
        <time>2020-06-22T20:42:17Z</time>
      </trkpt>
      <trkpt lat="50.87639" lon="1.75245">
        <ele>116.7</ele>
        <time>2020-06-22T20:42:18Z</time>
      </trkpt>
      <trkpt lat="50.87641" lon="1.75255">
        <ele>116.8</ele>
        <time>2020-06-22T20:42:19Z</time>
      </trkpt>
      <trkpt lat="50.87644" lon="1.75265">
        <ele>116.9</ele>
        <time>2020-06-22T20:42:20Z</time>
      </trkpt>
      <trkpt lat="50.87647" lon="1.75274">
        <ele>117</ele>
        <time>2020-06-22T20:42:21Z</time>
      </trkpt>
      <trkpt lat="50.87649" lon="1.75283">
        <ele>117.1</ele>
        <time>2020-06-22T20:42:22Z</time>
      </trkpt>
      <trkpt lat="50.87652" lon="1.75293">
        <ele>117.2</ele>
        <time>2020-06-22T20:42:23Z</time>
      </trkpt>
      <trkpt lat="50.87655" lon="1.75302">
        <ele>117.2</ele>
        <time>2020-06-22T20:42:24Z</time>
      </trkpt>
      <trkpt lat="50.87657" lon="1.75312">
        <ele>117.3</ele>
        <time>2020-06-22T20:42:25Z</time>
      </trkpt>
      <trkpt lat="50.8766" lon="1.75322">
        <ele>117.4</ele>
        <time>2020-06-22T20:42:26Z</time>
      </trkpt>
      <trkpt lat="50.87663" lon="1.75331">
        <ele>117.4</ele>
        <time>2020-06-22T20:42:27Z</time>
      </trkpt>
      <trkpt lat="50.87665" lon="1.75341">
        <ele>117.4</ele>
        <time>2020-06-22T20:42:28Z</time>
      </trkpt>
      <trkpt lat="50.87667" lon="1.75351">
        <ele>117.4</ele>
        <time>2020-06-22T20:42:29Z</time>
      </trkpt>
      <trkpt lat="50.87668" lon="1.75361">
        <ele>117.5</ele>
        <time>2020-06-22T20:42:30Z</time>
      </trkpt>
      <trkpt lat="50.8767" lon="1.75371">
        <ele>117.6</ele>
        <time>2020-06-22T20:42:31Z</time>
      </trkpt>
      <trkpt lat="50.87672" lon="1.75379">
        <ele>117.7</ele>
        <time>2020-06-22T20:42:32Z</time>
      </trkpt>
      <trkpt lat="50.87673" lon="1.75389">
        <ele>117.8</ele>
        <time>2020-06-22T20:42:33Z</time>
      </trkpt>
      <trkpt lat="50.87674" lon="1.75399">
        <ele>117.9</ele>
        <time>2020-06-22T20:42:34Z</time>
      </trkpt>
      <trkpt lat="50.87675" lon="1.75407">
        <ele>118</ele>
        <time>2020-06-22T20:42:35Z</time>
      </trkpt>
      <trkpt lat="50.87677" lon="1.75415">
        <ele>118</ele>
        <time>2020-06-22T20:42:36Z</time>
      </trkpt>
      <trkpt lat="50.87679" lon="1.75425">
        <ele>118.1</ele>
        <time>2020-06-22T20:42:37Z</time>
      </trkpt>
      <trkpt lat="50.8768" lon="1.75434">
        <ele>118.2</ele>
        <time>2020-06-22T20:42:38Z</time>
      </trkpt>
      <trkpt lat="50.87683" lon="1.75442">
        <ele>118.3</ele>
        <time>2020-06-22T20:42:39Z</time>
      </trkpt>
      <trkpt lat="50.87685" lon="1.75451">
        <ele>118.3</ele>
        <time>2020-06-22T20:42:40Z</time>
      </trkpt>
      <trkpt lat="50.87687" lon="1.7546">
        <ele>118.4</ele>
        <time>2020-06-22T20:42:41Z</time>
      </trkpt>
      <trkpt lat="50.87689" lon="1.75467">
        <ele>118.4</ele>
        <time>2020-06-22T20:42:42Z</time>
      </trkpt>
      <trkpt lat="50.8769" lon="1.75474">
        <ele>118.4</ele>
        <time>2020-06-22T20:42:43Z</time>
      </trkpt>
      <trkpt lat="50.87692" lon="1.75484">
        <ele>118.5</ele>
        <time>2020-06-22T20:42:44Z</time>
      </trkpt>
      <trkpt lat="50.87694" lon="1.75491">
        <ele>118.5</ele>
        <time>2020-06-22T20:42:45Z</time>
      </trkpt>
      <trkpt lat="50.87696" lon="1.75499">
        <ele>118.6</ele>
        <time>2020-06-22T20:42:46Z</time>
      </trkpt>
      <trkpt lat="50.87699" lon="1.75508">
        <ele>118.7</ele>
        <time>2020-06-22T20:42:47Z</time>
      </trkpt>
      <trkpt lat="50.87702" lon="1.75519">
        <ele>118.8</ele>
        <time>2020-06-22T20:42:48Z</time>
      </trkpt>
      <trkpt lat="50.87704" lon="1.75528">
        <ele>118.9</ele>
        <time>2020-06-22T20:42:49Z</time>
      </trkpt>
      <trkpt lat="50.87705" lon="1.75537">
        <ele>119</ele>
        <time>2020-06-22T20:42:50Z</time>
      </trkpt>
      <trkpt lat="50.87706" lon="1.75545">
        <ele>119.1</ele>
        <time>2020-06-22T20:42:51Z</time>
      </trkpt>
      <trkpt lat="50.87707" lon="1.75553">
        <ele>119.3</ele>
        <time>2020-06-22T20:42:52Z</time>
      </trkpt>
      <trkpt lat="50.87709" lon="1.75563">
        <ele>119.4</ele>
        <time>2020-06-22T20:42:53Z</time>
      </trkpt>
      <trkpt lat="50.87709" lon="1.75573">
        <ele>119.6</ele>
        <time>2020-06-22T20:42:54Z</time>
      </trkpt>
      <trkpt lat="50.8771" lon="1.75581">
        <ele>119.7</ele>
        <time>2020-06-22T20:42:55Z</time>
      </trkpt>
      <trkpt lat="50.87712" lon="1.75591">
        <ele>119.9</ele>
        <time>2020-06-22T20:42:56Z</time>
      </trkpt>
      <trkpt lat="50.87713" lon="1.75601">
        <ele>120.1</ele>
        <time>2020-06-22T20:42:57Z</time>
      </trkpt>
      <trkpt lat="50.87715" lon="1.7561">
        <ele>120.3</ele>
        <time>2020-06-22T20:42:58Z</time>
      </trkpt>
      <trkpt lat="50.87716" lon="1.7562">
        <ele>120.4</ele>
        <time>2020-06-22T20:42:59Z</time>
      </trkpt>
      <trkpt lat="50.87719" lon="1.75631">
        <ele>120.6</ele>
        <time>2020-06-22T20:43:00Z</time>
      </trkpt>
      <trkpt lat="50.87721" lon="1.7564">
        <ele>120.7</ele>
        <time>2020-06-22T20:43:01Z</time>
      </trkpt>
      <trkpt lat="50.87723" lon="1.75649">
        <ele>120.8</ele>
        <time>2020-06-22T20:43:02Z</time>
      </trkpt>
      <trkpt lat="50.87725" lon="1.75659">
        <ele>121</ele>
        <time>2020-06-22T20:43:03Z</time>
      </trkpt>
      <trkpt lat="50.87727" lon="1.75669">
        <ele>121.1</ele>
        <time>2020-06-22T20:43:04Z</time>
      </trkpt>
      <trkpt lat="50.87728" lon="1.75677">
        <ele>121.2</ele>
        <time>2020-06-22T20:43:05Z</time>
      </trkpt>
      <trkpt lat="50.87729" lon="1.75686">
        <ele>121.3</ele>
        <time>2020-06-22T20:43:06Z</time>
      </trkpt>
      <trkpt lat="50.87731" lon="1.75695">
        <ele>121.4</ele>
        <time>2020-06-22T20:43:07Z</time>
      </trkpt>
      <trkpt lat="50.87733" lon="1.75703">
        <ele>121.5</ele>
        <time>2020-06-22T20:43:08Z</time>
      </trkpt>
      <trkpt lat="50.87734" lon="1.7571">
        <ele>121.5</ele>
        <time>2020-06-22T20:43:09Z</time>
      </trkpt>
      <trkpt lat="50.87736" lon="1.75718">
        <ele>121.6</ele>
        <time>2020-06-22T20:43:10Z</time>
      </trkpt>
      <trkpt lat="50.87737" lon="1.75727">
        <ele>121.6</ele>
        <time>2020-06-22T20:43:11Z</time>
      </trkpt>
      <trkpt lat="50.87738" lon="1.75736">
        <ele>121.7</ele>
        <time>2020-06-22T20:43:12Z</time>
      </trkpt>
      <trkpt lat="50.8774" lon="1.75745">
        <ele>121.7</ele>
        <time>2020-06-22T20:43:13Z</time>
      </trkpt>
      <trkpt lat="50.87741" lon="1.75754">
        <ele>121.8</ele>
        <time>2020-06-22T20:43:14Z</time>
      </trkpt>
      <trkpt lat="50.87743" lon="1.75763">
        <ele>121.8</ele>
        <time>2020-06-22T20:43:15Z</time>
      </trkpt>
      <trkpt lat="50.87744" lon="1.75772">
        <ele>121.9</ele>
        <time>2020-06-22T20:43:16Z</time>
      </trkpt>
      <trkpt lat="50.87746" lon="1.75779">
        <ele>122</ele>
        <time>2020-06-22T20:43:17Z</time>
      </trkpt>
      <trkpt lat="50.87747" lon="1.75789">
        <ele>122</ele>
        <time>2020-06-22T20:43:18Z</time>
      </trkpt>
      <trkpt lat="50.87748" lon="1.75797">
        <ele>122.1</ele>
        <time>2020-06-22T20:43:19Z</time>
      </trkpt>
      <trkpt lat="50.87749" lon="1.75804">
        <ele>122.1</ele>
        <time>2020-06-22T20:43:20Z</time>
      </trkpt>
      <trkpt lat="50.8775" lon="1.75813">
        <ele>122.2</ele>
        <time>2020-06-22T20:43:21Z</time>
      </trkpt>
      <trkpt lat="50.87752" lon="1.75822">
        <ele>122.2</ele>
        <time>2020-06-22T20:43:22Z</time>
      </trkpt>
      <trkpt lat="50.87754" lon="1.7583">
        <ele>122.3</ele>
        <time>2020-06-22T20:43:23Z</time>
      </trkpt>
      <trkpt lat="50.87755" lon="1.7584">
        <ele>122.3</ele>
        <time>2020-06-22T20:43:24Z</time>
      </trkpt>
      <trkpt lat="50.87757" lon="1.75849">
        <ele>122.4</ele>
        <time>2020-06-22T20:43:25Z</time>
      </trkpt>
      <trkpt lat="50.87759" lon="1.75859">
        <ele>122.4</ele>
        <time>2020-06-22T20:43:26Z</time>
      </trkpt>
      <trkpt lat="50.87761" lon="1.75867">
        <ele>122.4</ele>
        <time>2020-06-22T20:43:27Z</time>
      </trkpt>
      <trkpt lat="50.87763" lon="1.75874">
        <ele>122.5</ele>
        <time>2020-06-22T20:43:28Z</time>
      </trkpt>
      <trkpt lat="50.87764" lon="1.75883">
        <ele>122.5</ele>
        <time>2020-06-22T20:43:29Z</time>
      </trkpt>
      <trkpt lat="50.87765" lon="1.75891">
        <ele>122.5</ele>
        <time>2020-06-22T20:43:30Z</time>
      </trkpt>
      <trkpt lat="50.87766" lon="1.75899">
        <ele>122.6</ele>
        <time>2020-06-22T20:43:31Z</time>
      </trkpt>
      <trkpt lat="50.87767" lon="1.7591">
        <ele>122.6</ele>
        <time>2020-06-22T20:43:32Z</time>
      </trkpt>
      <trkpt lat="50.87767" lon="1.7592">
        <ele>122.7</ele>
        <time>2020-06-22T20:43:33Z</time>
      </trkpt>
      <trkpt lat="50.87767" lon="1.7593">
        <ele>122.7</ele>
        <time>2020-06-22T20:43:34Z</time>
      </trkpt>
      <trkpt lat="50.87768" lon="1.7594">
        <ele>122.7</ele>
        <time>2020-06-22T20:43:35Z</time>
      </trkpt>
      <trkpt lat="50.87768" lon="1.7595">
        <ele>122.7</ele>
        <time>2020-06-22T20:43:36Z</time>
      </trkpt>
      <trkpt lat="50.87769" lon="1.75959">
        <ele>122.7</ele>
        <time>2020-06-22T20:43:37Z</time>
      </trkpt>
      <trkpt lat="50.8777" lon="1.75969">
        <ele>122.7</ele>
        <time>2020-06-22T20:43:38Z</time>
      </trkpt>
      <trkpt lat="50.87771" lon="1.75977">
        <ele>122.7</ele>
        <time>2020-06-22T20:43:39Z</time>
      </trkpt>
      <trkpt lat="50.87771" lon="1.75984">
        <ele>122.7</ele>
        <time>2020-06-22T20:43:40Z</time>
      </trkpt>
      <trkpt lat="50.87772" lon="1.75992">
        <ele>122.6</ele>
        <time>2020-06-22T20:43:41Z</time>
      </trkpt>
      <trkpt lat="50.87774" lon="1.75999">
        <ele>122.6</ele>
        <time>2020-06-22T20:43:42Z</time>
      </trkpt>
      <trkpt lat="50.87775" lon="1.76008">
        <ele>122.5</ele>
        <time>2020-06-22T20:43:43Z</time>
      </trkpt>
      <trkpt lat="50.87775" lon="1.76017">
        <ele>122.4</ele>
        <time>2020-06-22T20:43:44Z</time>
      </trkpt>
      <trkpt lat="50.87776" lon="1.76024">
        <ele>122.4</ele>
        <time>2020-06-22T20:43:45Z</time>
      </trkpt>
      <trkpt lat="50.87776" lon="1.76033">
        <ele>122.3</ele>
        <time>2020-06-22T20:43:46Z</time>
      </trkpt>
      <trkpt lat="50.87776" lon="1.7604">
        <ele>122.3</ele>
        <time>2020-06-22T20:43:47Z</time>
      </trkpt>
      <trkpt lat="50.87776" lon="1.76049">
        <ele>122.2</ele>
        <time>2020-06-22T20:43:48Z</time>
      </trkpt>
      <trkpt lat="50.87774" lon="1.76057">
        <ele>122.2</ele>
        <time>2020-06-22T20:43:49Z</time>
      </trkpt>
      <trkpt lat="50.87775" lon="1.76065">
        <ele>122.1</ele>
        <time>2020-06-22T20:43:50Z</time>
      </trkpt>
      <trkpt lat="50.87775" lon="1.76071">
        <ele>122.1</ele>
        <time>2020-06-22T20:43:51Z</time>
      </trkpt>
      <trkpt lat="50.87776" lon="1.76077">
        <ele>122</ele>
        <time>2020-06-22T20:43:52Z</time>
      </trkpt>
      <trkpt lat="50.87776" lon="1.76082">
        <ele>122.1</ele>
        <time>2020-06-22T20:43:53Z</time>
      </trkpt>
      <trkpt lat="50.87778" lon="1.76086">
        <ele>122.1</ele>
        <time>2020-06-22T20:43:54Z</time>
      </trkpt>
      <trkpt lat="50.87777" lon="1.76087">
        <ele>122.1</ele>
        <time>2020-06-22T20:43:55Z</time>
      </trkpt>
      <trkpt lat="50.87778" lon="1.76088">
        <ele>122.1</ele>
        <time>2020-06-22T20:43:56Z</time>
      </trkpt>
      <trkpt lat="50.87779" lon="1.76088">
        <ele>122.1</ele>
        <time>2020-06-22T20:43:57Z</time>
      </trkpt>
      <trkpt lat="50.8778" lon="1.76089">
        <ele>122.1</ele>
        <time>2020-06-22T20:43:58Z</time>
      </trkpt>
      <trkpt lat="50.87782" lon="1.76094">
        <ele>122.1</ele>
        <time>2020-06-22T20:43:59Z</time>
      </trkpt>
      <trkpt lat="50.87783" lon="1.76096">
        <ele>122</ele>
        <time>2020-06-22T20:44:00Z</time>
      </trkpt>
      <trkpt lat="50.87785" lon="1.76098">
        <ele>122</ele>
        <time>2020-06-22T20:44:01Z</time>
      </trkpt>
      <trkpt lat="50.87786" lon="1.76099">
        <ele>122</ele>
        <time>2020-06-22T20:44:02Z</time>
      </trkpt>
      <trkpt lat="50.87785" lon="1.76097">
        <ele>122</ele>
        <time>2020-06-22T20:44:03Z</time>
      </trkpt>
      <trkpt lat="50.87785" lon="1.76096">
        <ele>122</ele>
        <time>2020-06-22T20:44:04Z</time>
      </trkpt>
      <trkpt lat="50.87786" lon="1.76094">
        <ele>121.9</ele>
        <time>2020-06-22T20:44:05Z</time>
      </trkpt>
      <trkpt lat="50.87786" lon="1.76092">
        <ele>121.9</ele>
        <time>2020-06-22T20:44:06Z</time>
      </trkpt>
      <trkpt lat="50.87786" lon="1.7609">
        <ele>121.9</ele>
        <time>2020-06-22T20:44:07Z</time>
      </trkpt>
      <trkpt lat="50.87787" lon="1.76088">
        <ele>121.9</ele>
        <time>2020-06-22T20:44:08Z</time>
      </trkpt>
      <trkpt lat="50.87787" lon="1.76086">
        <ele>121.9</ele>
        <time>2020-06-22T20:44:09Z</time>
      </trkpt>
      <trkpt lat="50.87787" lon="1.76084">
        <ele>121.8</ele>
        <time>2020-06-22T20:44:10Z</time>
      </trkpt>
      <trkpt lat="50.87787" lon="1.76082">
        <ele>121.8</ele>
        <time>2020-06-22T20:44:11Z</time>
      </trkpt>
      <trkpt lat="50.87788" lon="1.7608">
        <ele>121.8</ele>
        <time>2020-06-22T20:44:12Z</time>
      </trkpt>
      <trkpt lat="50.87788" lon="1.76078">
        <ele>121.8</ele>
        <time>2020-06-22T20:44:13Z</time>
      </trkpt>
      <trkpt lat="50.87788" lon="1.76077">
        <ele>121.7</ele>
        <time>2020-06-22T20:46:09Z</time>
      </trkpt>
      <trkpt lat="50.87788" lon="1.76075">
        <ele>121.7</ele>
        <time>2020-06-22T20:46:10Z</time>
      </trkpt>
      <trkpt lat="50.87792" lon="1.76071">
        <ele>121.6</ele>
        <time>2020-06-22T20:46:11Z</time>
      </trkpt>
      <trkpt lat="50.87796" lon="1.76067">
        <ele>121.6</ele>
        <time>2020-06-22T20:46:12Z</time>
      </trkpt>
      <trkpt lat="50.87799" lon="1.76063">
        <ele>121.5</ele>
        <time>2020-06-22T20:46:13Z</time>
      </trkpt>
      <trkpt lat="50.87802" lon="1.76059">
        <ele>121.4</ele>
        <time>2020-06-22T20:46:14Z</time>
      </trkpt>
      <trkpt lat="50.87804" lon="1.76055">
        <ele>121.4</ele>
        <time>2020-06-22T20:46:15Z</time>
      </trkpt>
      <trkpt lat="50.87807" lon="1.7605">
        <ele>121.3</ele>
        <time>2020-06-22T20:46:16Z</time>
      </trkpt>
      <trkpt lat="50.8781" lon="1.76044">
        <ele>121.2</ele>
        <time>2020-06-22T20:46:17Z</time>
      </trkpt>
      <trkpt lat="50.87813" lon="1.7604">
        <ele>121.1</ele>
        <time>2020-06-22T20:46:18Z</time>
      </trkpt>
      <trkpt lat="50.87816" lon="1.76036">
        <ele>121.1</ele>
        <time>2020-06-22T20:46:19Z</time>
      </trkpt>
      <trkpt lat="50.87819" lon="1.76031">
        <ele>121</ele>
        <time>2020-06-22T20:46:20Z</time>
      </trkpt>
      <trkpt lat="50.87823" lon="1.76028">
        <ele>120.9</ele>
        <time>2020-06-22T20:46:21Z</time>
      </trkpt>
      <trkpt lat="50.87827" lon="1.76023">
        <ele>120.9</ele>
        <time>2020-06-22T20:46:22Z</time>
      </trkpt>
      <trkpt lat="50.8783" lon="1.7602">
        <ele>120.8</ele>
        <time>2020-06-22T20:46:23Z</time>
      </trkpt>
      <trkpt lat="50.87835" lon="1.76024">
        <ele>120.6</ele>
        <time>2020-06-22T20:46:24Z</time>
      </trkpt>
      <trkpt lat="50.87839" lon="1.76031">
        <ele>120.4</ele>
        <time>2020-06-22T20:46:25Z</time>
      </trkpt>
      <trkpt lat="50.8784" lon="1.76038">
        <ele>120.2</ele>
        <time>2020-06-22T20:46:26Z</time>
      </trkpt>
      <trkpt lat="50.87842" lon="1.76047">
        <ele>120</ele>
        <time>2020-06-22T20:46:27Z</time>
      </trkpt>
      <trkpt lat="50.87843" lon="1.76055">
        <ele>119.8</ele>
        <time>2020-06-22T20:46:28Z</time>
      </trkpt>
      <trkpt lat="50.87845" lon="1.76063">
        <ele>119.6</ele>
        <time>2020-06-22T20:46:29Z</time>
      </trkpt>
      <trkpt lat="50.87846" lon="1.76071">
        <ele>119.4</ele>
        <time>2020-06-22T20:46:30Z</time>
      </trkpt>
      <trkpt lat="50.87848" lon="1.76079">
        <ele>119.1</ele>
        <time>2020-06-22T20:46:31Z</time>
      </trkpt>
      <trkpt lat="50.87851" lon="1.76086">
        <ele>118.9</ele>
        <time>2020-06-22T20:46:32Z</time>
      </trkpt>
      <trkpt lat="50.87853" lon="1.76094">
        <ele>118.7</ele>
        <time>2020-06-22T20:46:33Z</time>
      </trkpt>
      <trkpt lat="50.87856" lon="1.76102">
        <ele>118.5</ele>
        <time>2020-06-22T20:46:34Z</time>
      </trkpt>
      <trkpt lat="50.87859" lon="1.7611">
        <ele>118.2</ele>
        <time>2020-06-22T20:46:35Z</time>
      </trkpt>
      <trkpt lat="50.87862" lon="1.76118">
        <ele>118</ele>
        <time>2020-06-22T20:46:36Z</time>
      </trkpt>
      <trkpt lat="50.87865" lon="1.76125">
        <ele>117.8</ele>
        <time>2020-06-22T20:46:37Z</time>
      </trkpt>
      <trkpt lat="50.87868" lon="1.76134">
        <ele>117.5</ele>
        <time>2020-06-22T20:46:38Z</time>
      </trkpt>
      <trkpt lat="50.87873" lon="1.76142">
        <ele>117.2</ele>
        <time>2020-06-22T20:46:39Z</time>
      </trkpt>
      <trkpt lat="50.87876" lon="1.7615">
        <ele>116.9</ele>
        <time>2020-06-22T20:46:40Z</time>
      </trkpt>
      <trkpt lat="50.87881" lon="1.76158">
        <ele>116.6</ele>
        <time>2020-06-22T20:46:41Z</time>
      </trkpt>
      <trkpt lat="50.87886" lon="1.76166">
        <ele>116.2</ele>
        <time>2020-06-22T20:46:42Z</time>
      </trkpt>
      <trkpt lat="50.87892" lon="1.76174">
        <ele>115.9</ele>
        <time>2020-06-22T20:46:43Z</time>
      </trkpt>
      <trkpt lat="50.87897" lon="1.76181">
        <ele>115.6</ele>
        <time>2020-06-22T20:46:44Z</time>
      </trkpt>
      <trkpt lat="50.87903" lon="1.76189">
        <ele>115.3</ele>
        <time>2020-06-22T20:46:45Z</time>
      </trkpt>
      <trkpt lat="50.87908" lon="1.76197">
        <ele>115</ele>
        <time>2020-06-22T20:46:46Z</time>
      </trkpt>
      <trkpt lat="50.87914" lon="1.76205">
        <ele>114.6</ele>
        <time>2020-06-22T20:46:47Z</time>
      </trkpt>
      <trkpt lat="50.8792" lon="1.76213">
        <ele>114.3</ele>
        <time>2020-06-22T20:46:48Z</time>
      </trkpt>
      <trkpt lat="50.87927" lon="1.76221">
        <ele>113.9</ele>
        <time>2020-06-22T20:46:49Z</time>
      </trkpt>
      <trkpt lat="50.87933" lon="1.7623">
        <ele>113.5</ele>
        <time>2020-06-22T20:46:50Z</time>
      </trkpt>
      <trkpt lat="50.87939" lon="1.76238">
        <ele>113.1</ele>
        <time>2020-06-22T20:46:51Z</time>
      </trkpt>
      <trkpt lat="50.87946" lon="1.76247">
        <ele>112.8</ele>
        <time>2020-06-22T20:46:52Z</time>
      </trkpt>
      <trkpt lat="50.87952" lon="1.76257">
        <ele>112.4</ele>
        <time>2020-06-22T20:46:53Z</time>
      </trkpt>
      <trkpt lat="50.87958" lon="1.76266">
        <ele>112</ele>
        <time>2020-06-22T20:46:54Z</time>
      </trkpt>
      <trkpt lat="50.87964" lon="1.76276">
        <ele>111.7</ele>
        <time>2020-06-22T20:46:55Z</time>
      </trkpt>
      <trkpt lat="50.8797" lon="1.76286">
        <ele>111.3</ele>
        <time>2020-06-22T20:46:56Z</time>
      </trkpt>
      <trkpt lat="50.87976" lon="1.76296">
        <ele>111</ele>
        <time>2020-06-22T20:46:57Z</time>
      </trkpt>
      <trkpt lat="50.87982" lon="1.76306">
        <ele>110.7</ele>
        <time>2020-06-22T20:46:58Z</time>
      </trkpt>
      <trkpt lat="50.87988" lon="1.76315">
        <ele>110.3</ele>
        <time>2020-06-22T20:46:59Z</time>
      </trkpt>
      <trkpt lat="50.87995" lon="1.76325">
        <ele>110</ele>
        <time>2020-06-22T20:47:00Z</time>
      </trkpt>
      <trkpt lat="50.88001" lon="1.76335">
        <ele>109.7</ele>
        <time>2020-06-22T20:47:01Z</time>
      </trkpt>
      <trkpt lat="50.88007" lon="1.76345">
        <ele>109.4</ele>
        <time>2020-06-22T20:47:02Z</time>
      </trkpt>
      <trkpt lat="50.88014" lon="1.76355">
        <ele>109</ele>
        <time>2020-06-22T20:47:03Z</time>
      </trkpt>
      <trkpt lat="50.8802" lon="1.76364">
        <ele>108.7</ele>
        <time>2020-06-22T20:47:04Z</time>
      </trkpt>
      <trkpt lat="50.88026" lon="1.76374">
        <ele>108.3</ele>
        <time>2020-06-22T20:47:05Z</time>
      </trkpt>
      <trkpt lat="50.88032" lon="1.76384">
        <ele>107.9</ele>
        <time>2020-06-22T20:47:06Z</time>
      </trkpt>
      <trkpt lat="50.88039" lon="1.76393">
        <ele>107.5</ele>
        <time>2020-06-22T20:47:07Z</time>
      </trkpt>
      <trkpt lat="50.88045" lon="1.76402">
        <ele>107.2</ele>
        <time>2020-06-22T20:47:08Z</time>
      </trkpt>
      <trkpt lat="50.88052" lon="1.76411">
        <ele>106.8</ele>
        <time>2020-06-22T20:47:09Z</time>
      </trkpt>
      <trkpt lat="50.88059" lon="1.76419">
        <ele>106.5</ele>
        <time>2020-06-22T20:47:10Z</time>
      </trkpt>
      <trkpt lat="50.88066" lon="1.76428">
        <ele>106</ele>
        <time>2020-06-22T20:47:11Z</time>
      </trkpt>
      <trkpt lat="50.88073" lon="1.76436">
        <ele>105.6</ele>
        <time>2020-06-22T20:47:12Z</time>
      </trkpt>
      <trkpt lat="50.88081" lon="1.76444">
        <ele>105.2</ele>
        <time>2020-06-22T20:47:13Z</time>
      </trkpt>
      <trkpt lat="50.88089" lon="1.76452">
        <ele>104.8</ele>
        <time>2020-06-22T20:47:14Z</time>
      </trkpt>
      <trkpt lat="50.88096" lon="1.76462">
        <ele>104.3</ele>
        <time>2020-06-22T20:47:15Z</time>
      </trkpt>
      <trkpt lat="50.88104" lon="1.76471">
        <ele>103.9</ele>
        <time>2020-06-22T20:47:16Z</time>
      </trkpt>
      <trkpt lat="50.88111" lon="1.7648">
        <ele>103.4</ele>
        <time>2020-06-22T20:47:17Z</time>
      </trkpt>
      <trkpt lat="50.88119" lon="1.76489">
        <ele>102.9</ele>
        <time>2020-06-22T20:47:18Z</time>
      </trkpt>
      <trkpt lat="50.88127" lon="1.76498">
        <ele>102.4</ele>
        <time>2020-06-22T20:47:19Z</time>
      </trkpt>
      <trkpt lat="50.88134" lon="1.76507">
        <ele>101.9</ele>
        <time>2020-06-22T20:47:20Z</time>
      </trkpt>
      <trkpt lat="50.88142" lon="1.76517">
        <ele>101.4</ele>
        <time>2020-06-22T20:47:21Z</time>
      </trkpt>
      <trkpt lat="50.88149" lon="1.76527">
        <ele>100.9</ele>
        <time>2020-06-22T20:47:22Z</time>
      </trkpt>
      <trkpt lat="50.88156" lon="1.76537">
        <ele>100.3</ele>
        <time>2020-06-22T20:47:23Z</time>
      </trkpt>
      <trkpt lat="50.88164" lon="1.76548">
        <ele>99.7</ele>
        <time>2020-06-22T20:47:24Z</time>
      </trkpt>
      <trkpt lat="50.88171" lon="1.76558">
        <ele>99.1</ele>
        <time>2020-06-22T20:47:25Z</time>
      </trkpt>
      <trkpt lat="50.88179" lon="1.76568">
        <ele>98.5</ele>
        <time>2020-06-22T20:47:26Z</time>
      </trkpt>
      <trkpt lat="50.88187" lon="1.76579">
        <ele>98</ele>
        <time>2020-06-22T20:47:27Z</time>
      </trkpt>
      <trkpt lat="50.88194" lon="1.76591">
        <ele>97.4</ele>
        <time>2020-06-22T20:47:28Z</time>
      </trkpt>
      <trkpt lat="50.88202" lon="1.76602">
        <ele>96.8</ele>
        <time>2020-06-22T20:47:29Z</time>
      </trkpt>
      <trkpt lat="50.88209" lon="1.76614">
        <ele>96.2</ele>
        <time>2020-06-22T20:47:30Z</time>
      </trkpt>
      <trkpt lat="50.88217" lon="1.76625">
        <ele>95.7</ele>
        <time>2020-06-22T20:47:31Z</time>
      </trkpt>
      <trkpt lat="50.88224" lon="1.76637">
        <ele>95.2</ele>
        <time>2020-06-22T20:47:32Z</time>
      </trkpt>
      <trkpt lat="50.88232" lon="1.76648">
        <ele>94.6</ele>
        <time>2020-06-22T20:47:33Z</time>
      </trkpt>
      <trkpt lat="50.8824" lon="1.76659">
        <ele>94.1</ele>
        <time>2020-06-22T20:47:34Z</time>
      </trkpt>
      <trkpt lat="50.88249" lon="1.7667">
        <ele>93.6</ele>
        <time>2020-06-22T20:47:35Z</time>
      </trkpt>
      <trkpt lat="50.88257" lon="1.76681">
        <ele>93.1</ele>
        <time>2020-06-22T20:47:36Z</time>
      </trkpt>
      <trkpt lat="50.88265" lon="1.76692">
        <ele>92.7</ele>
        <time>2020-06-22T20:47:37Z</time>
      </trkpt>
      <trkpt lat="50.88273" lon="1.76702">
        <ele>92.1</ele>
        <time>2020-06-22T20:47:38Z</time>
      </trkpt>
      <trkpt lat="50.88281" lon="1.76713">
        <ele>91.6</ele>
        <time>2020-06-22T20:47:39Z</time>
      </trkpt>
      <trkpt lat="50.88289" lon="1.76724">
        <ele>91.2</ele>
        <time>2020-06-22T20:47:40Z</time>
      </trkpt>
      <trkpt lat="50.88297" lon="1.76733">
        <ele>90.7</ele>
        <time>2020-06-22T20:47:41Z</time>
      </trkpt>
      <trkpt lat="50.88305" lon="1.76744">
        <ele>90.3</ele>
        <time>2020-06-22T20:47:42Z</time>
      </trkpt>
      <trkpt lat="50.88313" lon="1.76754">
        <ele>89.9</ele>
        <time>2020-06-22T20:47:43Z</time>
      </trkpt>
      <trkpt lat="50.88321" lon="1.76765">
        <ele>89.5</ele>
        <time>2020-06-22T20:47:44Z</time>
      </trkpt>
      <trkpt lat="50.88329" lon="1.76775">
        <ele>89.1</ele>
        <time>2020-06-22T20:47:45Z</time>
      </trkpt>
      <trkpt lat="50.88337" lon="1.76785">
        <ele>88.7</ele>
        <time>2020-06-22T20:47:46Z</time>
      </trkpt>
      <trkpt lat="50.88346" lon="1.76794">
        <ele>88.3</ele>
        <time>2020-06-22T20:47:47Z</time>
      </trkpt>
      <trkpt lat="50.88354" lon="1.76804">
        <ele>87.9</ele>
        <time>2020-06-22T20:47:48Z</time>
      </trkpt>
      <trkpt lat="50.88362" lon="1.76813">
        <ele>87.6</ele>
        <time>2020-06-22T20:47:49Z</time>
      </trkpt>
      <trkpt lat="50.8837" lon="1.76822">
        <ele>87.2</ele>
        <time>2020-06-22T20:47:50Z</time>
      </trkpt>
      <trkpt lat="50.88378" lon="1.76831">
        <ele>86.7</ele>
        <time>2020-06-22T20:47:51Z</time>
      </trkpt>
      <trkpt lat="50.88386" lon="1.76839">
        <ele>86.3</ele>
        <time>2020-06-22T20:47:52Z</time>
      </trkpt>
      <trkpt lat="50.88394" lon="1.76847">
        <ele>85.9</ele>
        <time>2020-06-22T20:47:53Z</time>
      </trkpt>
      <trkpt lat="50.88403" lon="1.76853">
        <ele>85.5</ele>
        <time>2020-06-22T20:47:54Z</time>
      </trkpt>
      <trkpt lat="50.88412" lon="1.7686">
        <ele>85.1</ele>
        <time>2020-06-22T20:47:55Z</time>
      </trkpt>
      <trkpt lat="50.8842" lon="1.76867">
        <ele>84.7</ele>
        <time>2020-06-22T20:47:56Z</time>
      </trkpt>
      <trkpt lat="50.88428" lon="1.76874">
        <ele>84.2</ele>
        <time>2020-06-22T20:47:57Z</time>
      </trkpt>
      <trkpt lat="50.88437" lon="1.7688">
        <ele>83.8</ele>
        <time>2020-06-22T20:47:58Z</time>
      </trkpt>
      <trkpt lat="50.88445" lon="1.76886">
        <ele>83.5</ele>
        <time>2020-06-22T20:47:59Z</time>
      </trkpt>
      <trkpt lat="50.88454" lon="1.76891">
        <ele>83.2</ele>
        <time>2020-06-22T20:48:00Z</time>
      </trkpt>
      <trkpt lat="50.88462" lon="1.76896">
        <ele>82.8</ele>
        <time>2020-06-22T20:48:01Z</time>
      </trkpt>
      <trkpt lat="50.8847" lon="1.76902">
        <ele>82.5</ele>
        <time>2020-06-22T20:48:02Z</time>
      </trkpt>
      <trkpt lat="50.88478" lon="1.76909">
        <ele>82.2</ele>
        <time>2020-06-22T20:48:03Z</time>
      </trkpt>
      <trkpt lat="50.88486" lon="1.76917">
        <ele>81.8</ele>
        <time>2020-06-22T20:48:04Z</time>
      </trkpt>
      <trkpt lat="50.88493" lon="1.76924">
        <ele>81.4</ele>
        <time>2020-06-22T20:48:05Z</time>
      </trkpt>
      <trkpt lat="50.88501" lon="1.76932">
        <ele>81.1</ele>
        <time>2020-06-22T20:48:06Z</time>
      </trkpt>
      <trkpt lat="50.88508" lon="1.76939">
        <ele>80.7</ele>
        <time>2020-06-22T20:48:07Z</time>
      </trkpt>
      <trkpt lat="50.88515" lon="1.76947">
        <ele>80.4</ele>
        <time>2020-06-22T20:48:08Z</time>
      </trkpt>
      <trkpt lat="50.88522" lon="1.76955">
        <ele>80.1</ele>
        <time>2020-06-22T20:48:09Z</time>
      </trkpt>
      <trkpt lat="50.88529" lon="1.76963">
        <ele>79.8</ele>
        <time>2020-06-22T20:48:10Z</time>
      </trkpt>
      <trkpt lat="50.88537" lon="1.7697">
        <ele>79.4</ele>
        <time>2020-06-22T20:48:11Z</time>
      </trkpt>
      <trkpt lat="50.88544" lon="1.76978">
        <ele>79.1</ele>
        <time>2020-06-22T20:48:12Z</time>
      </trkpt>
      <trkpt lat="50.88551" lon="1.76985">
        <ele>78.8</ele>
        <time>2020-06-22T20:48:13Z</time>
      </trkpt>
      <trkpt lat="50.88558" lon="1.76993">
        <ele>78.5</ele>
        <time>2020-06-22T20:48:14Z</time>
      </trkpt>
      <trkpt lat="50.88566" lon="1.77001">
        <ele>78.1</ele>
        <time>2020-06-22T20:48:15Z</time>
      </trkpt>
      <trkpt lat="50.88573" lon="1.7701">
        <ele>77.7</ele>
        <time>2020-06-22T20:48:16Z</time>
      </trkpt>
      <trkpt lat="50.88581" lon="1.77017">
        <ele>77.3</ele>
        <time>2020-06-22T20:48:17Z</time>
      </trkpt>
      <trkpt lat="50.88588" lon="1.77025">
        <ele>77</ele>
        <time>2020-06-22T20:48:18Z</time>
      </trkpt>
      <trkpt lat="50.88595" lon="1.77031">
        <ele>76.7</ele>
        <time>2020-06-22T20:48:19Z</time>
      </trkpt>
      <trkpt lat="50.88602" lon="1.77039">
        <ele>76.3</ele>
        <time>2020-06-22T20:48:20Z</time>
      </trkpt>
      <trkpt lat="50.88609" lon="1.77046">
        <ele>75.9</ele>
        <time>2020-06-22T20:48:21Z</time>
      </trkpt>
      <trkpt lat="50.88617" lon="1.77053">
        <ele>75.6</ele>
        <time>2020-06-22T20:48:22Z</time>
      </trkpt>
      <trkpt lat="50.88624" lon="1.77061">
        <ele>75.2</ele>
        <time>2020-06-22T20:48:23Z</time>
      </trkpt>
      <trkpt lat="50.88631" lon="1.77071">
        <ele>74.8</ele>
        <time>2020-06-22T20:48:24Z</time>
      </trkpt>
      <trkpt lat="50.88638" lon="1.7708">
        <ele>74.4</ele>
        <time>2020-06-22T20:48:25Z</time>
      </trkpt>
      <trkpt lat="50.88644" lon="1.77091">
        <ele>74</ele>
        <time>2020-06-22T20:48:26Z</time>
      </trkpt>
      <trkpt lat="50.8865" lon="1.77101">
        <ele>73.6</ele>
        <time>2020-06-22T20:48:27Z</time>
      </trkpt>
      <trkpt lat="50.88657" lon="1.77109">
        <ele>73.2</ele>
        <time>2020-06-22T20:48:28Z</time>
      </trkpt>
      <trkpt lat="50.88663" lon="1.77119">
        <ele>72.9</ele>
        <time>2020-06-22T20:48:29Z</time>
      </trkpt>
      <trkpt lat="50.8867" lon="1.77127">
        <ele>72.6</ele>
        <time>2020-06-22T20:48:30Z</time>
      </trkpt>
      <trkpt lat="50.88676" lon="1.77136">
        <ele>72.3</ele>
        <time>2020-06-22T20:48:31Z</time>
      </trkpt>
      <trkpt lat="50.88683" lon="1.77145">
        <ele>72</ele>
        <time>2020-06-22T20:48:32Z</time>
      </trkpt>
      <trkpt lat="50.88689" lon="1.77153">
        <ele>71.8</ele>
        <time>2020-06-22T20:48:33Z</time>
      </trkpt>
      <trkpt lat="50.88695" lon="1.77162">
        <ele>71.5</ele>
        <time>2020-06-22T20:48:34Z</time>
      </trkpt>
      <trkpt lat="50.88701" lon="1.7717">
        <ele>71.2</ele>
        <time>2020-06-22T20:48:35Z</time>
      </trkpt>
      <trkpt lat="50.88708" lon="1.77179">
        <ele>70.9</ele>
        <time>2020-06-22T20:48:36Z</time>
      </trkpt>
      <trkpt lat="50.88714" lon="1.77187">
        <ele>70.6</ele>
        <time>2020-06-22T20:48:37Z</time>
      </trkpt>
      <trkpt lat="50.8872" lon="1.77196">
        <ele>70.2</ele>
        <time>2020-06-22T20:48:38Z</time>
      </trkpt>
      <trkpt lat="50.88727" lon="1.77205">
        <ele>69.9</ele>
        <time>2020-06-22T20:48:39Z</time>
      </trkpt>
      <trkpt lat="50.88733" lon="1.77213">
        <ele>69.5</ele>
        <time>2020-06-22T20:48:40Z</time>
      </trkpt>
      <trkpt lat="50.8874" lon="1.77223">
        <ele>69.1</ele>
        <time>2020-06-22T20:48:41Z</time>
      </trkpt>
      <trkpt lat="50.88747" lon="1.77231">
        <ele>68.7</ele>
        <time>2020-06-22T20:48:42Z</time>
      </trkpt>
      <trkpt lat="50.88753" lon="1.77239">
        <ele>68.4</ele>
        <time>2020-06-22T20:48:43Z</time>
      </trkpt>
      <trkpt lat="50.88759" lon="1.77247">
        <ele>68.3</ele>
        <time>2020-06-22T20:48:44Z</time>
      </trkpt>
      <trkpt lat="50.88765" lon="1.77254">
        <ele>68.2</ele>
        <time>2020-06-22T20:48:45Z</time>
      </trkpt>
      <trkpt lat="50.8877" lon="1.7726">
        <ele>68.1</ele>
        <time>2020-06-22T20:48:46Z</time>
      </trkpt>
      <trkpt lat="50.88775" lon="1.77266">
        <ele>68</ele>
        <time>2020-06-22T20:48:47Z</time>
      </trkpt>
      <trkpt lat="50.88779" lon="1.77271">
        <ele>67.9</ele>
        <time>2020-06-22T20:48:48Z</time>
      </trkpt>
      <trkpt lat="50.88784" lon="1.77275">
        <ele>67.8</ele>
        <time>2020-06-22T20:48:49Z</time>
      </trkpt>
      <trkpt lat="50.88788" lon="1.77279">
        <ele>67.5</ele>
        <time>2020-06-22T20:48:50Z</time>
      </trkpt>
      <trkpt lat="50.88794" lon="1.77282">
        <ele>67.2</ele>
        <time>2020-06-22T20:48:51Z</time>
      </trkpt>
      <trkpt lat="50.88799" lon="1.77285">
        <ele>66.9</ele>
        <time>2020-06-22T20:48:52Z</time>
      </trkpt>
      <trkpt lat="50.88804" lon="1.77288">
        <ele>66.6</ele>
        <time>2020-06-22T20:48:53Z</time>
      </trkpt>
      <trkpt lat="50.88809" lon="1.77293">
        <ele>66.4</ele>
        <time>2020-06-22T20:48:54Z</time>
      </trkpt>
      <trkpt lat="50.88814" lon="1.77298">
        <ele>66.1</ele>
        <time>2020-06-22T20:48:55Z</time>
      </trkpt>
      <trkpt lat="50.88818" lon="1.77304">
        <ele>65.9</ele>
        <time>2020-06-22T20:48:56Z</time>
      </trkpt>
      <trkpt lat="50.88823" lon="1.77311">
        <ele>65.6</ele>
        <time>2020-06-22T20:48:57Z</time>
      </trkpt>
      <trkpt lat="50.88827" lon="1.77317">
        <ele>65.5</ele>
        <time>2020-06-22T20:48:58Z</time>
      </trkpt>
      <trkpt lat="50.88832" lon="1.77324">
        <ele>65.3</ele>
        <time>2020-06-22T20:48:59Z</time>
      </trkpt>
      <trkpt lat="50.88836" lon="1.77332">
        <ele>65.2</ele>
        <time>2020-06-22T20:49:00Z</time>
      </trkpt>
      <trkpt lat="50.88841" lon="1.77341">
        <ele>65</ele>
        <time>2020-06-22T20:49:01Z</time>
      </trkpt>
      <trkpt lat="50.88846" lon="1.77349">
        <ele>64.9</ele>
        <time>2020-06-22T20:49:02Z</time>
      </trkpt>
      <trkpt lat="50.88851" lon="1.77357">
        <ele>64.8</ele>
        <time>2020-06-22T20:49:03Z</time>
      </trkpt>
      <trkpt lat="50.88856" lon="1.77365">
        <ele>64.6</ele>
        <time>2020-06-22T20:49:04Z</time>
      </trkpt>
      <trkpt lat="50.88861" lon="1.77374">
        <ele>64.5</ele>
        <time>2020-06-22T20:49:05Z</time>
      </trkpt>
      <trkpt lat="50.88867" lon="1.77382">
        <ele>64.4</ele>
        <time>2020-06-22T20:49:06Z</time>
      </trkpt>
      <trkpt lat="50.88872" lon="1.7739">
        <ele>64.3</ele>
        <time>2020-06-22T20:49:07Z</time>
      </trkpt>
      <trkpt lat="50.88877" lon="1.77398">
        <ele>64.2</ele>
        <time>2020-06-22T20:49:08Z</time>
      </trkpt>
      <trkpt lat="50.88882" lon="1.77405">
        <ele>64.1</ele>
        <time>2020-06-22T20:49:09Z</time>
      </trkpt>
      <trkpt lat="50.88887" lon="1.77413">
        <ele>64</ele>
        <time>2020-06-22T20:49:10Z</time>
      </trkpt>
      <trkpt lat="50.88892" lon="1.77419">
        <ele>64</ele>
        <time>2020-06-22T20:49:11Z</time>
      </trkpt>
      <trkpt lat="50.88897" lon="1.77425">
        <ele>63.9</ele>
        <time>2020-06-22T20:49:12Z</time>
      </trkpt>
      <trkpt lat="50.88903" lon="1.7743">
        <ele>63.8</ele>
        <time>2020-06-22T20:49:13Z</time>
      </trkpt>
      <trkpt lat="50.88909" lon="1.77434">
        <ele>63.7</ele>
        <time>2020-06-22T20:49:14Z</time>
      </trkpt>
      <trkpt lat="50.88915" lon="1.77437">
        <ele>63.6</ele>
        <time>2020-06-22T20:49:15Z</time>
      </trkpt>
      <trkpt lat="50.88922" lon="1.77439">
        <ele>63.5</ele>
        <time>2020-06-22T20:49:16Z</time>
      </trkpt>
      <trkpt lat="50.88928" lon="1.77441">
        <ele>63.5</ele>
        <time>2020-06-22T20:49:17Z</time>
      </trkpt>
      <trkpt lat="50.88934" lon="1.77442">
        <ele>63.4</ele>
        <time>2020-06-22T20:49:18Z</time>
      </trkpt>
      <trkpt lat="50.88941" lon="1.77444">
        <ele>63.4</ele>
        <time>2020-06-22T20:49:19Z</time>
      </trkpt>
      <trkpt lat="50.88947" lon="1.77444">
        <ele>63.4</ele>
        <time>2020-06-22T20:49:20Z</time>
      </trkpt>
      <trkpt lat="50.88953" lon="1.77443">
        <ele>63.4</ele>
        <time>2020-06-22T20:49:21Z</time>
      </trkpt>
      <trkpt lat="50.88959" lon="1.77442">
        <ele>63.4</ele>
        <time>2020-06-22T20:49:22Z</time>
      </trkpt>
      <trkpt lat="50.88964" lon="1.77441">
        <ele>63.4</ele>
        <time>2020-06-22T20:49:23Z</time>
      </trkpt>
      <trkpt lat="50.88969" lon="1.77441">
        <ele>63.5</ele>
        <time>2020-06-22T20:49:24Z</time>
      </trkpt>
      <trkpt lat="50.88974" lon="1.77443">
        <ele>63.5</ele>
        <time>2020-06-22T20:49:25Z</time>
      </trkpt>
      <trkpt lat="50.88979" lon="1.77447">
        <ele>63.5</ele>
        <time>2020-06-22T20:49:26Z</time>
      </trkpt>
      <trkpt lat="50.88984" lon="1.77452">
        <ele>63.6</ele>
        <time>2020-06-22T20:49:27Z</time>
      </trkpt>
      <trkpt lat="50.88989" lon="1.77456">
        <ele>63.6</ele>
        <time>2020-06-22T20:49:28Z</time>
      </trkpt>
      <trkpt lat="50.88992" lon="1.77462">
        <ele>63.7</ele>
        <time>2020-06-22T20:49:29Z</time>
      </trkpt>
      <trkpt lat="50.88996" lon="1.77469">
        <ele>63.7</ele>
        <time>2020-06-22T20:49:30Z</time>
      </trkpt>
      <trkpt lat="50.88997" lon="1.77478">
        <ele>63.6</ele>
        <time>2020-06-22T20:49:31Z</time>
      </trkpt>
      <trkpt lat="50.88997" lon="1.77487">
        <ele>63.5</ele>
        <time>2020-06-22T20:49:32Z</time>
      </trkpt>
      <trkpt lat="50.88998" lon="1.77496">
        <ele>63.5</ele>
        <time>2020-06-22T20:49:33Z</time>
      </trkpt>
      <trkpt lat="50.88998" lon="1.77505">
        <ele>63.4</ele>
        <time>2020-06-22T20:49:34Z</time>
      </trkpt>
      <trkpt lat="50.88999" lon="1.77514">
        <ele>63.3</ele>
        <time>2020-06-22T20:49:35Z</time>
      </trkpt>
      <trkpt lat="50.88999" lon="1.77523">
        <ele>63.3</ele>
        <time>2020-06-22T20:49:36Z</time>
      </trkpt>
      <trkpt lat="50.88998" lon="1.77531">
        <ele>63.2</ele>
        <time>2020-06-22T20:49:37Z</time>
      </trkpt>
      <trkpt lat="50.88997" lon="1.7754">
        <ele>63.2</ele>
        <time>2020-06-22T20:49:38Z</time>
      </trkpt>
      <trkpt lat="50.88995" lon="1.77548">
        <ele>63.2</ele>
        <time>2020-06-22T20:49:39Z</time>
      </trkpt>
      <trkpt lat="50.88992" lon="1.77556">
        <ele>63.2</ele>
        <time>2020-06-22T20:49:40Z</time>
      </trkpt>
      <trkpt lat="50.88989" lon="1.77564">
        <ele>63.2</ele>
        <time>2020-06-22T20:49:41Z</time>
      </trkpt>
      <trkpt lat="50.88987" lon="1.77573">
        <ele>63.3</ele>
        <time>2020-06-22T20:49:42Z</time>
      </trkpt>
      <trkpt lat="50.88983" lon="1.7758">
        <ele>63.3</ele>
        <time>2020-06-22T20:49:43Z</time>
      </trkpt>
      <trkpt lat="50.88979" lon="1.77588">
        <ele>63.4</ele>
        <time>2020-06-22T20:49:44Z</time>
      </trkpt>
      <trkpt lat="50.88977" lon="1.77595">
        <ele>63.5</ele>
        <time>2020-06-22T20:49:45Z</time>
      </trkpt>
      <trkpt lat="50.88974" lon="1.77602">
        <ele>63.6</ele>
        <time>2020-06-22T20:49:46Z</time>
      </trkpt>
      <trkpt lat="50.88972" lon="1.77609">
        <ele>63.7</ele>
        <time>2020-06-22T20:49:47Z</time>
      </trkpt>
      <trkpt lat="50.8897" lon="1.77616">
        <ele>63.8</ele>
        <time>2020-06-22T20:49:48Z</time>
      </trkpt>
      <trkpt lat="50.88968" lon="1.77623">
        <ele>64</ele>
        <time>2020-06-22T20:49:49Z</time>
      </trkpt>
      <trkpt lat="50.88965" lon="1.77629">
        <ele>64.2</ele>
        <time>2020-06-22T20:49:50Z</time>
      </trkpt>
      <trkpt lat="50.88963" lon="1.77635">
        <ele>64.3</ele>
        <time>2020-06-22T20:49:51Z</time>
      </trkpt>
      <trkpt lat="50.8896" lon="1.77642">
        <ele>64.6</ele>
        <time>2020-06-22T20:49:52Z</time>
      </trkpt>
      <trkpt lat="50.88957" lon="1.77648">
        <ele>64.8</ele>
        <time>2020-06-22T20:49:53Z</time>
      </trkpt>
      <trkpt lat="50.88954" lon="1.77655">
        <ele>65.1</ele>
        <time>2020-06-22T20:49:54Z</time>
      </trkpt>
      <trkpt lat="50.8895" lon="1.77663">
        <ele>65.4</ele>
        <time>2020-06-22T20:49:55Z</time>
      </trkpt>
      <trkpt lat="50.88945" lon="1.77669">
        <ele>65.8</ele>
        <time>2020-06-22T20:49:56Z</time>
      </trkpt>
      <trkpt lat="50.88939" lon="1.77675">
        <ele>66.2</ele>
        <time>2020-06-22T20:49:57Z</time>
      </trkpt>
      <trkpt lat="50.88935" lon="1.77681">
        <ele>66.6</ele>
        <time>2020-06-22T20:49:58Z</time>
      </trkpt>
      <trkpt lat="50.8893" lon="1.77687">
        <ele>67</ele>
        <time>2020-06-22T20:49:59Z</time>
      </trkpt>
      <trkpt lat="50.88926" lon="1.77693">
        <ele>67.4</ele>
        <time>2020-06-22T20:50:00Z</time>
      </trkpt>
      <trkpt lat="50.88922" lon="1.777">
        <ele>67.9</ele>
        <time>2020-06-22T20:50:01Z</time>
      </trkpt>
      <trkpt lat="50.88918" lon="1.77707">
        <ele>68.3</ele>
        <time>2020-06-22T20:50:02Z</time>
      </trkpt>
      <trkpt lat="50.88914" lon="1.77714">
        <ele>68.6</ele>
        <time>2020-06-22T20:50:03Z</time>
      </trkpt>
      <trkpt lat="50.88911" lon="1.77721">
        <ele>69</ele>
        <time>2020-06-22T20:50:04Z</time>
      </trkpt>
      <trkpt lat="50.88908" lon="1.77728">
        <ele>69.3</ele>
        <time>2020-06-22T20:50:05Z</time>
      </trkpt>
      <trkpt lat="50.88904" lon="1.77734">
        <ele>69.6</ele>
        <time>2020-06-22T20:50:06Z</time>
      </trkpt>
      <trkpt lat="50.88902" lon="1.77738">
        <ele>69.8</ele>
        <time>2020-06-22T20:50:07Z</time>
      </trkpt>
      <trkpt lat="50.889" lon="1.77745">
        <ele>70.1</ele>
        <time>2020-06-22T20:50:08Z</time>
      </trkpt>
      <trkpt lat="50.88898" lon="1.77753">
        <ele>70.3</ele>
        <time>2020-06-22T20:50:09Z</time>
      </trkpt>
      <trkpt lat="50.88897" lon="1.7776">
        <ele>70.6</ele>
        <time>2020-06-22T20:50:10Z</time>
      </trkpt>
      <trkpt lat="50.88895" lon="1.77769">
        <ele>70.8</ele>
        <time>2020-06-22T20:50:11Z</time>
      </trkpt>
      <trkpt lat="50.88894" lon="1.77777">
        <ele>71.1</ele>
        <time>2020-06-22T20:50:12Z</time>
      </trkpt>
      <trkpt lat="50.88893" lon="1.77785">
        <ele>71.3</ele>
        <time>2020-06-22T20:50:13Z</time>
      </trkpt>
      <trkpt lat="50.88892" lon="1.77793">
        <ele>71.6</ele>
        <time>2020-06-22T20:50:14Z</time>
      </trkpt>
      <trkpt lat="50.88891" lon="1.778">
        <ele>71.7</ele>
        <time>2020-06-22T20:50:15Z</time>
      </trkpt>
      <trkpt lat="50.8889" lon="1.77806">
        <ele>71.9</ele>
        <time>2020-06-22T20:50:16Z</time>
      </trkpt>
      <trkpt lat="50.88889" lon="1.77812">
        <ele>72.1</ele>
        <time>2020-06-22T20:50:17Z</time>
      </trkpt>
      <trkpt lat="50.88889" lon="1.77815">
        <ele>72.1</ele>
        <time>2020-06-22T20:50:18Z</time>
      </trkpt>
      <trkpt lat="50.88889" lon="1.7782">
        <ele>72.2</ele>
        <time>2020-06-22T20:50:19Z</time>
      </trkpt>
      <trkpt lat="50.88888" lon="1.77825">
        <ele>72.4</ele>
        <time>2020-06-22T20:50:20Z</time>
      </trkpt>
      <trkpt lat="50.88887" lon="1.77831">
        <ele>72.5</ele>
        <time>2020-06-22T20:50:21Z</time>
      </trkpt>
      <trkpt lat="50.88885" lon="1.77837">
        <ele>72.7</ele>
        <time>2020-06-22T20:50:22Z</time>
      </trkpt>
      <trkpt lat="50.88884" lon="1.77843">
        <ele>72.8</ele>
        <time>2020-06-22T20:50:23Z</time>
      </trkpt>
      <trkpt lat="50.88883" lon="1.77849">
        <ele>72.9</ele>
        <time>2020-06-22T20:50:24Z</time>
      </trkpt>
      <trkpt lat="50.88882" lon="1.77856">
        <ele>73.1</ele>
        <time>2020-06-22T20:50:25Z</time>
      </trkpt>
      <trkpt lat="50.88881" lon="1.77862">
        <ele>73.2</ele>
        <time>2020-06-22T20:50:26Z</time>
      </trkpt>
      <trkpt lat="50.8888" lon="1.77866">
        <ele>73.3</ele>
        <time>2020-06-22T20:50:27Z</time>
      </trkpt>
      <trkpt lat="50.88879" lon="1.77873">
        <ele>73.5</ele>
        <time>2020-06-22T20:50:28Z</time>
      </trkpt>
      <trkpt lat="50.88877" lon="1.77879">
        <ele>73.6</ele>
        <time>2020-06-22T20:50:29Z</time>
      </trkpt>
      <trkpt lat="50.88875" lon="1.77887">
        <ele>73.8</ele>
        <time>2020-06-22T20:50:30Z</time>
      </trkpt>
      <trkpt lat="50.88874" lon="1.77893">
        <ele>73.9</ele>
        <time>2020-06-22T20:50:31Z</time>
      </trkpt>
      <trkpt lat="50.88872" lon="1.779">
        <ele>74.1</ele>
        <time>2020-06-22T20:50:32Z</time>
      </trkpt>
      <trkpt lat="50.8887" lon="1.77906">
        <ele>74.2</ele>
        <time>2020-06-22T20:50:33Z</time>
      </trkpt>
      <trkpt lat="50.88867" lon="1.77913">
        <ele>74.4</ele>
        <time>2020-06-22T20:50:34Z</time>
      </trkpt>
      <trkpt lat="50.88865" lon="1.77919">
        <ele>74.6</ele>
        <time>2020-06-22T20:50:35Z</time>
      </trkpt>
      <trkpt lat="50.88863" lon="1.77925">
        <ele>74.8</ele>
        <time>2020-06-22T20:50:36Z</time>
      </trkpt>
      <trkpt lat="50.88861" lon="1.77931">
        <ele>74.9</ele>
        <time>2020-06-22T20:50:37Z</time>
      </trkpt>
      <trkpt lat="50.88859" lon="1.77938">
        <ele>75.1</ele>
        <time>2020-06-22T20:50:38Z</time>
      </trkpt>
      <trkpt lat="50.88857" lon="1.77946">
        <ele>75.3</ele>
        <time>2020-06-22T20:50:39Z</time>
      </trkpt>
      <trkpt lat="50.88855" lon="1.77953">
        <ele>75.5</ele>
        <time>2020-06-22T20:50:40Z</time>
      </trkpt>
      <trkpt lat="50.88854" lon="1.77959">
        <ele>75.7</ele>
        <time>2020-06-22T20:50:41Z</time>
      </trkpt>
      <trkpt lat="50.88853" lon="1.77966">
        <ele>75.9</ele>
        <time>2020-06-22T20:50:42Z</time>
      </trkpt>
      <trkpt lat="50.88851" lon="1.77972">
        <ele>76.1</ele>
        <time>2020-06-22T20:50:43Z</time>
      </trkpt>
      <trkpt lat="50.8885" lon="1.77979">
        <ele>76.3</ele>
        <time>2020-06-22T20:50:44Z</time>
      </trkpt>
      <trkpt lat="50.88848" lon="1.77985">
        <ele>76.5</ele>
        <time>2020-06-22T20:50:45Z</time>
      </trkpt>
      <trkpt lat="50.88846" lon="1.77991">
        <ele>76.6</ele>
        <time>2020-06-22T20:50:46Z</time>
      </trkpt>
      <trkpt lat="50.88844" lon="1.77997">
        <ele>76.8</ele>
        <time>2020-06-22T20:50:47Z</time>
      </trkpt>
      <trkpt lat="50.88843" lon="1.78004">
        <ele>77</ele>
        <time>2020-06-22T20:50:48Z</time>
      </trkpt>
      <trkpt lat="50.88841" lon="1.78011">
        <ele>77.2</ele>
        <time>2020-06-22T20:50:49Z</time>
      </trkpt>
      <trkpt lat="50.8884" lon="1.78015">
        <ele>77.4</ele>
        <time>2020-06-22T20:50:50Z</time>
      </trkpt>
      <trkpt lat="50.88838" lon="1.78021">
        <ele>77.6</ele>
        <time>2020-06-22T20:50:51Z</time>
      </trkpt>
      <trkpt lat="50.88837" lon="1.78028">
        <ele>77.8</ele>
        <time>2020-06-22T20:50:52Z</time>
      </trkpt>
      <trkpt lat="50.88835" lon="1.78035">
        <ele>77.9</ele>
        <time>2020-06-22T20:50:53Z</time>
      </trkpt>
      <trkpt lat="50.88834" lon="1.78043">
        <ele>78.1</ele>
        <time>2020-06-22T20:50:54Z</time>
      </trkpt>
      <trkpt lat="50.88833" lon="1.78047">
        <ele>78.2</ele>
        <time>2020-06-22T20:50:55Z</time>
      </trkpt>
      <trkpt lat="50.88831" lon="1.78053">
        <ele>78.4</ele>
        <time>2020-06-22T20:50:56Z</time>
      </trkpt>
      <trkpt lat="50.88829" lon="1.78057">
        <ele>78.4</ele>
        <time>2020-06-22T20:50:57Z</time>
      </trkpt>
      <trkpt lat="50.88827" lon="1.78063">
        <ele>78.5</ele>
        <time>2020-06-22T20:50:58Z</time>
      </trkpt>
      <trkpt lat="50.88825" lon="1.7807">
        <ele>78.6</ele>
        <time>2020-06-22T20:50:59Z</time>
      </trkpt>
      <trkpt lat="50.88824" lon="1.78076">
        <ele>78.7</ele>
        <time>2020-06-22T20:51:00Z</time>
      </trkpt>
      <trkpt lat="50.88823" lon="1.78078">
        <ele>78.7</ele>
        <time>2020-06-22T20:51:01Z</time>
      </trkpt>
      <trkpt lat="50.88822" lon="1.78085">
        <ele>78.8</ele>
        <time>2020-06-22T20:51:02Z</time>
      </trkpt>
      <trkpt lat="50.88821" lon="1.78088">
        <ele>78.8</ele>
        <time>2020-06-22T20:51:03Z</time>
      </trkpt>
      <trkpt lat="50.8882" lon="1.78093">
        <ele>78.8</ele>
        <time>2020-06-22T20:51:04Z</time>
      </trkpt>
      <trkpt lat="50.88819" lon="1.78098">
        <ele>78.8</ele>
        <time>2020-06-22T20:51:05Z</time>
      </trkpt>
      <trkpt lat="50.88819" lon="1.781">
        <ele>78.8</ele>
        <time>2020-06-22T20:51:06Z</time>
      </trkpt>
      <trkpt lat="50.88816" lon="1.78106">
        <ele>78.7</ele>
        <time>2020-06-22T20:51:07Z</time>
      </trkpt>
      <trkpt lat="50.88814" lon="1.78111">
        <ele>78.7</ele>
        <time>2020-06-22T20:51:08Z</time>
      </trkpt>
      <trkpt lat="50.88813" lon="1.78114">
        <ele>78.6</ele>
        <time>2020-06-22T20:51:09Z</time>
      </trkpt>
      <trkpt lat="50.88813" lon="1.78116">
        <ele>78.6</ele>
        <time>2020-06-22T20:51:10Z</time>
      </trkpt>
      <trkpt lat="50.88811" lon="1.7812">
        <ele>78.5</ele>
        <time>2020-06-22T20:51:11Z</time>
      </trkpt>
      <trkpt lat="50.8881" lon="1.78125">
        <ele>78.4</ele>
        <time>2020-06-22T20:51:12Z</time>
      </trkpt>
      <trkpt lat="50.88811" lon="1.78131">
        <ele>78.3</ele>
        <time>2020-06-22T20:51:13Z</time>
      </trkpt>
      <trkpt lat="50.88811" lon="1.78134">
        <ele>78.3</ele>
        <time>2020-06-22T20:51:14Z</time>
      </trkpt>
      <trkpt lat="50.88812" lon="1.78137">
        <ele>78.2</ele>
        <time>2020-06-22T20:51:15Z</time>
      </trkpt>
      <trkpt lat="50.88812" lon="1.78138">
        <ele>78.2</ele>
        <time>2020-06-22T20:51:16Z</time>
      </trkpt>
      <trkpt lat="50.88813" lon="1.78139">
        <ele>78.2</ele>
        <time>2020-06-22T20:51:17Z</time>
      </trkpt>
      <trkpt lat="50.88813" lon="1.78139">
        <ele>78.2</ele>
        <time>2020-06-22T20:51:18Z</time>
      </trkpt>
      <trkpt lat="50.88813" lon="1.78139">
        <ele>78.2</ele>
        <time>2020-06-22T20:51:19Z</time>
      </trkpt>
      <trkpt lat="50.88814" lon="1.78138">
        <ele>78.2</ele>
        <time>2020-06-22T20:51:20Z</time>
      </trkpt>
      <trkpt lat="50.88814" lon="1.78138">
        <ele>78.2</ele>
        <time>2020-06-22T20:51:21Z</time>
      </trkpt>
      <trkpt lat="50.88815" lon="1.78138">
        <ele>78.2</ele>
        <time>2020-06-22T20:51:22Z</time>
      </trkpt>
      <trkpt lat="50.88815" lon="1.78138">
        <ele>78.2</ele>
        <time>2020-06-22T20:51:23Z</time>
      </trkpt>
      <trkpt lat="50.88815" lon="1.78139">
        <ele>78.2</ele>
        <time>2020-06-22T20:51:24Z</time>
      </trkpt>
      <trkpt lat="50.88815" lon="1.7814">
        <ele>78.1</ele>
        <time>2020-06-22T20:51:25Z</time>
      </trkpt>
      <trkpt lat="50.88815" lon="1.7814">
        <ele>78.1</ele>
        <time>2020-06-22T20:51:26Z</time>
      </trkpt>
      <trkpt lat="50.88815" lon="1.7814">
        <ele>78.1</ele>
        <time>2020-06-22T20:51:27Z</time>
      </trkpt>
      <trkpt lat="50.88821" lon="1.7815">
        <ele>77.9</ele>
        <time>2020-06-22T20:53:53Z</time>
      </trkpt>
      <trkpt lat="50.88822" lon="1.78153">
        <ele>77.9</ele>
        <time>2020-06-22T20:53:54Z</time>
      </trkpt>
      <trkpt lat="50.88824" lon="1.78156">
        <ele>77.8</ele>
        <time>2020-06-22T20:53:55Z</time>
      </trkpt>
      <trkpt lat="50.88825" lon="1.78158">
        <ele>77.7</ele>
        <time>2020-06-22T20:53:56Z</time>
      </trkpt>
      <trkpt lat="50.88828" lon="1.78159">
        <ele>77.7</ele>
        <time>2020-06-22T20:53:57Z</time>
      </trkpt>
      <trkpt lat="50.88829" lon="1.78163">
        <ele>77.6</ele>
        <time>2020-06-22T20:53:58Z</time>
      </trkpt>
      <trkpt lat="50.88831" lon="1.78166">
        <ele>77.5</ele>
        <time>2020-06-22T20:53:59Z</time>
      </trkpt>
      <trkpt lat="50.88834" lon="1.78168">
        <ele>77.4</ele>
        <time>2020-06-22T20:54:00Z</time>
      </trkpt>
      <trkpt lat="50.88837" lon="1.78171">
        <ele>77.3</ele>
        <time>2020-06-22T20:54:01Z</time>
      </trkpt>
      <trkpt lat="50.88839" lon="1.78174">
        <ele>77.2</ele>
        <time>2020-06-22T20:54:02Z</time>
      </trkpt>
      <trkpt lat="50.88841" lon="1.78177">
        <ele>77.1</ele>
        <time>2020-06-22T20:54:03Z</time>
      </trkpt>
      <trkpt lat="50.88844" lon="1.78181">
        <ele>77</ele>
        <time>2020-06-22T20:54:04Z</time>
      </trkpt>
      <trkpt lat="50.88846" lon="1.78183">
        <ele>76.9</ele>
        <time>2020-06-22T20:54:05Z</time>
      </trkpt>
      <trkpt lat="50.88849" lon="1.78186">
        <ele>76.8</ele>
        <time>2020-06-22T20:54:06Z</time>
      </trkpt>
      <trkpt lat="50.88851" lon="1.7819">
        <ele>76.7</ele>
        <time>2020-06-22T20:54:07Z</time>
      </trkpt>
      <trkpt lat="50.88854" lon="1.78193">
        <ele>76.7</ele>
        <time>2020-06-22T20:54:08Z</time>
      </trkpt>
      <trkpt lat="50.88857" lon="1.78196">
        <ele>76.6</ele>
        <time>2020-06-22T20:54:09Z</time>
      </trkpt>
      <trkpt lat="50.8886" lon="1.78199">
        <ele>76.5</ele>
        <time>2020-06-22T20:54:10Z</time>
      </trkpt>
      <trkpt lat="50.88863" lon="1.78203">
        <ele>76.4</ele>
        <time>2020-06-22T20:54:11Z</time>
      </trkpt>
      <trkpt lat="50.88865" lon="1.78207">
        <ele>76.3</ele>
        <time>2020-06-22T20:54:12Z</time>
      </trkpt>
      <trkpt lat="50.88868" lon="1.78211">
        <ele>76.2</ele>
        <time>2020-06-22T20:54:13Z</time>
      </trkpt>
      <trkpt lat="50.88871" lon="1.78215">
        <ele>76.1</ele>
        <time>2020-06-22T20:54:14Z</time>
      </trkpt>
      <trkpt lat="50.88874" lon="1.78219">
        <ele>76</ele>
        <time>2020-06-22T20:54:15Z</time>
      </trkpt>
      <trkpt lat="50.88877" lon="1.78222">
        <ele>75.9</ele>
        <time>2020-06-22T20:54:16Z</time>
      </trkpt>
      <trkpt lat="50.8888" lon="1.78227">
        <ele>75.8</ele>
        <time>2020-06-22T20:54:17Z</time>
      </trkpt>
      <trkpt lat="50.88884" lon="1.78231">
        <ele>75.7</ele>
        <time>2020-06-22T20:54:18Z</time>
      </trkpt>
      <trkpt lat="50.88887" lon="1.78235">
        <ele>75.6</ele>
        <time>2020-06-22T20:54:19Z</time>
      </trkpt>
      <trkpt lat="50.8889" lon="1.7824">
        <ele>75.5</ele>
        <time>2020-06-22T20:54:20Z</time>
      </trkpt>
      <trkpt lat="50.88894" lon="1.78244">
        <ele>75.4</ele>
        <time>2020-06-22T20:54:21Z</time>
      </trkpt>
      <trkpt lat="50.88898" lon="1.78248">
        <ele>75.2</ele>
        <time>2020-06-22T20:54:22Z</time>
      </trkpt>
      <trkpt lat="50.88901" lon="1.78253">
        <ele>75.1</ele>
        <time>2020-06-22T20:54:23Z</time>
      </trkpt>
      <trkpt lat="50.88905" lon="1.78258">
        <ele>75</ele>
        <time>2020-06-22T20:54:24Z</time>
      </trkpt>
      <trkpt lat="50.88909" lon="1.78263">
        <ele>74.8</ele>
        <time>2020-06-22T20:54:25Z</time>
      </trkpt>
      <trkpt lat="50.88913" lon="1.78268">
        <ele>74.7</ele>
        <time>2020-06-22T20:54:26Z</time>
      </trkpt>
      <trkpt lat="50.88916" lon="1.78273">
        <ele>74.6</ele>
        <time>2020-06-22T20:54:27Z</time>
      </trkpt>
      <trkpt lat="50.8892" lon="1.78277">
        <ele>74.5</ele>
        <time>2020-06-22T20:54:28Z</time>
      </trkpt>
      <trkpt lat="50.88923" lon="1.78282">
        <ele>74.3</ele>
        <time>2020-06-22T20:54:29Z</time>
      </trkpt>
      <trkpt lat="50.88927" lon="1.78288">
        <ele>74.2</ele>
        <time>2020-06-22T20:54:30Z</time>
      </trkpt>
      <trkpt lat="50.8893" lon="1.78293">
        <ele>74.1</ele>
        <time>2020-06-22T20:54:31Z</time>
      </trkpt>
      <trkpt lat="50.88934" lon="1.78299">
        <ele>73.9</ele>
        <time>2020-06-22T20:54:32Z</time>
      </trkpt>
      <trkpt lat="50.88938" lon="1.78304">
        <ele>73.8</ele>
        <time>2020-06-22T20:54:33Z</time>
      </trkpt>
      <trkpt lat="50.88942" lon="1.78308">
        <ele>73.7</ele>
        <time>2020-06-22T20:54:34Z</time>
      </trkpt>
      <trkpt lat="50.88947" lon="1.78314">
        <ele>73.5</ele>
        <time>2020-06-22T20:54:35Z</time>
      </trkpt>
      <trkpt lat="50.88951" lon="1.78319">
        <ele>73.3</ele>
        <time>2020-06-22T20:54:36Z</time>
      </trkpt>
      <trkpt lat="50.88955" lon="1.78325">
        <ele>73.2</ele>
        <time>2020-06-22T20:54:37Z</time>
      </trkpt>
      <trkpt lat="50.88959" lon="1.78331">
        <ele>73</ele>
        <time>2020-06-22T20:54:38Z</time>
      </trkpt>
      <trkpt lat="50.88964" lon="1.78337">
        <ele>72.9</ele>
        <time>2020-06-22T20:54:39Z</time>
      </trkpt>
      <trkpt lat="50.88968" lon="1.78343">
        <ele>72.7</ele>
        <time>2020-06-22T20:54:40Z</time>
      </trkpt>
      <trkpt lat="50.88972" lon="1.78349">
        <ele>72.6</ele>
        <time>2020-06-22T20:54:41Z</time>
      </trkpt>
      <trkpt lat="50.88977" lon="1.78354">
        <ele>72.5</ele>
        <time>2020-06-22T20:54:42Z</time>
      </trkpt>
      <trkpt lat="50.88982" lon="1.7836">
        <ele>72.3</ele>
        <time>2020-06-22T20:54:43Z</time>
      </trkpt>
      <trkpt lat="50.88987" lon="1.78365">
        <ele>72.2</ele>
        <time>2020-06-22T20:54:44Z</time>
      </trkpt>
      <trkpt lat="50.88991" lon="1.78371">
        <ele>72.1</ele>
        <time>2020-06-22T20:54:45Z</time>
      </trkpt>
      <trkpt lat="50.88995" lon="1.78377">
        <ele>71.9</ele>
        <time>2020-06-22T20:54:46Z</time>
      </trkpt>
      <trkpt lat="50.88999" lon="1.78384">
        <ele>71.8</ele>
        <time>2020-06-22T20:54:47Z</time>
      </trkpt>
      <trkpt lat="50.89003" lon="1.7839">
        <ele>71.7</ele>
        <time>2020-06-22T20:54:48Z</time>
      </trkpt>
      <trkpt lat="50.89008" lon="1.78397">
        <ele>71.5</ele>
        <time>2020-06-22T20:54:49Z</time>
      </trkpt>
      <trkpt lat="50.89013" lon="1.78403">
        <ele>71.4</ele>
        <time>2020-06-22T20:54:50Z</time>
      </trkpt>
      <trkpt lat="50.89018" lon="1.78409">
        <ele>71.3</ele>
        <time>2020-06-22T20:54:51Z</time>
      </trkpt>
      <trkpt lat="50.89022" lon="1.78415">
        <ele>71.1</ele>
        <time>2020-06-22T20:54:52Z</time>
      </trkpt>
      <trkpt lat="50.89027" lon="1.78421">
        <ele>71</ele>
        <time>2020-06-22T20:54:53Z</time>
      </trkpt>
      <trkpt lat="50.89031" lon="1.78427">
        <ele>70.9</ele>
        <time>2020-06-22T20:54:54Z</time>
      </trkpt>
      <trkpt lat="50.89035" lon="1.78433">
        <ele>70.7</ele>
        <time>2020-06-22T20:54:55Z</time>
      </trkpt>
      <trkpt lat="50.89039" lon="1.7844">
        <ele>70.6</ele>
        <time>2020-06-22T20:54:56Z</time>
      </trkpt>
      <trkpt lat="50.89043" lon="1.78446">
        <ele>70.4</ele>
        <time>2020-06-22T20:54:57Z</time>
      </trkpt>
      <trkpt lat="50.89048" lon="1.78452">
        <ele>70.3</ele>
        <time>2020-06-22T20:54:58Z</time>
      </trkpt>
      <trkpt lat="50.89052" lon="1.78458">
        <ele>70.2</ele>
        <time>2020-06-22T20:54:59Z</time>
      </trkpt>
      <trkpt lat="50.89056" lon="1.78464">
        <ele>70.1</ele>
        <time>2020-06-22T20:55:00Z</time>
      </trkpt>
      <trkpt lat="50.89061" lon="1.78469">
        <ele>69.9</ele>
        <time>2020-06-22T20:55:01Z</time>
      </trkpt>
      <trkpt lat="50.89066" lon="1.78474">
        <ele>69.8</ele>
        <time>2020-06-22T20:55:02Z</time>
      </trkpt>
      <trkpt lat="50.89072" lon="1.78479">
        <ele>69.6</ele>
        <time>2020-06-22T20:55:03Z</time>
      </trkpt>
      <trkpt lat="50.89077" lon="1.78485">
        <ele>69.5</ele>
        <time>2020-06-22T20:55:04Z</time>
      </trkpt>
      <trkpt lat="50.89081" lon="1.78492">
        <ele>69.3</ele>
        <time>2020-06-22T20:55:05Z</time>
      </trkpt>
      <trkpt lat="50.89085" lon="1.78499">
        <ele>69.1</ele>
        <time>2020-06-22T20:55:06Z</time>
      </trkpt>
      <trkpt lat="50.89089" lon="1.78507">
        <ele>68.9</ele>
        <time>2020-06-22T20:55:07Z</time>
      </trkpt>
      <trkpt lat="50.89094" lon="1.78513">
        <ele>68.7</ele>
        <time>2020-06-22T20:55:08Z</time>
      </trkpt>
      <trkpt lat="50.89098" lon="1.7852">
        <ele>68.5</ele>
        <time>2020-06-22T20:55:09Z</time>
      </trkpt>
      <trkpt lat="50.89103" lon="1.78527">
        <ele>68.2</ele>
        <time>2020-06-22T20:55:10Z</time>
      </trkpt>
      <trkpt lat="50.89108" lon="1.78533">
        <ele>68</ele>
        <time>2020-06-22T20:55:11Z</time>
      </trkpt>
      <trkpt lat="50.89112" lon="1.78541">
        <ele>67.8</ele>
        <time>2020-06-22T20:55:12Z</time>
      </trkpt>
      <trkpt lat="50.89117" lon="1.78548">
        <ele>67.5</ele>
        <time>2020-06-22T20:55:13Z</time>
      </trkpt>
      <trkpt lat="50.89121" lon="1.78556">
        <ele>67.2</ele>
        <time>2020-06-22T20:55:14Z</time>
      </trkpt>
      <trkpt lat="50.89126" lon="1.78564">
        <ele>66.9</ele>
        <time>2020-06-22T20:55:15Z</time>
      </trkpt>
      <trkpt lat="50.89131" lon="1.78573">
        <ele>66.7</ele>
        <time>2020-06-22T20:55:16Z</time>
      </trkpt>
      <trkpt lat="50.89136" lon="1.7858">
        <ele>66.4</ele>
        <time>2020-06-22T20:55:17Z</time>
      </trkpt>
      <trkpt lat="50.89141" lon="1.78588">
        <ele>66.2</ele>
        <time>2020-06-22T20:55:18Z</time>
      </trkpt>
      <trkpt lat="50.89146" lon="1.78596">
        <ele>65.9</ele>
        <time>2020-06-22T20:55:19Z</time>
      </trkpt>
      <trkpt lat="50.89151" lon="1.78604">
        <ele>65.7</ele>
        <time>2020-06-22T20:55:20Z</time>
      </trkpt>
      <trkpt lat="50.89157" lon="1.78612">
        <ele>65.4</ele>
        <time>2020-06-22T20:55:21Z</time>
      </trkpt>
      <trkpt lat="50.89162" lon="1.7862">
        <ele>65.2</ele>
        <time>2020-06-22T20:55:22Z</time>
      </trkpt>
      <trkpt lat="50.89168" lon="1.78627">
        <ele>64.9</ele>
        <time>2020-06-22T20:55:23Z</time>
      </trkpt>
      <trkpt lat="50.89174" lon="1.78635">
        <ele>64.7</ele>
        <time>2020-06-22T20:55:24Z</time>
      </trkpt>
      <trkpt lat="50.8918" lon="1.78643">
        <ele>64.5</ele>
        <time>2020-06-22T20:55:25Z</time>
      </trkpt>
      <trkpt lat="50.89185" lon="1.78651">
        <ele>64.2</ele>
        <time>2020-06-22T20:55:26Z</time>
      </trkpt>
      <trkpt lat="50.89191" lon="1.78659">
        <ele>64</ele>
        <time>2020-06-22T20:55:27Z</time>
      </trkpt>
      <trkpt lat="50.89197" lon="1.78667">
        <ele>63.8</ele>
        <time>2020-06-22T20:55:28Z</time>
      </trkpt>
      <trkpt lat="50.89203" lon="1.78675">
        <ele>63.6</ele>
        <time>2020-06-22T20:55:29Z</time>
      </trkpt>
      <trkpt lat="50.89208" lon="1.78683">
        <ele>63.3</ele>
        <time>2020-06-22T20:55:30Z</time>
      </trkpt>
      <trkpt lat="50.89214" lon="1.78691">
        <ele>63.1</ele>
        <time>2020-06-22T20:55:31Z</time>
      </trkpt>
      <trkpt lat="50.89221" lon="1.78698">
        <ele>62.9</ele>
        <time>2020-06-22T20:55:32Z</time>
      </trkpt>
      <trkpt lat="50.89226" lon="1.78706">
        <ele>62.7</ele>
        <time>2020-06-22T20:55:33Z</time>
      </trkpt>
      <trkpt lat="50.89232" lon="1.78713">
        <ele>62.5</ele>
        <time>2020-06-22T20:55:34Z</time>
      </trkpt>
      <trkpt lat="50.89238" lon="1.78721">
        <ele>62.3</ele>
        <time>2020-06-22T20:55:35Z</time>
      </trkpt>
      <trkpt lat="50.89244" lon="1.78728">
        <ele>62.1</ele>
        <time>2020-06-22T20:55:36Z</time>
      </trkpt>
      <trkpt lat="50.8925" lon="1.78736">
        <ele>61.9</ele>
        <time>2020-06-22T20:55:37Z</time>
      </trkpt>
      <trkpt lat="50.89256" lon="1.78743">
        <ele>61.7</ele>
        <time>2020-06-22T20:55:38Z</time>
      </trkpt>
      <trkpt lat="50.89262" lon="1.7875">
        <ele>61.4</ele>
        <time>2020-06-22T20:55:39Z</time>
      </trkpt>
      <trkpt lat="50.89269" lon="1.78757">
        <ele>61.2</ele>
        <time>2020-06-22T20:55:40Z</time>
      </trkpt>
      <trkpt lat="50.89275" lon="1.78764">
        <ele>61</ele>
        <time>2020-06-22T20:55:41Z</time>
      </trkpt>
      <trkpt lat="50.89281" lon="1.7877">
        <ele>60.8</ele>
        <time>2020-06-22T20:55:42Z</time>
      </trkpt>
      <trkpt lat="50.89288" lon="1.78776">
        <ele>60.5</ele>
        <time>2020-06-22T20:55:43Z</time>
      </trkpt>
      <trkpt lat="50.89295" lon="1.78781">
        <ele>60.3</ele>
        <time>2020-06-22T20:55:44Z</time>
      </trkpt>
      <trkpt lat="50.89302" lon="1.78787">
        <ele>60</ele>
        <time>2020-06-22T20:55:45Z</time>
      </trkpt>
      <trkpt lat="50.89309" lon="1.78792">
        <ele>59.8</ele>
        <time>2020-06-22T20:55:46Z</time>
      </trkpt>
      <trkpt lat="50.89315" lon="1.78797">
        <ele>59.6</ele>
        <time>2020-06-22T20:55:47Z</time>
      </trkpt>
      <trkpt lat="50.89322" lon="1.78803">
        <ele>59.3</ele>
        <time>2020-06-22T20:55:48Z</time>
      </trkpt>
      <trkpt lat="50.89329" lon="1.78808">
        <ele>59.1</ele>
        <time>2020-06-22T20:55:49Z</time>
      </trkpt>
      <trkpt lat="50.89336" lon="1.78814">
        <ele>58.9</ele>
        <time>2020-06-22T20:55:50Z</time>
      </trkpt>
      <trkpt lat="50.89342" lon="1.7882">
        <ele>58.7</ele>
        <time>2020-06-22T20:55:51Z</time>
      </trkpt>
      <trkpt lat="50.89349" lon="1.78826">
        <ele>58.5</ele>
        <time>2020-06-22T20:55:52Z</time>
      </trkpt>
      <trkpt lat="50.89356" lon="1.78832">
        <ele>58.3</ele>
        <time>2020-06-22T20:55:53Z</time>
      </trkpt>
      <trkpt lat="50.89362" lon="1.78837">
        <ele>58.1</ele>
        <time>2020-06-22T20:55:54Z</time>
      </trkpt>
      <trkpt lat="50.89369" lon="1.78843">
        <ele>57.9</ele>
        <time>2020-06-22T20:55:55Z</time>
      </trkpt>
      <trkpt lat="50.89376" lon="1.78848">
        <ele>57.6</ele>
        <time>2020-06-22T20:55:56Z</time>
      </trkpt>
      <trkpt lat="50.89382" lon="1.78854">
        <ele>57.3</ele>
        <time>2020-06-22T20:55:57Z</time>
      </trkpt>
      <trkpt lat="50.89389" lon="1.7886">
        <ele>57.1</ele>
        <time>2020-06-22T20:55:58Z</time>
      </trkpt>
      <trkpt lat="50.89395" lon="1.78867">
        <ele>56.8</ele>
        <time>2020-06-22T20:55:59Z</time>
      </trkpt>
      <trkpt lat="50.89402" lon="1.78873">
        <ele>56.7</ele>
        <time>2020-06-22T20:56:00Z</time>
      </trkpt>
      <trkpt lat="50.89408" lon="1.7888">
        <ele>56.5</ele>
        <time>2020-06-22T20:56:01Z</time>
      </trkpt>
      <trkpt lat="50.89414" lon="1.78886">
        <ele>56.3</ele>
        <time>2020-06-22T20:56:02Z</time>
      </trkpt>
      <trkpt lat="50.8942" lon="1.78893">
        <ele>56.2</ele>
        <time>2020-06-22T20:56:03Z</time>
      </trkpt>
      <trkpt lat="50.89426" lon="1.78901">
        <ele>56</ele>
        <time>2020-06-22T20:56:04Z</time>
      </trkpt>
      <trkpt lat="50.89432" lon="1.78908">
        <ele>55.9</ele>
        <time>2020-06-22T20:56:05Z</time>
      </trkpt>
      <trkpt lat="50.89438" lon="1.78916">
        <ele>55.7</ele>
        <time>2020-06-22T20:56:06Z</time>
      </trkpt>
      <trkpt lat="50.89444" lon="1.78923">
        <ele>55.6</ele>
        <time>2020-06-22T20:56:07Z</time>
      </trkpt>
      <trkpt lat="50.89449" lon="1.7893">
        <ele>55.4</ele>
        <time>2020-06-22T20:56:08Z</time>
      </trkpt>
      <trkpt lat="50.89454" lon="1.78938">
        <ele>55.2</ele>
        <time>2020-06-22T20:56:09Z</time>
      </trkpt>
      <trkpt lat="50.8946" lon="1.78945">
        <ele>55.1</ele>
        <time>2020-06-22T20:56:10Z</time>
      </trkpt>
      <trkpt lat="50.89466" lon="1.78953">
        <ele>54.9</ele>
        <time>2020-06-22T20:56:11Z</time>
      </trkpt>
      <trkpt lat="50.89472" lon="1.7896">
        <ele>54.7</ele>
        <time>2020-06-22T20:56:12Z</time>
      </trkpt>
      <trkpt lat="50.89477" lon="1.78968">
        <ele>54.5</ele>
        <time>2020-06-22T20:56:13Z</time>
      </trkpt>
      <trkpt lat="50.89482" lon="1.78976">
        <ele>54.4</ele>
        <time>2020-06-22T20:56:14Z</time>
      </trkpt>
      <trkpt lat="50.89487" lon="1.78984">
        <ele>54.2</ele>
        <time>2020-06-22T20:56:15Z</time>
      </trkpt>
      <trkpt lat="50.89492" lon="1.78992">
        <ele>54</ele>
        <time>2020-06-22T20:56:16Z</time>
      </trkpt>
      <trkpt lat="50.89498" lon="1.79">
        <ele>53.8</ele>
        <time>2020-06-22T20:56:17Z</time>
      </trkpt>
      <trkpt lat="50.89503" lon="1.79008">
        <ele>53.6</ele>
        <time>2020-06-22T20:56:18Z</time>
      </trkpt>
      <trkpt lat="50.89508" lon="1.79016">
        <ele>53.5</ele>
        <time>2020-06-22T20:56:19Z</time>
      </trkpt>
      <trkpt lat="50.89514" lon="1.79024">
        <ele>53.3</ele>
        <time>2020-06-22T20:56:20Z</time>
      </trkpt>
      <trkpt lat="50.89519" lon="1.79031">
        <ele>53.1</ele>
        <time>2020-06-22T20:56:21Z</time>
      </trkpt>
      <trkpt lat="50.89525" lon="1.79039">
        <ele>52.9</ele>
        <time>2020-06-22T20:56:22Z</time>
      </trkpt>
      <trkpt lat="50.8953" lon="1.79046">
        <ele>52.8</ele>
        <time>2020-06-22T20:56:23Z</time>
      </trkpt>
      <trkpt lat="50.89536" lon="1.79052">
        <ele>52.7</ele>
        <time>2020-06-22T20:56:24Z</time>
      </trkpt>
      <trkpt lat="50.89542" lon="1.79058">
        <ele>52.5</ele>
        <time>2020-06-22T20:56:25Z</time>
      </trkpt>
      <trkpt lat="50.89548" lon="1.79064">
        <ele>52.3</ele>
        <time>2020-06-22T20:56:26Z</time>
      </trkpt>
      <trkpt lat="50.89554" lon="1.79069">
        <ele>52.1</ele>
        <time>2020-06-22T20:56:27Z</time>
      </trkpt>
      <trkpt lat="50.8956" lon="1.79075">
        <ele>51.9</ele>
        <time>2020-06-22T20:56:28Z</time>
      </trkpt>
      <trkpt lat="50.89566" lon="1.7908">
        <ele>51.7</ele>
        <time>2020-06-22T20:56:29Z</time>
      </trkpt>
      <trkpt lat="50.89573" lon="1.79086">
        <ele>51.5</ele>
        <time>2020-06-22T20:56:30Z</time>
      </trkpt>
      <trkpt lat="50.89579" lon="1.79091">
        <ele>51.2</ele>
        <time>2020-06-22T20:56:31Z</time>
      </trkpt>
      <trkpt lat="50.89585" lon="1.79096">
        <ele>51</ele>
        <time>2020-06-22T20:56:32Z</time>
      </trkpt>
      <trkpt lat="50.89591" lon="1.79102">
        <ele>50.7</ele>
        <time>2020-06-22T20:56:33Z</time>
      </trkpt>
      <trkpt lat="50.89598" lon="1.79108">
        <ele>50.4</ele>
        <time>2020-06-22T20:56:34Z</time>
      </trkpt>
      <trkpt lat="50.89604" lon="1.79114">
        <ele>50.1</ele>
        <time>2020-06-22T20:56:35Z</time>
      </trkpt>
      <trkpt lat="50.8961" lon="1.7912">
        <ele>49.8</ele>
        <time>2020-06-22T20:56:36Z</time>
      </trkpt>
      <trkpt lat="50.89617" lon="1.79127">
        <ele>49.5</ele>
        <time>2020-06-22T20:56:37Z</time>
      </trkpt>
      <trkpt lat="50.89623" lon="1.79133">
        <ele>49.2</ele>
        <time>2020-06-22T20:56:38Z</time>
      </trkpt>
      <trkpt lat="50.89629" lon="1.7914">
        <ele>48.9</ele>
        <time>2020-06-22T20:56:39Z</time>
      </trkpt>
      <trkpt lat="50.89636" lon="1.79146">
        <ele>48.6</ele>
        <time>2020-06-22T20:56:40Z</time>
      </trkpt>
      <trkpt lat="50.89643" lon="1.79152">
        <ele>48.3</ele>
        <time>2020-06-22T20:56:41Z</time>
      </trkpt>
      <trkpt lat="50.89649" lon="1.79158">
        <ele>48</ele>
        <time>2020-06-22T20:56:42Z</time>
      </trkpt>
      <trkpt lat="50.89656" lon="1.79164">
        <ele>47.6</ele>
        <time>2020-06-22T20:56:43Z</time>
      </trkpt>
      <trkpt lat="50.89662" lon="1.7917">
        <ele>47.3</ele>
        <time>2020-06-22T20:56:44Z</time>
      </trkpt>
      <trkpt lat="50.89669" lon="1.79176">
        <ele>47</ele>
        <time>2020-06-22T20:56:45Z</time>
      </trkpt>
      <trkpt lat="50.89675" lon="1.79182">
        <ele>46.7</ele>
        <time>2020-06-22T20:56:46Z</time>
      </trkpt>
      <trkpt lat="50.89681" lon="1.79187">
        <ele>46.4</ele>
        <time>2020-06-22T20:56:47Z</time>
      </trkpt>
      <trkpt lat="50.89687" lon="1.79192">
        <ele>46</ele>
        <time>2020-06-22T20:56:48Z</time>
      </trkpt>
      <trkpt lat="50.89694" lon="1.79197">
        <ele>45.7</ele>
        <time>2020-06-22T20:56:49Z</time>
      </trkpt>
      <trkpt lat="50.89701" lon="1.79199">
        <ele>45.4</ele>
        <time>2020-06-22T20:56:50Z</time>
      </trkpt>
      <trkpt lat="50.89708" lon="1.79202">
        <ele>45.1</ele>
        <time>2020-06-22T20:56:51Z</time>
      </trkpt>
      <trkpt lat="50.89715" lon="1.79205">
        <ele>44.7</ele>
        <time>2020-06-22T20:56:52Z</time>
      </trkpt>
      <trkpt lat="50.89722" lon="1.79207">
        <ele>44.4</ele>
        <time>2020-06-22T20:56:53Z</time>
      </trkpt>
      <trkpt lat="50.8973" lon="1.79209">
        <ele>44</ele>
        <time>2020-06-22T20:56:54Z</time>
      </trkpt>
      <trkpt lat="50.89737" lon="1.79211">
        <ele>43.6</ele>
        <time>2020-06-22T20:56:55Z</time>
      </trkpt>
      <trkpt lat="50.89745" lon="1.79214">
        <ele>43.1</ele>
        <time>2020-06-22T20:56:56Z</time>
      </trkpt>
      <trkpt lat="50.89753" lon="1.79218">
        <ele>42.7</ele>
        <time>2020-06-22T20:56:57Z</time>
      </trkpt>
      <trkpt lat="50.8976" lon="1.7922">
        <ele>42.3</ele>
        <time>2020-06-22T20:56:58Z</time>
      </trkpt>
      <trkpt lat="50.89768" lon="1.79223">
        <ele>41.9</ele>
        <time>2020-06-22T20:56:59Z</time>
      </trkpt>
      <trkpt lat="50.89775" lon="1.79226">
        <ele>41.6</ele>
        <time>2020-06-22T20:57:00Z</time>
      </trkpt>
      <trkpt lat="50.89783" lon="1.79229">
        <ele>41.4</ele>
        <time>2020-06-22T20:57:01Z</time>
      </trkpt>
      <trkpt lat="50.8979" lon="1.79233">
        <ele>41.2</ele>
        <time>2020-06-22T20:57:02Z</time>
      </trkpt>
      <trkpt lat="50.89797" lon="1.79236">
        <ele>41</ele>
        <time>2020-06-22T20:57:03Z</time>
      </trkpt>
      <trkpt lat="50.89804" lon="1.79241">
        <ele>40.8</ele>
        <time>2020-06-22T20:57:04Z</time>
      </trkpt>
      <trkpt lat="50.89811" lon="1.79247">
        <ele>40.6</ele>
        <time>2020-06-22T20:57:05Z</time>
      </trkpt>
      <trkpt lat="50.89817" lon="1.79254">
        <ele>40.5</ele>
        <time>2020-06-22T20:57:06Z</time>
      </trkpt>
      <trkpt lat="50.89822" lon="1.79261">
        <ele>40.4</ele>
        <time>2020-06-22T20:57:07Z</time>
      </trkpt>
      <trkpt lat="50.89827" lon="1.7927">
        <ele>40.4</ele>
        <time>2020-06-22T20:57:08Z</time>
      </trkpt>
      <trkpt lat="50.89832" lon="1.79277">
        <ele>40.4</ele>
        <time>2020-06-22T20:57:09Z</time>
      </trkpt>
      <trkpt lat="50.89838" lon="1.79284">
        <ele>40.4</ele>
        <time>2020-06-22T20:57:10Z</time>
      </trkpt>
      <trkpt lat="50.89843" lon="1.79291">
        <ele>40.4</ele>
        <time>2020-06-22T20:57:11Z</time>
      </trkpt>
      <trkpt lat="50.89847" lon="1.793">
        <ele>40.4</ele>
        <time>2020-06-22T20:57:12Z</time>
      </trkpt>
      <trkpt lat="50.89852" lon="1.79307">
        <ele>40.5</ele>
        <time>2020-06-22T20:57:13Z</time>
      </trkpt>
      <trkpt lat="50.89857" lon="1.79314">
        <ele>40.5</ele>
        <time>2020-06-22T20:57:14Z</time>
      </trkpt>
      <trkpt lat="50.89861" lon="1.79321">
        <ele>40.5</ele>
        <time>2020-06-22T20:57:15Z</time>
      </trkpt>
      <trkpt lat="50.89865" lon="1.79329">
        <ele>40.5</ele>
        <time>2020-06-22T20:57:16Z</time>
      </trkpt>
      <trkpt lat="50.8987" lon="1.79337">
        <ele>40.5</ele>
        <time>2020-06-22T20:57:17Z</time>
      </trkpt>
      <trkpt lat="50.89874" lon="1.79344">
        <ele>40.6</ele>
        <time>2020-06-22T20:57:18Z</time>
      </trkpt>
      <trkpt lat="50.89879" lon="1.79351">
        <ele>40.6</ele>
        <time>2020-06-22T20:57:19Z</time>
      </trkpt>
      <trkpt lat="50.89883" lon="1.79358">
        <ele>40.6</ele>
        <time>2020-06-22T20:57:20Z</time>
      </trkpt>
      <trkpt lat="50.89887" lon="1.79365">
        <ele>40.7</ele>
        <time>2020-06-22T20:57:21Z</time>
      </trkpt>
      <trkpt lat="50.89891" lon="1.79371">
        <ele>40.7</ele>
        <time>2020-06-22T20:57:22Z</time>
      </trkpt>
      <trkpt lat="50.89895" lon="1.79378">
        <ele>40.7</ele>
        <time>2020-06-22T20:57:23Z</time>
      </trkpt>
      <trkpt lat="50.899" lon="1.79384">
        <ele>40.7</ele>
        <time>2020-06-22T20:57:24Z</time>
      </trkpt>
      <trkpt lat="50.89903" lon="1.7939">
        <ele>40.7</ele>
        <time>2020-06-22T20:57:25Z</time>
      </trkpt>
      <trkpt lat="50.89907" lon="1.79396">
        <ele>40.6</ele>
        <time>2020-06-22T20:57:26Z</time>
      </trkpt>
      <trkpt lat="50.89911" lon="1.79403">
        <ele>40.6</ele>
        <time>2020-06-22T20:57:27Z</time>
      </trkpt>
      <trkpt lat="50.89915" lon="1.79409">
        <ele>40.6</ele>
        <time>2020-06-22T20:57:28Z</time>
      </trkpt>
      <trkpt lat="50.89918" lon="1.79416">
        <ele>40.5</ele>
        <time>2020-06-22T20:57:29Z</time>
      </trkpt>
      <trkpt lat="50.89922" lon="1.79423">
        <ele>40.4</ele>
        <time>2020-06-22T20:57:30Z</time>
      </trkpt>
      <trkpt lat="50.89925" lon="1.79429">
        <ele>40.3</ele>
        <time>2020-06-22T20:57:31Z</time>
      </trkpt>
      <trkpt lat="50.89929" lon="1.79434">
        <ele>40.3</ele>
        <time>2020-06-22T20:57:32Z</time>
      </trkpt>
      <trkpt lat="50.89933" lon="1.79439">
        <ele>40.2</ele>
        <time>2020-06-22T20:57:33Z</time>
      </trkpt>
      <trkpt lat="50.89937" lon="1.79443">
        <ele>40.2</ele>
        <time>2020-06-22T20:57:34Z</time>
      </trkpt>
      <trkpt lat="50.89941" lon="1.79448">
        <ele>40.1</ele>
        <time>2020-06-22T20:57:35Z</time>
      </trkpt>
      <trkpt lat="50.89944" lon="1.79454">
        <ele>40</ele>
        <time>2020-06-22T20:57:36Z</time>
      </trkpt>
      <trkpt lat="50.89947" lon="1.79459">
        <ele>40</ele>
        <time>2020-06-22T20:57:37Z</time>
      </trkpt>
      <trkpt lat="50.89951" lon="1.79465">
        <ele>39.9</ele>
        <time>2020-06-22T20:57:38Z</time>
      </trkpt>
      <trkpt lat="50.89954" lon="1.7947">
        <ele>39.8</ele>
        <time>2020-06-22T20:57:39Z</time>
      </trkpt>
      <trkpt lat="50.89957" lon="1.79475">
        <ele>39.7</ele>
        <time>2020-06-22T20:57:40Z</time>
      </trkpt>
      <trkpt lat="50.89961" lon="1.7948">
        <ele>39.6</ele>
        <time>2020-06-22T20:57:41Z</time>
      </trkpt>
      <trkpt lat="50.89965" lon="1.79486">
        <ele>39.5</ele>
        <time>2020-06-22T20:57:42Z</time>
      </trkpt>
      <trkpt lat="50.89969" lon="1.79491">
        <ele>39.4</ele>
        <time>2020-06-22T20:57:43Z</time>
      </trkpt>
      <trkpt lat="50.89974" lon="1.79496">
        <ele>39.3</ele>
        <time>2020-06-22T20:57:44Z</time>
      </trkpt>
      <trkpt lat="50.89978" lon="1.79501">
        <ele>39.2</ele>
        <time>2020-06-22T20:57:45Z</time>
      </trkpt>
      <trkpt lat="50.89981" lon="1.79507">
        <ele>39.1</ele>
        <time>2020-06-22T20:57:46Z</time>
      </trkpt>
      <trkpt lat="50.89986" lon="1.79511">
        <ele>39</ele>
        <time>2020-06-22T20:57:47Z</time>
      </trkpt>
      <trkpt lat="50.89991" lon="1.79515">
        <ele>38.9</ele>
        <time>2020-06-22T20:57:48Z</time>
      </trkpt>
      <trkpt lat="50.89995" lon="1.7952">
        <ele>38.8</ele>
        <time>2020-06-22T20:57:49Z</time>
      </trkpt>
      <trkpt lat="50.89998" lon="1.79527">
        <ele>38.7</ele>
        <time>2020-06-22T20:57:50Z</time>
      </trkpt>
      <trkpt lat="50.90002" lon="1.79533">
        <ele>38.6</ele>
        <time>2020-06-22T20:57:51Z</time>
      </trkpt>
      <trkpt lat="50.90005" lon="1.7954">
        <ele>38.5</ele>
        <time>2020-06-22T20:57:52Z</time>
      </trkpt>
      <trkpt lat="50.90009" lon="1.79546">
        <ele>38.3</ele>
        <time>2020-06-22T20:57:53Z</time>
      </trkpt>
      <trkpt lat="50.90014" lon="1.79551">
        <ele>38.2</ele>
        <time>2020-06-22T20:57:54Z</time>
      </trkpt>
      <trkpt lat="50.90018" lon="1.79556">
        <ele>38.1</ele>
        <time>2020-06-22T20:57:55Z</time>
      </trkpt>
      <trkpt lat="50.90022" lon="1.79562">
        <ele>37.9</ele>
        <time>2020-06-22T20:57:56Z</time>
      </trkpt>
      <trkpt lat="50.90025" lon="1.79569">
        <ele>37.7</ele>
        <time>2020-06-22T20:57:57Z</time>
      </trkpt>
      <trkpt lat="50.90029" lon="1.79575">
        <ele>37.5</ele>
        <time>2020-06-22T20:57:58Z</time>
      </trkpt>
      <trkpt lat="50.90033" lon="1.79582">
        <ele>37.2</ele>
        <time>2020-06-22T20:57:59Z</time>
      </trkpt>
      <trkpt lat="50.90036" lon="1.79589">
        <ele>37</ele>
        <time>2020-06-22T20:58:00Z</time>
      </trkpt>
      <trkpt lat="50.9004" lon="1.79596">
        <ele>36.7</ele>
        <time>2020-06-22T20:58:01Z</time>
      </trkpt>
      <trkpt lat="50.90043" lon="1.79603">
        <ele>36.5</ele>
        <time>2020-06-22T20:58:02Z</time>
      </trkpt>
      <trkpt lat="50.90047" lon="1.79609">
        <ele>36.2</ele>
        <time>2020-06-22T20:58:03Z</time>
      </trkpt>
      <trkpt lat="50.9005" lon="1.79616">
        <ele>36</ele>
        <time>2020-06-22T20:58:04Z</time>
      </trkpt>
      <trkpt lat="50.90053" lon="1.79624">
        <ele>35.8</ele>
        <time>2020-06-22T20:58:05Z</time>
      </trkpt>
      <trkpt lat="50.90057" lon="1.7963">
        <ele>35.6</ele>
        <time>2020-06-22T20:58:06Z</time>
      </trkpt>
      <trkpt lat="50.90061" lon="1.79636">
        <ele>35.3</ele>
        <time>2020-06-22T20:58:07Z</time>
      </trkpt>
      <trkpt lat="50.90065" lon="1.79643">
        <ele>35.1</ele>
        <time>2020-06-22T20:58:08Z</time>
      </trkpt>
      <trkpt lat="50.9007" lon="1.79649">
        <ele>34.9</ele>
        <time>2020-06-22T20:58:09Z</time>
      </trkpt>
      <trkpt lat="50.90075" lon="1.79656">
        <ele>34.6</ele>
        <time>2020-06-22T20:58:10Z</time>
      </trkpt>
      <trkpt lat="50.9008" lon="1.79663">
        <ele>34.3</ele>
        <time>2020-06-22T20:58:11Z</time>
      </trkpt>
      <trkpt lat="50.90086" lon="1.7967">
        <ele>34</ele>
        <time>2020-06-22T20:58:12Z</time>
      </trkpt>
      <trkpt lat="50.90092" lon="1.79677">
        <ele>33.6</ele>
        <time>2020-06-22T20:58:13Z</time>
      </trkpt>
      <trkpt lat="50.90097" lon="1.79686">
        <ele>33.3</ele>
        <time>2020-06-22T20:58:14Z</time>
      </trkpt>
      <trkpt lat="50.90102" lon="1.79695">
        <ele>33</ele>
        <time>2020-06-22T20:58:15Z</time>
      </trkpt>
      <trkpt lat="50.90108" lon="1.79704">
        <ele>32.6</ele>
        <time>2020-06-22T20:58:16Z</time>
      </trkpt>
      <trkpt lat="50.90114" lon="1.79712">
        <ele>32.3</ele>
        <time>2020-06-22T20:58:17Z</time>
      </trkpt>
      <trkpt lat="50.90119" lon="1.79722">
        <ele>31.9</ele>
        <time>2020-06-22T20:58:18Z</time>
      </trkpt>
      <trkpt lat="50.90124" lon="1.79731">
        <ele>31.5</ele>
        <time>2020-06-22T20:58:19Z</time>
      </trkpt>
      <trkpt lat="50.9013" lon="1.79741">
        <ele>31.1</ele>
        <time>2020-06-22T20:58:20Z</time>
      </trkpt>
      <trkpt lat="50.90136" lon="1.7975">
        <ele>30.7</ele>
        <time>2020-06-22T20:58:21Z</time>
      </trkpt>
      <trkpt lat="50.90141" lon="1.7976">
        <ele>30.3</ele>
        <time>2020-06-22T20:58:22Z</time>
      </trkpt>
      <trkpt lat="50.90147" lon="1.79769">
        <ele>29.9</ele>
        <time>2020-06-22T20:58:23Z</time>
      </trkpt>
      <trkpt lat="50.90153" lon="1.79779">
        <ele>29.5</ele>
        <time>2020-06-22T20:58:24Z</time>
      </trkpt>
      <trkpt lat="50.90158" lon="1.79789">
        <ele>29.1</ele>
        <time>2020-06-22T20:58:25Z</time>
      </trkpt>
      <trkpt lat="50.90164" lon="1.79797">
        <ele>28.7</ele>
        <time>2020-06-22T20:58:26Z</time>
      </trkpt>
      <trkpt lat="50.9017" lon="1.79805">
        <ele>28.4</ele>
        <time>2020-06-22T20:58:27Z</time>
      </trkpt>
      <trkpt lat="50.90177" lon="1.79813">
        <ele>28</ele>
        <time>2020-06-22T20:58:28Z</time>
      </trkpt>
      <trkpt lat="50.90183" lon="1.7982">
        <ele>27.7</ele>
        <time>2020-06-22T20:58:29Z</time>
      </trkpt>
      <trkpt lat="50.90189" lon="1.79827">
        <ele>27.4</ele>
        <time>2020-06-22T20:58:30Z</time>
      </trkpt>
      <trkpt lat="50.90195" lon="1.79834">
        <ele>27</ele>
        <time>2020-06-22T20:58:31Z</time>
      </trkpt>
      <trkpt lat="50.90201" lon="1.79841">
        <ele>26.7</ele>
        <time>2020-06-22T20:58:32Z</time>
      </trkpt>
      <trkpt lat="50.90207" lon="1.79848">
        <ele>26.4</ele>
        <time>2020-06-22T20:58:33Z</time>
      </trkpt>
      <trkpt lat="50.90213" lon="1.79855">
        <ele>26.1</ele>
        <time>2020-06-22T20:58:34Z</time>
      </trkpt>
      <trkpt lat="50.90219" lon="1.79862">
        <ele>25.8</ele>
        <time>2020-06-22T20:58:35Z</time>
      </trkpt>
      <trkpt lat="50.90224" lon="1.79869">
        <ele>25.6</ele>
        <time>2020-06-22T20:58:36Z</time>
      </trkpt>
      <trkpt lat="50.9023" lon="1.79876">
        <ele>25.3</ele>
        <time>2020-06-22T20:58:37Z</time>
      </trkpt>
      <trkpt lat="50.90236" lon="1.79883">
        <ele>25</ele>
        <time>2020-06-22T20:58:38Z</time>
      </trkpt>
      <trkpt lat="50.90241" lon="1.79891">
        <ele>24.8</ele>
        <time>2020-06-22T20:58:39Z</time>
      </trkpt>
      <trkpt lat="50.90247" lon="1.79899">
        <ele>24.5</ele>
        <time>2020-06-22T20:58:40Z</time>
      </trkpt>
      <trkpt lat="50.90252" lon="1.79906">
        <ele>24.2</ele>
        <time>2020-06-22T20:58:41Z</time>
      </trkpt>
      <trkpt lat="50.90258" lon="1.79914">
        <ele>24</ele>
        <time>2020-06-22T20:58:42Z</time>
      </trkpt>
      <trkpt lat="50.90263" lon="1.79923">
        <ele>23.8</ele>
        <time>2020-06-22T20:58:43Z</time>
      </trkpt>
      <trkpt lat="50.90268" lon="1.79931">
        <ele>23.5</ele>
        <time>2020-06-22T20:58:44Z</time>
      </trkpt>
      <trkpt lat="50.90273" lon="1.79939">
        <ele>23.3</ele>
        <time>2020-06-22T20:58:45Z</time>
      </trkpt>
      <trkpt lat="50.90279" lon="1.79947">
        <ele>23.1</ele>
        <time>2020-06-22T20:58:46Z</time>
      </trkpt>
      <trkpt lat="50.90284" lon="1.79955">
        <ele>22.8</ele>
        <time>2020-06-22T20:58:47Z</time>
      </trkpt>
      <trkpt lat="50.90289" lon="1.79963">
        <ele>22.6</ele>
        <time>2020-06-22T20:58:48Z</time>
      </trkpt>
      <trkpt lat="50.90295" lon="1.79971">
        <ele>22.3</ele>
        <time>2020-06-22T20:58:49Z</time>
      </trkpt>
      <trkpt lat="50.903" lon="1.79979">
        <ele>22.1</ele>
        <time>2020-06-22T20:58:50Z</time>
      </trkpt>
      <trkpt lat="50.90305" lon="1.79988">
        <ele>21.8</ele>
        <time>2020-06-22T20:58:51Z</time>
      </trkpt>
      <trkpt lat="50.9031" lon="1.79997">
        <ele>21.5</ele>
        <time>2020-06-22T20:58:52Z</time>
      </trkpt>
      <trkpt lat="50.90315" lon="1.80005">
        <ele>21.3</ele>
        <time>2020-06-22T20:58:53Z</time>
      </trkpt>
      <trkpt lat="50.9032" lon="1.80014">
        <ele>21.1</ele>
        <time>2020-06-22T20:58:54Z</time>
      </trkpt>
      <trkpt lat="50.90325" lon="1.80022">
        <ele>20.8</ele>
        <time>2020-06-22T20:58:55Z</time>
      </trkpt>
      <trkpt lat="50.9033" lon="1.8003">
        <ele>20.6</ele>
        <time>2020-06-22T20:58:56Z</time>
      </trkpt>
      <trkpt lat="50.90335" lon="1.80038">
        <ele>20.3</ele>
        <time>2020-06-22T20:58:57Z</time>
      </trkpt>
      <trkpt lat="50.90341" lon="1.80045">
        <ele>20.1</ele>
        <time>2020-06-22T20:58:58Z</time>
      </trkpt>
      <trkpt lat="50.90346" lon="1.80053">
        <ele>19.8</ele>
        <time>2020-06-22T20:58:59Z</time>
      </trkpt>
      <trkpt lat="50.90352" lon="1.80061">
        <ele>19.6</ele>
        <time>2020-06-22T20:59:00Z</time>
      </trkpt>
      <trkpt lat="50.90357" lon="1.80069">
        <ele>19.3</ele>
        <time>2020-06-22T20:59:01Z</time>
      </trkpt>
      <trkpt lat="50.90363" lon="1.80076">
        <ele>19.1</ele>
        <time>2020-06-22T20:59:02Z</time>
      </trkpt>
      <trkpt lat="50.90369" lon="1.80082">
        <ele>18.8</ele>
        <time>2020-06-22T20:59:03Z</time>
      </trkpt>
      <trkpt lat="50.90375" lon="1.80089">
        <ele>18.6</ele>
        <time>2020-06-22T20:59:04Z</time>
      </trkpt>
      <trkpt lat="50.90381" lon="1.80094">
        <ele>18.3</ele>
        <time>2020-06-22T20:59:05Z</time>
      </trkpt>
      <trkpt lat="50.90388" lon="1.80099">
        <ele>18.1</ele>
        <time>2020-06-22T20:59:06Z</time>
      </trkpt>
      <trkpt lat="50.90394" lon="1.80104">
        <ele>17.8</ele>
        <time>2020-06-22T20:59:07Z</time>
      </trkpt>
      <trkpt lat="50.90401" lon="1.80109">
        <ele>17.6</ele>
        <time>2020-06-22T20:59:08Z</time>
      </trkpt>
      <trkpt lat="50.90407" lon="1.80114">
        <ele>17.4</ele>
        <time>2020-06-22T20:59:09Z</time>
      </trkpt>
      <trkpt lat="50.90414" lon="1.80119">
        <ele>17.2</ele>
        <time>2020-06-22T20:59:10Z</time>
      </trkpt>
      <trkpt lat="50.9042" lon="1.80124">
        <ele>17</ele>
        <time>2020-06-22T20:59:11Z</time>
      </trkpt>
      <trkpt lat="50.90426" lon="1.80129">
        <ele>16.8</ele>
        <time>2020-06-22T20:59:12Z</time>
      </trkpt>
      <trkpt lat="50.90433" lon="1.80134">
        <ele>16.6</ele>
        <time>2020-06-22T20:59:13Z</time>
      </trkpt>
      <trkpt lat="50.90439" lon="1.80139">
        <ele>16.4</ele>
        <time>2020-06-22T20:59:14Z</time>
      </trkpt>
      <trkpt lat="50.90446" lon="1.80143">
        <ele>16.2</ele>
        <time>2020-06-22T20:59:15Z</time>
      </trkpt>
      <trkpt lat="50.90452" lon="1.80147">
        <ele>16</ele>
        <time>2020-06-22T20:59:16Z</time>
      </trkpt>
      <trkpt lat="50.90459" lon="1.80151">
        <ele>15.7</ele>
        <time>2020-06-22T20:59:17Z</time>
      </trkpt>
      <trkpt lat="50.90465" lon="1.80155">
        <ele>15.5</ele>
        <time>2020-06-22T20:59:18Z</time>
      </trkpt>
      <trkpt lat="50.90471" lon="1.80159">
        <ele>15.3</ele>
        <time>2020-06-22T20:59:19Z</time>
      </trkpt>
      <trkpt lat="50.90477" lon="1.80163">
        <ele>15.1</ele>
        <time>2020-06-22T20:59:20Z</time>
      </trkpt>
      <trkpt lat="50.90484" lon="1.80167">
        <ele>14.9</ele>
        <time>2020-06-22T20:59:21Z</time>
      </trkpt>
      <trkpt lat="50.90489" lon="1.80172">
        <ele>14.6</ele>
        <time>2020-06-22T20:59:22Z</time>
      </trkpt>
      <trkpt lat="50.90496" lon="1.80177">
        <ele>14.4</ele>
        <time>2020-06-22T20:59:23Z</time>
      </trkpt>
      <trkpt lat="50.90502" lon="1.80181">
        <ele>14.2</ele>
        <time>2020-06-22T20:59:24Z</time>
      </trkpt>
      <trkpt lat="50.90508" lon="1.80187">
        <ele>14</ele>
        <time>2020-06-22T20:59:25Z</time>
      </trkpt>
      <trkpt lat="50.90513" lon="1.80193">
        <ele>13.8</ele>
        <time>2020-06-22T20:59:26Z</time>
      </trkpt>
      <trkpt lat="50.90519" lon="1.802">
        <ele>13.7</ele>
        <time>2020-06-22T20:59:27Z</time>
      </trkpt>
      <trkpt lat="50.90524" lon="1.80207">
        <ele>13.5</ele>
        <time>2020-06-22T20:59:28Z</time>
      </trkpt>
      <trkpt lat="50.90529" lon="1.80214">
        <ele>13.4</ele>
        <time>2020-06-22T20:59:29Z</time>
      </trkpt>
      <trkpt lat="50.90535" lon="1.80221">
        <ele>13.3</ele>
        <time>2020-06-22T20:59:30Z</time>
      </trkpt>
      <trkpt lat="50.9054" lon="1.80227">
        <ele>13.2</ele>
        <time>2020-06-22T20:59:31Z</time>
      </trkpt>
      <trkpt lat="50.90546" lon="1.80234">
        <ele>13.1</ele>
        <time>2020-06-22T20:59:32Z</time>
      </trkpt>
      <trkpt lat="50.90551" lon="1.80241">
        <ele>13</ele>
        <time>2020-06-22T20:59:33Z</time>
      </trkpt>
      <trkpt lat="50.90556" lon="1.80248">
        <ele>12.9</ele>
        <time>2020-06-22T20:59:34Z</time>
      </trkpt>
      <trkpt lat="50.90561" lon="1.80255">
        <ele>12.9</ele>
        <time>2020-06-22T20:59:35Z</time>
      </trkpt>
      <trkpt lat="50.90566" lon="1.80262">
        <ele>12.9</ele>
        <time>2020-06-22T20:59:36Z</time>
      </trkpt>
      <trkpt lat="50.90571" lon="1.80269">
        <ele>12.9</ele>
        <time>2020-06-22T20:59:37Z</time>
      </trkpt>
      <trkpt lat="50.90576" lon="1.80276">
        <ele>12.9</ele>
        <time>2020-06-22T20:59:38Z</time>
      </trkpt>
      <trkpt lat="50.9058" lon="1.80283">
        <ele>13</ele>
        <time>2020-06-22T20:59:39Z</time>
      </trkpt>
      <trkpt lat="50.90584" lon="1.80291">
        <ele>13</ele>
        <time>2020-06-22T20:59:40Z</time>
      </trkpt>
      <trkpt lat="50.90589" lon="1.80297">
        <ele>13.1</ele>
        <time>2020-06-22T20:59:41Z</time>
      </trkpt>
      <trkpt lat="50.90594" lon="1.80304">
        <ele>13.3</ele>
        <time>2020-06-22T20:59:42Z</time>
      </trkpt>
      <trkpt lat="50.90598" lon="1.80311">
        <ele>13.4</ele>
        <time>2020-06-22T20:59:43Z</time>
      </trkpt>
      <trkpt lat="50.90601" lon="1.80319">
        <ele>13.4</ele>
        <time>2020-06-22T20:59:44Z</time>
      </trkpt>
      <trkpt lat="50.90605" lon="1.80326">
        <ele>13.5</ele>
        <time>2020-06-22T20:59:45Z</time>
      </trkpt>
      <trkpt lat="50.90608" lon="1.80334">
        <ele>13.6</ele>
        <time>2020-06-22T20:59:46Z</time>
      </trkpt>
      <trkpt lat="50.90611" lon="1.80342">
        <ele>13.6</ele>
        <time>2020-06-22T20:59:47Z</time>
      </trkpt>
      <trkpt lat="50.90614" lon="1.8035">
        <ele>13.7</ele>
        <time>2020-06-22T20:59:48Z</time>
      </trkpt>
      <trkpt lat="50.90617" lon="1.80357">
        <ele>13.8</ele>
        <time>2020-06-22T20:59:49Z</time>
      </trkpt>
      <trkpt lat="50.90621" lon="1.80364">
        <ele>13.9</ele>
        <time>2020-06-22T20:59:50Z</time>
      </trkpt>
      <trkpt lat="50.90623" lon="1.80371">
        <ele>13.9</ele>
        <time>2020-06-22T20:59:51Z</time>
      </trkpt>
      <trkpt lat="50.90624" lon="1.80379">
        <ele>14</ele>
        <time>2020-06-22T20:59:52Z</time>
      </trkpt>
      <trkpt lat="50.90627" lon="1.80386">
        <ele>14.1</ele>
        <time>2020-06-22T20:59:53Z</time>
      </trkpt>
      <trkpt lat="50.90629" lon="1.80394">
        <ele>14.2</ele>
        <time>2020-06-22T20:59:54Z</time>
      </trkpt>
      <trkpt lat="50.90631" lon="1.80401">
        <ele>14.2</ele>
        <time>2020-06-22T20:59:55Z</time>
      </trkpt>
      <trkpt lat="50.90633" lon="1.80409">
        <ele>14.2</ele>
        <time>2020-06-22T20:59:56Z</time>
      </trkpt>
      <trkpt lat="50.90635" lon="1.80416">
        <ele>14.2</ele>
        <time>2020-06-22T20:59:57Z</time>
      </trkpt>
      <trkpt lat="50.90636" lon="1.80424">
        <ele>14.2</ele>
        <time>2020-06-22T20:59:58Z</time>
      </trkpt>
      <trkpt lat="50.90638" lon="1.80432">
        <ele>14.2</ele>
        <time>2020-06-22T20:59:59Z</time>
      </trkpt>
      <trkpt lat="50.9064" lon="1.8044">
        <ele>14.2</ele>
        <time>2020-06-22T21:00:00Z</time>
      </trkpt>
      <trkpt lat="50.90642" lon="1.80447">
        <ele>14.2</ele>
        <time>2020-06-22T21:00:01Z</time>
      </trkpt>
      <trkpt lat="50.90643" lon="1.80453">
        <ele>14.1</ele>
        <time>2020-06-22T21:00:02Z</time>
      </trkpt>
      <trkpt lat="50.90645" lon="1.80459">
        <ele>14.1</ele>
        <time>2020-06-22T21:00:03Z</time>
      </trkpt>
      <trkpt lat="50.90645" lon="1.80466">
        <ele>14</ele>
        <time>2020-06-22T21:00:04Z</time>
      </trkpt>
      <trkpt lat="50.90645" lon="1.80472">
        <ele>13.9</ele>
        <time>2020-06-22T21:00:05Z</time>
      </trkpt>
      <trkpt lat="50.90646" lon="1.80478">
        <ele>13.8</ele>
        <time>2020-06-22T21:00:06Z</time>
      </trkpt>
      <trkpt lat="50.90647" lon="1.80483">
        <ele>13.7</ele>
        <time>2020-06-22T21:00:07Z</time>
      </trkpt>
      <trkpt lat="50.90647" lon="1.80489">
        <ele>13.7</ele>
        <time>2020-06-22T21:00:08Z</time>
      </trkpt>
      <trkpt lat="50.90647" lon="1.80495">
        <ele>13.6</ele>
        <time>2020-06-22T21:00:09Z</time>
      </trkpt>
      <trkpt lat="50.90648" lon="1.80501">
        <ele>13.5</ele>
        <time>2020-06-22T21:00:10Z</time>
      </trkpt>
      <trkpt lat="50.90648" lon="1.80508">
        <ele>13.4</ele>
        <time>2020-06-22T21:00:11Z</time>
      </trkpt>
      <trkpt lat="50.90648" lon="1.80514">
        <ele>13.4</ele>
        <time>2020-06-22T21:00:12Z</time>
      </trkpt>
      <trkpt lat="50.90648" lon="1.8052">
        <ele>13.3</ele>
        <time>2020-06-22T21:00:13Z</time>
      </trkpt>
      <trkpt lat="50.90648" lon="1.80527">
        <ele>13.3</ele>
        <time>2020-06-22T21:00:14Z</time>
      </trkpt>
      <trkpt lat="50.90649" lon="1.80534">
        <ele>13.2</ele>
        <time>2020-06-22T21:00:15Z</time>
      </trkpt>
      <trkpt lat="50.9065" lon="1.80541">
        <ele>13.2</ele>
        <time>2020-06-22T21:00:16Z</time>
      </trkpt>
      <trkpt lat="50.90651" lon="1.80548">
        <ele>13.2</ele>
        <time>2020-06-22T21:00:17Z</time>
      </trkpt>
      <trkpt lat="50.90652" lon="1.80556">
        <ele>13.1</ele>
        <time>2020-06-22T21:00:18Z</time>
      </trkpt>
      <trkpt lat="50.90653" lon="1.80563">
        <ele>13.1</ele>
        <time>2020-06-22T21:00:19Z</time>
      </trkpt>
      <trkpt lat="50.90654" lon="1.8057">
        <ele>13.1</ele>
        <time>2020-06-22T21:00:20Z</time>
      </trkpt>
      <trkpt lat="50.90655" lon="1.80577">
        <ele>13.1</ele>
        <time>2020-06-22T21:00:21Z</time>
      </trkpt>
      <trkpt lat="50.90656" lon="1.80584">
        <ele>13.1</ele>
        <time>2020-06-22T21:00:22Z</time>
      </trkpt>
      <trkpt lat="50.90657" lon="1.80591">
        <ele>13.1</ele>
        <time>2020-06-22T21:00:23Z</time>
      </trkpt>
      <trkpt lat="50.90658" lon="1.80599">
        <ele>13.1</ele>
        <time>2020-06-22T21:00:24Z</time>
      </trkpt>
      <trkpt lat="50.90657" lon="1.80606">
        <ele>13.1</ele>
        <time>2020-06-22T21:00:25Z</time>
      </trkpt>
      <trkpt lat="50.90658" lon="1.80613">
        <ele>13.1</ele>
        <time>2020-06-22T21:00:26Z</time>
      </trkpt>
      <trkpt lat="50.90658" lon="1.80621">
        <ele>13.1</ele>
        <time>2020-06-22T21:00:27Z</time>
      </trkpt>
      <trkpt lat="50.90659" lon="1.80628">
        <ele>13.1</ele>
        <time>2020-06-22T21:00:28Z</time>
      </trkpt>
      <trkpt lat="50.90659" lon="1.80636">
        <ele>13.1</ele>
        <time>2020-06-22T21:00:29Z</time>
      </trkpt>
      <trkpt lat="50.90658" lon="1.80644">
        <ele>13.1</ele>
        <time>2020-06-22T21:00:30Z</time>
      </trkpt>
      <trkpt lat="50.90658" lon="1.80652">
        <ele>13.1</ele>
        <time>2020-06-22T21:00:31Z</time>
      </trkpt>
      <trkpt lat="50.90658" lon="1.80659">
        <ele>13.1</ele>
        <time>2020-06-22T21:00:32Z</time>
      </trkpt>
      <trkpt lat="50.90657" lon="1.80667">
        <ele>13.2</ele>
        <time>2020-06-22T21:00:33Z</time>
      </trkpt>
      <trkpt lat="50.90655" lon="1.80674">
        <ele>13.4</ele>
        <time>2020-06-22T21:00:34Z</time>
      </trkpt>
      <trkpt lat="50.90652" lon="1.8068">
        <ele>13.7</ele>
        <time>2020-06-22T21:00:35Z</time>
      </trkpt>
      <trkpt lat="50.9065" lon="1.80687">
        <ele>13.7</ele>
        <time>2020-06-22T21:00:36Z</time>
      </trkpt>
      <trkpt lat="50.90648" lon="1.80693">
        <ele>13.7</ele>
        <time>2020-06-22T21:00:37Z</time>
      </trkpt>
      <trkpt lat="50.90648" lon="1.807">
        <ele>13.7</ele>
        <time>2020-06-22T21:00:38Z</time>
      </trkpt>
      <trkpt lat="50.90648" lon="1.80707">
        <ele>13.7</ele>
        <time>2020-06-22T21:00:39Z</time>
      </trkpt>
      <trkpt lat="50.90649" lon="1.80713">
        <ele>13.7</ele>
        <time>2020-06-22T21:00:40Z</time>
      </trkpt>
      <trkpt lat="50.90652" lon="1.80718">
        <ele>13.7</ele>
        <time>2020-06-22T21:00:41Z</time>
      </trkpt>
      <trkpt lat="50.90656" lon="1.80722">
        <ele>13.6</ele>
        <time>2020-06-22T21:00:42Z</time>
      </trkpt>
      <trkpt lat="50.9066" lon="1.80725">
        <ele>13.6</ele>
        <time>2020-06-22T21:00:43Z</time>
      </trkpt>
      <trkpt lat="50.90665" lon="1.80728">
        <ele>14.3</ele>
        <time>2020-06-22T21:00:44Z</time>
      </trkpt>
      <trkpt lat="50.90668" lon="1.80733">
        <ele>14.1</ele>
        <time>2020-06-22T21:00:45Z</time>
      </trkpt>
      <trkpt lat="50.90672" lon="1.80738">
        <ele>14</ele>
        <time>2020-06-22T21:00:46Z</time>
      </trkpt>
      <trkpt lat="50.90675" lon="1.80744">
        <ele>13.8</ele>
        <time>2020-06-22T21:00:47Z</time>
      </trkpt>
      <trkpt lat="50.90679" lon="1.80748">
        <ele>13.6</ele>
        <time>2020-06-22T21:00:48Z</time>
      </trkpt>
      <trkpt lat="50.90682" lon="1.80754">
        <ele>13.5</ele>
        <time>2020-06-22T21:00:49Z</time>
      </trkpt>
      <trkpt lat="50.90683" lon="1.80761">
        <ele>13.4</ele>
        <time>2020-06-22T21:00:50Z</time>
      </trkpt>
      <trkpt lat="50.90685" lon="1.80768">
        <ele>13.2</ele>
        <time>2020-06-22T21:00:51Z</time>
      </trkpt>
      <trkpt lat="50.90688" lon="1.80775">
        <ele>13.1</ele>
        <time>2020-06-22T21:00:52Z</time>
      </trkpt>
      <trkpt lat="50.9069" lon="1.80781">
        <ele>12.9</ele>
        <time>2020-06-22T21:00:53Z</time>
      </trkpt>
      <trkpt lat="50.90693" lon="1.80787">
        <ele>12.8</ele>
        <time>2020-06-22T21:00:54Z</time>
      </trkpt>
      <trkpt lat="50.90695" lon="1.80795">
        <ele>12.9</ele>
        <time>2020-06-22T21:00:55Z</time>
      </trkpt>
      <trkpt lat="50.90697" lon="1.80803">
        <ele>12.9</ele>
        <time>2020-06-22T21:00:56Z</time>
      </trkpt>
      <trkpt lat="50.90698" lon="1.8081">
        <ele>13</ele>
        <time>2020-06-22T21:00:57Z</time>
      </trkpt>
      <trkpt lat="50.907" lon="1.80817">
        <ele>13</ele>
        <time>2020-06-22T21:00:58Z</time>
      </trkpt>
      <trkpt lat="50.90702" lon="1.80824">
        <ele>13.1</ele>
        <time>2020-06-22T21:00:59Z</time>
      </trkpt>
      <trkpt lat="50.90705" lon="1.80829">
        <ele>13.2</ele>
        <time>2020-06-22T21:01:00Z</time>
      </trkpt>
      <trkpt lat="50.90706" lon="1.80837">
        <ele>13.3</ele>
        <time>2020-06-22T21:01:01Z</time>
      </trkpt>
      <trkpt lat="50.90707" lon="1.80845">
        <ele>13.3</ele>
        <time>2020-06-22T21:01:02Z</time>
      </trkpt>
      <trkpt lat="50.90709" lon="1.80852">
        <ele>13.4</ele>
        <time>2020-06-22T21:01:03Z</time>
      </trkpt>
      <trkpt lat="50.90711" lon="1.8086">
        <ele>13.5</ele>
        <time>2020-06-22T21:01:04Z</time>
      </trkpt>
      <trkpt lat="50.90713" lon="1.80868">
        <ele>13.6</ele>
        <time>2020-06-22T21:01:05Z</time>
      </trkpt>
      <trkpt lat="50.90716" lon="1.80877">
        <ele>13.7</ele>
        <time>2020-06-22T21:01:06Z</time>
      </trkpt>
      <trkpt lat="50.90718" lon="1.80885">
        <ele>13.8</ele>
        <time>2020-06-22T21:01:07Z</time>
      </trkpt>
      <trkpt lat="50.90721" lon="1.80892">
        <ele>13.9</ele>
        <time>2020-06-22T21:01:08Z</time>
      </trkpt>
      <trkpt lat="50.90724" lon="1.809">
        <ele>13.9</ele>
        <time>2020-06-22T21:01:09Z</time>
      </trkpt>
      <trkpt lat="50.90726" lon="1.80908">
        <ele>14</ele>
        <time>2020-06-22T21:01:10Z</time>
      </trkpt>
      <trkpt lat="50.90728" lon="1.80916">
        <ele>14.1</ele>
        <time>2020-06-22T21:01:11Z</time>
      </trkpt>
      <trkpt lat="50.90731" lon="1.80923">
        <ele>14.1</ele>
        <time>2020-06-22T21:01:12Z</time>
      </trkpt>
      <trkpt lat="50.90732" lon="1.80931">
        <ele>14.2</ele>
        <time>2020-06-22T21:01:13Z</time>
      </trkpt>
      <trkpt lat="50.90734" lon="1.80939">
        <ele>14.3</ele>
        <time>2020-06-22T21:01:14Z</time>
      </trkpt>
      <trkpt lat="50.90737" lon="1.80946">
        <ele>14.4</ele>
        <time>2020-06-22T21:01:15Z</time>
      </trkpt>
      <trkpt lat="50.90739" lon="1.80953">
        <ele>14.5</ele>
        <time>2020-06-22T21:01:16Z</time>
      </trkpt>
      <trkpt lat="50.90741" lon="1.80959">
        <ele>14.6</ele>
        <time>2020-06-22T21:01:17Z</time>
      </trkpt>
      <trkpt lat="50.90741" lon="1.80966">
        <ele>14.7</ele>
        <time>2020-06-22T21:01:18Z</time>
      </trkpt>
      <trkpt lat="50.90743" lon="1.80971">
        <ele>14.8</ele>
        <time>2020-06-22T21:01:19Z</time>
      </trkpt>
      <trkpt lat="50.90745" lon="1.80977">
        <ele>14.8</ele>
        <time>2020-06-22T21:01:20Z</time>
      </trkpt>
      <trkpt lat="50.90746" lon="1.80983">
        <ele>14.9</ele>
        <time>2020-06-22T21:01:21Z</time>
      </trkpt>
      <trkpt lat="50.90748" lon="1.80989">
        <ele>15</ele>
        <time>2020-06-22T21:01:22Z</time>
      </trkpt>
      <trkpt lat="50.90749" lon="1.80995">
        <ele>15.2</ele>
        <time>2020-06-22T21:01:23Z</time>
      </trkpt>
      <trkpt lat="50.9075" lon="1.81002">
        <ele>15.3</ele>
        <time>2020-06-22T21:01:24Z</time>
      </trkpt>
      <trkpt lat="50.90751" lon="1.81007">
        <ele>15.4</ele>
        <time>2020-06-22T21:01:25Z</time>
      </trkpt>
      <trkpt lat="50.90753" lon="1.81012">
        <ele>15.5</ele>
        <time>2020-06-22T21:01:26Z</time>
      </trkpt>
      <trkpt lat="50.90755" lon="1.81017">
        <ele>15.6</ele>
        <time>2020-06-22T21:01:27Z</time>
      </trkpt>
      <trkpt lat="50.90756" lon="1.81022">
        <ele>15.7</ele>
        <time>2020-06-22T21:01:28Z</time>
      </trkpt>
      <trkpt lat="50.90758" lon="1.81027">
        <ele>15.8</ele>
        <time>2020-06-22T21:01:29Z</time>
      </trkpt>
      <trkpt lat="50.90758" lon="1.81032">
        <ele>15.9</ele>
        <time>2020-06-22T21:01:30Z</time>
      </trkpt>
      <trkpt lat="50.9076" lon="1.81037">
        <ele>16</ele>
        <time>2020-06-22T21:01:31Z</time>
      </trkpt>
      <trkpt lat="50.90762" lon="1.81041">
        <ele>16.1</ele>
        <time>2020-06-22T21:01:32Z</time>
      </trkpt>
      <trkpt lat="50.90763" lon="1.81044">
        <ele>16.2</ele>
        <time>2020-06-22T21:01:33Z</time>
      </trkpt>
      <trkpt lat="50.90766" lon="1.81047">
        <ele>16.3</ele>
        <time>2020-06-22T21:01:34Z</time>
      </trkpt>
      <trkpt lat="50.90769" lon="1.81049">
        <ele>15.9</ele>
        <time>2020-06-22T21:01:35Z</time>
      </trkpt>
      <trkpt lat="50.90771" lon="1.81051">
        <ele>15.8</ele>
        <time>2020-06-22T21:01:36Z</time>
      </trkpt>
      <trkpt lat="50.90774" lon="1.81052">
        <ele>15.7</ele>
        <time>2020-06-22T21:01:37Z</time>
      </trkpt>
      <trkpt lat="50.90778" lon="1.81051">
        <ele>15.6</ele>
        <time>2020-06-22T21:01:38Z</time>
      </trkpt>
      <trkpt lat="50.90781" lon="1.81049">
        <ele>15.5</ele>
        <time>2020-06-22T21:01:39Z</time>
      </trkpt>
      <trkpt lat="50.90784" lon="1.81045">
        <ele>15.4</ele>
        <time>2020-06-22T21:01:40Z</time>
      </trkpt>
      <trkpt lat="50.90786" lon="1.81043">
        <ele>15.2</ele>
        <time>2020-06-22T21:01:41Z</time>
      </trkpt>
      <trkpt lat="50.90789" lon="1.81043">
        <ele>15.1</ele>
        <time>2020-06-22T21:01:42Z</time>
      </trkpt>
      <trkpt lat="50.90792" lon="1.81041">
        <ele>15</ele>
        <time>2020-06-22T21:01:43Z</time>
      </trkpt>
      <trkpt lat="50.90796" lon="1.8104">
        <ele>14.8</ele>
        <time>2020-06-22T21:01:44Z</time>
      </trkpt>
      <trkpt lat="50.90799" lon="1.81039">
        <ele>14.7</ele>
        <time>2020-06-22T21:01:45Z</time>
      </trkpt>
      <trkpt lat="50.90803" lon="1.81038">
        <ele>14.5</ele>
        <time>2020-06-22T21:01:46Z</time>
      </trkpt>
      <trkpt lat="50.90806" lon="1.81036">
        <ele>14.4</ele>
        <time>2020-06-22T21:01:47Z</time>
      </trkpt>
      <trkpt lat="50.9081" lon="1.81034">
        <ele>14.4</ele>
        <time>2020-06-22T21:01:48Z</time>
      </trkpt>
      <trkpt lat="50.90814" lon="1.81032">
        <ele>14.3</ele>
        <time>2020-06-22T21:01:49Z</time>
      </trkpt>
      <trkpt lat="50.90818" lon="1.81031">
        <ele>14.2</ele>
        <time>2020-06-22T21:01:50Z</time>
      </trkpt>
      <trkpt lat="50.90822" lon="1.81031">
        <ele>14.1</ele>
        <time>2020-06-22T21:01:51Z</time>
      </trkpt>
      <trkpt lat="50.90827" lon="1.81032">
        <ele>14</ele>
        <time>2020-06-22T21:01:52Z</time>
      </trkpt>
      <trkpt lat="50.90832" lon="1.81033">
        <ele>13.9</ele>
        <time>2020-06-22T21:01:53Z</time>
      </trkpt>
      <trkpt lat="50.90837" lon="1.81034">
        <ele>13.7</ele>
        <time>2020-06-22T21:01:54Z</time>
      </trkpt>
      <trkpt lat="50.90842" lon="1.81035">
        <ele>13.5</ele>
        <time>2020-06-22T21:01:55Z</time>
      </trkpt>
      <trkpt lat="50.90847" lon="1.81037">
        <ele>13.4</ele>
        <time>2020-06-22T21:01:56Z</time>
      </trkpt>
      <trkpt lat="50.90852" lon="1.81037">
        <ele>13.2</ele>
        <time>2020-06-22T21:01:57Z</time>
      </trkpt>
      <trkpt lat="50.90857" lon="1.81037">
        <ele>13</ele>
        <time>2020-06-22T21:01:58Z</time>
      </trkpt>
      <trkpt lat="50.90863" lon="1.81038">
        <ele>12.9</ele>
        <time>2020-06-22T21:01:59Z</time>
      </trkpt>
      <trkpt lat="50.9087" lon="1.81039">
        <ele>12.7</ele>
        <time>2020-06-22T21:02:00Z</time>
      </trkpt>
      <trkpt lat="50.90877" lon="1.8104">
        <ele>12.5</ele>
        <time>2020-06-22T21:02:01Z</time>
      </trkpt>
      <trkpt lat="50.90883" lon="1.81041">
        <ele>12.4</ele>
        <time>2020-06-22T21:02:02Z</time>
      </trkpt>
      <trkpt lat="50.90891" lon="1.81043">
        <ele>12.3</ele>
        <time>2020-06-22T21:02:03Z</time>
      </trkpt>
      <trkpt lat="50.90897" lon="1.81044">
        <ele>12.3</ele>
        <time>2020-06-22T21:02:04Z</time>
      </trkpt>
      <trkpt lat="50.90904" lon="1.81047">
        <ele>12.2</ele>
        <time>2020-06-22T21:02:05Z</time>
      </trkpt>
      <trkpt lat="50.9091" lon="1.81048">
        <ele>12.1</ele>
        <time>2020-06-22T21:02:06Z</time>
      </trkpt>
      <trkpt lat="50.90916" lon="1.81049">
        <ele>12.1</ele>
        <time>2020-06-22T21:02:07Z</time>
      </trkpt>
      <trkpt lat="50.90922" lon="1.8105">
        <ele>12</ele>
        <time>2020-06-22T21:02:08Z</time>
      </trkpt>
      <trkpt lat="50.90928" lon="1.8105">
        <ele>12</ele>
        <time>2020-06-22T21:02:09Z</time>
      </trkpt>
      <trkpt lat="50.90933" lon="1.8105">
        <ele>12</ele>
        <time>2020-06-22T21:02:10Z</time>
      </trkpt>
      <trkpt lat="50.90939" lon="1.8105">
        <ele>12</ele>
        <time>2020-06-22T21:02:11Z</time>
      </trkpt>
      <trkpt lat="50.90944" lon="1.81052">
        <ele>12</ele>
        <time>2020-06-22T21:02:12Z</time>
      </trkpt>
      <trkpt lat="50.9095" lon="1.81054">
        <ele>12</ele>
        <time>2020-06-22T21:02:13Z</time>
      </trkpt>
      <trkpt lat="50.90956" lon="1.81056">
        <ele>12</ele>
        <time>2020-06-22T21:02:14Z</time>
      </trkpt>
      <trkpt lat="50.90962" lon="1.81056">
        <ele>11.9</ele>
        <time>2020-06-22T21:02:15Z</time>
      </trkpt>
      <trkpt lat="50.90968" lon="1.81056">
        <ele>11.9</ele>
        <time>2020-06-22T21:02:16Z</time>
      </trkpt>
      <trkpt lat="50.90973" lon="1.81056">
        <ele>12</ele>
        <time>2020-06-22T21:02:17Z</time>
      </trkpt>
      <trkpt lat="50.90979" lon="1.81058">
        <ele>12</ele>
        <time>2020-06-22T21:02:18Z</time>
      </trkpt>
      <trkpt lat="50.90985" lon="1.8106">
        <ele>12.1</ele>
        <time>2020-06-22T21:02:19Z</time>
      </trkpt>
      <trkpt lat="50.9099" lon="1.81061">
        <ele>12.1</ele>
        <time>2020-06-22T21:02:20Z</time>
      </trkpt>
      <trkpt lat="50.90996" lon="1.81063">
        <ele>12.2</ele>
        <time>2020-06-22T21:02:21Z</time>
      </trkpt>
      <trkpt lat="50.91002" lon="1.81064">
        <ele>12.3</ele>
        <time>2020-06-22T21:02:22Z</time>
      </trkpt>
      <trkpt lat="50.91008" lon="1.81065">
        <ele>12.4</ele>
        <time>2020-06-22T21:02:23Z</time>
      </trkpt>
      <trkpt lat="50.91014" lon="1.81067">
        <ele>12.4</ele>
        <time>2020-06-22T21:02:24Z</time>
      </trkpt>
      <trkpt lat="50.91019" lon="1.8107">
        <ele>12.5</ele>
        <time>2020-06-22T21:02:25Z</time>
      </trkpt>
      <trkpt lat="50.91025" lon="1.81072">
        <ele>12.6</ele>
        <time>2020-06-22T21:02:26Z</time>
      </trkpt>
      <trkpt lat="50.9103" lon="1.81073">
        <ele>12.7</ele>
        <time>2020-06-22T21:02:27Z</time>
      </trkpt>
      <trkpt lat="50.91035" lon="1.81076">
        <ele>12.8</ele>
        <time>2020-06-22T21:02:28Z</time>
      </trkpt>
      <trkpt lat="50.91039" lon="1.8108">
        <ele>12.8</ele>
        <time>2020-06-22T21:02:29Z</time>
      </trkpt>
      <trkpt lat="50.91044" lon="1.81085">
        <ele>12.9</ele>
        <time>2020-06-22T21:02:30Z</time>
      </trkpt>
      <trkpt lat="50.91049" lon="1.8109">
        <ele>12.9</ele>
        <time>2020-06-22T21:02:31Z</time>
      </trkpt>
      <trkpt lat="50.91054" lon="1.81094">
        <ele>12.9</ele>
        <time>2020-06-22T21:02:32Z</time>
      </trkpt>
      <trkpt lat="50.91059" lon="1.81099">
        <ele>13</ele>
        <time>2020-06-22T21:02:33Z</time>
      </trkpt>
      <trkpt lat="50.91063" lon="1.81103">
        <ele>13</ele>
        <time>2020-06-22T21:02:34Z</time>
      </trkpt>
      <trkpt lat="50.91068" lon="1.81109">
        <ele>13</ele>
        <time>2020-06-22T21:02:35Z</time>
      </trkpt>
      <trkpt lat="50.91073" lon="1.81114">
        <ele>13</ele>
        <time>2020-06-22T21:02:36Z</time>
      </trkpt>
      <trkpt lat="50.91077" lon="1.81119">
        <ele>13</ele>
        <time>2020-06-22T21:02:37Z</time>
      </trkpt>
      <trkpt lat="50.9108" lon="1.81125">
        <ele>13</ele>
        <time>2020-06-22T21:02:38Z</time>
      </trkpt>
      <trkpt lat="50.91083" lon="1.81132">
        <ele>13</ele>
        <time>2020-06-22T21:02:39Z</time>
      </trkpt>
      <trkpt lat="50.91087" lon="1.81138">
        <ele>12.9</ele>
        <time>2020-06-22T21:02:40Z</time>
      </trkpt>
      <trkpt lat="50.91091" lon="1.81144">
        <ele>12.8</ele>
        <time>2020-06-22T21:02:41Z</time>
      </trkpt>
      <trkpt lat="50.91094" lon="1.8115">
        <ele>12.8</ele>
        <time>2020-06-22T21:02:42Z</time>
      </trkpt>
      <trkpt lat="50.91095" lon="1.81158">
        <ele>12.7</ele>
        <time>2020-06-22T21:02:43Z</time>
      </trkpt>
      <trkpt lat="50.91098" lon="1.81165">
        <ele>12.6</ele>
        <time>2020-06-22T21:02:44Z</time>
      </trkpt>
      <trkpt lat="50.911" lon="1.81172">
        <ele>12.6</ele>
        <time>2020-06-22T21:02:45Z</time>
      </trkpt>
      <trkpt lat="50.91104" lon="1.81177">
        <ele>12.5</ele>
        <time>2020-06-22T21:02:46Z</time>
      </trkpt>
      <trkpt lat="50.91107" lon="1.81184">
        <ele>12.4</ele>
        <time>2020-06-22T21:02:47Z</time>
      </trkpt>
      <trkpt lat="50.9111" lon="1.81191">
        <ele>12.3</ele>
        <time>2020-06-22T21:02:48Z</time>
      </trkpt>
      <trkpt lat="50.91112" lon="1.81198">
        <ele>12.2</ele>
        <time>2020-06-22T21:02:49Z</time>
      </trkpt>
      <trkpt lat="50.91115" lon="1.81205">
        <ele>12.2</ele>
        <time>2020-06-22T21:02:50Z</time>
      </trkpt>
      <trkpt lat="50.91118" lon="1.81212">
        <ele>12.1</ele>
        <time>2020-06-22T21:02:51Z</time>
      </trkpt>
      <trkpt lat="50.9112" lon="1.81218">
        <ele>12</ele>
        <time>2020-06-22T21:02:52Z</time>
      </trkpt>
      <trkpt lat="50.91124" lon="1.81224">
        <ele>11.9</ele>
        <time>2020-06-22T21:02:53Z</time>
      </trkpt>
      <trkpt lat="50.91127" lon="1.8123">
        <ele>11.9</ele>
        <time>2020-06-22T21:02:54Z</time>
      </trkpt>
      <trkpt lat="50.9113" lon="1.81235">
        <ele>11.8</ele>
        <time>2020-06-22T21:02:55Z</time>
      </trkpt>
      <trkpt lat="50.91132" lon="1.81241">
        <ele>11.8</ele>
        <time>2020-06-22T21:02:56Z</time>
      </trkpt>
      <trkpt lat="50.91136" lon="1.81247">
        <ele>11.7</ele>
        <time>2020-06-22T21:02:57Z</time>
      </trkpt>
      <trkpt lat="50.91139" lon="1.81252">
        <ele>11.7</ele>
        <time>2020-06-22T21:02:58Z</time>
      </trkpt>
      <trkpt lat="50.91142" lon="1.81258">
        <ele>11.6</ele>
        <time>2020-06-22T21:02:59Z</time>
      </trkpt>
      <trkpt lat="50.91146" lon="1.81265">
        <ele>11.6</ele>
        <time>2020-06-22T21:03:00Z</time>
      </trkpt>
      <trkpt lat="50.91149" lon="1.81272">
        <ele>11.6</ele>
        <time>2020-06-22T21:03:01Z</time>
      </trkpt>
      <trkpt lat="50.91153" lon="1.81279">
        <ele>11.5</ele>
        <time>2020-06-22T21:03:02Z</time>
      </trkpt>
      <trkpt lat="50.91157" lon="1.81284">
        <ele>11.5</ele>
        <time>2020-06-22T21:03:03Z</time>
      </trkpt>
      <trkpt lat="50.91161" lon="1.81291">
        <ele>11.5</ele>
        <time>2020-06-22T21:03:04Z</time>
      </trkpt>
      <trkpt lat="50.91165" lon="1.81298">
        <ele>11.5</ele>
        <time>2020-06-22T21:03:05Z</time>
      </trkpt>
      <trkpt lat="50.91168" lon="1.81304">
        <ele>11.5</ele>
        <time>2020-06-22T21:03:06Z</time>
      </trkpt>
      <trkpt lat="50.91171" lon="1.81311">
        <ele>11.5</ele>
        <time>2020-06-22T21:03:07Z</time>
      </trkpt>
      <trkpt lat="50.91174" lon="1.81318">
        <ele>11.5</ele>
        <time>2020-06-22T21:03:08Z</time>
      </trkpt>
      <trkpt lat="50.91179" lon="1.81324">
        <ele>11.5</ele>
        <time>2020-06-22T21:03:09Z</time>
      </trkpt>
      <trkpt lat="50.91183" lon="1.8133">
        <ele>11.5</ele>
        <time>2020-06-22T21:03:10Z</time>
      </trkpt>
      <trkpt lat="50.91187" lon="1.81335">
        <ele>11.5</ele>
        <time>2020-06-22T21:03:11Z</time>
      </trkpt>
      <trkpt lat="50.9119" lon="1.81342">
        <ele>11.5</ele>
        <time>2020-06-22T21:03:12Z</time>
      </trkpt>
      <trkpt lat="50.91194" lon="1.81347">
        <ele>11.5</ele>
        <time>2020-06-22T21:03:13Z</time>
      </trkpt>
      <trkpt lat="50.91197" lon="1.81352">
        <ele>11.6</ele>
        <time>2020-06-22T21:03:14Z</time>
      </trkpt>
      <trkpt lat="50.91201" lon="1.81356">
        <ele>11.6</ele>
        <time>2020-06-22T21:03:15Z</time>
      </trkpt>
      <trkpt lat="50.91206" lon="1.81361">
        <ele>11.7</ele>
        <time>2020-06-22T21:03:16Z</time>
      </trkpt>
      <trkpt lat="50.91211" lon="1.81364">
        <ele>11.7</ele>
        <time>2020-06-22T21:03:17Z</time>
      </trkpt>
      <trkpt lat="50.91216" lon="1.81368">
        <ele>11.8</ele>
        <time>2020-06-22T21:03:18Z</time>
      </trkpt>
      <trkpt lat="50.9122" lon="1.81372">
        <ele>11.8</ele>
        <time>2020-06-22T21:03:19Z</time>
      </trkpt>
      <trkpt lat="50.91225" lon="1.81375">
        <ele>11.9</ele>
        <time>2020-06-22T21:03:20Z</time>
      </trkpt>
      <trkpt lat="50.9123" lon="1.81378">
        <ele>12</ele>
        <time>2020-06-22T21:03:21Z</time>
      </trkpt>
      <trkpt lat="50.91234" lon="1.8138">
        <ele>12</ele>
        <time>2020-06-22T21:03:22Z</time>
      </trkpt>
      <trkpt lat="50.91239" lon="1.81384">
        <ele>12</ele>
        <time>2020-06-22T21:03:23Z</time>
      </trkpt>
      <trkpt lat="50.91242" lon="1.81389">
        <ele>12</ele>
        <time>2020-06-22T21:03:24Z</time>
      </trkpt>
      <trkpt lat="50.91247" lon="1.81393">
        <ele>12</ele>
        <time>2020-06-22T21:03:25Z</time>
      </trkpt>
      <trkpt lat="50.91251" lon="1.81396">
        <ele>12</ele>
        <time>2020-06-22T21:03:26Z</time>
      </trkpt>
      <trkpt lat="50.91255" lon="1.814">
        <ele>12</ele>
        <time>2020-06-22T21:03:27Z</time>
      </trkpt>
      <trkpt lat="50.9126" lon="1.81403">
        <ele>11.9</ele>
        <time>2020-06-22T21:03:28Z</time>
      </trkpt>
      <trkpt lat="50.91263" lon="1.81406">
        <ele>11.8</ele>
        <time>2020-06-22T21:03:29Z</time>
      </trkpt>
      <trkpt lat="50.91266" lon="1.81411">
        <ele>11.7</ele>
        <time>2020-06-22T21:03:30Z</time>
      </trkpt>
      <trkpt lat="50.91269" lon="1.81416">
        <ele>11.6</ele>
        <time>2020-06-22T21:03:31Z</time>
      </trkpt>
      <trkpt lat="50.91271" lon="1.81421">
        <ele>11.5</ele>
        <time>2020-06-22T21:03:32Z</time>
      </trkpt>
      <trkpt lat="50.91273" lon="1.81426">
        <ele>11.4</ele>
        <time>2020-06-22T21:03:33Z</time>
      </trkpt>
      <trkpt lat="50.91275" lon="1.81431">
        <ele>11.3</ele>
        <time>2020-06-22T21:03:34Z</time>
      </trkpt>
      <trkpt lat="50.91278" lon="1.81437">
        <ele>11.2</ele>
        <time>2020-06-22T21:03:35Z</time>
      </trkpt>
      <trkpt lat="50.91281" lon="1.81442">
        <ele>11</ele>
        <time>2020-06-22T21:03:36Z</time>
      </trkpt>
      <trkpt lat="50.91284" lon="1.81447">
        <ele>10.9</ele>
        <time>2020-06-22T21:03:37Z</time>
      </trkpt>
      <trkpt lat="50.91287" lon="1.81453">
        <ele>10.7</ele>
        <time>2020-06-22T21:03:38Z</time>
      </trkpt>
      <trkpt lat="50.9129" lon="1.81459">
        <ele>10.5</ele>
        <time>2020-06-22T21:03:39Z</time>
      </trkpt>
      <trkpt lat="50.91292" lon="1.81466">
        <ele>10.3</ele>
        <time>2020-06-22T21:03:40Z</time>
      </trkpt>
      <trkpt lat="50.91295" lon="1.81474">
        <ele>10.1</ele>
        <time>2020-06-22T21:03:41Z</time>
      </trkpt>
      <trkpt lat="50.91298" lon="1.8148">
        <ele>9.8</ele>
        <time>2020-06-22T21:03:42Z</time>
      </trkpt>
      <trkpt lat="50.913" lon="1.81488">
        <ele>9.5</ele>
        <time>2020-06-22T21:03:43Z</time>
      </trkpt>
      <trkpt lat="50.91302" lon="1.81498">
        <ele>9.1</ele>
        <time>2020-06-22T21:03:44Z</time>
      </trkpt>
      <trkpt lat="50.91298" lon="1.81508">
        <ele>8.7</ele>
        <time>2020-06-22T21:03:45Z</time>
      </trkpt>
      <trkpt lat="50.91297" lon="1.81518">
        <ele>8.4</ele>
        <time>2020-06-22T21:03:46Z</time>
      </trkpt>
      <trkpt lat="50.91295" lon="1.81528">
        <ele>8</ele>
        <time>2020-06-22T21:03:47Z</time>
      </trkpt>
      <trkpt lat="50.91294" lon="1.81538">
        <ele>7.7</ele>
        <time>2020-06-22T21:03:48Z</time>
      </trkpt>
      <trkpt lat="50.91292" lon="1.81548">
        <ele>7.4</ele>
        <time>2020-06-22T21:03:49Z</time>
      </trkpt>
      <trkpt lat="50.9129" lon="1.81558">
        <ele>7.1</ele>
        <time>2020-06-22T21:03:50Z</time>
      </trkpt>
      <trkpt lat="50.91288" lon="1.81567">
        <ele>6.8</ele>
        <time>2020-06-22T21:03:51Z</time>
      </trkpt>
      <trkpt lat="50.91285" lon="1.81576">
        <ele>6.7</ele>
        <time>2020-06-22T21:03:52Z</time>
      </trkpt>
      <trkpt lat="50.91281" lon="1.81584">
        <ele>6.6</ele>
        <time>2020-06-22T21:03:53Z</time>
      </trkpt>
      <trkpt lat="50.91278" lon="1.81592">
        <ele>6.4</ele>
        <time>2020-06-22T21:03:54Z</time>
      </trkpt>
      <trkpt lat="50.91275" lon="1.81599">
        <ele>6.3</ele>
        <time>2020-06-22T21:03:55Z</time>
      </trkpt>
      <trkpt lat="50.91275" lon="1.81606">
        <ele>6.2</ele>
        <time>2020-06-22T21:03:56Z</time>
      </trkpt>
      <trkpt lat="50.91275" lon="1.81613">
        <ele>6.1</ele>
        <time>2020-06-22T21:03:57Z</time>
      </trkpt>
      <trkpt lat="50.91278" lon="1.81619">
        <ele>6.1</ele>
        <time>2020-06-22T21:03:58Z</time>
      </trkpt>
      <trkpt lat="50.91281" lon="1.81627">
        <ele>6</ele>
        <time>2020-06-22T21:03:59Z</time>
      </trkpt>
      <trkpt lat="50.91285" lon="1.81634">
        <ele>6</ele>
        <time>2020-06-22T21:04:00Z</time>
      </trkpt>
      <trkpt lat="50.91288" lon="1.81641">
        <ele>6</ele>
        <time>2020-06-22T21:04:01Z</time>
      </trkpt>
      <trkpt lat="50.91292" lon="1.81649">
        <ele>5.9</ele>
        <time>2020-06-22T21:04:02Z</time>
      </trkpt>
      <trkpt lat="50.91295" lon="1.81657">
        <ele>5.9</ele>
        <time>2020-06-22T21:04:03Z</time>
      </trkpt>
      <trkpt lat="50.91298" lon="1.81664">
        <ele>5.9</ele>
        <time>2020-06-22T21:04:04Z</time>
      </trkpt>
      <trkpt lat="50.91301" lon="1.81672">
        <ele>5.9</ele>
        <time>2020-06-22T21:04:05Z</time>
      </trkpt>
      <trkpt lat="50.91303" lon="1.81678">
        <ele>5.8</ele>
        <time>2020-06-22T21:04:06Z</time>
      </trkpt>
      <trkpt lat="50.91306" lon="1.81685">
        <ele>5.7</ele>
        <time>2020-06-22T21:04:07Z</time>
      </trkpt>
      <trkpt lat="50.91309" lon="1.81692">
        <ele>5.6</ele>
        <time>2020-06-22T21:04:08Z</time>
      </trkpt>
      <trkpt lat="50.91311" lon="1.817">
        <ele>5.5</ele>
        <time>2020-06-22T21:04:09Z</time>
      </trkpt>
      <trkpt lat="50.91312" lon="1.81709">
        <ele>5.4</ele>
        <time>2020-06-22T21:04:10Z</time>
      </trkpt>
      <trkpt lat="50.91314" lon="1.81718">
        <ele>5.4</ele>
        <time>2020-06-22T21:04:11Z</time>
      </trkpt>
      <trkpt lat="50.91317" lon="1.81725">
        <ele>5.3</ele>
        <time>2020-06-22T21:04:12Z</time>
      </trkpt>
      <trkpt lat="50.9132" lon="1.81733">
        <ele>5.3</ele>
        <time>2020-06-22T21:04:13Z</time>
      </trkpt>
      <trkpt lat="50.91323" lon="1.81739">
        <ele>5.2</ele>
        <time>2020-06-22T21:04:14Z</time>
      </trkpt>
      <trkpt lat="50.91326" lon="1.81746">
        <ele>5.2</ele>
        <time>2020-06-22T21:04:15Z</time>
      </trkpt>
      <trkpt lat="50.91327" lon="1.81753">
        <ele>5.1</ele>
        <time>2020-06-22T21:04:16Z</time>
      </trkpt>
      <trkpt lat="50.91329" lon="1.81759">
        <ele>5.1</ele>
        <time>2020-06-22T21:04:17Z</time>
      </trkpt>
      <trkpt lat="50.91331" lon="1.81766">
        <ele>5.1</ele>
        <time>2020-06-22T21:04:18Z</time>
      </trkpt>
      <trkpt lat="50.91333" lon="1.81773">
        <ele>5</ele>
        <time>2020-06-22T21:04:19Z</time>
      </trkpt>
      <trkpt lat="50.91335" lon="1.81781">
        <ele>5</ele>
        <time>2020-06-22T21:04:20Z</time>
      </trkpt>
      <trkpt lat="50.91337" lon="1.81788">
        <ele>4.9</ele>
        <time>2020-06-22T21:04:21Z</time>
      </trkpt>
      <trkpt lat="50.91339" lon="1.81796">
        <ele>4.9</ele>
        <time>2020-06-22T21:04:22Z</time>
      </trkpt>
      <trkpt lat="50.91342" lon="1.81803">
        <ele>4.9</ele>
        <time>2020-06-22T21:04:23Z</time>
      </trkpt>
      <trkpt lat="50.91344" lon="1.8181">
        <ele>4.9</ele>
        <time>2020-06-22T21:04:24Z</time>
      </trkpt>
      <trkpt lat="50.91346" lon="1.81818">
        <ele>4.8</ele>
        <time>2020-06-22T21:04:25Z</time>
      </trkpt>
      <trkpt lat="50.91348" lon="1.81825">
        <ele>4.8</ele>
        <time>2020-06-22T21:04:26Z</time>
      </trkpt>
      <trkpt lat="50.9135" lon="1.81834">
        <ele>4.8</ele>
        <time>2020-06-22T21:04:27Z</time>
      </trkpt>
      <trkpt lat="50.91352" lon="1.81842">
        <ele>4.8</ele>
        <time>2020-06-22T21:04:28Z</time>
      </trkpt>
      <trkpt lat="50.91355" lon="1.81849">
        <ele>4.8</ele>
        <time>2020-06-22T21:04:29Z</time>
      </trkpt>
      <trkpt lat="50.91358" lon="1.81857">
        <ele>4.8</ele>
        <time>2020-06-22T21:04:30Z</time>
      </trkpt>
      <trkpt lat="50.91359" lon="1.81865">
        <ele>4.8</ele>
        <time>2020-06-22T21:04:31Z</time>
      </trkpt>
      <trkpt lat="50.91362" lon="1.81873">
        <ele>4.8</ele>
        <time>2020-06-22T21:04:32Z</time>
      </trkpt>
      <trkpt lat="50.91364" lon="1.81881">
        <ele>4.7</ele>
        <time>2020-06-22T21:04:33Z</time>
      </trkpt>
      <trkpt lat="50.91366" lon="1.8189">
        <ele>4.7</ele>
        <time>2020-06-22T21:04:34Z</time>
      </trkpt>
      <trkpt lat="50.91368" lon="1.81898">
        <ele>4.7</ele>
        <time>2020-06-22T21:04:35Z</time>
      </trkpt>
      <trkpt lat="50.9137" lon="1.81906">
        <ele>4.6</ele>
        <time>2020-06-22T21:04:36Z</time>
      </trkpt>
      <trkpt lat="50.91373" lon="1.81913">
        <ele>4.6</ele>
        <time>2020-06-22T21:04:37Z</time>
      </trkpt>
      <trkpt lat="50.91375" lon="1.81921">
        <ele>4.5</ele>
        <time>2020-06-22T21:04:38Z</time>
      </trkpt>
      <trkpt lat="50.91378" lon="1.81927">
        <ele>4.5</ele>
        <time>2020-06-22T21:04:39Z</time>
      </trkpt>
      <trkpt lat="50.91381" lon="1.81934">
        <ele>4.5</ele>
        <time>2020-06-22T21:04:40Z</time>
      </trkpt>
      <trkpt lat="50.91384" lon="1.81941">
        <ele>4.5</ele>
        <time>2020-06-22T21:04:41Z</time>
      </trkpt>
      <trkpt lat="50.91388" lon="1.81947">
        <ele>4.4</ele>
        <time>2020-06-22T21:04:42Z</time>
      </trkpt>
      <trkpt lat="50.91393" lon="1.81954">
        <ele>4.4</ele>
        <time>2020-06-22T21:04:43Z</time>
      </trkpt>
      <trkpt lat="50.91397" lon="1.8196">
        <ele>4.4</ele>
        <time>2020-06-22T21:04:44Z</time>
      </trkpt>
      <trkpt lat="50.91401" lon="1.81966">
        <ele>4.3</ele>
        <time>2020-06-22T21:04:45Z</time>
      </trkpt>
      <trkpt lat="50.91406" lon="1.81972">
        <ele>4.3</ele>
        <time>2020-06-22T21:04:46Z</time>
      </trkpt>
      <trkpt lat="50.9141" lon="1.81978">
        <ele>4.3</ele>
        <time>2020-06-22T21:04:47Z</time>
      </trkpt>
      <trkpt lat="50.91414" lon="1.81984">
        <ele>4.3</ele>
        <time>2020-06-22T21:04:48Z</time>
      </trkpt>
      <trkpt lat="50.91417" lon="1.8199">
        <ele>4.3</ele>
        <time>2020-06-22T21:04:49Z</time>
      </trkpt>
      <trkpt lat="50.91421" lon="1.81997">
        <ele>4.3</ele>
        <time>2020-06-22T21:04:50Z</time>
      </trkpt>
      <trkpt lat="50.91425" lon="1.82003">
        <ele>4.3</ele>
        <time>2020-06-22T21:04:51Z</time>
      </trkpt>
      <trkpt lat="50.91428" lon="1.8201">
        <ele>4.3</ele>
        <time>2020-06-22T21:04:52Z</time>
      </trkpt>
      <trkpt lat="50.91432" lon="1.82017">
        <ele>4.3</ele>
        <time>2020-06-22T21:04:53Z</time>
      </trkpt>
      <trkpt lat="50.91435" lon="1.82024">
        <ele>4.3</ele>
        <time>2020-06-22T21:04:54Z</time>
      </trkpt>
      <trkpt lat="50.91439" lon="1.82031">
        <ele>4.3</ele>
        <time>2020-06-22T21:04:55Z</time>
      </trkpt>
      <trkpt lat="50.91443" lon="1.82037">
        <ele>4.3</ele>
        <time>2020-06-22T21:04:56Z</time>
      </trkpt>
      <trkpt lat="50.91447" lon="1.82044">
        <ele>4.3</ele>
        <time>2020-06-22T21:04:57Z</time>
      </trkpt>
      <trkpt lat="50.91451" lon="1.8205">
        <ele>4.3</ele>
        <time>2020-06-22T21:04:58Z</time>
      </trkpt>
      <trkpt lat="50.91455" lon="1.82056">
        <ele>4.2</ele>
        <time>2020-06-22T21:04:59Z</time>
      </trkpt>
      <trkpt lat="50.91459" lon="1.82062">
        <ele>4.2</ele>
        <time>2020-06-22T21:05:00Z</time>
      </trkpt>
      <trkpt lat="50.91462" lon="1.82069">
        <ele>4.1</ele>
        <time>2020-06-22T21:05:01Z</time>
      </trkpt>
      <trkpt lat="50.91466" lon="1.82077">
        <ele>4.1</ele>
        <time>2020-06-22T21:05:02Z</time>
      </trkpt>
      <trkpt lat="50.9147" lon="1.82083">
        <ele>4</ele>
        <time>2020-06-22T21:05:03Z</time>
      </trkpt>
      <trkpt lat="50.91474" lon="1.8209">
        <ele>4</ele>
        <time>2020-06-22T21:05:04Z</time>
      </trkpt>
      <trkpt lat="50.91478" lon="1.82096">
        <ele>3.9</ele>
        <time>2020-06-22T21:05:05Z</time>
      </trkpt>
      <trkpt lat="50.91482" lon="1.82103">
        <ele>3.9</ele>
        <time>2020-06-22T21:05:06Z</time>
      </trkpt>
      <trkpt lat="50.91487" lon="1.82109">
        <ele>3.8</ele>
        <time>2020-06-22T21:05:07Z</time>
      </trkpt>
      <trkpt lat="50.91491" lon="1.82115">
        <ele>3.8</ele>
        <time>2020-06-22T21:05:08Z</time>
      </trkpt>
      <trkpt lat="50.91495" lon="1.82122">
        <ele>3.8</ele>
        <time>2020-06-22T21:05:09Z</time>
      </trkpt>
      <trkpt lat="50.915" lon="1.82128">
        <ele>3.7</ele>
        <time>2020-06-22T21:05:10Z</time>
      </trkpt>
      <trkpt lat="50.91504" lon="1.82134">
        <ele>3.7</ele>
        <time>2020-06-22T21:05:11Z</time>
      </trkpt>
      <trkpt lat="50.91508" lon="1.8214">
        <ele>3.7</ele>
        <time>2020-06-22T21:05:12Z</time>
      </trkpt>
      <trkpt lat="50.91511" lon="1.82147">
        <ele>3.6</ele>
        <time>2020-06-22T21:05:13Z</time>
      </trkpt>
      <trkpt lat="50.91515" lon="1.82154">
        <ele>3.6</ele>
        <time>2020-06-22T21:05:14Z</time>
      </trkpt>
      <trkpt lat="50.9152" lon="1.8216">
        <ele>3.6</ele>
        <time>2020-06-22T21:05:15Z</time>
      </trkpt>
      <trkpt lat="50.91524" lon="1.82166">
        <ele>3.6</ele>
        <time>2020-06-22T21:05:16Z</time>
      </trkpt>
      <trkpt lat="50.91529" lon="1.82172">
        <ele>3.5</ele>
        <time>2020-06-22T21:05:17Z</time>
      </trkpt>
      <trkpt lat="50.91532" lon="1.82178">
        <ele>3.5</ele>
        <time>2020-06-22T21:05:18Z</time>
      </trkpt>
      <trkpt lat="50.91536" lon="1.82184">
        <ele>3.5</ele>
        <time>2020-06-22T21:05:19Z</time>
      </trkpt>
      <trkpt lat="50.91541" lon="1.82189">
        <ele>3.5</ele>
        <time>2020-06-22T21:05:20Z</time>
      </trkpt>
      <trkpt lat="50.91546" lon="1.82195">
        <ele>3.5</ele>
        <time>2020-06-22T21:05:21Z</time>
      </trkpt>
      <trkpt lat="50.91551" lon="1.82201">
        <ele>3.5</ele>
        <time>2020-06-22T21:05:22Z</time>
      </trkpt>
      <trkpt lat="50.91556" lon="1.82205">
        <ele>3.4</ele>
        <time>2020-06-22T21:05:23Z</time>
      </trkpt>
      <trkpt lat="50.91561" lon="1.82211">
        <ele>3.4</ele>
        <time>2020-06-22T21:05:24Z</time>
      </trkpt>
      <trkpt lat="50.91566" lon="1.82217">
        <ele>3.4</ele>
        <time>2020-06-22T21:05:25Z</time>
      </trkpt>
      <trkpt lat="50.91571" lon="1.82222">
        <ele>3.5</ele>
        <time>2020-06-22T21:05:26Z</time>
      </trkpt>
      <trkpt lat="50.91575" lon="1.82228">
        <ele>3.5</ele>
        <time>2020-06-22T21:05:27Z</time>
      </trkpt>
      <trkpt lat="50.9158" lon="1.82234">
        <ele>3.5</ele>
        <time>2020-06-22T21:05:28Z</time>
      </trkpt>
      <trkpt lat="50.91584" lon="1.82241">
        <ele>3.5</ele>
        <time>2020-06-22T21:05:29Z</time>
      </trkpt>
      <trkpt lat="50.91589" lon="1.82246">
        <ele>3.5</ele>
        <time>2020-06-22T21:05:30Z</time>
      </trkpt>
      <trkpt lat="50.91594" lon="1.82251">
        <ele>3.5</ele>
        <time>2020-06-22T21:05:31Z</time>
      </trkpt>
      <trkpt lat="50.91598" lon="1.82258">
        <ele>3.5</ele>
        <time>2020-06-22T21:05:32Z</time>
      </trkpt>
      <trkpt lat="50.91602" lon="1.82263">
        <ele>3.5</ele>
        <time>2020-06-22T21:05:33Z</time>
      </trkpt>
      <trkpt lat="50.91607" lon="1.82267">
        <ele>3.4</ele>
        <time>2020-06-22T21:05:34Z</time>
      </trkpt>
      <trkpt lat="50.91612" lon="1.82272">
        <ele>3.4</ele>
        <time>2020-06-22T21:05:35Z</time>
      </trkpt>
      <trkpt lat="50.91616" lon="1.82277">
        <ele>3.4</ele>
        <time>2020-06-22T21:05:36Z</time>
      </trkpt>
      <trkpt lat="50.9162" lon="1.82282">
        <ele>3.3</ele>
        <time>2020-06-22T21:05:37Z</time>
      </trkpt>
      <trkpt lat="50.91624" lon="1.82288">
        <ele>3.3</ele>
        <time>2020-06-22T21:05:38Z</time>
      </trkpt>
      <trkpt lat="50.91627" lon="1.82294">
        <ele>3.3</ele>
        <time>2020-06-22T21:05:39Z</time>
      </trkpt>
      <trkpt lat="50.91631" lon="1.82301">
        <ele>3.3</ele>
        <time>2020-06-22T21:05:40Z</time>
      </trkpt>
      <trkpt lat="50.91634" lon="1.82308">
        <ele>3.3</ele>
        <time>2020-06-22T21:05:41Z</time>
      </trkpt>
      <trkpt lat="50.91638" lon="1.82315">
        <ele>3.3</ele>
        <time>2020-06-22T21:05:42Z</time>
      </trkpt>
      <trkpt lat="50.9164" lon="1.82324">
        <ele>3.2</ele>
        <time>2020-06-22T21:05:43Z</time>
      </trkpt>
      <trkpt lat="50.91643" lon="1.82332">
        <ele>3.2</ele>
        <time>2020-06-22T21:05:44Z</time>
      </trkpt>
      <trkpt lat="50.91645" lon="1.82341">
        <ele>3.2</ele>
        <time>2020-06-22T21:05:45Z</time>
      </trkpt>
      <trkpt lat="50.91648" lon="1.82348">
        <ele>3.2</ele>
        <time>2020-06-22T21:05:46Z</time>
      </trkpt>
      <trkpt lat="50.91651" lon="1.82355">
        <ele>3.2</ele>
        <time>2020-06-22T21:05:47Z</time>
      </trkpt>
      <trkpt lat="50.91655" lon="1.82362">
        <ele>3.2</ele>
        <time>2020-06-22T21:05:48Z</time>
      </trkpt>
      <trkpt lat="50.91658" lon="1.82369">
        <ele>3.2</ele>
        <time>2020-06-22T21:05:49Z</time>
      </trkpt>
      <trkpt lat="50.91661" lon="1.82376">
        <ele>3.1</ele>
        <time>2020-06-22T21:05:50Z</time>
      </trkpt>
      <trkpt lat="50.91665" lon="1.82382">
        <ele>3.1</ele>
        <time>2020-06-22T21:05:51Z</time>
      </trkpt>
      <trkpt lat="50.91668" lon="1.82389">
        <ele>3.1</ele>
        <time>2020-06-22T21:05:52Z</time>
      </trkpt>
      <trkpt lat="50.91671" lon="1.82396">
        <ele>3.1</ele>
        <time>2020-06-22T21:05:53Z</time>
      </trkpt>
      <trkpt lat="50.91675" lon="1.82403">
        <ele>3.1</ele>
        <time>2020-06-22T21:05:54Z</time>
      </trkpt>
      <trkpt lat="50.91679" lon="1.82409">
        <ele>3.1</ele>
        <time>2020-06-22T21:05:55Z</time>
      </trkpt>
      <trkpt lat="50.91683" lon="1.82414">
        <ele>3.1</ele>
        <time>2020-06-22T21:05:56Z</time>
      </trkpt>
      <trkpt lat="50.91687" lon="1.82418">
        <ele>3</ele>
        <time>2020-06-22T21:05:57Z</time>
      </trkpt>
      <trkpt lat="50.91691" lon="1.8242">
        <ele>3</ele>
        <time>2020-06-22T21:05:58Z</time>
      </trkpt>
      <trkpt lat="50.91696" lon="1.82419">
        <ele>2.9</ele>
        <time>2020-06-22T21:05:59Z</time>
      </trkpt>
      <trkpt lat="50.91701" lon="1.82418">
        <ele>2.9</ele>
        <time>2020-06-22T21:06:00Z</time>
      </trkpt>
      <trkpt lat="50.91706" lon="1.82416">
        <ele>2.8</ele>
        <time>2020-06-22T21:06:01Z</time>
      </trkpt>
      <trkpt lat="50.91711" lon="1.82413">
        <ele>2.7</ele>
        <time>2020-06-22T21:06:02Z</time>
      </trkpt>
      <trkpt lat="50.91716" lon="1.82411">
        <ele>2.7</ele>
        <time>2020-06-22T21:06:03Z</time>
      </trkpt>
      <trkpt lat="50.91721" lon="1.82409">
        <ele>2.7</ele>
        <time>2020-06-22T21:06:04Z</time>
      </trkpt>
      <trkpt lat="50.91726" lon="1.82408">
        <ele>2.7</ele>
        <time>2020-06-22T21:06:05Z</time>
      </trkpt>
      <trkpt lat="50.91731" lon="1.82408">
        <ele>2.8</ele>
        <time>2020-06-22T21:06:06Z</time>
      </trkpt>
      <trkpt lat="50.91737" lon="1.82407">
        <ele>2.8</ele>
        <time>2020-06-22T21:06:07Z</time>
      </trkpt>
      <trkpt lat="50.91742" lon="1.82411">
        <ele>2.8</ele>
        <time>2020-06-22T21:06:08Z</time>
      </trkpt>
      <trkpt lat="50.91746" lon="1.82416">
        <ele>2.8</ele>
        <time>2020-06-22T21:06:09Z</time>
      </trkpt>
      <trkpt lat="50.9175" lon="1.82422">
        <ele>2.8</ele>
        <time>2020-06-22T21:06:10Z</time>
      </trkpt>
      <trkpt lat="50.91754" lon="1.82428">
        <ele>2.8</ele>
        <time>2020-06-22T21:06:11Z</time>
      </trkpt>
      <trkpt lat="50.91757" lon="1.82436">
        <ele>2.8</ele>
        <time>2020-06-22T21:06:12Z</time>
      </trkpt>
      <trkpt lat="50.9176" lon="1.82444">
        <ele>2.8</ele>
        <time>2020-06-22T21:06:13Z</time>
      </trkpt>
      <trkpt lat="50.91764" lon="1.8245">
        <ele>2.8</ele>
        <time>2020-06-22T21:06:14Z</time>
      </trkpt>
      <trkpt lat="50.91767" lon="1.82457">
        <ele>2.7</ele>
        <time>2020-06-22T21:06:15Z</time>
      </trkpt>
      <trkpt lat="50.91771" lon="1.82464">
        <ele>2.7</ele>
        <time>2020-06-22T21:06:16Z</time>
      </trkpt>
      <trkpt lat="50.91775" lon="1.8247">
        <ele>2.7</ele>
        <time>2020-06-22T21:06:17Z</time>
      </trkpt>
      <trkpt lat="50.9178" lon="1.82477">
        <ele>2.7</ele>
        <time>2020-06-22T21:06:18Z</time>
      </trkpt>
      <trkpt lat="50.91783" lon="1.82484">
        <ele>2.7</ele>
        <time>2020-06-22T21:06:19Z</time>
      </trkpt>
      <trkpt lat="50.91786" lon="1.82492">
        <ele>2.7</ele>
        <time>2020-06-22T21:06:20Z</time>
      </trkpt>
      <trkpt lat="50.91789" lon="1.82499">
        <ele>2.7</ele>
        <time>2020-06-22T21:06:21Z</time>
      </trkpt>
      <trkpt lat="50.91793" lon="1.82507">
        <ele>2.7</ele>
        <time>2020-06-22T21:06:22Z</time>
      </trkpt>
      <trkpt lat="50.91796" lon="1.82515">
        <ele>2.6</ele>
        <time>2020-06-22T21:06:23Z</time>
      </trkpt>
      <trkpt lat="50.91799" lon="1.82523">
        <ele>2.6</ele>
        <time>2020-06-22T21:06:24Z</time>
      </trkpt>
      <trkpt lat="50.91803" lon="1.82531">
        <ele>2.6</ele>
        <time>2020-06-22T21:06:25Z</time>
      </trkpt>
      <trkpt lat="50.91807" lon="1.82539">
        <ele>2.6</ele>
        <time>2020-06-22T21:06:26Z</time>
      </trkpt>
      <trkpt lat="50.91812" lon="1.82546">
        <ele>2.5</ele>
        <time>2020-06-22T21:06:27Z</time>
      </trkpt>
      <trkpt lat="50.91816" lon="1.82553">
        <ele>2.5</ele>
        <time>2020-06-22T21:06:28Z</time>
      </trkpt>
      <trkpt lat="50.9182" lon="1.82559">
        <ele>2.5</ele>
        <time>2020-06-22T21:06:29Z</time>
      </trkpt>
      <trkpt lat="50.91825" lon="1.82566">
        <ele>2.5</ele>
        <time>2020-06-22T21:06:30Z</time>
      </trkpt>
      <trkpt lat="50.91829" lon="1.82573">
        <ele>2.5</ele>
        <time>2020-06-22T21:06:31Z</time>
      </trkpt>
      <trkpt lat="50.91832" lon="1.82581">
        <ele>2.6</ele>
        <time>2020-06-22T21:06:32Z</time>
      </trkpt>
      <trkpt lat="50.91835" lon="1.82589">
        <ele>2.6</ele>
        <time>2020-06-22T21:06:33Z</time>
      </trkpt>
      <trkpt lat="50.91838" lon="1.82597">
        <ele>2.6</ele>
        <time>2020-06-22T21:06:34Z</time>
      </trkpt>
      <trkpt lat="50.91842" lon="1.82605">
        <ele>2.7</ele>
        <time>2020-06-22T21:06:35Z</time>
      </trkpt>
      <trkpt lat="50.91846" lon="1.82612">
        <ele>2.7</ele>
        <time>2020-06-22T21:06:36Z</time>
      </trkpt>
      <trkpt lat="50.91851" lon="1.82618">
        <ele>2.8</ele>
        <time>2020-06-22T21:06:37Z</time>
      </trkpt>
      <trkpt lat="50.91856" lon="1.82623">
        <ele>2.9</ele>
        <time>2020-06-22T21:06:38Z</time>
      </trkpt>
      <trkpt lat="50.9186" lon="1.82629">
        <ele>2.9</ele>
        <time>2020-06-22T21:06:39Z</time>
      </trkpt>
      <trkpt lat="50.91864" lon="1.82635">
        <ele>2.9</ele>
        <time>2020-06-22T21:06:40Z</time>
      </trkpt>
      <trkpt lat="50.91868" lon="1.82641">
        <ele>3</ele>
        <time>2020-06-22T21:06:41Z</time>
      </trkpt>
      <trkpt lat="50.91873" lon="1.82647">
        <ele>3</ele>
        <time>2020-06-22T21:06:42Z</time>
      </trkpt>
      <trkpt lat="50.91878" lon="1.82652">
        <ele>2.9</ele>
        <time>2020-06-22T21:06:43Z</time>
      </trkpt>
      <trkpt lat="50.91882" lon="1.82657">
        <ele>2.9</ele>
        <time>2020-06-22T21:06:44Z</time>
      </trkpt>
      <trkpt lat="50.91887" lon="1.82663">
        <ele>2.8</ele>
        <time>2020-06-22T21:06:45Z</time>
      </trkpt>
      <trkpt lat="50.91892" lon="1.82669">
        <ele>2.8</ele>
        <time>2020-06-22T21:06:46Z</time>
      </trkpt>
      <trkpt lat="50.91897" lon="1.82675">
        <ele>2.6</ele>
        <time>2020-06-22T21:06:47Z</time>
      </trkpt>
      <trkpt lat="50.91903" lon="1.8268">
        <ele>2.5</ele>
        <time>2020-06-22T21:06:48Z</time>
      </trkpt>
      <trkpt lat="50.9191" lon="1.82684">
        <ele>2.4</ele>
        <time>2020-06-22T21:06:49Z</time>
      </trkpt>
      <trkpt lat="50.91916" lon="1.8269">
        <ele>2.2</ele>
        <time>2020-06-22T21:06:50Z</time>
      </trkpt>
      <trkpt lat="50.91922" lon="1.82696">
        <ele>2.1</ele>
        <time>2020-06-22T21:06:51Z</time>
      </trkpt>
      <trkpt lat="50.91929" lon="1.82703">
        <ele>2.1</ele>
        <time>2020-06-22T21:06:52Z</time>
      </trkpt>
      <trkpt lat="50.91935" lon="1.8271">
        <ele>2</ele>
        <time>2020-06-22T21:06:53Z</time>
      </trkpt>
      <trkpt lat="50.91941" lon="1.82716">
        <ele>1.9</ele>
        <time>2020-06-22T21:06:54Z</time>
      </trkpt>
      <trkpt lat="50.91947" lon="1.82722">
        <ele>1.8</ele>
        <time>2020-06-22T21:06:55Z</time>
      </trkpt>
      <trkpt lat="50.91953" lon="1.82729">
        <ele>1.7</ele>
        <time>2020-06-22T21:06:56Z</time>
      </trkpt>
      <trkpt lat="50.91959" lon="1.82735">
        <ele>1.6</ele>
        <time>2020-06-22T21:06:57Z</time>
      </trkpt>
      <trkpt lat="50.91966" lon="1.82741">
        <ele>1.5</ele>
        <time>2020-06-22T21:06:58Z</time>
      </trkpt>
      <trkpt lat="50.91972" lon="1.82748">
        <ele>1.4</ele>
        <time>2020-06-22T21:06:59Z</time>
      </trkpt>
      <trkpt lat="50.91978" lon="1.82754">
        <ele>1.3</ele>
        <time>2020-06-22T21:07:00Z</time>
      </trkpt>
      <trkpt lat="50.91985" lon="1.8276">
        <ele>1.3</ele>
        <time>2020-06-22T21:07:01Z</time>
      </trkpt>
      <trkpt lat="50.91991" lon="1.82766">
        <ele>1.2</ele>
        <time>2020-06-22T21:07:02Z</time>
      </trkpt>
      <trkpt lat="50.91997" lon="1.82772">
        <ele>1.1</ele>
        <time>2020-06-22T21:07:03Z</time>
      </trkpt>
      <trkpt lat="50.92003" lon="1.82779">
        <ele>1.1</ele>
        <time>2020-06-22T21:07:04Z</time>
      </trkpt>
      <trkpt lat="50.92009" lon="1.82786">
        <ele>1</ele>
        <time>2020-06-22T21:07:05Z</time>
      </trkpt>
      <trkpt lat="50.92014" lon="1.82793">
        <ele>1</ele>
        <time>2020-06-22T21:07:06Z</time>
      </trkpt>
      <trkpt lat="50.9202" lon="1.828">
        <ele>1</ele>
        <time>2020-06-22T21:07:07Z</time>
      </trkpt>
      <trkpt lat="50.92026" lon="1.82806">
        <ele>0.9</ele>
        <time>2020-06-22T21:07:08Z</time>
      </trkpt>
      <trkpt lat="50.92032" lon="1.82813">
        <ele>0.9</ele>
        <time>2020-06-22T21:07:09Z</time>
      </trkpt>
      <trkpt lat="50.92038" lon="1.82818">
        <ele>0.9</ele>
        <time>2020-06-22T21:07:10Z</time>
      </trkpt>
      <trkpt lat="50.92044" lon="1.82824">
        <ele>0.9</ele>
        <time>2020-06-22T21:07:11Z</time>
      </trkpt>
      <trkpt lat="50.92049" lon="1.82829">
        <ele>0.9</ele>
        <time>2020-06-22T21:07:12Z</time>
      </trkpt>
      <trkpt lat="50.92055" lon="1.82835">
        <ele>0.9</ele>
        <time>2020-06-22T21:07:13Z</time>
      </trkpt>
      <trkpt lat="50.92059" lon="1.82841">
        <ele>0.9</ele>
        <time>2020-06-22T21:07:14Z</time>
      </trkpt>
      <trkpt lat="50.92065" lon="1.82846">
        <ele>0.9</ele>
        <time>2020-06-22T21:07:15Z</time>
      </trkpt>
      <trkpt lat="50.9207" lon="1.82853">
        <ele>1</ele>
        <time>2020-06-22T21:07:16Z</time>
      </trkpt>
      <trkpt lat="50.92075" lon="1.82859">
        <ele>1</ele>
        <time>2020-06-22T21:07:17Z</time>
      </trkpt>
      <trkpt lat="50.9208" lon="1.82863">
        <ele>1</ele>
        <time>2020-06-22T21:07:18Z</time>
      </trkpt>
      <trkpt lat="50.92085" lon="1.82868">
        <ele>1</ele>
        <time>2020-06-22T21:07:19Z</time>
      </trkpt>
      <trkpt lat="50.9209" lon="1.82873">
        <ele>1</ele>
        <time>2020-06-22T21:07:20Z</time>
      </trkpt>
      <trkpt lat="50.92095" lon="1.82879">
        <ele>1</ele>
        <time>2020-06-22T21:07:21Z</time>
      </trkpt>
      <trkpt lat="50.921" lon="1.82884">
        <ele>0.9</ele>
        <time>2020-06-22T21:07:22Z</time>
      </trkpt>
      <trkpt lat="50.92104" lon="1.8289">
        <ele>0.9</ele>
        <time>2020-06-22T21:07:23Z</time>
      </trkpt>
      <trkpt lat="50.92109" lon="1.82897">
        <ele>0.8</ele>
        <time>2020-06-22T21:07:24Z</time>
      </trkpt>
      <trkpt lat="50.92114" lon="1.82903">
        <ele>0.8</ele>
        <time>2020-06-22T21:07:25Z</time>
      </trkpt>
      <trkpt lat="50.92118" lon="1.82908">
        <ele>0.7</ele>
        <time>2020-06-22T21:07:26Z</time>
      </trkpt>
      <trkpt lat="50.92123" lon="1.82915">
        <ele>0.7</ele>
        <time>2020-06-22T21:07:27Z</time>
      </trkpt>
      <trkpt lat="50.92128" lon="1.82922">
        <ele>0.7</ele>
        <time>2020-06-22T21:07:28Z</time>
      </trkpt>
      <trkpt lat="50.92133" lon="1.82927">
        <ele>0.7</ele>
        <time>2020-06-22T21:07:29Z</time>
      </trkpt>
      <trkpt lat="50.92137" lon="1.82933">
        <ele>0.7</ele>
        <time>2020-06-22T21:07:30Z</time>
      </trkpt>
      <trkpt lat="50.92142" lon="1.8294">
        <ele>0.7</ele>
        <time>2020-06-22T21:07:31Z</time>
      </trkpt>
      <trkpt lat="50.92146" lon="1.82947">
        <ele>0.7</ele>
        <time>2020-06-22T21:07:32Z</time>
      </trkpt>
      <trkpt lat="50.92151" lon="1.82954">
        <ele>0.7</ele>
        <time>2020-06-22T21:07:33Z</time>
      </trkpt>
      <trkpt lat="50.92156" lon="1.8296">
        <ele>0.7</ele>
        <time>2020-06-22T21:07:34Z</time>
      </trkpt>
      <trkpt lat="50.92161" lon="1.82965">
        <ele>0.7</ele>
        <time>2020-06-22T21:07:35Z</time>
      </trkpt>
      <trkpt lat="50.92166" lon="1.82971">
        <ele>0.7</ele>
        <time>2020-06-22T21:07:36Z</time>
      </trkpt>
      <trkpt lat="50.9217" lon="1.82977">
        <ele>0.8</ele>
        <time>2020-06-22T21:07:37Z</time>
      </trkpt>
      <trkpt lat="50.92175" lon="1.82983">
        <ele>0.7</ele>
        <time>2020-06-22T21:07:38Z</time>
      </trkpt>
      <trkpt lat="50.92179" lon="1.82989">
        <ele>0.7</ele>
        <time>2020-06-22T21:07:39Z</time>
      </trkpt>
      <trkpt lat="50.92183" lon="1.82995">
        <ele>0.6</ele>
        <time>2020-06-22T21:07:40Z</time>
      </trkpt>
      <trkpt lat="50.92188" lon="1.83002">
        <ele>0.6</ele>
        <time>2020-06-22T21:07:41Z</time>
      </trkpt>
      <trkpt lat="50.92192" lon="1.83009">
        <ele>0.5</ele>
        <time>2020-06-22T21:07:42Z</time>
      </trkpt>
      <trkpt lat="50.92196" lon="1.83016">
        <ele>0.5</ele>
        <time>2020-06-22T21:07:43Z</time>
      </trkpt>
      <trkpt lat="50.92198" lon="1.83026">
        <ele>0.4</ele>
        <time>2020-06-22T21:07:44Z</time>
      </trkpt>
      <trkpt lat="50.92201" lon="1.83034">
        <ele>0.4</ele>
        <time>2020-06-22T21:07:45Z</time>
      </trkpt>
      <trkpt lat="50.92203" lon="1.83044">
        <ele>0.3</ele>
        <time>2020-06-22T21:07:46Z</time>
      </trkpt>
      <trkpt lat="50.92204" lon="1.83053">
        <ele>0.3</ele>
        <time>2020-06-22T21:07:47Z</time>
      </trkpt>
      <trkpt lat="50.92205" lon="1.83064">
        <ele>0.2</ele>
        <time>2020-06-22T21:07:48Z</time>
      </trkpt>
      <trkpt lat="50.92206" lon="1.83074">
        <ele>0.2</ele>
        <time>2020-06-22T21:07:49Z</time>
      </trkpt>
      <trkpt lat="50.92208" lon="1.83083">
        <ele>0.2</ele>
        <time>2020-06-22T21:07:50Z</time>
      </trkpt>
      <trkpt lat="50.9221" lon="1.83093">
        <ele>0.1</ele>
        <time>2020-06-22T21:07:51Z</time>
      </trkpt>
      <trkpt lat="50.92211" lon="1.83103">
        <ele>0.1</ele>
        <time>2020-06-22T21:07:52Z</time>
      </trkpt>
      <trkpt lat="50.92213" lon="1.83112">
        <ele>0.1</ele>
        <time>2020-06-22T21:07:53Z</time>
      </trkpt>
      <trkpt lat="50.92215" lon="1.83121">
        <ele>0.1</ele>
        <time>2020-06-22T21:07:54Z</time>
      </trkpt>
      <trkpt lat="50.92218" lon="1.83128">
        <ele>0.1</ele>
        <time>2020-06-22T21:07:55Z</time>
      </trkpt>
      <trkpt lat="50.92221" lon="1.83136">
        <ele>0.1</ele>
        <time>2020-06-22T21:07:56Z</time>
      </trkpt>
      <trkpt lat="50.92223" lon="1.83144">
        <ele>0.1</ele>
        <time>2020-06-22T21:07:57Z</time>
      </trkpt>
      <trkpt lat="50.92224" lon="1.83153">
        <time>2020-06-22T21:07:58Z</time>
      </trkpt>
      <trkpt lat="50.92225" lon="1.83162">
        <time>2020-06-22T21:07:59Z</time>
      </trkpt>
      <trkpt lat="50.92227" lon="1.83171">
        <ele>1</ele>
        <time>2020-06-22T21:08:00Z</time>
      </trkpt>
      <trkpt lat="50.92229" lon="1.83181">
        <ele>1</ele>
        <time>2020-06-22T21:08:01Z</time>
      </trkpt>
      <trkpt lat="50.92232" lon="1.8319">
        <ele>-0.1</ele>
        <time>2020-06-22T21:08:02Z</time>
      </trkpt>
      <trkpt lat="50.92234" lon="1.83199">
        <ele>-0.1</ele>
        <time>2020-06-22T21:08:03Z</time>
      </trkpt>
      <trkpt lat="50.92235" lon="1.83209">
        <ele>-0.2</ele>
        <time>2020-06-22T21:08:04Z</time>
      </trkpt>
      <trkpt lat="50.92236" lon="1.83218">
        <ele>-0.2</ele>
        <time>2020-06-22T21:08:05Z</time>
      </trkpt>
      <trkpt lat="50.92238" lon="1.83228">
        <ele>-0.2</ele>
        <time>2020-06-22T21:08:06Z</time>
      </trkpt>
      <trkpt lat="50.92239" lon="1.83237">
        <ele>-0.2</ele>
        <time>2020-06-22T21:08:07Z</time>
      </trkpt>
      <trkpt lat="50.92241" lon="1.83246">
        <ele>-0.2</ele>
        <time>2020-06-22T21:08:08Z</time>
      </trkpt>
      <trkpt lat="50.92242" lon="1.83256">
        <ele>-0.2</ele>
        <time>2020-06-22T21:08:09Z</time>
      </trkpt>
      <trkpt lat="50.92244" lon="1.83266">
        <ele>-0.2</ele>
        <time>2020-06-22T21:08:10Z</time>
      </trkpt>
      <trkpt lat="50.92246" lon="1.83275">
        <ele>-0.2</ele>
        <time>2020-06-22T21:08:11Z</time>
      </trkpt>
      <trkpt lat="50.92248" lon="1.83284">
        <ele>-0.2</ele>
        <time>2020-06-22T21:08:12Z</time>
      </trkpt>
      <trkpt lat="50.9225" lon="1.83292">
        <ele>-0.1</ele>
        <time>2020-06-22T21:08:13Z</time>
      </trkpt>
      <trkpt lat="50.92253" lon="1.83301">
        <ele>1</ele>
        <time>2020-06-22T21:08:14Z</time>
      </trkpt>
      <trkpt lat="50.92255" lon="1.83309">
        <ele>1</ele>
        <time>2020-06-22T21:08:15Z</time>
      </trkpt>
      <trkpt lat="50.92258" lon="1.83318">
        <ele>0.1</ele>
        <time>2020-06-22T21:08:16Z</time>
      </trkpt>
      <trkpt lat="50.92262" lon="1.83325">
        <ele>0.1</ele>
        <time>2020-06-22T21:08:17Z</time>
      </trkpt>
      <trkpt lat="50.92266" lon="1.83333">
        <ele>0.1</ele>
        <time>2020-06-22T21:08:18Z</time>
      </trkpt>
      <trkpt lat="50.92269" lon="1.83341">
        <ele>0.1</ele>
        <time>2020-06-22T21:08:19Z</time>
      </trkpt>
      <trkpt lat="50.92272" lon="1.83349">
        <ele>0.1</ele>
        <time>2020-06-22T21:08:20Z</time>
      </trkpt>
      <trkpt lat="50.92276" lon="1.83356">
        <ele>0.1</ele>
        <time>2020-06-22T21:08:21Z</time>
      </trkpt>
      <trkpt lat="50.9228" lon="1.83364">
        <ele>0.2</ele>
        <time>2020-06-22T21:08:22Z</time>
      </trkpt>
      <trkpt lat="50.92283" lon="1.83372">
        <ele>0.2</ele>
        <time>2020-06-22T21:08:23Z</time>
      </trkpt>
      <trkpt lat="50.92287" lon="1.83379">
        <ele>0.2</ele>
        <time>2020-06-22T21:08:24Z</time>
      </trkpt>
      <trkpt lat="50.9229" lon="1.83387">
        <ele>0.2</ele>
        <time>2020-06-22T21:08:25Z</time>
      </trkpt>
      <trkpt lat="50.92294" lon="1.83395">
        <ele>0.2</ele>
        <time>2020-06-22T21:08:26Z</time>
      </trkpt>
      <trkpt lat="50.92298" lon="1.83403">
        <ele>0.1</ele>
        <time>2020-06-22T21:08:27Z</time>
      </trkpt>
      <trkpt lat="50.92301" lon="1.83411">
        <ele>0.1</ele>
        <time>2020-06-22T21:08:28Z</time>
      </trkpt>
      <trkpt lat="50.92306" lon="1.83419">
        <ele>0.1</ele>
        <time>2020-06-22T21:08:29Z</time>
      </trkpt>
      <trkpt lat="50.92309" lon="1.83427">
        <ele>0.1</ele>
        <time>2020-06-22T21:08:30Z</time>
      </trkpt>
      <trkpt lat="50.92312" lon="1.83435">
        <ele>0.1</ele>
        <time>2020-06-22T21:08:31Z</time>
      </trkpt>
      <trkpt lat="50.92316" lon="1.83442">
        <ele>0.2</ele>
        <time>2020-06-22T21:08:32Z</time>
      </trkpt>
      <trkpt lat="50.92318" lon="1.83451">
        <ele>0.2</ele>
        <time>2020-06-22T21:08:33Z</time>
      </trkpt>
      <trkpt lat="50.92321" lon="1.83459">
        <ele>0.3</ele>
        <time>2020-06-22T21:08:34Z</time>
      </trkpt>
      <trkpt lat="50.92324" lon="1.83468">
        <ele>0.3</ele>
        <time>2020-06-22T21:08:35Z</time>
      </trkpt>
      <trkpt lat="50.92327" lon="1.83476">
        <ele>0.3</ele>
        <time>2020-06-22T21:08:36Z</time>
      </trkpt>
      <trkpt lat="50.92331" lon="1.83483">
        <ele>0.3</ele>
        <time>2020-06-22T21:08:37Z</time>
      </trkpt>
      <trkpt lat="50.92336" lon="1.8349">
        <ele>0.4</ele>
        <time>2020-06-22T21:08:38Z</time>
      </trkpt>
      <trkpt lat="50.9234" lon="1.83497">
        <ele>0.4</ele>
        <time>2020-06-22T21:08:39Z</time>
      </trkpt>
      <trkpt lat="50.92345" lon="1.83506">
        <ele>0.4</ele>
        <time>2020-06-22T21:08:40Z</time>
      </trkpt>
      <trkpt lat="50.92348" lon="1.83513">
        <ele>0.4</ele>
        <time>2020-06-22T21:08:41Z</time>
      </trkpt>
      <trkpt lat="50.9235" lon="1.8352">
        <ele>0.5</ele>
        <time>2020-06-22T21:08:42Z</time>
      </trkpt>
      <trkpt lat="50.92354" lon="1.83527">
        <ele>0.5</ele>
        <time>2020-06-22T21:08:43Z</time>
      </trkpt>
      <trkpt lat="50.92357" lon="1.83533">
        <ele>0.5</ele>
        <time>2020-06-22T21:08:44Z</time>
      </trkpt>
      <trkpt lat="50.9236" lon="1.83541">
        <ele>0.5</ele>
        <time>2020-06-22T21:08:45Z</time>
      </trkpt>
      <trkpt lat="50.92363" lon="1.83547">
        <ele>0.6</ele>
        <time>2020-06-22T21:08:46Z</time>
      </trkpt>
      <trkpt lat="50.92366" lon="1.83554">
        <ele>0.6</ele>
        <time>2020-06-22T21:08:47Z</time>
      </trkpt>
      <trkpt lat="50.9237" lon="1.8356">
        <ele>0.7</ele>
        <time>2020-06-22T21:08:48Z</time>
      </trkpt>
      <trkpt lat="50.92373" lon="1.83566">
        <ele>0.8</ele>
        <time>2020-06-22T21:08:49Z</time>
      </trkpt>
      <trkpt lat="50.92376" lon="1.83572">
        <ele>0.8</ele>
        <time>2020-06-22T21:08:50Z</time>
      </trkpt>
      <trkpt lat="50.92377" lon="1.83578">
        <ele>0.9</ele>
        <time>2020-06-22T21:08:51Z</time>
      </trkpt>
      <trkpt lat="50.9238" lon="1.83579">
        <ele>0.9</ele>
        <time>2020-06-22T21:08:52Z</time>
      </trkpt>
      <trkpt lat="50.92384" lon="1.83579">
        <ele>0.9</ele>
        <time>2020-06-22T21:08:53Z</time>
      </trkpt>
      <trkpt lat="50.92388" lon="1.83575">
        <ele>0.9</ele>
        <time>2020-06-22T21:08:54Z</time>
      </trkpt>
      <trkpt lat="50.92393" lon="1.8357">
        <ele>0.9</ele>
        <time>2020-06-22T21:08:55Z</time>
      </trkpt>
      <trkpt lat="50.92397" lon="1.83567">
        <ele>0.8</ele>
        <time>2020-06-22T21:08:56Z</time>
      </trkpt>
      <trkpt lat="50.92402" lon="1.83562">
        <ele>0.8</ele>
        <time>2020-06-22T21:08:57Z</time>
      </trkpt>
      <trkpt lat="50.92406" lon="1.83557">
        <ele>0.7</ele>
        <time>2020-06-22T21:08:58Z</time>
      </trkpt>
      <trkpt lat="50.92411" lon="1.83552">
        <ele>0.7</ele>
        <time>2020-06-22T21:08:59Z</time>
      </trkpt>
      <trkpt lat="50.92416" lon="1.83547">
        <ele>0.6</ele>
        <time>2020-06-22T21:09:00Z</time>
      </trkpt>
      <trkpt lat="50.9242" lon="1.83544">
        <ele>0.6</ele>
        <time>2020-06-22T21:09:01Z</time>
      </trkpt>
      <trkpt lat="50.92425" lon="1.8354">
        <ele>0.6</ele>
        <time>2020-06-22T21:09:02Z</time>
      </trkpt>
      <trkpt lat="50.92429" lon="1.83536">
        <ele>0.6</ele>
        <time>2020-06-22T21:09:03Z</time>
      </trkpt>
      <trkpt lat="50.92435" lon="1.83531">
        <ele>0.6</ele>
        <time>2020-06-22T21:09:04Z</time>
      </trkpt>
      <trkpt lat="50.92439" lon="1.83525">
        <ele>0.6</ele>
        <time>2020-06-22T21:09:05Z</time>
      </trkpt>
      <trkpt lat="50.92443" lon="1.8352">
        <ele>0.6</ele>
        <time>2020-06-22T21:09:06Z</time>
      </trkpt>
      <trkpt lat="50.92449" lon="1.83514">
        <ele>0.7</ele>
        <time>2020-06-22T21:09:07Z</time>
      </trkpt>
      <trkpt lat="50.92453" lon="1.8351">
        <ele>0.7</ele>
        <time>2020-06-22T21:09:08Z</time>
      </trkpt>
      <trkpt lat="50.92457" lon="1.83506">
        <ele>0.7</ele>
        <time>2020-06-22T21:09:09Z</time>
      </trkpt>
      <trkpt lat="50.92461" lon="1.83503">
        <ele>0.7</ele>
        <time>2020-06-22T21:09:10Z</time>
      </trkpt>
      <trkpt lat="50.92466" lon="1.83498">
        <ele>0.7</ele>
        <time>2020-06-22T21:09:11Z</time>
      </trkpt>
      <trkpt lat="50.92471" lon="1.83495">
        <ele>0.7</ele>
        <time>2020-06-22T21:09:12Z</time>
      </trkpt>
      <trkpt lat="50.92475" lon="1.8349">
        <ele>0.7</ele>
        <time>2020-06-22T21:09:13Z</time>
      </trkpt>
      <trkpt lat="50.9248" lon="1.83487">
        <ele>0.8</ele>
        <time>2020-06-22T21:09:14Z</time>
      </trkpt>
      <trkpt lat="50.92486" lon="1.83482">
        <ele>0.8</ele>
        <time>2020-06-22T21:09:15Z</time>
      </trkpt>
      <trkpt lat="50.92491" lon="1.83475">
        <ele>0.9</ele>
        <time>2020-06-22T21:09:16Z</time>
      </trkpt>
      <trkpt lat="50.92496" lon="1.8347">
        <ele>1</ele>
        <time>2020-06-22T21:09:17Z</time>
      </trkpt>
      <trkpt lat="50.925" lon="1.83467">
        <ele>1.1</ele>
        <time>2020-06-22T21:09:18Z</time>
      </trkpt>
      <trkpt lat="50.92505" lon="1.83462">
        <ele>1.1</ele>
        <time>2020-06-22T21:09:19Z</time>
      </trkpt>
      <trkpt lat="50.92509" lon="1.83458">
        <ele>1.1</ele>
        <time>2020-06-22T21:09:20Z</time>
      </trkpt>
      <trkpt lat="50.92514" lon="1.83453">
        <ele>1.1</ele>
        <time>2020-06-22T21:09:21Z</time>
      </trkpt>
      <trkpt lat="50.92518" lon="1.83448">
        <ele>1.1</ele>
        <time>2020-06-22T21:09:22Z</time>
      </trkpt>
      <trkpt lat="50.92523" lon="1.83444">
        <ele>1</ele>
        <time>2020-06-22T21:09:23Z</time>
      </trkpt>
      <trkpt lat="50.92527" lon="1.8344">
        <ele>0.9</ele>
        <time>2020-06-22T21:09:24Z</time>
      </trkpt>
      <trkpt lat="50.92531" lon="1.83435">
        <ele>0.9</ele>
        <time>2020-06-22T21:09:25Z</time>
      </trkpt>
      <trkpt lat="50.92537" lon="1.8343">
        <ele>0.8</ele>
        <time>2020-06-22T21:09:26Z</time>
      </trkpt>
      <trkpt lat="50.92543" lon="1.83424">
        <ele>0.8</ele>
        <time>2020-06-22T21:09:27Z</time>
      </trkpt>
      <trkpt lat="50.92547" lon="1.83418">
        <ele>0.8</ele>
        <time>2020-06-22T21:09:28Z</time>
      </trkpt>
      <trkpt lat="50.92552" lon="1.83413">
        <ele>0.9</ele>
        <time>2020-06-22T21:09:29Z</time>
      </trkpt>
      <trkpt lat="50.92558" lon="1.83409">
        <ele>0.9</ele>
        <time>2020-06-22T21:09:30Z</time>
      </trkpt>
      <trkpt lat="50.92563" lon="1.83403">
        <ele>0.9</ele>
        <time>2020-06-22T21:09:31Z</time>
      </trkpt>
      <trkpt lat="50.92567" lon="1.83398">
        <ele>1</ele>
        <time>2020-06-22T21:09:32Z</time>
      </trkpt>
      <trkpt lat="50.92572" lon="1.83393">
        <ele>1</ele>
        <time>2020-06-22T21:09:33Z</time>
      </trkpt>
      <trkpt lat="50.92577" lon="1.83388">
        <ele>1.1</ele>
        <time>2020-06-22T21:09:34Z</time>
      </trkpt>
      <trkpt lat="50.92581" lon="1.83386">
        <ele>1.1</ele>
        <time>2020-06-22T21:09:35Z</time>
      </trkpt>
      <trkpt lat="50.92585" lon="1.83382">
        <ele>1.1</ele>
        <time>2020-06-22T21:09:36Z</time>
      </trkpt>
      <trkpt lat="50.92589" lon="1.83377">
        <ele>1.1</ele>
        <time>2020-06-22T21:09:37Z</time>
      </trkpt>
      <trkpt lat="50.92592" lon="1.83374">
        <ele>1.1</ele>
        <time>2020-06-22T21:09:38Z</time>
      </trkpt>
      <trkpt lat="50.92597" lon="1.83371">
        <ele>1.2</ele>
        <time>2020-06-22T21:09:39Z</time>
      </trkpt>
      <trkpt lat="50.926" lon="1.83369">
        <ele>1.1</ele>
        <time>2020-06-22T21:09:40Z</time>
      </trkpt>
      <trkpt lat="50.92604" lon="1.83367">
        <ele>1.1</ele>
        <time>2020-06-22T21:09:41Z</time>
      </trkpt>
      <trkpt lat="50.92608" lon="1.83366">
        <ele>1.1</ele>
        <time>2020-06-22T21:09:42Z</time>
      </trkpt>
      <trkpt lat="50.92611" lon="1.83368">
        <ele>1</ele>
        <time>2020-06-22T21:09:43Z</time>
      </trkpt>
      <trkpt lat="50.92612" lon="1.83375">
        <ele>1</ele>
        <time>2020-06-22T21:09:44Z</time>
      </trkpt>
      <trkpt lat="50.92616" lon="1.83383">
        <ele>0.9</ele>
        <time>2020-06-22T21:09:45Z</time>
      </trkpt>
      <trkpt lat="50.9262" lon="1.83391">
        <ele>0.8</ele>
        <time>2020-06-22T21:09:46Z</time>
      </trkpt>
      <trkpt lat="50.92623" lon="1.83399">
        <ele>0.7</ele>
        <time>2020-06-22T21:09:47Z</time>
      </trkpt>
      <trkpt lat="50.92627" lon="1.83406">
        <ele>0.6</ele>
        <time>2020-06-22T21:09:48Z</time>
      </trkpt>
      <trkpt lat="50.9263" lon="1.83413">
        <ele>0.6</ele>
        <time>2020-06-22T21:09:49Z</time>
      </trkpt>
      <trkpt lat="50.92634" lon="1.8342">
        <ele>0.5</ele>
        <time>2020-06-22T21:09:50Z</time>
      </trkpt>
      <trkpt lat="50.92638" lon="1.83427">
        <ele>0.5</ele>
        <time>2020-06-22T21:09:51Z</time>
      </trkpt>
      <trkpt lat="50.92641" lon="1.83434">
        <ele>0.4</ele>
        <time>2020-06-22T21:09:52Z</time>
      </trkpt>
      <trkpt lat="50.92644" lon="1.83441">
        <ele>0.4</ele>
        <time>2020-06-22T21:09:53Z</time>
      </trkpt>
      <trkpt lat="50.92647" lon="1.83447">
        <ele>0.4</ele>
        <time>2020-06-22T21:09:54Z</time>
      </trkpt>
      <trkpt lat="50.9265" lon="1.83453">
        <ele>0.4</ele>
        <time>2020-06-22T21:09:55Z</time>
      </trkpt>
      <trkpt lat="50.92655" lon="1.83459">
        <ele>0.4</ele>
        <time>2020-06-22T21:09:56Z</time>
      </trkpt>
      <trkpt lat="50.92658" lon="1.83463">
        <ele>0.4</ele>
        <time>2020-06-22T21:09:57Z</time>
      </trkpt>
      <trkpt lat="50.9266" lon="1.83468">
        <ele>0.4</ele>
        <time>2020-06-22T21:09:58Z</time>
      </trkpt>
      <trkpt lat="50.92663" lon="1.83473">
        <ele>0.4</ele>
        <time>2020-06-22T21:09:59Z</time>
      </trkpt>
      <trkpt lat="50.92666" lon="1.83479">
        <ele>0.4</ele>
        <time>2020-06-22T21:10:00Z</time>
      </trkpt>
      <trkpt lat="50.92668" lon="1.83484">
        <ele>0.4</ele>
        <time>2020-06-22T21:10:01Z</time>
      </trkpt>
      <trkpt lat="50.92671" lon="1.83491">
        <ele>0.4</ele>
        <time>2020-06-22T21:10:02Z</time>
      </trkpt>
      <trkpt lat="50.92676" lon="1.83498">
        <ele>0.3</ele>
        <time>2020-06-22T21:10:03Z</time>
      </trkpt>
      <trkpt lat="50.92678" lon="1.83505">
        <ele>0.3</ele>
        <time>2020-06-22T21:10:04Z</time>
      </trkpt>
      <trkpt lat="50.92681" lon="1.83511">
        <ele>0.3</ele>
        <time>2020-06-22T21:10:05Z</time>
      </trkpt>
      <trkpt lat="50.92685" lon="1.83518">
        <ele>0.3</ele>
        <time>2020-06-22T21:10:06Z</time>
      </trkpt>
      <trkpt lat="50.92688" lon="1.83525">
        <ele>0.3</ele>
        <time>2020-06-22T21:10:07Z</time>
      </trkpt>
      <trkpt lat="50.92691" lon="1.83532">
        <ele>0.3</ele>
        <time>2020-06-22T21:10:08Z</time>
      </trkpt>
      <trkpt lat="50.92693" lon="1.83536">
        <ele>0.2</ele>
        <time>2020-06-22T21:10:09Z</time>
      </trkpt>
      <trkpt lat="50.92694" lon="1.83544">
        <ele>0.2</ele>
        <time>2020-06-22T21:10:10Z</time>
      </trkpt>
      <trkpt lat="50.92697" lon="1.83552">
        <ele>0.2</ele>
        <time>2020-06-22T21:10:11Z</time>
      </trkpt>
      <trkpt lat="50.927" lon="1.8356">
        <ele>0.2</ele>
        <time>2020-06-22T21:10:12Z</time>
      </trkpt>
      <trkpt lat="50.92704" lon="1.83568">
        <ele>0.2</ele>
        <time>2020-06-22T21:10:13Z</time>
      </trkpt>
      <trkpt lat="50.92707" lon="1.83574">
        <ele>0.2</ele>
        <time>2020-06-22T21:10:14Z</time>
      </trkpt>
      <trkpt lat="50.9271" lon="1.83581">
        <ele>0.2</ele>
        <time>2020-06-22T21:10:15Z</time>
      </trkpt>
      <trkpt lat="50.92713" lon="1.83587">
        <ele>0.2</ele>
        <time>2020-06-22T21:10:16Z</time>
      </trkpt>
      <trkpt lat="50.92716" lon="1.83592">
        <ele>0.2</ele>
        <time>2020-06-22T21:10:17Z</time>
      </trkpt>
      <trkpt lat="50.9272" lon="1.83599">
        <ele>0.1</ele>
        <time>2020-06-22T21:10:18Z</time>
      </trkpt>
      <trkpt lat="50.92723" lon="1.83605">
        <ele>0.1</ele>
        <time>2020-06-22T21:10:19Z</time>
      </trkpt>
      <trkpt lat="50.92727" lon="1.83611">
        <ele>0.1</ele>
        <time>2020-06-22T21:10:20Z</time>
      </trkpt>
      <trkpt lat="50.9273" lon="1.83618">
        <ele>0.1</ele>
        <time>2020-06-22T21:10:21Z</time>
      </trkpt>
      <trkpt lat="50.92733" lon="1.83626">
        <ele>0.1</ele>
        <time>2020-06-22T21:10:22Z</time>
      </trkpt>
      <trkpt lat="50.92737" lon="1.83632">
        <ele>0.1</ele>
        <time>2020-06-22T21:10:23Z</time>
      </trkpt>
      <trkpt lat="50.9274" lon="1.8364">
        <ele>0.1</ele>
        <time>2020-06-22T21:10:24Z</time>
      </trkpt>
      <trkpt lat="50.92743" lon="1.83646">
        <ele>0.1</ele>
        <time>2020-06-22T21:10:25Z</time>
      </trkpt>
      <trkpt lat="50.92746" lon="1.83653">
        <ele>0.1</ele>
        <time>2020-06-22T21:10:26Z</time>
      </trkpt>
      <trkpt lat="50.92749" lon="1.83658">
        <ele>0.1</ele>
        <time>2020-06-22T21:10:27Z</time>
      </trkpt>
      <trkpt lat="50.92752" lon="1.83664">
        <ele>0.1</ele>
        <time>2020-06-22T21:10:28Z</time>
      </trkpt>
      <trkpt lat="50.92754" lon="1.83667">
        <ele>0.1</ele>
        <time>2020-06-22T21:10:29Z</time>
      </trkpt>
      <trkpt lat="50.92757" lon="1.83674">
        <ele>0.1</ele>
        <time>2020-06-22T21:10:30Z</time>
      </trkpt>
      <trkpt lat="50.92759" lon="1.8368">
        <ele>0.1</ele>
        <time>2020-06-22T21:10:31Z</time>
      </trkpt>
      <trkpt lat="50.92764" lon="1.83687">
        <ele>0.1</ele>
        <time>2020-06-22T21:10:32Z</time>
      </trkpt>
      <trkpt lat="50.92767" lon="1.83694">
        <ele>0.1</ele>
        <time>2020-06-22T21:10:33Z</time>
      </trkpt>
      <trkpt lat="50.9277" lon="1.837">
        <ele>0.1</ele>
        <time>2020-06-22T21:10:34Z</time>
      </trkpt>
      <trkpt lat="50.92774" lon="1.83708">
        <ele>0.2</ele>
        <time>2020-06-22T21:10:35Z</time>
      </trkpt>
      <trkpt lat="50.92777" lon="1.83715">
        <ele>0.2</ele>
        <time>2020-06-22T21:10:36Z</time>
      </trkpt>
      <trkpt lat="50.9278" lon="1.83722">
        <ele>0.2</ele>
        <time>2020-06-22T21:10:37Z</time>
      </trkpt>
      <trkpt lat="50.92785" lon="1.8373">
        <ele>0.2</ele>
        <time>2020-06-22T21:10:38Z</time>
      </trkpt>
      <trkpt lat="50.92786" lon="1.83738">
        <ele>0.2</ele>
        <time>2020-06-22T21:10:39Z</time>
      </trkpt>
      <trkpt lat="50.92788" lon="1.83744">
        <ele>0.2</ele>
        <time>2020-06-22T21:10:40Z</time>
      </trkpt>
      <trkpt lat="50.92792" lon="1.83752">
        <ele>0.2</ele>
        <time>2020-06-22T21:10:41Z</time>
      </trkpt>
      <trkpt lat="50.92795" lon="1.83759">
        <ele>0.2</ele>
        <time>2020-06-22T21:10:42Z</time>
      </trkpt>
      <trkpt lat="50.92798" lon="1.83765">
        <ele>0.2</ele>
        <time>2020-06-22T21:10:43Z</time>
      </trkpt>
      <trkpt lat="50.92801" lon="1.83768">
        <ele>0.2</ele>
        <time>2020-06-22T21:10:44Z</time>
      </trkpt>
      <trkpt lat="50.92805" lon="1.83773">
        <ele>0.2</ele>
        <time>2020-06-22T21:10:45Z</time>
      </trkpt>
      <trkpt lat="50.92808" lon="1.83779">
        <ele>0.2</ele>
        <time>2020-06-22T21:10:46Z</time>
      </trkpt>
      <trkpt lat="50.92811" lon="1.83785">
        <ele>0.2</ele>
        <time>2020-06-22T21:10:47Z</time>
      </trkpt>
      <trkpt lat="50.92815" lon="1.83793">
        <ele>0.2</ele>
        <time>2020-06-22T21:10:48Z</time>
      </trkpt>
      <trkpt lat="50.92819" lon="1.838">
        <ele>0.2</ele>
        <time>2020-06-22T21:10:49Z</time>
      </trkpt>
      <trkpt lat="50.92821" lon="1.83806">
        <ele>0.2</ele>
        <time>2020-06-22T21:10:50Z</time>
      </trkpt>
      <trkpt lat="50.92825" lon="1.83814">
        <ele>0.2</ele>
        <time>2020-06-22T21:10:51Z</time>
      </trkpt>
      <trkpt lat="50.92829" lon="1.83822">
        <ele>0.2</ele>
        <time>2020-06-22T21:10:52Z</time>
      </trkpt>
      <trkpt lat="50.92832" lon="1.8383">
        <ele>0.2</ele>
        <time>2020-06-22T21:10:53Z</time>
      </trkpt>
      <trkpt lat="50.92835" lon="1.83837">
        <ele>0.2</ele>
        <time>2020-06-22T21:10:54Z</time>
      </trkpt>
      <trkpt lat="50.92839" lon="1.83844">
        <ele>0.2</ele>
        <time>2020-06-22T21:10:55Z</time>
      </trkpt>
      <trkpt lat="50.92843" lon="1.8385">
        <ele>0.2</ele>
        <time>2020-06-22T21:10:56Z</time>
      </trkpt>
      <trkpt lat="50.92846" lon="1.83857">
        <ele>0.3</ele>
        <time>2020-06-22T21:10:57Z</time>
      </trkpt>
      <trkpt lat="50.9285" lon="1.83865">
        <ele>0.3</ele>
        <time>2020-06-22T21:10:58Z</time>
      </trkpt>
      <trkpt lat="50.92853" lon="1.83872">
        <ele>0.3</ele>
        <time>2020-06-22T21:10:59Z</time>
      </trkpt>
      <trkpt lat="50.92856" lon="1.83879">
        <ele>0.3</ele>
        <time>2020-06-22T21:11:00Z</time>
      </trkpt>
      <trkpt lat="50.9286" lon="1.83887">
        <ele>0.3</ele>
        <time>2020-06-22T21:11:01Z</time>
      </trkpt>
      <trkpt lat="50.92863" lon="1.83893">
        <ele>0.3</ele>
        <time>2020-06-22T21:11:02Z</time>
      </trkpt>
      <trkpt lat="50.92865" lon="1.83899">
        <ele>0.3</ele>
        <time>2020-06-22T21:11:03Z</time>
      </trkpt>
      <trkpt lat="50.92869" lon="1.83906">
        <ele>0.3</ele>
        <time>2020-06-22T21:11:04Z</time>
      </trkpt>
      <trkpt lat="50.92873" lon="1.83913">
        <ele>0.3</ele>
        <time>2020-06-22T21:11:05Z</time>
      </trkpt>
      <trkpt lat="50.92876" lon="1.83921">
        <ele>0.3</ele>
        <time>2020-06-22T21:11:06Z</time>
      </trkpt>
      <trkpt lat="50.9288" lon="1.83928">
        <ele>0.3</ele>
        <time>2020-06-22T21:11:07Z</time>
      </trkpt>
      <trkpt lat="50.92883" lon="1.83935">
        <ele>0.3</ele>
        <time>2020-06-22T21:11:08Z</time>
      </trkpt>
      <trkpt lat="50.92886" lon="1.83945">
        <ele>0.3</ele>
        <time>2020-06-22T21:11:09Z</time>
      </trkpt>
      <trkpt lat="50.9289" lon="1.83952">
        <ele>0.3</ele>
        <time>2020-06-22T21:11:10Z</time>
      </trkpt>
      <trkpt lat="50.92893" lon="1.8396">
        <ele>0.4</ele>
        <time>2020-06-22T21:11:11Z</time>
      </trkpt>
      <trkpt lat="50.92897" lon="1.83967">
        <ele>0.4</ele>
        <time>2020-06-22T21:11:12Z</time>
      </trkpt>
      <trkpt lat="50.92899" lon="1.83972">
        <ele>0.4</ele>
        <time>2020-06-22T21:11:13Z</time>
      </trkpt>
      <trkpt lat="50.92903" lon="1.83979">
        <ele>0.4</ele>
        <time>2020-06-22T21:11:14Z</time>
      </trkpt>
      <trkpt lat="50.92905" lon="1.83983">
        <ele>0.4</ele>
        <time>2020-06-22T21:11:15Z</time>
      </trkpt>
      <trkpt lat="50.92907" lon="1.83989">
        <ele>0.4</ele>
        <time>2020-06-22T21:11:16Z</time>
      </trkpt>
      <trkpt lat="50.92911" lon="1.83993">
        <ele>0.4</ele>
        <time>2020-06-22T21:11:17Z</time>
      </trkpt>
      <trkpt lat="50.92914" lon="1.83999">
        <ele>0.5</ele>
        <time>2020-06-22T21:11:18Z</time>
      </trkpt>
      <trkpt lat="50.92919" lon="1.84008">
        <ele>0.5</ele>
        <time>2020-06-22T21:11:19Z</time>
      </trkpt>
      <trkpt lat="50.92922" lon="1.84014">
        <ele>0.5</ele>
        <time>2020-06-22T21:11:20Z</time>
      </trkpt>
      <trkpt lat="50.92925" lon="1.84021">
        <ele>0.5</ele>
        <time>2020-06-22T21:11:21Z</time>
      </trkpt>
      <trkpt lat="50.92929" lon="1.84028">
        <ele>0.5</ele>
        <time>2020-06-22T21:11:22Z</time>
      </trkpt>
      <trkpt lat="50.92932" lon="1.84034">
        <ele>0.5</ele>
        <time>2020-06-22T21:11:23Z</time>
      </trkpt>
      <trkpt lat="50.92935" lon="1.84041">
        <ele>0.6</ele>
        <time>2020-06-22T21:11:24Z</time>
      </trkpt>
      <trkpt lat="50.92939" lon="1.84048">
        <ele>0.6</ele>
        <time>2020-06-22T21:11:25Z</time>
      </trkpt>
      <trkpt lat="50.92942" lon="1.84052">
        <ele>0.6</ele>
        <time>2020-06-22T21:11:26Z</time>
      </trkpt>
      <trkpt lat="50.92945" lon="1.84059">
        <ele>0.7</ele>
        <time>2020-06-22T21:11:27Z</time>
      </trkpt>
      <trkpt lat="50.92949" lon="1.84066">
        <ele>0.8</ele>
        <time>2020-06-22T21:11:28Z</time>
      </trkpt>
      <trkpt lat="50.92952" lon="1.84073">
        <ele>0.8</ele>
        <time>2020-06-22T21:11:29Z</time>
      </trkpt>
      <trkpt lat="50.92956" lon="1.84079">
        <ele>0.9</ele>
        <time>2020-06-22T21:11:30Z</time>
      </trkpt>
      <trkpt lat="50.92959" lon="1.84086">
        <ele>1</ele>
        <time>2020-06-22T21:11:31Z</time>
      </trkpt>
      <trkpt lat="50.92962" lon="1.84094">
        <ele>1.1</ele>
        <time>2020-06-22T21:11:32Z</time>
      </trkpt>
      <trkpt lat="50.92965" lon="1.84101">
        <ele>1.2</ele>
        <time>2020-06-22T21:11:33Z</time>
      </trkpt>
      <trkpt lat="50.92968" lon="1.84107">
        <ele>1.4</ele>
        <time>2020-06-22T21:11:34Z</time>
      </trkpt>
      <trkpt lat="50.92971" lon="1.84113">
        <ele>1.5</ele>
        <time>2020-06-22T21:11:35Z</time>
      </trkpt>
      <trkpt lat="50.92974" lon="1.84119">
        <ele>1.7</ele>
        <time>2020-06-22T21:11:36Z</time>
      </trkpt>
      <trkpt lat="50.92977" lon="1.84125">
        <ele>1.7</ele>
        <time>2020-06-22T21:11:37Z</time>
      </trkpt>
      <trkpt lat="50.9298" lon="1.84131">
        <ele>1.7</ele>
        <time>2020-06-22T21:11:38Z</time>
      </trkpt>
      <trkpt lat="50.92983" lon="1.84138">
        <ele>1.7</ele>
        <time>2020-06-22T21:11:39Z</time>
      </trkpt>
      <trkpt lat="50.92986" lon="1.84144">
        <ele>1.6</ele>
        <time>2020-06-22T21:11:40Z</time>
      </trkpt>
      <trkpt lat="50.9299" lon="1.84151">
        <ele>1.5</ele>
        <time>2020-06-22T21:11:41Z</time>
      </trkpt>
      <trkpt lat="50.92992" lon="1.84157">
        <ele>1.5</ele>
        <time>2020-06-22T21:11:42Z</time>
      </trkpt>
      <trkpt lat="50.92995" lon="1.84164">
        <ele>1.3</ele>
        <time>2020-06-22T21:11:43Z</time>
      </trkpt>
      <trkpt lat="50.92997" lon="1.8417">
        <ele>1.3</ele>
        <time>2020-06-22T21:11:44Z</time>
      </trkpt>
      <trkpt lat="50.93001" lon="1.84176">
        <ele>1.2</ele>
        <time>2020-06-22T21:11:45Z</time>
      </trkpt>
      <trkpt lat="50.93004" lon="1.84181">
        <ele>1.2</ele>
        <time>2020-06-22T21:11:46Z</time>
      </trkpt>
      <trkpt lat="50.93007" lon="1.84188">
        <ele>1.2</ele>
        <time>2020-06-22T21:11:47Z</time>
      </trkpt>
      <trkpt lat="50.9301" lon="1.84195">
        <ele>1.2</ele>
        <time>2020-06-22T21:11:48Z</time>
      </trkpt>
      <trkpt lat="50.93014" lon="1.84202">
        <ele>1.2</ele>
        <time>2020-06-22T21:11:49Z</time>
      </trkpt>
      <trkpt lat="50.93017" lon="1.8421">
        <ele>1.1</ele>
        <time>2020-06-22T21:11:50Z</time>
      </trkpt>
      <trkpt lat="50.93019" lon="1.84217">
        <ele>1.1</ele>
        <time>2020-06-22T21:11:51Z</time>
      </trkpt>
      <trkpt lat="50.93022" lon="1.84225">
        <ele>1.1</ele>
        <time>2020-06-22T21:11:52Z</time>
      </trkpt>
      <trkpt lat="50.93025" lon="1.84232">
        <ele>1.2</ele>
        <time>2020-06-22T21:11:53Z</time>
      </trkpt>
      <trkpt lat="50.93027" lon="1.84239">
        <ele>1.2</ele>
        <time>2020-06-22T21:11:54Z</time>
      </trkpt>
      <trkpt lat="50.9303" lon="1.84247">
        <ele>1.2</ele>
        <time>2020-06-22T21:11:55Z</time>
      </trkpt>
      <trkpt lat="50.93032" lon="1.84255">
        <ele>1.1</ele>
        <time>2020-06-22T21:11:56Z</time>
      </trkpt>
      <trkpt lat="50.93035" lon="1.84263">
        <ele>1.1</ele>
        <time>2020-06-22T21:11:57Z</time>
      </trkpt>
      <trkpt lat="50.93036" lon="1.84271">
        <ele>1.1</ele>
        <time>2020-06-22T21:11:58Z</time>
      </trkpt>
      <trkpt lat="50.93038" lon="1.84279">
        <ele>1.1</ele>
        <time>2020-06-22T21:11:59Z</time>
      </trkpt>
      <trkpt lat="50.93041" lon="1.84287">
        <ele>1</ele>
        <time>2020-06-22T21:12:00Z</time>
      </trkpt>
      <trkpt lat="50.93043" lon="1.84295">
        <ele>1</ele>
        <time>2020-06-22T21:12:01Z</time>
      </trkpt>
      <trkpt lat="50.93045" lon="1.84303">
        <ele>1</ele>
        <time>2020-06-22T21:12:02Z</time>
      </trkpt>
      <trkpt lat="50.93047" lon="1.84312">
        <ele>0.9</ele>
        <time>2020-06-22T21:12:03Z</time>
      </trkpt>
      <trkpt lat="50.93049" lon="1.8432">
        <ele>0.9</ele>
        <time>2020-06-22T21:12:04Z</time>
      </trkpt>
      <trkpt lat="50.93051" lon="1.84329">
        <ele>0.9</ele>
        <time>2020-06-22T21:12:05Z</time>
      </trkpt>
      <trkpt lat="50.93053" lon="1.84338">
        <ele>0.9</ele>
        <time>2020-06-22T21:12:06Z</time>
      </trkpt>
      <trkpt lat="50.93055" lon="1.84346">
        <ele>0.9</ele>
        <time>2020-06-22T21:12:07Z</time>
      </trkpt>
      <trkpt lat="50.93057" lon="1.84355">
        <ele>0.9</ele>
        <time>2020-06-22T21:12:08Z</time>
      </trkpt>
      <trkpt lat="50.93059" lon="1.84364">
        <ele>0.9</ele>
        <time>2020-06-22T21:12:09Z</time>
      </trkpt>
      <trkpt lat="50.93062" lon="1.84375">
        <ele>1</ele>
        <time>2020-06-22T21:12:10Z</time>
      </trkpt>
      <trkpt lat="50.93063" lon="1.84384">
        <ele>1</ele>
        <time>2020-06-22T21:12:11Z</time>
      </trkpt>
      <trkpt lat="50.93064" lon="1.84393">
        <ele>1</ele>
        <time>2020-06-22T21:12:12Z</time>
      </trkpt>
      <trkpt lat="50.93066" lon="1.84403">
        <ele>1</ele>
        <time>2020-06-22T21:12:13Z</time>
      </trkpt>
      <trkpt lat="50.93067" lon="1.8441">
        <ele>1</ele>
        <time>2020-06-22T21:12:14Z</time>
      </trkpt>
      <trkpt lat="50.93068" lon="1.84416">
        <ele>1</ele>
        <time>2020-06-22T21:12:15Z</time>
      </trkpt>
      <trkpt lat="50.93069" lon="1.84423">
        <ele>1</ele>
        <time>2020-06-22T21:12:16Z</time>
      </trkpt>
      <trkpt lat="50.9307" lon="1.84431">
        <ele>1</ele>
        <time>2020-06-22T21:12:17Z</time>
      </trkpt>
      <trkpt lat="50.93072" lon="1.84442">
        <ele>1</ele>
        <time>2020-06-22T21:12:18Z</time>
      </trkpt>
      <trkpt lat="50.93073" lon="1.84452">
        <ele>1</ele>
        <time>2020-06-22T21:12:19Z</time>
      </trkpt>
      <trkpt lat="50.93075" lon="1.8446">
        <ele>1</ele>
        <time>2020-06-22T21:12:20Z</time>
      </trkpt>
      <trkpt lat="50.93079" lon="1.84466">
        <ele>1</ele>
        <time>2020-06-22T21:12:21Z</time>
      </trkpt>
      <trkpt lat="50.9308" lon="1.84472">
        <ele>1</ele>
        <time>2020-06-22T21:12:22Z</time>
      </trkpt>
      <trkpt lat="50.93082" lon="1.84482">
        <ele>1</ele>
        <time>2020-06-22T21:12:23Z</time>
      </trkpt>
      <trkpt lat="50.93084" lon="1.8449">
        <ele>0.9</ele>
        <time>2020-06-22T21:12:24Z</time>
      </trkpt>
      <trkpt lat="50.93086" lon="1.84499">
        <ele>0.9</ele>
        <time>2020-06-22T21:12:25Z</time>
      </trkpt>
      <trkpt lat="50.93089" lon="1.84507">
        <ele>0.9</ele>
        <time>2020-06-22T21:12:26Z</time>
      </trkpt>
      <trkpt lat="50.93091" lon="1.84515">
        <ele>0.9</ele>
        <time>2020-06-22T21:12:27Z</time>
      </trkpt>
      <trkpt lat="50.93094" lon="1.84522">
        <ele>0.9</ele>
        <time>2020-06-22T21:12:28Z</time>
      </trkpt>
      <trkpt lat="50.93096" lon="1.84529">
        <ele>0.9</ele>
        <time>2020-06-22T21:12:29Z</time>
      </trkpt>
      <trkpt lat="50.93099" lon="1.84535">
        <ele>1</ele>
        <time>2020-06-22T21:12:30Z</time>
      </trkpt>
      <trkpt lat="50.93103" lon="1.84542">
        <ele>1</ele>
        <time>2020-06-22T21:12:31Z</time>
      </trkpt>
      <trkpt lat="50.93107" lon="1.8455">
        <ele>1.1</ele>
        <time>2020-06-22T21:12:32Z</time>
      </trkpt>
      <trkpt lat="50.9311" lon="1.84557">
        <ele>1.1</ele>
        <time>2020-06-22T21:12:33Z</time>
      </trkpt>
      <trkpt lat="50.93113" lon="1.84562">
        <ele>1.2</ele>
        <time>2020-06-22T21:12:34Z</time>
      </trkpt>
      <trkpt lat="50.93115" lon="1.84568">
        <ele>1</ele>
        <time>2020-06-22T21:12:35Z</time>
      </trkpt>
      <trkpt lat="50.93119" lon="1.84576">
        <ele>0.9</ele>
        <time>2020-06-22T21:12:36Z</time>
      </trkpt>
      <trkpt lat="50.93123" lon="1.84584">
        <ele>0.9</ele>
        <time>2020-06-22T21:12:37Z</time>
      </trkpt>
      <trkpt lat="50.93128" lon="1.84592">
        <ele>0.9</ele>
        <time>2020-06-22T21:12:38Z</time>
      </trkpt>
      <trkpt lat="50.93132" lon="1.84598">
        <ele>0.9</ele>
        <time>2020-06-22T21:12:39Z</time>
      </trkpt>
      <trkpt lat="50.93135" lon="1.84605">
        <ele>0.9</ele>
        <time>2020-06-22T21:12:40Z</time>
      </trkpt>
      <trkpt lat="50.93138" lon="1.84612">
        <ele>0.9</ele>
        <time>2020-06-22T21:12:41Z</time>
      </trkpt>
      <trkpt lat="50.93141" lon="1.84617">
        <ele>0.9</ele>
        <time>2020-06-22T21:12:42Z</time>
      </trkpt>
      <trkpt lat="50.93143" lon="1.84621">
        <ele>0.9</ele>
        <time>2020-06-22T21:12:43Z</time>
      </trkpt>
      <trkpt lat="50.93145" lon="1.84627">
        <ele>0.8</ele>
        <time>2020-06-22T21:12:44Z</time>
      </trkpt>
      <trkpt lat="50.93148" lon="1.84635">
        <ele>0.8</ele>
        <time>2020-06-22T21:12:45Z</time>
      </trkpt>
      <trkpt lat="50.93151" lon="1.8464">
        <ele>0.8</ele>
        <time>2020-06-22T21:12:46Z</time>
      </trkpt>
      <trkpt lat="50.93155" lon="1.84647">
        <ele>0.8</ele>
        <time>2020-06-22T21:12:47Z</time>
      </trkpt>
      <trkpt lat="50.93159" lon="1.84656">
        <ele>0.8</ele>
        <time>2020-06-22T21:12:48Z</time>
      </trkpt>
      <trkpt lat="50.93163" lon="1.84662">
        <ele>0.8</ele>
        <time>2020-06-22T21:12:49Z</time>
      </trkpt>
      <trkpt lat="50.93165" lon="1.84668">
        <ele>0.8</ele>
        <time>2020-06-22T21:12:50Z</time>
      </trkpt>
      <trkpt lat="50.93168" lon="1.84673">
        <ele>0.8</ele>
        <time>2020-06-22T21:12:51Z</time>
      </trkpt>
      <trkpt lat="50.93172" lon="1.84681">
        <ele>0.8</ele>
        <time>2020-06-22T21:12:52Z</time>
      </trkpt>
      <trkpt lat="50.93176" lon="1.84687">
        <ele>0.8</ele>
        <time>2020-06-22T21:12:53Z</time>
      </trkpt>
      <trkpt lat="50.93179" lon="1.84695">
        <ele>0.9</ele>
        <time>2020-06-22T21:12:54Z</time>
      </trkpt>
      <trkpt lat="50.93182" lon="1.84702">
        <ele>0.9</ele>
        <time>2020-06-22T21:12:55Z</time>
      </trkpt>
      <trkpt lat="50.93186" lon="1.84708">
        <ele>0.9</ele>
        <time>2020-06-22T21:12:56Z</time>
      </trkpt>
      <trkpt lat="50.93189" lon="1.84715">
        <ele>0.9</ele>
        <time>2020-06-22T21:12:57Z</time>
      </trkpt>
      <trkpt lat="50.93191" lon="1.8472">
        <ele>0.9</ele>
        <time>2020-06-22T21:12:58Z</time>
      </trkpt>
      <trkpt lat="50.93196" lon="1.84726">
        <ele>0.9</ele>
        <time>2020-06-22T21:12:59Z</time>
      </trkpt>
      <trkpt lat="50.93199" lon="1.84733">
        <ele>0.9</ele>
        <time>2020-06-22T21:13:00Z</time>
      </trkpt>
      <trkpt lat="50.93203" lon="1.84739">
        <ele>0.9</ele>
        <time>2020-06-22T21:13:01Z</time>
      </trkpt>
      <trkpt lat="50.93206" lon="1.84744">
        <ele>0.9</ele>
        <time>2020-06-22T21:13:02Z</time>
      </trkpt>
      <trkpt lat="50.93209" lon="1.84749">
        <ele>0.9</ele>
        <time>2020-06-22T21:13:03Z</time>
      </trkpt>
      <trkpt lat="50.93213" lon="1.84756">
        <ele>1</ele>
        <time>2020-06-22T21:13:04Z</time>
      </trkpt>
      <trkpt lat="50.93216" lon="1.84762">
        <ele>1</ele>
        <time>2020-06-22T21:13:05Z</time>
      </trkpt>
      <trkpt lat="50.93219" lon="1.84767">
        <ele>1</ele>
        <time>2020-06-22T21:13:06Z</time>
      </trkpt>
      <trkpt lat="50.93224" lon="1.84772">
        <ele>1</ele>
        <time>2020-06-22T21:13:07Z</time>
      </trkpt>
      <trkpt lat="50.93228" lon="1.84778">
        <ele>1</ele>
        <time>2020-06-22T21:13:08Z</time>
      </trkpt>
      <trkpt lat="50.93232" lon="1.84785">
        <ele>1</ele>
        <time>2020-06-22T21:13:09Z</time>
      </trkpt>
      <trkpt lat="50.93236" lon="1.84792">
        <ele>1</ele>
        <time>2020-06-22T21:13:10Z</time>
      </trkpt>
      <trkpt lat="50.93238" lon="1.84798">
        <ele>1</ele>
        <time>2020-06-22T21:13:11Z</time>
      </trkpt>
      <trkpt lat="50.93242" lon="1.84803">
        <ele>1</ele>
        <time>2020-06-22T21:13:12Z</time>
      </trkpt>
      <trkpt lat="50.93245" lon="1.84808">
        <ele>1.1</ele>
        <time>2020-06-22T21:13:13Z</time>
      </trkpt>
      <trkpt lat="50.93249" lon="1.84813">
        <ele>1.1</ele>
        <time>2020-06-22T21:13:14Z</time>
      </trkpt>
      <trkpt lat="50.93252" lon="1.84817">
        <ele>1.1</ele>
        <time>2020-06-22T21:13:15Z</time>
      </trkpt>
      <trkpt lat="50.93256" lon="1.84823">
        <ele>1.1</ele>
        <time>2020-06-22T21:13:16Z</time>
      </trkpt>
      <trkpt lat="50.9326" lon="1.84828">
        <ele>1.1</ele>
        <time>2020-06-22T21:13:17Z</time>
      </trkpt>
      <trkpt lat="50.93264" lon="1.84834">
        <ele>1.1</ele>
        <time>2020-06-22T21:13:18Z</time>
      </trkpt>
      <trkpt lat="50.93269" lon="1.8484">
        <ele>1.1</ele>
        <time>2020-06-22T21:13:19Z</time>
      </trkpt>
      <trkpt lat="50.93274" lon="1.84845">
        <ele>1.1</ele>
        <time>2020-06-22T21:13:20Z</time>
      </trkpt>
      <trkpt lat="50.93278" lon="1.8485">
        <ele>1.1</ele>
        <time>2020-06-22T21:13:21Z</time>
      </trkpt>
      <trkpt lat="50.93283" lon="1.84853">
        <ele>1</ele>
        <time>2020-06-22T21:13:22Z</time>
      </trkpt>
      <trkpt lat="50.93287" lon="1.84857">
        <ele>1</ele>
        <time>2020-06-22T21:13:23Z</time>
      </trkpt>
      <trkpt lat="50.93292" lon="1.84862">
        <ele>1</ele>
        <time>2020-06-22T21:13:24Z</time>
      </trkpt>
      <trkpt lat="50.93295" lon="1.84866">
        <ele>1</ele>
        <time>2020-06-22T21:13:25Z</time>
      </trkpt>
      <trkpt lat="50.93299" lon="1.84871">
        <ele>1</ele>
        <time>2020-06-22T21:13:26Z</time>
      </trkpt>
      <trkpt lat="50.93303" lon="1.84875">
        <ele>0.9</ele>
        <time>2020-06-22T21:13:27Z</time>
      </trkpt>
      <trkpt lat="50.93307" lon="1.8488">
        <ele>0.9</ele>
        <time>2020-06-22T21:13:28Z</time>
      </trkpt>
      <trkpt lat="50.93313" lon="1.84886">
        <ele>0.9</ele>
        <time>2020-06-22T21:13:29Z</time>
      </trkpt>
      <trkpt lat="50.93317" lon="1.8489">
        <ele>0.9</ele>
        <time>2020-06-22T21:13:30Z</time>
      </trkpt>
      <trkpt lat="50.93322" lon="1.84894">
        <ele>1</ele>
        <time>2020-06-22T21:13:31Z</time>
      </trkpt>
      <trkpt lat="50.93328" lon="1.84897">
        <ele>1</ele>
        <time>2020-06-22T21:13:32Z</time>
      </trkpt>
      <trkpt lat="50.93331" lon="1.84902">
        <ele>1</ele>
        <time>2020-06-22T21:13:33Z</time>
      </trkpt>
      <trkpt lat="50.93337" lon="1.84906">
        <ele>1</ele>
        <time>2020-06-22T21:13:34Z</time>
      </trkpt>
      <trkpt lat="50.93342" lon="1.8491">
        <ele>1.1</ele>
        <time>2020-06-22T21:13:35Z</time>
      </trkpt>
      <trkpt lat="50.93347" lon="1.84914">
        <ele>1.1</ele>
        <time>2020-06-22T21:13:36Z</time>
      </trkpt>
      <trkpt lat="50.93351" lon="1.84917">
        <ele>1.1</ele>
        <time>2020-06-22T21:13:37Z</time>
      </trkpt>
      <trkpt lat="50.93356" lon="1.84921">
        <ele>1.1</ele>
        <time>2020-06-22T21:13:38Z</time>
      </trkpt>
      <trkpt lat="50.93361" lon="1.84924">
        <ele>1.1</ele>
        <time>2020-06-22T21:13:39Z</time>
      </trkpt>
      <trkpt lat="50.93364" lon="1.84928">
        <ele>1.1</ele>
        <time>2020-06-22T21:13:40Z</time>
      </trkpt>
      <trkpt lat="50.9337" lon="1.84933">
        <ele>1.1</ele>
        <time>2020-06-22T21:13:41Z</time>
      </trkpt>
      <trkpt lat="50.93374" lon="1.84937">
        <ele>1.2</ele>
        <time>2020-06-22T21:13:42Z</time>
      </trkpt>
      <trkpt lat="50.93379" lon="1.84941">
        <ele>1.2</ele>
        <time>2020-06-22T21:13:43Z</time>
      </trkpt>
      <trkpt lat="50.93383" lon="1.84945">
        <ele>1.2</ele>
        <time>2020-06-22T21:13:44Z</time>
      </trkpt>
      <trkpt lat="50.93387" lon="1.84949">
        <ele>1.3</ele>
        <time>2020-06-22T21:13:45Z</time>
      </trkpt>
      <trkpt lat="50.93392" lon="1.84954">
        <ele>1.3</ele>
        <time>2020-06-22T21:13:46Z</time>
      </trkpt>
      <trkpt lat="50.93397" lon="1.84959">
        <ele>1.3</ele>
        <time>2020-06-22T21:13:47Z</time>
      </trkpt>
      <trkpt lat="50.93402" lon="1.84963">
        <ele>1.4</ele>
        <time>2020-06-22T21:13:48Z</time>
      </trkpt>
      <trkpt lat="50.93406" lon="1.84967">
        <ele>1.4</ele>
        <time>2020-06-22T21:13:49Z</time>
      </trkpt>
      <trkpt lat="50.9341" lon="1.8497">
        <ele>1.4</ele>
        <time>2020-06-22T21:13:50Z</time>
      </trkpt>
      <trkpt lat="50.93415" lon="1.84972">
        <ele>1.4</ele>
        <time>2020-06-22T21:13:51Z</time>
      </trkpt>
      <trkpt lat="50.93419" lon="1.84975">
        <ele>1.4</ele>
        <time>2020-06-22T21:13:52Z</time>
      </trkpt>
      <trkpt lat="50.93423" lon="1.84978">
        <ele>1.4</ele>
        <time>2020-06-22T21:13:53Z</time>
      </trkpt>
      <trkpt lat="50.93427" lon="1.84981">
        <ele>1.4</ele>
        <time>2020-06-22T21:13:54Z</time>
      </trkpt>
      <trkpt lat="50.93431" lon="1.84985">
        <ele>1.4</ele>
        <time>2020-06-22T21:13:55Z</time>
      </trkpt>
      <trkpt lat="50.93435" lon="1.84988">
        <ele>1.4</ele>
        <time>2020-06-22T21:13:56Z</time>
      </trkpt>
      <trkpt lat="50.93439" lon="1.84993">
        <ele>1.4</ele>
        <time>2020-06-22T21:13:57Z</time>
      </trkpt>
      <trkpt lat="50.93443" lon="1.84997">
        <ele>1.4</ele>
        <time>2020-06-22T21:13:58Z</time>
      </trkpt>
      <trkpt lat="50.93446" lon="1.85001">
        <ele>1.4</ele>
        <time>2020-06-22T21:13:59Z</time>
      </trkpt>
      <trkpt lat="50.9345" lon="1.85004">
        <ele>1.4</ele>
        <time>2020-06-22T21:14:00Z</time>
      </trkpt>
      <trkpt lat="50.93452" lon="1.85006">
        <ele>1.4</ele>
        <time>2020-06-22T21:14:01Z</time>
      </trkpt>
      <trkpt lat="50.93457" lon="1.8501">
        <ele>1.4</ele>
        <time>2020-06-22T21:14:02Z</time>
      </trkpt>
      <trkpt lat="50.93461" lon="1.85012">
        <ele>1.4</ele>
        <time>2020-06-22T21:14:03Z</time>
      </trkpt>
      <trkpt lat="50.93466" lon="1.85016">
        <ele>1.4</ele>
        <time>2020-06-22T21:14:04Z</time>
      </trkpt>
      <trkpt lat="50.93469" lon="1.8502">
        <ele>1.4</ele>
        <time>2020-06-22T21:14:05Z</time>
      </trkpt>
      <trkpt lat="50.93472" lon="1.85022">
        <ele>1.4</ele>
        <time>2020-06-22T21:14:06Z</time>
      </trkpt>
      <trkpt lat="50.93476" lon="1.85025">
        <ele>1.5</ele>
        <time>2020-06-22T21:14:07Z</time>
      </trkpt>
      <trkpt lat="50.9348" lon="1.85029">
        <ele>1.5</ele>
        <time>2020-06-22T21:14:08Z</time>
      </trkpt>
      <trkpt lat="50.93484" lon="1.85034">
        <ele>1.5</ele>
        <time>2020-06-22T21:14:09Z</time>
      </trkpt>
      <trkpt lat="50.93488" lon="1.85037">
        <ele>1.5</ele>
        <time>2020-06-22T21:14:10Z</time>
      </trkpt>
      <trkpt lat="50.93493" lon="1.8504">
        <ele>1.5</ele>
        <time>2020-06-22T21:14:11Z</time>
      </trkpt>
      <trkpt lat="50.93498" lon="1.85041">
        <ele>1.6</ele>
        <time>2020-06-22T21:14:12Z</time>
      </trkpt>
      <trkpt lat="50.93503" lon="1.8504">
        <ele>1.5</ele>
        <time>2020-06-22T21:14:13Z</time>
      </trkpt>
      <trkpt lat="50.93505" lon="1.8504">
        <ele>1.5</ele>
        <time>2020-06-22T21:14:14Z</time>
      </trkpt>
      <trkpt lat="50.93509" lon="1.8504">
        <ele>1.5</ele>
        <time>2020-06-22T21:14:15Z</time>
      </trkpt>
      <trkpt lat="50.93514" lon="1.85039">
        <ele>1.5</ele>
        <time>2020-06-22T21:14:16Z</time>
      </trkpt>
      <trkpt lat="50.93517" lon="1.85038">
        <ele>1.4</ele>
        <time>2020-06-22T21:14:17Z</time>
      </trkpt>
      <trkpt lat="50.9352" lon="1.85037">
        <ele>1.4</ele>
        <time>2020-06-22T21:14:18Z</time>
      </trkpt>
      <trkpt lat="50.93523" lon="1.85037">
        <ele>1.4</ele>
        <time>2020-06-22T21:14:19Z</time>
      </trkpt>
      <trkpt lat="50.93526" lon="1.85038">
        <ele>1.4</ele>
        <time>2020-06-22T21:14:20Z</time>
      </trkpt>
      <trkpt lat="50.93529" lon="1.85043">
        <ele>1.4</ele>
        <time>2020-06-22T21:14:21Z</time>
      </trkpt>
      <trkpt lat="50.93531" lon="1.85052">
        <ele>1.3</ele>
        <time>2020-06-22T21:14:22Z</time>
      </trkpt>
      <trkpt lat="50.93531" lon="1.85058">
        <ele>1.3</ele>
        <time>2020-06-22T21:14:23Z</time>
      </trkpt>
      <trkpt lat="50.93533" lon="1.85067">
        <ele>1.3</ele>
        <time>2020-06-22T21:14:24Z</time>
      </trkpt>
      <trkpt lat="50.93534" lon="1.85072">
        <ele>1.3</ele>
        <time>2020-06-22T21:14:25Z</time>
      </trkpt>
      <trkpt lat="50.93535" lon="1.85079">
        <ele>1.3</ele>
        <time>2020-06-22T21:14:26Z</time>
      </trkpt>
      <trkpt lat="50.93536" lon="1.85086">
        <ele>1.3</ele>
        <time>2020-06-22T21:14:27Z</time>
      </trkpt>
      <trkpt lat="50.93537" lon="1.85092">
        <ele>1.3</ele>
        <time>2020-06-22T21:14:28Z</time>
      </trkpt>
      <trkpt lat="50.93537" lon="1.85098">
        <ele>1.3</ele>
        <time>2020-06-22T21:14:29Z</time>
      </trkpt>
      <trkpt lat="50.93538" lon="1.85103">
        <ele>1.3</ele>
        <time>2020-06-22T21:14:30Z</time>
      </trkpt>
      <trkpt lat="50.93539" lon="1.85107">
        <ele>1.3</ele>
        <time>2020-06-22T21:14:31Z</time>
      </trkpt>
      <trkpt lat="50.9354" lon="1.85113">
        <ele>1.4</ele>
        <time>2020-06-22T21:14:32Z</time>
      </trkpt>
      <trkpt lat="50.93539" lon="1.85119">
        <ele>1.4</ele>
        <time>2020-06-22T21:14:33Z</time>
      </trkpt>
      <trkpt lat="50.93539" lon="1.85123">
        <ele>1.4</ele>
        <time>2020-06-22T21:14:34Z</time>
      </trkpt>
      <trkpt lat="50.93538" lon="1.85129">
        <ele>1.5</ele>
        <time>2020-06-22T21:14:35Z</time>
      </trkpt>
      <trkpt lat="50.93537" lon="1.85131">
        <ele>1.5</ele>
        <time>2020-06-22T21:14:36Z</time>
      </trkpt>
      <trkpt lat="50.93535" lon="1.85135">
        <ele>1.5</ele>
        <time>2020-06-22T21:14:37Z</time>
      </trkpt>
      <trkpt lat="50.93535" lon="1.85137">
        <ele>1.5</ele>
        <time>2020-06-22T21:14:38Z</time>
      </trkpt>
      <trkpt lat="50.93534" lon="1.85142">
        <ele>1.5</ele>
        <time>2020-06-22T21:14:39Z</time>
      </trkpt>
      <trkpt lat="50.93533" lon="1.85146">
        <ele>1.6</ele>
        <time>2020-06-22T21:14:40Z</time>
      </trkpt>
      <trkpt lat="50.93532" lon="1.85151">
        <ele>1.6</ele>
        <time>2020-06-22T21:14:41Z</time>
      </trkpt>
      <trkpt lat="50.93532" lon="1.85156">
        <ele>1.6</ele>
        <time>2020-06-22T21:14:42Z</time>
      </trkpt>
      <trkpt lat="50.93531" lon="1.85158">
        <ele>1.6</ele>
        <time>2020-06-22T21:14:43Z</time>
      </trkpt>
      <trkpt lat="50.9353" lon="1.85162">
        <ele>1.7</ele>
        <time>2020-06-22T21:14:44Z</time>
      </trkpt>
      <trkpt lat="50.9353" lon="1.85168">
        <ele>1.7</ele>
        <time>2020-06-22T21:14:45Z</time>
      </trkpt>
      <trkpt lat="50.93529" lon="1.85171">
        <ele>1.7</ele>
        <time>2020-06-22T21:14:46Z</time>
      </trkpt>
      <trkpt lat="50.93528" lon="1.85176">
        <ele>1.7</ele>
        <time>2020-06-22T21:14:47Z</time>
      </trkpt>
      <trkpt lat="50.93527" lon="1.85181">
        <ele>1.7</ele>
        <time>2020-06-22T21:14:48Z</time>
      </trkpt>
      <trkpt lat="50.93525" lon="1.85186">
        <ele>1.8</ele>
        <time>2020-06-22T21:14:49Z</time>
      </trkpt>
      <trkpt lat="50.93523" lon="1.85193">
        <ele>1.8</ele>
        <time>2020-06-22T21:14:50Z</time>
      </trkpt>
      <trkpt lat="50.93522" lon="1.85199">
        <ele>1.8</ele>
        <time>2020-06-22T21:14:51Z</time>
      </trkpt>
      <trkpt lat="50.93521" lon="1.85205">
        <ele>1.8</ele>
        <time>2020-06-22T21:14:52Z</time>
      </trkpt>
      <trkpt lat="50.9352" lon="1.85211">
        <ele>1.8</ele>
        <time>2020-06-22T21:14:53Z</time>
      </trkpt>
      <trkpt lat="50.93519" lon="1.85218">
        <ele>1.9</ele>
        <time>2020-06-22T21:14:54Z</time>
      </trkpt>
      <trkpt lat="50.93518" lon="1.85224">
        <ele>1.9</ele>
        <time>2020-06-22T21:14:55Z</time>
      </trkpt>
      <trkpt lat="50.93517" lon="1.8523">
        <ele>1.9</ele>
        <time>2020-06-22T21:14:56Z</time>
      </trkpt>
      <trkpt lat="50.93516" lon="1.85236">
        <ele>1.9</ele>
        <time>2020-06-22T21:14:57Z</time>
      </trkpt>
      <trkpt lat="50.93514" lon="1.85243">
        <ele>1.9</ele>
        <time>2020-06-22T21:14:58Z</time>
      </trkpt>
      <trkpt lat="50.93513" lon="1.85249">
        <ele>2</ele>
        <time>2020-06-22T21:14:59Z</time>
      </trkpt>
      <trkpt lat="50.93512" lon="1.85256">
        <ele>2</ele>
        <time>2020-06-22T21:15:00Z</time>
      </trkpt>
      <trkpt lat="50.93511" lon="1.85263">
        <ele>2</ele>
        <time>2020-06-22T21:15:01Z</time>
      </trkpt>
      <trkpt lat="50.9351" lon="1.85269">
        <ele>2</ele>
        <time>2020-06-22T21:15:02Z</time>
      </trkpt>
      <trkpt lat="50.93507" lon="1.85277">
        <ele>2</ele>
        <time>2020-06-22T21:15:03Z</time>
      </trkpt>
      <trkpt lat="50.93506" lon="1.85282">
        <ele>2.1</ele>
        <time>2020-06-22T21:15:04Z</time>
      </trkpt>
      <trkpt lat="50.93505" lon="1.85287">
        <ele>2.1</ele>
        <time>2020-06-22T21:15:05Z</time>
      </trkpt>
      <trkpt lat="50.93504" lon="1.85293">
        <ele>2.1</ele>
        <time>2020-06-22T21:15:06Z</time>
      </trkpt>
      <trkpt lat="50.93503" lon="1.85299">
        <ele>2</ele>
        <time>2020-06-22T21:15:07Z</time>
      </trkpt>
      <trkpt lat="50.93502" lon="1.85304">
        <ele>2</ele>
        <time>2020-06-22T21:15:08Z</time>
      </trkpt>
      <trkpt lat="50.93502" lon="1.8531">
        <ele>2</ele>
        <time>2020-06-22T21:15:09Z</time>
      </trkpt>
      <trkpt lat="50.93502" lon="1.85316">
        <ele>2</ele>
        <time>2020-06-22T21:15:10Z</time>
      </trkpt>
      <trkpt lat="50.935" lon="1.8532">
        <ele>2</ele>
        <time>2020-06-22T21:15:11Z</time>
      </trkpt>
      <trkpt lat="50.93497" lon="1.85326">
        <ele>2</ele>
        <time>2020-06-22T21:15:12Z</time>
      </trkpt>
      <trkpt lat="50.93496" lon="1.85331">
        <ele>2</ele>
        <time>2020-06-22T21:15:13Z</time>
      </trkpt>
      <trkpt lat="50.93496" lon="1.85337">
        <ele>2</ele>
        <time>2020-06-22T21:15:14Z</time>
      </trkpt>
      <trkpt lat="50.93495" lon="1.85343">
        <ele>2</ele>
        <time>2020-06-22T21:15:15Z</time>
      </trkpt>
      <trkpt lat="50.93495" lon="1.85349">
        <ele>2</ele>
        <time>2020-06-22T21:15:16Z</time>
      </trkpt>
      <trkpt lat="50.93494" lon="1.85356">
        <ele>2</ele>
        <time>2020-06-22T21:15:17Z</time>
      </trkpt>
      <trkpt lat="50.93493" lon="1.85361">
        <ele>2</ele>
        <time>2020-06-22T21:15:18Z</time>
      </trkpt>
      <trkpt lat="50.93492" lon="1.85367">
        <ele>2</ele>
        <time>2020-06-22T21:15:19Z</time>
      </trkpt>
      <trkpt lat="50.9349" lon="1.85374">
        <ele>2</ele>
        <time>2020-06-22T21:15:20Z</time>
      </trkpt>
      <trkpt lat="50.93489" lon="1.85381">
        <ele>2</ele>
        <time>2020-06-22T21:15:21Z</time>
      </trkpt>
      <trkpt lat="50.93487" lon="1.85387">
        <ele>2.1</ele>
        <time>2020-06-22T21:15:22Z</time>
      </trkpt>
      <trkpt lat="50.93486" lon="1.85394">
        <ele>2.1</ele>
        <time>2020-06-22T21:15:23Z</time>
      </trkpt>
      <trkpt lat="50.93485" lon="1.85401">
        <ele>2.1</ele>
        <time>2020-06-22T21:15:24Z</time>
      </trkpt>
      <trkpt lat="50.93484" lon="1.85407">
        <ele>2.1</ele>
        <time>2020-06-22T21:15:25Z</time>
      </trkpt>
      <trkpt lat="50.93483" lon="1.85414">
        <ele>2.1</ele>
        <time>2020-06-22T21:15:26Z</time>
      </trkpt>
      <trkpt lat="50.93481" lon="1.8542">
        <ele>2.1</ele>
        <time>2020-06-22T21:15:27Z</time>
      </trkpt>
      <trkpt lat="50.9348" lon="1.85427">
        <ele>2.1</ele>
        <time>2020-06-22T21:15:28Z</time>
      </trkpt>
      <trkpt lat="50.93479" lon="1.85433">
        <ele>2.1</ele>
        <time>2020-06-22T21:15:29Z</time>
      </trkpt>
      <trkpt lat="50.93479" lon="1.85439">
        <ele>2.1</ele>
        <time>2020-06-22T21:15:30Z</time>
      </trkpt>
      <trkpt lat="50.93478" lon="1.85445">
        <ele>2.1</ele>
        <time>2020-06-22T21:15:31Z</time>
      </trkpt>
      <trkpt lat="50.93477" lon="1.85451">
        <ele>2.2</ele>
        <time>2020-06-22T21:15:32Z</time>
      </trkpt>
      <trkpt lat="50.93477" lon="1.85458">
        <ele>2.2</ele>
        <time>2020-06-22T21:15:33Z</time>
      </trkpt>
      <trkpt lat="50.93476" lon="1.85462">
        <ele>2.2</ele>
        <time>2020-06-22T21:15:34Z</time>
      </trkpt>
      <trkpt lat="50.93472" lon="1.85469">
        <ele>2.1</ele>
        <time>2020-06-22T21:15:35Z</time>
      </trkpt>
      <trkpt lat="50.93471" lon="1.85474">
        <ele>2.1</ele>
        <time>2020-06-22T21:15:36Z</time>
      </trkpt>
      <trkpt lat="50.93471" lon="1.85479">
        <ele>2.1</ele>
        <time>2020-06-22T21:15:37Z</time>
      </trkpt>
      <trkpt lat="50.93474" lon="1.85484">
        <ele>2</ele>
        <time>2020-06-22T21:15:38Z</time>
      </trkpt>
      <trkpt lat="50.93475" lon="1.85486">
        <ele>2</ele>
        <time>2020-06-22T21:15:39Z</time>
      </trkpt>
      <trkpt lat="50.93479" lon="1.85489">
        <ele>2</ele>
        <time>2020-06-22T21:15:40Z</time>
      </trkpt>
      <trkpt lat="50.93484" lon="1.8549">
        <ele>2</ele>
        <time>2020-06-22T21:15:41Z</time>
      </trkpt>
      <trkpt lat="50.93489" lon="1.85487">
        <ele>2.1</ele>
        <time>2020-06-22T21:15:42Z</time>
      </trkpt>
      <trkpt lat="50.93493" lon="1.85481">
        <ele>2.2</ele>
        <time>2020-06-22T21:15:43Z</time>
      </trkpt>
      <trkpt lat="50.93498" lon="1.85477">
        <ele>2.3</ele>
        <time>2020-06-22T21:15:44Z</time>
      </trkpt>
      <trkpt lat="50.93502" lon="1.85473">
        <ele>2.4</ele>
        <time>2020-06-22T21:15:45Z</time>
      </trkpt>
      <trkpt lat="50.93505" lon="1.85471">
        <ele>2.5</ele>
        <time>2020-06-22T21:15:46Z</time>
      </trkpt>
      <trkpt lat="50.9351" lon="1.85467">
        <ele>2.6</ele>
        <time>2020-06-22T21:15:47Z</time>
      </trkpt>
      <trkpt lat="50.93514" lon="1.85463">
        <ele>2.7</ele>
        <time>2020-06-22T21:15:48Z</time>
      </trkpt>
      <trkpt lat="50.93519" lon="1.8546">
        <ele>2.9</ele>
        <time>2020-06-22T21:15:49Z</time>
      </trkpt>
      <trkpt lat="50.93523" lon="1.85456">
        <ele>3.1</ele>
        <time>2020-06-22T21:15:50Z</time>
      </trkpt>
      <trkpt lat="50.93527" lon="1.85451">
        <ele>3.2</ele>
        <time>2020-06-22T21:15:51Z</time>
      </trkpt>
      <trkpt lat="50.93531" lon="1.85447">
        <ele>3.5</ele>
        <time>2020-06-22T21:15:52Z</time>
      </trkpt>
      <trkpt lat="50.93536" lon="1.85442">
        <ele>3.7</ele>
        <time>2020-06-22T21:15:53Z</time>
      </trkpt>
      <trkpt lat="50.9354" lon="1.85437">
        <ele>3.9</ele>
        <time>2020-06-22T21:15:54Z</time>
      </trkpt>
      <trkpt lat="50.93544" lon="1.85434">
        <ele>4.1</ele>
        <time>2020-06-22T21:15:55Z</time>
      </trkpt>
      <trkpt lat="50.9355" lon="1.85429">
        <ele>4.3</ele>
        <time>2020-06-22T21:15:56Z</time>
      </trkpt>
      <trkpt lat="50.93554" lon="1.85425">
        <ele>4.5</ele>
        <time>2020-06-22T21:15:57Z</time>
      </trkpt>
      <trkpt lat="50.93558" lon="1.85421">
        <ele>4.7</ele>
        <time>2020-06-22T21:15:58Z</time>
      </trkpt>
      <trkpt lat="50.93562" lon="1.85416">
        <ele>4.9</ele>
        <time>2020-06-22T21:15:59Z</time>
      </trkpt>
      <trkpt lat="50.93567" lon="1.85412">
        <ele>5.1</ele>
        <time>2020-06-22T21:16:00Z</time>
      </trkpt>
      <trkpt lat="50.93571" lon="1.85408">
        <ele>5.3</ele>
        <time>2020-06-22T21:16:01Z</time>
      </trkpt>
      <trkpt lat="50.93576" lon="1.85404">
        <ele>5.5</ele>
        <time>2020-06-22T21:16:02Z</time>
      </trkpt>
      <trkpt lat="50.9358" lon="1.85399">
        <ele>5.7</ele>
        <time>2020-06-22T21:16:03Z</time>
      </trkpt>
      <trkpt lat="50.93584" lon="1.85394">
        <ele>5.9</ele>
        <time>2020-06-22T21:16:04Z</time>
      </trkpt>
      <trkpt lat="50.93587" lon="1.8539">
        <ele>6.1</ele>
        <time>2020-06-22T21:16:05Z</time>
      </trkpt>
      <trkpt lat="50.93591" lon="1.85385">
        <ele>6.3</ele>
        <time>2020-06-22T21:16:06Z</time>
      </trkpt>
      <trkpt lat="50.93594" lon="1.85379">
        <ele>6.5</ele>
        <time>2020-06-22T21:16:07Z</time>
      </trkpt>
      <trkpt lat="50.93598" lon="1.85374">
        <ele>6.7</ele>
        <time>2020-06-22T21:16:08Z</time>
      </trkpt>
      <trkpt lat="50.93601" lon="1.85369">
        <ele>6.9</ele>
        <time>2020-06-22T21:16:09Z</time>
      </trkpt>
      <trkpt lat="50.93604" lon="1.85365">
        <ele>7</ele>
        <time>2020-06-22T21:16:10Z</time>
      </trkpt>
      <trkpt lat="50.93607" lon="1.8536">
        <ele>7.2</ele>
        <time>2020-06-22T21:16:11Z</time>
      </trkpt>
      <trkpt lat="50.93611" lon="1.85355">
        <ele>7.3</ele>
        <time>2020-06-22T21:16:12Z</time>
      </trkpt>
      <trkpt lat="50.93613" lon="1.85351">
        <ele>7.4</ele>
        <time>2020-06-22T21:16:13Z</time>
      </trkpt>
      <trkpt lat="50.93616" lon="1.85346">
        <ele>7.5</ele>
        <time>2020-06-22T21:16:14Z</time>
      </trkpt>
      <trkpt lat="50.93619" lon="1.85342">
        <ele>7.6</ele>
        <time>2020-06-22T21:16:15Z</time>
      </trkpt>
      <trkpt lat="50.93621" lon="1.85338">
        <ele>7.8</ele>
        <time>2020-06-22T21:16:16Z</time>
      </trkpt>
      <trkpt lat="50.93623" lon="1.85334">
        <ele>7.9</ele>
        <time>2020-06-22T21:16:17Z</time>
      </trkpt>
      <trkpt lat="50.93625" lon="1.85329">
        <ele>8</ele>
        <time>2020-06-22T21:16:18Z</time>
      </trkpt>
      <trkpt lat="50.93625" lon="1.85326">
        <ele>8.1</ele>
        <time>2020-06-22T21:16:19Z</time>
      </trkpt>
      <trkpt lat="50.93627" lon="1.85322">
        <ele>8.2</ele>
        <time>2020-06-22T21:16:20Z</time>
      </trkpt>
      <trkpt lat="50.93629" lon="1.85317">
        <ele>8.3</ele>
        <time>2020-06-22T21:16:21Z</time>
      </trkpt>
      <trkpt lat="50.93631" lon="1.85312">
        <ele>8.4</ele>
        <time>2020-06-22T21:16:22Z</time>
      </trkpt>
      <trkpt lat="50.93632" lon="1.85307">
        <ele>8.4</ele>
        <time>2020-06-22T21:16:23Z</time>
      </trkpt>
      <trkpt lat="50.93634" lon="1.85302">
        <ele>8.5</ele>
        <time>2020-06-22T21:16:24Z</time>
      </trkpt>
      <trkpt lat="50.93636" lon="1.85295">
        <ele>8.6</ele>
        <time>2020-06-22T21:16:25Z</time>
      </trkpt>
      <trkpt lat="50.93638" lon="1.8529">
        <ele>8.7</ele>
        <time>2020-06-22T21:16:26Z</time>
      </trkpt>
      <trkpt lat="50.9364" lon="1.85283">
        <ele>9</ele>
        <time>2020-06-22T21:16:27Z</time>
      </trkpt>
      <trkpt lat="50.9364" lon="1.85277">
        <ele>9</ele>
        <time>2020-06-22T21:16:28Z</time>
      </trkpt>
      <trkpt lat="50.93641" lon="1.8527">
        <ele>9.1</ele>
        <time>2020-06-22T21:16:29Z</time>
      </trkpt>
      <trkpt lat="50.93642" lon="1.85263">
        <ele>9.1</ele>
        <time>2020-06-22T21:16:30Z</time>
      </trkpt>
      <trkpt lat="50.93643" lon="1.85256">
        <ele>9.1</ele>
        <time>2020-06-22T21:16:31Z</time>
      </trkpt>
      <trkpt lat="50.93643" lon="1.85249">
        <ele>9</ele>
        <time>2020-06-22T21:16:32Z</time>
      </trkpt>
      <trkpt lat="50.93645" lon="1.85242">
        <ele>9</ele>
        <time>2020-06-22T21:16:33Z</time>
      </trkpt>
      <trkpt lat="50.93645" lon="1.85235">
        <ele>9</ele>
        <time>2020-06-22T21:16:34Z</time>
      </trkpt>
      <trkpt lat="50.93646" lon="1.85228">
        <ele>8.9</ele>
        <time>2020-06-22T21:16:35Z</time>
      </trkpt>
      <trkpt lat="50.93646" lon="1.8522">
        <ele>8.9</ele>
        <time>2020-06-22T21:16:36Z</time>
      </trkpt>
      <trkpt lat="50.93646" lon="1.85213">
        <ele>8.8</ele>
        <time>2020-06-22T21:16:37Z</time>
      </trkpt>
      <trkpt lat="50.93645" lon="1.85204">
        <ele>8.6</ele>
        <time>2020-06-22T21:16:38Z</time>
      </trkpt>
      <trkpt lat="50.93645" lon="1.85196">
        <ele>8.5</ele>
        <time>2020-06-22T21:16:39Z</time>
      </trkpt>
      <trkpt lat="50.93645" lon="1.85187">
        <ele>8.3</ele>
        <time>2020-06-22T21:16:40Z</time>
      </trkpt>
      <trkpt lat="50.93644" lon="1.85178">
        <ele>8</ele>
        <time>2020-06-22T21:16:41Z</time>
      </trkpt>
      <trkpt lat="50.93643" lon="1.85168">
        <ele>7.7</ele>
        <time>2020-06-22T21:16:42Z</time>
      </trkpt>
      <trkpt lat="50.9364" lon="1.85157">
        <ele>7.3</ele>
        <time>2020-06-22T21:16:43Z</time>
      </trkpt>
      <trkpt lat="50.93636" lon="1.85146">
        <ele>6.9</ele>
        <time>2020-06-22T21:16:44Z</time>
      </trkpt>
      <trkpt lat="50.93634" lon="1.85135">
        <ele>6.5</ele>
        <time>2020-06-22T21:16:45Z</time>
      </trkpt>
      <trkpt lat="50.93632" lon="1.85126">
        <ele>6.2</ele>
        <time>2020-06-22T21:16:46Z</time>
      </trkpt>
      <trkpt lat="50.9363" lon="1.85116">
        <ele>5.8</ele>
        <time>2020-06-22T21:16:47Z</time>
      </trkpt>
      <trkpt lat="50.93628" lon="1.85107">
        <ele>5.5</ele>
        <time>2020-06-22T21:16:48Z</time>
      </trkpt>
      <trkpt lat="50.93627" lon="1.85097">
        <ele>5.2</ele>
        <time>2020-06-22T21:16:49Z</time>
      </trkpt>
      <trkpt lat="50.93626" lon="1.85085">
        <ele>4.8</ele>
        <time>2020-06-22T21:16:50Z</time>
      </trkpt>
      <trkpt lat="50.93625" lon="1.85072">
        <ele>4.4</ele>
        <time>2020-06-22T21:16:51Z</time>
      </trkpt>
      <trkpt lat="50.93626" lon="1.85059">
        <ele>4</ele>
        <time>2020-06-22T21:16:52Z</time>
      </trkpt>
      <trkpt lat="50.93629" lon="1.85048">
        <ele>3.6</ele>
        <time>2020-06-22T21:16:53Z</time>
      </trkpt>
      <trkpt lat="50.93634" lon="1.85037">
        <ele>3.2</ele>
        <time>2020-06-22T21:16:54Z</time>
      </trkpt>
      <trkpt lat="50.9364" lon="1.85028">
        <ele>2.9</ele>
        <time>2020-06-22T21:16:55Z</time>
      </trkpt>
      <trkpt lat="50.93647" lon="1.85023">
        <ele>2.7</ele>
        <time>2020-06-22T21:16:56Z</time>
      </trkpt>
      <trkpt lat="50.93654" lon="1.8502">
        <ele>2.4</ele>
        <time>2020-06-22T21:16:57Z</time>
      </trkpt>
      <trkpt lat="50.9366" lon="1.85018">
        <ele>2.3</ele>
        <time>2020-06-22T21:16:58Z</time>
      </trkpt>
      <trkpt lat="50.93666" lon="1.85017">
        <ele>2.1</ele>
        <time>2020-06-22T21:16:59Z</time>
      </trkpt>
      <trkpt lat="50.93674" lon="1.85016">
        <ele>1.8</ele>
        <time>2020-06-22T21:17:00Z</time>
      </trkpt>
      <trkpt lat="50.9368" lon="1.85019">
        <ele>1.7</ele>
        <time>2020-06-22T21:17:01Z</time>
      </trkpt>
      <trkpt lat="50.93685" lon="1.85021">
        <ele>1.6</ele>
        <time>2020-06-22T21:17:02Z</time>
      </trkpt>
      <trkpt lat="50.93691" lon="1.85028">
        <ele>1.6</ele>
        <time>2020-06-22T21:17:03Z</time>
      </trkpt>
      <trkpt lat="50.93694" lon="1.85037">
        <ele>1.6</ele>
        <time>2020-06-22T21:17:04Z</time>
      </trkpt>
      <trkpt lat="50.93697" lon="1.85045">
        <ele>1.7</ele>
        <time>2020-06-22T21:17:05Z</time>
      </trkpt>
      <trkpt lat="50.937" lon="1.85054">
        <ele>1.9</ele>
        <time>2020-06-22T21:17:06Z</time>
      </trkpt>
      <trkpt lat="50.93703" lon="1.85063">
        <ele>2.1</ele>
        <time>2020-06-22T21:17:07Z</time>
      </trkpt>
      <trkpt lat="50.93704" lon="1.85074">
        <ele>2.4</ele>
        <time>2020-06-22T21:17:08Z</time>
      </trkpt>
      <trkpt lat="50.93707" lon="1.85083">
        <ele>2.6</ele>
        <time>2020-06-22T21:17:09Z</time>
      </trkpt>
      <trkpt lat="50.93709" lon="1.85092">
        <ele>2.9</ele>
        <time>2020-06-22T21:17:10Z</time>
      </trkpt>
      <trkpt lat="50.93712" lon="1.851">
        <ele>3.2</ele>
        <time>2020-06-22T21:17:11Z</time>
      </trkpt>
      <trkpt lat="50.93713" lon="1.85109">
        <ele>3.4</ele>
        <time>2020-06-22T21:17:12Z</time>
      </trkpt>
      <trkpt lat="50.93715" lon="1.85117">
        <ele>3.7</ele>
        <time>2020-06-22T21:17:13Z</time>
      </trkpt>
      <trkpt lat="50.93717" lon="1.85125">
        <ele>4</ele>
        <time>2020-06-22T21:17:14Z</time>
      </trkpt>
      <trkpt lat="50.93719" lon="1.85131">
        <ele>4.2</ele>
        <time>2020-06-22T21:17:15Z</time>
      </trkpt>
      <trkpt lat="50.93721" lon="1.85137">
        <ele>4.7</ele>
        <time>2020-06-22T21:17:16Z</time>
      </trkpt>
      <trkpt lat="50.93723" lon="1.85146">
        <ele>5.2</ele>
        <time>2020-06-22T21:17:17Z</time>
      </trkpt>
      <trkpt lat="50.93725" lon="1.85154">
        <ele>5.6</ele>
        <time>2020-06-22T21:17:18Z</time>
      </trkpt>
      <trkpt lat="50.93726" lon="1.85165">
        <ele>6.1</ele>
        <time>2020-06-22T21:17:19Z</time>
      </trkpt>
      <trkpt lat="50.93728" lon="1.85172">
        <ele>6.5</ele>
        <time>2020-06-22T21:17:20Z</time>
      </trkpt>
      <trkpt lat="50.9373" lon="1.85179">
        <ele>6.9</ele>
        <time>2020-06-22T21:17:21Z</time>
      </trkpt>
      <trkpt lat="50.93731" lon="1.85187">
        <ele>7.3</ele>
        <time>2020-06-22T21:17:22Z</time>
      </trkpt>
      <trkpt lat="50.93733" lon="1.85193">
        <ele>7.7</ele>
        <time>2020-06-22T21:17:23Z</time>
      </trkpt>
      <trkpt lat="50.93734" lon="1.85198">
        <ele>8</ele>
        <time>2020-06-22T21:17:24Z</time>
      </trkpt>
      <trkpt lat="50.93735" lon="1.85205">
        <ele>8.3</ele>
        <time>2020-06-22T21:17:25Z</time>
      </trkpt>
      <trkpt lat="50.93736" lon="1.85208">
        <ele>8.5</ele>
        <time>2020-06-22T21:17:26Z</time>
      </trkpt>
      <trkpt lat="50.93737" lon="1.85213">
        <ele>8.7</ele>
        <time>2020-06-22T21:17:27Z</time>
      </trkpt>
      <trkpt lat="50.93737" lon="1.85215">
        <ele>8.7</ele>
        <time>2020-06-22T21:17:28Z</time>
      </trkpt>
      <trkpt lat="50.93737" lon="1.8522">
        <ele>8.7</ele>
        <time>2020-06-22T21:17:29Z</time>
      </trkpt>
      <trkpt lat="50.93738" lon="1.85223">
        <ele>8.7</ele>
        <time>2020-06-22T21:17:30Z</time>
      </trkpt>
      <trkpt lat="50.93738" lon="1.85228">
        <ele>8.6</ele>
        <time>2020-06-22T21:17:31Z</time>
      </trkpt>
      <trkpt lat="50.93738" lon="1.85234">
        <ele>8.6</ele>
        <time>2020-06-22T21:17:32Z</time>
      </trkpt>
      <trkpt lat="50.93739" lon="1.85236">
        <ele>8.6</ele>
        <time>2020-06-22T21:17:33Z</time>
      </trkpt>
      <trkpt lat="50.9374" lon="1.8524">
        <ele>8.6</ele>
        <time>2020-06-22T21:17:34Z</time>
      </trkpt>
      <trkpt lat="50.93741" lon="1.85245">
        <ele>8.6</ele>
        <time>2020-06-22T21:17:35Z</time>
      </trkpt>
      <trkpt lat="50.93742" lon="1.8525">
        <ele>8.6</ele>
        <time>2020-06-22T21:17:36Z</time>
      </trkpt>
      <trkpt lat="50.93742" lon="1.85251">
        <ele>8.6</ele>
        <time>2020-06-22T21:17:37Z</time>
      </trkpt>
      <trkpt lat="50.93743" lon="1.85256">
        <ele>8.6</ele>
        <time>2020-06-22T21:17:38Z</time>
      </trkpt>
      <trkpt lat="50.93744" lon="1.85261">
        <ele>8.6</ele>
        <time>2020-06-22T21:17:39Z</time>
      </trkpt>
      <trkpt lat="50.93745" lon="1.85263">
        <ele>8.6</ele>
        <time>2020-06-22T21:17:40Z</time>
      </trkpt>
      <trkpt lat="50.93746" lon="1.85269">
        <ele>8.6</ele>
        <time>2020-06-22T21:17:41Z</time>
      </trkpt>
      <trkpt lat="50.93746" lon="1.85271">
        <ele>8.6</ele>
        <time>2020-06-22T21:17:42Z</time>
      </trkpt>
      <trkpt lat="50.93746" lon="1.85275">
        <ele>8.5</ele>
        <time>2020-06-22T21:17:43Z</time>
      </trkpt>
      <trkpt lat="50.93746" lon="1.85281">
        <ele>8.5</ele>
        <time>2020-06-22T21:17:44Z</time>
      </trkpt>
      <trkpt lat="50.93747" lon="1.85289">
        <ele>8.4</ele>
        <time>2020-06-22T21:17:45Z</time>
      </trkpt>
      <trkpt lat="50.93747" lon="1.85297">
        <ele>8.2</ele>
        <time>2020-06-22T21:17:46Z</time>
      </trkpt>
      <trkpt lat="50.93747" lon="1.85305">
        <ele>8.1</ele>
        <time>2020-06-22T21:17:47Z</time>
      </trkpt>
      <trkpt lat="50.93748" lon="1.85313">
        <ele>7.9</ele>
        <time>2020-06-22T21:17:48Z</time>
      </trkpt>
      <trkpt lat="50.93749" lon="1.8532">
        <ele>7.7</ele>
        <time>2020-06-22T21:17:49Z</time>
      </trkpt>
      <trkpt lat="50.93751" lon="1.8533">
        <ele>7.4</ele>
        <time>2020-06-22T21:17:50Z</time>
      </trkpt>
      <trkpt lat="50.93752" lon="1.85341">
        <ele>7.1</ele>
        <time>2020-06-22T21:17:51Z</time>
      </trkpt>
      <trkpt lat="50.93754" lon="1.8535">
        <ele>6.8</ele>
        <time>2020-06-22T21:17:52Z</time>
      </trkpt>
      <trkpt lat="50.93756" lon="1.85361">
        <ele>6.4</ele>
        <time>2020-06-22T21:17:53Z</time>
      </trkpt>
      <trkpt lat="50.93757" lon="1.8537">
        <ele>6.1</ele>
        <time>2020-06-22T21:17:54Z</time>
      </trkpt>
      <trkpt lat="50.93758" lon="1.85381">
        <ele>5.8</ele>
        <time>2020-06-22T21:17:55Z</time>
      </trkpt>
      <trkpt lat="50.93759" lon="1.85392">
        <ele>5.4</ele>
        <time>2020-06-22T21:17:56Z</time>
      </trkpt>
      <trkpt lat="50.93761" lon="1.85404">
        <ele>5.2</ele>
        <time>2020-06-22T21:17:57Z</time>
      </trkpt>
      <trkpt lat="50.93761" lon="1.85413">
        <ele>5</ele>
        <time>2020-06-22T21:17:58Z</time>
      </trkpt>
      <trkpt lat="50.93762" lon="1.85423">
        <ele>4.8</ele>
        <time>2020-06-22T21:17:59Z</time>
      </trkpt>
      <trkpt lat="50.93763" lon="1.85433">
        <ele>4.7</ele>
        <time>2020-06-22T21:18:00Z</time>
      </trkpt>
      <trkpt lat="50.93763" lon="1.85442">
        <ele>4.5</ele>
        <time>2020-06-22T21:18:01Z</time>
      </trkpt>
      <trkpt lat="50.93762" lon="1.85451">
        <ele>4.3</ele>
        <time>2020-06-22T21:18:02Z</time>
      </trkpt>
      <trkpt lat="50.93762" lon="1.85458">
        <ele>4.2</ele>
        <time>2020-06-22T21:18:03Z</time>
      </trkpt>
      <trkpt lat="50.93761" lon="1.85466">
        <ele>4</ele>
        <time>2020-06-22T21:18:04Z</time>
      </trkpt>
      <trkpt lat="50.93761" lon="1.85475">
        <ele>3.8</ele>
        <time>2020-06-22T21:18:05Z</time>
      </trkpt>
      <trkpt lat="50.93764" lon="1.85484">
        <ele>3.7</ele>
        <time>2020-06-22T21:18:06Z</time>
      </trkpt>
      <trkpt lat="50.93769" lon="1.85487">
        <ele>3.5</ele>
        <time>2020-06-22T21:18:07Z</time>
      </trkpt>
      <trkpt lat="50.93776" lon="1.85488">
        <ele>3.3</ele>
        <time>2020-06-22T21:18:08Z</time>
      </trkpt>
      <trkpt lat="50.93782" lon="1.85484">
        <ele>3.1</ele>
        <time>2020-06-22T21:18:09Z</time>
      </trkpt>
      <trkpt lat="50.93787" lon="1.85479">
        <ele>3.8</ele>
        <time>2020-06-22T21:18:10Z</time>
      </trkpt>
      <trkpt lat="50.93792" lon="1.85475">
        <ele>3.7</ele>
        <time>2020-06-22T21:18:11Z</time>
      </trkpt>
      <trkpt lat="50.93797" lon="1.85472">
        <ele>3.6</ele>
        <time>2020-06-22T21:18:12Z</time>
      </trkpt>
      <trkpt lat="50.93802" lon="1.85471">
        <ele>3.5</ele>
        <time>2020-06-22T21:18:13Z</time>
      </trkpt>
      <trkpt lat="50.93808" lon="1.8547">
        <ele>3.4</ele>
        <time>2020-06-22T21:18:14Z</time>
      </trkpt>
      <trkpt lat="50.93814" lon="1.8547">
        <ele>3.3</ele>
        <time>2020-06-22T21:18:15Z</time>
      </trkpt>
      <trkpt lat="50.93817" lon="1.8547">
        <ele>3.3</ele>
        <time>2020-06-22T21:18:16Z</time>
      </trkpt>
      <trkpt lat="50.93823" lon="1.8547">
        <ele>3.2</ele>
        <time>2020-06-22T21:18:17Z</time>
      </trkpt>
      <trkpt lat="50.9383" lon="1.85471">
        <ele>3.2</ele>
        <time>2020-06-22T21:18:18Z</time>
      </trkpt>
      <trkpt lat="50.93836" lon="1.85472">
        <ele>3.2</ele>
        <time>2020-06-22T21:18:19Z</time>
      </trkpt>
      <trkpt lat="50.93842" lon="1.85473">
        <ele>3.2</ele>
        <time>2020-06-22T21:18:20Z</time>
      </trkpt>
      <trkpt lat="50.93848" lon="1.85472">
        <ele>3.1</ele>
        <time>2020-06-22T21:18:21Z</time>
      </trkpt>
      <trkpt lat="50.93854" lon="1.85472">
        <ele>3.1</ele>
        <time>2020-06-22T21:18:22Z</time>
      </trkpt>
      <trkpt lat="50.93859" lon="1.85474">
        <ele>3.1</ele>
        <time>2020-06-22T21:18:23Z</time>
      </trkpt>
      <trkpt lat="50.93864" lon="1.85475">
        <ele>3.1</ele>
        <time>2020-06-22T21:18:24Z</time>
      </trkpt>
      <trkpt lat="50.9387" lon="1.85474">
        <ele>3.2</ele>
        <time>2020-06-22T21:18:25Z</time>
      </trkpt>
      <trkpt lat="50.93875" lon="1.85473">
        <ele>3.2</ele>
        <time>2020-06-22T21:18:26Z</time>
      </trkpt>
      <trkpt lat="50.93881" lon="1.85472">
        <ele>3.2</ele>
        <time>2020-06-22T21:18:27Z</time>
      </trkpt>
      <trkpt lat="50.93887" lon="1.85471">
        <ele>3.2</ele>
        <time>2020-06-22T21:18:28Z</time>
      </trkpt>
      <trkpt lat="50.93892" lon="1.85471">
        <ele>3.2</ele>
        <time>2020-06-22T21:18:29Z</time>
      </trkpt>
      <trkpt lat="50.93898" lon="1.8547">
        <ele>3.3</ele>
        <time>2020-06-22T21:18:30Z</time>
      </trkpt>
      <trkpt lat="50.93904" lon="1.85469">
        <ele>3.3</ele>
        <time>2020-06-22T21:18:31Z</time>
      </trkpt>
      <trkpt lat="50.93912" lon="1.8547">
        <ele>3.4</ele>
        <time>2020-06-22T21:18:32Z</time>
      </trkpt>
      <trkpt lat="50.93918" lon="1.8547">
        <ele>3.3</ele>
        <time>2020-06-22T21:18:33Z</time>
      </trkpt>
      <trkpt lat="50.93924" lon="1.85469">
        <ele>3.3</ele>
        <time>2020-06-22T21:18:34Z</time>
      </trkpt>
      <trkpt lat="50.93929" lon="1.85468">
        <ele>3.3</ele>
        <time>2020-06-22T21:18:35Z</time>
      </trkpt>
      <trkpt lat="50.93936" lon="1.85468">
        <ele>3.3</ele>
        <time>2020-06-22T21:18:36Z</time>
      </trkpt>
      <trkpt lat="50.93941" lon="1.85468">
        <ele>3.3</ele>
        <time>2020-06-22T21:18:37Z</time>
      </trkpt>
      <trkpt lat="50.93947" lon="1.85468">
        <ele>3.2</ele>
        <time>2020-06-22T21:18:38Z</time>
      </trkpt>
      <trkpt lat="50.93954" lon="1.85468">
        <ele>3.2</ele>
        <time>2020-06-22T21:18:39Z</time>
      </trkpt>
      <trkpt lat="50.9396" lon="1.85468">
        <ele>3.2</ele>
        <time>2020-06-22T21:18:40Z</time>
      </trkpt>
      <trkpt lat="50.93965" lon="1.85469">
        <ele>3.2</ele>
        <time>2020-06-22T21:18:41Z</time>
      </trkpt>
      <trkpt lat="50.9397" lon="1.85471">
        <ele>3.2</ele>
        <time>2020-06-22T21:18:42Z</time>
      </trkpt>
      <trkpt lat="50.93975" lon="1.85472">
        <ele>3.2</ele>
        <time>2020-06-22T21:18:43Z</time>
      </trkpt>
      <trkpt lat="50.93981" lon="1.85472">
        <ele>3.2</ele>
        <time>2020-06-22T21:18:44Z</time>
      </trkpt>
      <trkpt lat="50.93986" lon="1.85471">
        <ele>3.3</ele>
        <time>2020-06-22T21:18:45Z</time>
      </trkpt>
      <trkpt lat="50.93991" lon="1.85471">
        <ele>3.3</ele>
        <time>2020-06-22T21:18:46Z</time>
      </trkpt>
      <trkpt lat="50.93997" lon="1.8547">
        <ele>3.4</ele>
        <time>2020-06-22T21:18:47Z</time>
      </trkpt>
      <trkpt lat="50.94004" lon="1.85469">
        <ele>3.5</ele>
        <time>2020-06-22T21:18:48Z</time>
      </trkpt>
      <trkpt lat="50.9401" lon="1.85469">
        <ele>3.4</ele>
        <time>2020-06-22T21:18:49Z</time>
      </trkpt>
      <trkpt lat="50.94016" lon="1.85467">
        <ele>3.4</ele>
        <time>2020-06-22T21:18:50Z</time>
      </trkpt>
      <trkpt lat="50.94021" lon="1.85466">
        <ele>3.4</ele>
        <time>2020-06-22T21:18:51Z</time>
      </trkpt>
      <trkpt lat="50.94026" lon="1.85466">
        <ele>3.4</ele>
        <time>2020-06-22T21:18:52Z</time>
      </trkpt>
      <trkpt lat="50.94031" lon="1.85465">
        <ele>3.4</ele>
        <time>2020-06-22T21:18:53Z</time>
      </trkpt>
      <trkpt lat="50.94037" lon="1.85464">
        <ele>3.4</ele>
        <time>2020-06-22T21:18:54Z</time>
      </trkpt>
      <trkpt lat="50.94043" lon="1.85462">
        <ele>3.5</ele>
        <time>2020-06-22T21:18:55Z</time>
      </trkpt>
      <trkpt lat="50.94048" lon="1.85463">
        <ele>3.5</ele>
        <time>2020-06-22T21:18:56Z</time>
      </trkpt>
      <trkpt lat="50.94056" lon="1.85464">
        <ele>3.5</ele>
        <time>2020-06-22T21:18:57Z</time>
      </trkpt>
      <trkpt lat="50.94062" lon="1.85464">
        <ele>3.6</ele>
        <time>2020-06-22T21:18:58Z</time>
      </trkpt>
      <trkpt lat="50.94068" lon="1.85464">
        <ele>3.6</ele>
        <time>2020-06-22T21:18:59Z</time>
      </trkpt>
      <trkpt lat="50.94075" lon="1.85461">
        <ele>3.7</ele>
        <time>2020-06-22T21:19:00Z</time>
      </trkpt>
      <trkpt lat="50.9408" lon="1.85461">
        <ele>3.7</ele>
        <time>2020-06-22T21:19:01Z</time>
      </trkpt>
      <trkpt lat="50.94085" lon="1.85461">
        <ele>3.7</ele>
        <time>2020-06-22T21:19:02Z</time>
      </trkpt>
      <trkpt lat="50.94091" lon="1.85461">
        <ele>3.7</ele>
        <time>2020-06-22T21:19:03Z</time>
      </trkpt>
      <trkpt lat="50.94097" lon="1.85462">
        <ele>3.7</ele>
        <time>2020-06-22T21:19:04Z</time>
      </trkpt>
      <trkpt lat="50.94102" lon="1.85463">
        <ele>3.7</ele>
        <time>2020-06-22T21:19:05Z</time>
      </trkpt>
      <trkpt lat="50.94107" lon="1.85464">
        <ele>3.7</ele>
        <time>2020-06-22T21:19:06Z</time>
      </trkpt>
      <trkpt lat="50.94114" lon="1.85463">
        <ele>3.8</ele>
        <time>2020-06-22T21:19:07Z</time>
      </trkpt>
      <trkpt lat="50.94123" lon="1.85465">
        <ele>3.8</ele>
        <time>2020-06-22T21:19:08Z</time>
      </trkpt>
      <trkpt lat="50.94129" lon="1.85464">
        <ele>3.8</ele>
        <time>2020-06-22T21:19:09Z</time>
      </trkpt>
      <trkpt lat="50.94135" lon="1.85463">
        <ele>3.8</ele>
        <time>2020-06-22T21:19:10Z</time>
      </trkpt>
      <trkpt lat="50.94141" lon="1.85461">
        <ele>3.9</ele>
        <time>2020-06-22T21:19:11Z</time>
      </trkpt>
      <trkpt lat="50.94147" lon="1.85461">
        <ele>3.9</ele>
        <time>2020-06-22T21:19:12Z</time>
      </trkpt>
      <trkpt lat="50.94153" lon="1.85461">
        <ele>3.9</ele>
        <time>2020-06-22T21:19:13Z</time>
      </trkpt>
      <trkpt lat="50.94158" lon="1.8546">
        <ele>3.9</ele>
        <time>2020-06-22T21:19:14Z</time>
      </trkpt>
      <trkpt lat="50.94164" lon="1.8546">
        <ele>3.9</ele>
        <time>2020-06-22T21:19:15Z</time>
      </trkpt>
      <trkpt lat="50.94169" lon="1.85458">
        <ele>4</ele>
        <time>2020-06-22T21:19:16Z</time>
      </trkpt>
      <trkpt lat="50.94176" lon="1.85458">
        <ele>4</ele>
        <time>2020-06-22T21:19:17Z</time>
      </trkpt>
      <trkpt lat="50.94184" lon="1.85458">
        <ele>4.1</ele>
        <time>2020-06-22T21:19:18Z</time>
      </trkpt>
      <trkpt lat="50.94191" lon="1.85457">
        <ele>4.1</ele>
        <time>2020-06-22T21:19:19Z</time>
      </trkpt>
      <trkpt lat="50.94197" lon="1.85456">
        <ele>4.1</ele>
        <time>2020-06-22T21:19:20Z</time>
      </trkpt>
      <trkpt lat="50.94203" lon="1.85457">
        <ele>4.1</ele>
        <time>2020-06-22T21:19:21Z</time>
      </trkpt>
      <trkpt lat="50.9421" lon="1.85455">
        <ele>4.2</ele>
        <time>2020-06-22T21:19:22Z</time>
      </trkpt>
      <trkpt lat="50.94217" lon="1.85455">
        <ele>4.2</ele>
        <time>2020-06-22T21:19:23Z</time>
      </trkpt>
      <trkpt lat="50.94223" lon="1.85455">
        <ele>4.2</ele>
        <time>2020-06-22T21:19:24Z</time>
      </trkpt>
      <trkpt lat="50.94229" lon="1.85455">
        <ele>4.3</ele>
        <time>2020-06-22T21:19:25Z</time>
      </trkpt>
      <trkpt lat="50.94236" lon="1.85454">
        <ele>4.3</ele>
        <time>2020-06-22T21:19:26Z</time>
      </trkpt>
      <trkpt lat="50.94244" lon="1.85453">
        <ele>4.3</ele>
        <time>2020-06-22T21:19:27Z</time>
      </trkpt>
      <trkpt lat="50.94251" lon="1.85452">
        <ele>4.3</ele>
        <time>2020-06-22T21:19:28Z</time>
      </trkpt>
      <trkpt lat="50.94255" lon="1.85451">
        <ele>4.3</ele>
        <time>2020-06-22T21:19:29Z</time>
      </trkpt>
      <trkpt lat="50.94261" lon="1.8545">
        <ele>4.3</ele>
        <time>2020-06-22T21:19:30Z</time>
      </trkpt>
      <trkpt lat="50.94266" lon="1.85448">
        <ele>4.3</ele>
        <time>2020-06-22T21:19:31Z</time>
      </trkpt>
      <trkpt lat="50.94272" lon="1.85447">
        <ele>4.4</ele>
        <time>2020-06-22T21:19:32Z</time>
      </trkpt>
      <trkpt lat="50.94277" lon="1.85447">
        <ele>4.4</ele>
        <time>2020-06-22T21:19:33Z</time>
      </trkpt>
      <trkpt lat="50.94286" lon="1.85451">
        <ele>4.5</ele>
        <time>2020-06-22T21:19:34Z</time>
      </trkpt>
      <trkpt lat="50.94293" lon="1.85453">
        <ele>4.6</ele>
        <time>2020-06-22T21:19:35Z</time>
      </trkpt>
      <trkpt lat="50.94301" lon="1.85454">
        <ele>4.7</ele>
        <time>2020-06-22T21:19:36Z</time>
      </trkpt>
      <trkpt lat="50.94306" lon="1.85454">
        <ele>4.7</ele>
        <time>2020-06-22T21:19:37Z</time>
      </trkpt>
      <trkpt lat="50.94312" lon="1.85453">
        <ele>4.8</ele>
        <time>2020-06-22T21:19:38Z</time>
      </trkpt>
      <trkpt lat="50.94317" lon="1.85452">
        <ele>4.8</ele>
        <time>2020-06-22T21:19:39Z</time>
      </trkpt>
      <trkpt lat="50.94323" lon="1.85452">
        <ele>4.9</ele>
        <time>2020-06-22T21:19:40Z</time>
      </trkpt>
      <trkpt lat="50.94329" lon="1.85451">
        <ele>4.9</ele>
        <time>2020-06-22T21:19:41Z</time>
      </trkpt>
      <trkpt lat="50.94336" lon="1.85453">
        <ele>4.9</ele>
        <time>2020-06-22T21:19:42Z</time>
      </trkpt>
      <trkpt lat="50.94342" lon="1.85455">
        <ele>4.9</ele>
        <time>2020-06-22T21:19:43Z</time>
      </trkpt>
      <trkpt lat="50.94348" lon="1.85454">
        <ele>4.9</ele>
        <time>2020-06-22T21:19:44Z</time>
      </trkpt>
      <trkpt lat="50.94352" lon="1.85452">
        <ele>5</ele>
        <time>2020-06-22T21:19:45Z</time>
      </trkpt>
      <trkpt lat="50.94359" lon="1.85451">
        <ele>5.1</ele>
        <time>2020-06-22T21:19:46Z</time>
      </trkpt>
      <trkpt lat="50.94366" lon="1.85449">
        <ele>5.1</ele>
        <time>2020-06-22T21:19:47Z</time>
      </trkpt>
      <trkpt lat="50.94372" lon="1.85448">
        <ele>5.2</ele>
        <time>2020-06-22T21:19:48Z</time>
      </trkpt>
      <trkpt lat="50.94379" lon="1.85447">
        <ele>5.2</ele>
        <time>2020-06-22T21:19:49Z</time>
      </trkpt>
      <trkpt lat="50.94385" lon="1.85446">
        <ele>5.2</ele>
        <time>2020-06-22T21:19:50Z</time>
      </trkpt>
      <trkpt lat="50.94389" lon="1.85444">
        <ele>5.3</ele>
        <time>2020-06-22T21:19:51Z</time>
      </trkpt>
      <trkpt lat="50.94398" lon="1.85448">
        <ele>5.3</ele>
        <time>2020-06-22T21:19:52Z</time>
      </trkpt>
      <trkpt lat="50.94405" lon="1.85449">
        <ele>5.4</ele>
        <time>2020-06-22T21:19:53Z</time>
      </trkpt>
      <trkpt lat="50.94411" lon="1.85449">
        <ele>5.4</ele>
        <time>2020-06-22T21:19:54Z</time>
      </trkpt>
      <trkpt lat="50.94416" lon="1.85448">
        <ele>5.4</ele>
        <time>2020-06-22T21:19:55Z</time>
      </trkpt>
      <trkpt lat="50.94422" lon="1.85447">
        <ele>5.4</ele>
        <time>2020-06-22T21:19:56Z</time>
      </trkpt>
      <trkpt lat="50.94427" lon="1.85445">
        <ele>5.5</ele>
        <time>2020-06-22T21:19:57Z</time>
      </trkpt>
      <trkpt lat="50.94433" lon="1.85443">
        <ele>5.5</ele>
        <time>2020-06-22T21:19:58Z</time>
      </trkpt>
      <trkpt lat="50.94438" lon="1.85443">
        <ele>5.5</ele>
        <time>2020-06-22T21:19:59Z</time>
      </trkpt>
      <trkpt lat="50.94443" lon="1.85443">
        <ele>5.5</ele>
        <time>2020-06-22T21:20:00Z</time>
      </trkpt>
      <trkpt lat="50.9445" lon="1.85446">
        <ele>5.6</ele>
        <time>2020-06-22T21:20:01Z</time>
      </trkpt>
      <trkpt lat="50.94455" lon="1.85448">
        <ele>5.6</ele>
        <time>2020-06-22T21:20:02Z</time>
      </trkpt>
      <trkpt lat="50.9446" lon="1.85448">
        <ele>5.6</ele>
        <time>2020-06-22T21:20:03Z</time>
      </trkpt>
      <trkpt lat="50.94466" lon="1.85448">
        <ele>5.6</ele>
        <time>2020-06-22T21:20:04Z</time>
      </trkpt>
      <trkpt lat="50.94472" lon="1.85448">
        <ele>5.6</ele>
        <time>2020-06-22T21:20:05Z</time>
      </trkpt>
      <trkpt lat="50.94477" lon="1.85448">
        <ele>5.6</ele>
        <time>2020-06-22T21:20:06Z</time>
      </trkpt>
      <trkpt lat="50.94481" lon="1.85448">
        <ele>5.6</ele>
        <time>2020-06-22T21:20:07Z</time>
      </trkpt>
      <trkpt lat="50.94486" lon="1.85448">
        <ele>5.6</ele>
        <time>2020-06-22T21:20:08Z</time>
      </trkpt>
      <trkpt lat="50.9449" lon="1.85449">
        <ele>5.6</ele>
        <time>2020-06-22T21:20:09Z</time>
      </trkpt>
      <trkpt lat="50.94494" lon="1.85449">
        <ele>5.7</ele>
        <time>2020-06-22T21:20:10Z</time>
      </trkpt>
      <trkpt lat="50.94498" lon="1.8545">
        <ele>5.7</ele>
        <time>2020-06-22T21:20:11Z</time>
      </trkpt>
      <trkpt lat="50.94502" lon="1.85452">
        <ele>5.7</ele>
        <time>2020-06-22T21:20:12Z</time>
      </trkpt>
      <trkpt lat="50.94506" lon="1.85452">
        <ele>5.7</ele>
        <time>2020-06-22T21:20:13Z</time>
      </trkpt>
      <trkpt lat="50.9451" lon="1.85452">
        <ele>5.7</ele>
        <time>2020-06-22T21:20:14Z</time>
      </trkpt>
      <trkpt lat="50.94514" lon="1.85451">
        <ele>5.8</ele>
        <time>2020-06-22T21:20:15Z</time>
      </trkpt>
      <trkpt lat="50.94516" lon="1.85451">
        <ele>5.8</ele>
        <time>2020-06-22T21:20:16Z</time>
      </trkpt>
      <trkpt lat="50.94521" lon="1.85451">
        <ele>5.8</ele>
        <time>2020-06-22T21:20:17Z</time>
      </trkpt>
      <trkpt lat="50.94525" lon="1.85451">
        <ele>5.8</ele>
        <time>2020-06-22T21:20:18Z</time>
      </trkpt>
      <trkpt lat="50.94528" lon="1.85449">
        <ele>5.8</ele>
        <time>2020-06-22T21:20:19Z</time>
      </trkpt>
      <trkpt lat="50.94532" lon="1.85442">
        <ele>5.8</ele>
        <time>2020-06-22T21:20:20Z</time>
      </trkpt>
      <trkpt lat="50.94535" lon="1.85435">
        <ele>5.7</ele>
        <time>2020-06-22T21:20:21Z</time>
      </trkpt>
      <trkpt lat="50.94538" lon="1.85429">
        <ele>5.8</ele>
        <time>2020-06-22T21:20:22Z</time>
      </trkpt>
      <trkpt lat="50.94541" lon="1.85426">
        <ele>5.9</ele>
        <time>2020-06-22T21:20:23Z</time>
      </trkpt>
      <trkpt lat="50.94544" lon="1.85421">
        <ele>6</ele>
        <time>2020-06-22T21:20:24Z</time>
      </trkpt>
      <trkpt lat="50.94548" lon="1.85416">
        <ele>6</ele>
        <time>2020-06-22T21:20:25Z</time>
      </trkpt>
      <trkpt lat="50.94553" lon="1.8541">
        <ele>6.1</ele>
        <time>2020-06-22T21:20:26Z</time>
      </trkpt>
      <trkpt lat="50.94557" lon="1.85406">
        <ele>6.1</ele>
        <time>2020-06-22T21:20:27Z</time>
      </trkpt>
      <trkpt lat="50.9456" lon="1.85402">
        <ele>6.1</ele>
        <time>2020-06-22T21:20:28Z</time>
      </trkpt>
      <trkpt lat="50.94564" lon="1.854">
        <ele>6.1</ele>
        <time>2020-06-22T21:20:29Z</time>
      </trkpt>
      <trkpt lat="50.94568" lon="1.85397">
        <ele>6.1</ele>
        <time>2020-06-22T21:20:30Z</time>
      </trkpt>
      <trkpt lat="50.94574" lon="1.85398">
        <ele>6.1</ele>
        <time>2020-06-22T21:20:31Z</time>
      </trkpt>
      <trkpt lat="50.94579" lon="1.85397">
        <ele>6.1</ele>
        <time>2020-06-22T21:20:32Z</time>
      </trkpt>
      <trkpt lat="50.94583" lon="1.85395">
        <ele>6</ele>
        <time>2020-06-22T21:20:33Z</time>
      </trkpt>
      <trkpt lat="50.94586" lon="1.85393">
        <ele>6</ele>
        <time>2020-06-22T21:20:34Z</time>
      </trkpt>
      <trkpt lat="50.9459" lon="1.85391">
        <ele>6</ele>
        <time>2020-06-22T21:20:35Z</time>
      </trkpt>
      <trkpt lat="50.94592" lon="1.85391">
        <ele>6</ele>
        <time>2020-06-22T21:20:36Z</time>
      </trkpt>
      <trkpt lat="50.94597" lon="1.85391">
        <ele>5.9</ele>
        <time>2020-06-22T21:20:37Z</time>
      </trkpt>
      <trkpt lat="50.94601" lon="1.85392">
        <ele>5.9</ele>
        <time>2020-06-22T21:20:38Z</time>
      </trkpt>
      <trkpt lat="50.94606" lon="1.85392">
        <ele>5.9</ele>
        <time>2020-06-22T21:20:39Z</time>
      </trkpt>
      <trkpt lat="50.94611" lon="1.85392">
        <ele>5.9</ele>
        <time>2020-06-22T21:20:40Z</time>
      </trkpt>
      <trkpt lat="50.94615" lon="1.85391">
        <ele>5.9</ele>
        <time>2020-06-22T21:20:41Z</time>
      </trkpt>
      <trkpt lat="50.9462" lon="1.85391">
        <ele>5.9</ele>
        <time>2020-06-22T21:20:42Z</time>
      </trkpt>
      <trkpt lat="50.94624" lon="1.85392">
        <ele>5.9</ele>
        <time>2020-06-22T21:20:43Z</time>
      </trkpt>
      <trkpt lat="50.94629" lon="1.85394">
        <ele>5.9</ele>
        <time>2020-06-22T21:20:44Z</time>
      </trkpt>
      <trkpt lat="50.94633" lon="1.85394">
        <ele>5.9</ele>
        <time>2020-06-22T21:20:45Z</time>
      </trkpt>
      <trkpt lat="50.94637" lon="1.85393">
        <ele>5.9</ele>
        <time>2020-06-22T21:20:46Z</time>
      </trkpt>
      <trkpt lat="50.94642" lon="1.85394">
        <ele>6</ele>
        <time>2020-06-22T21:20:47Z</time>
      </trkpt>
      <trkpt lat="50.94647" lon="1.85395">
        <ele>6</ele>
        <time>2020-06-22T21:20:48Z</time>
      </trkpt>
      <trkpt lat="50.94653" lon="1.85396">
        <ele>6</ele>
        <time>2020-06-22T21:20:49Z</time>
      </trkpt>
      <trkpt lat="50.94658" lon="1.85396">
        <ele>6</ele>
        <time>2020-06-22T21:20:50Z</time>
      </trkpt>
      <trkpt lat="50.94662" lon="1.85397">
        <ele>6</ele>
        <time>2020-06-22T21:20:51Z</time>
      </trkpt>
      <trkpt lat="50.94666" lon="1.85397">
        <ele>6</ele>
        <time>2020-06-22T21:20:52Z</time>
      </trkpt>
      <trkpt lat="50.94671" lon="1.85399">
        <ele>6</ele>
        <time>2020-06-22T21:20:53Z</time>
      </trkpt>
      <trkpt lat="50.94675" lon="1.854">
        <ele>6</ele>
        <time>2020-06-22T21:20:54Z</time>
      </trkpt>
      <trkpt lat="50.94678" lon="1.854">
        <ele>6.1</ele>
        <time>2020-06-22T21:20:55Z</time>
      </trkpt>
      <trkpt lat="50.94682" lon="1.854">
        <ele>6.1</ele>
        <time>2020-06-22T21:20:56Z</time>
      </trkpt>
      <trkpt lat="50.94686" lon="1.85401">
        <ele>6.1</ele>
        <time>2020-06-22T21:20:57Z</time>
      </trkpt>
      <trkpt lat="50.94691" lon="1.854">
        <ele>6.1</ele>
        <time>2020-06-22T21:20:58Z</time>
      </trkpt>
      <trkpt lat="50.94695" lon="1.854">
        <ele>6.1</ele>
        <time>2020-06-22T21:20:59Z</time>
      </trkpt>
      <trkpt lat="50.94701" lon="1.854">
        <ele>6.1</ele>
        <time>2020-06-22T21:21:00Z</time>
      </trkpt>
      <trkpt lat="50.94706" lon="1.854">
        <ele>6.2</ele>
        <time>2020-06-22T21:21:01Z</time>
      </trkpt>
      <trkpt lat="50.94712" lon="1.854">
        <ele>6.3</ele>
        <time>2020-06-22T21:21:02Z</time>
      </trkpt>
      <trkpt lat="50.94717" lon="1.85401">
        <ele>6.4</ele>
        <time>2020-06-22T21:21:03Z</time>
      </trkpt>
      <trkpt lat="50.94722" lon="1.85403">
        <ele>6.4</ele>
        <time>2020-06-22T21:21:04Z</time>
      </trkpt>
      <trkpt lat="50.94727" lon="1.85405">
        <ele>6.5</ele>
        <time>2020-06-22T21:21:05Z</time>
      </trkpt>
      <trkpt lat="50.94732" lon="1.85407">
        <ele>6.5</ele>
        <time>2020-06-22T21:21:06Z</time>
      </trkpt>
      <trkpt lat="50.94737" lon="1.85408">
        <ele>6.6</ele>
        <time>2020-06-22T21:21:07Z</time>
      </trkpt>
      <trkpt lat="50.94742" lon="1.85409">
        <ele>6.6</ele>
        <time>2020-06-22T21:21:08Z</time>
      </trkpt>
      <trkpt lat="50.94748" lon="1.85411">
        <ele>6.6</ele>
        <time>2020-06-22T21:21:09Z</time>
      </trkpt>
      <trkpt lat="50.94754" lon="1.85412">
        <ele>6.3</ele>
        <time>2020-06-22T21:21:10Z</time>
      </trkpt>
      <trkpt lat="50.94758" lon="1.85413">
        <ele>6.1</ele>
        <time>2020-06-22T21:21:11Z</time>
      </trkpt>
      <trkpt lat="50.94762" lon="1.85414">
        <ele>5.8</ele>
        <time>2020-06-22T21:21:12Z</time>
      </trkpt>
      <trkpt lat="50.94763" lon="1.85415">
        <ele>5.8</ele>
        <time>2020-06-22T21:21:13Z</time>
      </trkpt>
      <trkpt lat="50.94765" lon="1.85415">
        <ele>5.8</ele>
        <time>2020-06-22T21:21:14Z</time>
      </trkpt>
      <trkpt lat="50.94765" lon="1.85415">
        <ele>5.8</ele>
        <time>2020-06-22T21:21:15Z</time>
      </trkpt>
      <trkpt lat="50.94764" lon="1.85415">
        <ele>5.7</ele>
        <time>2020-06-22T21:21:16Z</time>
      </trkpt>
      <trkpt lat="50.94765" lon="1.85416">
        <ele>5.7</ele>
        <time>2020-06-22T21:21:17Z</time>
      </trkpt>
      <trkpt lat="50.94766" lon="1.85417">
        <ele>5.7</ele>
        <time>2020-06-22T21:21:18Z</time>
      </trkpt>
      <trkpt lat="50.94767" lon="1.85417">
        <ele>5.7</ele>
        <time>2020-06-22T21:21:19Z</time>
      </trkpt>
      <trkpt lat="50.94769" lon="1.85416">
        <ele>5.6</ele>
        <time>2020-06-22T21:21:20Z</time>
      </trkpt>
      <trkpt lat="50.9477" lon="1.85416">
        <ele>5.6</ele>
        <time>2020-06-22T21:21:21Z</time>
      </trkpt>
      <trkpt lat="50.94774" lon="1.85416">
        <ele>5.7</ele>
        <time>2020-06-22T21:21:22Z</time>
      </trkpt>
      <trkpt lat="50.94776" lon="1.85415">
        <ele>5.7</ele>
        <time>2020-06-22T21:21:23Z</time>
      </trkpt>
      <trkpt lat="50.94782" lon="1.85415">
        <ele>5.7</ele>
        <time>2020-06-22T21:21:24Z</time>
      </trkpt>
      <trkpt lat="50.94786" lon="1.85417">
        <ele>5.7</ele>
        <time>2020-06-22T21:21:25Z</time>
      </trkpt>
      <trkpt lat="50.94789" lon="1.85418">
        <ele>5.7</ele>
        <time>2020-06-22T21:21:26Z</time>
      </trkpt>
      <trkpt lat="50.94793" lon="1.85418">
        <ele>5.7</ele>
        <time>2020-06-22T21:21:27Z</time>
      </trkpt>
      <trkpt lat="50.94798" lon="1.85417">
        <ele>5.7</ele>
        <time>2020-06-22T21:21:28Z</time>
      </trkpt>
      <trkpt lat="50.94802" lon="1.85418">
        <ele>5.7</ele>
        <time>2020-06-22T21:21:29Z</time>
      </trkpt>
      <trkpt lat="50.94807" lon="1.85418">
        <ele>5.7</ele>
        <time>2020-06-22T21:21:30Z</time>
      </trkpt>
      <trkpt lat="50.94812" lon="1.85418">
        <ele>5.6</ele>
        <time>2020-06-22T21:21:31Z</time>
      </trkpt>
      <trkpt lat="50.94815" lon="1.85419">
        <ele>5.6</ele>
        <time>2020-06-22T21:21:32Z</time>
      </trkpt>
      <trkpt lat="50.9482" lon="1.85417">
        <ele>5.6</ele>
        <time>2020-06-22T21:21:33Z</time>
      </trkpt>
      <trkpt lat="50.94823" lon="1.85416">
        <ele>5.6</ele>
        <time>2020-06-22T21:21:34Z</time>
      </trkpt>
      <trkpt lat="50.94826" lon="1.85416">
        <ele>5.6</ele>
        <time>2020-06-22T21:21:35Z</time>
      </trkpt>
      <trkpt lat="50.9483" lon="1.85417">
        <ele>5.6</ele>
        <time>2020-06-22T21:21:36Z</time>
      </trkpt>
      <trkpt lat="50.94834" lon="1.85419">
        <ele>5.6</ele>
        <time>2020-06-22T21:21:37Z</time>
      </trkpt>
      <trkpt lat="50.9484" lon="1.8542">
        <ele>5.6</ele>
        <time>2020-06-22T21:21:38Z</time>
      </trkpt>
      <trkpt lat="50.94845" lon="1.85419">
        <ele>5.6</ele>
        <time>2020-06-22T21:21:39Z</time>
      </trkpt>
      <trkpt lat="50.94851" lon="1.85419">
        <ele>5.6</ele>
        <time>2020-06-22T21:21:40Z</time>
      </trkpt>
      <trkpt lat="50.94857" lon="1.85419">
        <ele>5.5</ele>
        <time>2020-06-22T21:21:41Z</time>
      </trkpt>
      <trkpt lat="50.94862" lon="1.8542">
        <ele>5.5</ele>
        <time>2020-06-22T21:21:42Z</time>
      </trkpt>
      <trkpt lat="50.94869" lon="1.8542">
        <ele>5.4</ele>
        <time>2020-06-22T21:21:43Z</time>
      </trkpt>
      <trkpt lat="50.94875" lon="1.85421">
        <ele>5.4</ele>
        <time>2020-06-22T21:21:44Z</time>
      </trkpt>
      <trkpt lat="50.9488" lon="1.85422">
        <ele>5.4</ele>
        <time>2020-06-22T21:21:45Z</time>
      </trkpt>
      <trkpt lat="50.94886" lon="1.85423">
        <ele>5.3</ele>
        <time>2020-06-22T21:21:46Z</time>
      </trkpt>
      <trkpt lat="50.9489" lon="1.85424">
        <ele>5.3</ele>
        <time>2020-06-22T21:21:47Z</time>
      </trkpt>
      <trkpt lat="50.94895" lon="1.85424">
        <ele>5.3</ele>
        <time>2020-06-22T21:21:48Z</time>
      </trkpt>
      <trkpt lat="50.94901" lon="1.85423">
        <ele>5.3</ele>
        <time>2020-06-22T21:21:49Z</time>
      </trkpt>
      <trkpt lat="50.94906" lon="1.85423">
        <ele>5.2</ele>
        <time>2020-06-22T21:21:50Z</time>
      </trkpt>
      <trkpt lat="50.94913" lon="1.85426">
        <ele>5.2</ele>
        <time>2020-06-22T21:21:51Z</time>
      </trkpt>
      <trkpt lat="50.94918" lon="1.85426">
        <ele>5.2</ele>
        <time>2020-06-22T21:21:52Z</time>
      </trkpt>
      <trkpt lat="50.94921" lon="1.85425">
        <ele>5.2</ele>
        <time>2020-06-22T21:21:53Z</time>
      </trkpt>
      <trkpt lat="50.94925" lon="1.85425">
        <ele>5.2</ele>
        <time>2020-06-22T21:21:54Z</time>
      </trkpt>
      <trkpt lat="50.94929" lon="1.85425">
        <ele>5.2</ele>
        <time>2020-06-22T21:21:55Z</time>
      </trkpt>
      <trkpt lat="50.94934" lon="1.85424">
        <ele>5.2</ele>
        <time>2020-06-22T21:21:56Z</time>
      </trkpt>
      <trkpt lat="50.94938" lon="1.85423">
        <ele>5.2</ele>
        <time>2020-06-22T21:21:57Z</time>
      </trkpt>
      <trkpt lat="50.94943" lon="1.85422">
        <ele>5.3</ele>
        <time>2020-06-22T21:21:58Z</time>
      </trkpt>
      <trkpt lat="50.94949" lon="1.8542">
        <ele>5.3</ele>
        <time>2020-06-22T21:21:59Z</time>
      </trkpt>
      <trkpt lat="50.94954" lon="1.85417">
        <ele>5.3</ele>
        <time>2020-06-22T21:22:00Z</time>
      </trkpt>
      <trkpt lat="50.94961" lon="1.85418">
        <ele>5.3</ele>
        <time>2020-06-22T21:22:01Z</time>
      </trkpt>
      <trkpt lat="50.94967" lon="1.85419">
        <ele>5.4</ele>
        <time>2020-06-22T21:22:02Z</time>
      </trkpt>
      <trkpt lat="50.94971" lon="1.85419">
        <ele>5.4</ele>
        <time>2020-06-22T21:22:03Z</time>
      </trkpt>
      <trkpt lat="50.94975" lon="1.85418">
        <ele>5.4</ele>
        <time>2020-06-22T21:22:04Z</time>
      </trkpt>
      <trkpt lat="50.9498" lon="1.85418">
        <ele>5.4</ele>
        <time>2020-06-22T21:22:05Z</time>
      </trkpt>
      <trkpt lat="50.94985" lon="1.85417">
        <ele>5.4</ele>
        <time>2020-06-22T21:22:06Z</time>
      </trkpt>
      <trkpt lat="50.9499" lon="1.85417">
        <ele>5.4</ele>
        <time>2020-06-22T21:22:07Z</time>
      </trkpt>
      <trkpt lat="50.94996" lon="1.85418">
        <ele>5.3</ele>
        <time>2020-06-22T21:22:08Z</time>
      </trkpt>
      <trkpt lat="50.95003" lon="1.8542">
        <ele>5.3</ele>
        <time>2020-06-22T21:22:09Z</time>
      </trkpt>
      <trkpt lat="50.95009" lon="1.8542">
        <ele>5.3</ele>
        <time>2020-06-22T21:22:10Z</time>
      </trkpt>
      <trkpt lat="50.95012" lon="1.8542">
        <ele>5.2</ele>
        <time>2020-06-22T21:22:11Z</time>
      </trkpt>
      <trkpt lat="50.95018" lon="1.85419">
        <ele>5.2</ele>
        <time>2020-06-22T21:22:12Z</time>
      </trkpt>
      <trkpt lat="50.95023" lon="1.85418">
        <ele>5.1</ele>
        <time>2020-06-22T21:22:13Z</time>
      </trkpt>
      <trkpt lat="50.95029" lon="1.85416">
        <ele>5</ele>
        <time>2020-06-22T21:22:14Z</time>
      </trkpt>
      <trkpt lat="50.95035" lon="1.85413">
        <ele>4.9</ele>
        <time>2020-06-22T21:22:15Z</time>
      </trkpt>
      <trkpt lat="50.95041" lon="1.85411">
        <ele>4.8</ele>
        <time>2020-06-22T21:22:16Z</time>
      </trkpt>
      <trkpt lat="50.95047" lon="1.85409">
        <ele>4.8</ele>
        <time>2020-06-22T21:22:17Z</time>
      </trkpt>
      <trkpt lat="50.95053" lon="1.85406">
        <ele>4.7</ele>
        <time>2020-06-22T21:22:18Z</time>
      </trkpt>
      <trkpt lat="50.95059" lon="1.85404">
        <ele>4.6</ele>
        <time>2020-06-22T21:22:19Z</time>
      </trkpt>
      <trkpt lat="50.95068" lon="1.85407">
        <ele>4.6</ele>
        <time>2020-06-22T21:22:20Z</time>
      </trkpt>
      <trkpt lat="50.95074" lon="1.85405">
        <ele>4.6</ele>
        <time>2020-06-22T21:22:21Z</time>
      </trkpt>
      <trkpt lat="50.95079" lon="1.85402">
        <ele>4.5</ele>
        <time>2020-06-22T21:22:22Z</time>
      </trkpt>
      <trkpt lat="50.95084" lon="1.85399">
        <ele>4.5</ele>
        <time>2020-06-22T21:22:23Z</time>
      </trkpt>
      <trkpt lat="50.9509" lon="1.85396">
        <ele>4.5</ele>
        <time>2020-06-22T21:22:24Z</time>
      </trkpt>
      <trkpt lat="50.95096" lon="1.85392">
        <ele>4.5</ele>
        <time>2020-06-22T21:22:25Z</time>
      </trkpt>
      <trkpt lat="50.951" lon="1.85391">
        <ele>4.5</ele>
        <time>2020-06-22T21:22:26Z</time>
      </trkpt>
      <trkpt lat="50.95106" lon="1.85387">
        <ele>4.5</ele>
        <time>2020-06-22T21:22:27Z</time>
      </trkpt>
      <trkpt lat="50.95112" lon="1.85384">
        <ele>4.5</ele>
        <time>2020-06-22T21:22:28Z</time>
      </trkpt>
      <trkpt lat="50.95118" lon="1.8538">
        <ele>4.6</ele>
        <time>2020-06-22T21:22:29Z</time>
      </trkpt>
      <trkpt lat="50.95123" lon="1.85382">
        <ele>4.6</ele>
        <time>2020-06-22T21:22:30Z</time>
      </trkpt>
      <trkpt lat="50.95129" lon="1.8538">
        <ele>4.7</ele>
        <time>2020-06-22T21:22:31Z</time>
      </trkpt>
      <trkpt lat="50.95134" lon="1.85378">
        <ele>4.8</ele>
        <time>2020-06-22T21:22:32Z</time>
      </trkpt>
      <trkpt lat="50.95139" lon="1.85376">
        <ele>4.9</ele>
        <time>2020-06-22T21:22:33Z</time>
      </trkpt>
      <trkpt lat="50.95144" lon="1.85373">
        <ele>4.9</ele>
        <time>2020-06-22T21:22:34Z</time>
      </trkpt>
      <trkpt lat="50.95148" lon="1.85372">
        <ele>5</ele>
        <time>2020-06-22T21:22:35Z</time>
      </trkpt>
      <trkpt lat="50.95153" lon="1.85371">
        <ele>5</ele>
        <time>2020-06-22T21:22:36Z</time>
      </trkpt>
      <trkpt lat="50.95156" lon="1.8537">
        <ele>5.1</ele>
        <time>2020-06-22T21:22:37Z</time>
      </trkpt>
      <trkpt lat="50.9516" lon="1.8537">
        <ele>5.1</ele>
        <time>2020-06-22T21:22:38Z</time>
      </trkpt>
      <trkpt lat="50.95162" lon="1.85368">
        <ele>5.1</ele>
        <time>2020-06-22T21:22:39Z</time>
      </trkpt>
      <trkpt lat="50.95163" lon="1.85367">
        <ele>5.1</ele>
        <time>2020-06-22T21:22:40Z</time>
      </trkpt>
      <trkpt lat="50.95165" lon="1.85365">
        <ele>5.2</ele>
        <time>2020-06-22T21:22:41Z</time>
      </trkpt>
      <trkpt lat="50.95168" lon="1.85363">
        <ele>5.2</ele>
        <time>2020-06-22T21:22:42Z</time>
      </trkpt>
      <trkpt lat="50.9517" lon="1.85364">
        <ele>5.2</ele>
        <time>2020-06-22T21:22:43Z</time>
      </trkpt>
      <trkpt lat="50.95172" lon="1.85362">
        <ele>5.2</ele>
        <time>2020-06-22T21:22:44Z</time>
      </trkpt>
      <trkpt lat="50.95176" lon="1.85361">
        <ele>5.2</ele>
        <time>2020-06-22T21:22:45Z</time>
      </trkpt>
      <trkpt lat="50.95177" lon="1.8536">
        <ele>5.2</ele>
        <time>2020-06-22T21:22:46Z</time>
      </trkpt>
      <trkpt lat="50.9518" lon="1.85358">
        <ele>5.4</ele>
        <time>2020-06-22T21:22:47Z</time>
      </trkpt>
      <trkpt lat="50.95184" lon="1.85355">
        <ele>5.4</ele>
        <time>2020-06-22T21:22:48Z</time>
      </trkpt>
      <trkpt lat="50.95188" lon="1.85349">
        <ele>5.4</ele>
        <time>2020-06-22T21:22:49Z</time>
      </trkpt>
      <trkpt lat="50.95193" lon="1.85341">
        <ele>5.4</ele>
        <time>2020-06-22T21:22:50Z</time>
      </trkpt>
      <trkpt lat="50.95197" lon="1.85335">
        <ele>5.5</ele>
        <time>2020-06-22T21:22:51Z</time>
      </trkpt>
      <trkpt lat="50.95202" lon="1.85329">
        <ele>5.6</ele>
        <time>2020-06-22T21:22:52Z</time>
      </trkpt>
      <trkpt lat="50.95207" lon="1.85325">
        <ele>5.7</ele>
        <time>2020-06-22T21:22:53Z</time>
      </trkpt>
      <trkpt lat="50.95212" lon="1.8532">
        <ele>5.8</ele>
        <time>2020-06-22T21:22:54Z</time>
      </trkpt>
      <trkpt lat="50.95216" lon="1.85315">
        <ele>5.9</ele>
        <time>2020-06-22T21:22:55Z</time>
      </trkpt>
      <trkpt lat="50.9522" lon="1.85309">
        <ele>5.9</ele>
        <time>2020-06-22T21:22:56Z</time>
      </trkpt>
      <trkpt lat="50.95224" lon="1.85304">
        <ele>6</ele>
        <time>2020-06-22T21:22:57Z</time>
      </trkpt>
      <trkpt lat="50.95229" lon="1.85299">
        <ele>6.1</ele>
        <time>2020-06-22T21:22:58Z</time>
      </trkpt>
      <trkpt lat="50.95234" lon="1.85293">
        <ele>6.2</ele>
        <time>2020-06-22T21:22:59Z</time>
      </trkpt>
      <trkpt lat="50.95238" lon="1.85288">
        <ele>6.3</ele>
        <time>2020-06-22T21:23:00Z</time>
      </trkpt>
      <trkpt lat="50.95242" lon="1.85283">
        <ele>6.4</ele>
        <time>2020-06-22T21:23:01Z</time>
      </trkpt>
      <trkpt lat="50.95245" lon="1.8528">
        <ele>6.4</ele>
        <time>2020-06-22T21:23:02Z</time>
      </trkpt>
      <trkpt lat="50.95248" lon="1.85276">
        <ele>6.5</ele>
        <time>2020-06-22T21:23:03Z</time>
      </trkpt>
      <trkpt lat="50.95251" lon="1.85271">
        <ele>6.6</ele>
        <time>2020-06-22T21:23:04Z</time>
      </trkpt>
      <trkpt lat="50.95255" lon="1.85267">
        <ele>6.8</ele>
        <time>2020-06-22T21:23:05Z</time>
      </trkpt>
      <trkpt lat="50.95259" lon="1.85262">
        <ele>6.9</ele>
        <time>2020-06-22T21:23:06Z</time>
      </trkpt>
      <trkpt lat="50.95262" lon="1.85258">
        <ele>7</ele>
        <time>2020-06-22T21:23:07Z</time>
      </trkpt>
      <trkpt lat="50.95265" lon="1.85255">
        <ele>7.1</ele>
        <time>2020-06-22T21:23:08Z</time>
      </trkpt>
      <trkpt lat="50.95269" lon="1.85251">
        <ele>7.2</ele>
        <time>2020-06-22T21:23:09Z</time>
      </trkpt>
      <trkpt lat="50.95272" lon="1.85249">
        <ele>7.3</ele>
        <time>2020-06-22T21:23:10Z</time>
      </trkpt>
      <trkpt lat="50.95276" lon="1.85248">
        <ele>7.4</ele>
        <time>2020-06-22T21:23:11Z</time>
      </trkpt>
      <trkpt lat="50.95279" lon="1.85251">
        <ele>7.4</ele>
        <time>2020-06-22T21:23:12Z</time>
      </trkpt>
      <trkpt lat="50.95283" lon="1.85254">
        <ele>7.5</ele>
        <time>2020-06-22T21:23:13Z</time>
      </trkpt>
      <trkpt lat="50.95284" lon="1.85254">
        <ele>7.5</ele>
        <time>2020-06-22T21:23:14Z</time>
      </trkpt>
      <trkpt lat="50.95287" lon="1.85255">
        <ele>7.5</ele>
        <time>2020-06-22T21:23:15Z</time>
      </trkpt>
      <trkpt lat="50.9529" lon="1.85256">
        <ele>7.5</ele>
        <time>2020-06-22T21:23:16Z</time>
      </trkpt>
      <trkpt lat="50.95292" lon="1.85257">
        <ele>7.5</ele>
        <time>2020-06-22T21:23:17Z</time>
      </trkpt>
      <trkpt lat="50.95295" lon="1.85258">
        <ele>7.5</ele>
        <time>2020-06-22T21:23:18Z</time>
      </trkpt>
      <trkpt lat="50.95298" lon="1.8526">
        <ele>7.4</ele>
        <time>2020-06-22T21:23:19Z</time>
      </trkpt>
      <trkpt lat="50.95301" lon="1.85264">
        <ele>7.4</ele>
        <time>2020-06-22T21:23:20Z</time>
      </trkpt>
      <trkpt lat="50.95301" lon="1.85265">
        <ele>7.4</ele>
        <time>2020-06-22T21:23:21Z</time>
      </trkpt>
      <trkpt lat="50.95303" lon="1.85268">
        <ele>7.3</ele>
        <time>2020-06-22T21:23:22Z</time>
      </trkpt>
      <trkpt lat="50.95304" lon="1.85273">
        <ele>7.3</ele>
        <time>2020-06-22T21:23:23Z</time>
      </trkpt>
      <trkpt lat="50.95305" lon="1.8528">
        <ele>7.2</ele>
        <time>2020-06-22T21:23:24Z</time>
      </trkpt>
      <trkpt lat="50.95305" lon="1.85287">
        <ele>7.1</ele>
        <time>2020-06-22T21:23:25Z</time>
      </trkpt>
      <trkpt lat="50.95307" lon="1.85292">
        <ele>7.1</ele>
        <time>2020-06-22T21:23:26Z</time>
      </trkpt>
      <trkpt lat="50.95307" lon="1.85299">
        <ele>7</ele>
        <time>2020-06-22T21:23:27Z</time>
      </trkpt>
      <trkpt lat="50.95308" lon="1.85306">
        <ele>7</ele>
        <time>2020-06-22T21:23:28Z</time>
      </trkpt>
      <trkpt lat="50.95309" lon="1.85311">
        <ele>6.9</ele>
        <time>2020-06-22T21:23:29Z</time>
      </trkpt>
      <trkpt lat="50.9531" lon="1.85316">
        <ele>6.9</ele>
        <time>2020-06-22T21:23:30Z</time>
      </trkpt>
      <trkpt lat="50.9531" lon="1.85322">
        <ele>6.8</ele>
        <time>2020-06-22T21:23:31Z</time>
      </trkpt>
      <trkpt lat="50.95311" lon="1.85328">
        <ele>6.8</ele>
        <time>2020-06-22T21:23:32Z</time>
      </trkpt>
      <trkpt lat="50.95311" lon="1.85334">
        <ele>6.7</ele>
        <time>2020-06-22T21:23:33Z</time>
      </trkpt>
      <trkpt lat="50.95313" lon="1.8534">
        <ele>6.7</ele>
        <time>2020-06-22T21:23:34Z</time>
      </trkpt>
      <trkpt lat="50.95314" lon="1.85345">
        <ele>6.6</ele>
        <time>2020-06-22T21:23:35Z</time>
      </trkpt>
      <trkpt lat="50.95316" lon="1.8535">
        <ele>6.6</ele>
        <time>2020-06-22T21:23:36Z</time>
      </trkpt>
      <trkpt lat="50.95316" lon="1.85355">
        <ele>6.5</ele>
        <time>2020-06-22T21:23:37Z</time>
      </trkpt>
      <trkpt lat="50.95318" lon="1.85362">
        <ele>6.5</ele>
        <time>2020-06-22T21:23:38Z</time>
      </trkpt>
      <trkpt lat="50.95319" lon="1.85365">
        <ele>6.5</ele>
        <time>2020-06-22T21:23:39Z</time>
      </trkpt>
      <trkpt lat="50.9532" lon="1.85371">
        <ele>6.5</ele>
        <time>2020-06-22T21:23:40Z</time>
      </trkpt>
      <trkpt lat="50.95319" lon="1.85377">
        <ele>6.5</ele>
        <time>2020-06-22T21:23:41Z</time>
      </trkpt>
      <trkpt lat="50.95319" lon="1.85382">
        <ele>6.5</ele>
        <time>2020-06-22T21:23:42Z</time>
      </trkpt>
      <trkpt lat="50.9532" lon="1.85388">
        <ele>6.5</ele>
        <time>2020-06-22T21:23:43Z</time>
      </trkpt>
      <trkpt lat="50.95321" lon="1.85393">
        <ele>6.4</ele>
        <time>2020-06-22T21:23:44Z</time>
      </trkpt>
      <trkpt lat="50.95323" lon="1.85398">
        <ele>6.4</ele>
        <time>2020-06-22T21:23:45Z</time>
      </trkpt>
      <trkpt lat="50.95324" lon="1.85404">
        <ele>6.4</ele>
        <time>2020-06-22T21:23:46Z</time>
      </trkpt>
      <trkpt lat="50.95325" lon="1.8541">
        <ele>6.4</ele>
        <time>2020-06-22T21:23:47Z</time>
      </trkpt>
      <trkpt lat="50.95327" lon="1.85415">
        <ele>6.4</ele>
        <time>2020-06-22T21:23:48Z</time>
      </trkpt>
      <trkpt lat="50.95329" lon="1.85421">
        <ele>6.4</ele>
        <time>2020-06-22T21:23:49Z</time>
      </trkpt>
      <trkpt lat="50.95331" lon="1.85426">
        <ele>6.3</ele>
        <time>2020-06-22T21:23:50Z</time>
      </trkpt>
      <trkpt lat="50.95333" lon="1.85432">
        <ele>6.3</ele>
        <time>2020-06-22T21:23:51Z</time>
      </trkpt>
      <trkpt lat="50.95336" lon="1.85439">
        <ele>6.3</ele>
        <time>2020-06-22T21:23:52Z</time>
      </trkpt>
      <trkpt lat="50.95338" lon="1.85445">
        <ele>6.2</ele>
        <time>2020-06-22T21:23:53Z</time>
      </trkpt>
      <trkpt lat="50.95341" lon="1.85453">
        <ele>6.2</ele>
        <time>2020-06-22T21:23:54Z</time>
      </trkpt>
      <trkpt lat="50.95342" lon="1.85461">
        <ele>6.2</ele>
        <time>2020-06-22T21:23:55Z</time>
      </trkpt>
      <trkpt lat="50.95345" lon="1.85469">
        <ele>6.2</ele>
        <time>2020-06-22T21:23:56Z</time>
      </trkpt>
      <trkpt lat="50.95346" lon="1.85476">
        <ele>6.2</ele>
        <time>2020-06-22T21:23:57Z</time>
      </trkpt>
      <trkpt lat="50.95348" lon="1.85484">
        <ele>6.1</ele>
        <time>2020-06-22T21:23:58Z</time>
      </trkpt>
      <trkpt lat="50.95349" lon="1.85492">
        <ele>6.1</ele>
        <time>2020-06-22T21:23:59Z</time>
      </trkpt>
      <trkpt lat="50.95352" lon="1.85498">
        <ele>6.1</ele>
        <time>2020-06-22T21:24:00Z</time>
      </trkpt>
      <trkpt lat="50.95354" lon="1.85505">
        <ele>6.1</ele>
        <time>2020-06-22T21:24:01Z</time>
      </trkpt>
      <trkpt lat="50.95356" lon="1.85511">
        <ele>6.1</ele>
        <time>2020-06-22T21:24:02Z</time>
      </trkpt>
      <trkpt lat="50.95357" lon="1.85517">
        <ele>6.1</ele>
        <time>2020-06-22T21:24:03Z</time>
      </trkpt>
      <trkpt lat="50.95359" lon="1.85524">
        <ele>6.1</ele>
        <time>2020-06-22T21:24:04Z</time>
      </trkpt>
      <trkpt lat="50.95362" lon="1.8553">
        <ele>6.1</ele>
        <time>2020-06-22T21:24:05Z</time>
      </trkpt>
      <trkpt lat="50.95365" lon="1.85536">
        <ele>6.1</ele>
        <time>2020-06-22T21:24:06Z</time>
      </trkpt>
      <trkpt lat="50.95368" lon="1.85542">
        <ele>6.1</ele>
        <time>2020-06-22T21:24:07Z</time>
      </trkpt>
      <trkpt lat="50.9537" lon="1.85549">
        <ele>6</ele>
        <time>2020-06-22T21:24:08Z</time>
      </trkpt>
      <trkpt lat="50.95372" lon="1.85556">
        <ele>6</ele>
        <time>2020-06-22T21:24:09Z</time>
      </trkpt>
      <trkpt lat="50.95375" lon="1.85562">
        <ele>6</ele>
        <time>2020-06-22T21:24:10Z</time>
      </trkpt>
      <trkpt lat="50.95377" lon="1.8557">
        <ele>6</ele>
        <time>2020-06-22T21:24:11Z</time>
      </trkpt>
      <trkpt lat="50.95378" lon="1.85577">
        <ele>6</ele>
        <time>2020-06-22T21:24:12Z</time>
      </trkpt>
      <trkpt lat="50.95375" lon="1.85583">
        <ele>6</ele>
        <time>2020-06-22T21:24:13Z</time>
      </trkpt>
      <trkpt lat="50.95374" lon="1.85589">
        <ele>5.9</ele>
        <time>2020-06-22T21:24:14Z</time>
      </trkpt>
      <trkpt lat="50.95373" lon="1.85595">
        <ele>6</ele>
        <time>2020-06-22T21:24:15Z</time>
      </trkpt>
      <trkpt lat="50.95373" lon="1.856">
        <ele>6</ele>
        <time>2020-06-22T21:24:16Z</time>
      </trkpt>
      <trkpt lat="50.95374" lon="1.85605">
        <ele>5.9</ele>
        <time>2020-06-22T21:24:17Z</time>
      </trkpt>
      <trkpt lat="50.95375" lon="1.8561">
        <ele>5.7</ele>
        <time>2020-06-22T21:24:18Z</time>
      </trkpt>
      <trkpt lat="50.95375" lon="1.85616">
        <ele>5.5</ele>
        <time>2020-06-22T21:24:19Z</time>
      </trkpt>
      <trkpt lat="50.95376" lon="1.85621">
        <ele>5.3</ele>
        <time>2020-06-22T21:24:20Z</time>
      </trkpt>
      <trkpt lat="50.95377" lon="1.85627">
        <ele>5</ele>
        <time>2020-06-22T21:24:21Z</time>
      </trkpt>
      <trkpt lat="50.95378" lon="1.85633">
        <ele>4.8</ele>
        <time>2020-06-22T21:24:22Z</time>
      </trkpt>
      <trkpt lat="50.95379" lon="1.85639">
        <ele>4.7</ele>
        <time>2020-06-22T21:24:23Z</time>
      </trkpt>
      <trkpt lat="50.9538" lon="1.85646">
        <ele>4.7</ele>
        <time>2020-06-22T21:24:24Z</time>
      </trkpt>
      <trkpt lat="50.95382" lon="1.85652">
        <ele>4.7</ele>
        <time>2020-06-22T21:24:25Z</time>
      </trkpt>
      <trkpt lat="50.95382" lon="1.85658">
        <ele>4.7</ele>
        <time>2020-06-22T21:24:26Z</time>
      </trkpt>
      <trkpt lat="50.95384" lon="1.85664">
        <ele>4.6</ele>
        <time>2020-06-22T21:24:27Z</time>
      </trkpt>
      <trkpt lat="50.95385" lon="1.85668">
        <ele>4.6</ele>
        <time>2020-06-22T21:24:28Z</time>
      </trkpt>
      <trkpt lat="50.95387" lon="1.85672">
        <ele>4.6</ele>
        <time>2020-06-22T21:24:29Z</time>
      </trkpt>
      <trkpt lat="50.95388" lon="1.85677">
        <ele>4.6</ele>
        <time>2020-06-22T21:24:30Z</time>
      </trkpt>
      <trkpt lat="50.9539" lon="1.8568">
        <ele>4.6</ele>
        <time>2020-06-22T21:24:31Z</time>
      </trkpt>
      <trkpt lat="50.95393" lon="1.85683">
        <ele>4.6</ele>
        <time>2020-06-22T21:24:32Z</time>
      </trkpt>
      <trkpt lat="50.95395" lon="1.85686">
        <ele>4.5</ele>
        <time>2020-06-22T21:24:33Z</time>
      </trkpt>
      <trkpt lat="50.95397" lon="1.85691">
        <ele>4.5</ele>
        <time>2020-06-22T21:24:34Z</time>
      </trkpt>
      <trkpt lat="50.95398" lon="1.85692">
        <ele>4.5</ele>
        <time>2020-06-22T21:24:35Z</time>
      </trkpt>
      <trkpt lat="50.95401" lon="1.85696">
        <ele>4.5</ele>
        <time>2020-06-22T21:24:36Z</time>
      </trkpt>
      <trkpt lat="50.95403" lon="1.85699">
        <ele>4.5</ele>
        <time>2020-06-22T21:24:37Z</time>
      </trkpt>
      <trkpt lat="50.95405" lon="1.85702">
        <ele>4.5</ele>
        <time>2020-06-22T21:24:38Z</time>
      </trkpt>
      <trkpt lat="50.95408" lon="1.85705">
        <ele>4.5</ele>
        <time>2020-06-22T21:24:39Z</time>
      </trkpt>
      <trkpt lat="50.95409" lon="1.8571">
        <ele>4.4</ele>
        <time>2020-06-22T21:24:40Z</time>
      </trkpt>
      <trkpt lat="50.95412" lon="1.85714">
        <ele>4.4</ele>
        <time>2020-06-22T21:24:41Z</time>
      </trkpt>
      <trkpt lat="50.95413" lon="1.85719">
        <ele>4.4</ele>
        <time>2020-06-22T21:24:42Z</time>
      </trkpt>
      <trkpt lat="50.95415" lon="1.85722">
        <ele>6</ele>
        <time>2020-06-22T21:24:43Z</time>
      </trkpt>
      <trkpt lat="50.95417" lon="1.85726">
        <ele>6.2</ele>
        <time>2020-06-22T21:24:44Z</time>
      </trkpt>
      <trkpt lat="50.95419" lon="1.85731">
        <ele>6.4</ele>
        <time>2020-06-22T21:24:45Z</time>
      </trkpt>
      <trkpt lat="50.9542" lon="1.85733">
        <ele>6.5</ele>
        <time>2020-06-22T21:24:46Z</time>
      </trkpt>
      <trkpt lat="50.95422" lon="1.85736">
        <ele>6.4</ele>
        <time>2020-06-22T21:24:47Z</time>
      </trkpt>
      <trkpt lat="50.95425" lon="1.8574">
        <ele>6.5</ele>
        <time>2020-06-22T21:24:48Z</time>
      </trkpt>
      <trkpt lat="50.95428" lon="1.85746">
        <ele>6.5</ele>
        <time>2020-06-22T21:24:49Z</time>
      </trkpt>
      <trkpt lat="50.95429" lon="1.85752">
        <ele>6.5</ele>
        <time>2020-06-22T21:24:50Z</time>
      </trkpt>
      <trkpt lat="50.9543" lon="1.85759">
        <ele>6.5</ele>
        <time>2020-06-22T21:24:51Z</time>
      </trkpt>
      <trkpt lat="50.95431" lon="1.85767">
        <ele>6.5</ele>
        <time>2020-06-22T21:24:52Z</time>
      </trkpt>
      <trkpt lat="50.95433" lon="1.85774">
        <ele>6.5</ele>
        <time>2020-06-22T21:24:53Z</time>
      </trkpt>
      <trkpt lat="50.95435" lon="1.85782">
        <ele>6.5</ele>
        <time>2020-06-22T21:24:54Z</time>
      </trkpt>
      <trkpt lat="50.95437" lon="1.85789">
        <ele>6.4</ele>
        <time>2020-06-22T21:24:55Z</time>
      </trkpt>
      <trkpt lat="50.95439" lon="1.85796">
        <ele>6.4</ele>
        <time>2020-06-22T21:24:56Z</time>
      </trkpt>
      <trkpt lat="50.95441" lon="1.85804">
        <ele>6.4</ele>
        <time>2020-06-22T21:24:57Z</time>
      </trkpt>
      <trkpt lat="50.95442" lon="1.85812">
        <ele>6.4</ele>
        <time>2020-06-22T21:24:58Z</time>
      </trkpt>
      <trkpt lat="50.95444" lon="1.8582">
        <ele>6.4</ele>
        <time>2020-06-22T21:24:59Z</time>
      </trkpt>
      <trkpt lat="50.95445" lon="1.85829">
        <ele>6.4</ele>
        <time>2020-06-22T21:25:00Z</time>
      </trkpt>
      <trkpt lat="50.95447" lon="1.85837">
        <ele>6.4</ele>
        <time>2020-06-22T21:25:01Z</time>
      </trkpt>
      <trkpt lat="50.95448" lon="1.85846">
        <ele>6.4</ele>
        <time>2020-06-22T21:25:02Z</time>
      </trkpt>
      <trkpt lat="50.95448" lon="1.85856">
        <ele>6.4</ele>
        <time>2020-06-22T21:25:03Z</time>
      </trkpt>
      <trkpt lat="50.9545" lon="1.85865">
        <ele>6.4</ele>
        <time>2020-06-22T21:25:04Z</time>
      </trkpt>
      <trkpt lat="50.95451" lon="1.85874">
        <ele>6.4</ele>
        <time>2020-06-22T21:25:05Z</time>
      </trkpt>
      <trkpt lat="50.95453" lon="1.85884">
        <ele>6.4</ele>
        <time>2020-06-22T21:25:06Z</time>
      </trkpt>
      <trkpt lat="50.95454" lon="1.85894">
        <ele>6.4</ele>
        <time>2020-06-22T21:25:07Z</time>
      </trkpt>
      <trkpt lat="50.95455" lon="1.85906">
        <ele>6.4</ele>
        <time>2020-06-22T21:25:08Z</time>
      </trkpt>
      <trkpt lat="50.95457" lon="1.85915">
        <ele>6.4</ele>
        <time>2020-06-22T21:25:09Z</time>
      </trkpt>
      <trkpt lat="50.95459" lon="1.85923">
        <ele>6.4</ele>
        <time>2020-06-22T21:25:10Z</time>
      </trkpt>
      <trkpt lat="50.9546" lon="1.8593">
        <ele>6.5</ele>
        <time>2020-06-22T21:25:11Z</time>
      </trkpt>
      <trkpt lat="50.95462" lon="1.8594">
        <ele>6.5</ele>
        <time>2020-06-22T21:25:12Z</time>
      </trkpt>
      <trkpt lat="50.95462" lon="1.85948">
        <ele>6.5</ele>
        <time>2020-06-22T21:25:13Z</time>
      </trkpt>
      <trkpt lat="50.95463" lon="1.85956">
        <ele>6.6</ele>
        <time>2020-06-22T21:25:14Z</time>
      </trkpt>
      <trkpt lat="50.95464" lon="1.85964">
        <ele>6.6</ele>
        <time>2020-06-22T21:25:15Z</time>
      </trkpt>
      <trkpt lat="50.95466" lon="1.85972">
        <ele>6.6</ele>
        <time>2020-06-22T21:25:16Z</time>
      </trkpt>
      <trkpt lat="50.95467" lon="1.85979">
        <ele>6.6</ele>
        <time>2020-06-22T21:25:17Z</time>
      </trkpt>
      <trkpt lat="50.95468" lon="1.85985">
        <ele>6.6</ele>
        <time>2020-06-22T21:25:18Z</time>
      </trkpt>
      <trkpt lat="50.9547" lon="1.85992">
        <ele>6.5</ele>
        <time>2020-06-22T21:25:19Z</time>
      </trkpt>
      <trkpt lat="50.95472" lon="1.86">
        <ele>6.4</ele>
        <time>2020-06-22T21:25:20Z</time>
      </trkpt>
      <trkpt lat="50.95475" lon="1.86008">
        <ele>6.4</ele>
        <time>2020-06-22T21:25:21Z</time>
      </trkpt>
      <trkpt lat="50.95476" lon="1.86019">
        <ele>6.3</ele>
        <time>2020-06-22T21:25:22Z</time>
      </trkpt>
      <trkpt lat="50.95478" lon="1.86028">
        <ele>6.2</ele>
        <time>2020-06-22T21:25:23Z</time>
      </trkpt>
      <trkpt lat="50.9548" lon="1.86036">
        <ele>6.1</ele>
        <time>2020-06-22T21:25:24Z</time>
      </trkpt>
      <trkpt lat="50.95482" lon="1.86043">
        <ele>6.1</ele>
        <time>2020-06-22T21:25:25Z</time>
      </trkpt>
      <trkpt lat="50.95485" lon="1.86055">
        <ele>6</ele>
        <time>2020-06-22T21:25:26Z</time>
      </trkpt>
      <trkpt lat="50.95486" lon="1.8606">
        <ele>5.9</ele>
        <time>2020-06-22T21:25:27Z</time>
      </trkpt>
      <trkpt lat="50.95488" lon="1.86069">
        <ele>5.8</ele>
        <time>2020-06-22T21:25:28Z</time>
      </trkpt>
      <trkpt lat="50.9549" lon="1.86077">
        <ele>5.8</ele>
        <time>2020-06-22T21:25:29Z</time>
      </trkpt>
      <trkpt lat="50.95493" lon="1.86086">
        <ele>5.7</ele>
        <time>2020-06-22T21:25:30Z</time>
      </trkpt>
      <trkpt lat="50.95495" lon="1.86094">
        <ele>5.7</ele>
        <time>2020-06-22T21:25:31Z</time>
      </trkpt>
      <trkpt lat="50.95498" lon="1.86102">
        <ele>5.6</ele>
        <time>2020-06-22T21:25:32Z</time>
      </trkpt>
      <trkpt lat="50.955" lon="1.86111">
        <ele>5.6</ele>
        <time>2020-06-22T21:25:33Z</time>
      </trkpt>
      <trkpt lat="50.95503" lon="1.86116">
        <ele>5.6</ele>
        <time>2020-06-22T21:25:34Z</time>
      </trkpt>
      <trkpt lat="50.95505" lon="1.86126">
        <ele>5.6</ele>
        <time>2020-06-22T21:25:35Z</time>
      </trkpt>
      <trkpt lat="50.95507" lon="1.86136">
        <ele>5.6</ele>
        <time>2020-06-22T21:25:36Z</time>
      </trkpt>
      <trkpt lat="50.95508" lon="1.86142">
        <ele>5.6</ele>
        <time>2020-06-22T21:25:37Z</time>
      </trkpt>
      <trkpt lat="50.95509" lon="1.86149">
        <ele>5.6</ele>
        <time>2020-06-22T21:25:38Z</time>
      </trkpt>
      <trkpt lat="50.95511" lon="1.86157">
        <ele>5.5</ele>
        <time>2020-06-22T21:25:39Z</time>
      </trkpt>
      <trkpt lat="50.95513" lon="1.86164">
        <ele>5.5</ele>
        <time>2020-06-22T21:25:40Z</time>
      </trkpt>
      <trkpt lat="50.95515" lon="1.86174">
        <ele>5.5</ele>
        <time>2020-06-22T21:25:41Z</time>
      </trkpt>
      <trkpt lat="50.95517" lon="1.86181">
        <ele>5.5</ele>
        <time>2020-06-22T21:25:42Z</time>
      </trkpt>
      <trkpt lat="50.95519" lon="1.86188">
        <ele>5.5</ele>
        <time>2020-06-22T21:25:43Z</time>
      </trkpt>
      <trkpt lat="50.95521" lon="1.86196">
        <ele>5.4</ele>
        <time>2020-06-22T21:25:44Z</time>
      </trkpt>
      <trkpt lat="50.95524" lon="1.86205">
        <ele>5.4</ele>
        <time>2020-06-22T21:25:45Z</time>
      </trkpt>
      <trkpt lat="50.95526" lon="1.86213">
        <ele>5.4</ele>
        <time>2020-06-22T21:25:46Z</time>
      </trkpt>
      <trkpt lat="50.9553" lon="1.86224">
        <ele>5.3</ele>
        <time>2020-06-22T21:25:47Z</time>
      </trkpt>
      <trkpt lat="50.95531" lon="1.86235">
        <ele>5.3</ele>
        <time>2020-06-22T21:25:48Z</time>
      </trkpt>
      <trkpt lat="50.95534" lon="1.86245">
        <ele>5.3</ele>
        <time>2020-06-22T21:25:49Z</time>
      </trkpt>
      <trkpt lat="50.95536" lon="1.86255">
        <ele>5.3</ele>
        <time>2020-06-22T21:25:50Z</time>
      </trkpt>
      <trkpt lat="50.95538" lon="1.86265">
        <ele>5.3</ele>
        <time>2020-06-22T21:25:51Z</time>
      </trkpt>
      <trkpt lat="50.95541" lon="1.86273">
        <ele>5.3</ele>
        <time>2020-06-22T21:25:52Z</time>
      </trkpt>
      <trkpt lat="50.95544" lon="1.86282">
        <ele>5.3</ele>
        <time>2020-06-22T21:25:53Z</time>
      </trkpt>
      <trkpt lat="50.95546" lon="1.86293">
        <ele>5.3</ele>
        <time>2020-06-22T21:25:54Z</time>
      </trkpt>
      <trkpt lat="50.95547" lon="1.86301">
        <ele>5.3</ele>
        <time>2020-06-22T21:25:55Z</time>
      </trkpt>
      <trkpt lat="50.95548" lon="1.86312">
        <ele>5.3</ele>
        <time>2020-06-22T21:25:56Z</time>
      </trkpt>
      <trkpt lat="50.9555" lon="1.86323">
        <ele>5.2</ele>
        <time>2020-06-22T21:25:57Z</time>
      </trkpt>
      <trkpt lat="50.95551" lon="1.86332">
        <ele>5.2</ele>
        <time>2020-06-22T21:25:58Z</time>
      </trkpt>
      <trkpt lat="50.95553" lon="1.86338">
        <ele>5.2</ele>
        <time>2020-06-22T21:25:59Z</time>
      </trkpt>
      <trkpt lat="50.95554" lon="1.86345">
        <ele>5.1</ele>
        <time>2020-06-22T21:26:00Z</time>
      </trkpt>
      <trkpt lat="50.95556" lon="1.86352">
        <ele>5.1</ele>
        <time>2020-06-22T21:26:01Z</time>
      </trkpt>
      <trkpt lat="50.95557" lon="1.8636">
        <ele>5.1</ele>
        <time>2020-06-22T21:26:02Z</time>
      </trkpt>
      <trkpt lat="50.95559" lon="1.86367">
        <ele>5</ele>
        <time>2020-06-22T21:26:03Z</time>
      </trkpt>
      <trkpt lat="50.95562" lon="1.86375">
        <ele>5</ele>
        <time>2020-06-22T21:26:04Z</time>
      </trkpt>
      <trkpt lat="50.95564" lon="1.86383">
        <ele>5</ele>
        <time>2020-06-22T21:26:05Z</time>
      </trkpt>
      <trkpt lat="50.95567" lon="1.86394">
        <ele>5</ele>
        <time>2020-06-22T21:26:06Z</time>
      </trkpt>
      <trkpt lat="50.95569" lon="1.86404">
        <ele>4.9</ele>
        <time>2020-06-22T21:26:07Z</time>
      </trkpt>
      <trkpt lat="50.95571" lon="1.86412">
        <ele>4.9</ele>
        <time>2020-06-22T21:26:08Z</time>
      </trkpt>
      <trkpt lat="50.95572" lon="1.86422">
        <ele>4.8</ele>
        <time>2020-06-22T21:26:09Z</time>
      </trkpt>
      <trkpt lat="50.95574" lon="1.8643">
        <ele>4.7</ele>
        <time>2020-06-22T21:26:10Z</time>
      </trkpt>
      <trkpt lat="50.95576" lon="1.86439">
        <ele>4.6</ele>
        <time>2020-06-22T21:26:11Z</time>
      </trkpt>
      <trkpt lat="50.95578" lon="1.86447">
        <ele>4.5</ele>
        <time>2020-06-22T21:26:12Z</time>
      </trkpt>
      <trkpt lat="50.95579" lon="1.86456">
        <ele>4.4</ele>
        <time>2020-06-22T21:26:13Z</time>
      </trkpt>
      <trkpt lat="50.9558" lon="1.86465">
        <ele>4.3</ele>
        <time>2020-06-22T21:26:14Z</time>
      </trkpt>
      <trkpt lat="50.95582" lon="1.86474">
        <ele>4.2</ele>
        <time>2020-06-22T21:26:15Z</time>
      </trkpt>
      <trkpt lat="50.95584" lon="1.86483">
        <ele>4.1</ele>
        <time>2020-06-22T21:26:16Z</time>
      </trkpt>
      <trkpt lat="50.95587" lon="1.86491">
        <ele>4</ele>
        <time>2020-06-22T21:26:17Z</time>
      </trkpt>
      <trkpt lat="50.95589" lon="1.865">
        <ele>3.9</ele>
        <time>2020-06-22T21:26:18Z</time>
      </trkpt>
      <trkpt lat="50.9559" lon="1.8651">
        <ele>3.8</ele>
        <time>2020-06-22T21:26:19Z</time>
      </trkpt>
      <trkpt lat="50.95593" lon="1.86519">
        <ele>3.7</ele>
        <time>2020-06-22T21:26:20Z</time>
      </trkpt>
      <trkpt lat="50.95594" lon="1.86531">
        <ele>3.6</ele>
        <time>2020-06-22T21:26:21Z</time>
      </trkpt>
      <trkpt lat="50.95596" lon="1.86541">
        <ele>3.5</ele>
        <time>2020-06-22T21:26:22Z</time>
      </trkpt>
      <trkpt lat="50.95598" lon="1.86551">
        <ele>3.5</ele>
        <time>2020-06-22T21:26:23Z</time>
      </trkpt>
      <trkpt lat="50.956" lon="1.86558">
        <ele>3.5</ele>
        <time>2020-06-22T21:26:24Z</time>
      </trkpt>
      <trkpt lat="50.95602" lon="1.86567">
        <ele>3.4</ele>
        <time>2020-06-22T21:26:25Z</time>
      </trkpt>
      <trkpt lat="50.95604" lon="1.86578">
        <ele>3.4</ele>
        <time>2020-06-22T21:26:26Z</time>
      </trkpt>
      <trkpt lat="50.95605" lon="1.86589">
        <ele>3.4</ele>
        <time>2020-06-22T21:26:27Z</time>
      </trkpt>
      <trkpt lat="50.95608" lon="1.86599">
        <ele>3.3</ele>
        <time>2020-06-22T21:26:28Z</time>
      </trkpt>
      <trkpt lat="50.9561" lon="1.8661">
        <ele>3.3</ele>
        <time>2020-06-22T21:26:29Z</time>
      </trkpt>
      <trkpt lat="50.95612" lon="1.86619">
        <ele>3.2</ele>
        <time>2020-06-22T21:26:30Z</time>
      </trkpt>
      <trkpt lat="50.95613" lon="1.86628">
        <ele>3.2</ele>
        <time>2020-06-22T21:26:31Z</time>
      </trkpt>
      <trkpt lat="50.95616" lon="1.86639">
        <ele>3.2</ele>
        <time>2020-06-22T21:26:32Z</time>
      </trkpt>
      <trkpt lat="50.95619" lon="1.86649">
        <ele>3.1</ele>
        <time>2020-06-22T21:26:33Z</time>
      </trkpt>
      <trkpt lat="50.95622" lon="1.86658">
        <ele>3.1</ele>
        <time>2020-06-22T21:26:34Z</time>
      </trkpt>
      <trkpt lat="50.95623" lon="1.86666">
        <ele>3.1</ele>
        <time>2020-06-22T21:26:35Z</time>
      </trkpt>
      <trkpt lat="50.95625" lon="1.86676">
        <ele>3</ele>
        <time>2020-06-22T21:26:36Z</time>
      </trkpt>
      <trkpt lat="50.95629" lon="1.86686">
        <ele>3</ele>
        <time>2020-06-22T21:26:37Z</time>
      </trkpt>
      <trkpt lat="50.95631" lon="1.86697">
        <ele>3</ele>
        <time>2020-06-22T21:26:38Z</time>
      </trkpt>
      <trkpt lat="50.95632" lon="1.86708">
        <ele>3</ele>
        <time>2020-06-22T21:26:39Z</time>
      </trkpt>
      <trkpt lat="50.95633" lon="1.86716">
        <ele>3</ele>
        <time>2020-06-22T21:26:40Z</time>
      </trkpt>
      <trkpt lat="50.95634" lon="1.86725">
        <ele>3</ele>
        <time>2020-06-22T21:26:41Z</time>
      </trkpt>
      <trkpt lat="50.95636" lon="1.86734">
        <ele>3</ele>
        <time>2020-06-22T21:26:42Z</time>
      </trkpt>
      <trkpt lat="50.95639" lon="1.86744">
        <ele>3</ele>
        <time>2020-06-22T21:26:43Z</time>
      </trkpt>
      <trkpt lat="50.95641" lon="1.86754">
        <ele>3</ele>
        <time>2020-06-22T21:26:44Z</time>
      </trkpt>
      <trkpt lat="50.95642" lon="1.86762">
        <ele>3.1</ele>
        <time>2020-06-22T21:26:45Z</time>
      </trkpt>
      <trkpt lat="50.95644" lon="1.86771">
        <ele>3.1</ele>
        <time>2020-06-22T21:26:46Z</time>
      </trkpt>
      <trkpt lat="50.95645" lon="1.86781">
        <ele>3.1</ele>
        <time>2020-06-22T21:26:47Z</time>
      </trkpt>
      <trkpt lat="50.95646" lon="1.8679">
        <ele>3.1</ele>
        <time>2020-06-22T21:26:48Z</time>
      </trkpt>
      <trkpt lat="50.95648" lon="1.86798">
        <ele>3.1</ele>
        <time>2020-06-22T21:26:49Z</time>
      </trkpt>
      <trkpt lat="50.9565" lon="1.86808">
        <ele>3.1</ele>
        <time>2020-06-22T21:26:50Z</time>
      </trkpt>
      <trkpt lat="50.95652" lon="1.86817">
        <ele>3.1</ele>
        <time>2020-06-22T21:26:51Z</time>
      </trkpt>
      <trkpt lat="50.95654" lon="1.86828">
        <ele>3.1</ele>
        <time>2020-06-22T21:26:52Z</time>
      </trkpt>
      <trkpt lat="50.95656" lon="1.86839">
        <ele>3</ele>
        <time>2020-06-22T21:26:53Z</time>
      </trkpt>
      <trkpt lat="50.95658" lon="1.8685">
        <ele>3</ele>
        <time>2020-06-22T21:26:54Z</time>
      </trkpt>
      <trkpt lat="50.95659" lon="1.8686">
        <ele>3</ele>
        <time>2020-06-22T21:26:55Z</time>
      </trkpt>
      <trkpt lat="50.95661" lon="1.86869">
        <ele>3</ele>
        <time>2020-06-22T21:26:56Z</time>
      </trkpt>
      <trkpt lat="50.95663" lon="1.86879">
        <ele>3</ele>
        <time>2020-06-22T21:26:57Z</time>
      </trkpt>
      <trkpt lat="50.95664" lon="1.86888">
        <ele>3.1</ele>
        <time>2020-06-22T21:26:58Z</time>
      </trkpt>
      <trkpt lat="50.95664" lon="1.86897">
        <ele>3.1</ele>
        <time>2020-06-22T21:26:59Z</time>
      </trkpt>
      <trkpt lat="50.95666" lon="1.86908">
        <ele>3.2</ele>
        <time>2020-06-22T21:27:00Z</time>
      </trkpt>
      <trkpt lat="50.95668" lon="1.86917">
        <ele>3.2</ele>
        <time>2020-06-22T21:27:01Z</time>
      </trkpt>
      <trkpt lat="50.9567" lon="1.86927">
        <ele>3.3</ele>
        <time>2020-06-22T21:27:02Z</time>
      </trkpt>
      <trkpt lat="50.95671" lon="1.86934">
        <ele>3.3</ele>
        <time>2020-06-22T21:27:03Z</time>
      </trkpt>
      <trkpt lat="50.95673" lon="1.86941">
        <ele>3.4</ele>
        <time>2020-06-22T21:27:04Z</time>
      </trkpt>
      <trkpt lat="50.95675" lon="1.86948">
        <ele>3.4</ele>
        <time>2020-06-22T21:27:05Z</time>
      </trkpt>
      <trkpt lat="50.95677" lon="1.86957">
        <ele>3.3</ele>
        <time>2020-06-22T21:27:06Z</time>
      </trkpt>
      <trkpt lat="50.9568" lon="1.86967">
        <ele>3.3</ele>
        <time>2020-06-22T21:27:07Z</time>
      </trkpt>
      <trkpt lat="50.95682" lon="1.86979">
        <ele>3.3</ele>
        <time>2020-06-22T21:27:08Z</time>
      </trkpt>
      <trkpt lat="50.95684" lon="1.86985">
        <ele>3.2</ele>
        <time>2020-06-22T21:27:09Z</time>
      </trkpt>
      <trkpt lat="50.95687" lon="1.86995">
        <ele>3.2</ele>
        <time>2020-06-22T21:27:10Z</time>
      </trkpt>
      <trkpt lat="50.95689" lon="1.87004">
        <ele>3.2</ele>
        <time>2020-06-22T21:27:11Z</time>
      </trkpt>
      <trkpt lat="50.95692" lon="1.87014">
        <ele>3.2</ele>
        <time>2020-06-22T21:27:12Z</time>
      </trkpt>
      <trkpt lat="50.95695" lon="1.87026">
        <ele>3.2</ele>
        <time>2020-06-22T21:27:13Z</time>
      </trkpt>
      <trkpt lat="50.95697" lon="1.87036">
        <ele>3.2</ele>
        <time>2020-06-22T21:27:14Z</time>
      </trkpt>
      <trkpt lat="50.95699" lon="1.87047">
        <ele>3.2</ele>
        <time>2020-06-22T21:27:15Z</time>
      </trkpt>
      <trkpt lat="50.95701" lon="1.87056">
        <ele>3.1</ele>
        <time>2020-06-22T21:27:16Z</time>
      </trkpt>
      <trkpt lat="50.95701" lon="1.87065">
        <ele>3.1</ele>
        <time>2020-06-22T21:27:17Z</time>
      </trkpt>
      <trkpt lat="50.95703" lon="1.87074">
        <ele>3</ele>
        <time>2020-06-22T21:27:18Z</time>
      </trkpt>
      <trkpt lat="50.95705" lon="1.87082">
        <ele>3</ele>
        <time>2020-06-22T21:27:19Z</time>
      </trkpt>
      <trkpt lat="50.95706" lon="1.8709">
        <ele>2.9</ele>
        <time>2020-06-22T21:27:20Z</time>
      </trkpt>
      <trkpt lat="50.95708" lon="1.87099">
        <ele>2.9</ele>
        <time>2020-06-22T21:27:21Z</time>
      </trkpt>
      <trkpt lat="50.95709" lon="1.87105">
        <ele>2.8</ele>
        <time>2020-06-22T21:27:22Z</time>
      </trkpt>
      <trkpt lat="50.95712" lon="1.87113">
        <ele>2.8</ele>
        <time>2020-06-22T21:27:23Z</time>
      </trkpt>
      <trkpt lat="50.95714" lon="1.87119">
        <ele>2.8</ele>
        <time>2020-06-22T21:27:24Z</time>
      </trkpt>
      <trkpt lat="50.95717" lon="1.87128">
        <ele>2.7</ele>
        <time>2020-06-22T21:27:25Z</time>
      </trkpt>
      <trkpt lat="50.95718" lon="1.87133">
        <ele>2.7</ele>
        <time>2020-06-22T21:27:26Z</time>
      </trkpt>
      <trkpt lat="50.95721" lon="1.87144">
        <ele>2.7</ele>
        <time>2020-06-22T21:27:27Z</time>
      </trkpt>
      <trkpt lat="50.95723" lon="1.87154">
        <ele>2.6</ele>
        <time>2020-06-22T21:27:28Z</time>
      </trkpt>
      <trkpt lat="50.95725" lon="1.87163">
        <ele>2.6</ele>
        <time>2020-06-22T21:27:29Z</time>
      </trkpt>
      <trkpt lat="50.95729" lon="1.87171">
        <ele>2.6</ele>
        <time>2020-06-22T21:27:30Z</time>
      </trkpt>
      <trkpt lat="50.95731" lon="1.87181">
        <ele>2.6</ele>
        <time>2020-06-22T21:27:31Z</time>
      </trkpt>
      <trkpt lat="50.95731" lon="1.87189">
        <ele>2.5</ele>
        <time>2020-06-22T21:27:32Z</time>
      </trkpt>
      <trkpt lat="50.95733" lon="1.87197">
        <ele>2.5</ele>
        <time>2020-06-22T21:27:33Z</time>
      </trkpt>
      <trkpt lat="50.95736" lon="1.87207">
        <ele>2.5</ele>
        <time>2020-06-22T21:27:34Z</time>
      </trkpt>
      <trkpt lat="50.9574" lon="1.87218">
        <ele>2.5</ele>
        <time>2020-06-22T21:27:35Z</time>
      </trkpt>
      <trkpt lat="50.95742" lon="1.87227">
        <ele>2.5</ele>
        <time>2020-06-22T21:27:36Z</time>
      </trkpt>
      <trkpt lat="50.95744" lon="1.87236">
        <ele>2.5</ele>
        <time>2020-06-22T21:27:37Z</time>
      </trkpt>
      <trkpt lat="50.95747" lon="1.87245">
        <ele>2.5</ele>
        <time>2020-06-22T21:27:38Z</time>
      </trkpt>
      <trkpt lat="50.95749" lon="1.87254">
        <ele>2.5</ele>
        <time>2020-06-22T21:27:39Z</time>
      </trkpt>
      <trkpt lat="50.9575" lon="1.87261">
        <ele>2.5</ele>
        <time>2020-06-22T21:27:40Z</time>
      </trkpt>
      <trkpt lat="50.9575" lon="1.87271">
        <ele>2.5</ele>
        <time>2020-06-22T21:27:41Z</time>
      </trkpt>
      <trkpt lat="50.95752" lon="1.87281">
        <ele>2.5</ele>
        <time>2020-06-22T21:27:42Z</time>
      </trkpt>
      <trkpt lat="50.95754" lon="1.87289">
        <ele>2.5</ele>
        <time>2020-06-22T21:27:43Z</time>
      </trkpt>
      <trkpt lat="50.95757" lon="1.87299">
        <ele>2.5</ele>
        <time>2020-06-22T21:27:44Z</time>
      </trkpt>
      <trkpt lat="50.95759" lon="1.87308">
        <ele>2.5</ele>
        <time>2020-06-22T21:27:45Z</time>
      </trkpt>
      <trkpt lat="50.95761" lon="1.87318">
        <ele>2.5</ele>
        <time>2020-06-22T21:27:46Z</time>
      </trkpt>
      <trkpt lat="50.95763" lon="1.87329">
        <ele>2.6</ele>
        <time>2020-06-22T21:27:47Z</time>
      </trkpt>
      <trkpt lat="50.95764" lon="1.87339">
        <ele>2.6</ele>
        <time>2020-06-22T21:27:48Z</time>
      </trkpt>
      <trkpt lat="50.95767" lon="1.87347">
        <ele>2.6</ele>
        <time>2020-06-22T21:27:49Z</time>
      </trkpt>
      <trkpt lat="50.95768" lon="1.87357">
        <ele>2.6</ele>
        <time>2020-06-22T21:27:50Z</time>
      </trkpt>
      <trkpt lat="50.9577" lon="1.87365">
        <ele>2.6</ele>
        <time>2020-06-22T21:27:51Z</time>
      </trkpt>
      <trkpt lat="50.95772" lon="1.87373">
        <ele>2.7</ele>
        <time>2020-06-22T21:27:52Z</time>
      </trkpt>
      <trkpt lat="50.95774" lon="1.87382">
        <ele>2.7</ele>
        <time>2020-06-22T21:27:53Z</time>
      </trkpt>
      <trkpt lat="50.95776" lon="1.87391">
        <ele>2.7</ele>
        <time>2020-06-22T21:27:54Z</time>
      </trkpt>
      <trkpt lat="50.95778" lon="1.87399">
        <ele>2.8</ele>
        <time>2020-06-22T21:27:55Z</time>
      </trkpt>
      <trkpt lat="50.95779" lon="1.87406">
        <ele>2.8</ele>
        <time>2020-06-22T21:27:56Z</time>
      </trkpt>
      <trkpt lat="50.9578" lon="1.87413">
        <ele>2.9</ele>
        <time>2020-06-22T21:27:57Z</time>
      </trkpt>
      <trkpt lat="50.95781" lon="1.87418">
        <ele>2.9</ele>
        <time>2020-06-22T21:27:58Z</time>
      </trkpt>
      <trkpt lat="50.95783" lon="1.87424">
        <ele>3</ele>
        <time>2020-06-22T21:27:59Z</time>
      </trkpt>
      <trkpt lat="50.95784" lon="1.8743">
        <ele>3.1</ele>
        <time>2020-06-22T21:28:00Z</time>
      </trkpt>
      <trkpt lat="50.95785" lon="1.87436">
        <ele>3.1</ele>
        <time>2020-06-22T21:28:01Z</time>
      </trkpt>
      <trkpt lat="50.95786" lon="1.87444">
        <ele>3.2</ele>
        <time>2020-06-22T21:28:02Z</time>
      </trkpt>
      <trkpt lat="50.95787" lon="1.87449">
        <ele>3.3</ele>
        <time>2020-06-22T21:28:03Z</time>
      </trkpt>
      <trkpt lat="50.95789" lon="1.87455">
        <ele>3.4</ele>
        <time>2020-06-22T21:28:04Z</time>
      </trkpt>
      <trkpt lat="50.9579" lon="1.8746">
        <ele>3.4</ele>
        <time>2020-06-22T21:28:05Z</time>
      </trkpt>
      <trkpt lat="50.95791" lon="1.87465">
        <ele>3.5</ele>
        <time>2020-06-22T21:28:06Z</time>
      </trkpt>
      <trkpt lat="50.95792" lon="1.87471">
        <ele>3.5</ele>
        <time>2020-06-22T21:28:07Z</time>
      </trkpt>
      <trkpt lat="50.95793" lon="1.87476">
        <ele>3.6</ele>
        <time>2020-06-22T21:28:08Z</time>
      </trkpt>
      <trkpt lat="50.95796" lon="1.8748">
        <ele>3.8</ele>
        <time>2020-06-22T21:28:09Z</time>
      </trkpt>
      <trkpt lat="50.95799" lon="1.87483">
        <ele>3.9</ele>
        <time>2020-06-22T21:28:10Z</time>
      </trkpt>
      <trkpt lat="50.95802" lon="1.87483">
        <ele>4</ele>
        <time>2020-06-22T21:28:11Z</time>
      </trkpt>
      <trkpt lat="50.95807" lon="1.87483">
        <ele>4.1</ele>
        <time>2020-06-22T21:28:12Z</time>
      </trkpt>
      <trkpt lat="50.95811" lon="1.87482">
        <ele>4.2</ele>
        <time>2020-06-22T21:28:13Z</time>
      </trkpt>
      <trkpt lat="50.95815" lon="1.8748">
        <ele>4.2</ele>
        <time>2020-06-22T21:28:14Z</time>
      </trkpt>
      <trkpt lat="50.95819" lon="1.87479">
        <ele>4.2</ele>
        <time>2020-06-22T21:28:15Z</time>
      </trkpt>
      <trkpt lat="50.95824" lon="1.87477">
        <ele>4.2</ele>
        <time>2020-06-22T21:28:16Z</time>
      </trkpt>
      <trkpt lat="50.95829" lon="1.87475">
        <ele>4.2</ele>
        <time>2020-06-22T21:28:17Z</time>
      </trkpt>
      <trkpt lat="50.95834" lon="1.87474">
        <ele>4.1</ele>
        <time>2020-06-22T21:28:18Z</time>
      </trkpt>
      <trkpt lat="50.95838" lon="1.87472">
        <ele>4.1</ele>
        <time>2020-06-22T21:28:19Z</time>
      </trkpt>
      <trkpt lat="50.95839" lon="1.87472">
        <ele>4.1</ele>
        <time>2020-06-22T21:28:20Z</time>
      </trkpt>
      <trkpt lat="50.95845" lon="1.8747">
        <ele>4.1</ele>
        <time>2020-06-22T21:28:21Z</time>
      </trkpt>
      <trkpt lat="50.95848" lon="1.87468">
        <ele>4.1</ele>
        <time>2020-06-22T21:28:22Z</time>
      </trkpt>
      <trkpt lat="50.95852" lon="1.87466">
        <ele>4.1</ele>
        <time>2020-06-22T21:28:23Z</time>
      </trkpt>
      <trkpt lat="50.95856" lon="1.87464">
        <ele>4.1</ele>
        <time>2020-06-22T21:28:24Z</time>
      </trkpt>
      <trkpt lat="50.95861" lon="1.87462">
        <ele>4.1</ele>
        <time>2020-06-22T21:28:25Z</time>
      </trkpt>
      <trkpt lat="50.95865" lon="1.87461">
        <ele>4.1</ele>
        <time>2020-06-22T21:28:26Z</time>
      </trkpt>
      <trkpt lat="50.9587" lon="1.87459">
        <ele>4.1</ele>
        <time>2020-06-22T21:28:27Z</time>
      </trkpt>
      <trkpt lat="50.95875" lon="1.87458">
        <ele>4.1</ele>
        <time>2020-06-22T21:28:28Z</time>
      </trkpt>
      <trkpt lat="50.95879" lon="1.87457">
        <ele>4.1</ele>
        <time>2020-06-22T21:28:29Z</time>
      </trkpt>
      <trkpt lat="50.95885" lon="1.87456">
        <ele>4.1</ele>
        <time>2020-06-22T21:28:30Z</time>
      </trkpt>
      <trkpt lat="50.9589" lon="1.87455">
        <ele>4.1</ele>
        <time>2020-06-22T21:28:31Z</time>
      </trkpt>
      <trkpt lat="50.95893" lon="1.87455">
        <ele>4.1</ele>
        <time>2020-06-22T21:28:32Z</time>
      </trkpt>
      <trkpt lat="50.95898" lon="1.87454">
        <ele>4.1</ele>
        <time>2020-06-22T21:28:33Z</time>
      </trkpt>
      <trkpt lat="50.95903" lon="1.87453">
        <ele>4.1</ele>
        <time>2020-06-22T21:28:34Z</time>
      </trkpt>
      <trkpt lat="50.95906" lon="1.87452">
        <ele>4</ele>
        <time>2020-06-22T21:28:35Z</time>
      </trkpt>
      <trkpt lat="50.95911" lon="1.87453">
        <ele>3.8</ele>
        <time>2020-06-22T21:28:36Z</time>
      </trkpt>
      <trkpt lat="50.95914" lon="1.87452">
        <ele>3.8</ele>
        <time>2020-06-22T21:28:37Z</time>
      </trkpt>
      <trkpt lat="50.95919" lon="1.87451">
        <ele>3.8</ele>
        <time>2020-06-22T21:28:38Z</time>
      </trkpt>
      <trkpt lat="50.95921" lon="1.87451">
        <ele>3.7</ele>
        <time>2020-06-22T21:28:39Z</time>
      </trkpt>
      <trkpt lat="50.95925" lon="1.8745">
        <ele>3.7</ele>
        <time>2020-06-22T21:28:40Z</time>
      </trkpt>
      <trkpt lat="50.95928" lon="1.87449">
        <ele>3.7</ele>
        <time>2020-06-22T21:28:41Z</time>
      </trkpt>
      <trkpt lat="50.95931" lon="1.87449">
        <ele>3.7</ele>
        <time>2020-06-22T21:28:42Z</time>
      </trkpt>
      <trkpt lat="50.95932" lon="1.87448">
        <ele>3.7</ele>
        <time>2020-06-22T21:28:43Z</time>
      </trkpt>
      <trkpt lat="50.95936" lon="1.87446">
        <ele>3.7</ele>
        <time>2020-06-22T21:28:44Z</time>
      </trkpt>
      <trkpt lat="50.95939" lon="1.87445">
        <ele>3.7</ele>
        <time>2020-06-22T21:28:45Z</time>
      </trkpt>
      <trkpt lat="50.95943" lon="1.87444">
        <ele>3.7</ele>
        <time>2020-06-22T21:28:46Z</time>
      </trkpt>
      <trkpt lat="50.95947" lon="1.87444">
        <ele>3.7</ele>
        <time>2020-06-22T21:28:47Z</time>
      </trkpt>
      <trkpt lat="50.9595" lon="1.87442">
        <ele>3.7</ele>
        <time>2020-06-22T21:28:48Z</time>
      </trkpt>
      <trkpt lat="50.95951" lon="1.87441">
        <ele>3.7</ele>
        <time>2020-06-22T21:28:49Z</time>
      </trkpt>
      <trkpt lat="50.95955" lon="1.87438">
        <ele>3.7</ele>
        <time>2020-06-22T21:28:50Z</time>
      </trkpt>
      <trkpt lat="50.95957" lon="1.87438">
        <ele>3.7</ele>
        <time>2020-06-22T21:28:51Z</time>
      </trkpt>
      <trkpt lat="50.95958" lon="1.87437">
        <ele>3.7</ele>
        <time>2020-06-22T21:28:52Z</time>
      </trkpt>
      <trkpt lat="50.9596" lon="1.87437">
        <ele>3.8</ele>
        <time>2020-06-22T21:28:53Z</time>
      </trkpt>
      <trkpt lat="50.95961" lon="1.87438">
        <ele>3.8</ele>
        <time>2020-06-22T21:28:54Z</time>
      </trkpt>
      <trkpt lat="50.95965" lon="1.87439">
        <ele>3.8</ele>
        <time>2020-06-22T21:28:55Z</time>
      </trkpt>
      <trkpt lat="50.95966" lon="1.87439">
        <ele>3.8</ele>
        <time>2020-06-22T21:28:56Z</time>
      </trkpt>
      <trkpt lat="50.95968" lon="1.87439">
        <ele>3.8</ele>
        <time>2020-06-22T21:28:57Z</time>
      </trkpt>
      <trkpt lat="50.95969" lon="1.87437">
        <ele>3.8</ele>
        <time>2020-06-22T21:28:58Z</time>
      </trkpt>
      <trkpt lat="50.95968" lon="1.87435">
        <ele>3.7</ele>
        <time>2020-06-22T21:28:59Z</time>
      </trkpt>
      <trkpt lat="50.95967" lon="1.87435">
        <ele>3.7</ele>
        <time>2020-06-22T21:29:00Z</time>
      </trkpt>
      <trkpt lat="50.95966" lon="1.87435">
        <ele>3.7</ele>
        <time>2020-06-22T21:29:01Z</time>
      </trkpt>
      <trkpt lat="50.95965" lon="1.87435">
        <ele>3.7</ele>
        <time>2020-06-22T21:29:02Z</time>
      </trkpt>
      <trkpt lat="50.95961" lon="1.87436">
        <ele>3.7</ele>
        <time>2020-06-22T21:29:03Z</time>
      </trkpt>
      <trkpt lat="50.95956" lon="1.87438">
        <ele>3.7</ele>
        <time>2020-06-22T21:29:04Z</time>
      </trkpt>
      <trkpt lat="50.95952" lon="1.87439">
        <ele>3.7</ele>
        <time>2020-06-22T21:29:05Z</time>
      </trkpt>
      <trkpt lat="50.95947" lon="1.8744">
        <ele>3.7</ele>
        <time>2020-06-22T21:29:06Z</time>
      </trkpt>
      <trkpt lat="50.95943" lon="1.87441">
        <ele>3.7</ele>
        <time>2020-06-22T21:29:07Z</time>
      </trkpt>
      <trkpt lat="50.95938" lon="1.87441">
        <ele>3.7</ele>
        <time>2020-06-22T21:29:08Z</time>
      </trkpt>
      <trkpt lat="50.95933" lon="1.87442">
        <ele>3.7</ele>
        <time>2020-06-22T21:29:09Z</time>
      </trkpt>
      <trkpt lat="50.9593" lon="1.87443">
        <ele>3.7</ele>
        <time>2020-06-22T21:29:10Z</time>
      </trkpt>
      <trkpt lat="50.95925" lon="1.87444">
        <ele>3.7</ele>
        <time>2020-06-22T21:29:11Z</time>
      </trkpt>
      <trkpt lat="50.95921" lon="1.87447">
        <ele>3.8</ele>
        <time>2020-06-22T21:29:12Z</time>
      </trkpt>
      <trkpt lat="50.95916" lon="1.87447">
        <ele>3.8</ele>
        <time>2020-06-22T21:29:13Z</time>
      </trkpt>
      <trkpt lat="50.95912" lon="1.87448">
        <ele>3.8</ele>
        <time>2020-06-22T21:29:14Z</time>
      </trkpt>
      <trkpt lat="50.95908" lon="1.8745">
        <ele>3.9</ele>
        <time>2020-06-22T21:29:15Z</time>
      </trkpt>
      <trkpt lat="50.95903" lon="1.87451">
        <ele>4</ele>
        <time>2020-06-22T21:29:16Z</time>
      </trkpt>
      <trkpt lat="50.95899" lon="1.87452">
        <ele>4.1</ele>
        <time>2020-06-22T21:29:17Z</time>
      </trkpt>
      <trkpt lat="50.95894" lon="1.87454">
        <ele>4.1</ele>
        <time>2020-06-22T21:29:18Z</time>
      </trkpt>
      <trkpt lat="50.9589" lon="1.87455">
        <ele>4.1</ele>
        <time>2020-06-22T21:29:19Z</time>
      </trkpt>
      <trkpt lat="50.95885" lon="1.87456">
        <ele>4.1</ele>
        <time>2020-06-22T21:29:20Z</time>
      </trkpt>
      <trkpt lat="50.9588" lon="1.87457">
        <ele>4.1</ele>
        <time>2020-06-22T21:29:21Z</time>
      </trkpt>
      <trkpt lat="50.95875" lon="1.87458">
        <ele>4.1</ele>
        <time>2020-06-22T21:29:22Z</time>
      </trkpt>
      <trkpt lat="50.9587" lon="1.87458">
        <ele>4.1</ele>
        <time>2020-06-22T21:29:23Z</time>
      </trkpt>
      <trkpt lat="50.95865" lon="1.8746">
        <ele>4.1</ele>
        <time>2020-06-22T21:29:24Z</time>
      </trkpt>
      <trkpt lat="50.9586" lon="1.87462">
        <ele>4.1</ele>
        <time>2020-06-22T21:29:25Z</time>
      </trkpt>
      <trkpt lat="50.95856" lon="1.87466">
        <ele>4.1</ele>
        <time>2020-06-22T21:29:26Z</time>
      </trkpt>
      <trkpt lat="50.95852" lon="1.87468">
        <ele>4.1</ele>
        <time>2020-06-22T21:29:27Z</time>
      </trkpt>
      <trkpt lat="50.95848" lon="1.87468">
        <ele>4.1</ele>
        <time>2020-06-22T21:29:28Z</time>
      </trkpt>
      <trkpt lat="50.95843" lon="1.87469">
        <ele>4.1</ele>
        <time>2020-06-22T21:29:29Z</time>
      </trkpt>
      <trkpt lat="50.95839" lon="1.8747">
        <ele>4.1</ele>
        <time>2020-06-22T21:29:30Z</time>
      </trkpt>
      <trkpt lat="50.95836" lon="1.87472">
        <ele>4.1</ele>
        <time>2020-06-22T21:29:31Z</time>
      </trkpt>
      <trkpt lat="50.95831" lon="1.87474">
        <ele>4.1</ele>
        <time>2020-06-22T21:29:32Z</time>
      </trkpt>
      <trkpt lat="50.95827" lon="1.87474">
        <ele>4.2</ele>
        <time>2020-06-22T21:29:33Z</time>
      </trkpt>
      <trkpt lat="50.95825" lon="1.87474">
        <ele>4.2</ele>
        <time>2020-06-22T21:29:34Z</time>
      </trkpt>
      <trkpt lat="50.95822" lon="1.87475">
        <ele>4.2</ele>
        <time>2020-06-22T21:29:35Z</time>
      </trkpt>
      <trkpt lat="50.95818" lon="1.87476">
        <ele>4.2</ele>
        <time>2020-06-22T21:29:36Z</time>
      </trkpt>
      <trkpt lat="50.95816" lon="1.87477">
        <ele>4.2</ele>
        <time>2020-06-22T21:29:37Z</time>
      </trkpt>
      <trkpt lat="50.95812" lon="1.87478">
        <ele>4.2</ele>
        <time>2020-06-22T21:29:38Z</time>
      </trkpt>
      <trkpt lat="50.9581" lon="1.87478">
        <ele>4.2</ele>
        <time>2020-06-22T21:29:39Z</time>
      </trkpt>
      <trkpt lat="50.95805" lon="1.8748">
        <ele>4.1</ele>
        <time>2020-06-22T21:29:40Z</time>
      </trkpt>
      <trkpt lat="50.95802" lon="1.87481">
        <ele>4.1</ele>
        <time>2020-06-22T21:29:41Z</time>
      </trkpt>
      <trkpt lat="50.958" lon="1.87484">
        <ele>4</ele>
        <time>2020-06-22T21:29:42Z</time>
      </trkpt>
      <trkpt lat="50.95796" lon="1.87488">
        <ele>3.9</ele>
        <time>2020-06-22T21:29:43Z</time>
      </trkpt>
      <trkpt lat="50.95795" lon="1.8749">
        <ele>3.9</ele>
        <time>2020-06-22T21:29:44Z</time>
      </trkpt>
      <trkpt lat="50.95795" lon="1.87496">
        <ele>3.7</ele>
        <time>2020-06-22T21:29:45Z</time>
      </trkpt>
      <trkpt lat="50.95795" lon="1.87502">
        <ele>3.8</ele>
        <time>2020-06-22T21:29:46Z</time>
      </trkpt>
      <trkpt lat="50.95795" lon="1.87509">
        <ele>3.8</ele>
        <time>2020-06-22T21:29:47Z</time>
      </trkpt>
      <trkpt lat="50.95795" lon="1.87515">
        <ele>3.8</ele>
        <time>2020-06-22T21:29:48Z</time>
      </trkpt>
      <trkpt lat="50.95796" lon="1.87522">
        <ele>3.8</ele>
        <time>2020-06-22T21:29:49Z</time>
      </trkpt>
      <trkpt lat="50.95798" lon="1.87529">
        <ele>3.8</ele>
        <time>2020-06-22T21:29:50Z</time>
      </trkpt>
      <trkpt lat="50.95798" lon="1.87533">
        <ele>3.9</ele>
        <time>2020-06-22T21:29:51Z</time>
      </trkpt>
      <trkpt lat="50.958" lon="1.87539">
        <ele>3.9</ele>
        <time>2020-06-22T21:29:52Z</time>
      </trkpt>
      <trkpt lat="50.958" lon="1.87543">
        <ele>3.9</ele>
        <time>2020-06-22T21:29:53Z</time>
      </trkpt>
      <trkpt lat="50.958" lon="1.87548">
        <ele>3.9</ele>
        <time>2020-06-22T21:29:54Z</time>
      </trkpt>
      <trkpt lat="50.95801" lon="1.87553">
        <ele>3.9</ele>
        <time>2020-06-22T21:29:55Z</time>
      </trkpt>
      <trkpt lat="50.95802" lon="1.87557">
        <ele>3.9</ele>
        <time>2020-06-22T21:29:56Z</time>
      </trkpt>
      <trkpt lat="50.95804" lon="1.87563">
        <ele>3.9</ele>
        <time>2020-06-22T21:29:57Z</time>
      </trkpt>
      <trkpt lat="50.95804" lon="1.87565">
        <ele>3.9</ele>
        <time>2020-06-22T21:29:58Z</time>
      </trkpt>
      <trkpt lat="50.95808" lon="1.87567">
        <ele>3.8</ele>
        <time>2020-06-22T21:29:59Z</time>
      </trkpt>
      <trkpt lat="50.95813" lon="1.87569">
        <ele>3.8</ele>
        <time>2020-06-22T21:30:00Z</time>
      </trkpt>
      <trkpt lat="50.95816" lon="1.87571">
        <ele>3.8</ele>
        <time>2020-06-22T21:30:01Z</time>
      </trkpt>
      <trkpt lat="50.9582" lon="1.87573">
        <ele>3.7</ele>
        <time>2020-06-22T21:30:02Z</time>
      </trkpt>
      <trkpt lat="50.95823" lon="1.87574">
        <ele>3.7</ele>
        <time>2020-06-22T21:30:03Z</time>
      </trkpt>
      <trkpt lat="50.95827" lon="1.87577">
        <ele>3.6</ele>
        <time>2020-06-22T21:30:04Z</time>
      </trkpt>
      <trkpt lat="50.95828" lon="1.87578">
        <ele>3.6</ele>
        <time>2020-06-22T21:30:05Z</time>
      </trkpt>
      <trkpt lat="50.95832" lon="1.8758">
        <ele>3.5</ele>
        <time>2020-06-22T21:30:06Z</time>
      </trkpt>
      <trkpt lat="50.95836" lon="1.87582">
        <ele>3.4</ele>
        <time>2020-06-22T21:30:07Z</time>
      </trkpt>
      <trkpt lat="50.9584" lon="1.87583">
        <ele>3.4</ele>
        <time>2020-06-22T21:30:08Z</time>
      </trkpt>
      <trkpt lat="50.95844" lon="1.87587">
        <ele>3.3</ele>
        <time>2020-06-22T21:30:09Z</time>
      </trkpt>
      <trkpt lat="50.95848" lon="1.8759">
        <ele>3.3</ele>
        <time>2020-06-22T21:30:10Z</time>
      </trkpt>
      <trkpt lat="50.95852" lon="1.87593">
        <ele>3.3</ele>
        <time>2020-06-22T21:30:11Z</time>
      </trkpt>
      <trkpt lat="50.95856" lon="1.87596">
        <ele>3.2</ele>
        <time>2020-06-22T21:30:12Z</time>
      </trkpt>
      <trkpt lat="50.9586" lon="1.87599">
        <ele>3.2</ele>
        <time>2020-06-22T21:30:13Z</time>
      </trkpt>
      <trkpt lat="50.95864" lon="1.87601">
        <ele>3.2</ele>
        <time>2020-06-22T21:30:14Z</time>
      </trkpt>
      <trkpt lat="50.95867" lon="1.87604">
        <ele>3.2</ele>
        <time>2020-06-22T21:30:15Z</time>
      </trkpt>
      <trkpt lat="50.95872" lon="1.87607">
        <ele>3.2</ele>
        <time>2020-06-22T21:30:16Z</time>
      </trkpt>
      <trkpt lat="50.95875" lon="1.87609">
        <ele>3.2</ele>
        <time>2020-06-22T21:30:17Z</time>
      </trkpt>
      <trkpt lat="50.95879" lon="1.87612">
        <ele>3.2</ele>
        <time>2020-06-22T21:30:18Z</time>
      </trkpt>
      <trkpt lat="50.95883" lon="1.87616">
        <ele>3.2</ele>
        <time>2020-06-22T21:30:19Z</time>
      </trkpt>
      <trkpt lat="50.95889" lon="1.87619">
        <ele>3.2</ele>
        <time>2020-06-22T21:30:20Z</time>
      </trkpt>
      <trkpt lat="50.95895" lon="1.87621">
        <ele>3.2</ele>
        <time>2020-06-22T21:30:21Z</time>
      </trkpt>
      <trkpt lat="50.959" lon="1.87622">
        <ele>3.2</ele>
        <time>2020-06-22T21:30:22Z</time>
      </trkpt>
      <trkpt lat="50.95905" lon="1.87621">
        <ele>3.2</ele>
        <time>2020-06-22T21:30:23Z</time>
      </trkpt>
      <trkpt lat="50.9591" lon="1.87622">
        <ele>3.2</ele>
        <time>2020-06-22T21:30:24Z</time>
      </trkpt>
      <trkpt lat="50.95915" lon="1.87622">
        <ele>3.2</ele>
        <time>2020-06-22T21:30:25Z</time>
      </trkpt>
      <trkpt lat="50.95919" lon="1.87622">
        <ele>3.2</ele>
        <time>2020-06-22T21:30:26Z</time>
      </trkpt>
      <trkpt lat="50.95924" lon="1.87622">
        <ele>3.2</ele>
        <time>2020-06-22T21:30:27Z</time>
      </trkpt>
      <trkpt lat="50.95928" lon="1.87622">
        <ele>3.2</ele>
        <time>2020-06-22T21:30:28Z</time>
      </trkpt>
      <trkpt lat="50.95932" lon="1.87621">
        <ele>3.2</ele>
        <time>2020-06-22T21:30:29Z</time>
      </trkpt>
      <trkpt lat="50.95936" lon="1.87622">
        <ele>3.2</ele>
        <time>2020-06-22T21:30:30Z</time>
      </trkpt>
      <trkpt lat="50.9594" lon="1.87624">
        <ele>3.2</ele>
        <time>2020-06-22T21:30:31Z</time>
      </trkpt>
      <trkpt lat="50.95944" lon="1.87624">
        <ele>3.2</ele>
        <time>2020-06-22T21:30:32Z</time>
      </trkpt>
      <trkpt lat="50.95949" lon="1.87624">
        <ele>3.2</ele>
        <time>2020-06-22T21:30:33Z</time>
      </trkpt>
      <trkpt lat="50.95954" lon="1.87625">
        <ele>3.2</ele>
        <time>2020-06-22T21:30:34Z</time>
      </trkpt>
      <trkpt lat="50.9596" lon="1.87626">
        <ele>3.2</ele>
        <time>2020-06-22T21:30:35Z</time>
      </trkpt>
      <trkpt lat="50.95965" lon="1.87626">
        <ele>3.2</ele>
        <time>2020-06-22T21:30:36Z</time>
      </trkpt>
      <trkpt lat="50.95971" lon="1.87627">
        <ele>3.2</ele>
        <time>2020-06-22T21:30:37Z</time>
      </trkpt>
      <trkpt lat="50.95976" lon="1.87627">
        <ele>3.2</ele>
        <time>2020-06-22T21:30:38Z</time>
      </trkpt>
      <trkpt lat="50.95979" lon="1.87627">
        <ele>3.2</ele>
        <time>2020-06-22T21:30:39Z</time>
      </trkpt>
      <trkpt lat="50.95985" lon="1.87626">
        <ele>3.2</ele>
        <time>2020-06-22T21:30:40Z</time>
      </trkpt>
      <trkpt lat="50.9599" lon="1.87624">
        <ele>3.2</ele>
        <time>2020-06-22T21:30:41Z</time>
      </trkpt>
      <trkpt lat="50.95995" lon="1.87622">
        <ele>3.2</ele>
        <time>2020-06-22T21:30:42Z</time>
      </trkpt>
      <trkpt lat="50.96" lon="1.87619">
        <ele>3.2</ele>
        <time>2020-06-22T21:30:43Z</time>
      </trkpt>
      <trkpt lat="50.96005" lon="1.87616">
        <ele>3.2</ele>
        <time>2020-06-22T21:30:44Z</time>
      </trkpt>
      <trkpt lat="50.96009" lon="1.87614">
        <ele>3.2</ele>
        <time>2020-06-22T21:30:45Z</time>
      </trkpt>
      <trkpt lat="50.96013" lon="1.87612">
        <ele>3.2</ele>
        <time>2020-06-22T21:30:46Z</time>
      </trkpt>
      <trkpt lat="50.96018" lon="1.87608">
        <ele>3.2</ele>
        <time>2020-06-22T21:30:47Z</time>
      </trkpt>
      <trkpt lat="50.96023" lon="1.87603">
        <ele>3.2</ele>
        <time>2020-06-22T21:30:48Z</time>
      </trkpt>
      <trkpt lat="50.96028" lon="1.87601">
        <ele>3.2</ele>
        <time>2020-06-22T21:30:49Z</time>
      </trkpt>
      <trkpt lat="50.96033" lon="1.87599">
        <ele>3.2</ele>
        <time>2020-06-22T21:30:50Z</time>
      </trkpt>
      <trkpt lat="50.96039" lon="1.87596">
        <ele>3.2</ele>
        <time>2020-06-22T21:30:51Z</time>
      </trkpt>
      <trkpt lat="50.96046" lon="1.87592">
        <ele>3.2</ele>
        <time>2020-06-22T21:30:52Z</time>
      </trkpt>
      <trkpt lat="50.9605" lon="1.87589">
        <ele>3.2</ele>
        <time>2020-06-22T21:30:53Z</time>
      </trkpt>
      <trkpt lat="50.96053" lon="1.87586">
        <ele>3.2</ele>
        <time>2020-06-22T21:30:54Z</time>
      </trkpt>
      <trkpt lat="50.96058" lon="1.87583">
        <ele>3.2</ele>
        <time>2020-06-22T21:30:55Z</time>
      </trkpt>
      <trkpt lat="50.96062" lon="1.8758">
        <ele>3.2</ele>
        <time>2020-06-22T21:30:56Z</time>
      </trkpt>
      <trkpt lat="50.96067" lon="1.87578">
        <ele>3.2</ele>
        <time>2020-06-22T21:30:57Z</time>
      </trkpt>
      <trkpt lat="50.96071" lon="1.87576">
        <ele>3.2</ele>
        <time>2020-06-22T21:30:58Z</time>
      </trkpt>
      <trkpt lat="50.96075" lon="1.87573">
        <ele>3.2</ele>
        <time>2020-06-22T21:30:59Z</time>
      </trkpt>
      <trkpt lat="50.96079" lon="1.87571">
        <ele>3.2</ele>
        <time>2020-06-22T21:31:00Z</time>
      </trkpt>
      <trkpt lat="50.96082" lon="1.87569">
        <ele>3.2</ele>
        <time>2020-06-22T21:31:01Z</time>
      </trkpt>
      <trkpt lat="50.96086" lon="1.87567">
        <ele>3.3</ele>
        <time>2020-06-22T21:31:02Z</time>
      </trkpt>
      <trkpt lat="50.96091" lon="1.87564">
        <ele>3.3</ele>
        <time>2020-06-22T21:31:03Z</time>
      </trkpt>
      <trkpt lat="50.96095" lon="1.87562">
        <ele>3.3</ele>
        <time>2020-06-22T21:31:04Z</time>
      </trkpt>
      <trkpt lat="50.96099" lon="1.87561">
        <ele>3.4</ele>
        <time>2020-06-22T21:31:05Z</time>
      </trkpt>
      <trkpt lat="50.96103" lon="1.8756">
        <ele>3.4</ele>
        <time>2020-06-22T21:31:06Z</time>
      </trkpt>
      <trkpt lat="50.96107" lon="1.87561">
        <ele>3.4</ele>
        <time>2020-06-22T21:31:07Z</time>
      </trkpt>
      <trkpt lat="50.96111" lon="1.87565">
        <ele>3.4</ele>
        <time>2020-06-22T21:31:08Z</time>
      </trkpt>
      <trkpt lat="50.96114" lon="1.87569">
        <ele>3.4</ele>
        <time>2020-06-22T21:31:09Z</time>
      </trkpt>
      <trkpt lat="50.96116" lon="1.87574">
        <ele>3.4</ele>
        <time>2020-06-22T21:31:10Z</time>
      </trkpt>
      <trkpt lat="50.96118" lon="1.8758">
        <ele>3.3</ele>
        <time>2020-06-22T21:31:11Z</time>
      </trkpt>
      <trkpt lat="50.9612" lon="1.87586">
        <ele>3.3</ele>
        <time>2020-06-22T21:31:12Z</time>
      </trkpt>
      <trkpt lat="50.96121" lon="1.87595">
        <ele>3.3</ele>
        <time>2020-06-22T21:31:13Z</time>
      </trkpt>
      <trkpt lat="50.96123" lon="1.87602">
        <ele>3.3</ele>
        <time>2020-06-22T21:31:14Z</time>
      </trkpt>
      <trkpt lat="50.96124" lon="1.87609">
        <ele>3.3</ele>
        <time>2020-06-22T21:31:15Z</time>
      </trkpt>
      <trkpt lat="50.96124" lon="1.87617">
        <ele>3.2</ele>
        <time>2020-06-22T21:31:16Z</time>
      </trkpt>
      <trkpt lat="50.96124" lon="1.87625">
        <ele>3.2</ele>
        <time>2020-06-22T21:31:17Z</time>
      </trkpt>
      <trkpt lat="50.96126" lon="1.87633">
        <ele>3.2</ele>
        <time>2020-06-22T21:31:18Z</time>
      </trkpt>
      <trkpt lat="50.96127" lon="1.87642">
        <ele>3.2</ele>
        <time>2020-06-22T21:31:19Z</time>
      </trkpt>
      <trkpt lat="50.96129" lon="1.87649">
        <ele>3.2</ele>
        <time>2020-06-22T21:31:20Z</time>
      </trkpt>
      <trkpt lat="50.96129" lon="1.87657">
        <ele>3.2</ele>
        <time>2020-06-22T21:31:21Z</time>
      </trkpt>
      <trkpt lat="50.96129" lon="1.87665">
        <ele>3.2</ele>
        <time>2020-06-22T21:31:22Z</time>
      </trkpt>
      <trkpt lat="50.96131" lon="1.87673">
        <ele>3.2</ele>
        <time>2020-06-22T21:31:23Z</time>
      </trkpt>
      <trkpt lat="50.96132" lon="1.87681">
        <ele>3.2</ele>
        <time>2020-06-22T21:31:24Z</time>
      </trkpt>
      <trkpt lat="50.96134" lon="1.87689">
        <ele>3.2</ele>
        <time>2020-06-22T21:31:25Z</time>
      </trkpt>
      <trkpt lat="50.96137" lon="1.87697">
        <ele>3.2</ele>
        <time>2020-06-22T21:31:26Z</time>
      </trkpt>
      <trkpt lat="50.96138" lon="1.87705">
        <ele>3.2</ele>
        <time>2020-06-22T21:31:27Z</time>
      </trkpt>
      <trkpt lat="50.96139" lon="1.87714">
        <ele>3.1</ele>
        <time>2020-06-22T21:31:28Z</time>
      </trkpt>
      <trkpt lat="50.9614" lon="1.87723">
        <ele>3.1</ele>
        <time>2020-06-22T21:31:29Z</time>
      </trkpt>
      <trkpt lat="50.96142" lon="1.87731">
        <ele>3.1</ele>
        <time>2020-06-22T21:31:30Z</time>
      </trkpt>
      <trkpt lat="50.96143" lon="1.8774">
        <ele>3.1</ele>
        <time>2020-06-22T21:31:31Z</time>
      </trkpt>
      <trkpt lat="50.96145" lon="1.87749">
        <ele>3.1</ele>
        <time>2020-06-22T21:31:32Z</time>
      </trkpt>
      <trkpt lat="50.96146" lon="1.87757">
        <ele>3.1</ele>
        <time>2020-06-22T21:31:33Z</time>
      </trkpt>
      <trkpt lat="50.96148" lon="1.87766">
        <ele>3.2</ele>
        <time>2020-06-22T21:31:34Z</time>
      </trkpt>
      <trkpt lat="50.9615" lon="1.87774">
        <ele>3.2</ele>
        <time>2020-06-22T21:31:35Z</time>
      </trkpt>
      <trkpt lat="50.96151" lon="1.87783">
        <ele>3.2</ele>
        <time>2020-06-22T21:31:36Z</time>
      </trkpt>
      <trkpt lat="50.96153" lon="1.87792">
        <ele>3.2</ele>
        <time>2020-06-22T21:31:37Z</time>
      </trkpt>
      <trkpt lat="50.96154" lon="1.878">
        <ele>3.2</ele>
        <time>2020-06-22T21:31:38Z</time>
      </trkpt>
      <trkpt lat="50.96156" lon="1.87809">
        <ele>3.2</ele>
        <time>2020-06-22T21:31:39Z</time>
      </trkpt>
      <trkpt lat="50.96158" lon="1.87817">
        <ele>3.1</ele>
        <time>2020-06-22T21:31:40Z</time>
      </trkpt>
      <trkpt lat="50.9616" lon="1.87826">
        <ele>3.1</ele>
        <time>2020-06-22T21:31:41Z</time>
      </trkpt>
      <trkpt lat="50.96161" lon="1.87835">
        <ele>3.1</ele>
        <time>2020-06-22T21:31:42Z</time>
      </trkpt>
      <trkpt lat="50.96163" lon="1.87844">
        <ele>3.1</ele>
        <time>2020-06-22T21:31:43Z</time>
      </trkpt>
      <trkpt lat="50.96164" lon="1.87853">
        <ele>3.1</ele>
        <time>2020-06-22T21:31:44Z</time>
      </trkpt>
      <trkpt lat="50.96165" lon="1.87861">
        <ele>3.1</ele>
        <time>2020-06-22T21:31:45Z</time>
      </trkpt>
      <trkpt lat="50.96167" lon="1.8787">
        <ele>3.1</ele>
        <time>2020-06-22T21:31:46Z</time>
      </trkpt>
      <trkpt lat="50.96169" lon="1.87879">
        <ele>3.1</ele>
        <time>2020-06-22T21:31:47Z</time>
      </trkpt>
      <trkpt lat="50.96172" lon="1.87887">
        <ele>3</ele>
        <time>2020-06-22T21:31:48Z</time>
      </trkpt>
      <trkpt lat="50.96174" lon="1.87896">
        <ele>3</ele>
        <time>2020-06-22T21:31:49Z</time>
      </trkpt>
      <trkpt lat="50.96176" lon="1.87906">
        <ele>3</ele>
        <time>2020-06-22T21:31:50Z</time>
      </trkpt>
      <trkpt lat="50.96177" lon="1.87915">
        <ele>3</ele>
        <time>2020-06-22T21:31:51Z</time>
      </trkpt>
      <trkpt lat="50.96177" lon="1.87925">
        <ele>3</ele>
        <time>2020-06-22T21:31:52Z</time>
      </trkpt>
      <trkpt lat="50.96178" lon="1.87934">
        <ele>3</ele>
        <time>2020-06-22T21:31:53Z</time>
      </trkpt>
      <trkpt lat="50.9618" lon="1.87944">
        <ele>3</ele>
        <time>2020-06-22T21:31:54Z</time>
      </trkpt>
      <trkpt lat="50.96182" lon="1.87952">
        <ele>3</ele>
        <time>2020-06-22T21:31:55Z</time>
      </trkpt>
      <trkpt lat="50.96184" lon="1.87961">
        <ele>3</ele>
        <time>2020-06-22T21:31:56Z</time>
      </trkpt>
      <trkpt lat="50.96185" lon="1.8797">
        <ele>3</ele>
        <time>2020-06-22T21:31:57Z</time>
      </trkpt>
      <trkpt lat="50.96187" lon="1.87979">
        <ele>2.9</ele>
        <time>2020-06-22T21:31:58Z</time>
      </trkpt>
      <trkpt lat="50.96188" lon="1.87988">
        <ele>2.9</ele>
        <time>2020-06-22T21:31:59Z</time>
      </trkpt>
      <trkpt lat="50.9619" lon="1.87996">
        <ele>2.9</ele>
        <time>2020-06-22T21:32:00Z</time>
      </trkpt>
      <trkpt lat="50.96191" lon="1.88004">
        <ele>2.9</ele>
        <time>2020-06-22T21:32:01Z</time>
      </trkpt>
      <trkpt lat="50.96192" lon="1.88012">
        <ele>2.9</ele>
        <time>2020-06-22T21:32:02Z</time>
      </trkpt>
      <trkpt lat="50.96194" lon="1.88019">
        <ele>2.9</ele>
        <time>2020-06-22T21:32:03Z</time>
      </trkpt>
      <trkpt lat="50.96195" lon="1.88026">
        <ele>2.9</ele>
        <time>2020-06-22T21:32:04Z</time>
      </trkpt>
      <trkpt lat="50.96197" lon="1.88033">
        <ele>2.8</ele>
        <time>2020-06-22T21:32:05Z</time>
      </trkpt>
      <trkpt lat="50.96198" lon="1.8804">
        <ele>2.8</ele>
        <time>2020-06-22T21:32:06Z</time>
      </trkpt>
      <trkpt lat="50.962" lon="1.88047">
        <ele>2.8</ele>
        <time>2020-06-22T21:32:07Z</time>
      </trkpt>
      <trkpt lat="50.96202" lon="1.88054">
        <ele>2.8</ele>
        <time>2020-06-22T21:32:08Z</time>
      </trkpt>
      <trkpt lat="50.96204" lon="1.88061">
        <ele>2.8</ele>
        <time>2020-06-22T21:32:09Z</time>
      </trkpt>
      <trkpt lat="50.96206" lon="1.88069">
        <ele>2.9</ele>
        <time>2020-06-22T21:32:10Z</time>
      </trkpt>
      <trkpt lat="50.96208" lon="1.88078">
        <ele>2.9</ele>
        <time>2020-06-22T21:32:11Z</time>
      </trkpt>
      <trkpt lat="50.96208" lon="1.88087">
        <ele>2.9</ele>
        <time>2020-06-22T21:32:12Z</time>
      </trkpt>
      <trkpt lat="50.9621" lon="1.88097">
        <ele>3</ele>
        <time>2020-06-22T21:32:13Z</time>
      </trkpt>
      <trkpt lat="50.96211" lon="1.88106">
        <ele>3</ele>
        <time>2020-06-22T21:32:14Z</time>
      </trkpt>
      <trkpt lat="50.96212" lon="1.88115">
        <ele>3</ele>
        <time>2020-06-22T21:32:15Z</time>
      </trkpt>
      <trkpt lat="50.96214" lon="1.88124">
        <ele>2.9</ele>
        <time>2020-06-22T21:32:16Z</time>
      </trkpt>
      <trkpt lat="50.96216" lon="1.88132">
        <ele>2.9</ele>
        <time>2020-06-22T21:32:17Z</time>
      </trkpt>
      <trkpt lat="50.96217" lon="1.88141">
        <ele>2.9</ele>
        <time>2020-06-22T21:32:18Z</time>
      </trkpt>
      <trkpt lat="50.96219" lon="1.88149">
        <ele>2.8</ele>
        <time>2020-06-22T21:32:19Z</time>
      </trkpt>
      <trkpt lat="50.9622" lon="1.88159">
        <ele>2.8</ele>
        <time>2020-06-22T21:32:20Z</time>
      </trkpt>
      <trkpt lat="50.96221" lon="1.88168">
        <ele>2.7</ele>
        <time>2020-06-22T21:32:21Z</time>
      </trkpt>
      <trkpt lat="50.96223" lon="1.88175">
        <ele>2.7</ele>
        <time>2020-06-22T21:32:22Z</time>
      </trkpt>
      <trkpt lat="50.96225" lon="1.88183">
        <ele>2.7</ele>
        <time>2020-06-22T21:32:23Z</time>
      </trkpt>
      <trkpt lat="50.96228" lon="1.88191">
        <ele>2.7</ele>
        <time>2020-06-22T21:32:24Z</time>
      </trkpt>
      <trkpt lat="50.9623" lon="1.88198">
        <ele>2.7</ele>
        <time>2020-06-22T21:32:25Z</time>
      </trkpt>
      <trkpt lat="50.96231" lon="1.88206">
        <ele>2.8</ele>
        <time>2020-06-22T21:32:26Z</time>
      </trkpt>
      <trkpt lat="50.96233" lon="1.88213">
        <ele>2.8</ele>
        <time>2020-06-22T21:32:27Z</time>
      </trkpt>
      <trkpt lat="50.96235" lon="1.88221">
        <ele>2.9</ele>
        <time>2020-06-22T21:32:28Z</time>
      </trkpt>
      <trkpt lat="50.96236" lon="1.8823">
        <ele>3</ele>
        <time>2020-06-22T21:32:29Z</time>
      </trkpt>
      <trkpt lat="50.96238" lon="1.88239">
        <ele>3</ele>
        <time>2020-06-22T21:32:30Z</time>
      </trkpt>
      <trkpt lat="50.96237" lon="1.88248">
        <ele>3</ele>
        <time>2020-06-22T21:32:31Z</time>
      </trkpt>
      <trkpt lat="50.96237" lon="1.88257">
        <ele>3</ele>
        <time>2020-06-22T21:32:32Z</time>
      </trkpt>
      <trkpt lat="50.96235" lon="1.88266">
        <ele>3</ele>
        <time>2020-06-22T21:32:33Z</time>
      </trkpt>
      <trkpt lat="50.96234" lon="1.88275">
        <ele>3</ele>
        <time>2020-06-22T21:32:34Z</time>
      </trkpt>
      <trkpt lat="50.96234" lon="1.88284">
        <ele>3</ele>
        <time>2020-06-22T21:32:35Z</time>
      </trkpt>
      <trkpt lat="50.96233" lon="1.88293">
        <ele>3</ele>
        <time>2020-06-22T21:32:36Z</time>
      </trkpt>
      <trkpt lat="50.96233" lon="1.88301">
        <ele>2.9</ele>
        <time>2020-06-22T21:32:37Z</time>
      </trkpt>
      <trkpt lat="50.96232" lon="1.8831">
        <ele>2.9</ele>
        <time>2020-06-22T21:32:38Z</time>
      </trkpt>
      <trkpt lat="50.96231" lon="1.88319">
        <ele>2.9</ele>
        <time>2020-06-22T21:32:39Z</time>
      </trkpt>
      <trkpt lat="50.9623" lon="1.88327">
        <ele>2.9</ele>
        <time>2020-06-22T21:32:40Z</time>
      </trkpt>
      <trkpt lat="50.96229" lon="1.88337">
        <ele>3</ele>
        <time>2020-06-22T21:32:41Z</time>
      </trkpt>
      <trkpt lat="50.96228" lon="1.88346">
        <ele>3</ele>
        <time>2020-06-22T21:32:42Z</time>
      </trkpt>
      <trkpt lat="50.96228" lon="1.88355">
        <ele>3</ele>
        <time>2020-06-22T21:32:43Z</time>
      </trkpt>
      <trkpt lat="50.96228" lon="1.88364">
        <ele>3</ele>
        <time>2020-06-22T21:32:44Z</time>
      </trkpt>
      <trkpt lat="50.96229" lon="1.88374">
        <ele>3</ele>
        <time>2020-06-22T21:32:45Z</time>
      </trkpt>
      <trkpt lat="50.9623" lon="1.88383">
        <ele>3</ele>
        <time>2020-06-22T21:32:46Z</time>
      </trkpt>
      <trkpt lat="50.96231" lon="1.88392">
        <ele>3</ele>
        <time>2020-06-22T21:32:47Z</time>
      </trkpt>
      <trkpt lat="50.96233" lon="1.884">
        <ele>3.1</ele>
        <time>2020-06-22T21:32:48Z</time>
      </trkpt>
      <trkpt lat="50.96235" lon="1.88409">
        <ele>3.1</ele>
        <time>2020-06-22T21:32:49Z</time>
      </trkpt>
      <trkpt lat="50.96236" lon="1.88417">
        <ele>3.1</ele>
        <time>2020-06-22T21:32:50Z</time>
      </trkpt>
      <trkpt lat="50.96238" lon="1.88426">
        <ele>3.1</ele>
        <time>2020-06-22T21:32:51Z</time>
      </trkpt>
      <trkpt lat="50.9624" lon="1.88435">
        <ele>3.1</ele>
        <time>2020-06-22T21:32:52Z</time>
      </trkpt>
      <trkpt lat="50.96242" lon="1.88443">
        <ele>3.1</ele>
        <time>2020-06-22T21:32:53Z</time>
      </trkpt>
      <trkpt lat="50.96243" lon="1.88452">
        <ele>3.2</ele>
        <time>2020-06-22T21:32:54Z</time>
      </trkpt>
      <trkpt lat="50.96245" lon="1.88461">
        <ele>3.2</ele>
        <time>2020-06-22T21:32:55Z</time>
      </trkpt>
      <trkpt lat="50.96247" lon="1.8847">
        <ele>3.2</ele>
        <time>2020-06-22T21:32:56Z</time>
      </trkpt>
      <trkpt lat="50.96248" lon="1.88479">
        <ele>3.3</ele>
        <time>2020-06-22T21:32:57Z</time>
      </trkpt>
      <trkpt lat="50.96249" lon="1.88488">
        <ele>3.3</ele>
        <time>2020-06-22T21:32:58Z</time>
      </trkpt>
      <trkpt lat="50.9625" lon="1.88497">
        <ele>3.3</ele>
        <time>2020-06-22T21:32:59Z</time>
      </trkpt>
      <trkpt lat="50.96251" lon="1.88506">
        <ele>3.4</ele>
        <time>2020-06-22T21:33:00Z</time>
      </trkpt>
      <trkpt lat="50.96252" lon="1.88515">
        <ele>3.5</ele>
        <time>2020-06-22T21:33:01Z</time>
      </trkpt>
      <trkpt lat="50.96254" lon="1.88524">
        <ele>3.5</ele>
        <time>2020-06-22T21:33:02Z</time>
      </trkpt>
      <trkpt lat="50.96254" lon="1.88534">
        <ele>3.5</ele>
        <time>2020-06-22T21:33:03Z</time>
      </trkpt>
      <trkpt lat="50.96254" lon="1.88543">
        <ele>3.5</ele>
        <time>2020-06-22T21:33:04Z</time>
      </trkpt>
      <trkpt lat="50.96254" lon="1.88553">
        <ele>3.5</ele>
        <time>2020-06-22T21:33:05Z</time>
      </trkpt>
      <trkpt lat="50.96254" lon="1.88562">
        <ele>3.5</ele>
        <time>2020-06-22T21:33:06Z</time>
      </trkpt>
      <trkpt lat="50.96256" lon="1.88571">
        <ele>3.5</ele>
        <time>2020-06-22T21:33:07Z</time>
      </trkpt>
      <trkpt lat="50.96258" lon="1.8858">
        <ele>3.5</ele>
        <time>2020-06-22T21:33:08Z</time>
      </trkpt>
      <trkpt lat="50.96259" lon="1.88589">
        <ele>3.5</ele>
        <time>2020-06-22T21:33:09Z</time>
      </trkpt>
      <trkpt lat="50.9626" lon="1.88598">
        <ele>3.5</ele>
        <time>2020-06-22T21:33:10Z</time>
      </trkpt>
      <trkpt lat="50.96261" lon="1.88607">
        <ele>3.6</ele>
        <time>2020-06-22T21:33:11Z</time>
      </trkpt>
      <trkpt lat="50.96261" lon="1.88617">
        <ele>3.6</ele>
        <time>2020-06-22T21:33:12Z</time>
      </trkpt>
      <trkpt lat="50.96262" lon="1.88626">
        <ele>3.6</ele>
        <time>2020-06-22T21:33:13Z</time>
      </trkpt>
      <trkpt lat="50.96263" lon="1.88635">
        <ele>3.5</ele>
        <time>2020-06-22T21:33:14Z</time>
      </trkpt>
      <trkpt lat="50.96264" lon="1.88644">
        <ele>3.5</ele>
        <time>2020-06-22T21:33:15Z</time>
      </trkpt>
      <trkpt lat="50.96265" lon="1.88652">
        <ele>3.5</ele>
        <time>2020-06-22T21:33:16Z</time>
      </trkpt>
      <trkpt lat="50.96266" lon="1.8866">
        <ele>3.5</ele>
        <time>2020-06-22T21:33:17Z</time>
      </trkpt>
      <trkpt lat="50.96268" lon="1.88668">
        <ele>3.5</ele>
        <time>2020-06-22T21:33:18Z</time>
      </trkpt>
      <trkpt lat="50.96271" lon="1.88677">
        <ele>3.5</ele>
        <time>2020-06-22T21:33:19Z</time>
      </trkpt>
      <trkpt lat="50.96273" lon="1.88685">
        <ele>3.4</ele>
        <time>2020-06-22T21:33:20Z</time>
      </trkpt>
      <trkpt lat="50.96274" lon="1.88694">
        <ele>3.4</ele>
        <time>2020-06-22T21:33:21Z</time>
      </trkpt>
      <trkpt lat="50.96276" lon="1.88704">
        <ele>3.4</ele>
        <time>2020-06-22T21:33:22Z</time>
      </trkpt>
      <trkpt lat="50.96278" lon="1.88713">
        <ele>3.3</ele>
        <time>2020-06-22T21:33:23Z</time>
      </trkpt>
      <trkpt lat="50.9628" lon="1.88722">
        <ele>3.3</ele>
        <time>2020-06-22T21:33:24Z</time>
      </trkpt>
      <trkpt lat="50.96281" lon="1.88731">
        <ele>3.3</ele>
        <time>2020-06-22T21:33:25Z</time>
      </trkpt>
      <trkpt lat="50.96283" lon="1.8874">
        <ele>3.2</ele>
        <time>2020-06-22T21:33:26Z</time>
      </trkpt>
      <trkpt lat="50.96284" lon="1.88749">
        <ele>3.2</ele>
        <time>2020-06-22T21:33:27Z</time>
      </trkpt>
      <trkpt lat="50.96284" lon="1.88759">
        <ele>3.1</ele>
        <time>2020-06-22T21:33:28Z</time>
      </trkpt>
      <trkpt lat="50.96286" lon="1.88768">
        <ele>3.1</ele>
        <time>2020-06-22T21:33:29Z</time>
      </trkpt>
      <trkpt lat="50.96287" lon="1.88776">
        <ele>3.1</ele>
        <time>2020-06-22T21:33:30Z</time>
      </trkpt>
      <trkpt lat="50.96289" lon="1.88785">
        <ele>3.1</ele>
        <time>2020-06-22T21:33:31Z</time>
      </trkpt>
      <trkpt lat="50.96291" lon="1.88793">
        <ele>3.1</ele>
        <time>2020-06-22T21:33:32Z</time>
      </trkpt>
      <trkpt lat="50.96293" lon="1.88802">
        <ele>3.1</ele>
        <time>2020-06-22T21:33:33Z</time>
      </trkpt>
      <trkpt lat="50.96295" lon="1.88812">
        <ele>3.2</ele>
        <time>2020-06-22T21:33:34Z</time>
      </trkpt>
      <trkpt lat="50.96298" lon="1.88823">
        <ele>3.2</ele>
        <time>2020-06-22T21:33:35Z</time>
      </trkpt>
      <trkpt lat="50.963" lon="1.88835">
        <ele>3.2</ele>
        <time>2020-06-22T21:33:36Z</time>
      </trkpt>
      <trkpt lat="50.96301" lon="1.88846">
        <ele>3.2</ele>
        <time>2020-06-22T21:33:37Z</time>
      </trkpt>
      <trkpt lat="50.96303" lon="1.88856">
        <ele>3.2</ele>
        <time>2020-06-22T21:33:38Z</time>
      </trkpt>
      <trkpt lat="50.96303" lon="1.88865">
        <ele>3.3</ele>
        <time>2020-06-22T21:33:39Z</time>
      </trkpt>
      <trkpt lat="50.96304" lon="1.88875">
        <ele>3.3</ele>
        <time>2020-06-22T21:33:40Z</time>
      </trkpt>
      <trkpt lat="50.96305" lon="1.88884">
        <ele>3.3</ele>
        <time>2020-06-22T21:33:41Z</time>
      </trkpt>
      <trkpt lat="50.96307" lon="1.88894">
        <ele>3.4</ele>
        <time>2020-06-22T21:33:42Z</time>
      </trkpt>
      <trkpt lat="50.96309" lon="1.88903">
        <ele>3.5</ele>
        <time>2020-06-22T21:33:43Z</time>
      </trkpt>
      <trkpt lat="50.96311" lon="1.88912">
        <ele>3.5</ele>
        <time>2020-06-22T21:33:44Z</time>
      </trkpt>
      <trkpt lat="50.96313" lon="1.88919">
        <ele>3.6</ele>
        <time>2020-06-22T21:33:45Z</time>
      </trkpt>
      <trkpt lat="50.96315" lon="1.88927">
        <ele>3.6</ele>
        <time>2020-06-22T21:33:46Z</time>
      </trkpt>
      <trkpt lat="50.96316" lon="1.88938">
        <ele>3.6</ele>
        <time>2020-06-22T21:33:47Z</time>
      </trkpt>
      <trkpt lat="50.96317" lon="1.88946">
        <ele>3.6</ele>
        <time>2020-06-22T21:33:48Z</time>
      </trkpt>
      <trkpt lat="50.96318" lon="1.88957">
        <ele>3.6</ele>
        <time>2020-06-22T21:33:49Z</time>
      </trkpt>
      <trkpt lat="50.9632" lon="1.88966">
        <ele>3.6</ele>
        <time>2020-06-22T21:33:50Z</time>
      </trkpt>
      <trkpt lat="50.96321" lon="1.88974">
        <ele>3.6</ele>
        <time>2020-06-22T21:33:51Z</time>
      </trkpt>
      <trkpt lat="50.96324" lon="1.88982">
        <ele>3.6</ele>
        <time>2020-06-22T21:33:52Z</time>
      </trkpt>
      <trkpt lat="50.96326" lon="1.88991">
        <ele>3.6</ele>
        <time>2020-06-22T21:33:53Z</time>
      </trkpt>
      <trkpt lat="50.96327" lon="1.89001">
        <ele>3.6</ele>
        <time>2020-06-22T21:33:54Z</time>
      </trkpt>
      <trkpt lat="50.96329" lon="1.89012">
        <ele>3.6</ele>
        <time>2020-06-22T21:33:55Z</time>
      </trkpt>
      <trkpt lat="50.9633" lon="1.89021">
        <ele>3.6</ele>
        <time>2020-06-22T21:33:56Z</time>
      </trkpt>
      <trkpt lat="50.96332" lon="1.89031">
        <ele>3.5</ele>
        <time>2020-06-22T21:33:57Z</time>
      </trkpt>
      <trkpt lat="50.96334" lon="1.8904">
        <ele>3.5</ele>
        <time>2020-06-22T21:33:58Z</time>
      </trkpt>
      <trkpt lat="50.96336" lon="1.89048">
        <ele>3.6</ele>
        <time>2020-06-22T21:33:59Z</time>
      </trkpt>
      <trkpt lat="50.96338" lon="1.89057">
        <ele>3.6</ele>
        <time>2020-06-22T21:34:00Z</time>
      </trkpt>
      <trkpt lat="50.9634" lon="1.89065">
        <ele>3.6</ele>
        <time>2020-06-22T21:34:01Z</time>
      </trkpt>
      <trkpt lat="50.96342" lon="1.89074">
        <ele>3.6</ele>
        <time>2020-06-22T21:34:02Z</time>
      </trkpt>
      <trkpt lat="50.96344" lon="1.89082">
        <ele>3.6</ele>
        <time>2020-06-22T21:34:03Z</time>
      </trkpt>
      <trkpt lat="50.96345" lon="1.8909">
        <ele>3.6</ele>
        <time>2020-06-22T21:34:04Z</time>
      </trkpt>
      <trkpt lat="50.96347" lon="1.89099">
        <ele>3.7</ele>
        <time>2020-06-22T21:34:05Z</time>
      </trkpt>
      <trkpt lat="50.96349" lon="1.89109">
        <ele>3.7</ele>
        <time>2020-06-22T21:34:06Z</time>
      </trkpt>
      <trkpt lat="50.96352" lon="1.89118">
        <ele>3.7</ele>
        <time>2020-06-22T21:34:07Z</time>
      </trkpt>
      <trkpt lat="50.96353" lon="1.89127">
        <ele>3.7</ele>
        <time>2020-06-22T21:34:08Z</time>
      </trkpt>
      <trkpt lat="50.96356" lon="1.89136">
        <ele>3.7</ele>
        <time>2020-06-22T21:34:09Z</time>
      </trkpt>
      <trkpt lat="50.96359" lon="1.89146">
        <ele>3.7</ele>
        <time>2020-06-22T21:34:10Z</time>
      </trkpt>
      <trkpt lat="50.96361" lon="1.89156">
        <ele>3.7</ele>
        <time>2020-06-22T21:34:11Z</time>
      </trkpt>
      <trkpt lat="50.96363" lon="1.89164">
        <ele>3.7</ele>
        <time>2020-06-22T21:34:12Z</time>
      </trkpt>
      <trkpt lat="50.96365" lon="1.89173">
        <ele>3.7</ele>
        <time>2020-06-22T21:34:13Z</time>
      </trkpt>
      <trkpt lat="50.96367" lon="1.89182">
        <ele>3.7</ele>
        <time>2020-06-22T21:34:14Z</time>
      </trkpt>
      <trkpt lat="50.96369" lon="1.89191">
        <ele>3.6</ele>
        <time>2020-06-22T21:34:15Z</time>
      </trkpt>
      <trkpt lat="50.96371" lon="1.89202">
        <ele>3.6</ele>
        <time>2020-06-22T21:34:16Z</time>
      </trkpt>
      <trkpt lat="50.96372" lon="1.89212">
        <ele>3.6</ele>
        <time>2020-06-22T21:34:17Z</time>
      </trkpt>
      <trkpt lat="50.96374" lon="1.89221">
        <ele>3.5</ele>
        <time>2020-06-22T21:34:18Z</time>
      </trkpt>
      <trkpt lat="50.96376" lon="1.89233">
        <ele>3.5</ele>
        <time>2020-06-22T21:34:19Z</time>
      </trkpt>
      <trkpt lat="50.96378" lon="1.89244">
        <ele>3.5</ele>
        <time>2020-06-22T21:34:20Z</time>
      </trkpt>
      <trkpt lat="50.96379" lon="1.89251">
        <ele>3.5</ele>
        <time>2020-06-22T21:34:21Z</time>
      </trkpt>
      <trkpt lat="50.96381" lon="1.89261">
        <ele>3.5</ele>
        <time>2020-06-22T21:34:22Z</time>
      </trkpt>
      <trkpt lat="50.96382" lon="1.8927">
        <ele>3.4</ele>
        <time>2020-06-22T21:34:23Z</time>
      </trkpt>
      <trkpt lat="50.96383" lon="1.89279">
        <ele>3.4</ele>
        <time>2020-06-22T21:34:24Z</time>
      </trkpt>
      <trkpt lat="50.96385" lon="1.89287">
        <ele>3.4</ele>
        <time>2020-06-22T21:34:25Z</time>
      </trkpt>
      <trkpt lat="50.96386" lon="1.89298">
        <ele>3.4</ele>
        <time>2020-06-22T21:34:26Z</time>
      </trkpt>
      <trkpt lat="50.96388" lon="1.89308">
        <ele>3.4</ele>
        <time>2020-06-22T21:34:27Z</time>
      </trkpt>
      <trkpt lat="50.96389" lon="1.89317">
        <ele>3.4</ele>
        <time>2020-06-22T21:34:28Z</time>
      </trkpt>
      <trkpt lat="50.96391" lon="1.89327">
        <ele>3.3</ele>
        <time>2020-06-22T21:34:29Z</time>
      </trkpt>
      <trkpt lat="50.96392" lon="1.89337">
        <ele>3.3</ele>
        <time>2020-06-22T21:34:30Z</time>
      </trkpt>
      <trkpt lat="50.96393" lon="1.89347">
        <ele>3.3</ele>
        <time>2020-06-22T21:34:31Z</time>
      </trkpt>
      <trkpt lat="50.96394" lon="1.89358">
        <ele>3.2</ele>
        <time>2020-06-22T21:34:32Z</time>
      </trkpt>
      <trkpt lat="50.96396" lon="1.89368">
        <ele>3.2</ele>
        <time>2020-06-22T21:34:33Z</time>
      </trkpt>
      <trkpt lat="50.96397" lon="1.89377">
        <ele>3.2</ele>
        <time>2020-06-22T21:34:34Z</time>
      </trkpt>
      <trkpt lat="50.96399" lon="1.89386">
        <ele>3.2</ele>
        <time>2020-06-22T21:34:35Z</time>
      </trkpt>
      <trkpt lat="50.964" lon="1.89395">
        <ele>3.2</ele>
        <time>2020-06-22T21:34:36Z</time>
      </trkpt>
      <trkpt lat="50.96401" lon="1.89405">
        <ele>3.3</ele>
        <time>2020-06-22T21:34:37Z</time>
      </trkpt>
      <trkpt lat="50.96403" lon="1.89414">
        <ele>3.3</ele>
        <time>2020-06-22T21:34:38Z</time>
      </trkpt>
      <trkpt lat="50.96405" lon="1.89424">
        <ele>3.3</ele>
        <time>2020-06-22T21:34:39Z</time>
      </trkpt>
      <trkpt lat="50.96406" lon="1.89434">
        <ele>3.3</ele>
        <time>2020-06-22T21:34:40Z</time>
      </trkpt>
      <trkpt lat="50.96408" lon="1.89443">
        <ele>3.3</ele>
        <time>2020-06-22T21:34:41Z</time>
      </trkpt>
      <trkpt lat="50.9641" lon="1.89454">
        <ele>3.3</ele>
        <time>2020-06-22T21:34:42Z</time>
      </trkpt>
      <trkpt lat="50.96411" lon="1.89464">
        <ele>3.3</ele>
        <time>2020-06-22T21:34:43Z</time>
      </trkpt>
      <trkpt lat="50.96412" lon="1.89474">
        <ele>3.3</ele>
        <time>2020-06-22T21:34:44Z</time>
      </trkpt>
      <trkpt lat="50.96413" lon="1.89483">
        <ele>3.3</ele>
        <time>2020-06-22T21:34:45Z</time>
      </trkpt>
      <trkpt lat="50.96415" lon="1.89494">
        <ele>3.3</ele>
        <time>2020-06-22T21:34:46Z</time>
      </trkpt>
      <trkpt lat="50.96416" lon="1.89504">
        <ele>3.3</ele>
        <time>2020-06-22T21:34:47Z</time>
      </trkpt>
      <trkpt lat="50.96417" lon="1.89513">
        <ele>3.3</ele>
        <time>2020-06-22T21:34:48Z</time>
      </trkpt>
      <trkpt lat="50.96419" lon="1.89522">
        <ele>3.3</ele>
        <time>2020-06-22T21:34:49Z</time>
      </trkpt>
      <trkpt lat="50.96421" lon="1.89532">
        <ele>3.3</ele>
        <time>2020-06-22T21:34:50Z</time>
      </trkpt>
      <trkpt lat="50.96422" lon="1.89541">
        <ele>3.4</ele>
        <time>2020-06-22T21:34:51Z</time>
      </trkpt>
      <trkpt lat="50.96424" lon="1.89551">
        <ele>3.4</ele>
        <time>2020-06-22T21:34:52Z</time>
      </trkpt>
      <trkpt lat="50.96425" lon="1.89561">
        <ele>3.5</ele>
        <time>2020-06-22T21:34:53Z</time>
      </trkpt>
      <trkpt lat="50.96426" lon="1.8957">
        <ele>3.5</ele>
        <time>2020-06-22T21:34:54Z</time>
      </trkpt>
      <trkpt lat="50.96428" lon="1.89578">
        <ele>3.6</ele>
        <time>2020-06-22T21:34:55Z</time>
      </trkpt>
      <trkpt lat="50.96429" lon="1.89588">
        <ele>3.5</ele>
        <time>2020-06-22T21:34:56Z</time>
      </trkpt>
      <trkpt lat="50.9643" lon="1.89596">
        <ele>3.5</ele>
        <time>2020-06-22T21:34:57Z</time>
      </trkpt>
      <trkpt lat="50.96431" lon="1.89606">
        <ele>3.4</ele>
        <time>2020-06-22T21:34:58Z</time>
      </trkpt>
      <trkpt lat="50.96431" lon="1.89617">
        <ele>3.4</ele>
        <time>2020-06-22T21:34:59Z</time>
      </trkpt>
      <trkpt lat="50.96433" lon="1.89625">
        <ele>3.4</ele>
        <time>2020-06-22T21:35:00Z</time>
      </trkpt>
      <trkpt lat="50.96435" lon="1.89634">
        <ele>3.4</ele>
        <time>2020-06-22T21:35:01Z</time>
      </trkpt>
      <trkpt lat="50.96436" lon="1.89644">
        <ele>3.4</ele>
        <time>2020-06-22T21:35:02Z</time>
      </trkpt>
      <trkpt lat="50.96438" lon="1.89652">
        <ele>3.4</ele>
        <time>2020-06-22T21:35:03Z</time>
      </trkpt>
      <trkpt lat="50.96439" lon="1.89661">
        <ele>3.4</ele>
        <time>2020-06-22T21:35:04Z</time>
      </trkpt>
      <trkpt lat="50.96441" lon="1.89671">
        <ele>3.4</ele>
        <time>2020-06-22T21:35:05Z</time>
      </trkpt>
      <trkpt lat="50.96442" lon="1.8968">
        <ele>3.4</ele>
        <time>2020-06-22T21:35:06Z</time>
      </trkpt>
      <trkpt lat="50.96443" lon="1.89689">
        <ele>3.4</ele>
        <time>2020-06-22T21:35:07Z</time>
      </trkpt>
      <trkpt lat="50.96444" lon="1.89699">
        <ele>3.3</ele>
        <time>2020-06-22T21:35:08Z</time>
      </trkpt>
      <trkpt lat="50.96445" lon="1.89709">
        <ele>3.3</ele>
        <time>2020-06-22T21:35:09Z</time>
      </trkpt>
      <trkpt lat="50.96446" lon="1.89721">
        <ele>3.3</ele>
        <time>2020-06-22T21:35:10Z</time>
      </trkpt>
      <trkpt lat="50.96448" lon="1.89731">
        <ele>3.2</ele>
        <time>2020-06-22T21:35:11Z</time>
      </trkpt>
      <trkpt lat="50.96448" lon="1.8974">
        <ele>3.2</ele>
        <time>2020-06-22T21:35:12Z</time>
      </trkpt>
      <trkpt lat="50.9645" lon="1.89751">
        <ele>3.2</ele>
        <time>2020-06-22T21:35:13Z</time>
      </trkpt>
      <trkpt lat="50.96451" lon="1.8976">
        <ele>3.2</ele>
        <time>2020-06-22T21:35:14Z</time>
      </trkpt>
      <trkpt lat="50.96452" lon="1.89769">
        <ele>3.1</ele>
        <time>2020-06-22T21:35:15Z</time>
      </trkpt>
      <trkpt lat="50.96453" lon="1.89778">
        <ele>3.1</ele>
        <time>2020-06-22T21:35:16Z</time>
      </trkpt>
      <trkpt lat="50.96454" lon="1.89787">
        <ele>3.1</ele>
        <time>2020-06-22T21:35:17Z</time>
      </trkpt>
      <trkpt lat="50.96455" lon="1.89796">
        <ele>3.1</ele>
        <time>2020-06-22T21:35:18Z</time>
      </trkpt>
      <trkpt lat="50.96457" lon="1.89805">
        <ele>3</ele>
        <time>2020-06-22T21:35:19Z</time>
      </trkpt>
      <trkpt lat="50.96458" lon="1.89818">
        <ele>3</ele>
        <time>2020-06-22T21:35:20Z</time>
      </trkpt>
      <trkpt lat="50.96459" lon="1.89827">
        <ele>2.9</ele>
        <time>2020-06-22T21:35:21Z</time>
      </trkpt>
      <trkpt lat="50.9646" lon="1.89835">
        <ele>2.9</ele>
        <time>2020-06-22T21:35:22Z</time>
      </trkpt>
      <trkpt lat="50.96459" lon="1.89844">
        <ele>2.9</ele>
        <time>2020-06-22T21:35:23Z</time>
      </trkpt>
      <trkpt lat="50.9646" lon="1.89853">
        <ele>2.9</ele>
        <time>2020-06-22T21:35:24Z</time>
      </trkpt>
      <trkpt lat="50.96461" lon="1.89863">
        <ele>2.9</ele>
        <time>2020-06-22T21:35:25Z</time>
      </trkpt>
      <trkpt lat="50.96462" lon="1.89872">
        <ele>2.9</ele>
        <time>2020-06-22T21:35:26Z</time>
      </trkpt>
      <trkpt lat="50.96464" lon="1.89882">
        <ele>2.9</ele>
        <time>2020-06-22T21:35:27Z</time>
      </trkpt>
      <trkpt lat="50.96465" lon="1.8989">
        <ele>2.9</ele>
        <time>2020-06-22T21:35:28Z</time>
      </trkpt>
      <trkpt lat="50.96466" lon="1.89902">
        <ele>2.9</ele>
        <time>2020-06-22T21:35:29Z</time>
      </trkpt>
      <trkpt lat="50.96467" lon="1.89911">
        <ele>2.9</ele>
        <time>2020-06-22T21:35:30Z</time>
      </trkpt>
      <trkpt lat="50.96468" lon="1.89921">
        <ele>2.9</ele>
        <time>2020-06-22T21:35:31Z</time>
      </trkpt>
      <trkpt lat="50.96469" lon="1.8993">
        <ele>2.9</ele>
        <time>2020-06-22T21:35:32Z</time>
      </trkpt>
      <trkpt lat="50.96469" lon="1.89939">
        <ele>2.9</ele>
        <time>2020-06-22T21:35:33Z</time>
      </trkpt>
      <trkpt lat="50.9647" lon="1.89948">
        <ele>2.9</ele>
        <time>2020-06-22T21:35:34Z</time>
      </trkpt>
      <trkpt lat="50.96469" lon="1.89956">
        <ele>2.9</ele>
        <time>2020-06-22T21:35:35Z</time>
      </trkpt>
      <trkpt lat="50.96469" lon="1.89969">
        <ele>3</ele>
        <time>2020-06-22T21:35:36Z</time>
      </trkpt>
      <trkpt lat="50.96469" lon="1.89978">
        <ele>2.9</ele>
        <time>2020-06-22T21:35:37Z</time>
      </trkpt>
      <trkpt lat="50.9647" lon="1.89989">
        <ele>2.8</ele>
        <time>2020-06-22T21:35:38Z</time>
      </trkpt>
      <trkpt lat="50.96471" lon="1.89999">
        <ele>2.8</ele>
        <time>2020-06-22T21:35:39Z</time>
      </trkpt>
      <trkpt lat="50.96471" lon="1.90008">
        <ele>2.8</ele>
        <time>2020-06-22T21:35:40Z</time>
      </trkpt>
      <trkpt lat="50.96472" lon="1.90016">
        <ele>2.7</ele>
        <time>2020-06-22T21:35:41Z</time>
      </trkpt>
      <trkpt lat="50.96472" lon="1.90025">
        <ele>2.7</ele>
        <time>2020-06-22T21:35:42Z</time>
      </trkpt>
      <trkpt lat="50.96473" lon="1.90036">
        <ele>2.7</ele>
        <time>2020-06-22T21:35:43Z</time>
      </trkpt>
      <trkpt lat="50.96473" lon="1.90048">
        <ele>2.6</ele>
        <time>2020-06-22T21:35:44Z</time>
      </trkpt>
      <trkpt lat="50.96473" lon="1.90056">
        <ele>2.6</ele>
        <time>2020-06-22T21:35:45Z</time>
      </trkpt>
      <trkpt lat="50.96474" lon="1.90064">
        <ele>2.6</ele>
        <time>2020-06-22T21:35:46Z</time>
      </trkpt>
      <trkpt lat="50.96475" lon="1.90073">
        <ele>2.7</ele>
        <time>2020-06-22T21:35:47Z</time>
      </trkpt>
      <trkpt lat="50.96476" lon="1.90083">
        <ele>2.7</ele>
        <time>2020-06-22T21:35:48Z</time>
      </trkpt>
      <trkpt lat="50.96478" lon="1.90092">
        <ele>2.8</ele>
        <time>2020-06-22T21:35:49Z</time>
      </trkpt>
      <trkpt lat="50.9648" lon="1.901">
        <ele>2.8</ele>
        <time>2020-06-22T21:35:50Z</time>
      </trkpt>
      <trkpt lat="50.96482" lon="1.90109">
        <ele>2.9</ele>
        <time>2020-06-22T21:35:51Z</time>
      </trkpt>
      <trkpt lat="50.96483" lon="1.90119">
        <ele>3</ele>
        <time>2020-06-22T21:35:52Z</time>
      </trkpt>
      <trkpt lat="50.96484" lon="1.90128">
        <ele>3.1</ele>
        <time>2020-06-22T21:35:53Z</time>
      </trkpt>
      <trkpt lat="50.96486" lon="1.90136">
        <ele>3.2</ele>
        <time>2020-06-22T21:35:54Z</time>
      </trkpt>
      <trkpt lat="50.96487" lon="1.90145">
        <ele>3.4</ele>
        <time>2020-06-22T21:35:55Z</time>
      </trkpt>
      <trkpt lat="50.96489" lon="1.90155">
        <ele>3.6</ele>
        <time>2020-06-22T21:35:56Z</time>
      </trkpt>
      <trkpt lat="50.96491" lon="1.9016">
        <ele>3.7</ele>
        <time>2020-06-22T21:35:57Z</time>
      </trkpt>
      <trkpt lat="50.96494" lon="1.90169">
        <ele>3.9</ele>
        <time>2020-06-22T21:35:58Z</time>
      </trkpt>
      <trkpt lat="50.96496" lon="1.90178">
        <ele>4.1</ele>
        <time>2020-06-22T21:35:59Z</time>
      </trkpt>
      <trkpt lat="50.96499" lon="1.90187">
        <ele>4.4</ele>
        <time>2020-06-22T21:36:00Z</time>
      </trkpt>
      <trkpt lat="50.96501" lon="1.90197">
        <ele>4.7</ele>
        <time>2020-06-22T21:36:01Z</time>
      </trkpt>
      <trkpt lat="50.96504" lon="1.90205">
        <ele>4.9</ele>
        <time>2020-06-22T21:36:02Z</time>
      </trkpt>
      <trkpt lat="50.96506" lon="1.90212">
        <ele>5.2</ele>
        <time>2020-06-22T21:36:03Z</time>
      </trkpt>
      <trkpt lat="50.96508" lon="1.90222">
        <ele>5.5</ele>
        <time>2020-06-22T21:36:04Z</time>
      </trkpt>
      <trkpt lat="50.96509" lon="1.9023">
        <ele>5.8</ele>
        <time>2020-06-22T21:36:05Z</time>
      </trkpt>
      <trkpt lat="50.96511" lon="1.90238">
        <ele>6.1</ele>
        <time>2020-06-22T21:36:06Z</time>
      </trkpt>
      <trkpt lat="50.96513" lon="1.90246">
        <ele>6.4</ele>
        <time>2020-06-22T21:36:07Z</time>
      </trkpt>
      <trkpt lat="50.96515" lon="1.90254">
        <ele>6.6</ele>
        <time>2020-06-22T21:36:08Z</time>
      </trkpt>
      <trkpt lat="50.96518" lon="1.90262">
        <ele>6.9</ele>
        <time>2020-06-22T21:36:09Z</time>
      </trkpt>
      <trkpt lat="50.9652" lon="1.90269">
        <ele>7.1</ele>
        <time>2020-06-22T21:36:10Z</time>
      </trkpt>
      <trkpt lat="50.96522" lon="1.90276">
        <ele>7.4</ele>
        <time>2020-06-22T21:36:11Z</time>
      </trkpt>
      <trkpt lat="50.96523" lon="1.90282">
        <ele>7.5</ele>
        <time>2020-06-22T21:36:12Z</time>
      </trkpt>
      <trkpt lat="50.96524" lon="1.90289">
        <ele>7.7</ele>
        <time>2020-06-22T21:36:13Z</time>
      </trkpt>
      <trkpt lat="50.96524" lon="1.90295">
        <ele>7.8</ele>
        <time>2020-06-22T21:36:14Z</time>
      </trkpt>
      <trkpt lat="50.96525" lon="1.903">
        <ele>7.9</ele>
        <time>2020-06-22T21:36:15Z</time>
      </trkpt>
      <trkpt lat="50.96526" lon="1.90306">
        <ele>8</ele>
        <time>2020-06-22T21:36:16Z</time>
      </trkpt>
      <trkpt lat="50.96527" lon="1.9031">
        <ele>8.1</ele>
        <time>2020-06-22T21:36:17Z</time>
      </trkpt>
      <trkpt lat="50.96528" lon="1.90312">
        <ele>8.1</ele>
        <time>2020-06-22T21:36:18Z</time>
      </trkpt>
      <trkpt lat="50.96528" lon="1.90317">
        <ele>8.2</ele>
        <time>2020-06-22T21:36:19Z</time>
      </trkpt>
      <trkpt lat="50.96529" lon="1.90323">
        <ele>8.2</ele>
        <time>2020-06-22T21:36:20Z</time>
      </trkpt>
      <trkpt lat="50.9653" lon="1.90328">
        <ele>8.3</ele>
        <time>2020-06-22T21:36:21Z</time>
      </trkpt>
      <trkpt lat="50.96531" lon="1.90334">
        <ele>8.3</ele>
        <time>2020-06-22T21:36:22Z</time>
      </trkpt>
      <trkpt lat="50.96531" lon="1.9034">
        <ele>8.4</ele>
        <time>2020-06-22T21:36:23Z</time>
      </trkpt>
      <trkpt lat="50.96531" lon="1.90346">
        <ele>8.4</ele>
        <time>2020-06-22T21:36:24Z</time>
      </trkpt>
      <trkpt lat="50.96531" lon="1.9035">
        <ele>8.4</ele>
        <time>2020-06-22T21:36:25Z</time>
      </trkpt>
      <trkpt lat="50.96531" lon="1.90355">
        <ele>8.4</ele>
        <time>2020-06-22T21:36:26Z</time>
      </trkpt>
      <trkpt lat="50.96531" lon="1.90362">
        <ele>8.4</ele>
        <time>2020-06-22T21:36:27Z</time>
      </trkpt>
      <trkpt lat="50.96531" lon="1.90366">
        <ele>8.4</ele>
        <time>2020-06-22T21:36:28Z</time>
      </trkpt>
      <trkpt lat="50.96532" lon="1.90372">
        <ele>8.4</ele>
        <time>2020-06-22T21:36:29Z</time>
      </trkpt>
      <trkpt lat="50.96534" lon="1.90375">
        <ele>8.4</ele>
        <time>2020-06-22T21:36:30Z</time>
      </trkpt>
      <trkpt lat="50.96534" lon="1.90379">
        <ele>8.4</ele>
        <time>2020-06-22T21:36:31Z</time>
      </trkpt>
      <trkpt lat="50.96535" lon="1.90384">
        <ele>8.4</ele>
        <time>2020-06-22T21:36:32Z</time>
      </trkpt>
      <trkpt lat="50.96535" lon="1.90392">
        <ele>8.4</ele>
        <time>2020-06-22T21:36:33Z</time>
      </trkpt>
      <trkpt lat="50.96536" lon="1.90396">
        <ele>8.4</ele>
        <time>2020-06-22T21:36:34Z</time>
      </trkpt>
      <trkpt lat="50.96537" lon="1.90402">
        <ele>8.3</ele>
        <time>2020-06-22T21:36:35Z</time>
      </trkpt>
      <trkpt lat="50.96538" lon="1.90408">
        <ele>8.3</ele>
        <time>2020-06-22T21:36:36Z</time>
      </trkpt>
      <trkpt lat="50.96538" lon="1.90413">
        <ele>8.2</ele>
        <time>2020-06-22T21:36:37Z</time>
      </trkpt>
      <trkpt lat="50.96539" lon="1.90418">
        <ele>8.2</ele>
        <time>2020-06-22T21:36:38Z</time>
      </trkpt>
      <trkpt lat="50.9654" lon="1.90424">
        <ele>8.1</ele>
        <time>2020-06-22T21:36:39Z</time>
      </trkpt>
      <trkpt lat="50.96541" lon="1.90429">
        <ele>8.1</ele>
        <time>2020-06-22T21:36:40Z</time>
      </trkpt>
      <trkpt lat="50.96541" lon="1.90435">
        <ele>8</ele>
        <time>2020-06-22T21:36:41Z</time>
      </trkpt>
      <trkpt lat="50.96541" lon="1.9044">
        <ele>7.9</ele>
        <time>2020-06-22T21:36:42Z</time>
      </trkpt>
      <trkpt lat="50.96542" lon="1.90446">
        <ele>7.8</ele>
        <time>2020-06-22T21:36:43Z</time>
      </trkpt>
      <trkpt lat="50.96542" lon="1.90453">
        <ele>7.6</ele>
        <time>2020-06-22T21:36:44Z</time>
      </trkpt>
      <trkpt lat="50.96543" lon="1.9046">
        <ele>7.5</ele>
        <time>2020-06-22T21:36:45Z</time>
      </trkpt>
      <trkpt lat="50.96543" lon="1.90467">
        <ele>7.3</ele>
        <time>2020-06-22T21:36:46Z</time>
      </trkpt>
      <trkpt lat="50.96543" lon="1.90475">
        <ele>7.1</ele>
        <time>2020-06-22T21:36:47Z</time>
      </trkpt>
      <trkpt lat="50.96543" lon="1.90483">
        <ele>6.9</ele>
        <time>2020-06-22T21:36:48Z</time>
      </trkpt>
      <trkpt lat="50.96543" lon="1.90491">
        <ele>6.6</ele>
        <time>2020-06-22T21:36:49Z</time>
      </trkpt>
      <trkpt lat="50.96543" lon="1.905">
        <ele>6.4</ele>
        <time>2020-06-22T21:36:50Z</time>
      </trkpt>
      <trkpt lat="50.96543" lon="1.90509">
        <ele>6.1</ele>
        <time>2020-06-22T21:36:51Z</time>
      </trkpt>
      <trkpt lat="50.96543" lon="1.90519">
        <ele>5.8</ele>
        <time>2020-06-22T21:36:52Z</time>
      </trkpt>
      <trkpt lat="50.96543" lon="1.90529">
        <ele>5.5</ele>
        <time>2020-06-22T21:36:53Z</time>
      </trkpt>
      <trkpt lat="50.96542" lon="1.9054">
        <ele>5.2</ele>
        <time>2020-06-22T21:36:54Z</time>
      </trkpt>
      <trkpt lat="50.96542" lon="1.90551">
        <ele>4.8</ele>
        <time>2020-06-22T21:36:55Z</time>
      </trkpt>
      <trkpt lat="50.96541" lon="1.90562">
        <ele>4.5</ele>
        <time>2020-06-22T21:36:56Z</time>
      </trkpt>
      <trkpt lat="50.96541" lon="1.90573">
        <ele>4.3</ele>
        <time>2020-06-22T21:36:57Z</time>
      </trkpt>
      <trkpt lat="50.9654" lon="1.90584">
        <ele>4.1</ele>
        <time>2020-06-22T21:36:58Z</time>
      </trkpt>
      <trkpt lat="50.9654" lon="1.90595">
        <ele>4</ele>
        <time>2020-06-22T21:36:59Z</time>
      </trkpt>
      <trkpt lat="50.96539" lon="1.90606">
        <ele>3.8</ele>
        <time>2020-06-22T21:37:00Z</time>
      </trkpt>
      <trkpt lat="50.96539" lon="1.90617">
        <ele>3.7</ele>
        <time>2020-06-22T21:37:01Z</time>
      </trkpt>
      <trkpt lat="50.96538" lon="1.90628">
        <ele>3.6</ele>
        <time>2020-06-22T21:37:02Z</time>
      </trkpt>
      <trkpt lat="50.96539" lon="1.90639">
        <ele>3.5</ele>
        <time>2020-06-22T21:37:03Z</time>
      </trkpt>
      <trkpt lat="50.96539" lon="1.90649">
        <ele>3.5</ele>
        <time>2020-06-22T21:37:04Z</time>
      </trkpt>
      <trkpt lat="50.9654" lon="1.90659">
        <ele>3.5</ele>
        <time>2020-06-22T21:37:05Z</time>
      </trkpt>
      <trkpt lat="50.96541" lon="1.90669">
        <ele>3.5</ele>
        <time>2020-06-22T21:37:06Z</time>
      </trkpt>
      <trkpt lat="50.96543" lon="1.90678">
        <ele>3.5</ele>
        <time>2020-06-22T21:37:07Z</time>
      </trkpt>
      <trkpt lat="50.96545" lon="1.90687">
        <ele>3.5</ele>
        <time>2020-06-22T21:37:08Z</time>
      </trkpt>
      <trkpt lat="50.96545" lon="1.90696">
        <ele>3.5</ele>
        <time>2020-06-22T21:37:09Z</time>
      </trkpt>
      <trkpt lat="50.96547" lon="1.90705">
        <ele>3.5</ele>
        <time>2020-06-22T21:37:10Z</time>
      </trkpt>
      <trkpt lat="50.96548" lon="1.90713">
        <ele>3.5</ele>
        <time>2020-06-22T21:37:11Z</time>
      </trkpt>
      <trkpt lat="50.96549" lon="1.90721">
        <ele>3.5</ele>
        <time>2020-06-22T21:37:12Z</time>
      </trkpt>
      <trkpt lat="50.96551" lon="1.90728">
        <ele>3.5</ele>
        <time>2020-06-22T21:37:13Z</time>
      </trkpt>
      <trkpt lat="50.96551" lon="1.90736">
        <ele>3.4</ele>
        <time>2020-06-22T21:37:14Z</time>
      </trkpt>
      <trkpt lat="50.96552" lon="1.90744">
        <ele>3.4</ele>
        <time>2020-06-22T21:37:15Z</time>
      </trkpt>
      <trkpt lat="50.96553" lon="1.90752">
        <ele>3.4</ele>
        <time>2020-06-22T21:37:16Z</time>
      </trkpt>
      <trkpt lat="50.96554" lon="1.90759">
        <ele>3.4</ele>
        <time>2020-06-22T21:37:17Z</time>
      </trkpt>
      <trkpt lat="50.96556" lon="1.90767">
        <ele>3.4</ele>
        <time>2020-06-22T21:37:18Z</time>
      </trkpt>
      <trkpt lat="50.96557" lon="1.90775">
        <ele>3.4</ele>
        <time>2020-06-22T21:37:19Z</time>
      </trkpt>
      <trkpt lat="50.96558" lon="1.90784">
        <ele>3.3</ele>
        <time>2020-06-22T21:37:20Z</time>
      </trkpt>
      <trkpt lat="50.96559" lon="1.90792">
        <ele>3.3</ele>
        <time>2020-06-22T21:37:21Z</time>
      </trkpt>
      <trkpt lat="50.96561" lon="1.90801">
        <ele>3.3</ele>
        <time>2020-06-22T21:37:22Z</time>
      </trkpt>
      <trkpt lat="50.96562" lon="1.90809">
        <ele>3.3</ele>
        <time>2020-06-22T21:37:23Z</time>
      </trkpt>
      <trkpt lat="50.96563" lon="1.90818">
        <ele>3.2</ele>
        <time>2020-06-22T21:37:24Z</time>
      </trkpt>
      <trkpt lat="50.96564" lon="1.90827">
        <ele>3.2</ele>
        <time>2020-06-22T21:37:25Z</time>
      </trkpt>
      <trkpt lat="50.96566" lon="1.90836">
        <ele>3.2</ele>
        <time>2020-06-22T21:37:26Z</time>
      </trkpt>
      <trkpt lat="50.96567" lon="1.90845">
        <ele>3.2</ele>
        <time>2020-06-22T21:37:27Z</time>
      </trkpt>
      <trkpt lat="50.96568" lon="1.90854">
        <ele>3.1</ele>
        <time>2020-06-22T21:37:28Z</time>
      </trkpt>
      <trkpt lat="50.96569" lon="1.90863">
        <ele>3.1</ele>
        <time>2020-06-22T21:37:29Z</time>
      </trkpt>
      <trkpt lat="50.96571" lon="1.90872">
        <ele>3.1</ele>
        <time>2020-06-22T21:37:30Z</time>
      </trkpt>
      <trkpt lat="50.96572" lon="1.9088">
        <ele>3.1</ele>
        <time>2020-06-22T21:37:31Z</time>
      </trkpt>
      <trkpt lat="50.96573" lon="1.9089">
        <ele>3.1</ele>
        <time>2020-06-22T21:37:32Z</time>
      </trkpt>
      <trkpt lat="50.96574" lon="1.90898">
        <ele>3.1</ele>
        <time>2020-06-22T21:37:33Z</time>
      </trkpt>
      <trkpt lat="50.96575" lon="1.90909">
        <ele>3.2</ele>
        <time>2020-06-22T21:37:34Z</time>
      </trkpt>
      <trkpt lat="50.96576" lon="1.90917">
        <ele>3.2</ele>
        <time>2020-06-22T21:37:35Z</time>
      </trkpt>
      <trkpt lat="50.96577" lon="1.90927">
        <ele>3.3</ele>
        <time>2020-06-22T21:37:36Z</time>
      </trkpt>
      <trkpt lat="50.96578" lon="1.90935">
        <ele>3.3</ele>
        <time>2020-06-22T21:37:37Z</time>
      </trkpt>
      <trkpt lat="50.96579" lon="1.90943">
        <ele>3.3</ele>
        <time>2020-06-22T21:37:38Z</time>
      </trkpt>
      <trkpt lat="50.9658" lon="1.90949">
        <ele>3.3</ele>
        <time>2020-06-22T21:37:39Z</time>
      </trkpt>
      <trkpt lat="50.96582" lon="1.90956">
        <ele>3.3</ele>
        <time>2020-06-22T21:37:40Z</time>
      </trkpt>
      <trkpt lat="50.96582" lon="1.90962">
        <ele>3.3</ele>
        <time>2020-06-22T21:37:41Z</time>
      </trkpt>
      <trkpt lat="50.96583" lon="1.9097">
        <ele>3.3</ele>
        <time>2020-06-22T21:37:42Z</time>
      </trkpt>
      <trkpt lat="50.96584" lon="1.90981">
        <ele>3.2</ele>
        <time>2020-06-22T21:37:43Z</time>
      </trkpt>
      <trkpt lat="50.96585" lon="1.90989">
        <ele>3.2</ele>
        <time>2020-06-22T21:37:44Z</time>
      </trkpt>
      <trkpt lat="50.96586" lon="1.90999">
        <ele>3.2</ele>
        <time>2020-06-22T21:37:45Z</time>
      </trkpt>
      <trkpt lat="50.96586" lon="1.91007">
        <ele>3.2</ele>
        <time>2020-06-22T21:37:46Z</time>
      </trkpt>
      <trkpt lat="50.96587" lon="1.91018">
        <ele>3.3</ele>
        <time>2020-06-22T21:37:47Z</time>
      </trkpt>
      <trkpt lat="50.96587" lon="1.91028">
        <ele>3.3</ele>
        <time>2020-06-22T21:37:48Z</time>
      </trkpt>
      <trkpt lat="50.96588" lon="1.91038">
        <ele>3.3</ele>
        <time>2020-06-22T21:37:49Z</time>
      </trkpt>
      <trkpt lat="50.96588" lon="1.91049">
        <ele>3.3</ele>
        <time>2020-06-22T21:37:50Z</time>
      </trkpt>
      <trkpt lat="50.96589" lon="1.9106">
        <ele>3.3</ele>
        <time>2020-06-22T21:37:51Z</time>
      </trkpt>
      <trkpt lat="50.96589" lon="1.9107">
        <ele>3.4</ele>
        <time>2020-06-22T21:37:52Z</time>
      </trkpt>
      <trkpt lat="50.96589" lon="1.91081">
        <ele>3.4</ele>
        <time>2020-06-22T21:37:53Z</time>
      </trkpt>
      <trkpt lat="50.96589" lon="1.9109">
        <ele>3.4</ele>
        <time>2020-06-22T21:37:54Z</time>
      </trkpt>
      <trkpt lat="50.9659" lon="1.911">
        <ele>3.4</ele>
        <time>2020-06-22T21:37:55Z</time>
      </trkpt>
      <trkpt lat="50.9659" lon="1.91111">
        <ele>3.3</ele>
        <time>2020-06-22T21:37:56Z</time>
      </trkpt>
      <trkpt lat="50.9659" lon="1.91121">
        <ele>3.3</ele>
        <time>2020-06-22T21:37:57Z</time>
      </trkpt>
      <trkpt lat="50.9659" lon="1.9113">
        <ele>3.3</ele>
        <time>2020-06-22T21:37:58Z</time>
      </trkpt>
      <trkpt lat="50.9659" lon="1.91139">
        <ele>3.3</ele>
        <time>2020-06-22T21:37:59Z</time>
      </trkpt>
      <trkpt lat="50.9659" lon="1.91148">
        <ele>3.3</ele>
        <time>2020-06-22T21:38:00Z</time>
      </trkpt>
      <trkpt lat="50.96591" lon="1.91156">
        <ele>3.3</ele>
        <time>2020-06-22T21:38:01Z</time>
      </trkpt>
      <trkpt lat="50.96593" lon="1.91167">
        <ele>3.3</ele>
        <time>2020-06-22T21:38:02Z</time>
      </trkpt>
      <trkpt lat="50.96594" lon="1.91176">
        <ele>3.3</ele>
        <time>2020-06-22T21:38:03Z</time>
      </trkpt>
      <trkpt lat="50.96595" lon="1.91188">
        <ele>3.4</ele>
        <time>2020-06-22T21:38:04Z</time>
      </trkpt>
      <trkpt lat="50.96597" lon="1.91197">
        <ele>3.4</ele>
        <time>2020-06-22T21:38:05Z</time>
      </trkpt>
      <trkpt lat="50.96598" lon="1.91206">
        <ele>3.4</ele>
        <time>2020-06-22T21:38:06Z</time>
      </trkpt>
      <trkpt lat="50.96599" lon="1.91216">
        <ele>3.4</ele>
        <time>2020-06-22T21:38:07Z</time>
      </trkpt>
      <trkpt lat="50.96599" lon="1.91224">
        <ele>3.4</ele>
        <time>2020-06-22T21:38:08Z</time>
      </trkpt>
      <trkpt lat="50.966" lon="1.91233">
        <ele>3.4</ele>
        <time>2020-06-22T21:38:09Z</time>
      </trkpt>
      <trkpt lat="50.96601" lon="1.91243">
        <ele>3.4</ele>
        <time>2020-06-22T21:38:10Z</time>
      </trkpt>
      <trkpt lat="50.96603" lon="1.91252">
        <ele>3.4</ele>
        <time>2020-06-22T21:38:11Z</time>
      </trkpt>
      <trkpt lat="50.96604" lon="1.91261">
        <ele>3.4</ele>
        <time>2020-06-22T21:38:12Z</time>
      </trkpt>
      <trkpt lat="50.96605" lon="1.9127">
        <ele>3.4</ele>
        <time>2020-06-22T21:38:13Z</time>
      </trkpt>
      <trkpt lat="50.96606" lon="1.9128">
        <ele>3.4</ele>
        <time>2020-06-22T21:38:14Z</time>
      </trkpt>
      <trkpt lat="50.96607" lon="1.91288">
        <ele>3.4</ele>
        <time>2020-06-22T21:38:15Z</time>
      </trkpt>
      <trkpt lat="50.96608" lon="1.91298">
        <ele>3.4</ele>
        <time>2020-06-22T21:38:16Z</time>
      </trkpt>
      <trkpt lat="50.96608" lon="1.91308">
        <ele>3.4</ele>
        <time>2020-06-22T21:38:17Z</time>
      </trkpt>
      <trkpt lat="50.96609" lon="1.91318">
        <ele>3.4</ele>
        <time>2020-06-22T21:38:18Z</time>
      </trkpt>
      <trkpt lat="50.9661" lon="1.91327">
        <ele>3.4</ele>
        <time>2020-06-22T21:38:19Z</time>
      </trkpt>
      <trkpt lat="50.96612" lon="1.91337">
        <ele>3.4</ele>
        <time>2020-06-22T21:38:20Z</time>
      </trkpt>
      <trkpt lat="50.96612" lon="1.91346">
        <ele>3.4</ele>
        <time>2020-06-22T21:38:21Z</time>
      </trkpt>
      <trkpt lat="50.96613" lon="1.91355">
        <ele>3.4</ele>
        <time>2020-06-22T21:38:22Z</time>
      </trkpt>
      <trkpt lat="50.96614" lon="1.91365">
        <ele>3.3</ele>
        <time>2020-06-22T21:38:23Z</time>
      </trkpt>
      <trkpt lat="50.96615" lon="1.91374">
        <ele>3.3</ele>
        <time>2020-06-22T21:38:24Z</time>
      </trkpt>
      <trkpt lat="50.96616" lon="1.91386">
        <ele>3.4</ele>
        <time>2020-06-22T21:38:25Z</time>
      </trkpt>
      <trkpt lat="50.96618" lon="1.91395">
        <ele>3.4</ele>
        <time>2020-06-22T21:38:26Z</time>
      </trkpt>
      <trkpt lat="50.96618" lon="1.91404">
        <ele>3.3</ele>
        <time>2020-06-22T21:38:27Z</time>
      </trkpt>
      <trkpt lat="50.9662" lon="1.91414">
        <ele>3.3</ele>
        <time>2020-06-22T21:38:28Z</time>
      </trkpt>
      <trkpt lat="50.96621" lon="1.91424">
        <ele>3.3</ele>
        <time>2020-06-22T21:38:29Z</time>
      </trkpt>
      <trkpt lat="50.96622" lon="1.91435">
        <ele>3.3</ele>
        <time>2020-06-22T21:38:30Z</time>
      </trkpt>
      <trkpt lat="50.96623" lon="1.91443">
        <ele>3.3</ele>
        <time>2020-06-22T21:38:31Z</time>
      </trkpt>
      <trkpt lat="50.96625" lon="1.91454">
        <ele>3.3</ele>
        <time>2020-06-22T21:38:32Z</time>
      </trkpt>
      <trkpt lat="50.96626" lon="1.91466">
        <ele>3.3</ele>
        <time>2020-06-22T21:38:33Z</time>
      </trkpt>
      <trkpt lat="50.96627" lon="1.91477">
        <ele>3.3</ele>
        <time>2020-06-22T21:38:34Z</time>
      </trkpt>
      <trkpt lat="50.96628" lon="1.91489">
        <ele>3.3</ele>
        <time>2020-06-22T21:38:35Z</time>
      </trkpt>
      <trkpt lat="50.96629" lon="1.915">
        <ele>3.4</ele>
        <time>2020-06-22T21:38:36Z</time>
      </trkpt>
      <trkpt lat="50.9663" lon="1.91512">
        <ele>3.4</ele>
        <time>2020-06-22T21:38:37Z</time>
      </trkpt>
      <trkpt lat="50.96631" lon="1.91521">
        <ele>3.4</ele>
        <time>2020-06-22T21:38:38Z</time>
      </trkpt>
      <trkpt lat="50.96632" lon="1.91532">
        <ele>3.4</ele>
        <time>2020-06-22T21:38:39Z</time>
      </trkpt>
      <trkpt lat="50.96633" lon="1.91542">
        <ele>3.4</ele>
        <time>2020-06-22T21:38:40Z</time>
      </trkpt>
      <trkpt lat="50.96634" lon="1.91553">
        <ele>3.3</ele>
        <time>2020-06-22T21:38:41Z</time>
      </trkpt>
      <trkpt lat="50.96635" lon="1.91563">
        <ele>3.3</ele>
        <time>2020-06-22T21:38:42Z</time>
      </trkpt>
      <trkpt lat="50.96637" lon="1.91575">
        <ele>3.3</ele>
        <time>2020-06-22T21:38:43Z</time>
      </trkpt>
      <trkpt lat="50.96637" lon="1.91586">
        <ele>3.3</ele>
        <time>2020-06-22T21:38:44Z</time>
      </trkpt>
      <trkpt lat="50.96639" lon="1.91596">
        <ele>3.4</ele>
        <time>2020-06-22T21:38:45Z</time>
      </trkpt>
      <trkpt lat="50.9664" lon="1.91607">
        <ele>3.4</ele>
        <time>2020-06-22T21:38:46Z</time>
      </trkpt>
      <trkpt lat="50.96642" lon="1.91616">
        <ele>3.5</ele>
        <time>2020-06-22T21:38:47Z</time>
      </trkpt>
      <trkpt lat="50.96643" lon="1.91628">
        <ele>3.5</ele>
        <time>2020-06-22T21:38:48Z</time>
      </trkpt>
      <trkpt lat="50.96645" lon="1.91638">
        <ele>3.5</ele>
        <time>2020-06-22T21:38:49Z</time>
      </trkpt>
      <trkpt lat="50.96645" lon="1.91649">
        <ele>3.5</ele>
        <time>2020-06-22T21:38:50Z</time>
      </trkpt>
      <trkpt lat="50.96646" lon="1.91658">
        <ele>3.5</ele>
        <time>2020-06-22T21:38:51Z</time>
      </trkpt>
      <trkpt lat="50.96648" lon="1.91669">
        <ele>3.5</ele>
        <time>2020-06-22T21:38:52Z</time>
      </trkpt>
      <trkpt lat="50.96649" lon="1.9168">
        <ele>3.5</ele>
        <time>2020-06-22T21:38:53Z</time>
      </trkpt>
      <trkpt lat="50.9665" lon="1.91691">
        <ele>3.5</ele>
        <time>2020-06-22T21:38:54Z</time>
      </trkpt>
      <trkpt lat="50.96652" lon="1.91702">
        <ele>3.5</ele>
        <time>2020-06-22T21:38:55Z</time>
      </trkpt>
      <trkpt lat="50.96653" lon="1.91712">
        <ele>3.5</ele>
        <time>2020-06-22T21:38:56Z</time>
      </trkpt>
      <trkpt lat="50.96653" lon="1.91723">
        <ele>3.5</ele>
        <time>2020-06-22T21:38:57Z</time>
      </trkpt>
      <trkpt lat="50.96655" lon="1.91735">
        <ele>3.5</ele>
        <time>2020-06-22T21:38:58Z</time>
      </trkpt>
      <trkpt lat="50.96656" lon="1.91746">
        <ele>3.5</ele>
        <time>2020-06-22T21:38:59Z</time>
      </trkpt>
      <trkpt lat="50.96657" lon="1.91758">
        <ele>3.5</ele>
        <time>2020-06-22T21:39:00Z</time>
      </trkpt>
      <trkpt lat="50.96659" lon="1.91769">
        <ele>3.5</ele>
        <time>2020-06-22T21:39:01Z</time>
      </trkpt>
      <trkpt lat="50.9666" lon="1.91781">
        <ele>3.6</ele>
        <time>2020-06-22T21:39:02Z</time>
      </trkpt>
      <trkpt lat="50.96661" lon="1.91792">
        <ele>3.6</ele>
        <time>2020-06-22T21:39:03Z</time>
      </trkpt>
      <trkpt lat="50.96663" lon="1.91803">
        <ele>3.6</ele>
        <time>2020-06-22T21:39:04Z</time>
      </trkpt>
      <trkpt lat="50.96663" lon="1.91814">
        <ele>3.6</ele>
        <time>2020-06-22T21:39:05Z</time>
      </trkpt>
      <trkpt lat="50.96664" lon="1.91826">
        <ele>3.6</ele>
        <time>2020-06-22T21:39:06Z</time>
      </trkpt>
      <trkpt lat="50.96665" lon="1.91837">
        <ele>3.6</ele>
        <time>2020-06-22T21:39:07Z</time>
      </trkpt>
      <trkpt lat="50.96666" lon="1.91848">
        <ele>3.6</ele>
        <time>2020-06-22T21:39:08Z</time>
      </trkpt>
      <trkpt lat="50.96667" lon="1.9186">
        <ele>3.6</ele>
        <time>2020-06-22T21:39:09Z</time>
      </trkpt>
      <trkpt lat="50.96668" lon="1.91871">
        <ele>3.6</ele>
        <time>2020-06-22T21:39:10Z</time>
      </trkpt>
      <trkpt lat="50.96669" lon="1.91882">
        <ele>3.5</ele>
        <time>2020-06-22T21:39:11Z</time>
      </trkpt>
      <trkpt lat="50.96669" lon="1.91893">
        <ele>3.5</ele>
        <time>2020-06-22T21:39:12Z</time>
      </trkpt>
      <trkpt lat="50.9667" lon="1.91905">
        <ele>3.5</ele>
        <time>2020-06-22T21:39:13Z</time>
      </trkpt>
      <trkpt lat="50.9667" lon="1.91916">
        <ele>3.5</ele>
        <time>2020-06-22T21:39:14Z</time>
      </trkpt>
      <trkpt lat="50.96671" lon="1.91927">
        <ele>3.5</ele>
        <time>2020-06-22T21:39:15Z</time>
      </trkpt>
      <trkpt lat="50.96671" lon="1.91938">
        <ele>3.5</ele>
        <time>2020-06-22T21:39:16Z</time>
      </trkpt>
      <trkpt lat="50.96672" lon="1.91948">
        <ele>3.5</ele>
        <time>2020-06-22T21:39:17Z</time>
      </trkpt>
      <trkpt lat="50.96674" lon="1.91959">
        <ele>3.5</ele>
        <time>2020-06-22T21:39:18Z</time>
      </trkpt>
      <trkpt lat="50.96674" lon="1.9197">
        <ele>3.5</ele>
        <time>2020-06-22T21:39:19Z</time>
      </trkpt>
      <trkpt lat="50.96674" lon="1.9198">
        <ele>3.5</ele>
        <time>2020-06-22T21:39:20Z</time>
      </trkpt>
      <trkpt lat="50.96674" lon="1.91991">
        <ele>3.5</ele>
        <time>2020-06-22T21:39:21Z</time>
      </trkpt>
      <trkpt lat="50.96674" lon="1.92002">
        <ele>3.5</ele>
        <time>2020-06-22T21:39:22Z</time>
      </trkpt>
      <trkpt lat="50.96674" lon="1.92012">
        <ele>3.4</ele>
        <time>2020-06-22T21:39:23Z</time>
      </trkpt>
      <trkpt lat="50.96674" lon="1.92023">
        <ele>3.4</ele>
        <time>2020-06-22T21:39:24Z</time>
      </trkpt>
      <trkpt lat="50.96674" lon="1.92033">
        <ele>3.4</ele>
        <time>2020-06-22T21:39:25Z</time>
      </trkpt>
      <trkpt lat="50.96675" lon="1.92044">
        <ele>3.5</ele>
        <time>2020-06-22T21:39:26Z</time>
      </trkpt>
      <trkpt lat="50.96676" lon="1.92055">
        <ele>3.5</ele>
        <time>2020-06-22T21:39:27Z</time>
      </trkpt>
      <trkpt lat="50.96677" lon="1.92066">
        <ele>3.5</ele>
        <time>2020-06-22T21:39:28Z</time>
      </trkpt>
      <trkpt lat="50.96678" lon="1.92076">
        <ele>3.5</ele>
        <time>2020-06-22T21:39:29Z</time>
      </trkpt>
      <trkpt lat="50.96679" lon="1.92087">
        <ele>3.5</ele>
        <time>2020-06-22T21:39:30Z</time>
      </trkpt>
      <trkpt lat="50.9668" lon="1.92097">
        <ele>3.5</ele>
        <time>2020-06-22T21:39:31Z</time>
      </trkpt>
      <trkpt lat="50.9668" lon="1.92108">
        <ele>3.6</ele>
        <time>2020-06-22T21:39:32Z</time>
      </trkpt>
      <trkpt lat="50.96681" lon="1.92118">
        <ele>3.6</ele>
        <time>2020-06-22T21:39:33Z</time>
      </trkpt>
      <trkpt lat="50.96681" lon="1.92129">
        <ele>3.6</ele>
        <time>2020-06-22T21:39:34Z</time>
      </trkpt>
      <trkpt lat="50.96682" lon="1.92139">
        <ele>3.6</ele>
        <time>2020-06-22T21:39:35Z</time>
      </trkpt>
      <trkpt lat="50.96682" lon="1.92149">
        <ele>3.6</ele>
        <time>2020-06-22T21:39:36Z</time>
      </trkpt>
      <trkpt lat="50.96683" lon="1.92159">
        <ele>3.6</ele>
        <time>2020-06-22T21:39:37Z</time>
      </trkpt>
      <trkpt lat="50.96684" lon="1.92169">
        <ele>3.6</ele>
        <time>2020-06-22T21:39:38Z</time>
      </trkpt>
      <trkpt lat="50.96685" lon="1.92179">
        <ele>3.6</ele>
        <time>2020-06-22T21:39:39Z</time>
      </trkpt>
      <trkpt lat="50.96686" lon="1.92189">
        <ele>3.6</ele>
        <time>2020-06-22T21:39:40Z</time>
      </trkpt>
      <trkpt lat="50.96687" lon="1.922">
        <ele>3.7</ele>
        <time>2020-06-22T21:39:41Z</time>
      </trkpt>
      <trkpt lat="50.96687" lon="1.9221">
        <ele>3.7</ele>
        <time>2020-06-22T21:39:42Z</time>
      </trkpt>
      <trkpt lat="50.96688" lon="1.9222">
        <ele>3.8</ele>
        <time>2020-06-22T21:39:43Z</time>
      </trkpt>
      <trkpt lat="50.96689" lon="1.9223">
        <ele>3.7</ele>
        <time>2020-06-22T21:39:44Z</time>
      </trkpt>
      <trkpt lat="50.96689" lon="1.9224">
        <ele>3.6</ele>
        <time>2020-06-22T21:39:45Z</time>
      </trkpt>
      <trkpt lat="50.9669" lon="1.92251">
        <ele>3.6</ele>
        <time>2020-06-22T21:39:46Z</time>
      </trkpt>
      <trkpt lat="50.96691" lon="1.9226">
        <ele>3.5</ele>
        <time>2020-06-22T21:39:47Z</time>
      </trkpt>
      <trkpt lat="50.96691" lon="1.92271">
        <ele>3.5</ele>
        <time>2020-06-22T21:39:48Z</time>
      </trkpt>
      <trkpt lat="50.96692" lon="1.9228">
        <ele>3.5</ele>
        <time>2020-06-22T21:39:49Z</time>
      </trkpt>
      <trkpt lat="50.96693" lon="1.9229">
        <ele>3.4</ele>
        <time>2020-06-22T21:39:50Z</time>
      </trkpt>
      <trkpt lat="50.96693" lon="1.92299">
        <ele>3.4</ele>
        <time>2020-06-22T21:39:51Z</time>
      </trkpt>
      <trkpt lat="50.96694" lon="1.92308">
        <ele>3.4</ele>
        <time>2020-06-22T21:39:52Z</time>
      </trkpt>
      <trkpt lat="50.96695" lon="1.92317">
        <ele>3.4</ele>
        <time>2020-06-22T21:39:53Z</time>
      </trkpt>
      <trkpt lat="50.96695" lon="1.92326">
        <ele>3.4</ele>
        <time>2020-06-22T21:39:54Z</time>
      </trkpt>
      <trkpt lat="50.96695" lon="1.92335">
        <ele>3.5</ele>
        <time>2020-06-22T21:39:55Z</time>
      </trkpt>
      <trkpt lat="50.96696" lon="1.92343">
        <ele>3.5</ele>
        <time>2020-06-22T21:39:56Z</time>
      </trkpt>
      <trkpt lat="50.96697" lon="1.9235">
        <ele>3.5</ele>
        <time>2020-06-22T21:39:57Z</time>
      </trkpt>
      <trkpt lat="50.96697" lon="1.92357">
        <ele>3.5</ele>
        <time>2020-06-22T21:39:58Z</time>
      </trkpt>
      <trkpt lat="50.96698" lon="1.92364">
        <ele>3.6</ele>
        <time>2020-06-22T21:39:59Z</time>
      </trkpt>
      <trkpt lat="50.96698" lon="1.92371">
        <ele>3.6</ele>
        <time>2020-06-22T21:40:00Z</time>
      </trkpt>
      <trkpt lat="50.96697" lon="1.92378">
        <ele>3.6</ele>
        <time>2020-06-22T21:40:01Z</time>
      </trkpt>
      <trkpt lat="50.96697" lon="1.92385">
        <ele>3.6</ele>
        <time>2020-06-22T21:40:02Z</time>
      </trkpt>
      <trkpt lat="50.96698" lon="1.92391">
        <ele>3.5</ele>
        <time>2020-06-22T21:40:03Z</time>
      </trkpt>
      <trkpt lat="50.96699" lon="1.92398">
        <ele>3.5</ele>
        <time>2020-06-22T21:40:04Z</time>
      </trkpt>
      <trkpt lat="50.967" lon="1.92405">
        <ele>3.5</ele>
        <time>2020-06-22T21:40:05Z</time>
      </trkpt>
      <trkpt lat="50.967" lon="1.92412">
        <ele>3.5</ele>
        <time>2020-06-22T21:40:06Z</time>
      </trkpt>
      <trkpt lat="50.96702" lon="1.92419">
        <ele>3.5</ele>
        <time>2020-06-22T21:40:07Z</time>
      </trkpt>
      <trkpt lat="50.96704" lon="1.92426">
        <ele>3.5</ele>
        <time>2020-06-22T21:40:08Z</time>
      </trkpt>
      <trkpt lat="50.96706" lon="1.92434">
        <ele>3.5</ele>
        <time>2020-06-22T21:40:09Z</time>
      </trkpt>
      <trkpt lat="50.96705" lon="1.92442">
        <ele>3.5</ele>
        <time>2020-06-22T21:40:10Z</time>
      </trkpt>
      <trkpt lat="50.96706" lon="1.92451">
        <ele>3.5</ele>
        <time>2020-06-22T21:40:11Z</time>
      </trkpt>
      <trkpt lat="50.96708" lon="1.92459">
        <ele>3.5</ele>
        <time>2020-06-22T21:40:12Z</time>
      </trkpt>
      <trkpt lat="50.9671" lon="1.92467">
        <ele>3.4</ele>
        <time>2020-06-22T21:40:13Z</time>
      </trkpt>
      <trkpt lat="50.96712" lon="1.92475">
        <ele>3.4</ele>
        <time>2020-06-22T21:40:14Z</time>
      </trkpt>
      <trkpt lat="50.96713" lon="1.92484">
        <ele>3.4</ele>
        <time>2020-06-22T21:40:15Z</time>
      </trkpt>
      <trkpt lat="50.96715" lon="1.92492">
        <ele>3.4</ele>
        <time>2020-06-22T21:40:16Z</time>
      </trkpt>
      <trkpt lat="50.96715" lon="1.92501">
        <ele>3.4</ele>
        <time>2020-06-22T21:40:17Z</time>
      </trkpt>
      <trkpt lat="50.96715" lon="1.92509">
        <ele>3.4</ele>
        <time>2020-06-22T21:40:18Z</time>
      </trkpt>
      <trkpt lat="50.96716" lon="1.92518">
        <ele>3.4</ele>
        <time>2020-06-22T21:40:19Z</time>
      </trkpt>
      <trkpt lat="50.96718" lon="1.92526">
        <ele>3.5</ele>
        <time>2020-06-22T21:40:20Z</time>
      </trkpt>
      <trkpt lat="50.96719" lon="1.92534">
        <ele>3.5</ele>
        <time>2020-06-22T21:40:21Z</time>
      </trkpt>
      <trkpt lat="50.96721" lon="1.92541">
        <ele>3.5</ele>
        <time>2020-06-22T21:40:22Z</time>
      </trkpt>
      <trkpt lat="50.96722" lon="1.92549">
        <ele>3.5</ele>
        <time>2020-06-22T21:40:23Z</time>
      </trkpt>
      <trkpt lat="50.96723" lon="1.92558">
        <ele>3.6</ele>
        <time>2020-06-22T21:40:24Z</time>
      </trkpt>
      <trkpt lat="50.96723" lon="1.92567">
        <ele>3.6</ele>
        <time>2020-06-22T21:40:25Z</time>
      </trkpt>
      <trkpt lat="50.96723" lon="1.92577">
        <ele>3.7</ele>
        <time>2020-06-22T21:40:26Z</time>
      </trkpt>
      <trkpt lat="50.96724" lon="1.92586">
        <ele>3.7</ele>
        <time>2020-06-22T21:40:27Z</time>
      </trkpt>
      <trkpt lat="50.96725" lon="1.92596">
        <ele>3.7</ele>
        <time>2020-06-22T21:40:28Z</time>
      </trkpt>
      <trkpt lat="50.96724" lon="1.92605">
        <ele>3.7</ele>
        <time>2020-06-22T21:40:29Z</time>
      </trkpt>
      <trkpt lat="50.96723" lon="1.92613">
        <ele>3.7</ele>
        <time>2020-06-22T21:40:30Z</time>
      </trkpt>
      <trkpt lat="50.96721" lon="1.92622">
        <ele>3.7</ele>
        <time>2020-06-22T21:40:31Z</time>
      </trkpt>
      <trkpt lat="50.96721" lon="1.92631">
        <ele>3.7</ele>
        <time>2020-06-22T21:40:32Z</time>
      </trkpt>
      <trkpt lat="50.9672" lon="1.9264">
        <ele>3.6</ele>
        <time>2020-06-22T21:40:33Z</time>
      </trkpt>
      <trkpt lat="50.96719" lon="1.9265">
        <ele>3.6</ele>
        <time>2020-06-22T21:40:34Z</time>
      </trkpt>
      <trkpt lat="50.96719" lon="1.92659">
        <ele>3.6</ele>
        <time>2020-06-22T21:40:35Z</time>
      </trkpt>
      <trkpt lat="50.96719" lon="1.92668">
        <ele>3.6</ele>
        <time>2020-06-22T21:40:36Z</time>
      </trkpt>
      <trkpt lat="50.96717" lon="1.92677">
        <ele>3.6</ele>
        <time>2020-06-22T21:40:37Z</time>
      </trkpt>
      <trkpt lat="50.96715" lon="1.92686">
        <ele>3.6</ele>
        <time>2020-06-22T21:40:38Z</time>
      </trkpt>
      <trkpt lat="50.96714" lon="1.92696">
        <ele>3.6</ele>
        <time>2020-06-22T21:40:39Z</time>
      </trkpt>
      <trkpt lat="50.96713" lon="1.92706">
        <ele>3.6</ele>
        <time>2020-06-22T21:40:40Z</time>
      </trkpt>
      <trkpt lat="50.96713" lon="1.92717">
        <ele>3.5</ele>
        <time>2020-06-22T21:40:41Z</time>
      </trkpt>
      <trkpt lat="50.96712" lon="1.92728">
        <ele>3.5</ele>
        <time>2020-06-22T21:40:42Z</time>
      </trkpt>
      <trkpt lat="50.96711" lon="1.92738">
        <ele>3.5</ele>
        <time>2020-06-22T21:40:43Z</time>
      </trkpt>
      <trkpt lat="50.96711" lon="1.92749">
        <ele>3.5</ele>
        <time>2020-06-22T21:40:44Z</time>
      </trkpt>
      <trkpt lat="50.96712" lon="1.92759">
        <ele>3.5</ele>
        <time>2020-06-22T21:40:45Z</time>
      </trkpt>
      <trkpt lat="50.96712" lon="1.92769">
        <ele>3.5</ele>
        <time>2020-06-22T21:40:46Z</time>
      </trkpt>
      <trkpt lat="50.96712" lon="1.92778">
        <ele>3.6</ele>
        <time>2020-06-22T21:40:47Z</time>
      </trkpt>
      <trkpt lat="50.96713" lon="1.92788">
        <ele>3.6</ele>
        <time>2020-06-22T21:40:48Z</time>
      </trkpt>
      <trkpt lat="50.96713" lon="1.92795">
        <ele>3.6</ele>
        <time>2020-06-22T21:40:49Z</time>
      </trkpt>
      <trkpt lat="50.96714" lon="1.92804">
        <ele>3.5</ele>
        <time>2020-06-22T21:40:50Z</time>
      </trkpt>
      <trkpt lat="50.96715" lon="1.92815">
        <ele>3.4</ele>
        <time>2020-06-22T21:40:51Z</time>
      </trkpt>
      <trkpt lat="50.96716" lon="1.92822">
        <ele>3.4</ele>
        <time>2020-06-22T21:40:52Z</time>
      </trkpt>
      <trkpt lat="50.96716" lon="1.92832">
        <ele>3.4</ele>
        <time>2020-06-22T21:40:53Z</time>
      </trkpt>
      <trkpt lat="50.96717" lon="1.92842">
        <ele>3.4</ele>
        <time>2020-06-22T21:40:54Z</time>
      </trkpt>
      <trkpt lat="50.96717" lon="1.92853">
        <ele>3.3</ele>
        <time>2020-06-22T21:40:55Z</time>
      </trkpt>
      <trkpt lat="50.96718" lon="1.92861">
        <ele>3.3</ele>
        <time>2020-06-22T21:40:56Z</time>
      </trkpt>
      <trkpt lat="50.96716" lon="1.9287">
        <ele>3.3</ele>
        <time>2020-06-22T21:40:57Z</time>
      </trkpt>
      <trkpt lat="50.96715" lon="1.92878">
        <ele>3.3</ele>
        <time>2020-06-22T21:40:58Z</time>
      </trkpt>
      <trkpt lat="50.96714" lon="1.92886">
        <ele>3.3</ele>
        <time>2020-06-22T21:40:59Z</time>
      </trkpt>
      <trkpt lat="50.96713" lon="1.92895">
        <ele>3.3</ele>
        <time>2020-06-22T21:41:00Z</time>
      </trkpt>
      <trkpt lat="50.96712" lon="1.92905">
        <ele>3.4</ele>
        <time>2020-06-22T21:41:01Z</time>
      </trkpt>
      <trkpt lat="50.96711" lon="1.92914">
        <ele>3.4</ele>
        <time>2020-06-22T21:41:02Z</time>
      </trkpt>
      <trkpt lat="50.9671" lon="1.92922">
        <ele>3.4</ele>
        <time>2020-06-22T21:41:03Z</time>
      </trkpt>
      <trkpt lat="50.96709" lon="1.9293">
        <ele>3.4</ele>
        <time>2020-06-22T21:41:04Z</time>
      </trkpt>
      <trkpt lat="50.96708" lon="1.92938">
        <ele>3.5</ele>
        <time>2020-06-22T21:41:05Z</time>
      </trkpt>
      <trkpt lat="50.96706" lon="1.92947">
        <ele>3.5</ele>
        <time>2020-06-22T21:41:06Z</time>
      </trkpt>
      <trkpt lat="50.96705" lon="1.92956">
        <ele>3.5</ele>
        <time>2020-06-22T21:41:07Z</time>
      </trkpt>
      <trkpt lat="50.96703" lon="1.92965">
        <ele>3.5</ele>
        <time>2020-06-22T21:41:08Z</time>
      </trkpt>
      <trkpt lat="50.96702" lon="1.92974">
        <ele>3.5</ele>
        <time>2020-06-22T21:41:09Z</time>
      </trkpt>
      <trkpt lat="50.96701" lon="1.92983">
        <ele>3.5</ele>
        <time>2020-06-22T21:41:10Z</time>
      </trkpt>
      <trkpt lat="50.96701" lon="1.92991">
        <ele>3.6</ele>
        <time>2020-06-22T21:41:11Z</time>
      </trkpt>
      <trkpt lat="50.967" lon="1.92998">
        <ele>3.6</ele>
        <time>2020-06-22T21:41:12Z</time>
      </trkpt>
      <trkpt lat="50.96699" lon="1.93008">
        <ele>3.7</ele>
        <time>2020-06-22T21:41:13Z</time>
      </trkpt>
      <trkpt lat="50.96699" lon="1.93019">
        <ele>3.7</ele>
        <time>2020-06-22T21:41:14Z</time>
      </trkpt>
      <trkpt lat="50.96699" lon="1.93029">
        <ele>3.7</ele>
        <time>2020-06-22T21:41:15Z</time>
      </trkpt>
      <trkpt lat="50.96699" lon="1.93039">
        <ele>3.6</ele>
        <time>2020-06-22T21:41:16Z</time>
      </trkpt>
      <trkpt lat="50.967" lon="1.93049">
        <ele>3.6</ele>
        <time>2020-06-22T21:41:17Z</time>
      </trkpt>
      <trkpt lat="50.967" lon="1.93059">
        <ele>3.6</ele>
        <time>2020-06-22T21:41:18Z</time>
      </trkpt>
      <trkpt lat="50.96701" lon="1.93069">
        <ele>3.5</ele>
        <time>2020-06-22T21:41:19Z</time>
      </trkpt>
      <trkpt lat="50.96702" lon="1.93079">
        <ele>3.5</ele>
        <time>2020-06-22T21:41:20Z</time>
      </trkpt>
      <trkpt lat="50.96703" lon="1.93087">
        <ele>3.5</ele>
        <time>2020-06-22T21:41:21Z</time>
      </trkpt>
      <trkpt lat="50.96704" lon="1.93097">
        <ele>3.5</ele>
        <time>2020-06-22T21:41:22Z</time>
      </trkpt>
      <trkpt lat="50.96706" lon="1.93103">
        <ele>3.5</ele>
        <time>2020-06-22T21:41:23Z</time>
      </trkpt>
      <trkpt lat="50.96708" lon="1.93115">
        <ele>3.4</ele>
        <time>2020-06-22T21:41:24Z</time>
      </trkpt>
      <trkpt lat="50.96711" lon="1.93123">
        <ele>3.4</ele>
        <time>2020-06-22T21:41:25Z</time>
      </trkpt>
      <trkpt lat="50.96714" lon="1.93132">
        <ele>3.4</ele>
        <time>2020-06-22T21:41:26Z</time>
      </trkpt>
      <trkpt lat="50.96716" lon="1.93143">
        <ele>3.4</ele>
        <time>2020-06-22T21:41:27Z</time>
      </trkpt>
      <trkpt lat="50.96718" lon="1.9315">
        <ele>3.4</ele>
        <time>2020-06-22T21:41:28Z</time>
      </trkpt>
      <trkpt lat="50.96719" lon="1.93158">
        <ele>3.4</ele>
        <time>2020-06-22T21:41:29Z</time>
      </trkpt>
      <trkpt lat="50.96721" lon="1.93167">
        <ele>3.4</ele>
        <time>2020-06-22T21:41:30Z</time>
      </trkpt>
      <trkpt lat="50.96722" lon="1.93176">
        <ele>3.5</ele>
        <time>2020-06-22T21:41:31Z</time>
      </trkpt>
      <trkpt lat="50.96724" lon="1.93185">
        <ele>3.5</ele>
        <time>2020-06-22T21:41:32Z</time>
      </trkpt>
      <trkpt lat="50.96726" lon="1.93195">
        <ele>3.6</ele>
        <time>2020-06-22T21:41:33Z</time>
      </trkpt>
      <trkpt lat="50.96728" lon="1.93203">
        <ele>3.6</ele>
        <time>2020-06-22T21:41:34Z</time>
      </trkpt>
      <trkpt lat="50.96729" lon="1.93211">
        <ele>3.6</ele>
        <time>2020-06-22T21:41:35Z</time>
      </trkpt>
      <trkpt lat="50.96731" lon="1.93218">
        <ele>3.6</ele>
        <time>2020-06-22T21:41:36Z</time>
      </trkpt>
      <trkpt lat="50.96733" lon="1.93226">
        <ele>3.6</ele>
        <time>2020-06-22T21:41:37Z</time>
      </trkpt>
      <trkpt lat="50.96734" lon="1.93234">
        <ele>3.6</ele>
        <time>2020-06-22T21:41:38Z</time>
      </trkpt>
      <trkpt lat="50.96735" lon="1.93242">
        <ele>3.6</ele>
        <time>2020-06-22T21:41:39Z</time>
      </trkpt>
      <trkpt lat="50.96737" lon="1.9325">
        <ele>3.6</ele>
        <time>2020-06-22T21:41:40Z</time>
      </trkpt>
      <trkpt lat="50.96738" lon="1.9326">
        <ele>3.5</ele>
        <time>2020-06-22T21:41:41Z</time>
      </trkpt>
      <trkpt lat="50.9674" lon="1.9327">
        <ele>3.4</ele>
        <time>2020-06-22T21:41:42Z</time>
      </trkpt>
      <trkpt lat="50.96741" lon="1.93279">
        <ele>3.3</ele>
        <time>2020-06-22T21:41:43Z</time>
      </trkpt>
      <trkpt lat="50.96744" lon="1.93288">
        <ele>3.3</ele>
        <time>2020-06-22T21:41:44Z</time>
      </trkpt>
      <trkpt lat="50.96746" lon="1.93295">
        <ele>3.3</ele>
        <time>2020-06-22T21:41:45Z</time>
      </trkpt>
      <trkpt lat="50.96748" lon="1.93302">
        <ele>3.2</ele>
        <time>2020-06-22T21:41:46Z</time>
      </trkpt>
      <trkpt lat="50.96749" lon="1.93312">
        <ele>3.2</ele>
        <time>2020-06-22T21:41:47Z</time>
      </trkpt>
      <trkpt lat="50.96752" lon="1.93321">
        <ele>3.2</ele>
        <time>2020-06-22T21:41:48Z</time>
      </trkpt>
      <trkpt lat="50.96753" lon="1.9333">
        <ele>3.2</ele>
        <time>2020-06-22T21:41:49Z</time>
      </trkpt>
      <trkpt lat="50.96755" lon="1.93342">
        <ele>3.2</ele>
        <time>2020-06-22T21:41:50Z</time>
      </trkpt>
      <trkpt lat="50.96756" lon="1.93351">
        <ele>3.3</ele>
        <time>2020-06-22T21:41:51Z</time>
      </trkpt>
      <trkpt lat="50.96758" lon="1.93361">
        <ele>3.4</ele>
        <time>2020-06-22T21:41:52Z</time>
      </trkpt>
      <trkpt lat="50.9676" lon="1.93372">
        <ele>3.5</ele>
        <time>2020-06-22T21:41:53Z</time>
      </trkpt>
      <trkpt lat="50.96761" lon="1.93384">
        <ele>3.6</ele>
        <time>2020-06-22T21:41:54Z</time>
      </trkpt>
      <trkpt lat="50.96763" lon="1.93394">
        <ele>3.5</ele>
        <time>2020-06-22T21:41:55Z</time>
      </trkpt>
      <trkpt lat="50.96765" lon="1.93404">
        <ele>3.5</ele>
        <time>2020-06-22T21:41:56Z</time>
      </trkpt>
      <trkpt lat="50.96766" lon="1.93415">
        <ele>3.5</ele>
        <time>2020-06-22T21:41:57Z</time>
      </trkpt>
      <trkpt lat="50.96767" lon="1.93426">
        <ele>3.5</ele>
        <time>2020-06-22T21:41:58Z</time>
      </trkpt>
      <trkpt lat="50.96768" lon="1.93435">
        <ele>3.5</ele>
        <time>2020-06-22T21:41:59Z</time>
      </trkpt>
      <trkpt lat="50.9677" lon="1.93444">
        <ele>3.5</ele>
        <time>2020-06-22T21:42:00Z</time>
      </trkpt>
      <trkpt lat="50.96771" lon="1.93454">
        <ele>3.5</ele>
        <time>2020-06-22T21:42:01Z</time>
      </trkpt>
      <trkpt lat="50.96772" lon="1.93463">
        <ele>3.5</ele>
        <time>2020-06-22T21:42:02Z</time>
      </trkpt>
      <trkpt lat="50.96774" lon="1.93472">
        <ele>3.5</ele>
        <time>2020-06-22T21:42:03Z</time>
      </trkpt>
      <trkpt lat="50.96775" lon="1.93482">
        <ele>3.6</ele>
        <time>2020-06-22T21:42:04Z</time>
      </trkpt>
      <trkpt lat="50.96775" lon="1.93492">
        <ele>3.6</ele>
        <time>2020-06-22T21:42:05Z</time>
      </trkpt>
      <trkpt lat="50.96776" lon="1.935">
        <ele>3.6</ele>
        <time>2020-06-22T21:42:06Z</time>
      </trkpt>
      <trkpt lat="50.96776" lon="1.9351">
        <ele>3.7</ele>
        <time>2020-06-22T21:42:07Z</time>
      </trkpt>
      <trkpt lat="50.96776" lon="1.9352">
        <ele>3.7</ele>
        <time>2020-06-22T21:42:08Z</time>
      </trkpt>
      <trkpt lat="50.96776" lon="1.9353">
        <ele>3.7</ele>
        <time>2020-06-22T21:42:09Z</time>
      </trkpt>
      <trkpt lat="50.96776" lon="1.9354">
        <ele>3.7</ele>
        <time>2020-06-22T21:42:10Z</time>
      </trkpt>
      <trkpt lat="50.96776" lon="1.9355">
        <ele>3.7</ele>
        <time>2020-06-22T21:42:11Z</time>
      </trkpt>
      <trkpt lat="50.96776" lon="1.93558">
        <ele>3.7</ele>
        <time>2020-06-22T21:42:12Z</time>
      </trkpt>
      <trkpt lat="50.96777" lon="1.93568">
        <ele>3.7</ele>
        <time>2020-06-22T21:42:13Z</time>
      </trkpt>
      <trkpt lat="50.96776" lon="1.93577">
        <ele>3.7</ele>
        <time>2020-06-22T21:42:14Z</time>
      </trkpt>
      <trkpt lat="50.96776" lon="1.93586">
        <ele>3.7</ele>
        <time>2020-06-22T21:42:15Z</time>
      </trkpt>
      <trkpt lat="50.96775" lon="1.93594">
        <ele>3.7</ele>
        <time>2020-06-22T21:42:16Z</time>
      </trkpt>
      <trkpt lat="50.96775" lon="1.93603">
        <ele>3.7</ele>
        <time>2020-06-22T21:42:17Z</time>
      </trkpt>
      <trkpt lat="50.96774" lon="1.93612">
        <ele>3.7</ele>
        <time>2020-06-22T21:42:18Z</time>
      </trkpt>
      <trkpt lat="50.96773" lon="1.93622">
        <ele>3.7</ele>
        <time>2020-06-22T21:42:19Z</time>
      </trkpt>
      <trkpt lat="50.96773" lon="1.93631">
        <ele>3.7</ele>
        <time>2020-06-22T21:42:20Z</time>
      </trkpt>
      <trkpt lat="50.96774" lon="1.9364">
        <ele>3.7</ele>
        <time>2020-06-22T21:42:21Z</time>
      </trkpt>
      <trkpt lat="50.96774" lon="1.93652">
        <ele>3.7</ele>
        <time>2020-06-22T21:42:22Z</time>
      </trkpt>
      <trkpt lat="50.96774" lon="1.93662">
        <ele>3.7</ele>
        <time>2020-06-22T21:42:23Z</time>
      </trkpt>
      <trkpt lat="50.96775" lon="1.93674">
        <ele>3.7</ele>
        <time>2020-06-22T21:42:24Z</time>
      </trkpt>
      <trkpt lat="50.96776" lon="1.93685">
        <ele>3.7</ele>
        <time>2020-06-22T21:42:25Z</time>
      </trkpt>
      <trkpt lat="50.96777" lon="1.93696">
        <ele>3.7</ele>
        <time>2020-06-22T21:42:26Z</time>
      </trkpt>
      <trkpt lat="50.96778" lon="1.93707">
        <ele>3.7</ele>
        <time>2020-06-22T21:42:27Z</time>
      </trkpt>
      <trkpt lat="50.96778" lon="1.93716">
        <ele>3.7</ele>
        <time>2020-06-22T21:42:28Z</time>
      </trkpt>
      <trkpt lat="50.9678" lon="1.93725">
        <ele>3.7</ele>
        <time>2020-06-22T21:42:29Z</time>
      </trkpt>
      <trkpt lat="50.9678" lon="1.93735">
        <ele>3.7</ele>
        <time>2020-06-22T21:42:30Z</time>
      </trkpt>
      <trkpt lat="50.96781" lon="1.93745">
        <ele>3.7</ele>
        <time>2020-06-22T21:42:31Z</time>
      </trkpt>
      <trkpt lat="50.96782" lon="1.93755">
        <ele>3.6</ele>
        <time>2020-06-22T21:42:32Z</time>
      </trkpt>
      <trkpt lat="50.96783" lon="1.93766">
        <ele>3.5</ele>
        <time>2020-06-22T21:42:33Z</time>
      </trkpt>
      <trkpt lat="50.96784" lon="1.93776">
        <ele>3.5</ele>
        <time>2020-06-22T21:42:34Z</time>
      </trkpt>
      <trkpt lat="50.96785" lon="1.93786">
        <ele>3.5</ele>
        <time>2020-06-22T21:42:35Z</time>
      </trkpt>
      <trkpt lat="50.96785" lon="1.93795">
        <ele>3.5</ele>
        <time>2020-06-22T21:42:36Z</time>
      </trkpt>
      <trkpt lat="50.96786" lon="1.93805">
        <ele>3.5</ele>
        <time>2020-06-22T21:42:37Z</time>
      </trkpt>
      <trkpt lat="50.96787" lon="1.93815">
        <ele>3.5</ele>
        <time>2020-06-22T21:42:38Z</time>
      </trkpt>
      <trkpt lat="50.96788" lon="1.93824">
        <ele>3.5</ele>
        <time>2020-06-22T21:42:39Z</time>
      </trkpt>
      <trkpt lat="50.96789" lon="1.93833">
        <ele>3.5</ele>
        <time>2020-06-22T21:42:40Z</time>
      </trkpt>
      <trkpt lat="50.9679" lon="1.93843">
        <ele>3.5</ele>
        <time>2020-06-22T21:42:41Z</time>
      </trkpt>
      <trkpt lat="50.96791" lon="1.93852">
        <ele>3.5</ele>
        <time>2020-06-22T21:42:42Z</time>
      </trkpt>
      <trkpt lat="50.96792" lon="1.93861">
        <ele>3.6</ele>
        <time>2020-06-22T21:42:43Z</time>
      </trkpt>
      <trkpt lat="50.96794" lon="1.93872">
        <ele>3.6</ele>
        <time>2020-06-22T21:42:44Z</time>
      </trkpt>
      <trkpt lat="50.96796" lon="1.93879">
        <ele>3.7</ele>
        <time>2020-06-22T21:42:45Z</time>
      </trkpt>
      <trkpt lat="50.96799" lon="1.9389">
        <ele>3.8</ele>
        <time>2020-06-22T21:42:46Z</time>
      </trkpt>
      <trkpt lat="50.96801" lon="1.939">
        <ele>3.8</ele>
        <time>2020-06-22T21:42:47Z</time>
      </trkpt>
      <trkpt lat="50.96803" lon="1.93909">
        <ele>3.8</ele>
        <time>2020-06-22T21:42:48Z</time>
      </trkpt>
      <trkpt lat="50.96805" lon="1.93918">
        <ele>3.8</ele>
        <time>2020-06-22T21:42:49Z</time>
      </trkpt>
      <trkpt lat="50.96807" lon="1.93925">
        <ele>3.9</ele>
        <time>2020-06-22T21:42:50Z</time>
      </trkpt>
      <trkpt lat="50.96809" lon="1.93935">
        <ele>3.9</ele>
        <time>2020-06-22T21:42:51Z</time>
      </trkpt>
      <trkpt lat="50.96811" lon="1.93944">
        <ele>4</ele>
        <time>2020-06-22T21:42:52Z</time>
      </trkpt>
      <trkpt lat="50.96813" lon="1.93953">
        <ele>4.1</ele>
        <time>2020-06-22T21:42:53Z</time>
      </trkpt>
      <trkpt lat="50.96815" lon="1.93963">
        <ele>4.1</ele>
        <time>2020-06-22T21:42:54Z</time>
      </trkpt>
      <trkpt lat="50.96816" lon="1.93971">
        <ele>4.2</ele>
        <time>2020-06-22T21:42:55Z</time>
      </trkpt>
      <trkpt lat="50.96818" lon="1.93979">
        <ele>4.2</ele>
        <time>2020-06-22T21:42:56Z</time>
      </trkpt>
      <trkpt lat="50.96819" lon="1.93989">
        <ele>4.3</ele>
        <time>2020-06-22T21:42:57Z</time>
      </trkpt>
      <trkpt lat="50.9682" lon="1.93999">
        <ele>4.4</ele>
        <time>2020-06-22T21:42:58Z</time>
      </trkpt>
      <trkpt lat="50.96822" lon="1.94009">
        <ele>4.5</ele>
        <time>2020-06-22T21:42:59Z</time>
      </trkpt>
      <trkpt lat="50.96823" lon="1.94019">
        <ele>4.5</ele>
        <time>2020-06-22T21:43:00Z</time>
      </trkpt>
      <trkpt lat="50.96825" lon="1.94028">
        <ele>4.5</ele>
        <time>2020-06-22T21:43:01Z</time>
      </trkpt>
      <trkpt lat="50.96827" lon="1.94039">
        <ele>4.6</ele>
        <time>2020-06-22T21:43:02Z</time>
      </trkpt>
      <trkpt lat="50.96828" lon="1.94045">
        <ele>4.6</ele>
        <time>2020-06-22T21:43:03Z</time>
      </trkpt>
      <trkpt lat="50.96829" lon="1.94052">
        <ele>4.6</ele>
        <time>2020-06-22T21:43:04Z</time>
      </trkpt>
      <trkpt lat="50.96831" lon="1.9406">
        <ele>4.7</ele>
        <time>2020-06-22T21:43:05Z</time>
      </trkpt>
      <trkpt lat="50.96833" lon="1.94069">
        <ele>4.7</ele>
        <time>2020-06-22T21:43:06Z</time>
      </trkpt>
      <trkpt lat="50.96835" lon="1.94077">
        <ele>4.8</ele>
        <time>2020-06-22T21:43:07Z</time>
      </trkpt>
      <trkpt lat="50.96837" lon="1.94086">
        <ele>4.9</ele>
        <time>2020-06-22T21:43:08Z</time>
      </trkpt>
      <trkpt lat="50.96838" lon="1.94095">
        <ele>4.9</ele>
        <time>2020-06-22T21:43:09Z</time>
      </trkpt>
      <trkpt lat="50.9684" lon="1.94104">
        <ele>4.9</ele>
        <time>2020-06-22T21:43:10Z</time>
      </trkpt>
      <trkpt lat="50.96841" lon="1.94115">
        <ele>4.9</ele>
        <time>2020-06-22T21:43:11Z</time>
      </trkpt>
      <trkpt lat="50.96842" lon="1.94126">
        <ele>4.9</ele>
        <time>2020-06-22T21:43:12Z</time>
      </trkpt>
      <trkpt lat="50.96844" lon="1.94134">
        <ele>5</ele>
        <time>2020-06-22T21:43:13Z</time>
      </trkpt>
      <trkpt lat="50.96845" lon="1.94143">
        <ele>5</ele>
        <time>2020-06-22T21:43:14Z</time>
      </trkpt>
      <trkpt lat="50.96846" lon="1.94151">
        <ele>5</ele>
        <time>2020-06-22T21:43:15Z</time>
      </trkpt>
      <trkpt lat="50.96847" lon="1.94161">
        <ele>5.1</ele>
        <time>2020-06-22T21:43:16Z</time>
      </trkpt>
      <trkpt lat="50.96847" lon="1.9417">
        <ele>5.1</ele>
        <time>2020-06-22T21:43:17Z</time>
      </trkpt>
      <trkpt lat="50.96848" lon="1.9418">
        <ele>5.1</ele>
        <time>2020-06-22T21:43:18Z</time>
      </trkpt>
      <trkpt lat="50.96848" lon="1.94189">
        <ele>5.2</ele>
        <time>2020-06-22T21:43:19Z</time>
      </trkpt>
      <trkpt lat="50.96847" lon="1.94198">
        <ele>5.2</ele>
        <time>2020-06-22T21:43:20Z</time>
      </trkpt>
      <trkpt lat="50.96849" lon="1.94208">
        <ele>5.2</ele>
        <time>2020-06-22T21:43:21Z</time>
      </trkpt>
      <trkpt lat="50.96849" lon="1.94214">
        <ele>5.2</ele>
        <time>2020-06-22T21:43:22Z</time>
      </trkpt>
      <trkpt lat="50.9685" lon="1.94221">
        <ele>5.2</ele>
        <time>2020-06-22T21:43:23Z</time>
      </trkpt>
      <trkpt lat="50.96851" lon="1.9423">
        <ele>5.3</ele>
        <time>2020-06-22T21:43:24Z</time>
      </trkpt>
      <trkpt lat="50.96851" lon="1.94239">
        <ele>5.3</ele>
        <time>2020-06-22T21:43:25Z</time>
      </trkpt>
      <trkpt lat="50.96851" lon="1.94247">
        <ele>5.3</ele>
        <time>2020-06-22T21:43:26Z</time>
      </trkpt>
      <trkpt lat="50.96851" lon="1.94255">
        <ele>5.4</ele>
        <time>2020-06-22T21:43:27Z</time>
      </trkpt>
      <trkpt lat="50.96851" lon="1.94261">
        <ele>5.4</ele>
        <time>2020-06-22T21:43:28Z</time>
      </trkpt>
      <trkpt lat="50.96852" lon="1.94268">
        <ele>5.5</ele>
        <time>2020-06-22T21:43:29Z</time>
      </trkpt>
      <trkpt lat="50.96855" lon="1.94275">
        <ele>5.5</ele>
        <time>2020-06-22T21:43:30Z</time>
      </trkpt>
      <trkpt lat="50.9686" lon="1.94277">
        <ele>5.5</ele>
        <time>2020-06-22T21:43:31Z</time>
      </trkpt>
      <trkpt lat="50.96865" lon="1.94278">
        <ele>5.4</ele>
        <time>2020-06-22T21:43:32Z</time>
      </trkpt>
      <trkpt lat="50.9687" lon="1.94278">
        <ele>5.4</ele>
        <time>2020-06-22T21:43:33Z</time>
      </trkpt>
      <trkpt lat="50.96875" lon="1.94277">
        <ele>5.4</ele>
        <time>2020-06-22T21:43:34Z</time>
      </trkpt>
      <trkpt lat="50.9688" lon="1.94277">
        <ele>5.3</ele>
        <time>2020-06-22T21:43:35Z</time>
      </trkpt>
      <trkpt lat="50.96885" lon="1.94277">
        <ele>5.2</ele>
        <time>2020-06-22T21:43:36Z</time>
      </trkpt>
      <trkpt lat="50.96891" lon="1.94276">
        <ele>5.2</ele>
        <time>2020-06-22T21:43:37Z</time>
      </trkpt>
      <trkpt lat="50.96897" lon="1.94276">
        <ele>5.1</ele>
        <time>2020-06-22T21:43:38Z</time>
      </trkpt>
      <trkpt lat="50.96903" lon="1.94277">
        <ele>5</ele>
        <time>2020-06-22T21:43:39Z</time>
      </trkpt>
      <trkpt lat="50.96909" lon="1.94277">
        <ele>4.9</ele>
        <time>2020-06-22T21:43:40Z</time>
      </trkpt>
      <trkpt lat="50.96915" lon="1.94278">
        <ele>4.8</ele>
        <time>2020-06-22T21:43:41Z</time>
      </trkpt>
      <trkpt lat="50.96921" lon="1.94279">
        <ele>4.7</ele>
        <time>2020-06-22T21:43:42Z</time>
      </trkpt>
      <trkpt lat="50.96927" lon="1.9428">
        <ele>4.6</ele>
        <time>2020-06-22T21:43:43Z</time>
      </trkpt>
      <trkpt lat="50.96933" lon="1.9428">
        <ele>4.6</ele>
        <time>2020-06-22T21:43:44Z</time>
      </trkpt>
      <trkpt lat="50.96938" lon="1.9428">
        <ele>4.5</ele>
        <time>2020-06-22T21:43:45Z</time>
      </trkpt>
      <trkpt lat="50.96943" lon="1.94281">
        <ele>4.4</ele>
        <time>2020-06-22T21:43:46Z</time>
      </trkpt>
      <trkpt lat="50.96948" lon="1.94281">
        <ele>4.3</ele>
        <time>2020-06-22T21:43:47Z</time>
      </trkpt>
      <trkpt lat="50.96953" lon="1.9428">
        <ele>4.2</ele>
        <time>2020-06-22T21:43:48Z</time>
      </trkpt>
      <trkpt lat="50.96959" lon="1.9428">
        <ele>4.1</ele>
        <time>2020-06-22T21:43:49Z</time>
      </trkpt>
      <trkpt lat="50.96965" lon="1.94281">
        <ele>4</ele>
        <time>2020-06-22T21:43:50Z</time>
      </trkpt>
      <trkpt lat="50.96971" lon="1.94282">
        <ele>3.9</ele>
        <time>2020-06-22T21:43:51Z</time>
      </trkpt>
      <trkpt lat="50.96978" lon="1.94283">
        <ele>3.8</ele>
        <time>2020-06-22T21:43:52Z</time>
      </trkpt>
      <trkpt lat="50.96984" lon="1.94285">
        <ele>3.8</ele>
        <time>2020-06-22T21:43:53Z</time>
      </trkpt>
      <trkpt lat="50.96991" lon="1.94286">
        <ele>3.7</ele>
        <time>2020-06-22T21:43:54Z</time>
      </trkpt>
      <trkpt lat="50.96998" lon="1.94287">
        <ele>3.6</ele>
        <time>2020-06-22T21:43:55Z</time>
      </trkpt>
      <trkpt lat="50.97004" lon="1.94288">
        <ele>3.6</ele>
        <time>2020-06-22T21:43:56Z</time>
      </trkpt>
      <trkpt lat="50.9701" lon="1.94289">
        <ele>3.5</ele>
        <time>2020-06-22T21:43:57Z</time>
      </trkpt>
      <trkpt lat="50.97016" lon="1.94291">
        <ele>3.5</ele>
        <time>2020-06-22T21:43:58Z</time>
      </trkpt>
      <trkpt lat="50.97022" lon="1.94292">
        <ele>3.5</ele>
        <time>2020-06-22T21:43:59Z</time>
      </trkpt>
      <trkpt lat="50.97029" lon="1.94292">
        <ele>3.5</ele>
        <time>2020-06-22T21:44:00Z</time>
      </trkpt>
      <trkpt lat="50.97036" lon="1.94292">
        <ele>3.4</ele>
        <time>2020-06-22T21:44:01Z</time>
      </trkpt>
      <trkpt lat="50.97043" lon="1.94292">
        <ele>3.4</ele>
        <time>2020-06-22T21:44:02Z</time>
      </trkpt>
      <trkpt lat="50.97049" lon="1.94293">
        <ele>3.4</ele>
        <time>2020-06-22T21:44:03Z</time>
      </trkpt>
      <trkpt lat="50.97056" lon="1.94293">
        <ele>3.4</ele>
        <time>2020-06-22T21:44:04Z</time>
      </trkpt>
      <trkpt lat="50.97062" lon="1.94294">
        <ele>3.4</ele>
        <time>2020-06-22T21:44:05Z</time>
      </trkpt>
      <trkpt lat="50.97068" lon="1.94296">
        <ele>3.4</ele>
        <time>2020-06-22T21:44:06Z</time>
      </trkpt>
      <trkpt lat="50.97075" lon="1.94299">
        <ele>3.4</ele>
        <time>2020-06-22T21:44:07Z</time>
      </trkpt>
      <trkpt lat="50.97081" lon="1.94301">
        <ele>3.3</ele>
        <time>2020-06-22T21:44:08Z</time>
      </trkpt>
      <trkpt lat="50.97088" lon="1.94303">
        <ele>3.3</ele>
        <time>2020-06-22T21:44:09Z</time>
      </trkpt>
      <trkpt lat="50.97094" lon="1.94304">
        <ele>3.3</ele>
        <time>2020-06-22T21:44:10Z</time>
      </trkpt>
      <trkpt lat="50.971" lon="1.94307">
        <ele>3.2</ele>
        <time>2020-06-22T21:44:11Z</time>
      </trkpt>
      <trkpt lat="50.97106" lon="1.94311">
        <ele>3.2</ele>
        <time>2020-06-22T21:44:12Z</time>
      </trkpt>
      <trkpt lat="50.97112" lon="1.94316">
        <ele>3.2</ele>
        <time>2020-06-22T21:44:13Z</time>
      </trkpt>
      <trkpt lat="50.97117" lon="1.94321">
        <ele>3.2</ele>
        <time>2020-06-22T21:44:14Z</time>
      </trkpt>
      <trkpt lat="50.97123" lon="1.94326">
        <ele>3.2</ele>
        <time>2020-06-22T21:44:15Z</time>
      </trkpt>
      <trkpt lat="50.9713" lon="1.94331">
        <ele>3.2</ele>
        <time>2020-06-22T21:44:16Z</time>
      </trkpt>
      <trkpt lat="50.97135" lon="1.94337">
        <ele>3.2</ele>
        <time>2020-06-22T21:44:17Z</time>
      </trkpt>
      <trkpt lat="50.97141" lon="1.94344">
        <ele>3.2</ele>
        <time>2020-06-22T21:44:18Z</time>
      </trkpt>
      <trkpt lat="50.97146" lon="1.94351">
        <ele>3.2</ele>
        <time>2020-06-22T21:44:19Z</time>
      </trkpt>
      <trkpt lat="50.97151" lon="1.94358">
        <ele>3.2</ele>
        <time>2020-06-22T21:44:20Z</time>
      </trkpt>
      <trkpt lat="50.97155" lon="1.94365">
        <ele>3.2</ele>
        <time>2020-06-22T21:44:21Z</time>
      </trkpt>
      <trkpt lat="50.97159" lon="1.94373">
        <ele>3.3</ele>
        <time>2020-06-22T21:44:22Z</time>
      </trkpt>
      <trkpt lat="50.97163" lon="1.94381">
        <ele>3.3</ele>
        <time>2020-06-22T21:44:23Z</time>
      </trkpt>
      <trkpt lat="50.97167" lon="1.94389">
        <ele>3.3</ele>
        <time>2020-06-22T21:44:24Z</time>
      </trkpt>
      <trkpt lat="50.9717" lon="1.94397">
        <ele>3.3</ele>
        <time>2020-06-22T21:44:25Z</time>
      </trkpt>
      <trkpt lat="50.97175" lon="1.94404">
        <ele>3.3</ele>
        <time>2020-06-22T21:44:26Z</time>
      </trkpt>
      <trkpt lat="50.97179" lon="1.94412">
        <ele>3.2</ele>
        <time>2020-06-22T21:44:27Z</time>
      </trkpt>
      <trkpt lat="50.97184" lon="1.94421">
        <ele>3.2</ele>
        <time>2020-06-22T21:44:28Z</time>
      </trkpt>
      <trkpt lat="50.97189" lon="1.9443">
        <ele>3.2</ele>
        <time>2020-06-22T21:44:29Z</time>
      </trkpt>
      <trkpt lat="50.97194" lon="1.94437">
        <ele>3.2</ele>
        <time>2020-06-22T21:44:30Z</time>
      </trkpt>
      <trkpt lat="50.97199" lon="1.94442">
        <ele>3.1</ele>
        <time>2020-06-22T21:44:31Z</time>
      </trkpt>
      <trkpt lat="50.97204" lon="1.94449">
        <ele>3.1</ele>
        <time>2020-06-22T21:44:32Z</time>
      </trkpt>
      <trkpt lat="50.97209" lon="1.94456">
        <ele>3.1</ele>
        <time>2020-06-22T21:44:33Z</time>
      </trkpt>
      <trkpt lat="50.97214" lon="1.94463">
        <ele>3.1</ele>
        <time>2020-06-22T21:44:34Z</time>
      </trkpt>
      <trkpt lat="50.97219" lon="1.9447">
        <ele>3.1</ele>
        <time>2020-06-22T21:44:35Z</time>
      </trkpt>
      <trkpt lat="50.97223" lon="1.94478">
        <ele>3.1</ele>
        <time>2020-06-22T21:44:36Z</time>
      </trkpt>
      <trkpt lat="50.97228" lon="1.94485">
        <ele>3.2</ele>
        <time>2020-06-22T21:44:37Z</time>
      </trkpt>
      <trkpt lat="50.97233" lon="1.94492">
        <ele>3.2</ele>
        <time>2020-06-22T21:44:38Z</time>
      </trkpt>
      <trkpt lat="50.97237" lon="1.94498">
        <ele>3.2</ele>
        <time>2020-06-22T21:44:39Z</time>
      </trkpt>
      <trkpt lat="50.97243" lon="1.94505">
        <ele>3.2</ele>
        <time>2020-06-22T21:44:40Z</time>
      </trkpt>
      <trkpt lat="50.97247" lon="1.94512">
        <ele>3.3</ele>
        <time>2020-06-22T21:44:41Z</time>
      </trkpt>
      <trkpt lat="50.97251" lon="1.94519">
        <ele>3.3</ele>
        <time>2020-06-22T21:44:42Z</time>
      </trkpt>
      <trkpt lat="50.97255" lon="1.94526">
        <ele>3.3</ele>
        <time>2020-06-22T21:44:43Z</time>
      </trkpt>
      <trkpt lat="50.9726" lon="1.94533">
        <ele>3.3</ele>
        <time>2020-06-22T21:44:44Z</time>
      </trkpt>
      <trkpt lat="50.97264" lon="1.94541">
        <ele>3.3</ele>
        <time>2020-06-22T21:44:45Z</time>
      </trkpt>
      <trkpt lat="50.97268" lon="1.94549">
        <ele>3.3</ele>
        <time>2020-06-22T21:44:46Z</time>
      </trkpt>
      <trkpt lat="50.97271" lon="1.94557">
        <ele>3.3</ele>
        <time>2020-06-22T21:44:47Z</time>
      </trkpt>
      <trkpt lat="50.97275" lon="1.94566">
        <ele>3.3</ele>
        <time>2020-06-22T21:44:48Z</time>
      </trkpt>
      <trkpt lat="50.97279" lon="1.94574">
        <ele>3.4</ele>
        <time>2020-06-22T21:44:49Z</time>
      </trkpt>
      <trkpt lat="50.97282" lon="1.94583">
        <ele>3.4</ele>
        <time>2020-06-22T21:44:50Z</time>
      </trkpt>
      <trkpt lat="50.97285" lon="1.94591">
        <ele>3.4</ele>
        <time>2020-06-22T21:44:51Z</time>
      </trkpt>
      <trkpt lat="50.97289" lon="1.94599">
        <ele>3.4</ele>
        <time>2020-06-22T21:44:52Z</time>
      </trkpt>
      <trkpt lat="50.97292" lon="1.94607">
        <ele>3.5</ele>
        <time>2020-06-22T21:44:53Z</time>
      </trkpt>
      <trkpt lat="50.97296" lon="1.94616">
        <ele>3.5</ele>
        <time>2020-06-22T21:44:54Z</time>
      </trkpt>
      <trkpt lat="50.973" lon="1.94623">
        <ele>3.5</ele>
        <time>2020-06-22T21:44:55Z</time>
      </trkpt>
      <trkpt lat="50.97304" lon="1.94631">
        <ele>3.5</ele>
        <time>2020-06-22T21:44:56Z</time>
      </trkpt>
      <trkpt lat="50.97308" lon="1.94639">
        <ele>3.5</ele>
        <time>2020-06-22T21:44:57Z</time>
      </trkpt>
      <trkpt lat="50.97312" lon="1.94648">
        <ele>3.5</ele>
        <time>2020-06-22T21:44:58Z</time>
      </trkpt>
      <trkpt lat="50.97316" lon="1.94657">
        <ele>3.5</ele>
        <time>2020-06-22T21:44:59Z</time>
      </trkpt>
      <trkpt lat="50.97319" lon="1.94665">
        <ele>3.5</ele>
        <time>2020-06-22T21:45:00Z</time>
      </trkpt>
      <trkpt lat="50.97322" lon="1.94673">
        <ele>3.5</ele>
        <time>2020-06-22T21:45:01Z</time>
      </trkpt>
      <trkpt lat="50.97326" lon="1.94681">
        <ele>3.5</ele>
        <time>2020-06-22T21:45:02Z</time>
      </trkpt>
      <trkpt lat="50.97331" lon="1.9469">
        <ele>3.6</ele>
        <time>2020-06-22T21:45:03Z</time>
      </trkpt>
      <trkpt lat="50.97336" lon="1.94699">
        <ele>3.7</ele>
        <time>2020-06-22T21:45:04Z</time>
      </trkpt>
      <trkpt lat="50.9734" lon="1.94705">
        <ele>3.7</ele>
        <time>2020-06-22T21:45:05Z</time>
      </trkpt>
      <trkpt lat="50.97345" lon="1.9471">
        <ele>3.7</ele>
        <time>2020-06-22T21:45:06Z</time>
      </trkpt>
      <trkpt lat="50.97351" lon="1.94715">
        <ele>3.8</ele>
        <time>2020-06-22T21:45:07Z</time>
      </trkpt>
      <trkpt lat="50.97357" lon="1.94715">
        <ele>3.8</ele>
        <time>2020-06-22T21:45:08Z</time>
      </trkpt>
      <trkpt lat="50.97363" lon="1.94713">
        <ele>3.8</ele>
        <time>2020-06-22T21:45:09Z</time>
      </trkpt>
      <trkpt lat="50.97369" lon="1.94711">
        <ele>3.8</ele>
        <time>2020-06-22T21:45:10Z</time>
      </trkpt>
      <trkpt lat="50.97376" lon="1.9471">
        <ele>3.9</ele>
        <time>2020-06-22T21:45:11Z</time>
      </trkpt>
      <trkpt lat="50.97383" lon="1.94709">
        <ele>3.9</ele>
        <time>2020-06-22T21:45:12Z</time>
      </trkpt>
      <trkpt lat="50.97388" lon="1.94707">
        <ele>3.9</ele>
        <time>2020-06-22T21:45:13Z</time>
      </trkpt>
      <trkpt lat="50.97393" lon="1.94705">
        <ele>3.9</ele>
        <time>2020-06-22T21:45:14Z</time>
      </trkpt>
      <trkpt lat="50.97399" lon="1.94703">
        <ele>3.8</ele>
        <time>2020-06-22T21:45:15Z</time>
      </trkpt>
      <trkpt lat="50.97404" lon="1.947">
        <ele>3.8</ele>
        <time>2020-06-22T21:45:16Z</time>
      </trkpt>
      <trkpt lat="50.9741" lon="1.94698">
        <ele>3.8</ele>
        <time>2020-06-22T21:45:17Z</time>
      </trkpt>
      <trkpt lat="50.97414" lon="1.94696">
        <ele>3.7</ele>
        <time>2020-06-22T21:45:18Z</time>
      </trkpt>
      <trkpt lat="50.97418" lon="1.94694">
        <ele>3.7</ele>
        <time>2020-06-22T21:45:19Z</time>
      </trkpt>
      <trkpt lat="50.97421" lon="1.94693">
        <ele>3.7</ele>
        <time>2020-06-22T21:45:20Z</time>
      </trkpt>
      <trkpt lat="50.97426" lon="1.94693">
        <ele>3.7</ele>
        <time>2020-06-22T21:45:21Z</time>
      </trkpt>
      <trkpt lat="50.97431" lon="1.94694">
        <ele>3.6</ele>
        <time>2020-06-22T21:45:22Z</time>
      </trkpt>
      <trkpt lat="50.97437" lon="1.94696">
        <ele>3.6</ele>
        <time>2020-06-22T21:45:23Z</time>
      </trkpt>
      <trkpt lat="50.97444" lon="1.94698">
        <ele>3.5</ele>
        <time>2020-06-22T21:45:24Z</time>
      </trkpt>
      <trkpt lat="50.97451" lon="1.94701">
        <ele>3.4</ele>
        <time>2020-06-22T21:45:25Z</time>
      </trkpt>
      <trkpt lat="50.9746" lon="1.94705">
        <ele>3.4</ele>
        <time>2020-06-22T21:45:26Z</time>
      </trkpt>
      <trkpt lat="50.97466" lon="1.94708">
        <ele>3.4</ele>
        <time>2020-06-22T21:45:27Z</time>
      </trkpt>
      <trkpt lat="50.97471" lon="1.94711">
        <ele>3.5</ele>
        <time>2020-06-22T21:45:28Z</time>
      </trkpt>
      <trkpt lat="50.97475" lon="1.94714">
        <ele>3.5</ele>
        <time>2020-06-22T21:45:29Z</time>
      </trkpt>
      <trkpt lat="50.9748" lon="1.9472">
        <ele>3.6</ele>
        <time>2020-06-22T21:45:30Z</time>
      </trkpt>
      <trkpt lat="50.97484" lon="1.94729">
        <ele>3.7</ele>
        <time>2020-06-22T21:45:31Z</time>
      </trkpt>
      <trkpt lat="50.97488" lon="1.94737">
        <ele>3.9</ele>
        <time>2020-06-22T21:45:32Z</time>
      </trkpt>
      <trkpt lat="50.97493" lon="1.94744">
        <ele>4</ele>
        <time>2020-06-22T21:45:33Z</time>
      </trkpt>
      <trkpt lat="50.97496" lon="1.9475">
        <ele>4</ele>
        <time>2020-06-22T21:45:34Z</time>
      </trkpt>
      <trkpt lat="50.975" lon="1.94757">
        <ele>4.1</ele>
        <time>2020-06-22T21:45:35Z</time>
      </trkpt>
      <trkpt lat="50.97505" lon="1.94764">
        <ele>4.2</ele>
        <time>2020-06-22T21:45:36Z</time>
      </trkpt>
      <trkpt lat="50.97508" lon="1.94771">
        <ele>4.2</ele>
        <time>2020-06-22T21:45:37Z</time>
      </trkpt>
      <trkpt lat="50.97512" lon="1.94778">
        <ele>4.2</ele>
        <time>2020-06-22T21:45:38Z</time>
      </trkpt>
      <trkpt lat="50.97515" lon="1.94786">
        <ele>4.2</ele>
        <time>2020-06-22T21:45:39Z</time>
      </trkpt>
      <trkpt lat="50.97519" lon="1.94794">
        <ele>4.2</ele>
        <time>2020-06-22T21:45:40Z</time>
      </trkpt>
      <trkpt lat="50.97523" lon="1.94801">
        <ele>4.2</ele>
        <time>2020-06-22T21:45:41Z</time>
      </trkpt>
      <trkpt lat="50.97527" lon="1.94808">
        <ele>4.2</ele>
        <time>2020-06-22T21:45:42Z</time>
      </trkpt>
      <trkpt lat="50.97531" lon="1.94817">
        <ele>4.3</ele>
        <time>2020-06-22T21:45:43Z</time>
      </trkpt>
      <trkpt lat="50.97535" lon="1.94824">
        <ele>4.3</ele>
        <time>2020-06-22T21:45:44Z</time>
      </trkpt>
      <trkpt lat="50.97538" lon="1.94832">
        <ele>4.3</ele>
        <time>2020-06-22T21:45:45Z</time>
      </trkpt>
      <trkpt lat="50.97541" lon="1.9484">
        <ele>4.2</ele>
        <time>2020-06-22T21:45:46Z</time>
      </trkpt>
      <trkpt lat="50.97543" lon="1.94848">
        <ele>4.2</ele>
        <time>2020-06-22T21:45:47Z</time>
      </trkpt>
      <trkpt lat="50.97545" lon="1.94855">
        <ele>4.1</ele>
        <time>2020-06-22T21:45:48Z</time>
      </trkpt>
      <trkpt lat="50.97548" lon="1.94862">
        <ele>4.1</ele>
        <time>2020-06-22T21:45:49Z</time>
      </trkpt>
      <trkpt lat="50.9755" lon="1.9487">
        <ele>4</ele>
        <time>2020-06-22T21:45:50Z</time>
      </trkpt>
      <trkpt lat="50.97553" lon="1.94878">
        <ele>3.9</ele>
        <time>2020-06-22T21:45:51Z</time>
      </trkpt>
      <trkpt lat="50.97556" lon="1.94886">
        <ele>3.9</ele>
        <time>2020-06-22T21:45:52Z</time>
      </trkpt>
      <trkpt lat="50.9756" lon="1.94893">
        <ele>3.8</ele>
        <time>2020-06-22T21:45:53Z</time>
      </trkpt>
      <trkpt lat="50.97563" lon="1.949">
        <ele>3.8</ele>
        <time>2020-06-22T21:45:54Z</time>
      </trkpt>
      <trkpt lat="50.97567" lon="1.94906">
        <ele>3.8</ele>
        <time>2020-06-22T21:45:55Z</time>
      </trkpt>
      <trkpt lat="50.9757" lon="1.94912">
        <ele>3.7</ele>
        <time>2020-06-22T21:45:56Z</time>
      </trkpt>
      <trkpt lat="50.97574" lon="1.94918">
        <ele>3.7</ele>
        <time>2020-06-22T21:45:57Z</time>
      </trkpt>
      <trkpt lat="50.97577" lon="1.94923">
        <ele>3.7</ele>
        <time>2020-06-22T21:45:58Z</time>
      </trkpt>
      <trkpt lat="50.9758" lon="1.94927">
        <ele>3.7</ele>
        <time>2020-06-22T21:45:59Z</time>
      </trkpt>
      <trkpt lat="50.97584" lon="1.94932">
        <ele>3.7</ele>
        <time>2020-06-22T21:46:00Z</time>
      </trkpt>
      <trkpt lat="50.97587" lon="1.94937">
        <ele>3.7</ele>
        <time>2020-06-22T21:46:01Z</time>
      </trkpt>
      <trkpt lat="50.97591" lon="1.94941">
        <ele>3.7</ele>
        <time>2020-06-22T21:46:02Z</time>
      </trkpt>
      <trkpt lat="50.97598" lon="1.94945">
        <ele>3.7</ele>
        <time>2020-06-22T21:46:03Z</time>
      </trkpt>
      <trkpt lat="50.97602" lon="1.9495">
        <ele>3.7</ele>
        <time>2020-06-22T21:46:04Z</time>
      </trkpt>
      <trkpt lat="50.97608" lon="1.94956">
        <ele>3.6</ele>
        <time>2020-06-22T21:46:05Z</time>
      </trkpt>
      <trkpt lat="50.97614" lon="1.94961">
        <ele>3.6</ele>
        <time>2020-06-22T21:46:06Z</time>
      </trkpt>
      <trkpt lat="50.97618" lon="1.94966">
        <ele>3.6</ele>
        <time>2020-06-22T21:46:07Z</time>
      </trkpt>
      <trkpt lat="50.97623" lon="1.94972">
        <ele>3.6</ele>
        <time>2020-06-22T21:46:08Z</time>
      </trkpt>
      <trkpt lat="50.97627" lon="1.94978">
        <ele>3.6</ele>
        <time>2020-06-22T21:46:09Z</time>
      </trkpt>
      <trkpt lat="50.97632" lon="1.94985">
        <ele>3.6</ele>
        <time>2020-06-22T21:46:10Z</time>
      </trkpt>
      <trkpt lat="50.97638" lon="1.94993">
        <ele>3.6</ele>
        <time>2020-06-22T21:46:11Z</time>
      </trkpt>
      <trkpt lat="50.97641" lon="1.95001">
        <ele>3.6</ele>
        <time>2020-06-22T21:46:12Z</time>
      </trkpt>
      <trkpt lat="50.97644" lon="1.9501">
        <ele>3.6</ele>
        <time>2020-06-22T21:46:13Z</time>
      </trkpt>
      <trkpt lat="50.97647" lon="1.9502">
        <ele>3.6</ele>
        <time>2020-06-22T21:46:14Z</time>
      </trkpt>
      <trkpt lat="50.9765" lon="1.95028">
        <ele>3.6</ele>
        <time>2020-06-22T21:46:15Z</time>
      </trkpt>
      <trkpt lat="50.97652" lon="1.95037">
        <ele>3.6</ele>
        <time>2020-06-22T21:46:16Z</time>
      </trkpt>
      <trkpt lat="50.97655" lon="1.95045">
        <ele>3.7</ele>
        <time>2020-06-22T21:46:17Z</time>
      </trkpt>
      <trkpt lat="50.97656" lon="1.95053">
        <ele>3.6</ele>
        <time>2020-06-22T21:46:18Z</time>
      </trkpt>
      <trkpt lat="50.97658" lon="1.95064">
        <ele>3.6</ele>
        <time>2020-06-22T21:46:19Z</time>
      </trkpt>
      <trkpt lat="50.9766" lon="1.95068">
        <ele>3.6</ele>
        <time>2020-06-22T21:46:20Z</time>
      </trkpt>
      <trkpt lat="50.97663" lon="1.95078">
        <ele>3.6</ele>
        <time>2020-06-22T21:46:21Z</time>
      </trkpt>
      <trkpt lat="50.97666" lon="1.95086">
        <ele>3.6</ele>
        <time>2020-06-22T21:46:22Z</time>
      </trkpt>
      <trkpt lat="50.97668" lon="1.95095">
        <ele>3.6</ele>
        <time>2020-06-22T21:46:23Z</time>
      </trkpt>
      <trkpt lat="50.97671" lon="1.95102">
        <ele>3.6</ele>
        <time>2020-06-22T21:46:24Z</time>
      </trkpt>
      <trkpt lat="50.97673" lon="1.95113">
        <ele>3.6</ele>
        <time>2020-06-22T21:46:25Z</time>
      </trkpt>
      <trkpt lat="50.97677" lon="1.95122">
        <ele>3.6</ele>
        <time>2020-06-22T21:46:26Z</time>
      </trkpt>
      <trkpt lat="50.9768" lon="1.9513">
        <ele>3.5</ele>
        <time>2020-06-22T21:46:27Z</time>
      </trkpt>
      <trkpt lat="50.97684" lon="1.95139">
        <ele>3.5</ele>
        <time>2020-06-22T21:46:28Z</time>
      </trkpt>
      <trkpt lat="50.97687" lon="1.95147">
        <ele>3.5</ele>
        <time>2020-06-22T21:46:29Z</time>
      </trkpt>
      <trkpt lat="50.97689" lon="1.95155">
        <ele>3.5</ele>
        <time>2020-06-22T21:46:30Z</time>
      </trkpt>
      <trkpt lat="50.97693" lon="1.95162">
        <ele>3.5</ele>
        <time>2020-06-22T21:46:31Z</time>
      </trkpt>
      <trkpt lat="50.97696" lon="1.95168">
        <ele>3.5</ele>
        <time>2020-06-22T21:46:32Z</time>
      </trkpt>
      <trkpt lat="50.97699" lon="1.95175">
        <ele>3.5</ele>
        <time>2020-06-22T21:46:33Z</time>
      </trkpt>
      <trkpt lat="50.97702" lon="1.95182">
        <ele>3.5</ele>
        <time>2020-06-22T21:46:34Z</time>
      </trkpt>
      <trkpt lat="50.97706" lon="1.95189">
        <ele>3.5</ele>
        <time>2020-06-22T21:46:35Z</time>
      </trkpt>
      <trkpt lat="50.9771" lon="1.95195">
        <ele>3.5</ele>
        <time>2020-06-22T21:46:36Z</time>
      </trkpt>
      <trkpt lat="50.97713" lon="1.95202">
        <ele>3.5</ele>
        <time>2020-06-22T21:46:37Z</time>
      </trkpt>
      <trkpt lat="50.97716" lon="1.95207">
        <ele>3.5</ele>
        <time>2020-06-22T21:46:38Z</time>
      </trkpt>
      <trkpt lat="50.97719" lon="1.95211">
        <ele>3.5</ele>
        <time>2020-06-22T21:46:39Z</time>
      </trkpt>
      <trkpt lat="50.97722" lon="1.95217">
        <ele>3.5</ele>
        <time>2020-06-22T21:46:40Z</time>
      </trkpt>
      <trkpt lat="50.97725" lon="1.95223">
        <ele>3.5</ele>
        <time>2020-06-22T21:46:41Z</time>
      </trkpt>
      <trkpt lat="50.97728" lon="1.95229">
        <ele>3.5</ele>
        <time>2020-06-22T21:46:42Z</time>
      </trkpt>
      <trkpt lat="50.97731" lon="1.95236">
        <ele>3.5</ele>
        <time>2020-06-22T21:46:43Z</time>
      </trkpt>
      <trkpt lat="50.97735" lon="1.95243">
        <ele>3.5</ele>
        <time>2020-06-22T21:46:44Z</time>
      </trkpt>
      <trkpt lat="50.97739" lon="1.95248">
        <ele>3.5</ele>
        <time>2020-06-22T21:46:45Z</time>
      </trkpt>
      <trkpt lat="50.97743" lon="1.95255">
        <ele>3.5</ele>
        <time>2020-06-22T21:46:46Z</time>
      </trkpt>
      <trkpt lat="50.97746" lon="1.9526">
        <ele>3.5</ele>
        <time>2020-06-22T21:46:47Z</time>
      </trkpt>
      <trkpt lat="50.9775" lon="1.95266">
        <ele>3.5</ele>
        <time>2020-06-22T21:46:48Z</time>
      </trkpt>
      <trkpt lat="50.97753" lon="1.95271">
        <ele>3.6</ele>
        <time>2020-06-22T21:46:49Z</time>
      </trkpt>
      <trkpt lat="50.97757" lon="1.95277">
        <ele>3.6</ele>
        <time>2020-06-22T21:46:50Z</time>
      </trkpt>
      <trkpt lat="50.97761" lon="1.95284">
        <ele>3.6</ele>
        <time>2020-06-22T21:46:51Z</time>
      </trkpt>
      <trkpt lat="50.97765" lon="1.9529">
        <ele>3.6</ele>
        <time>2020-06-22T21:46:52Z</time>
      </trkpt>
      <trkpt lat="50.9777" lon="1.95297">
        <ele>3.6</ele>
        <time>2020-06-22T21:46:53Z</time>
      </trkpt>
      <trkpt lat="50.97775" lon="1.95303">
        <ele>3.6</ele>
        <time>2020-06-22T21:46:54Z</time>
      </trkpt>
      <trkpt lat="50.97779" lon="1.9531">
        <ele>3.6</ele>
        <time>2020-06-22T21:46:55Z</time>
      </trkpt>
      <trkpt lat="50.97783" lon="1.95316">
        <ele>3.6</ele>
        <time>2020-06-22T21:46:56Z</time>
      </trkpt>
      <trkpt lat="50.97787" lon="1.95322">
        <ele>3.6</ele>
        <time>2020-06-22T21:46:57Z</time>
      </trkpt>
      <trkpt lat="50.97791" lon="1.95328">
        <ele>3.6</ele>
        <time>2020-06-22T21:46:58Z</time>
      </trkpt>
      <trkpt lat="50.97794" lon="1.95333">
        <ele>3.6</ele>
        <time>2020-06-22T21:46:59Z</time>
      </trkpt>
      <trkpt lat="50.97799" lon="1.95341">
        <ele>3.6</ele>
        <time>2020-06-22T21:47:00Z</time>
      </trkpt>
      <trkpt lat="50.97804" lon="1.95347">
        <ele>3.6</ele>
        <time>2020-06-22T21:47:01Z</time>
      </trkpt>
      <trkpt lat="50.97808" lon="1.95354">
        <ele>3.6</ele>
        <time>2020-06-22T21:47:02Z</time>
      </trkpt>
      <trkpt lat="50.97811" lon="1.95359">
        <ele>3.6</ele>
        <time>2020-06-22T21:47:03Z</time>
      </trkpt>
      <trkpt lat="50.97815" lon="1.95364">
        <ele>3.5</ele>
        <time>2020-06-22T21:47:04Z</time>
      </trkpt>
      <trkpt lat="50.97818" lon="1.95368">
        <ele>3.5</ele>
        <time>2020-06-22T21:47:05Z</time>
      </trkpt>
      <trkpt lat="50.97821" lon="1.95372">
        <ele>3.5</ele>
        <time>2020-06-22T21:47:06Z</time>
      </trkpt>
      <trkpt lat="50.97824" lon="1.95377">
        <ele>3.5</ele>
        <time>2020-06-22T21:47:07Z</time>
      </trkpt>
      <trkpt lat="50.97826" lon="1.95381">
        <ele>3.5</ele>
        <time>2020-06-22T21:47:08Z</time>
      </trkpt>
      <trkpt lat="50.97829" lon="1.95386">
        <ele>3.5</ele>
        <time>2020-06-22T21:47:09Z</time>
      </trkpt>
      <trkpt lat="50.97831" lon="1.95391">
        <ele>3.4</ele>
        <time>2020-06-22T21:47:10Z</time>
      </trkpt>
      <trkpt lat="50.97834" lon="1.95396">
        <ele>3.4</ele>
        <time>2020-06-22T21:47:11Z</time>
      </trkpt>
      <trkpt lat="50.97837" lon="1.95401">
        <ele>3.4</ele>
        <time>2020-06-22T21:47:12Z</time>
      </trkpt>
      <trkpt lat="50.9784" lon="1.95405">
        <ele>3.4</ele>
        <time>2020-06-22T21:47:13Z</time>
      </trkpt>
      <trkpt lat="50.97843" lon="1.9541">
        <ele>3.4</ele>
        <time>2020-06-22T21:47:14Z</time>
      </trkpt>
      <trkpt lat="50.97846" lon="1.95414">
        <ele>3.4</ele>
        <time>2020-06-22T21:47:15Z</time>
      </trkpt>
      <trkpt lat="50.97849" lon="1.95419">
        <ele>3.4</ele>
        <time>2020-06-22T21:47:16Z</time>
      </trkpt>
      <trkpt lat="50.97852" lon="1.95423">
        <ele>3.4</ele>
        <time>2020-06-22T21:47:17Z</time>
      </trkpt>
      <trkpt lat="50.97855" lon="1.95429">
        <ele>3.4</ele>
        <time>2020-06-22T21:47:18Z</time>
      </trkpt>
      <trkpt lat="50.97858" lon="1.95434">
        <ele>3.4</ele>
        <time>2020-06-22T21:47:19Z</time>
      </trkpt>
      <trkpt lat="50.97862" lon="1.95439">
        <ele>3.4</ele>
        <time>2020-06-22T21:47:20Z</time>
      </trkpt>
      <trkpt lat="50.97866" lon="1.95443">
        <ele>3.4</ele>
        <time>2020-06-22T21:47:21Z</time>
      </trkpt>
      <trkpt lat="50.9787" lon="1.95448">
        <ele>3.4</ele>
        <time>2020-06-22T21:47:22Z</time>
      </trkpt>
      <trkpt lat="50.97873" lon="1.95453">
        <ele>3.4</ele>
        <time>2020-06-22T21:47:23Z</time>
      </trkpt>
      <trkpt lat="50.97877" lon="1.95459">
        <ele>3.4</ele>
        <time>2020-06-22T21:47:24Z</time>
      </trkpt>
      <trkpt lat="50.9788" lon="1.95465">
        <ele>3.4</ele>
        <time>2020-06-22T21:47:25Z</time>
      </trkpt>
      <trkpt lat="50.97883" lon="1.95472">
        <ele>3.3</ele>
        <time>2020-06-22T21:47:26Z</time>
      </trkpt>
      <trkpt lat="50.97885" lon="1.95478">
        <ele>3.3</ele>
        <time>2020-06-22T21:47:27Z</time>
      </trkpt>
      <trkpt lat="50.97888" lon="1.95483">
        <ele>3.3</ele>
        <time>2020-06-22T21:47:28Z</time>
      </trkpt>
      <trkpt lat="50.97892" lon="1.95488">
        <ele>3.3</ele>
        <time>2020-06-22T21:47:29Z</time>
      </trkpt>
      <trkpt lat="50.97895" lon="1.95493">
        <ele>3.3</ele>
        <time>2020-06-22T21:47:30Z</time>
      </trkpt>
      <trkpt lat="50.97898" lon="1.95498">
        <ele>3.4</ele>
        <time>2020-06-22T21:47:31Z</time>
      </trkpt>
      <trkpt lat="50.97901" lon="1.95504">
        <ele>3.4</ele>
        <time>2020-06-22T21:47:32Z</time>
      </trkpt>
      <trkpt lat="50.97905" lon="1.95509">
        <ele>3.4</ele>
        <time>2020-06-22T21:47:33Z</time>
      </trkpt>
      <trkpt lat="50.97909" lon="1.95514">
        <ele>3.4</ele>
        <time>2020-06-22T21:47:34Z</time>
      </trkpt>
      <trkpt lat="50.97912" lon="1.9552">
        <ele>3.4</ele>
        <time>2020-06-22T21:47:35Z</time>
      </trkpt>
      <trkpt lat="50.97914" lon="1.95527">
        <ele>3.4</ele>
        <time>2020-06-22T21:47:36Z</time>
      </trkpt>
      <trkpt lat="50.97917" lon="1.95534">
        <ele>3.4</ele>
        <time>2020-06-22T21:47:37Z</time>
      </trkpt>
      <trkpt lat="50.9792" lon="1.9554">
        <ele>3.4</ele>
        <time>2020-06-22T21:47:38Z</time>
      </trkpt>
      <trkpt lat="50.97924" lon="1.95545">
        <ele>3.4</ele>
        <time>2020-06-22T21:47:39Z</time>
      </trkpt>
      <trkpt lat="50.97928" lon="1.95551">
        <ele>3.3</ele>
        <time>2020-06-22T21:47:40Z</time>
      </trkpt>
      <trkpt lat="50.97932" lon="1.95556">
        <ele>3.3</ele>
        <time>2020-06-22T21:47:41Z</time>
      </trkpt>
      <trkpt lat="50.97936" lon="1.95562">
        <ele>3.3</ele>
        <time>2020-06-22T21:47:42Z</time>
      </trkpt>
      <trkpt lat="50.9794" lon="1.95568">
        <ele>3.3</ele>
        <time>2020-06-22T21:47:43Z</time>
      </trkpt>
      <trkpt lat="50.97943" lon="1.95575">
        <ele>3.3</ele>
        <time>2020-06-22T21:47:44Z</time>
      </trkpt>
      <trkpt lat="50.97946" lon="1.95583">
        <ele>3.3</ele>
        <time>2020-06-22T21:47:45Z</time>
      </trkpt>
      <trkpt lat="50.97949" lon="1.95591">
        <ele>3.3</ele>
        <time>2020-06-22T21:47:46Z</time>
      </trkpt>
      <trkpt lat="50.97951" lon="1.95599">
        <ele>3.3</ele>
        <time>2020-06-22T21:47:47Z</time>
      </trkpt>
      <trkpt lat="50.97953" lon="1.95608">
        <ele>3.3</ele>
        <time>2020-06-22T21:47:48Z</time>
      </trkpt>
      <trkpt lat="50.97957" lon="1.95615">
        <ele>3.3</ele>
        <time>2020-06-22T21:47:49Z</time>
      </trkpt>
      <trkpt lat="50.97958" lon="1.95624">
        <ele>3.3</ele>
        <time>2020-06-22T21:47:50Z</time>
      </trkpt>
      <trkpt lat="50.9796" lon="1.95632">
        <ele>3.3</ele>
        <time>2020-06-22T21:47:51Z</time>
      </trkpt>
      <trkpt lat="50.97961" lon="1.95641">
        <ele>3.3</ele>
        <time>2020-06-22T21:47:52Z</time>
      </trkpt>
      <trkpt lat="50.97964" lon="1.95649">
        <ele>3.3</ele>
        <time>2020-06-22T21:47:53Z</time>
      </trkpt>
      <trkpt lat="50.97965" lon="1.95657">
        <ele>3.3</ele>
        <time>2020-06-22T21:47:54Z</time>
      </trkpt>
      <trkpt lat="50.97967" lon="1.95666">
        <ele>3.3</ele>
        <time>2020-06-22T21:47:55Z</time>
      </trkpt>
      <trkpt lat="50.97969" lon="1.95675">
        <ele>3.3</ele>
        <time>2020-06-22T21:47:56Z</time>
      </trkpt>
      <trkpt lat="50.97971" lon="1.95683">
        <ele>3.4</ele>
        <time>2020-06-22T21:47:57Z</time>
      </trkpt>
      <trkpt lat="50.97973" lon="1.95692">
        <ele>3.4</ele>
        <time>2020-06-22T21:47:58Z</time>
      </trkpt>
      <trkpt lat="50.97974" lon="1.95701">
        <ele>3.4</ele>
        <time>2020-06-22T21:47:59Z</time>
      </trkpt>
      <trkpt lat="50.97975" lon="1.9571">
        <ele>3.4</ele>
        <time>2020-06-22T21:48:00Z</time>
      </trkpt>
      <trkpt lat="50.97977" lon="1.95719">
        <ele>3.4</ele>
        <time>2020-06-22T21:48:01Z</time>
      </trkpt>
      <trkpt lat="50.97976" lon="1.95729">
        <ele>3.4</ele>
        <time>2020-06-22T21:48:02Z</time>
      </trkpt>
      <trkpt lat="50.97977" lon="1.95738">
        <ele>3.4</ele>
        <time>2020-06-22T21:48:03Z</time>
      </trkpt>
      <trkpt lat="50.97978" lon="1.95747">
        <ele>3.4</ele>
        <time>2020-06-22T21:48:04Z</time>
      </trkpt>
      <trkpt lat="50.9798" lon="1.95757">
        <ele>3.4</ele>
        <time>2020-06-22T21:48:05Z</time>
      </trkpt>
      <trkpt lat="50.97981" lon="1.95767">
        <ele>3.5</ele>
        <time>2020-06-22T21:48:06Z</time>
      </trkpt>
      <trkpt lat="50.97983" lon="1.95777">
        <ele>3.5</ele>
        <time>2020-06-22T21:48:07Z</time>
      </trkpt>
      <trkpt lat="50.97985" lon="1.95786">
        <ele>3.5</ele>
        <time>2020-06-22T21:48:08Z</time>
      </trkpt>
      <trkpt lat="50.97986" lon="1.95795">
        <ele>3.4</ele>
        <time>2020-06-22T21:48:09Z</time>
      </trkpt>
      <trkpt lat="50.97988" lon="1.95805">
        <ele>3.4</ele>
        <time>2020-06-22T21:48:10Z</time>
      </trkpt>
      <trkpt lat="50.97989" lon="1.95814">
        <ele>3.4</ele>
        <time>2020-06-22T21:48:11Z</time>
      </trkpt>
      <trkpt lat="50.97992" lon="1.95824">
        <ele>3.4</ele>
        <time>2020-06-22T21:48:12Z</time>
      </trkpt>
      <trkpt lat="50.97994" lon="1.95834">
        <ele>3.4</ele>
        <time>2020-06-22T21:48:13Z</time>
      </trkpt>
      <trkpt lat="50.97996" lon="1.95844">
        <ele>3.3</ele>
        <time>2020-06-22T21:48:14Z</time>
      </trkpt>
      <trkpt lat="50.97998" lon="1.95855">
        <ele>3.3</ele>
        <time>2020-06-22T21:48:15Z</time>
      </trkpt>
      <trkpt lat="50.97999" lon="1.95866">
        <ele>3.3</ele>
        <time>2020-06-22T21:48:16Z</time>
      </trkpt>
      <trkpt lat="50.98002" lon="1.95877">
        <ele>3.3</ele>
        <time>2020-06-22T21:48:17Z</time>
      </trkpt>
      <trkpt lat="50.98003" lon="1.95887">
        <ele>3.3</ele>
        <time>2020-06-22T21:48:18Z</time>
      </trkpt>
      <trkpt lat="50.98005" lon="1.95897">
        <ele>3.3</ele>
        <time>2020-06-22T21:48:19Z</time>
      </trkpt>
      <trkpt lat="50.98007" lon="1.95906">
        <ele>3.4</ele>
        <time>2020-06-22T21:48:20Z</time>
      </trkpt>
      <trkpt lat="50.98008" lon="1.95916">
        <ele>3.4</ele>
        <time>2020-06-22T21:48:21Z</time>
      </trkpt>
      <trkpt lat="50.9801" lon="1.95926">
        <ele>3.4</ele>
        <time>2020-06-22T21:48:22Z</time>
      </trkpt>
      <trkpt lat="50.98012" lon="1.95937">
        <ele>3.4</ele>
        <time>2020-06-22T21:48:23Z</time>
      </trkpt>
      <trkpt lat="50.98014" lon="1.95947">
        <ele>3.4</ele>
        <time>2020-06-22T21:48:24Z</time>
      </trkpt>
      <trkpt lat="50.98016" lon="1.95957">
        <ele>3.3</ele>
        <time>2020-06-22T21:48:25Z</time>
      </trkpt>
      <trkpt lat="50.98017" lon="1.95967">
        <ele>3.3</ele>
        <time>2020-06-22T21:48:26Z</time>
      </trkpt>
      <trkpt lat="50.98018" lon="1.95976">
        <ele>3.3</ele>
        <time>2020-06-22T21:48:27Z</time>
      </trkpt>
      <trkpt lat="50.98019" lon="1.95987">
        <ele>3.2</ele>
        <time>2020-06-22T21:48:28Z</time>
      </trkpt>
      <trkpt lat="50.98019" lon="1.95998">
        <ele>3.2</ele>
        <time>2020-06-22T21:48:29Z</time>
      </trkpt>
      <trkpt lat="50.98019" lon="1.96009">
        <ele>3.3</ele>
        <time>2020-06-22T21:48:30Z</time>
      </trkpt>
      <trkpt lat="50.98019" lon="1.96019">
        <ele>3.3</ele>
        <time>2020-06-22T21:48:31Z</time>
      </trkpt>
      <trkpt lat="50.98019" lon="1.96029">
        <ele>3.3</ele>
        <time>2020-06-22T21:48:32Z</time>
      </trkpt>
      <trkpt lat="50.98018" lon="1.96039">
        <ele>3.3</ele>
        <time>2020-06-22T21:48:33Z</time>
      </trkpt>
      <trkpt lat="50.98018" lon="1.9605">
        <ele>3.3</ele>
        <time>2020-06-22T21:48:34Z</time>
      </trkpt>
      <trkpt lat="50.98017" lon="1.96061">
        <ele>3.4</ele>
        <time>2020-06-22T21:48:35Z</time>
      </trkpt>
      <trkpt lat="50.98017" lon="1.96072">
        <ele>3.4</ele>
        <time>2020-06-22T21:48:36Z</time>
      </trkpt>
      <trkpt lat="50.98018" lon="1.96082">
        <ele>3.4</ele>
        <time>2020-06-22T21:48:37Z</time>
      </trkpt>
      <trkpt lat="50.98017" lon="1.96093">
        <ele>3.4</ele>
        <time>2020-06-22T21:48:38Z</time>
      </trkpt>
      <trkpt lat="50.98018" lon="1.96103">
        <ele>3.4</ele>
        <time>2020-06-22T21:48:39Z</time>
      </trkpt>
      <trkpt lat="50.98019" lon="1.96113">
        <ele>3.4</ele>
        <time>2020-06-22T21:48:40Z</time>
      </trkpt>
      <trkpt lat="50.98019" lon="1.96123">
        <ele>3.4</ele>
        <time>2020-06-22T21:48:41Z</time>
      </trkpt>
      <trkpt lat="50.98019" lon="1.96134">
        <ele>3.4</ele>
        <time>2020-06-22T21:48:42Z</time>
      </trkpt>
      <trkpt lat="50.9802" lon="1.96144">
        <ele>3.4</ele>
        <time>2020-06-22T21:48:43Z</time>
      </trkpt>
      <trkpt lat="50.9802" lon="1.96155">
        <ele>3.4</ele>
        <time>2020-06-22T21:48:44Z</time>
      </trkpt>
      <trkpt lat="50.98021" lon="1.96165">
        <ele>3.4</ele>
        <time>2020-06-22T21:48:45Z</time>
      </trkpt>
      <trkpt lat="50.98023" lon="1.96175">
        <ele>3.4</ele>
        <time>2020-06-22T21:48:46Z</time>
      </trkpt>
      <trkpt lat="50.98025" lon="1.96184">
        <ele>3.4</ele>
        <time>2020-06-22T21:48:47Z</time>
      </trkpt>
      <trkpt lat="50.98026" lon="1.96194">
        <ele>3.4</ele>
        <time>2020-06-22T21:48:48Z</time>
      </trkpt>
      <trkpt lat="50.98028" lon="1.96204">
        <ele>3.5</ele>
        <time>2020-06-22T21:48:49Z</time>
      </trkpt>
      <trkpt lat="50.9803" lon="1.96214">
        <ele>3.5</ele>
        <time>2020-06-22T21:48:50Z</time>
      </trkpt>
      <trkpt lat="50.98031" lon="1.96224">
        <ele>3.5</ele>
        <time>2020-06-22T21:48:51Z</time>
      </trkpt>
      <trkpt lat="50.98033" lon="1.96233">
        <ele>3.5</ele>
        <time>2020-06-22T21:48:52Z</time>
      </trkpt>
      <trkpt lat="50.98036" lon="1.96243">
        <ele>3.5</ele>
        <time>2020-06-22T21:48:53Z</time>
      </trkpt>
      <trkpt lat="50.98039" lon="1.96252">
        <ele>3.5</ele>
        <time>2020-06-22T21:48:54Z</time>
      </trkpt>
      <trkpt lat="50.98041" lon="1.96261">
        <ele>3.5</ele>
        <time>2020-06-22T21:48:55Z</time>
      </trkpt>
      <trkpt lat="50.98044" lon="1.96271">
        <ele>3.6</ele>
        <time>2020-06-22T21:48:56Z</time>
      </trkpt>
      <trkpt lat="50.98046" lon="1.9628">
        <ele>3.5</ele>
        <time>2020-06-22T21:48:57Z</time>
      </trkpt>
      <trkpt lat="50.98048" lon="1.9629">
        <ele>3.5</ele>
        <time>2020-06-22T21:48:58Z</time>
      </trkpt>
      <trkpt lat="50.9805" lon="1.96299">
        <ele>3.6</ele>
        <time>2020-06-22T21:48:59Z</time>
      </trkpt>
      <trkpt lat="50.98053" lon="1.96309">
        <ele>3.6</ele>
        <time>2020-06-22T21:49:00Z</time>
      </trkpt>
      <trkpt lat="50.98055" lon="1.96318">
        <ele>3.6</ele>
        <time>2020-06-22T21:49:01Z</time>
      </trkpt>
      <trkpt lat="50.98058" lon="1.96326">
        <ele>3.6</ele>
        <time>2020-06-22T21:49:02Z</time>
      </trkpt>
      <trkpt lat="50.98061" lon="1.96335">
        <ele>3.6</ele>
        <time>2020-06-22T21:49:03Z</time>
      </trkpt>
      <trkpt lat="50.98063" lon="1.96344">
        <ele>3.6</ele>
        <time>2020-06-22T21:49:04Z</time>
      </trkpt>
      <trkpt lat="50.98065" lon="1.96352">
        <ele>3.6</ele>
        <time>2020-06-22T21:49:05Z</time>
      </trkpt>
      <trkpt lat="50.98067" lon="1.9636">
        <ele>3.6</ele>
        <time>2020-06-22T21:49:06Z</time>
      </trkpt>
      <trkpt lat="50.98069" lon="1.96368">
        <ele>3.6</ele>
        <time>2020-06-22T21:49:07Z</time>
      </trkpt>
      <trkpt lat="50.9807" lon="1.96376">
        <ele>3.6</ele>
        <time>2020-06-22T21:49:08Z</time>
      </trkpt>
      <trkpt lat="50.98071" lon="1.96384">
        <ele>3.6</ele>
        <time>2020-06-22T21:49:09Z</time>
      </trkpt>
      <trkpt lat="50.98073" lon="1.96392">
        <ele>3.5</ele>
        <time>2020-06-22T21:49:10Z</time>
      </trkpt>
      <trkpt lat="50.98074" lon="1.964">
        <ele>3.5</ele>
        <time>2020-06-22T21:49:11Z</time>
      </trkpt>
      <trkpt lat="50.98075" lon="1.96409">
        <ele>3.5</ele>
        <time>2020-06-22T21:49:12Z</time>
      </trkpt>
      <trkpt lat="50.98078" lon="1.96418">
        <ele>3.5</ele>
        <time>2020-06-22T21:49:13Z</time>
      </trkpt>
      <trkpt lat="50.9808" lon="1.96427">
        <ele>3.5</ele>
        <time>2020-06-22T21:49:14Z</time>
      </trkpt>
      <trkpt lat="50.98083" lon="1.96435">
        <ele>3.5</ele>
        <time>2020-06-22T21:49:15Z</time>
      </trkpt>
      <trkpt lat="50.98086" lon="1.96444">
        <ele>3.5</ele>
        <time>2020-06-22T21:49:16Z</time>
      </trkpt>
      <trkpt lat="50.98089" lon="1.96452">
        <ele>3.5</ele>
        <time>2020-06-22T21:49:17Z</time>
      </trkpt>
      <trkpt lat="50.98093" lon="1.9646">
        <ele>3.5</ele>
        <time>2020-06-22T21:49:18Z</time>
      </trkpt>
      <trkpt lat="50.98097" lon="1.96467">
        <ele>3.4</ele>
        <time>2020-06-22T21:49:19Z</time>
      </trkpt>
      <trkpt lat="50.98102" lon="1.96474">
        <ele>3.4</ele>
        <time>2020-06-22T21:49:20Z</time>
      </trkpt>
      <trkpt lat="50.98106" lon="1.96481">
        <ele>3.4</ele>
        <time>2020-06-22T21:49:21Z</time>
      </trkpt>
      <trkpt lat="50.9811" lon="1.96488">
        <ele>3.4</ele>
        <time>2020-06-22T21:49:22Z</time>
      </trkpt>
      <trkpt lat="50.98113" lon="1.96496">
        <ele>3.4</ele>
        <time>2020-06-22T21:49:23Z</time>
      </trkpt>
      <trkpt lat="50.98118" lon="1.96503">
        <ele>3.4</ele>
        <time>2020-06-22T21:49:24Z</time>
      </trkpt>
      <trkpt lat="50.98123" lon="1.9651">
        <ele>3.4</ele>
        <time>2020-06-22T21:49:25Z</time>
      </trkpt>
      <trkpt lat="50.98128" lon="1.96517">
        <ele>3.4</ele>
        <time>2020-06-22T21:49:26Z</time>
      </trkpt>
      <trkpt lat="50.98133" lon="1.96524">
        <ele>3.4</ele>
        <time>2020-06-22T21:49:27Z</time>
      </trkpt>
      <trkpt lat="50.98137" lon="1.96532">
        <ele>3.3</ele>
        <time>2020-06-22T21:49:28Z</time>
      </trkpt>
      <trkpt lat="50.98142" lon="1.96541">
        <ele>3.3</ele>
        <time>2020-06-22T21:49:29Z</time>
      </trkpt>
      <trkpt lat="50.98147" lon="1.96551">
        <ele>3.3</ele>
        <time>2020-06-22T21:49:30Z</time>
      </trkpt>
      <trkpt lat="50.9815" lon="1.96559">
        <ele>3.3</ele>
        <time>2020-06-22T21:49:31Z</time>
      </trkpt>
      <trkpt lat="50.98154" lon="1.96565">
        <ele>3.3</ele>
        <time>2020-06-22T21:49:32Z</time>
      </trkpt>
      <trkpt lat="50.98158" lon="1.96574">
        <ele>3.3</ele>
        <time>2020-06-22T21:49:33Z</time>
      </trkpt>
      <trkpt lat="50.98162" lon="1.96582">
        <ele>3.3</ele>
        <time>2020-06-22T21:49:34Z</time>
      </trkpt>
      <trkpt lat="50.98166" lon="1.96589">
        <ele>3.3</ele>
        <time>2020-06-22T21:49:35Z</time>
      </trkpt>
      <trkpt lat="50.9817" lon="1.96596">
        <ele>3.2</ele>
        <time>2020-06-22T21:49:36Z</time>
      </trkpt>
      <trkpt lat="50.98173" lon="1.96604">
        <ele>3.2</ele>
        <time>2020-06-22T21:49:37Z</time>
      </trkpt>
      <trkpt lat="50.98177" lon="1.96612">
        <ele>3.2</ele>
        <time>2020-06-22T21:49:38Z</time>
      </trkpt>
      <trkpt lat="50.98181" lon="1.96619">
        <ele>3.2</ele>
        <time>2020-06-22T21:49:39Z</time>
      </trkpt>
      <trkpt lat="50.98185" lon="1.96626">
        <ele>3.2</ele>
        <time>2020-06-22T21:49:40Z</time>
      </trkpt>
      <trkpt lat="50.98189" lon="1.96635">
        <ele>3.2</ele>
        <time>2020-06-22T21:49:41Z</time>
      </trkpt>
      <trkpt lat="50.98193" lon="1.96643">
        <ele>3.2</ele>
        <time>2020-06-22T21:49:42Z</time>
      </trkpt>
      <trkpt lat="50.98198" lon="1.96651">
        <ele>3.2</ele>
        <time>2020-06-22T21:49:43Z</time>
      </trkpt>
      <trkpt lat="50.98201" lon="1.96658">
        <ele>3.2</ele>
        <time>2020-06-22T21:49:44Z</time>
      </trkpt>
      <trkpt lat="50.98205" lon="1.96666">
        <ele>3.3</ele>
        <time>2020-06-22T21:49:45Z</time>
      </trkpt>
      <trkpt lat="50.98209" lon="1.96673">
        <ele>3.3</ele>
        <time>2020-06-22T21:49:46Z</time>
      </trkpt>
      <trkpt lat="50.98213" lon="1.96681">
        <ele>3.3</ele>
        <time>2020-06-22T21:49:47Z</time>
      </trkpt>
      <trkpt lat="50.98217" lon="1.96689">
        <ele>3.4</ele>
        <time>2020-06-22T21:49:48Z</time>
      </trkpt>
      <trkpt lat="50.98222" lon="1.96698">
        <ele>3.4</ele>
        <time>2020-06-22T21:49:49Z</time>
      </trkpt>
      <trkpt lat="50.98226" lon="1.96706">
        <ele>3.4</ele>
        <time>2020-06-22T21:49:50Z</time>
      </trkpt>
      <trkpt lat="50.98231" lon="1.96714">
        <ele>3.3</ele>
        <time>2020-06-22T21:49:51Z</time>
      </trkpt>
      <trkpt lat="50.98235" lon="1.96722">
        <ele>3.3</ele>
        <time>2020-06-22T21:49:52Z</time>
      </trkpt>
      <trkpt lat="50.98239" lon="1.9673">
        <ele>3.3</ele>
        <time>2020-06-22T21:49:53Z</time>
      </trkpt>
      <trkpt lat="50.98243" lon="1.96737">
        <ele>3.3</ele>
        <time>2020-06-22T21:49:54Z</time>
      </trkpt>
      <trkpt lat="50.98247" lon="1.96742">
        <ele>3.3</ele>
        <time>2020-06-22T21:49:55Z</time>
      </trkpt>
      <trkpt lat="50.98251" lon="1.96748">
        <ele>3.3</ele>
        <time>2020-06-22T21:49:56Z</time>
      </trkpt>
      <trkpt lat="50.98254" lon="1.96755">
        <ele>3.3</ele>
        <time>2020-06-22T21:49:57Z</time>
      </trkpt>
      <trkpt lat="50.98259" lon="1.96763">
        <ele>3.3</ele>
        <time>2020-06-22T21:49:58Z</time>
      </trkpt>
      <trkpt lat="50.9826" lon="1.96769">
        <ele>3.3</ele>
        <time>2020-06-22T21:49:59Z</time>
      </trkpt>
      <trkpt lat="50.98265" lon="1.96777">
        <ele>3.3</ele>
        <time>2020-06-22T21:50:00Z</time>
      </trkpt>
      <trkpt lat="50.98269" lon="1.96783">
        <ele>3.3</ele>
        <time>2020-06-22T21:50:01Z</time>
      </trkpt>
      <trkpt lat="50.98273" lon="1.96791">
        <ele>3.3</ele>
        <time>2020-06-22T21:50:02Z</time>
      </trkpt>
      <trkpt lat="50.98276" lon="1.96799">
        <ele>3.3</ele>
        <time>2020-06-22T21:50:03Z</time>
      </trkpt>
      <trkpt lat="50.98279" lon="1.96807">
        <ele>3.3</ele>
        <time>2020-06-22T21:50:04Z</time>
      </trkpt>
      <trkpt lat="50.98282" lon="1.96815">
        <ele>3.4</ele>
        <time>2020-06-22T21:50:05Z</time>
      </trkpt>
      <trkpt lat="50.98284" lon="1.96823">
        <ele>3.4</ele>
        <time>2020-06-22T21:50:06Z</time>
      </trkpt>
      <trkpt lat="50.98286" lon="1.96829">
        <ele>3.4</ele>
        <time>2020-06-22T21:50:07Z</time>
      </trkpt>
      <trkpt lat="50.98289" lon="1.96837">
        <ele>3.4</ele>
        <time>2020-06-22T21:50:08Z</time>
      </trkpt>
      <trkpt lat="50.9829" lon="1.96843">
        <ele>3.4</ele>
        <time>2020-06-22T21:50:09Z</time>
      </trkpt>
      <trkpt lat="50.98292" lon="1.96848">
        <ele>3.4</ele>
        <time>2020-06-22T21:50:10Z</time>
      </trkpt>
      <trkpt lat="50.98294" lon="1.96853">
        <ele>3.4</ele>
        <time>2020-06-22T21:50:11Z</time>
      </trkpt>
      <trkpt lat="50.98296" lon="1.96858">
        <ele>3.4</ele>
        <time>2020-06-22T21:50:12Z</time>
      </trkpt>
      <trkpt lat="50.98298" lon="1.96862">
        <ele>3.4</ele>
        <time>2020-06-22T21:50:13Z</time>
      </trkpt>
      <trkpt lat="50.983" lon="1.96867">
        <ele>3.4</ele>
        <time>2020-06-22T21:50:14Z</time>
      </trkpt>
      <trkpt lat="50.98302" lon="1.96872">
        <ele>3.4</ele>
        <time>2020-06-22T21:50:15Z</time>
      </trkpt>
      <trkpt lat="50.98305" lon="1.96879">
        <ele>3.5</ele>
        <time>2020-06-22T21:50:16Z</time>
      </trkpt>
      <trkpt lat="50.98307" lon="1.96885">
        <ele>3.5</ele>
        <time>2020-06-22T21:50:17Z</time>
      </trkpt>
      <trkpt lat="50.9831" lon="1.9689">
        <ele>3.5</ele>
        <time>2020-06-22T21:50:18Z</time>
      </trkpt>
      <trkpt lat="50.98312" lon="1.96896">
        <ele>3.5</ele>
        <time>2020-06-22T21:50:19Z</time>
      </trkpt>
      <trkpt lat="50.98316" lon="1.96902">
        <ele>3.5</ele>
        <time>2020-06-22T21:50:20Z</time>
      </trkpt>
      <trkpt lat="50.98319" lon="1.96907">
        <ele>3.5</ele>
        <time>2020-06-22T21:50:21Z</time>
      </trkpt>
      <trkpt lat="50.98322" lon="1.9691">
        <ele>3.5</ele>
        <time>2020-06-22T21:50:22Z</time>
      </trkpt>
      <trkpt lat="50.98325" lon="1.96917">
        <ele>3.5</ele>
        <time>2020-06-22T21:50:23Z</time>
      </trkpt>
      <trkpt lat="50.98329" lon="1.96922">
        <ele>3.6</ele>
        <time>2020-06-22T21:50:24Z</time>
      </trkpt>
      <trkpt lat="50.98333" lon="1.96929">
        <ele>3.6</ele>
        <time>2020-06-22T21:50:25Z</time>
      </trkpt>
      <trkpt lat="50.98336" lon="1.96935">
        <ele>3.6</ele>
        <time>2020-06-22T21:50:26Z</time>
      </trkpt>
      <trkpt lat="50.98339" lon="1.96941">
        <ele>3.6</ele>
        <time>2020-06-22T21:50:27Z</time>
      </trkpt>
      <trkpt lat="50.98343" lon="1.96949">
        <ele>3.6</ele>
        <time>2020-06-22T21:50:28Z</time>
      </trkpt>
      <trkpt lat="50.98346" lon="1.96955">
        <ele>3.6</ele>
        <time>2020-06-22T21:50:29Z</time>
      </trkpt>
      <trkpt lat="50.98348" lon="1.96959">
        <ele>3.6</ele>
        <time>2020-06-22T21:50:30Z</time>
      </trkpt>
      <trkpt lat="50.98351" lon="1.96966">
        <ele>3.6</ele>
        <time>2020-06-22T21:50:31Z</time>
      </trkpt>
      <trkpt lat="50.98355" lon="1.96973">
        <ele>3.6</ele>
        <time>2020-06-22T21:50:32Z</time>
      </trkpt>
      <trkpt lat="50.98358" lon="1.9698">
        <ele>3.6</ele>
        <time>2020-06-22T21:50:33Z</time>
      </trkpt>
      <trkpt lat="50.98361" lon="1.96988">
        <ele>3.6</ele>
        <time>2020-06-22T21:50:34Z</time>
      </trkpt>
      <trkpt lat="50.98364" lon="1.96994">
        <ele>3.6</ele>
        <time>2020-06-22T21:50:35Z</time>
      </trkpt>
      <trkpt lat="50.98366" lon="1.97001">
        <ele>3.6</ele>
        <time>2020-06-22T21:50:36Z</time>
      </trkpt>
      <trkpt lat="50.98369" lon="1.9701">
        <ele>3.6</ele>
        <time>2020-06-22T21:50:37Z</time>
      </trkpt>
      <trkpt lat="50.98372" lon="1.97017">
        <ele>3.6</ele>
        <time>2020-06-22T21:50:38Z</time>
      </trkpt>
      <trkpt lat="50.98375" lon="1.97025">
        <ele>3.6</ele>
        <time>2020-06-22T21:50:39Z</time>
      </trkpt>
      <trkpt lat="50.98376" lon="1.97032">
        <ele>3.6</ele>
        <time>2020-06-22T21:50:40Z</time>
      </trkpt>
      <trkpt lat="50.98378" lon="1.97041">
        <ele>3.6</ele>
        <time>2020-06-22T21:50:41Z</time>
      </trkpt>
      <trkpt lat="50.98381" lon="1.97049">
        <ele>3.6</ele>
        <time>2020-06-22T21:50:42Z</time>
      </trkpt>
      <trkpt lat="50.98383" lon="1.97058">
        <ele>3.6</ele>
        <time>2020-06-22T21:50:43Z</time>
      </trkpt>
      <trkpt lat="50.98386" lon="1.97066">
        <ele>3.6</ele>
        <time>2020-06-22T21:50:44Z</time>
      </trkpt>
      <trkpt lat="50.98388" lon="1.97073">
        <ele>3.5</ele>
        <time>2020-06-22T21:50:45Z</time>
      </trkpt>
      <trkpt lat="50.98391" lon="1.97081">
        <ele>3.5</ele>
        <time>2020-06-22T21:50:46Z</time>
      </trkpt>
      <trkpt lat="50.98394" lon="1.9709">
        <ele>3.5</ele>
        <time>2020-06-22T21:50:47Z</time>
      </trkpt>
      <trkpt lat="50.98396" lon="1.97096">
        <ele>3.5</ele>
        <time>2020-06-22T21:50:48Z</time>
      </trkpt>
      <trkpt lat="50.98399" lon="1.97106">
        <ele>3.5</ele>
        <time>2020-06-22T21:50:49Z</time>
      </trkpt>
      <trkpt lat="50.98402" lon="1.97116">
        <ele>3.5</ele>
        <time>2020-06-22T21:50:50Z</time>
      </trkpt>
      <trkpt lat="50.98405" lon="1.97123">
        <ele>3.5</ele>
        <time>2020-06-22T21:50:51Z</time>
      </trkpt>
      <trkpt lat="50.98407" lon="1.97128">
        <ele>3.5</ele>
        <time>2020-06-22T21:50:52Z</time>
      </trkpt>
      <trkpt lat="50.9841" lon="1.97137">
        <ele>3.5</ele>
        <time>2020-06-22T21:50:53Z</time>
      </trkpt>
      <trkpt lat="50.98412" lon="1.97145">
        <ele>3.5</ele>
        <time>2020-06-22T21:50:54Z</time>
      </trkpt>
      <trkpt lat="50.98415" lon="1.97151">
        <ele>3.5</ele>
        <time>2020-06-22T21:50:55Z</time>
      </trkpt>
      <trkpt lat="50.98418" lon="1.97161">
        <ele>3.5</ele>
        <time>2020-06-22T21:50:56Z</time>
      </trkpt>
      <trkpt lat="50.98421" lon="1.97167">
        <ele>3.5</ele>
        <time>2020-06-22T21:50:57Z</time>
      </trkpt>
      <trkpt lat="50.98424" lon="1.97174">
        <ele>3.5</ele>
        <time>2020-06-22T21:50:58Z</time>
      </trkpt>
      <trkpt lat="50.98427" lon="1.97182">
        <ele>3.4</ele>
        <time>2020-06-22T21:50:59Z</time>
      </trkpt>
      <trkpt lat="50.9843" lon="1.97188">
        <ele>3.4</ele>
        <time>2020-06-22T21:51:00Z</time>
      </trkpt>
      <trkpt lat="50.98433" lon="1.97194">
        <ele>3.4</ele>
        <time>2020-06-22T21:51:01Z</time>
      </trkpt>
      <trkpt lat="50.98436" lon="1.97202">
        <ele>3.4</ele>
        <time>2020-06-22T21:51:02Z</time>
      </trkpt>
      <trkpt lat="50.98439" lon="1.97209">
        <ele>3.4</ele>
        <time>2020-06-22T21:51:03Z</time>
      </trkpt>
      <trkpt lat="50.98442" lon="1.97214">
        <ele>3.4</ele>
        <time>2020-06-22T21:51:04Z</time>
      </trkpt>
      <trkpt lat="50.98445" lon="1.9722">
        <ele>3.4</ele>
        <time>2020-06-22T21:51:05Z</time>
      </trkpt>
      <trkpt lat="50.98448" lon="1.97228">
        <ele>3.4</ele>
        <time>2020-06-22T21:51:06Z</time>
      </trkpt>
      <trkpt lat="50.98451" lon="1.97233">
        <ele>3.4</ele>
        <time>2020-06-22T21:51:07Z</time>
      </trkpt>
      <trkpt lat="50.98454" lon="1.97237">
        <ele>3.4</ele>
        <time>2020-06-22T21:51:08Z</time>
      </trkpt>
      <trkpt lat="50.98456" lon="1.97242">
        <ele>3.4</ele>
        <time>2020-06-22T21:51:09Z</time>
      </trkpt>
      <trkpt lat="50.9846" lon="1.97248">
        <ele>3.3</ele>
        <time>2020-06-22T21:51:10Z</time>
      </trkpt>
      <trkpt lat="50.98464" lon="1.97254">
        <ele>3.3</ele>
        <time>2020-06-22T21:51:11Z</time>
      </trkpt>
      <trkpt lat="50.98467" lon="1.97258">
        <ele>3.3</ele>
        <time>2020-06-22T21:51:12Z</time>
      </trkpt>
      <trkpt lat="50.98471" lon="1.97264">
        <ele>3.3</ele>
        <time>2020-06-22T21:51:13Z</time>
      </trkpt>
      <trkpt lat="50.98475" lon="1.97271">
        <ele>3.3</ele>
        <time>2020-06-22T21:51:14Z</time>
      </trkpt>
      <trkpt lat="50.98479" lon="1.97277">
        <ele>3.3</ele>
        <time>2020-06-22T21:51:15Z</time>
      </trkpt>
      <trkpt lat="50.98483" lon="1.97282">
        <ele>3.4</ele>
        <time>2020-06-22T21:51:16Z</time>
      </trkpt>
      <trkpt lat="50.98487" lon="1.97287">
        <ele>3.4</ele>
        <time>2020-06-22T21:51:17Z</time>
      </trkpt>
      <trkpt lat="50.98491" lon="1.97292">
        <ele>3.4</ele>
        <time>2020-06-22T21:51:18Z</time>
      </trkpt>
      <trkpt lat="50.98494" lon="1.97297">
        <ele>3.4</ele>
        <time>2020-06-22T21:51:19Z</time>
      </trkpt>
      <trkpt lat="50.98498" lon="1.97303">
        <ele>3.4</ele>
        <time>2020-06-22T21:51:20Z</time>
      </trkpt>
      <trkpt lat="50.98501" lon="1.97309">
        <ele>3.4</ele>
        <time>2020-06-22T21:51:21Z</time>
      </trkpt>
      <trkpt lat="50.98504" lon="1.97316">
        <ele>3.4</ele>
        <time>2020-06-22T21:51:22Z</time>
      </trkpt>
      <trkpt lat="50.98508" lon="1.97324">
        <ele>3.4</ele>
        <time>2020-06-22T21:51:23Z</time>
      </trkpt>
      <trkpt lat="50.9851" lon="1.97332">
        <ele>3.3</ele>
        <time>2020-06-22T21:51:24Z</time>
      </trkpt>
      <trkpt lat="50.98513" lon="1.97341">
        <ele>3.3</ele>
        <time>2020-06-22T21:51:25Z</time>
      </trkpt>
      <trkpt lat="50.98515" lon="1.97351">
        <ele>3.3</ele>
        <time>2020-06-22T21:51:26Z</time>
      </trkpt>
      <trkpt lat="50.98517" lon="1.97359">
        <ele>3.3</ele>
        <time>2020-06-22T21:51:27Z</time>
      </trkpt>
      <trkpt lat="50.98519" lon="1.97368">
        <ele>3.3</ele>
        <time>2020-06-22T21:51:28Z</time>
      </trkpt>
      <trkpt lat="50.98522" lon="1.97374">
        <ele>3.3</ele>
        <time>2020-06-22T21:51:29Z</time>
      </trkpt>
      <trkpt lat="50.98524" lon="1.9738">
        <ele>3.4</ele>
        <time>2020-06-22T21:51:30Z</time>
      </trkpt>
      <trkpt lat="50.98527" lon="1.97388">
        <ele>3.4</ele>
        <time>2020-06-22T21:51:31Z</time>
      </trkpt>
      <trkpt lat="50.9853" lon="1.97395">
        <ele>3.4</ele>
        <time>2020-06-22T21:51:32Z</time>
      </trkpt>
      <trkpt lat="50.98533" lon="1.97403">
        <ele>3.4</ele>
        <time>2020-06-22T21:51:33Z</time>
      </trkpt>
      <trkpt lat="50.98536" lon="1.97411">
        <ele>3.4</ele>
        <time>2020-06-22T21:51:34Z</time>
      </trkpt>
      <trkpt lat="50.98538" lon="1.9742">
        <ele>3.4</ele>
        <time>2020-06-22T21:51:35Z</time>
      </trkpt>
      <trkpt lat="50.9854" lon="1.97428">
        <ele>3.4</ele>
        <time>2020-06-22T21:51:36Z</time>
      </trkpt>
      <trkpt lat="50.98542" lon="1.97435">
        <ele>3.4</ele>
        <time>2020-06-22T21:51:37Z</time>
      </trkpt>
      <trkpt lat="50.98545" lon="1.97443">
        <ele>3.4</ele>
        <time>2020-06-22T21:51:38Z</time>
      </trkpt>
      <trkpt lat="50.98547" lon="1.97454">
        <ele>3.4</ele>
        <time>2020-06-22T21:51:39Z</time>
      </trkpt>
      <trkpt lat="50.9855" lon="1.97462">
        <ele>3.5</ele>
        <time>2020-06-22T21:51:40Z</time>
      </trkpt>
      <trkpt lat="50.98552" lon="1.97468">
        <ele>3.5</ele>
        <time>2020-06-22T21:51:41Z</time>
      </trkpt>
      <trkpt lat="50.98554" lon="1.97477">
        <ele>3.5</ele>
        <time>2020-06-22T21:51:42Z</time>
      </trkpt>
      <trkpt lat="50.98557" lon="1.97485">
        <ele>3.5</ele>
        <time>2020-06-22T21:51:43Z</time>
      </trkpt>
      <trkpt lat="50.98558" lon="1.97492">
        <ele>3.5</ele>
        <time>2020-06-22T21:51:44Z</time>
      </trkpt>
      <trkpt lat="50.98561" lon="1.97501">
        <ele>3.5</ele>
        <time>2020-06-22T21:51:45Z</time>
      </trkpt>
      <trkpt lat="50.98563" lon="1.9751">
        <ele>3.5</ele>
        <time>2020-06-22T21:51:46Z</time>
      </trkpt>
      <trkpt lat="50.98567" lon="1.97518">
        <ele>3.4</ele>
        <time>2020-06-22T21:51:47Z</time>
      </trkpt>
      <trkpt lat="50.98569" lon="1.97526">
        <ele>3.4</ele>
        <time>2020-06-22T21:51:48Z</time>
      </trkpt>
      <trkpt lat="50.98572" lon="1.97534">
        <ele>3.4</ele>
        <time>2020-06-22T21:51:49Z</time>
      </trkpt>
      <trkpt lat="50.98575" lon="1.97545">
        <ele>3.4</ele>
        <time>2020-06-22T21:51:50Z</time>
      </trkpt>
      <trkpt lat="50.98577" lon="1.97553">
        <ele>3.4</ele>
        <time>2020-06-22T21:51:51Z</time>
      </trkpt>
      <trkpt lat="50.9858" lon="1.97561">
        <ele>3.4</ele>
        <time>2020-06-22T21:51:52Z</time>
      </trkpt>
      <trkpt lat="50.98582" lon="1.97571">
        <ele>3.4</ele>
        <time>2020-06-22T21:51:53Z</time>
      </trkpt>
      <trkpt lat="50.98584" lon="1.9758">
        <ele>3.4</ele>
        <time>2020-06-22T21:51:54Z</time>
      </trkpt>
      <trkpt lat="50.98587" lon="1.97587">
        <ele>3.4</ele>
        <time>2020-06-22T21:51:55Z</time>
      </trkpt>
      <trkpt lat="50.98589" lon="1.97595">
        <ele>3.4</ele>
        <time>2020-06-22T21:51:56Z</time>
      </trkpt>
      <trkpt lat="50.9859" lon="1.97604">
        <ele>3.4</ele>
        <time>2020-06-22T21:51:57Z</time>
      </trkpt>
      <trkpt lat="50.98592" lon="1.97613">
        <ele>3.4</ele>
        <time>2020-06-22T21:51:58Z</time>
      </trkpt>
      <trkpt lat="50.98594" lon="1.9762">
        <ele>3.4</ele>
        <time>2020-06-22T21:51:59Z</time>
      </trkpt>
      <trkpt lat="50.98595" lon="1.97632">
        <ele>3.4</ele>
        <time>2020-06-22T21:52:00Z</time>
      </trkpt>
      <trkpt lat="50.98598" lon="1.97641">
        <ele>3.4</ele>
        <time>2020-06-22T21:52:01Z</time>
      </trkpt>
      <trkpt lat="50.98599" lon="1.97648">
        <ele>3.4</ele>
        <time>2020-06-22T21:52:02Z</time>
      </trkpt>
      <trkpt lat="50.98601" lon="1.97656">
        <ele>3.4</ele>
        <time>2020-06-22T21:52:03Z</time>
      </trkpt>
      <trkpt lat="50.98603" lon="1.97663">
        <ele>3.5</ele>
        <time>2020-06-22T21:52:04Z</time>
      </trkpt>
      <trkpt lat="50.98604" lon="1.97671">
        <ele>3.5</ele>
        <time>2020-06-22T21:52:05Z</time>
      </trkpt>
      <trkpt lat="50.98605" lon="1.97678">
        <ele>3.5</ele>
        <time>2020-06-22T21:52:06Z</time>
      </trkpt>
      <trkpt lat="50.98606" lon="1.97685">
        <ele>3.5</ele>
        <time>2020-06-22T21:52:07Z</time>
      </trkpt>
      <trkpt lat="50.98607" lon="1.9769">
        <ele>3.5</ele>
        <time>2020-06-22T21:52:08Z</time>
      </trkpt>
      <trkpt lat="50.98608" lon="1.97696">
        <ele>3.5</ele>
        <time>2020-06-22T21:52:09Z</time>
      </trkpt>
      <trkpt lat="50.9861" lon="1.97701">
        <ele>3.5</ele>
        <time>2020-06-22T21:52:10Z</time>
      </trkpt>
      <trkpt lat="50.9861" lon="1.97707">
        <ele>3.5</ele>
        <time>2020-06-22T21:52:11Z</time>
      </trkpt>
      <trkpt lat="50.98611" lon="1.97712">
        <ele>3.5</ele>
        <time>2020-06-22T21:52:12Z</time>
      </trkpt>
      <trkpt lat="50.98612" lon="1.97718">
        <ele>3.5</ele>
        <time>2020-06-22T21:52:13Z</time>
      </trkpt>
      <trkpt lat="50.98613" lon="1.97723">
        <ele>3.5</ele>
        <time>2020-06-22T21:52:14Z</time>
      </trkpt>
      <trkpt lat="50.98614" lon="1.97729">
        <ele>3.5</ele>
        <time>2020-06-22T21:52:15Z</time>
      </trkpt>
      <trkpt lat="50.98615" lon="1.97734">
        <ele>3.5</ele>
        <time>2020-06-22T21:52:16Z</time>
      </trkpt>
      <trkpt lat="50.98615" lon="1.97739">
        <ele>3.5</ele>
        <time>2020-06-22T21:52:17Z</time>
      </trkpt>
      <trkpt lat="50.98616" lon="1.97744">
        <ele>3.4</ele>
        <time>2020-06-22T21:52:18Z</time>
      </trkpt>
      <trkpt lat="50.98617" lon="1.97751">
        <ele>3.4</ele>
        <time>2020-06-22T21:52:19Z</time>
      </trkpt>
      <trkpt lat="50.98619" lon="1.97757">
        <ele>3.4</ele>
        <time>2020-06-22T21:52:20Z</time>
      </trkpt>
      <trkpt lat="50.98621" lon="1.97763">
        <ele>3.4</ele>
        <time>2020-06-22T21:52:21Z</time>
      </trkpt>
      <trkpt lat="50.98623" lon="1.97769">
        <ele>3.3</ele>
        <time>2020-06-22T21:52:22Z</time>
      </trkpt>
      <trkpt lat="50.98624" lon="1.97774">
        <ele>3.3</ele>
        <time>2020-06-22T21:52:23Z</time>
      </trkpt>
      <trkpt lat="50.98627" lon="1.97779">
        <ele>3.3</ele>
        <time>2020-06-22T21:52:24Z</time>
      </trkpt>
      <trkpt lat="50.98628" lon="1.97785">
        <ele>3.3</ele>
        <time>2020-06-22T21:52:25Z</time>
      </trkpt>
      <trkpt lat="50.9863" lon="1.97789">
        <ele>3.2</ele>
        <time>2020-06-22T21:52:26Z</time>
      </trkpt>
      <trkpt lat="50.98632" lon="1.97797">
        <ele>3.2</ele>
        <time>2020-06-22T21:52:27Z</time>
      </trkpt>
      <trkpt lat="50.98633" lon="1.97803">
        <ele>3.2</ele>
        <time>2020-06-22T21:52:28Z</time>
      </trkpt>
      <trkpt lat="50.98635" lon="1.97808">
        <ele>3.2</ele>
        <time>2020-06-22T21:52:29Z</time>
      </trkpt>
      <trkpt lat="50.98636" lon="1.97814">
        <ele>3.2</ele>
        <time>2020-06-22T21:52:30Z</time>
      </trkpt>
      <trkpt lat="50.98637" lon="1.97819">
        <ele>3.3</ele>
        <time>2020-06-22T21:52:31Z</time>
      </trkpt>
      <trkpt lat="50.98638" lon="1.97824">
        <ele>3.3</ele>
        <time>2020-06-22T21:52:32Z</time>
      </trkpt>
      <trkpt lat="50.98639" lon="1.97829">
        <ele>3.3</ele>
        <time>2020-06-22T21:52:33Z</time>
      </trkpt>
      <trkpt lat="50.98639" lon="1.97834">
        <ele>3.3</ele>
        <time>2020-06-22T21:52:34Z</time>
      </trkpt>
      <trkpt lat="50.98641" lon="1.97842">
        <ele>3.3</ele>
        <time>2020-06-22T21:52:35Z</time>
      </trkpt>
      <trkpt lat="50.98642" lon="1.97848">
        <ele>3.3</ele>
        <time>2020-06-22T21:52:36Z</time>
      </trkpt>
      <trkpt lat="50.98643" lon="1.97854">
        <ele>3.3</ele>
        <time>2020-06-22T21:52:37Z</time>
      </trkpt>
      <trkpt lat="50.98645" lon="1.9786">
        <ele>3.3</ele>
        <time>2020-06-22T21:52:38Z</time>
      </trkpt>
      <trkpt lat="50.98646" lon="1.97867">
        <ele>3.3</ele>
        <time>2020-06-22T21:52:39Z</time>
      </trkpt>
      <trkpt lat="50.98647" lon="1.97872">
        <ele>3.3</ele>
        <time>2020-06-22T21:52:40Z</time>
      </trkpt>
      <trkpt lat="50.98648" lon="1.97879">
        <ele>3.3</ele>
        <time>2020-06-22T21:52:41Z</time>
      </trkpt>
      <trkpt lat="50.98649" lon="1.97883">
        <ele>3.3</ele>
        <time>2020-06-22T21:52:42Z</time>
      </trkpt>
      <trkpt lat="50.98651" lon="1.97889">
        <ele>3.3</ele>
        <time>2020-06-22T21:52:43Z</time>
      </trkpt>
      <trkpt lat="50.98652" lon="1.97894">
        <ele>3.3</ele>
        <time>2020-06-22T21:52:44Z</time>
      </trkpt>
      <trkpt lat="50.98654" lon="1.97901">
        <ele>3.3</ele>
        <time>2020-06-22T21:52:45Z</time>
      </trkpt>
      <trkpt lat="50.98655" lon="1.97906">
        <ele>3.3</ele>
        <time>2020-06-22T21:52:46Z</time>
      </trkpt>
      <trkpt lat="50.98656" lon="1.97913">
        <ele>3.3</ele>
        <time>2020-06-22T21:52:47Z</time>
      </trkpt>
      <trkpt lat="50.98658" lon="1.97919">
        <ele>3.3</ele>
        <time>2020-06-22T21:52:48Z</time>
      </trkpt>
      <trkpt lat="50.9866" lon="1.97926">
        <ele>3.3</ele>
        <time>2020-06-22T21:52:49Z</time>
      </trkpt>
      <trkpt lat="50.98662" lon="1.97934">
        <ele>3.3</ele>
        <time>2020-06-22T21:52:50Z</time>
      </trkpt>
      <trkpt lat="50.98663" lon="1.9794">
        <ele>3.3</ele>
        <time>2020-06-22T21:52:51Z</time>
      </trkpt>
      <trkpt lat="50.98664" lon="1.97946">
        <ele>3.3</ele>
        <time>2020-06-22T21:52:52Z</time>
      </trkpt>
      <trkpt lat="50.98665" lon="1.97952">
        <ele>3.3</ele>
        <time>2020-06-22T21:52:53Z</time>
      </trkpt>
      <trkpt lat="50.98667" lon="1.97958">
        <ele>3.3</ele>
        <time>2020-06-22T21:52:54Z</time>
      </trkpt>
      <trkpt lat="50.98668" lon="1.97964">
        <ele>3.4</ele>
        <time>2020-06-22T21:52:55Z</time>
      </trkpt>
      <trkpt lat="50.9867" lon="1.9797">
        <ele>3.4</ele>
        <time>2020-06-22T21:52:56Z</time>
      </trkpt>
      <trkpt lat="50.98671" lon="1.97972">
        <ele>3.3</ele>
        <time>2020-06-22T21:52:57Z</time>
      </trkpt>
      <trkpt lat="50.98672" lon="1.97978">
        <ele>3.3</ele>
        <time>2020-06-22T21:52:58Z</time>
      </trkpt>
      <trkpt lat="50.98673" lon="1.97983">
        <ele>3.3</ele>
        <time>2020-06-22T21:52:59Z</time>
      </trkpt>
      <trkpt lat="50.98675" lon="1.97988">
        <ele>3.3</ele>
        <time>2020-06-22T21:53:00Z</time>
      </trkpt>
      <trkpt lat="50.98676" lon="1.97992">
        <ele>3.3</ele>
        <time>2020-06-22T21:53:01Z</time>
      </trkpt>
      <trkpt lat="50.98678" lon="1.97997">
        <ele>3.3</ele>
        <time>2020-06-22T21:53:02Z</time>
      </trkpt>
      <trkpt lat="50.9868" lon="1.98004">
        <ele>3.3</ele>
        <time>2020-06-22T21:53:03Z</time>
      </trkpt>
      <trkpt lat="50.98682" lon="1.98011">
        <ele>3.3</ele>
        <time>2020-06-22T21:53:04Z</time>
      </trkpt>
      <trkpt lat="50.98684" lon="1.98017">
        <ele>3.2</ele>
        <time>2020-06-22T21:53:05Z</time>
      </trkpt>
      <trkpt lat="50.98686" lon="1.98023">
        <ele>3.2</ele>
        <time>2020-06-22T21:53:06Z</time>
      </trkpt>
      <trkpt lat="50.98688" lon="1.98029">
        <ele>3.2</ele>
        <time>2020-06-22T21:53:07Z</time>
      </trkpt>
      <trkpt lat="50.98691" lon="1.98036">
        <ele>3.2</ele>
        <time>2020-06-22T21:53:08Z</time>
      </trkpt>
      <trkpt lat="50.98693" lon="1.98043">
        <ele>3.2</ele>
        <time>2020-06-22T21:53:09Z</time>
      </trkpt>
      <trkpt lat="50.98695" lon="1.98049">
        <ele>3.2</ele>
        <time>2020-06-22T21:53:10Z</time>
      </trkpt>
      <trkpt lat="50.98698" lon="1.98057">
        <ele>3.2</ele>
        <time>2020-06-22T21:53:11Z</time>
      </trkpt>
      <trkpt lat="50.98701" lon="1.98064">
        <ele>3.2</ele>
        <time>2020-06-22T21:53:12Z</time>
      </trkpt>
      <trkpt lat="50.98704" lon="1.9807">
        <ele>3.2</ele>
        <time>2020-06-22T21:53:13Z</time>
      </trkpt>
      <trkpt lat="50.98708" lon="1.98077">
        <ele>3.2</ele>
        <time>2020-06-22T21:53:14Z</time>
      </trkpt>
      <trkpt lat="50.98712" lon="1.98082">
        <ele>3.2</ele>
        <time>2020-06-22T21:53:15Z</time>
      </trkpt>
      <trkpt lat="50.98716" lon="1.98087">
        <ele>3.2</ele>
        <time>2020-06-22T21:53:16Z</time>
      </trkpt>
      <trkpt lat="50.98718" lon="1.98093">
        <ele>3.2</ele>
        <time>2020-06-22T21:53:17Z</time>
      </trkpt>
      <trkpt lat="50.98723" lon="1.981">
        <ele>3.2</ele>
        <time>2020-06-22T21:53:18Z</time>
      </trkpt>
      <trkpt lat="50.98726" lon="1.98106">
        <ele>3.2</ele>
        <time>2020-06-22T21:53:19Z</time>
      </trkpt>
      <trkpt lat="50.98731" lon="1.98112">
        <ele>3.2</ele>
        <time>2020-06-22T21:53:20Z</time>
      </trkpt>
      <trkpt lat="50.98735" lon="1.98118">
        <ele>3.2</ele>
        <time>2020-06-22T21:53:21Z</time>
      </trkpt>
      <trkpt lat="50.98739" lon="1.98123">
        <ele>3.2</ele>
        <time>2020-06-22T21:53:22Z</time>
      </trkpt>
      <trkpt lat="50.98743" lon="1.9813">
        <ele>3.2</ele>
        <time>2020-06-22T21:53:23Z</time>
      </trkpt>
      <trkpt lat="50.98748" lon="1.98137">
        <ele>3.2</ele>
        <time>2020-06-22T21:53:24Z</time>
      </trkpt>
      <trkpt lat="50.98752" lon="1.98144">
        <ele>3.2</ele>
        <time>2020-06-22T21:53:25Z</time>
      </trkpt>
      <trkpt lat="50.98756" lon="1.98151">
        <ele>3.2</ele>
        <time>2020-06-22T21:53:26Z</time>
      </trkpt>
      <trkpt lat="50.9876" lon="1.98158">
        <ele>3.2</ele>
        <time>2020-06-22T21:53:27Z</time>
      </trkpt>
      <trkpt lat="50.98765" lon="1.98164">
        <ele>3.2</ele>
        <time>2020-06-22T21:53:28Z</time>
      </trkpt>
      <trkpt lat="50.98769" lon="1.98171">
        <ele>3.2</ele>
        <time>2020-06-22T21:53:29Z</time>
      </trkpt>
      <trkpt lat="50.98773" lon="1.98178">
        <ele>3.2</ele>
        <time>2020-06-22T21:53:30Z</time>
      </trkpt>
      <trkpt lat="50.98776" lon="1.98185">
        <ele>3.2</ele>
        <time>2020-06-22T21:53:31Z</time>
      </trkpt>
      <trkpt lat="50.9878" lon="1.98192">
        <ele>3.2</ele>
        <time>2020-06-22T21:53:32Z</time>
      </trkpt>
      <trkpt lat="50.98784" lon="1.98198">
        <ele>3.2</ele>
        <time>2020-06-22T21:53:33Z</time>
      </trkpt>
      <trkpt lat="50.98786" lon="1.98205">
        <ele>3.2</ele>
        <time>2020-06-22T21:53:34Z</time>
      </trkpt>
      <trkpt lat="50.98788" lon="1.98213">
        <ele>3.2</ele>
        <time>2020-06-22T21:53:35Z</time>
      </trkpt>
      <trkpt lat="50.98791" lon="1.9822">
        <ele>3.2</ele>
        <time>2020-06-22T21:53:36Z</time>
      </trkpt>
      <trkpt lat="50.98794" lon="1.98227">
        <ele>3.2</ele>
        <time>2020-06-22T21:53:37Z</time>
      </trkpt>
      <trkpt lat="50.98798" lon="1.98233">
        <ele>3.2</ele>
        <time>2020-06-22T21:53:38Z</time>
      </trkpt>
      <trkpt lat="50.98801" lon="1.98238">
        <ele>3.2</ele>
        <time>2020-06-22T21:53:39Z</time>
      </trkpt>
      <trkpt lat="50.98805" lon="1.98245">
        <ele>3.2</ele>
        <time>2020-06-22T21:53:40Z</time>
      </trkpt>
      <trkpt lat="50.98808" lon="1.98252">
        <ele>3.2</ele>
        <time>2020-06-22T21:53:41Z</time>
      </trkpt>
      <trkpt lat="50.98812" lon="1.9826">
        <ele>3.2</ele>
        <time>2020-06-22T21:53:42Z</time>
      </trkpt>
      <trkpt lat="50.98815" lon="1.98268">
        <ele>3.2</ele>
        <time>2020-06-22T21:53:43Z</time>
      </trkpt>
      <trkpt lat="50.98818" lon="1.98276">
        <ele>3.2</ele>
        <time>2020-06-22T21:53:44Z</time>
      </trkpt>
      <trkpt lat="50.98821" lon="1.98283">
        <ele>3.2</ele>
        <time>2020-06-22T21:53:45Z</time>
      </trkpt>
      <trkpt lat="50.98823" lon="1.98291">
        <ele>3.2</ele>
        <time>2020-06-22T21:53:46Z</time>
      </trkpt>
      <trkpt lat="50.98826" lon="1.98299">
        <ele>3.3</ele>
        <time>2020-06-22T21:53:47Z</time>
      </trkpt>
      <trkpt lat="50.9883" lon="1.98306">
        <ele>3.3</ele>
        <time>2020-06-22T21:53:48Z</time>
      </trkpt>
      <trkpt lat="50.98834" lon="1.98312">
        <ele>3.3</ele>
        <time>2020-06-22T21:53:49Z</time>
      </trkpt>
      <trkpt lat="50.98837" lon="1.9832">
        <ele>3.3</ele>
        <time>2020-06-22T21:53:50Z</time>
      </trkpt>
      <trkpt lat="50.98841" lon="1.98327">
        <ele>3.3</ele>
        <time>2020-06-22T21:53:51Z</time>
      </trkpt>
      <trkpt lat="50.98844" lon="1.98335">
        <ele>3.3</ele>
        <time>2020-06-22T21:53:52Z</time>
      </trkpt>
      <trkpt lat="50.98847" lon="1.98343">
        <ele>3.3</ele>
        <time>2020-06-22T21:53:53Z</time>
      </trkpt>
      <trkpt lat="50.9885" lon="1.98351">
        <ele>3.2</ele>
        <time>2020-06-22T21:53:54Z</time>
      </trkpt>
      <trkpt lat="50.98853" lon="1.98359">
        <ele>3.2</ele>
        <time>2020-06-22T21:53:55Z</time>
      </trkpt>
      <trkpt lat="50.98856" lon="1.98367">
        <ele>3.2</ele>
        <time>2020-06-22T21:53:56Z</time>
      </trkpt>
      <trkpt lat="50.9886" lon="1.98374">
        <ele>3.2</ele>
        <time>2020-06-22T21:53:57Z</time>
      </trkpt>
      <trkpt lat="50.98863" lon="1.98383">
        <ele>3.2</ele>
        <time>2020-06-22T21:53:58Z</time>
      </trkpt>
      <trkpt lat="50.98867" lon="1.98392">
        <ele>3.2</ele>
        <time>2020-06-22T21:53:59Z</time>
      </trkpt>
      <trkpt lat="50.98869" lon="1.984">
        <ele>3.2</ele>
        <time>2020-06-22T21:54:00Z</time>
      </trkpt>
      <trkpt lat="50.98872" lon="1.98409">
        <ele>3.2</ele>
        <time>2020-06-22T21:54:01Z</time>
      </trkpt>
      <trkpt lat="50.98875" lon="1.98418">
        <ele>3.2</ele>
        <time>2020-06-22T21:54:02Z</time>
      </trkpt>
      <trkpt lat="50.98878" lon="1.98427">
        <ele>3.2</ele>
        <time>2020-06-22T21:54:03Z</time>
      </trkpt>
      <trkpt lat="50.98881" lon="1.98436">
        <ele>3.2</ele>
        <time>2020-06-22T21:54:04Z</time>
      </trkpt>
      <trkpt lat="50.98884" lon="1.98444">
        <ele>3.2</ele>
        <time>2020-06-22T21:54:05Z</time>
      </trkpt>
      <trkpt lat="50.98887" lon="1.98454">
        <ele>3.2</ele>
        <time>2020-06-22T21:54:06Z</time>
      </trkpt>
      <trkpt lat="50.98889" lon="1.98463">
        <ele>3.2</ele>
        <time>2020-06-22T21:54:07Z</time>
      </trkpt>
      <trkpt lat="50.98891" lon="1.9847">
        <ele>3.2</ele>
        <time>2020-06-22T21:54:08Z</time>
      </trkpt>
      <trkpt lat="50.98893" lon="1.98478">
        <ele>3.2</ele>
        <time>2020-06-22T21:54:09Z</time>
      </trkpt>
      <trkpt lat="50.98896" lon="1.98485">
        <ele>3.2</ele>
        <time>2020-06-22T21:54:10Z</time>
      </trkpt>
      <trkpt lat="50.98897" lon="1.98491">
        <ele>3.2</ele>
        <time>2020-06-22T21:54:11Z</time>
      </trkpt>
      <trkpt lat="50.98899" lon="1.98499">
        <ele>3.2</ele>
        <time>2020-06-22T21:54:12Z</time>
      </trkpt>
      <trkpt lat="50.98902" lon="1.98509">
        <ele>3.2</ele>
        <time>2020-06-22T21:54:13Z</time>
      </trkpt>
      <trkpt lat="50.98904" lon="1.98517">
        <ele>3.2</ele>
        <time>2020-06-22T21:54:14Z</time>
      </trkpt>
      <trkpt lat="50.98906" lon="1.98527">
        <ele>3.3</ele>
        <time>2020-06-22T21:54:15Z</time>
      </trkpt>
      <trkpt lat="50.98908" lon="1.98538">
        <ele>3.3</ele>
        <time>2020-06-22T21:54:16Z</time>
      </trkpt>
      <trkpt lat="50.98911" lon="1.98548">
        <ele>3.3</ele>
        <time>2020-06-22T21:54:17Z</time>
      </trkpt>
      <trkpt lat="50.98914" lon="1.98556">
        <ele>3.3</ele>
        <time>2020-06-22T21:54:18Z</time>
      </trkpt>
      <trkpt lat="50.98916" lon="1.98564">
        <ele>3.3</ele>
        <time>2020-06-22T21:54:19Z</time>
      </trkpt>
      <trkpt lat="50.98918" lon="1.98573">
        <ele>3.3</ele>
        <time>2020-06-22T21:54:20Z</time>
      </trkpt>
      <trkpt lat="50.9892" lon="1.98583">
        <ele>3.3</ele>
        <time>2020-06-22T21:54:21Z</time>
      </trkpt>
      <trkpt lat="50.98923" lon="1.9859">
        <ele>3.3</ele>
        <time>2020-06-22T21:54:22Z</time>
      </trkpt>
      <trkpt lat="50.98924" lon="1.98598">
        <ele>3.3</ele>
        <time>2020-06-22T21:54:23Z</time>
      </trkpt>
      <trkpt lat="50.98926" lon="1.98607">
        <ele>3.3</ele>
        <time>2020-06-22T21:54:24Z</time>
      </trkpt>
      <trkpt lat="50.98928" lon="1.98614">
        <ele>3.3</ele>
        <time>2020-06-22T21:54:25Z</time>
      </trkpt>
      <trkpt lat="50.9893" lon="1.98623">
        <ele>3.3</ele>
        <time>2020-06-22T21:54:26Z</time>
      </trkpt>
      <trkpt lat="50.98931" lon="1.98631">
        <ele>3.3</ele>
        <time>2020-06-22T21:54:27Z</time>
      </trkpt>
      <trkpt lat="50.98934" lon="1.9864">
        <ele>3.3</ele>
        <time>2020-06-22T21:54:28Z</time>
      </trkpt>
      <trkpt lat="50.98935" lon="1.98651">
        <ele>3.3</ele>
        <time>2020-06-22T21:54:29Z</time>
      </trkpt>
      <trkpt lat="50.98938" lon="1.98661">
        <ele>3.2</ele>
        <time>2020-06-22T21:54:30Z</time>
      </trkpt>
      <trkpt lat="50.9894" lon="1.9867">
        <ele>3.2</ele>
        <time>2020-06-22T21:54:31Z</time>
      </trkpt>
      <trkpt lat="50.98942" lon="1.98679">
        <ele>3.2</ele>
        <time>2020-06-22T21:54:32Z</time>
      </trkpt>
      <trkpt lat="50.98943" lon="1.98688">
        <ele>3.2</ele>
        <time>2020-06-22T21:54:33Z</time>
      </trkpt>
      <trkpt lat="50.98945" lon="1.98697">
        <ele>3.2</ele>
        <time>2020-06-22T21:54:34Z</time>
      </trkpt>
      <trkpt lat="50.98945" lon="1.98706">
        <ele>3.2</ele>
        <time>2020-06-22T21:54:35Z</time>
      </trkpt>
      <trkpt lat="50.98947" lon="1.98716">
        <ele>3.3</ele>
        <time>2020-06-22T21:54:36Z</time>
      </trkpt>
      <trkpt lat="50.98948" lon="1.98726">
        <ele>3.3</ele>
        <time>2020-06-22T21:54:37Z</time>
      </trkpt>
      <trkpt lat="50.98949" lon="1.98736">
        <ele>3.3</ele>
        <time>2020-06-22T21:54:38Z</time>
      </trkpt>
      <trkpt lat="50.9895" lon="1.98745">
        <ele>3.3</ele>
        <time>2020-06-22T21:54:39Z</time>
      </trkpt>
      <trkpt lat="50.98952" lon="1.98753">
        <ele>3.4</ele>
        <time>2020-06-22T21:54:40Z</time>
      </trkpt>
      <trkpt lat="50.98953" lon="1.98762">
        <ele>3.4</ele>
        <time>2020-06-22T21:54:41Z</time>
      </trkpt>
      <trkpt lat="50.98955" lon="1.98771">
        <ele>3.4</ele>
        <time>2020-06-22T21:54:42Z</time>
      </trkpt>
      <trkpt lat="50.98956" lon="1.98781">
        <ele>3.3</ele>
        <time>2020-06-22T21:54:43Z</time>
      </trkpt>
      <trkpt lat="50.98957" lon="1.98791">
        <ele>3.3</ele>
        <time>2020-06-22T21:54:44Z</time>
      </trkpt>
      <trkpt lat="50.98958" lon="1.98801">
        <ele>3.3</ele>
        <time>2020-06-22T21:54:45Z</time>
      </trkpt>
      <trkpt lat="50.9896" lon="1.9881">
        <ele>3.3</ele>
        <time>2020-06-22T21:54:46Z</time>
      </trkpt>
      <trkpt lat="50.98961" lon="1.9882">
        <ele>3.3</ele>
        <time>2020-06-22T21:54:47Z</time>
      </trkpt>
      <trkpt lat="50.98962" lon="1.98828">
        <ele>3.3</ele>
        <time>2020-06-22T21:54:48Z</time>
      </trkpt>
      <trkpt lat="50.98963" lon="1.98838">
        <ele>3.4</ele>
        <time>2020-06-22T21:54:49Z</time>
      </trkpt>
      <trkpt lat="50.98963" lon="1.98848">
        <ele>3.4</ele>
        <time>2020-06-22T21:54:50Z</time>
      </trkpt>
      <trkpt lat="50.98965" lon="1.9886">
        <ele>3.4</ele>
        <time>2020-06-22T21:54:51Z</time>
      </trkpt>
      <trkpt lat="50.98965" lon="1.98871">
        <ele>3.4</ele>
        <time>2020-06-22T21:54:52Z</time>
      </trkpt>
      <trkpt lat="50.98966" lon="1.98881">
        <ele>3.4</ele>
        <time>2020-06-22T21:54:53Z</time>
      </trkpt>
      <trkpt lat="50.98966" lon="1.98891">
        <ele>3.4</ele>
        <time>2020-06-22T21:54:54Z</time>
      </trkpt>
      <trkpt lat="50.98966" lon="1.98901">
        <ele>3.4</ele>
        <time>2020-06-22T21:54:55Z</time>
      </trkpt>
      <trkpt lat="50.98967" lon="1.9891">
        <ele>3.4</ele>
        <time>2020-06-22T21:54:56Z</time>
      </trkpt>
      <trkpt lat="50.98967" lon="1.98921">
        <ele>3.4</ele>
        <time>2020-06-22T21:54:57Z</time>
      </trkpt>
      <trkpt lat="50.98967" lon="1.98932">
        <ele>3.4</ele>
        <time>2020-06-22T21:54:58Z</time>
      </trkpt>
      <trkpt lat="50.98968" lon="1.9894">
        <ele>3.4</ele>
        <time>2020-06-22T21:54:59Z</time>
      </trkpt>
      <trkpt lat="50.98967" lon="1.9895">
        <ele>3.3</ele>
        <time>2020-06-22T21:55:00Z</time>
      </trkpt>
      <trkpt lat="50.98968" lon="1.98961">
        <ele>3.3</ele>
        <time>2020-06-22T21:55:01Z</time>
      </trkpt>
      <trkpt lat="50.98968" lon="1.9897">
        <ele>3.3</ele>
        <time>2020-06-22T21:55:02Z</time>
      </trkpt>
      <trkpt lat="50.98969" lon="1.98978">
        <ele>3.3</ele>
        <time>2020-06-22T21:55:03Z</time>
      </trkpt>
      <trkpt lat="50.98969" lon="1.98988">
        <ele>3.3</ele>
        <time>2020-06-22T21:55:04Z</time>
      </trkpt>
      <trkpt lat="50.9897" lon="1.98998">
        <ele>3.3</ele>
        <time>2020-06-22T21:55:05Z</time>
      </trkpt>
      <trkpt lat="50.9897" lon="1.99008">
        <ele>3.3</ele>
        <time>2020-06-22T21:55:06Z</time>
      </trkpt>
      <trkpt lat="50.98971" lon="1.99018">
        <ele>3.3</ele>
        <time>2020-06-22T21:55:07Z</time>
      </trkpt>
      <trkpt lat="50.98972" lon="1.99029">
        <ele>3.3</ele>
        <time>2020-06-22T21:55:08Z</time>
      </trkpt>
      <trkpt lat="50.98972" lon="1.99038">
        <ele>3.3</ele>
        <time>2020-06-22T21:55:09Z</time>
      </trkpt>
      <trkpt lat="50.98973" lon="1.99048">
        <ele>3.3</ele>
        <time>2020-06-22T21:55:10Z</time>
      </trkpt>
      <trkpt lat="50.98973" lon="1.99056">
        <ele>3.3</ele>
        <time>2020-06-22T21:55:11Z</time>
      </trkpt>
      <trkpt lat="50.98974" lon="1.99065">
        <ele>3.3</ele>
        <time>2020-06-22T21:55:12Z</time>
      </trkpt>
      <trkpt lat="50.98975" lon="1.99075">
        <ele>3.3</ele>
        <time>2020-06-22T21:55:13Z</time>
      </trkpt>
      <trkpt lat="50.98977" lon="1.99082">
        <ele>3.3</ele>
        <time>2020-06-22T21:55:14Z</time>
      </trkpt>
      <trkpt lat="50.98978" lon="1.99093">
        <ele>3.3</ele>
        <time>2020-06-22T21:55:15Z</time>
      </trkpt>
      <trkpt lat="50.98979" lon="1.99102">
        <ele>3.3</ele>
        <time>2020-06-22T21:55:16Z</time>
      </trkpt>
      <trkpt lat="50.98981" lon="1.99111">
        <ele>3.3</ele>
        <time>2020-06-22T21:55:17Z</time>
      </trkpt>
      <trkpt lat="50.98983" lon="1.99119">
        <ele>3.3</ele>
        <time>2020-06-22T21:55:18Z</time>
      </trkpt>
      <trkpt lat="50.98986" lon="1.99127">
        <ele>3.2</ele>
        <time>2020-06-22T21:55:19Z</time>
      </trkpt>
      <trkpt lat="50.98989" lon="1.99136">
        <ele>3.2</ele>
        <time>2020-06-22T21:55:20Z</time>
      </trkpt>
      <trkpt lat="50.98992" lon="1.99145">
        <ele>3.3</ele>
        <time>2020-06-22T21:55:21Z</time>
      </trkpt>
      <trkpt lat="50.98994" lon="1.99152">
        <ele>3.3</ele>
        <time>2020-06-22T21:55:22Z</time>
      </trkpt>
      <trkpt lat="50.98997" lon="1.99162">
        <ele>3.3</ele>
        <time>2020-06-22T21:55:23Z</time>
      </trkpt>
      <trkpt lat="50.98999" lon="1.99171">
        <ele>3.3</ele>
        <time>2020-06-22T21:55:24Z</time>
      </trkpt>
      <trkpt lat="50.99001" lon="1.99178">
        <ele>3.3</ele>
        <time>2020-06-22T21:55:25Z</time>
      </trkpt>
      <trkpt lat="50.99003" lon="1.99187">
        <ele>3.3</ele>
        <time>2020-06-22T21:55:26Z</time>
      </trkpt>
      <trkpt lat="50.99005" lon="1.99195">
        <ele>3.3</ele>
        <time>2020-06-22T21:55:27Z</time>
      </trkpt>
      <trkpt lat="50.99007" lon="1.99204">
        <ele>3.2</ele>
        <time>2020-06-22T21:55:28Z</time>
      </trkpt>
      <trkpt lat="50.9901" lon="1.99213">
        <ele>3.2</ele>
        <time>2020-06-22T21:55:29Z</time>
      </trkpt>
      <trkpt lat="50.99012" lon="1.99223">
        <ele>3.2</ele>
        <time>2020-06-22T21:55:30Z</time>
      </trkpt>
      <trkpt lat="50.99014" lon="1.99232">
        <ele>3.2</ele>
        <time>2020-06-22T21:55:31Z</time>
      </trkpt>
      <trkpt lat="50.99016" lon="1.99241">
        <ele>3.2</ele>
        <time>2020-06-22T21:55:32Z</time>
      </trkpt>
      <trkpt lat="50.99019" lon="1.9925">
        <ele>3.2</ele>
        <time>2020-06-22T21:55:33Z</time>
      </trkpt>
      <trkpt lat="50.99022" lon="1.99258">
        <ele>3.2</ele>
        <time>2020-06-22T21:55:34Z</time>
      </trkpt>
      <trkpt lat="50.99024" lon="1.99268">
        <ele>3.2</ele>
        <time>2020-06-22T21:55:35Z</time>
      </trkpt>
      <trkpt lat="50.99027" lon="1.99275">
        <ele>3.2</ele>
        <time>2020-06-22T21:55:36Z</time>
      </trkpt>
      <trkpt lat="50.99029" lon="1.99283">
        <ele>3.2</ele>
        <time>2020-06-22T21:55:37Z</time>
      </trkpt>
      <trkpt lat="50.99032" lon="1.99292">
        <ele>3.2</ele>
        <time>2020-06-22T21:55:38Z</time>
      </trkpt>
      <trkpt lat="50.99035" lon="1.993">
        <ele>3.2</ele>
        <time>2020-06-22T21:55:39Z</time>
      </trkpt>
      <trkpt lat="50.99038" lon="1.99312">
        <ele>3.2</ele>
        <time>2020-06-22T21:55:40Z</time>
      </trkpt>
      <trkpt lat="50.99042" lon="1.99321">
        <ele>3.1</ele>
        <time>2020-06-22T21:55:41Z</time>
      </trkpt>
      <trkpt lat="50.99045" lon="1.99329">
        <ele>3.1</ele>
        <time>2020-06-22T21:55:42Z</time>
      </trkpt>
      <trkpt lat="50.99049" lon="1.99338">
        <ele>3.1</ele>
        <time>2020-06-22T21:55:43Z</time>
      </trkpt>
      <trkpt lat="50.99052" lon="1.99347">
        <ele>3.1</ele>
        <time>2020-06-22T21:55:44Z</time>
      </trkpt>
      <trkpt lat="50.99054" lon="1.99354">
        <ele>3.2</ele>
        <time>2020-06-22T21:55:45Z</time>
      </trkpt>
      <trkpt lat="50.99055" lon="1.99361">
        <ele>3.2</ele>
        <time>2020-06-22T21:55:46Z</time>
      </trkpt>
      <trkpt lat="50.99057" lon="1.99369">
        <ele>3.2</ele>
        <time>2020-06-22T21:55:47Z</time>
      </trkpt>
      <trkpt lat="50.99058" lon="1.99378">
        <ele>3.2</ele>
        <time>2020-06-22T21:55:48Z</time>
      </trkpt>
      <trkpt lat="50.99057" lon="1.99385">
        <ele>3.3</ele>
        <time>2020-06-22T21:55:49Z</time>
      </trkpt>
      <trkpt lat="50.99057" lon="1.99393">
        <ele>3.3</ele>
        <time>2020-06-22T21:55:50Z</time>
      </trkpt>
      <trkpt lat="50.99057" lon="1.99402">
        <ele>3.4</ele>
        <time>2020-06-22T21:55:51Z</time>
      </trkpt>
      <trkpt lat="50.99057" lon="1.99411">
        <ele>3.4</ele>
        <time>2020-06-22T21:55:52Z</time>
      </trkpt>
      <trkpt lat="50.99057" lon="1.99418">
        <ele>3.5</ele>
        <time>2020-06-22T21:55:53Z</time>
      </trkpt>
      <trkpt lat="50.99057" lon="1.99426">
        <ele>3.5</ele>
        <time>2020-06-22T21:55:54Z</time>
      </trkpt>
      <trkpt lat="50.99057" lon="1.99432">
        <ele>3.5</ele>
        <time>2020-06-22T21:55:55Z</time>
      </trkpt>
      <trkpt lat="50.99058" lon="1.9944">
        <ele>3.6</ele>
        <time>2020-06-22T21:55:56Z</time>
      </trkpt>
      <trkpt lat="50.99059" lon="1.9945">
        <ele>3.7</ele>
        <time>2020-06-22T21:55:57Z</time>
      </trkpt>
      <trkpt lat="50.9906" lon="1.99459">
        <ele>3.7</ele>
        <time>2020-06-22T21:55:58Z</time>
      </trkpt>
      <trkpt lat="50.99061" lon="1.99468">
        <ele>3.8</ele>
        <time>2020-06-22T21:55:59Z</time>
      </trkpt>
      <trkpt lat="50.99062" lon="1.99476">
        <ele>3.8</ele>
        <time>2020-06-22T21:56:00Z</time>
      </trkpt>
      <trkpt lat="50.99063" lon="1.99484">
        <ele>3.8</ele>
        <time>2020-06-22T21:56:01Z</time>
      </trkpt>
      <trkpt lat="50.99064" lon="1.99489">
        <ele>3.8</ele>
        <time>2020-06-22T21:56:02Z</time>
      </trkpt>
      <trkpt lat="50.99065" lon="1.99499">
        <ele>3.8</ele>
        <time>2020-06-22T21:56:03Z</time>
      </trkpt>
      <trkpt lat="50.99066" lon="1.9951">
        <ele>3.8</ele>
        <time>2020-06-22T21:56:04Z</time>
      </trkpt>
      <trkpt lat="50.99067" lon="1.99518">
        <ele>3.9</ele>
        <time>2020-06-22T21:56:05Z</time>
      </trkpt>
      <trkpt lat="50.99069" lon="1.99525">
        <ele>3.9</ele>
        <time>2020-06-22T21:56:06Z</time>
      </trkpt>
      <trkpt lat="50.99068" lon="1.99531">
        <ele>3.9</ele>
        <time>2020-06-22T21:56:07Z</time>
      </trkpt>
      <trkpt lat="50.99068" lon="1.99538">
        <ele>3.9</ele>
        <time>2020-06-22T21:56:08Z</time>
      </trkpt>
      <trkpt lat="50.9907" lon="1.99548">
        <ele>3.9</ele>
        <time>2020-06-22T21:56:09Z</time>
      </trkpt>
      <trkpt lat="50.99071" lon="1.99556">
        <ele>3.9</ele>
        <time>2020-06-22T21:56:10Z</time>
      </trkpt>
      <trkpt lat="50.99072" lon="1.99564">
        <ele>3.9</ele>
        <time>2020-06-22T21:56:11Z</time>
      </trkpt>
      <trkpt lat="50.99074" lon="1.99572">
        <ele>3.9</ele>
        <time>2020-06-22T21:56:12Z</time>
      </trkpt>
      <trkpt lat="50.99076" lon="1.99579">
        <ele>3.9</ele>
        <time>2020-06-22T21:56:13Z</time>
      </trkpt>
      <trkpt lat="50.99078" lon="1.99586">
        <ele>3.9</ele>
        <time>2020-06-22T21:56:14Z</time>
      </trkpt>
      <trkpt lat="50.99081" lon="1.99593">
        <ele>3.8</ele>
        <time>2020-06-22T21:56:15Z</time>
      </trkpt>
      <trkpt lat="50.99082" lon="1.99599">
        <ele>3.8</ele>
        <time>2020-06-22T21:56:16Z</time>
      </trkpt>
      <trkpt lat="50.99084" lon="1.99607">
        <ele>3.8</ele>
        <time>2020-06-22T21:56:17Z</time>
      </trkpt>
      <trkpt lat="50.99087" lon="1.99612">
        <ele>3.8</ele>
        <time>2020-06-22T21:56:18Z</time>
      </trkpt>
      <trkpt lat="50.9909" lon="1.9962">
        <ele>3.7</ele>
        <time>2020-06-22T21:56:19Z</time>
      </trkpt>
      <trkpt lat="50.99092" lon="1.99626">
        <ele>3.7</ele>
        <time>2020-06-22T21:56:20Z</time>
      </trkpt>
      <trkpt lat="50.99094" lon="1.99634">
        <ele>3.7</ele>
        <time>2020-06-22T21:56:21Z</time>
      </trkpt>
      <trkpt lat="50.99097" lon="1.99643">
        <ele>3.6</ele>
        <time>2020-06-22T21:56:22Z</time>
      </trkpt>
      <trkpt lat="50.99098" lon="1.99651">
        <ele>3.6</ele>
        <time>2020-06-22T21:56:23Z</time>
      </trkpt>
      <trkpt lat="50.99101" lon="1.9966">
        <ele>3.5</ele>
        <time>2020-06-22T21:56:24Z</time>
      </trkpt>
      <trkpt lat="50.99103" lon="1.99668">
        <ele>3.5</ele>
        <time>2020-06-22T21:56:25Z</time>
      </trkpt>
      <trkpt lat="50.99105" lon="1.99674">
        <ele>3.4</ele>
        <time>2020-06-22T21:56:26Z</time>
      </trkpt>
      <trkpt lat="50.99107" lon="1.99679">
        <ele>3.4</ele>
        <time>2020-06-22T21:56:27Z</time>
      </trkpt>
      <trkpt lat="50.9911" lon="1.99689">
        <ele>3.4</ele>
        <time>2020-06-22T21:56:28Z</time>
      </trkpt>
      <trkpt lat="50.99112" lon="1.99699">
        <ele>3.4</ele>
        <time>2020-06-22T21:56:29Z</time>
      </trkpt>
      <trkpt lat="50.99115" lon="1.99707">
        <ele>3.4</ele>
        <time>2020-06-22T21:56:30Z</time>
      </trkpt>
      <trkpt lat="50.99117" lon="1.99716">
        <ele>3.4</ele>
        <time>2020-06-22T21:56:31Z</time>
      </trkpt>
      <trkpt lat="50.99118" lon="1.99726">
        <ele>3.4</ele>
        <time>2020-06-22T21:56:32Z</time>
      </trkpt>
      <trkpt lat="50.99121" lon="1.99736">
        <ele>3.3</ele>
        <time>2020-06-22T21:56:33Z</time>
      </trkpt>
      <trkpt lat="50.99123" lon="1.99745">
        <ele>3.3</ele>
        <time>2020-06-22T21:56:34Z</time>
      </trkpt>
      <trkpt lat="50.99125" lon="1.99752">
        <ele>3.3</ele>
        <time>2020-06-22T21:56:35Z</time>
      </trkpt>
      <trkpt lat="50.99127" lon="1.99759">
        <ele>3.3</ele>
        <time>2020-06-22T21:56:36Z</time>
      </trkpt>
      <trkpt lat="50.9913" lon="1.99769">
        <ele>3.3</ele>
        <time>2020-06-22T21:56:37Z</time>
      </trkpt>
      <trkpt lat="50.99132" lon="1.99776">
        <ele>3.3</ele>
        <time>2020-06-22T21:56:38Z</time>
      </trkpt>
      <trkpt lat="50.99134" lon="1.99784">
        <ele>3.3</ele>
        <time>2020-06-22T21:56:39Z</time>
      </trkpt>
      <trkpt lat="50.99136" lon="1.99793">
        <ele>3.3</ele>
        <time>2020-06-22T21:56:40Z</time>
      </trkpt>
      <trkpt lat="50.99139" lon="1.99801">
        <ele>3.3</ele>
        <time>2020-06-22T21:56:41Z</time>
      </trkpt>
      <trkpt lat="50.99142" lon="1.99809">
        <ele>3.3</ele>
        <time>2020-06-22T21:56:42Z</time>
      </trkpt>
      <trkpt lat="50.99144" lon="1.99818">
        <ele>3.3</ele>
        <time>2020-06-22T21:56:43Z</time>
      </trkpt>
      <trkpt lat="50.99146" lon="1.99826">
        <ele>3.3</ele>
        <time>2020-06-22T21:56:44Z</time>
      </trkpt>
      <trkpt lat="50.99149" lon="1.99833">
        <ele>3.3</ele>
        <time>2020-06-22T21:56:45Z</time>
      </trkpt>
      <trkpt lat="50.99152" lon="1.99841">
        <ele>3.3</ele>
        <time>2020-06-22T21:56:46Z</time>
      </trkpt>
      <trkpt lat="50.99154" lon="1.99848">
        <ele>3.3</ele>
        <time>2020-06-22T21:56:47Z</time>
      </trkpt>
      <trkpt lat="50.99155" lon="1.99854">
        <ele>3.3</ele>
        <time>2020-06-22T21:56:48Z</time>
      </trkpt>
      <trkpt lat="50.99157" lon="1.99859">
        <ele>3.3</ele>
        <time>2020-06-22T21:56:49Z</time>
      </trkpt>
      <trkpt lat="50.99159" lon="1.99868">
        <ele>3.3</ele>
        <time>2020-06-22T21:56:50Z</time>
      </trkpt>
      <trkpt lat="50.99161" lon="1.99874">
        <ele>3.3</ele>
        <time>2020-06-22T21:56:51Z</time>
      </trkpt>
      <trkpt lat="50.99163" lon="1.99881">
        <ele>3.3</ele>
        <time>2020-06-22T21:56:52Z</time>
      </trkpt>
      <trkpt lat="50.99165" lon="1.99887">
        <ele>3.3</ele>
        <time>2020-06-22T21:56:53Z</time>
      </trkpt>
      <trkpt lat="50.99166" lon="1.99893">
        <ele>3.3</ele>
        <time>2020-06-22T21:56:54Z</time>
      </trkpt>
      <trkpt lat="50.99169" lon="1.99899">
        <ele>3.3</ele>
        <time>2020-06-22T21:56:55Z</time>
      </trkpt>
      <trkpt lat="50.99171" lon="1.99907">
        <ele>3.3</ele>
        <time>2020-06-22T21:56:56Z</time>
      </trkpt>
      <trkpt lat="50.99174" lon="1.99914">
        <ele>3.3</ele>
        <time>2020-06-22T21:56:57Z</time>
      </trkpt>
      <trkpt lat="50.99176" lon="1.99921">
        <ele>3.3</ele>
        <time>2020-06-22T21:56:58Z</time>
      </trkpt>
      <trkpt lat="50.99179" lon="1.99929">
        <ele>3.4</ele>
        <time>2020-06-22T21:56:59Z</time>
      </trkpt>
      <trkpt lat="50.99181" lon="1.99938">
        <ele>3.4</ele>
        <time>2020-06-22T21:57:00Z</time>
      </trkpt>
      <trkpt lat="50.99183" lon="1.99946">
        <ele>3.4</ele>
        <time>2020-06-22T21:57:01Z</time>
      </trkpt>
      <trkpt lat="50.99184" lon="1.99953">
        <ele>3.4</ele>
        <time>2020-06-22T21:57:02Z</time>
      </trkpt>
      <trkpt lat="50.99186" lon="1.99961">
        <ele>3.4</ele>
        <time>2020-06-22T21:57:03Z</time>
      </trkpt>
      <trkpt lat="50.99188" lon="1.99968">
        <ele>3.5</ele>
        <time>2020-06-22T21:57:04Z</time>
      </trkpt>
      <trkpt lat="50.99189" lon="1.99977">
        <ele>3.5</ele>
        <time>2020-06-22T21:57:05Z</time>
      </trkpt>
      <trkpt lat="50.9919" lon="1.99985">
        <ele>3.5</ele>
        <time>2020-06-22T21:57:06Z</time>
      </trkpt>
      <trkpt lat="50.99191" lon="1.9999">
        <ele>3.5</ele>
        <time>2020-06-22T21:57:07Z</time>
      </trkpt>
      <trkpt lat="50.99192" lon="1.99998">
        <ele>3.5</ele>
        <time>2020-06-22T21:57:08Z</time>
      </trkpt>
      <trkpt lat="50.99193" lon="2.00004">
        <ele>3.5</ele>
        <time>2020-06-22T21:57:09Z</time>
      </trkpt>
      <trkpt lat="50.99194" lon="2.0001">
        <ele>3.5</ele>
        <time>2020-06-22T21:57:10Z</time>
      </trkpt>
      <trkpt lat="50.99194" lon="2.00014">
        <ele>3.5</ele>
        <time>2020-06-22T21:57:11Z</time>
      </trkpt>
      <trkpt lat="50.99194" lon="2.00016">
        <ele>3.6</ele>
        <time>2020-06-22T21:57:12Z</time>
      </trkpt>
      <trkpt lat="50.99195" lon="2.00021">
        <ele>3.6</ele>
        <time>2020-06-22T21:57:13Z</time>
      </trkpt>
      <trkpt lat="50.99194" lon="2.00025">
        <ele>3.6</ele>
        <time>2020-06-22T21:57:14Z</time>
      </trkpt>
      <trkpt lat="50.99192" lon="2.00029">
        <ele>3.6</ele>
        <time>2020-06-22T21:57:15Z</time>
      </trkpt>
      <trkpt lat="50.99189" lon="2.00032">
        <ele>3.7</ele>
        <time>2020-06-22T21:57:16Z</time>
      </trkpt>
      <trkpt lat="50.99186" lon="2.00035">
        <ele>3.7</ele>
        <time>2020-06-22T21:57:17Z</time>
      </trkpt>
      <trkpt lat="50.99184" lon="2.00039">
        <ele>3.7</ele>
        <time>2020-06-22T21:57:18Z</time>
      </trkpt>
      <trkpt lat="50.99182" lon="2.00042">
        <ele>3.7</ele>
        <time>2020-06-22T21:57:19Z</time>
      </trkpt>
      <trkpt lat="50.99179" lon="2.00046">
        <ele>3.7</ele>
        <time>2020-06-22T21:57:20Z</time>
      </trkpt>
      <trkpt lat="50.99176" lon="2.0005">
        <ele>3.7</ele>
        <time>2020-06-22T21:57:21Z</time>
      </trkpt>
      <trkpt lat="50.9917" lon="2.00058">
        <ele>3.7</ele>
        <time>2020-06-22T21:57:22Z</time>
      </trkpt>
      <trkpt lat="50.99164" lon="2.00063">
        <ele>3.7</ele>
        <time>2020-06-22T21:57:23Z</time>
      </trkpt>
      <trkpt lat="50.99161" lon="2.00068">
        <ele>3.7</ele>
        <time>2020-06-22T21:57:24Z</time>
      </trkpt>
      <trkpt lat="50.99159" lon="2.00074">
        <ele>3.7</ele>
        <time>2020-06-22T21:57:25Z</time>
      </trkpt>
      <trkpt lat="50.99155" lon="2.00078">
        <ele>3.7</ele>
        <time>2020-06-22T21:57:26Z</time>
      </trkpt>
      <trkpt lat="50.99152" lon="2.00082">
        <ele>3.7</ele>
        <time>2020-06-22T21:57:27Z</time>
      </trkpt>
      <trkpt lat="50.99148" lon="2.00084">
        <ele>3.7</ele>
        <time>2020-06-22T21:57:28Z</time>
      </trkpt>
      <trkpt lat="50.99145" lon="2.00087">
        <ele>3.7</ele>
        <time>2020-06-22T21:57:29Z</time>
      </trkpt>
      <trkpt lat="50.9914" lon="2.00088">
        <ele>3.7</ele>
        <time>2020-06-22T21:57:30Z</time>
      </trkpt>
      <trkpt lat="50.99135" lon="2.0009">
        <ele>3.6</ele>
        <time>2020-06-22T21:57:31Z</time>
      </trkpt>
      <trkpt lat="50.9913" lon="2.00092">
        <ele>3.6</ele>
        <time>2020-06-22T21:57:32Z</time>
      </trkpt>
      <trkpt lat="50.99124" lon="2.00095">
        <ele>3.6</ele>
        <time>2020-06-22T21:57:33Z</time>
      </trkpt>
      <trkpt lat="50.99121" lon="2.00099">
        <ele>3.6</ele>
        <time>2020-06-22T21:57:34Z</time>
      </trkpt>
      <trkpt lat="50.99118" lon="2.00103">
        <ele>3.6</ele>
        <time>2020-06-22T21:57:35Z</time>
      </trkpt>
      <trkpt lat="50.99117" lon="2.00109">
        <ele>3.5</ele>
        <time>2020-06-22T21:57:36Z</time>
      </trkpt>
      <trkpt lat="50.99117" lon="2.00116">
        <ele>3.5</ele>
        <time>2020-06-22T21:57:37Z</time>
      </trkpt>
      <trkpt lat="50.99116" lon="2.00121">
        <ele>3.5</ele>
        <time>2020-06-22T21:57:38Z</time>
      </trkpt>
      <trkpt lat="50.99117" lon="2.00127">
        <ele>3.5</ele>
        <time>2020-06-22T21:57:39Z</time>
      </trkpt>
      <trkpt lat="50.99118" lon="2.00132">
        <ele>3.5</ele>
        <time>2020-06-22T21:57:40Z</time>
      </trkpt>
      <trkpt lat="50.99118" lon="2.00138">
        <ele>3.5</ele>
        <time>2020-06-22T21:57:41Z</time>
      </trkpt>
      <trkpt lat="50.9912" lon="2.00143">
        <ele>3.5</ele>
        <time>2020-06-22T21:57:42Z</time>
      </trkpt>
      <trkpt lat="50.99121" lon="2.00148">
        <ele>3.5</ele>
        <time>2020-06-22T21:57:43Z</time>
      </trkpt>
      <trkpt lat="50.99121" lon="2.00153">
        <ele>3.5</ele>
        <time>2020-06-22T21:57:44Z</time>
      </trkpt>
      <trkpt lat="50.99121" lon="2.00157">
        <ele>3.5</ele>
        <time>2020-06-22T21:57:45Z</time>
      </trkpt>
      <trkpt lat="50.99122" lon="2.00163">
        <ele>3.5</ele>
        <time>2020-06-22T21:57:46Z</time>
      </trkpt>
      <trkpt lat="50.99123" lon="2.00165">
        <ele>3.5</ele>
        <time>2020-06-22T21:57:47Z</time>
      </trkpt>
      <trkpt lat="50.99124" lon="2.0017">
        <ele>3.5</ele>
        <time>2020-06-22T21:57:48Z</time>
      </trkpt>
      <trkpt lat="50.99124" lon="2.00174">
        <ele>3.5</ele>
        <time>2020-06-22T21:57:49Z</time>
      </trkpt>
      <trkpt lat="50.99125" lon="2.00179">
        <ele>3.5</ele>
        <time>2020-06-22T21:57:50Z</time>
      </trkpt>
      <trkpt lat="50.99126" lon="2.00184">
        <ele>3.5</ele>
        <time>2020-06-22T21:57:51Z</time>
      </trkpt>
      <trkpt lat="50.99127" lon="2.0019">
        <ele>3.5</ele>
        <time>2020-06-22T21:57:52Z</time>
      </trkpt>
      <trkpt lat="50.99128" lon="2.00196">
        <ele>3.4</ele>
        <time>2020-06-22T21:57:53Z</time>
      </trkpt>
      <trkpt lat="50.99128" lon="2.00202">
        <ele>3.4</ele>
        <time>2020-06-22T21:57:54Z</time>
      </trkpt>
      <trkpt lat="50.99128" lon="2.00208">
        <ele>3.4</ele>
        <time>2020-06-22T21:57:55Z</time>
      </trkpt>
      <trkpt lat="50.99128" lon="2.00213">
        <ele>3.4</ele>
        <time>2020-06-22T21:57:56Z</time>
      </trkpt>
      <trkpt lat="50.99127" lon="2.00219">
        <ele>3.4</ele>
        <time>2020-06-22T21:57:57Z</time>
      </trkpt>
      <trkpt lat="50.99126" lon="2.00223">
        <ele>3.4</ele>
        <time>2020-06-22T21:57:58Z</time>
      </trkpt>
      <trkpt lat="50.99127" lon="2.00228">
        <ele>3.4</ele>
        <time>2020-06-22T21:57:59Z</time>
      </trkpt>
      <trkpt lat="50.99127" lon="2.00234">
        <ele>3.4</ele>
        <time>2020-06-22T21:58:00Z</time>
      </trkpt>
      <trkpt lat="50.99127" lon="2.00239">
        <ele>3.4</ele>
        <time>2020-06-22T21:58:01Z</time>
      </trkpt>
      <trkpt lat="50.99129" lon="2.00243">
        <ele>3.4</ele>
        <time>2020-06-22T21:58:02Z</time>
      </trkpt>
      <trkpt lat="50.99129" lon="2.00247">
        <ele>3.4</ele>
        <time>2020-06-22T21:58:03Z</time>
      </trkpt>
      <trkpt lat="50.99128" lon="2.00252">
        <ele>3.4</ele>
        <time>2020-06-22T21:58:04Z</time>
      </trkpt>
      <trkpt lat="50.99129" lon="2.00257">
        <ele>3.4</ele>
        <time>2020-06-22T21:58:05Z</time>
      </trkpt>
      <trkpt lat="50.99128" lon="2.00263">
        <ele>3.4</ele>
        <time>2020-06-22T21:58:06Z</time>
      </trkpt>
      <trkpt lat="50.99129" lon="2.00268">
        <ele>3.5</ele>
        <time>2020-06-22T21:58:07Z</time>
      </trkpt>
      <trkpt lat="50.9913" lon="2.00274">
        <ele>3.5</ele>
        <time>2020-06-22T21:58:08Z</time>
      </trkpt>
      <trkpt lat="50.9913" lon="2.0028">
        <ele>3.5</ele>
        <time>2020-06-22T21:58:09Z</time>
      </trkpt>
      <trkpt lat="50.99132" lon="2.00286">
        <ele>3.5</ele>
        <time>2020-06-22T21:58:10Z</time>
      </trkpt>
      <trkpt lat="50.99131" lon="2.00291">
        <ele>3.5</ele>
        <time>2020-06-22T21:58:11Z</time>
      </trkpt>
      <trkpt lat="50.99131" lon="2.00296">
        <ele>3.5</ele>
        <time>2020-06-22T21:58:12Z</time>
      </trkpt>
      <trkpt lat="50.99131" lon="2.00301">
        <ele>3.5</ele>
        <time>2020-06-22T21:58:13Z</time>
      </trkpt>
      <trkpt lat="50.99131" lon="2.00305">
        <ele>3.5</ele>
        <time>2020-06-22T21:58:14Z</time>
      </trkpt>
      <trkpt lat="50.99132" lon="2.0031">
        <ele>3.5</ele>
        <time>2020-06-22T21:58:15Z</time>
      </trkpt>
      <trkpt lat="50.99133" lon="2.00315">
        <ele>3.5</ele>
        <time>2020-06-22T21:58:16Z</time>
      </trkpt>
      <trkpt lat="50.99133" lon="2.00321">
        <ele>3.5</ele>
        <time>2020-06-22T21:58:17Z</time>
      </trkpt>
      <trkpt lat="50.99134" lon="2.00323">
        <ele>3.5</ele>
        <time>2020-06-22T21:58:18Z</time>
      </trkpt>
      <trkpt lat="50.99136" lon="2.00327">
        <ele>3.5</ele>
        <time>2020-06-22T21:58:19Z</time>
      </trkpt>
      <trkpt lat="50.99136" lon="2.00329">
        <ele>3.5</ele>
        <time>2020-06-22T21:58:20Z</time>
      </trkpt>
      <trkpt lat="50.99137" lon="2.00335">
        <ele>3.5</ele>
        <time>2020-06-22T21:58:21Z</time>
      </trkpt>
      <trkpt lat="50.99137" lon="2.00337">
        <ele>3.5</ele>
        <time>2020-06-22T21:58:22Z</time>
      </trkpt>
      <trkpt lat="50.99138" lon="2.00342">
        <ele>3.5</ele>
        <time>2020-06-22T21:58:23Z</time>
      </trkpt>
      <trkpt lat="50.99138" lon="2.00344">
        <ele>3.5</ele>
        <time>2020-06-22T21:58:24Z</time>
      </trkpt>
      <trkpt lat="50.99138" lon="2.00349">
        <ele>3.5</ele>
        <time>2020-06-22T21:58:25Z</time>
      </trkpt>
      <trkpt lat="50.99139" lon="2.00352">
        <ele>3.5</ele>
        <time>2020-06-22T21:58:26Z</time>
      </trkpt>
      <trkpt lat="50.99139" lon="2.00357">
        <ele>3.5</ele>
        <time>2020-06-22T21:58:27Z</time>
      </trkpt>
      <trkpt lat="50.9914" lon="2.00362">
        <ele>3.5</ele>
        <time>2020-06-22T21:58:28Z</time>
      </trkpt>
      <trkpt lat="50.9914" lon="2.00368">
        <ele>3.5</ele>
        <time>2020-06-22T21:58:29Z</time>
      </trkpt>
      <trkpt lat="50.9914" lon="2.00369">
        <ele>3.5</ele>
        <time>2020-06-22T21:58:30Z</time>
      </trkpt>
      <trkpt lat="50.99139" lon="2.00376">
        <ele>3.5</ele>
        <time>2020-06-22T21:58:31Z</time>
      </trkpt>
      <trkpt lat="50.99139" lon="2.00378">
        <ele>3.5</ele>
        <time>2020-06-22T21:58:32Z</time>
      </trkpt>
      <trkpt lat="50.99139" lon="2.00383">
        <ele>3.6</ele>
        <time>2020-06-22T21:58:33Z</time>
      </trkpt>
      <trkpt lat="50.99139" lon="2.00388">
        <ele>3.6</ele>
        <time>2020-06-22T21:58:34Z</time>
      </trkpt>
      <trkpt lat="50.99139" lon="2.00394">
        <ele>3.6</ele>
        <time>2020-06-22T21:58:35Z</time>
      </trkpt>
      <trkpt lat="50.99138" lon="2.00399">
        <ele>3.6</ele>
        <time>2020-06-22T21:58:36Z</time>
      </trkpt>
      <trkpt lat="50.99137" lon="2.00404">
        <ele>3.6</ele>
        <time>2020-06-22T21:58:37Z</time>
      </trkpt>
      <trkpt lat="50.99137" lon="2.0041">
        <ele>3.6</ele>
        <time>2020-06-22T21:58:38Z</time>
      </trkpt>
      <trkpt lat="50.99137" lon="2.00415">
        <ele>3.7</ele>
        <time>2020-06-22T21:58:39Z</time>
      </trkpt>
      <trkpt lat="50.99138" lon="2.00421">
        <ele>3.7</ele>
        <time>2020-06-22T21:58:40Z</time>
      </trkpt>
      <trkpt lat="50.9914" lon="2.00428">
        <ele>3.7</ele>
        <time>2020-06-22T21:58:41Z</time>
      </trkpt>
      <trkpt lat="50.9914" lon="2.00434">
        <ele>3.7</ele>
        <time>2020-06-22T21:58:42Z</time>
      </trkpt>
      <trkpt lat="50.99141" lon="2.00439">
        <ele>3.7</ele>
        <time>2020-06-22T21:58:43Z</time>
      </trkpt>
      <trkpt lat="50.99141" lon="2.00441">
        <ele>3.7</ele>
        <time>2020-06-22T21:58:44Z</time>
      </trkpt>
      <trkpt lat="50.99142" lon="2.00445">
        <ele>3.7</ele>
        <time>2020-06-22T21:58:45Z</time>
      </trkpt>
      <trkpt lat="50.99142" lon="2.00451">
        <ele>3.7</ele>
        <time>2020-06-22T21:58:46Z</time>
      </trkpt>
      <trkpt lat="50.99142" lon="2.00453">
        <ele>3.7</ele>
        <time>2020-06-22T21:58:47Z</time>
      </trkpt>
      <trkpt lat="50.99143" lon="2.00458">
        <ele>3.8</ele>
        <time>2020-06-22T21:58:48Z</time>
      </trkpt>
      <trkpt lat="50.99143" lon="2.00464">
        <ele>3.8</ele>
        <time>2020-06-22T21:58:49Z</time>
      </trkpt>
      <trkpt lat="50.99143" lon="2.00469">
        <ele>3.8</ele>
        <time>2020-06-22T21:58:50Z</time>
      </trkpt>
      <trkpt lat="50.99143" lon="2.00475">
        <ele>3.8</ele>
        <time>2020-06-22T21:58:51Z</time>
      </trkpt>
      <trkpt lat="50.99144" lon="2.00481">
        <ele>3.8</ele>
        <time>2020-06-22T21:58:52Z</time>
      </trkpt>
      <trkpt lat="50.99145" lon="2.00486">
        <ele>3.8</ele>
        <time>2020-06-22T21:58:53Z</time>
      </trkpt>
      <trkpt lat="50.99147" lon="2.00495">
        <ele>3.8</ele>
        <time>2020-06-22T21:58:54Z</time>
      </trkpt>
      <trkpt lat="50.99147" lon="2.00498">
        <ele>3.8</ele>
        <time>2020-06-22T21:58:55Z</time>
      </trkpt>
      <trkpt lat="50.99148" lon="2.00506">
        <ele>3.8</ele>
        <time>2020-06-22T21:58:56Z</time>
      </trkpt>
      <trkpt lat="50.99149" lon="2.00512">
        <ele>3.8</ele>
        <time>2020-06-22T21:58:57Z</time>
      </trkpt>
      <trkpt lat="50.9915" lon="2.00516">
        <ele>3.8</ele>
        <time>2020-06-22T21:58:58Z</time>
      </trkpt>
      <trkpt lat="50.99151" lon="2.00521">
        <ele>3.8</ele>
        <time>2020-06-22T21:58:59Z</time>
      </trkpt>
      <trkpt lat="50.99152" lon="2.00527">
        <ele>3.8</ele>
        <time>2020-06-22T21:59:00Z</time>
      </trkpt>
      <trkpt lat="50.99153" lon="2.00532">
        <ele>3.8</ele>
        <time>2020-06-22T21:59:01Z</time>
      </trkpt>
      <trkpt lat="50.99153" lon="2.00536">
        <ele>3.8</ele>
        <time>2020-06-22T21:59:02Z</time>
      </trkpt>
      <trkpt lat="50.99154" lon="2.0054">
        <ele>3.8</ele>
        <time>2020-06-22T21:59:03Z</time>
      </trkpt>
      <trkpt lat="50.99155" lon="2.00548">
        <ele>3.8</ele>
        <time>2020-06-22T21:59:04Z</time>
      </trkpt>
      <trkpt lat="50.99155" lon="2.00551">
        <ele>3.9</ele>
        <time>2020-06-22T21:59:05Z</time>
      </trkpt>
      <trkpt lat="50.99155" lon="2.00556">
        <ele>3.9</ele>
        <time>2020-06-22T21:59:06Z</time>
      </trkpt>
      <trkpt lat="50.99156" lon="2.00561">
        <ele>3.9</ele>
        <time>2020-06-22T21:59:07Z</time>
      </trkpt>
      <trkpt lat="50.99157" lon="2.00567">
        <ele>3.9</ele>
        <time>2020-06-22T21:59:08Z</time>
      </trkpt>
      <trkpt lat="50.99158" lon="2.00574">
        <ele>3.9</ele>
        <time>2020-06-22T21:59:09Z</time>
      </trkpt>
      <trkpt lat="50.9916" lon="2.00585">
        <ele>3.8</ele>
        <time>2020-06-22T21:59:10Z</time>
      </trkpt>
      <trkpt lat="50.99162" lon="2.00596">
        <ele>3.8</ele>
        <time>2020-06-22T21:59:11Z</time>
      </trkpt>
      <trkpt lat="50.99163" lon="2.00604">
        <ele>3.9</ele>
        <time>2020-06-22T21:59:12Z</time>
      </trkpt>
      <trkpt lat="50.99164" lon="2.00611">
        <ele>3.9</ele>
        <time>2020-06-22T21:59:13Z</time>
      </trkpt>
      <trkpt lat="50.99165" lon="2.00616">
        <ele>3.9</ele>
        <time>2020-06-22T21:59:14Z</time>
      </trkpt>
      <trkpt lat="50.99166" lon="2.00621">
        <ele>3.9</ele>
        <time>2020-06-22T21:59:15Z</time>
      </trkpt>
      <trkpt lat="50.99167" lon="2.00628">
        <ele>3.9</ele>
        <time>2020-06-22T21:59:16Z</time>
      </trkpt>
      <trkpt lat="50.99168" lon="2.00633">
        <ele>3.9</ele>
        <time>2020-06-22T21:59:17Z</time>
      </trkpt>
      <trkpt lat="50.99167" lon="2.0064">
        <ele>3.9</ele>
        <time>2020-06-22T21:59:18Z</time>
      </trkpt>
      <trkpt lat="50.99167" lon="2.00647">
        <ele>3.9</ele>
        <time>2020-06-22T21:59:19Z</time>
      </trkpt>
      <trkpt lat="50.99169" lon="2.00653">
        <ele>4</ele>
        <time>2020-06-22T21:59:20Z</time>
      </trkpt>
      <trkpt lat="50.99169" lon="2.00658">
        <ele>4</ele>
        <time>2020-06-22T21:59:21Z</time>
      </trkpt>
      <trkpt lat="50.9917" lon="2.00664">
        <ele>4</ele>
        <time>2020-06-22T21:59:22Z</time>
      </trkpt>
      <trkpt lat="50.99171" lon="2.00672">
        <ele>4</ele>
        <time>2020-06-22T21:59:23Z</time>
      </trkpt>
      <trkpt lat="50.99172" lon="2.00678">
        <ele>4</ele>
        <time>2020-06-22T21:59:24Z</time>
      </trkpt>
      <trkpt lat="50.99172" lon="2.00685">
        <ele>4</ele>
        <time>2020-06-22T21:59:25Z</time>
      </trkpt>
      <trkpt lat="50.99172" lon="2.00691">
        <ele>4</ele>
        <time>2020-06-22T21:59:26Z</time>
      </trkpt>
      <trkpt lat="50.99173" lon="2.00697">
        <ele>4</ele>
        <time>2020-06-22T21:59:27Z</time>
      </trkpt>
      <trkpt lat="50.99174" lon="2.00703">
        <ele>4</ele>
        <time>2020-06-22T21:59:28Z</time>
      </trkpt>
      <trkpt lat="50.99174" lon="2.00708">
        <ele>4</ele>
        <time>2020-06-22T21:59:29Z</time>
      </trkpt>
      <trkpt lat="50.99175" lon="2.00715">
        <ele>4</ele>
        <time>2020-06-22T21:59:30Z</time>
      </trkpt>
      <trkpt lat="50.99176" lon="2.0072">
        <ele>4</ele>
        <time>2020-06-22T21:59:31Z</time>
      </trkpt>
      <trkpt lat="50.99177" lon="2.00727">
        <ele>4</ele>
        <time>2020-06-22T21:59:32Z</time>
      </trkpt>
      <trkpt lat="50.99178" lon="2.00733">
        <ele>4</ele>
        <time>2020-06-22T21:59:33Z</time>
      </trkpt>
      <trkpt lat="50.99179" lon="2.0074">
        <ele>4</ele>
        <time>2020-06-22T21:59:34Z</time>
      </trkpt>
      <trkpt lat="50.9918" lon="2.00745">
        <ele>4</ele>
        <time>2020-06-22T21:59:35Z</time>
      </trkpt>
      <trkpt lat="50.9918" lon="2.00746">
        <ele>4</ele>
        <time>2020-06-22T21:59:36Z</time>
      </trkpt>
      <trkpt lat="50.99181" lon="2.00753">
        <ele>4</ele>
        <time>2020-06-22T21:59:37Z</time>
      </trkpt>
      <trkpt lat="50.99182" lon="2.00758">
        <ele>4</ele>
        <time>2020-06-22T21:59:38Z</time>
      </trkpt>
      <trkpt lat="50.99184" lon="2.00765">
        <ele>4</ele>
        <time>2020-06-22T21:59:39Z</time>
      </trkpt>
      <trkpt lat="50.99186" lon="2.00771">
        <ele>4</ele>
        <time>2020-06-22T21:59:40Z</time>
      </trkpt>
      <trkpt lat="50.99187" lon="2.00776">
        <ele>4.1</ele>
        <time>2020-06-22T21:59:41Z</time>
      </trkpt>
      <trkpt lat="50.99188" lon="2.00782">
        <ele>4.1</ele>
        <time>2020-06-22T21:59:42Z</time>
      </trkpt>
      <trkpt lat="50.99189" lon="2.00791">
        <ele>4.1</ele>
        <time>2020-06-22T21:59:43Z</time>
      </trkpt>
      <trkpt lat="50.9919" lon="2.00797">
        <ele>4.1</ele>
        <time>2020-06-22T21:59:44Z</time>
      </trkpt>
      <trkpt lat="50.99191" lon="2.00805">
        <ele>4.1</ele>
        <time>2020-06-22T21:59:45Z</time>
      </trkpt>
      <trkpt lat="50.99191" lon="2.00811">
        <ele>4.1</ele>
        <time>2020-06-22T21:59:46Z</time>
      </trkpt>
      <trkpt lat="50.9919" lon="2.00819">
        <ele>4.1</ele>
        <time>2020-06-22T21:59:47Z</time>
      </trkpt>
      <trkpt lat="50.99189" lon="2.00823">
        <ele>4.1</ele>
        <time>2020-06-22T21:59:48Z</time>
      </trkpt>
      <trkpt lat="50.9919" lon="2.00831">
        <ele>4.1</ele>
        <time>2020-06-22T21:59:49Z</time>
      </trkpt>
      <trkpt lat="50.99191" lon="2.00838">
        <ele>4.1</ele>
        <time>2020-06-22T21:59:50Z</time>
      </trkpt>
      <trkpt lat="50.99191" lon="2.00843">
        <ele>4.1</ele>
        <time>2020-06-22T21:59:51Z</time>
      </trkpt>
      <trkpt lat="50.99192" lon="2.00848">
        <ele>4.1</ele>
        <time>2020-06-22T21:59:52Z</time>
      </trkpt>
      <trkpt lat="50.99193" lon="2.00857">
        <ele>4.1</ele>
        <time>2020-06-22T21:59:53Z</time>
      </trkpt>
      <trkpt lat="50.99194" lon="2.00863">
        <ele>4.1</ele>
        <time>2020-06-22T21:59:54Z</time>
      </trkpt>
      <trkpt lat="50.99195" lon="2.00869">
        <ele>4.1</ele>
        <time>2020-06-22T21:59:55Z</time>
      </trkpt>
      <trkpt lat="50.99196" lon="2.00875">
        <ele>4.1</ele>
        <time>2020-06-22T21:59:56Z</time>
      </trkpt>
      <trkpt lat="50.99197" lon="2.00882">
        <ele>4.2</ele>
        <time>2020-06-22T21:59:57Z</time>
      </trkpt>
      <trkpt lat="50.99198" lon="2.00889">
        <ele>4.1</ele>
        <time>2020-06-22T21:59:58Z</time>
      </trkpt>
      <trkpt lat="50.992" lon="2.00897">
        <ele>4.1</ele>
        <time>2020-06-22T21:59:59Z</time>
      </trkpt>
      <trkpt lat="50.99201" lon="2.00904">
        <ele>4.1</ele>
        <time>2020-06-22T22:00:00Z</time>
      </trkpt>
      <trkpt lat="50.99203" lon="2.00911">
        <ele>4.1</ele>
        <time>2020-06-22T22:00:01Z</time>
      </trkpt>
      <trkpt lat="50.99205" lon="2.00918">
        <ele>4.1</ele>
        <time>2020-06-22T22:00:02Z</time>
      </trkpt>
      <trkpt lat="50.99206" lon="2.00925">
        <ele>4.1</ele>
        <time>2020-06-22T22:00:03Z</time>
      </trkpt>
      <trkpt lat="50.99207" lon="2.00931">
        <ele>4.1</ele>
        <time>2020-06-22T22:00:04Z</time>
      </trkpt>
      <trkpt lat="50.99208" lon="2.00939">
        <ele>4.1</ele>
        <time>2020-06-22T22:00:05Z</time>
      </trkpt>
      <trkpt lat="50.99209" lon="2.00947">
        <ele>4.1</ele>
        <time>2020-06-22T22:00:06Z</time>
      </trkpt>
      <trkpt lat="50.9921" lon="2.00953">
        <ele>4.1</ele>
        <time>2020-06-22T22:00:07Z</time>
      </trkpt>
      <trkpt lat="50.99211" lon="2.00959">
        <ele>4.1</ele>
        <time>2020-06-22T22:00:08Z</time>
      </trkpt>
      <trkpt lat="50.99212" lon="2.00966">
        <ele>4.1</ele>
        <time>2020-06-22T22:00:09Z</time>
      </trkpt>
      <trkpt lat="50.99213" lon="2.00972">
        <ele>4</ele>
        <time>2020-06-22T22:00:10Z</time>
      </trkpt>
      <trkpt lat="50.99213" lon="2.00978">
        <ele>4</ele>
        <time>2020-06-22T22:00:11Z</time>
      </trkpt>
      <trkpt lat="50.99214" lon="2.00986">
        <ele>4.1</ele>
        <time>2020-06-22T22:00:12Z</time>
      </trkpt>
      <trkpt lat="50.99215" lon="2.00993">
        <ele>4.1</ele>
        <time>2020-06-22T22:00:13Z</time>
      </trkpt>
      <trkpt lat="50.99217" lon="2.01">
        <ele>4.1</ele>
        <time>2020-06-22T22:00:14Z</time>
      </trkpt>
      <trkpt lat="50.99218" lon="2.01007">
        <ele>4.1</ele>
        <time>2020-06-22T22:00:15Z</time>
      </trkpt>
      <trkpt lat="50.99219" lon="2.01014">
        <ele>4.1</ele>
        <time>2020-06-22T22:00:16Z</time>
      </trkpt>
      <trkpt lat="50.9922" lon="2.0102">
        <ele>4.1</ele>
        <time>2020-06-22T22:00:17Z</time>
      </trkpt>
      <trkpt lat="50.99221" lon="2.01025">
        <ele>4.1</ele>
        <time>2020-06-22T22:00:18Z</time>
      </trkpt>
      <trkpt lat="50.99222" lon="2.01031">
        <ele>4.1</ele>
        <time>2020-06-22T22:00:19Z</time>
      </trkpt>
      <trkpt lat="50.99222" lon="2.01032">
        <ele>4.1</ele>
        <time>2020-06-22T22:00:20Z</time>
      </trkpt>
      <trkpt lat="50.99222" lon="2.01035">
        <ele>4.1</ele>
        <time>2020-06-22T22:00:21Z</time>
      </trkpt>
      <trkpt lat="50.99222" lon="2.01038">
        <ele>4.1</ele>
        <time>2020-06-22T22:00:22Z</time>
      </trkpt>
      <trkpt lat="50.99221" lon="2.01037">
        <ele>4.1</ele>
        <time>2020-06-22T22:00:23Z</time>
      </trkpt>
      <trkpt lat="50.99222" lon="2.01038">
        <ele>4.1</ele>
        <time>2020-06-22T22:00:24Z</time>
      </trkpt>
      <trkpt lat="50.99221" lon="2.0104">
        <ele>4.2</ele>
        <time>2020-06-22T22:00:25Z</time>
      </trkpt>
      <trkpt lat="50.99221" lon="2.0104">
        <ele>4.2</ele>
        <time>2020-06-22T22:00:26Z</time>
      </trkpt>
      <trkpt lat="50.9922" lon="2.0104">
        <ele>4.2</ele>
        <time>2020-06-22T22:00:27Z</time>
      </trkpt>
      <trkpt lat="50.9922" lon="2.01041">
        <ele>4.2</ele>
        <time>2020-06-22T22:00:28Z</time>
      </trkpt>
      <trkpt lat="50.9922" lon="2.01041">
        <ele>4.2</ele>
        <time>2020-06-22T22:00:29Z</time>
      </trkpt>
      <trkpt lat="50.99221" lon="2.01041">
        <ele>4.2</ele>
        <time>2020-06-22T22:00:30Z</time>
      </trkpt>
      <trkpt lat="50.99221" lon="2.01041">
        <ele>4.2</ele>
        <time>2020-06-22T22:00:31Z</time>
      </trkpt>
      <trkpt lat="50.99219" lon="2.01042">
        <ele>4.2</ele>
        <time>2020-06-22T22:00:32Z</time>
      </trkpt>
      <trkpt lat="50.99217" lon="2.01043">
        <ele>4.2</ele>
        <time>2020-06-22T22:00:33Z</time>
      </trkpt>
      <trkpt lat="50.99216" lon="2.01044">
        <ele>4.2</ele>
        <time>2020-06-22T22:01:20Z</time>
      </trkpt>
      <trkpt lat="50.99214" lon="2.01045">
        <ele>4.2</ele>
        <time>2020-06-22T22:01:21Z</time>
      </trkpt>
      <trkpt lat="50.99212" lon="2.01046">
        <ele>4.2</ele>
        <time>2020-06-22T22:01:22Z</time>
      </trkpt>
      <trkpt lat="50.99211" lon="2.01047">
        <ele>4.2</ele>
        <time>2020-06-22T22:01:23Z</time>
      </trkpt>
      <trkpt lat="50.99211" lon="2.01048">
        <ele>4.2</ele>
        <time>2020-06-22T22:01:24Z</time>
      </trkpt>
      <trkpt lat="50.99211" lon="2.01047">
        <ele>4.2</ele>
        <time>2020-06-22T22:01:25Z</time>
      </trkpt>
      <trkpt lat="50.9921" lon="2.01048">
        <ele>4.2</ele>
        <time>2020-06-22T22:01:26Z</time>
      </trkpt>
      <trkpt lat="50.9921" lon="2.01048">
        <ele>4.2</ele>
        <time>2020-06-22T22:01:27Z</time>
      </trkpt>
      <trkpt lat="50.9921" lon="2.01048">
        <ele>4.2</ele>
        <time>2020-06-22T22:01:28Z</time>
      </trkpt>
      <trkpt lat="50.9921" lon="2.01048">
        <ele>4.2</ele>
        <time>2020-06-22T22:01:29Z</time>
      </trkpt>
      <trkpt lat="50.9921" lon="2.01048">
        <ele>4.2</ele>
        <time>2020-06-22T22:01:30Z</time>
      </trkpt>
      <trkpt lat="50.9921" lon="2.0105">
        <ele>4.2</ele>
        <time>2020-06-22T22:01:31Z</time>
      </trkpt>
      <trkpt lat="50.99211" lon="2.01051">
        <ele>4.2</ele>
        <time>2020-06-22T22:01:32Z</time>
      </trkpt>
      <trkpt lat="50.99211" lon="2.0105">
        <ele>4.2</ele>
        <time>2020-06-22T22:01:33Z</time>
      </trkpt>
      <trkpt lat="50.9921" lon="2.01047">
        <ele>4.2</ele>
        <time>2020-06-22T22:01:34Z</time>
      </trkpt>
      <trkpt lat="50.99211" lon="2.01046">
        <ele>4.2</ele>
        <time>2020-06-22T22:01:35Z</time>
      </trkpt>
      <trkpt lat="50.99211" lon="2.01045">
        <ele>4.2</ele>
        <time>2020-06-22T22:01:36Z</time>
      </trkpt>
      <trkpt lat="50.99212" lon="2.01044">
        <ele>4.2</ele>
        <time>2020-06-22T22:01:37Z</time>
      </trkpt>
      <trkpt lat="50.99213" lon="2.01045">
        <ele>4.2</ele>
        <time>2020-06-22T22:01:38Z</time>
      </trkpt>
      <trkpt lat="50.99214" lon="2.01045">
        <ele>4.2</ele>
        <time>2020-06-22T22:01:39Z</time>
      </trkpt>
      <trkpt lat="50.99215" lon="2.01045">
        <ele>4.2</ele>
        <time>2020-06-22T22:01:40Z</time>
      </trkpt>
      <trkpt lat="50.99215" lon="2.01045">
        <ele>4.2</ele>
        <time>2020-06-22T22:01:41Z</time>
      </trkpt>
      <trkpt lat="50.99216" lon="2.01046">
        <ele>4.2</ele>
        <time>2020-06-22T22:01:42Z</time>
      </trkpt>
      <trkpt lat="50.99217" lon="2.01046">
        <ele>4.2</ele>
        <time>2020-06-22T22:01:43Z</time>
      </trkpt>
      <trkpt lat="50.99217" lon="2.01046">
        <ele>4.2</ele>
        <time>2020-06-22T22:01:44Z</time>
      </trkpt>
      <trkpt lat="50.99217" lon="2.01046">
        <ele>4.2</ele>
        <time>2020-06-22T22:01:45Z</time>
      </trkpt>
      <trkpt lat="50.99217" lon="2.01047">
        <ele>4.2</ele>
        <time>2020-06-22T22:01:46Z</time>
      </trkpt>
      <trkpt lat="50.99216" lon="2.01047">
        <ele>4.2</ele>
        <time>2020-06-22T22:01:47Z</time>
      </trkpt>
      <trkpt lat="50.99217" lon="2.01048">
        <ele>4.2</ele>
        <time>2020-06-22T22:01:48Z</time>
      </trkpt>
      <trkpt lat="50.99217" lon="2.01048">
        <ele>4.2</ele>
        <time>2020-06-22T22:01:49Z</time>
      </trkpt>
      <trkpt lat="50.99217" lon="2.01048">
        <ele>4.2</ele>
        <time>2020-06-22T22:01:50Z</time>
      </trkpt>
      <trkpt lat="50.99217" lon="2.01048">
        <ele>4.2</ele>
        <time>2020-06-22T22:01:51Z</time>
      </trkpt>
    </trkseg>
  </trk>
</gpx>